<?xml version='1.0' encoding='UTF-8'?><gpx version="1.1" creator="JPX - https://github.com/jenetics/jpx" xmlns="http://www.topografix.com/GPX/1/1"><trk><trkseg><trkpt lat="43.4931959" lon="11.6158625"><ele>164.0</ele><time>2026-04-25T10:03:09.073Z</time></trkpt><trkpt lat="43.4931478" lon="11.6159427"><ele>164.0</ele><time>2026-04-25T10:03:10.074Z</time></trkpt><trkpt lat="43.4930946" lon="11.616029"><ele>164.0</ele><time>2026-04-25T10:03:11.074Z</time></trkpt><trkpt lat="43.4930335" lon="11.6161115"><ele>164.0</ele><time>2026-04-25T10:03:12.074Z</time></trkpt><trkpt lat="43.492955" lon="11.6162037"><ele>164.0</ele><time>2026-04-25T10:03:13.073Z</time></trkpt><trkpt lat="43.492861" lon="11.6162978"><ele>164.25</ele><time>2026-04-25T10:03:14.074Z</time></trkpt><trkpt lat="43.4927513" lon="11.6163835"><ele>164.5</ele><time>2026-04-25T10:03:15.073Z</time></trkpt><trkpt lat="43.4926357" lon="11.6164644"><ele>164.75</ele><time>2026-04-25T10:03:16.074Z</time></trkpt><trkpt lat="43.4925223" lon="11.6165567"><ele>165.0</ele><time>2026-04-25T10:03:17.074Z</time></trkpt><trkpt lat="43.4924067" lon="11.616684"><ele>165.0</ele><time>2026-04-25T10:03:18.074Z</time></trkpt><trkpt lat="43.4922942" lon="11.6168268"><ele>165.0</ele><time>2026-04-25T10:03:19.074Z</time></trkpt><trkpt lat="43.4921815" lon="11.6169824"><ele>165.0</ele><time>2026-04-25T10:03:20.073Z</time></trkpt><trkpt lat="43.4920753" lon="11.6171363"><ele>163.0</ele><time>2026-04-25T10:03:21.074Z</time></trkpt><trkpt lat="43.491976" lon="11.6173025"><ele>161.0</ele><time>2026-04-25T10:03:22.074Z</time></trkpt><trkpt lat="43.4918768" lon="11.6174718"><ele>159.0</ele><time>2026-04-25T10:03:23.074Z</time></trkpt><trkpt lat="43.4917722" lon="11.617644"><ele>159.0</ele><time>2026-04-25T10:03:24.074Z</time></trkpt><trkpt lat="43.4916718" lon="11.6178101"><ele>159.0</ele><time>2026-04-25T10:03:25.073Z</time></trkpt><trkpt lat="43.4915733" lon="11.6179784"><ele>159.0</ele><time>2026-04-25T10:03:26.074Z</time></trkpt><trkpt lat="43.4914765" lon="11.6181433"><ele>160.66666666666666</ele><time>2026-04-25T10:03:27.073Z</time></trkpt><trkpt lat="43.491377" lon="11.618309"><ele>162.33333333333331</ele><time>2026-04-25T10:03:28.074Z</time></trkpt><trkpt lat="43.4912802" lon="11.6184718"><ele>164.0</ele><time>2026-04-25T10:03:29.074Z</time></trkpt><trkpt lat="43.4911836" lon="11.6186331"><ele>166.5</ele><time>2026-04-25T10:03:30.074Z</time></trkpt><trkpt lat="43.4910913" lon="11.6187912"><ele>169.0</ele><time>2026-04-25T10:03:31.074Z</time></trkpt><trkpt lat="43.4910011" lon="11.6189454"><ele>171.5</ele><time>2026-04-25T10:03:32.074Z</time></trkpt><trkpt lat="43.4909152" lon="11.6190883"><ele>174.0</ele><time>2026-04-25T10:03:33.074Z</time></trkpt><trkpt lat="43.4908264" lon="11.6192076"><ele>174.0</ele><time>2026-04-25T10:03:34.074Z</time></trkpt><trkpt lat="43.4907283" lon="11.6193045"><ele>174.0</ele><time>2026-04-25T10:03:35.074Z</time></trkpt><trkpt lat="43.4906266" lon="11.6193956"><ele>174.0</ele><time>2026-04-25T10:03:36.074Z</time></trkpt><trkpt lat="43.4905187" lon="11.6194724"><ele>174.0</ele><time>2026-04-25T10:03:37.074Z</time></trkpt><trkpt lat="43.4904003" lon="11.6195108"><ele>174.79999999999998</ele><time>2026-04-25T10:03:38.074Z</time></trkpt><trkpt lat="43.4902901" lon="11.619531"><ele>175.6</ele><time>2026-04-25T10:03:39.074Z</time></trkpt><trkpt lat="43.4901777" lon="11.6195315"><ele>176.4</ele><time>2026-04-25T10:03:40.073Z</time></trkpt><trkpt lat="43.4900664" lon="11.619538"><ele>177.2</ele><time>2026-04-25T10:03:41.074Z</time></trkpt><trkpt lat="43.4899537" lon="11.6195318"><ele>178.0</ele><time>2026-04-25T10:03:42.073Z</time></trkpt><trkpt lat="43.4898447" lon="11.6195253"><ele>178.0</ele><time>2026-04-25T10:03:43.073Z</time></trkpt><trkpt lat="43.4897386" lon="11.6195233"><ele>178.0</ele><time>2026-04-25T10:03:44.074Z</time></trkpt><trkpt lat="43.4896473" lon="11.6195253"><ele>178.0</ele><time>2026-04-25T10:03:45.073Z</time></trkpt><trkpt lat="43.489541" lon="11.6195298"><ele>178.0</ele><time>2026-04-25T10:03:47.074Z</time></trkpt><trkpt lat="43.4894701" lon="11.6195625"><ele>178.0</ele><time>2026-04-25T10:03:49.074Z</time></trkpt><trkpt lat="43.4894262" lon="11.6197169"><ele>177.2</ele><time>2026-04-25T10:03:51.074Z</time></trkpt><trkpt lat="43.4894264" lon="11.6198332"><ele>176.4</ele><time>2026-04-25T10:03:52.074Z</time></trkpt><trkpt lat="43.4894308" lon="11.6199694"><ele>175.6</ele><time>2026-04-25T10:03:53.074Z</time></trkpt><trkpt lat="43.4894329" lon="11.6201135"><ele>174.79999999999998</ele><time>2026-04-25T10:03:54.074Z</time></trkpt><trkpt lat="43.4894321" lon="11.6202639"><ele>174.0</ele><time>2026-04-25T10:03:55.074Z</time></trkpt><trkpt lat="43.4894327" lon="11.6204209"><ele>174.0</ele><time>2026-04-25T10:03:56.074Z</time></trkpt><trkpt lat="43.4894361" lon="11.6205831"><ele>174.0</ele><time>2026-04-25T10:03:57.074Z</time></trkpt><trkpt lat="43.4894314" lon="11.6207528"><ele>174.0</ele><time>2026-04-25T10:03:58.074Z</time></trkpt><trkpt lat="43.4894099" lon="11.6209275"><ele>174.0</ele><time>2026-04-25T10:03:59.074Z</time></trkpt><trkpt lat="43.4893614" lon="11.6210988"><ele>177.0</ele><time>2026-04-25T10:04:00.073Z</time></trkpt><trkpt lat="43.4892858" lon="11.6212603"><ele>180.0</ele><time>2026-04-25T10:04:01.074Z</time></trkpt><trkpt lat="43.4891878" lon="11.621404"><ele>183.0</ele><time>2026-04-25T10:04:02.074Z</time></trkpt><trkpt lat="43.4890762" lon="11.6215318"><ele>186.0</ele><time>2026-04-25T10:04:03.073Z</time></trkpt><trkpt lat="43.4889448" lon="11.6216433"><ele>186.0</ele><time>2026-04-25T10:04:04.073Z</time></trkpt><trkpt lat="43.4887991" lon="11.6217307"><ele>186.0</ele><time>2026-04-25T10:04:05.074Z</time></trkpt><trkpt lat="43.4886361" lon="11.6218133"><ele>186.0</ele><time>2026-04-25T10:04:06.074Z</time></trkpt><trkpt lat="43.4884664" lon="11.6219032"><ele>189.0</ele><time>2026-04-25T10:04:07.073Z</time></trkpt><trkpt lat="43.4882909" lon="11.6220066"><ele>192.0</ele><time>2026-04-25T10:04:08.074Z</time></trkpt><trkpt lat="43.4881112" lon="11.6221085"><ele>195.0</ele><time>2026-04-25T10:04:09.074Z</time></trkpt><trkpt lat="43.4879342" lon="11.6222077"><ele>192.66666666666666</ele><time>2026-04-25T10:04:10.074Z</time></trkpt><trkpt lat="43.4877582" lon="11.6222945"><ele>190.33333333333331</ele><time>2026-04-25T10:04:11.074Z</time></trkpt><trkpt lat="43.4875767" lon="11.622344"><ele>188.0</ele><time>2026-04-25T10:04:12.074Z</time></trkpt><trkpt lat="43.4873922" lon="11.6223221"><ele>188.0</ele><time>2026-04-25T10:04:13.074Z</time></trkpt><trkpt lat="43.4871979" lon="11.6222713"><ele>188.0</ele><time>2026-04-25T10:04:14.074Z</time></trkpt><trkpt lat="43.4870128" lon="11.6221989"><ele>188.0</ele><time>2026-04-25T10:04:15.074Z</time></trkpt><trkpt lat="43.4868278" lon="11.6221256"><ele>189.33333333333331</ele><time>2026-04-25T10:04:16.074Z</time></trkpt><trkpt lat="43.4866347" lon="11.6220545"><ele>190.66666666666666</ele><time>2026-04-25T10:04:17.073Z</time></trkpt><trkpt lat="43.4864392" lon="11.62199"><ele>192.0</ele><time>2026-04-25T10:04:18.074Z</time></trkpt><trkpt lat="43.4862477" lon="11.621929"><ele>187.33333333333334</ele><time>2026-04-25T10:04:19.074Z</time></trkpt><trkpt lat="43.4860593" lon="11.6218537"><ele>182.66666666666669</ele><time>2026-04-25T10:04:20.074Z</time></trkpt><trkpt lat="43.4858936" lon="11.6217481"><ele>178.0</ele><time>2026-04-25T10:04:21.073Z</time></trkpt><trkpt lat="43.4857502" lon="11.6215696"><ele>178.0</ele><time>2026-04-25T10:04:22.074Z</time></trkpt><trkpt lat="43.485604" lon="11.6213757"><ele>178.0</ele><time>2026-04-25T10:04:23.073Z</time></trkpt><trkpt lat="43.485452" lon="11.6211791"><ele>178.0</ele><time>2026-04-25T10:04:24.074Z</time></trkpt><trkpt lat="43.4852997" lon="11.6209823"><ele>177.33333333333334</ele><time>2026-04-25T10:04:25.074Z</time></trkpt><trkpt lat="43.4851395" lon="11.6207809"><ele>176.66666666666666</ele><time>2026-04-25T10:04:26.074Z</time></trkpt><trkpt lat="43.4849803" lon="11.620583"><ele>176.0</ele><time>2026-04-25T10:04:27.074Z</time></trkpt><trkpt lat="43.4848217" lon="11.6203835"><ele>176.0</ele><time>2026-04-25T10:04:28.074Z</time></trkpt><trkpt lat="43.4846574" lon="11.6201805"><ele>176.0</ele><time>2026-04-25T10:04:29.073Z</time></trkpt><trkpt lat="43.4844931" lon="11.6199796"><ele>176.0</ele><time>2026-04-25T10:04:30.073Z</time></trkpt><trkpt lat="43.4843253" lon="11.6197784"><ele>176.0</ele><time>2026-04-25T10:04:31.074Z</time></trkpt><trkpt lat="43.4841616" lon="11.6195833"><ele>176.0</ele><time>2026-04-25T10:04:32.074Z</time></trkpt><trkpt lat="43.4840013" lon="11.6193864"><ele>176.0</ele><time>2026-04-25T10:04:33.074Z</time></trkpt><trkpt lat="43.4838469" lon="11.6191932"><ele>175.0</ele><time>2026-04-25T10:04:34.074Z</time></trkpt><trkpt lat="43.483701" lon="11.6190052"><ele>174.0</ele><time>2026-04-25T10:04:35.074Z</time></trkpt><trkpt lat="43.4835624" lon="11.6188263"><ele>173.0</ele><time>2026-04-25T10:04:36.074Z</time></trkpt><trkpt lat="43.4834276" lon="11.6186561"><ele>175.33333333333331</ele><time>2026-04-25T10:04:37.074Z</time></trkpt><trkpt lat="43.4832903" lon="11.6185103"><ele>177.66666666666666</ele><time>2026-04-25T10:04:38.073Z</time></trkpt><trkpt lat="43.4831406" lon="11.6183976"><ele>180.0</ele><time>2026-04-25T10:04:39.074Z</time></trkpt><trkpt lat="43.4829876" lon="11.6183587"><ele>181.33333333333334</ele><time>2026-04-25T10:04:40.073Z</time></trkpt><trkpt lat="43.4828142" lon="11.6183624"><ele>182.66666666666669</ele><time>2026-04-25T10:04:41.074Z</time></trkpt><trkpt lat="43.4826399" lon="11.6184143"><ele>184.0</ele><time>2026-04-25T10:04:42.074Z</time></trkpt><trkpt lat="43.48247" lon="11.6185092"><ele>184.0</ele><time>2026-04-25T10:04:43.074Z</time></trkpt><trkpt lat="43.482314" lon="11.6186142"><ele>184.0</ele><time>2026-04-25T10:04:44.074Z</time></trkpt><trkpt lat="43.482146" lon="11.6187282"><ele>184.0</ele><time>2026-04-25T10:04:45.074Z</time></trkpt><trkpt lat="43.4819786" lon="11.6188439"><ele>185.0</ele><time>2026-04-25T10:04:46.073Z</time></trkpt><trkpt lat="43.4818152" lon="11.6189661"><ele>186.0</ele><time>2026-04-25T10:04:47.074Z</time></trkpt><trkpt lat="43.4816653" lon="11.6190955"><ele>187.0</ele><time>2026-04-25T10:04:48.074Z</time></trkpt><trkpt lat="43.481535" lon="11.619255"><ele>185.0</ele><time>2026-04-25T10:04:49.074Z</time></trkpt><trkpt lat="43.4814408" lon="11.6194857"><ele>183.0</ele><time>2026-04-25T10:04:50.074Z</time></trkpt><trkpt lat="43.481365" lon="11.619728"><ele>181.0</ele><time>2026-04-25T10:04:51.073Z</time></trkpt><trkpt lat="43.4813095" lon="11.619977"><ele>184.66666666666669</ele><time>2026-04-25T10:04:52.074Z</time></trkpt><trkpt lat="43.4812572" lon="11.620222"><ele>188.33333333333334</ele><time>2026-04-25T10:04:53.074Z</time></trkpt><trkpt lat="43.4811756" lon="11.6204223"><ele>192.0</ele><time>2026-04-25T10:04:54.074Z</time></trkpt><trkpt lat="43.4810432" lon="11.6205986"><ele>192.0</ele><time>2026-04-25T10:04:55.076Z</time></trkpt><trkpt lat="43.4808796" lon="11.6207516"><ele>192.0</ele><time>2026-04-25T10:04:56.076Z</time></trkpt><trkpt lat="43.4807157" lon="11.6208804"><ele>192.0</ele><time>2026-04-25T10:04:57.075Z</time></trkpt><trkpt lat="43.4805581" lon="11.6210306"><ele>194.33333333333331</ele><time>2026-04-25T10:04:58.076Z</time></trkpt><trkpt lat="43.4803893" lon="11.6211848"><ele>196.66666666666666</ele><time>2026-04-25T10:04:59.076Z</time></trkpt><trkpt lat="43.4802165" lon="11.6213448"><ele>199.0</ele><time>2026-04-25T10:05:00.076Z</time></trkpt><trkpt lat="43.4800425" lon="11.6215099"><ele>199.0</ele><time>2026-04-25T10:05:01.075Z</time></trkpt><trkpt lat="43.479873" lon="11.6216813"><ele>199.0</ele><time>2026-04-25T10:05:02.075Z</time></trkpt><trkpt lat="43.4796938" lon="11.621845"><ele>199.0</ele><time>2026-04-25T10:05:03.076Z</time></trkpt><trkpt lat="43.4795161" lon="11.621997"><ele>198.33333333333331</ele><time>2026-04-25T10:05:04.076Z</time></trkpt><trkpt lat="43.4793377" lon="11.6221252"><ele>197.66666666666669</ele><time>2026-04-25T10:05:05.075Z</time></trkpt><trkpt lat="43.4791473" lon="11.6222236"><ele>197.0</ele><time>2026-04-25T10:05:06.076Z</time></trkpt><trkpt lat="43.4789506" lon="11.6222685"><ele>200.33333333333334</ele><time>2026-04-25T10:05:07.076Z</time></trkpt><trkpt lat="43.4787443" lon="11.6222882"><ele>203.66666666666669</ele><time>2026-04-25T10:05:08.076Z</time></trkpt><trkpt lat="43.4785578" lon="11.6222967"><ele>207.0</ele><time>2026-04-25T10:05:09.076Z</time></trkpt><trkpt lat="43.4783915" lon="11.6222724"><ele>207.0</ele><time>2026-04-25T10:05:10.075Z</time></trkpt><trkpt lat="43.478237" lon="11.6221827"><ele>207.0</ele><time>2026-04-25T10:05:11.075Z</time></trkpt><trkpt lat="43.4781022" lon="11.6220428"><ele>207.0</ele><time>2026-04-25T10:05:12.075Z</time></trkpt><trkpt lat="43.4779912" lon="11.6218574"><ele>211.33333333333331</ele><time>2026-04-25T10:05:13.076Z</time></trkpt><trkpt lat="43.4779113" lon="11.621636"><ele>215.66666666666666</ele><time>2026-04-25T10:05:14.075Z</time></trkpt><trkpt lat="43.4778349" lon="11.6213962"><ele>220.0</ele><time>2026-04-25T10:05:15.075Z</time></trkpt><trkpt lat="43.4777636" lon="11.6211408"><ele>221.0</ele><time>2026-04-25T10:05:16.075Z</time></trkpt><trkpt lat="43.4776951" lon="11.6208741"><ele>222.0</ele><time>2026-04-25T10:05:17.075Z</time></trkpt><trkpt lat="43.4776217" lon="11.6206019"><ele>223.0</ele><time>2026-04-25T10:05:18.075Z</time></trkpt><trkpt lat="43.477545" lon="11.6203215"><ele>224.33333333333331</ele><time>2026-04-25T10:05:19.076Z</time></trkpt><trkpt lat="43.477467" lon="11.6200417"><ele>225.66666666666669</ele><time>2026-04-25T10:05:20.076Z</time></trkpt><trkpt lat="43.4773922" lon="11.6197547"><ele>227.0</ele><time>2026-04-25T10:05:21.076Z</time></trkpt><trkpt lat="43.477316" lon="11.6194616"><ele>228.33333333333334</ele><time>2026-04-25T10:05:22.076Z</time></trkpt><trkpt lat="43.4772341" lon="11.6191721"><ele>229.66666666666669</ele><time>2026-04-25T10:05:23.076Z</time></trkpt><trkpt lat="43.4771432" lon="11.6188919"><ele>231.0</ele><time>2026-04-25T10:05:24.076Z</time></trkpt><trkpt lat="43.4770133" lon="11.6186435"><ele>231.0</ele><time>2026-04-25T10:05:25.076Z</time></trkpt><trkpt lat="43.4768528" lon="11.6184315"><ele>231.0</ele><time>2026-04-25T10:05:26.076Z</time></trkpt><trkpt lat="43.4766676" lon="11.6182557"><ele>231.0</ele><time>2026-04-25T10:05:27.076Z</time></trkpt><trkpt lat="43.4764536" lon="11.6181234"><ele>231.5</ele><time>2026-04-25T10:05:28.076Z</time></trkpt><trkpt lat="43.4762384" lon="11.6179992"><ele>232.0</ele><time>2026-04-25T10:05:29.076Z</time></trkpt><trkpt lat="43.4760255" lon="11.6178701"><ele>237.5</ele><time>2026-04-25T10:05:30.076Z</time></trkpt><trkpt lat="43.4758135" lon="11.617742"><ele>243.0</ele><time>2026-04-25T10:05:31.076Z</time></trkpt><trkpt lat="43.4755955" lon="11.617609"><ele>241.0</ele><time>2026-04-25T10:05:32.076Z</time></trkpt><trkpt lat="43.4753762" lon="11.6174741"><ele>239.0</ele><time>2026-04-25T10:05:33.076Z</time></trkpt><trkpt lat="43.4751568" lon="11.6173372"><ele>239.0</ele><time>2026-04-25T10:05:34.076Z</time></trkpt><trkpt lat="43.474939" lon="11.6172083"><ele>239.0</ele><time>2026-04-25T10:05:35.076Z</time></trkpt><trkpt lat="43.4747227" lon="11.6170818"><ele>241.0</ele><time>2026-04-25T10:05:36.076Z</time></trkpt><trkpt lat="43.4745116" lon="11.6169562"><ele>243.0</ele><time>2026-04-25T10:05:37.075Z</time></trkpt><trkpt lat="43.4743084" lon="11.6168317"><ele>243.0</ele><time>2026-04-25T10:05:38.076Z</time></trkpt><trkpt lat="43.4741187" lon="11.6167173"><ele>243.0</ele><time>2026-04-25T10:05:39.075Z</time></trkpt><trkpt lat="43.4739609" lon="11.6166202"><ele>243.0</ele><time>2026-04-25T10:05:40.076Z</time></trkpt><trkpt lat="43.4738339" lon="11.6165416"><ele>244.25</ele><time>2026-04-25T10:05:41.075Z</time></trkpt><trkpt lat="43.4737241" lon="11.6164835"><ele>245.5</ele><time>2026-04-25T10:05:42.076Z</time></trkpt><trkpt lat="43.4736197" lon="11.6164148"><ele>246.75</ele><time>2026-04-25T10:05:43.076Z</time></trkpt><trkpt lat="43.4735122" lon="11.616354"><ele>248.0</ele><time>2026-04-25T10:05:44.076Z</time></trkpt><trkpt lat="43.4734042" lon="11.6162924"><ele>248.0</ele><time>2026-04-25T10:05:45.076Z</time></trkpt><trkpt lat="43.4732835" lon="11.6162359"><ele>248.0</ele><time>2026-04-25T10:05:46.076Z</time></trkpt><trkpt lat="43.4731492" lon="11.6161575"><ele>248.0</ele><time>2026-04-25T10:05:47.075Z</time></trkpt><trkpt lat="43.4730145" lon="11.6160539"><ele>248.0</ele><time>2026-04-25T10:05:48.076Z</time></trkpt><trkpt lat="43.4728777" lon="11.6159559"><ele>249.0</ele><time>2026-04-25T10:05:49.076Z</time></trkpt><trkpt lat="43.4727306" lon="11.6158681"><ele>250.0</ele><time>2026-04-25T10:05:50.076Z</time></trkpt><trkpt lat="43.4725965" lon="11.615779"><ele>251.0</ele><time>2026-04-25T10:05:51.076Z</time></trkpt><trkpt lat="43.4724577" lon="11.6156883"><ele>251.0</ele><time>2026-04-25T10:05:52.076Z</time></trkpt><trkpt lat="43.4723157" lon="11.6155859"><ele>251.0</ele><time>2026-04-25T10:05:53.076Z</time></trkpt><trkpt lat="43.4721733" lon="11.615475"><ele>251.0</ele><time>2026-04-25T10:05:54.075Z</time></trkpt><trkpt lat="43.4720334" lon="11.615346"><ele>251.33333333333334</ele><time>2026-04-25T10:05:55.076Z</time></trkpt><trkpt lat="43.4718933" lon="11.6152144"><ele>251.66666666666669</ele><time>2026-04-25T10:05:56.076Z</time></trkpt><trkpt lat="43.4717508" lon="11.6150949"><ele>252.0</ele><time>2026-04-25T10:05:57.076Z</time></trkpt><trkpt lat="43.4715963" lon="11.6149999"><ele>252.0</ele><time>2026-04-25T10:05:58.075Z</time></trkpt><trkpt lat="43.4714226" lon="11.6149411"><ele>252.0</ele><time>2026-04-25T10:05:59.076Z</time></trkpt><trkpt lat="43.4712403" lon="11.6149171"><ele>252.0</ele><time>2026-04-25T10:06:00.075Z</time></trkpt><trkpt lat="43.4710547" lon="11.6149322"><ele>250.66666666666669</ele><time>2026-04-25T10:06:01.076Z</time></trkpt><trkpt lat="43.4708679" lon="11.6149627"><ele>249.33333333333334</ele><time>2026-04-25T10:06:02.075Z</time></trkpt><trkpt lat="43.4706818" lon="11.6149868"><ele>248.0</ele><time>2026-04-25T10:06:03.076Z</time></trkpt><trkpt lat="43.4704939" lon="11.6149896"><ele>246.33333333333334</ele><time>2026-04-25T10:06:04.076Z</time></trkpt><trkpt lat="43.4703074" lon="11.6149503"><ele>244.66666666666669</ele><time>2026-04-25T10:06:05.076Z</time></trkpt><trkpt lat="43.4701197" lon="11.6148596"><ele>243.0</ele><time>2026-04-25T10:06:06.076Z</time></trkpt><trkpt lat="43.469943" lon="11.6147364"><ele>243.0</ele><time>2026-04-25T10:06:07.076Z</time></trkpt><trkpt lat="43.4697698" lon="11.6145954"><ele>243.0</ele><time>2026-04-25T10:06:08.075Z</time></trkpt><trkpt lat="43.4695985" lon="11.6144323"><ele>243.0</ele><time>2026-04-25T10:06:09.076Z</time></trkpt><trkpt lat="43.4694292" lon="11.6142552"><ele>242.0</ele><time>2026-04-25T10:06:10.076Z</time></trkpt><trkpt lat="43.4692587" lon="11.6140748"><ele>241.0</ele><time>2026-04-25T10:06:11.076Z</time></trkpt><trkpt lat="43.4690858" lon="11.6138939"><ele>240.0</ele><time>2026-04-25T10:06:12.076Z</time></trkpt><trkpt lat="43.4689143" lon="11.6137127"><ele>238.0</ele><time>2026-04-25T10:06:13.076Z</time></trkpt><trkpt lat="43.4687399" lon="11.6135328"><ele>236.0</ele><time>2026-04-25T10:06:14.075Z</time></trkpt><trkpt lat="43.4685687" lon="11.6133506"><ele>234.0</ele><time>2026-04-25T10:06:15.076Z</time></trkpt><trkpt lat="43.4683995" lon="11.6131729"><ele>234.0</ele><time>2026-04-25T10:06:16.076Z</time></trkpt><trkpt lat="43.4682286" lon="11.6129954"><ele>234.0</ele><time>2026-04-25T10:06:17.075Z</time></trkpt><trkpt lat="43.4680534" lon="11.6128287"><ele>234.0</ele><time>2026-04-25T10:06:18.076Z</time></trkpt><trkpt lat="43.4678651" lon="11.6126844"><ele>234.0</ele><time>2026-04-25T10:06:19.075Z</time></trkpt><trkpt lat="43.4676719" lon="11.6125629"><ele>234.0</ele><time>2026-04-25T10:06:20.076Z</time></trkpt><trkpt lat="43.4674697" lon="11.6124696"><ele>234.0</ele><time>2026-04-25T10:06:21.075Z</time></trkpt><trkpt lat="43.4672551" lon="11.6124091"><ele>233.66666666666669</ele><time>2026-04-25T10:06:22.076Z</time></trkpt><trkpt lat="43.4670335" lon="11.6123951"><ele>233.33333333333334</ele><time>2026-04-25T10:06:23.076Z</time></trkpt><trkpt lat="43.4668096" lon="11.6124146"><ele>233.0</ele><time>2026-04-25T10:06:24.076Z</time></trkpt><trkpt lat="43.4665887" lon="11.6124525"><ele>233.0</ele><time>2026-04-25T10:06:25.076Z</time></trkpt><trkpt lat="43.4663657" lon="11.6125031"><ele>233.0</ele><time>2026-04-25T10:06:26.076Z</time></trkpt><trkpt lat="43.466144" lon="11.612557"><ele>234.0</ele><time>2026-04-25T10:06:27.075Z</time></trkpt><trkpt lat="43.4659199" lon="11.6126136"><ele>235.0</ele><time>2026-04-25T10:06:28.076Z</time></trkpt><trkpt lat="43.4656926" lon="11.612675"><ele>235.0</ele><time>2026-04-25T10:06:29.075Z</time></trkpt><trkpt lat="43.465465" lon="11.6127331"><ele>235.0</ele><time>2026-04-25T10:06:30.076Z</time></trkpt><trkpt lat="43.4652365" lon="11.6127887"><ele>235.0</ele><time>2026-04-25T10:06:31.075Z</time></trkpt><trkpt lat="43.465008" lon="11.612844"><ele>235.0</ele><time>2026-04-25T10:06:32.075Z</time></trkpt><trkpt lat="43.4647824" lon="11.6128997"><ele>232.5</ele><time>2026-04-25T10:06:33.075Z</time></trkpt><trkpt lat="43.4645604" lon="11.6129617"><ele>230.0</ele><time>2026-04-25T10:06:34.076Z</time></trkpt><trkpt lat="43.4643402" lon="11.6130268"><ele>230.0</ele><time>2026-04-25T10:06:35.076Z</time></trkpt><trkpt lat="43.4641276" lon="11.6130878"><ele>230.0</ele><time>2026-04-25T10:06:36.076Z</time></trkpt><trkpt lat="43.4639202" lon="11.6131416"><ele>230.0</ele><time>2026-04-25T10:06:37.076Z</time></trkpt><trkpt lat="43.4637205" lon="11.613184"><ele>228.33333333333334</ele><time>2026-04-25T10:06:38.076Z</time></trkpt><trkpt lat="43.4635334" lon="11.6132287"><ele>226.66666666666669</ele><time>2026-04-25T10:06:39.076Z</time></trkpt><trkpt lat="43.4633462" lon="11.613277"><ele>225.0</ele><time>2026-04-25T10:06:40.076Z</time></trkpt><trkpt lat="43.4631666" lon="11.613325"><ele>225.0</ele><time>2026-04-25T10:06:41.076Z</time></trkpt><trkpt lat="43.4629944" lon="11.6133739"><ele>225.0</ele><time>2026-04-25T10:06:42.076Z</time></trkpt><trkpt lat="43.4628264" lon="11.6134157"><ele>225.0</ele><time>2026-04-25T10:06:43.076Z</time></trkpt><trkpt lat="43.4626678" lon="11.6134568"><ele>223.66666666666669</ele><time>2026-04-25T10:06:44.076Z</time></trkpt><trkpt lat="43.4625176" lon="11.6135033"><ele>222.33333333333334</ele><time>2026-04-25T10:06:45.076Z</time></trkpt><trkpt lat="43.4623706" lon="11.6135653"><ele>221.0</ele><time>2026-04-25T10:06:46.075Z</time></trkpt><trkpt lat="43.4622278" lon="11.6136444"><ele>221.66666666666669</ele><time>2026-04-25T10:06:47.076Z</time></trkpt><trkpt lat="43.462089" lon="11.6137494"><ele>222.33333333333331</ele><time>2026-04-25T10:06:48.076Z</time></trkpt><trkpt lat="43.4619561" lon="11.6138708"><ele>223.0</ele><time>2026-04-25T10:06:49.075Z</time></trkpt><trkpt lat="43.4618266" lon="11.6139846"><ele>223.0</ele><time>2026-04-25T10:06:50.076Z</time></trkpt><trkpt lat="43.4617018" lon="11.6140946"><ele>223.0</ele><time>2026-04-25T10:06:51.076Z</time></trkpt><trkpt lat="43.4615797" lon="11.6141788"><ele>223.0</ele><time>2026-04-25T10:06:52.075Z</time></trkpt><trkpt lat="43.4614562" lon="11.6142056"><ele>223.0</ele><time>2026-04-25T10:06:53.076Z</time></trkpt><trkpt lat="43.4613171" lon="11.6141747"><ele>225.33333333333331</ele><time>2026-04-25T10:06:54.076Z</time></trkpt><trkpt lat="43.4611829" lon="11.614104"><ele>227.66666666666669</ele><time>2026-04-25T10:06:55.076Z</time></trkpt><trkpt lat="43.4610472" lon="11.6140138"><ele>230.0</ele><time>2026-04-25T10:06:56.076Z</time></trkpt><trkpt lat="43.4609032" lon="11.6139121"><ele>230.0</ele><time>2026-04-25T10:06:57.076Z</time></trkpt><trkpt lat="43.4607601" lon="11.6138181"><ele>230.0</ele><time>2026-04-25T10:06:58.075Z</time></trkpt><trkpt lat="43.4606119" lon="11.6137261"><ele>230.0</ele><time>2026-04-25T10:06:59.075Z</time></trkpt><trkpt lat="43.4604638" lon="11.6136224"><ele>230.33333333333334</ele><time>2026-04-25T10:07:00.076Z</time></trkpt><trkpt lat="43.4603358" lon="11.6134837"><ele>230.66666666666669</ele><time>2026-04-25T10:07:01.076Z</time></trkpt><trkpt lat="43.4602285" lon="11.6133002"><ele>231.0</ele><time>2026-04-25T10:07:02.075Z</time></trkpt><trkpt lat="43.4601401" lon="11.613108"><ele>231.0</ele><time>2026-04-25T10:07:03.076Z</time></trkpt><trkpt lat="43.4600605" lon="11.6129166"><ele>231.0</ele><time>2026-04-25T10:07:04.076Z</time></trkpt><trkpt lat="43.459969" lon="11.6127424"><ele>231.0</ele><time>2026-04-25T10:07:05.076Z</time></trkpt><trkpt lat="43.4598488" lon="11.6125993"><ele>230.0</ele><time>2026-04-25T10:07:06.076Z</time></trkpt><trkpt lat="43.4597052" lon="11.6124741"><ele>229.0</ele><time>2026-04-25T10:07:07.076Z</time></trkpt><trkpt lat="43.4595447" lon="11.6124081"><ele>228.0</ele><time>2026-04-25T10:07:08.075Z</time></trkpt><trkpt lat="43.4593749" lon="11.6123819"><ele>228.0</ele><time>2026-04-25T10:07:09.076Z</time></trkpt><trkpt lat="43.4592022" lon="11.6124113"><ele>228.0</ele><time>2026-04-25T10:07:10.076Z</time></trkpt><trkpt lat="43.4590329" lon="11.612478"><ele>228.0</ele><time>2026-04-25T10:07:11.076Z</time></trkpt><trkpt lat="43.458871" lon="11.6125632"><ele>227.0</ele><time>2026-04-25T10:07:12.076Z</time></trkpt><trkpt lat="43.4587122" lon="11.6126682"><ele>226.0</ele><time>2026-04-25T10:07:13.076Z</time></trkpt><trkpt lat="43.4585533" lon="11.6127846"><ele>225.0</ele><time>2026-04-25T10:07:14.075Z</time></trkpt><trkpt lat="43.4583984" lon="11.6129212"><ele>225.0</ele><time>2026-04-25T10:07:15.076Z</time></trkpt><trkpt lat="43.4582377" lon="11.6130734"><ele>225.0</ele><time>2026-04-25T10:07:16.075Z</time></trkpt><trkpt lat="43.4580781" lon="11.6132247"><ele>225.0</ele><time>2026-04-25T10:07:17.076Z</time></trkpt><trkpt lat="43.4579237" lon="11.6133957"><ele>225.0</ele><time>2026-04-25T10:07:18.075Z</time></trkpt><trkpt lat="43.4577812" lon="11.6135967"><ele>225.0</ele><time>2026-04-25T10:07:19.076Z</time></trkpt><trkpt lat="43.4576554" lon="11.6138159"><ele>225.0</ele><time>2026-04-25T10:07:20.076Z</time></trkpt><trkpt lat="43.4575489" lon="11.6140397"><ele>227.0</ele><time>2026-04-25T10:07:21.076Z</time></trkpt><trkpt lat="43.4574303" lon="11.6142556"><ele>229.0</ele><time>2026-04-25T10:07:22.076Z</time></trkpt><trkpt lat="43.4573116" lon="11.6144765"><ele>231.0</ele><time>2026-04-25T10:07:23.076Z</time></trkpt><trkpt lat="43.4571803" lon="11.6146802"><ele>230.66666666666669</ele><time>2026-04-25T10:07:24.076Z</time></trkpt><trkpt lat="43.4570369" lon="11.6148732"><ele>230.33333333333334</ele><time>2026-04-25T10:07:25.076Z</time></trkpt><trkpt lat="43.4568829" lon="11.6150455"><ele>230.0</ele><time>2026-04-25T10:07:26.076Z</time></trkpt><trkpt lat="43.4567223" lon="11.6151953"><ele>230.0</ele><time>2026-04-25T10:07:27.076Z</time></trkpt><trkpt lat="43.4565547" lon="11.6153034"><ele>230.0</ele><time>2026-04-25T10:07:28.076Z</time></trkpt><trkpt lat="43.4563732" lon="11.6153768"><ele>230.0</ele><time>2026-04-25T10:07:29.076Z</time></trkpt><trkpt lat="43.4561843" lon="11.6154356"><ele>231.0</ele><time>2026-04-25T10:07:30.075Z</time></trkpt><trkpt lat="43.4560043" lon="11.6155062"><ele>232.0</ele><time>2026-04-25T10:07:31.075Z</time></trkpt><trkpt lat="43.4558182" lon="11.6155682"><ele>233.0</ele><time>2026-04-25T10:07:32.075Z</time></trkpt><trkpt lat="43.4556381" lon="11.6156247"><ele>233.0</ele><time>2026-04-25T10:07:33.075Z</time></trkpt><trkpt lat="43.4554566" lon="11.6156818"><ele>233.0</ele><time>2026-04-25T10:07:34.075Z</time></trkpt><trkpt lat="43.455281" lon="11.6157096"><ele>233.0</ele><time>2026-04-25T10:07:35.075Z</time></trkpt><trkpt lat="43.4551032" lon="11.6157005"><ele>232.0</ele><time>2026-04-25T10:07:36.075Z</time></trkpt><trkpt lat="43.4549185" lon="11.6156292"><ele>231.0</ele><time>2026-04-25T10:07:37.076Z</time></trkpt><trkpt lat="43.4547588" lon="11.6155286"><ele>230.0</ele><time>2026-04-25T10:07:38.076Z</time></trkpt><trkpt lat="43.454627" lon="11.615391"><ele>230.0</ele><time>2026-04-25T10:07:39.076Z</time></trkpt><trkpt lat="43.4545088" lon="11.6152263"><ele>230.0</ele><time>2026-04-25T10:07:40.076Z</time></trkpt><trkpt lat="43.4544233" lon="11.6150443"><ele>230.0</ele><time>2026-04-25T10:07:41.076Z</time></trkpt><trkpt lat="43.4543518" lon="11.6148662"><ele>230.0</ele><time>2026-04-25T10:07:42.076Z</time></trkpt><trkpt lat="43.4542764" lon="11.6147047"><ele>230.0</ele><time>2026-04-25T10:07:43.075Z</time></trkpt><trkpt lat="43.4541581" lon="11.6145682"><ele>230.0</ele><time>2026-04-25T10:07:44.076Z</time></trkpt><trkpt lat="43.4540042" lon="11.6144824"><ele>230.0</ele><time>2026-04-25T10:07:45.075Z</time></trkpt><trkpt lat="43.4538276" lon="11.6144181"><ele>230.0</ele><time>2026-04-25T10:07:46.076Z</time></trkpt><trkpt lat="43.4536685" lon="11.614364"><ele>230.0</ele><time>2026-04-25T10:07:47.076Z</time></trkpt><trkpt lat="43.4535124" lon="11.6143032"><ele>230.0</ele><time>2026-04-25T10:07:48.076Z</time></trkpt><trkpt lat="43.4533521" lon="11.6142847"><ele>230.0</ele><time>2026-04-25T10:07:49.075Z</time></trkpt><trkpt lat="43.4531865" lon="11.6143244"><ele>230.0</ele><time>2026-04-25T10:07:50.076Z</time></trkpt><trkpt lat="43.4530164" lon="11.614397"><ele>229.66666666666669</ele><time>2026-04-25T10:07:51.076Z</time></trkpt><trkpt lat="43.4528434" lon="11.6144876"><ele>229.33333333333331</ele><time>2026-04-25T10:07:52.076Z</time></trkpt><trkpt lat="43.4526645" lon="11.6145845"><ele>229.0</ele><time>2026-04-25T10:07:53.075Z</time></trkpt><trkpt lat="43.4524847" lon="11.6146746"><ele>229.66666666666666</ele><time>2026-04-25T10:07:54.076Z</time></trkpt><trkpt lat="43.4523044" lon="11.6147599"><ele>230.33333333333331</ele><time>2026-04-25T10:07:55.076Z</time></trkpt><trkpt lat="43.4521227" lon="11.6148508"><ele>231.0</ele><time>2026-04-25T10:07:56.076Z</time></trkpt><trkpt lat="43.4519397" lon="11.6149423"><ele>231.0</ele><time>2026-04-25T10:07:57.075Z</time></trkpt><trkpt lat="43.4517535" lon="11.6150394"><ele>231.0</ele><time>2026-04-25T10:07:58.075Z</time></trkpt><trkpt lat="43.4515613" lon="11.61514"><ele>231.0</ele><time>2026-04-25T10:07:59.076Z</time></trkpt><trkpt lat="43.4513706" lon="11.6152377"><ele>232.33333333333331</ele><time>2026-04-25T10:08:00.075Z</time></trkpt><trkpt lat="43.4511827" lon="11.615333"><ele>233.66666666666666</ele><time>2026-04-25T10:08:01.076Z</time></trkpt><trkpt lat="43.4509999" lon="11.6154307"><ele>235.0</ele><time>2026-04-25T10:08:02.076Z</time></trkpt><trkpt lat="43.4508192" lon="11.6155232"><ele>235.0</ele><time>2026-04-25T10:08:03.075Z</time></trkpt><trkpt lat="43.4506436" lon="11.6156122"><ele>235.0</ele><time>2026-04-25T10:08:04.075Z</time></trkpt><trkpt lat="43.4504651" lon="11.6157024"><ele>235.0</ele><time>2026-04-25T10:08:05.076Z</time></trkpt><trkpt lat="43.4502883" lon="11.6157949"><ele>234.0</ele><time>2026-04-25T10:08:06.076Z</time></trkpt><trkpt lat="43.4501113" lon="11.6158883"><ele>233.0</ele><time>2026-04-25T10:08:07.076Z</time></trkpt><trkpt lat="43.4499314" lon="11.6159799"><ele>232.0</ele><time>2026-04-25T10:08:08.076Z</time></trkpt><trkpt lat="43.4497463" lon="11.6160733"><ele>233.0</ele><time>2026-04-25T10:08:09.075Z</time></trkpt><trkpt lat="43.4495639" lon="11.616166"><ele>234.0</ele><time>2026-04-25T10:08:10.076Z</time></trkpt><trkpt lat="43.4493802" lon="11.616258"><ele>235.0</ele><time>2026-04-25T10:08:11.076Z</time></trkpt><trkpt lat="43.4492013" lon="11.6163465"><ele>235.0</ele><time>2026-04-25T10:08:12.076Z</time></trkpt><trkpt lat="43.4490227" lon="11.6164427"><ele>235.0</ele><time>2026-04-25T10:08:13.076Z</time></trkpt><trkpt lat="43.4488514" lon="11.6165589"><ele>235.0</ele><time>2026-04-25T10:08:14.076Z</time></trkpt><trkpt lat="43.4486898" lon="11.6166936"><ele>235.33333333333331</ele><time>2026-04-25T10:08:15.076Z</time></trkpt><trkpt lat="43.4485309" lon="11.6168342"><ele>235.66666666666669</ele><time>2026-04-25T10:08:16.076Z</time></trkpt><trkpt lat="43.4483798" lon="11.6169827"><ele>236.0</ele><time>2026-04-25T10:08:17.076Z</time></trkpt><trkpt lat="43.4482304" lon="11.6171333"><ele>236.0</ele><time>2026-04-25T10:08:18.076Z</time></trkpt><trkpt lat="43.4480895" lon="11.6172886"><ele>236.0</ele><time>2026-04-25T10:08:19.076Z</time></trkpt><trkpt lat="43.4479398" lon="11.6174372"><ele>236.0</ele><time>2026-04-25T10:08:20.076Z</time></trkpt><trkpt lat="43.4477897" lon="11.6175825"><ele>235.66666666666669</ele><time>2026-04-25T10:08:21.076Z</time></trkpt><trkpt lat="43.4476442" lon="11.6177247"><ele>235.33333333333331</ele><time>2026-04-25T10:08:22.075Z</time></trkpt><trkpt lat="43.4474979" lon="11.6178657"><ele>235.0</ele><time>2026-04-25T10:08:23.076Z</time></trkpt><trkpt lat="43.4473562" lon="11.6180097"><ele>235.66666666666666</ele><time>2026-04-25T10:08:24.076Z</time></trkpt><trkpt lat="43.4472166" lon="11.6181494"><ele>236.33333333333331</ele><time>2026-04-25T10:08:25.076Z</time></trkpt><trkpt lat="43.4470742" lon="11.6182909"><ele>237.0</ele><time>2026-04-25T10:08:26.076Z</time></trkpt><trkpt lat="43.4469333" lon="11.6184341"><ele>237.33333333333331</ele><time>2026-04-25T10:08:27.076Z</time></trkpt><trkpt lat="43.446793" lon="11.6185804"><ele>237.66666666666666</ele><time>2026-04-25T10:08:28.076Z</time></trkpt><trkpt lat="43.4466515" lon="11.6187255"><ele>238.0</ele><time>2026-04-25T10:08:29.076Z</time></trkpt><trkpt lat="43.4465153" lon="11.6188695"><ele>238.66666666666666</ele><time>2026-04-25T10:08:30.076Z</time></trkpt><trkpt lat="43.4463761" lon="11.6190102"><ele>239.33333333333331</ele><time>2026-04-25T10:08:31.075Z</time></trkpt><trkpt lat="43.4462332" lon="11.6191523"><ele>240.0</ele><time>2026-04-25T10:08:32.076Z</time></trkpt><trkpt lat="43.446092" lon="11.6192923"><ele>240.0</ele><time>2026-04-25T10:08:33.076Z</time></trkpt><trkpt lat="43.4459509" lon="11.6194305"><ele>240.0</ele><time>2026-04-25T10:08:34.076Z</time></trkpt><trkpt lat="43.4458081" lon="11.6195689"><ele>240.0</ele><time>2026-04-25T10:08:35.076Z</time></trkpt><trkpt lat="43.4456683" lon="11.6197142"><ele>241.0</ele><time>2026-04-25T10:08:36.076Z</time></trkpt><trkpt lat="43.4455298" lon="11.619867"><ele>242.0</ele><time>2026-04-25T10:08:37.076Z</time></trkpt><trkpt lat="43.4453869" lon="11.6200096"><ele>243.0</ele><time>2026-04-25T10:08:38.076Z</time></trkpt><trkpt lat="43.4452398" lon="11.6201499"><ele>243.0</ele><time>2026-04-25T10:08:39.076Z</time></trkpt><trkpt lat="43.4450967" lon="11.6202914"><ele>243.0</ele><time>2026-04-25T10:08:40.075Z</time></trkpt><trkpt lat="43.444952" lon="11.6204301"><ele>243.0</ele><time>2026-04-25T10:08:41.076Z</time></trkpt><trkpt lat="43.4448101" lon="11.6205704"><ele>244.33333333333331</ele><time>2026-04-25T10:08:42.076Z</time></trkpt><trkpt lat="43.4446688" lon="11.620718"><ele>245.66666666666666</ele><time>2026-04-25T10:08:43.076Z</time></trkpt><trkpt lat="43.4445248" lon="11.620864"><ele>247.0</ele><time>2026-04-25T10:08:44.075Z</time></trkpt><trkpt lat="43.4443805" lon="11.6210125"><ele>244.0</ele><time>2026-04-25T10:08:45.076Z</time></trkpt><trkpt lat="43.4442343" lon="11.6211624"><ele>241.0</ele><time>2026-04-25T10:08:46.076Z</time></trkpt><trkpt lat="43.4440886" lon="11.6213105"><ele>238.0</ele><time>2026-04-25T10:08:47.076Z</time></trkpt><trkpt lat="43.4439464" lon="11.6214616"><ele>238.0</ele><time>2026-04-25T10:08:48.076Z</time></trkpt><trkpt lat="43.4438048" lon="11.6216047"><ele>238.0</ele><time>2026-04-25T10:08:49.076Z</time></trkpt><trkpt lat="43.4436675" lon="11.6217467"><ele>238.0</ele><time>2026-04-25T10:08:50.076Z</time></trkpt><trkpt lat="43.4435306" lon="11.6218788"><ele>237.0</ele><time>2026-04-25T10:08:51.076Z</time></trkpt><trkpt lat="43.4433917" lon="11.6219881"><ele>236.0</ele><time>2026-04-25T10:08:52.075Z</time></trkpt><trkpt lat="43.4432439" lon="11.6220615"><ele>235.0</ele><time>2026-04-25T10:08:53.076Z</time></trkpt><trkpt lat="43.4430933" lon="11.6221095"><ele>234.25</ele><time>2026-04-25T10:08:54.076Z</time></trkpt><trkpt lat="43.4429563" lon="11.622139"><ele>233.5</ele><time>2026-04-25T10:08:55.076Z</time></trkpt><trkpt lat="43.4428374" lon="11.6221635"><ele>232.75</ele><time>2026-04-25T10:08:56.075Z</time></trkpt><trkpt lat="43.4427277" lon="11.6221858"><ele>232.0</ele><time>2026-04-25T10:08:57.076Z</time></trkpt><trkpt lat="43.4426258" lon="11.6222068"><ele>232.0</ele><time>2026-04-25T10:08:58.076Z</time></trkpt><trkpt lat="43.4425285" lon="11.6222127"><ele>232.0</ele><time>2026-04-25T10:08:59.076Z</time></trkpt><trkpt lat="43.4424357" lon="11.6222222"><ele>232.0</ele><time>2026-04-25T10:09:00.076Z</time></trkpt><trkpt lat="43.442331" lon="11.622236"><ele>232.0</ele><time>2026-04-25T10:09:01.076Z</time></trkpt><trkpt lat="43.4422126" lon="11.6222527"><ele>232.0</ele><time>2026-04-25T10:09:02.076Z</time></trkpt><trkpt lat="43.4420796" lon="11.6222561"><ele>232.25</ele><time>2026-04-25T10:09:03.076Z</time></trkpt><trkpt lat="43.4419367" lon="11.6222487"><ele>232.5</ele><time>2026-04-25T10:09:04.076Z</time></trkpt><trkpt lat="43.4417861" lon="11.6222321"><ele>232.75</ele><time>2026-04-25T10:09:05.076Z</time></trkpt><trkpt lat="43.4416351" lon="11.6222018"><ele>233.0</ele><time>2026-04-25T10:09:06.076Z</time></trkpt><trkpt lat="43.4414872" lon="11.6221375"><ele>233.0</ele><time>2026-04-25T10:09:07.076Z</time></trkpt><trkpt lat="43.4413447" lon="11.6220262"><ele>233.0</ele><time>2026-04-25T10:09:08.076Z</time></trkpt><trkpt lat="43.4412298" lon="11.6218789"><ele>233.0</ele><time>2026-04-25T10:09:09.075Z</time></trkpt><trkpt lat="43.4411187" lon="11.6217103"><ele>234.66666666666669</ele><time>2026-04-25T10:09:10.076Z</time></trkpt><trkpt lat="43.4410096" lon="11.6215336"><ele>236.33333333333331</ele><time>2026-04-25T10:09:11.076Z</time></trkpt><trkpt lat="43.4408915" lon="11.6213586"><ele>238.0</ele><time>2026-04-25T10:09:12.075Z</time></trkpt><trkpt lat="43.4407787" lon="11.6211831"><ele>237.66666666666666</ele><time>2026-04-25T10:09:13.076Z</time></trkpt><trkpt lat="43.4406806" lon="11.6209938"><ele>237.33333333333331</ele><time>2026-04-25T10:09:14.076Z</time></trkpt><trkpt lat="43.4405967" lon="11.6208047"><ele>237.0</ele><time>2026-04-25T10:09:15.076Z</time></trkpt><trkpt lat="43.440536" lon="11.620611"><ele>237.0</ele><time>2026-04-25T10:09:16.076Z</time></trkpt><trkpt lat="43.4404807" lon="11.6204141"><ele>237.0</ele><time>2026-04-25T10:09:17.076Z</time></trkpt><trkpt lat="43.4404277" lon="11.6202256"><ele>237.0</ele><time>2026-04-25T10:09:18.076Z</time></trkpt><trkpt lat="43.4403795" lon="11.6200532"><ele>237.0</ele><time>2026-04-25T10:09:19.076Z</time></trkpt><trkpt lat="43.4403316" lon="11.6198844"><ele>237.0</ele><time>2026-04-25T10:09:20.076Z</time></trkpt><trkpt lat="43.4402876" lon="11.6197126"><ele>237.0</ele><time>2026-04-25T10:09:21.076Z</time></trkpt><trkpt lat="43.4402419" lon="11.6195507"><ele>237.0</ele><time>2026-04-25T10:09:22.076Z</time></trkpt><trkpt lat="43.440197" lon="11.6194053"><ele>237.0</ele><time>2026-04-25T10:09:23.076Z</time></trkpt><trkpt lat="43.4401318" lon="11.6192806"><ele>237.0</ele><time>2026-04-25T10:09:24.076Z</time></trkpt><trkpt lat="43.4400554" lon="11.6191852"><ele>237.0</ele><time>2026-04-25T10:09:25.076Z</time></trkpt><trkpt lat="43.4399572" lon="11.619115"><ele>237.0</ele><time>2026-04-25T10:09:26.076Z</time></trkpt><trkpt lat="43.4398469" lon="11.6190891"><ele>237.0</ele><time>2026-04-25T10:09:27.076Z</time></trkpt><trkpt lat="43.4397276" lon="11.6191039"><ele>237.0</ele><time>2026-04-25T10:09:28.076Z</time></trkpt><trkpt lat="43.4395889" lon="11.6191412"><ele>237.0</ele><time>2026-04-25T10:09:29.076Z</time></trkpt><trkpt lat="43.4394352" lon="11.6191617"><ele>237.0</ele><time>2026-04-25T10:09:30.076Z</time></trkpt><trkpt lat="43.4392622" lon="11.6191793"><ele>237.0</ele><time>2026-04-25T10:09:31.076Z</time></trkpt><trkpt lat="43.439072" lon="11.6191914"><ele>237.0</ele><time>2026-04-25T10:09:32.076Z</time></trkpt><trkpt lat="43.4388751" lon="11.6192147"><ele>237.0</ele><time>2026-04-25T10:09:33.076Z</time></trkpt><trkpt lat="43.4386671" lon="11.6192339"><ele>237.0</ele><time>2026-04-25T10:09:34.076Z</time></trkpt><trkpt lat="43.4384568" lon="11.6192601"><ele>236.0</ele><time>2026-04-25T10:09:35.076Z</time></trkpt><trkpt lat="43.4382442" lon="11.6192702"><ele>235.0</ele><time>2026-04-25T10:09:36.075Z</time></trkpt><trkpt lat="43.43803" lon="11.6192531"><ele>234.0</ele><time>2026-04-25T10:09:37.076Z</time></trkpt><trkpt lat="43.4378101" lon="11.6191967"><ele>234.0</ele><time>2026-04-25T10:09:38.076Z</time></trkpt><trkpt lat="43.4375914" lon="11.6190958"><ele>234.0</ele><time>2026-04-25T10:09:39.076Z</time></trkpt><trkpt lat="43.4373812" lon="11.61896"><ele>234.0</ele><time>2026-04-25T10:09:40.076Z</time></trkpt><trkpt lat="43.4371763" lon="11.6188041"><ele>234.0</ele><time>2026-04-25T10:09:41.075Z</time></trkpt><trkpt lat="43.436974" lon="11.6186628"><ele>232.0</ele><time>2026-04-25T10:09:42.076Z</time></trkpt><trkpt lat="43.4367663" lon="11.6185177"><ele>230.0</ele><time>2026-04-25T10:09:43.075Z</time></trkpt><trkpt lat="43.4365613" lon="11.6183749"><ele>230.0</ele><time>2026-04-25T10:09:44.075Z</time></trkpt><trkpt lat="43.4363512" lon="11.6182297"><ele>230.0</ele><time>2026-04-25T10:09:45.076Z</time></trkpt><trkpt lat="43.4361484" lon="11.6180891"><ele>230.66666666666669</ele><time>2026-04-25T10:09:46.076Z</time></trkpt><trkpt lat="43.4359481" lon="11.6179516"><ele>231.33333333333331</ele><time>2026-04-25T10:09:47.076Z</time></trkpt><trkpt lat="43.4357462" lon="11.6178154"><ele>232.0</ele><time>2026-04-25T10:09:48.075Z</time></trkpt><trkpt lat="43.4355454" lon="11.6176866"><ele>231.0</ele><time>2026-04-25T10:09:49.076Z</time></trkpt><trkpt lat="43.4353394" lon="11.6175563"><ele>230.0</ele><time>2026-04-25T10:09:50.076Z</time></trkpt><trkpt lat="43.4351405" lon="11.6174208"><ele>229.0</ele><time>2026-04-25T10:09:51.075Z</time></trkpt><trkpt lat="43.4349493" lon="11.6172771"><ele>229.0</ele><time>2026-04-25T10:09:52.076Z</time></trkpt><trkpt lat="43.4347699" lon="11.6171428"><ele>229.0</ele><time>2026-04-25T10:09:53.076Z</time></trkpt><trkpt lat="43.4346053" lon="11.6170246"><ele>229.0</ele><time>2026-04-25T10:09:54.076Z</time></trkpt><trkpt lat="43.4344534" lon="11.6169206"><ele>229.25</ele><time>2026-04-25T10:09:55.076Z</time></trkpt><trkpt lat="43.4343153" lon="11.6168221"><ele>229.5</ele><time>2026-04-25T10:09:56.075Z</time></trkpt><trkpt lat="43.434186" lon="11.6167249"><ele>229.75</ele><time>2026-04-25T10:09:57.076Z</time></trkpt><trkpt lat="43.4340559" lon="11.6166348"><ele>230.0</ele><time>2026-04-25T10:09:58.076Z</time></trkpt><trkpt lat="43.4339288" lon="11.6165484"><ele>232.0</ele><time>2026-04-25T10:09:59.076Z</time></trkpt><trkpt lat="43.4338041" lon="11.6164579"><ele>234.0</ele><time>2026-04-25T10:10:00.076Z</time></trkpt><trkpt lat="43.4336807" lon="11.6163693"><ele>236.0</ele><time>2026-04-25T10:10:01.076Z</time></trkpt><trkpt lat="43.4335538" lon="11.6162801"><ele>238.0</ele><time>2026-04-25T10:10:02.075Z</time></trkpt><trkpt lat="43.4334215" lon="11.6161943"><ele>236.0</ele><time>2026-04-25T10:10:03.076Z</time></trkpt><trkpt lat="43.4332759" lon="11.6161293"><ele>234.0</ele><time>2026-04-25T10:10:04.076Z</time></trkpt><trkpt lat="43.4331216" lon="11.6160987"><ele>232.0</ele><time>2026-04-25T10:10:05.076Z</time></trkpt><trkpt lat="43.4329709" lon="11.6160804"><ele>232.0</ele><time>2026-04-25T10:10:06.075Z</time></trkpt><trkpt lat="43.4328291" lon="11.6160541"><ele>232.0</ele><time>2026-04-25T10:10:07.075Z</time></trkpt><trkpt lat="43.4326846" lon="11.6160183"><ele>232.0</ele><time>2026-04-25T10:10:08.076Z</time></trkpt><trkpt lat="43.4325418" lon="11.6159695"><ele>232.0</ele><time>2026-04-25T10:10:09.076Z</time></trkpt><trkpt lat="43.4324009" lon="11.6158884"><ele>232.0</ele><time>2026-04-25T10:10:10.076Z</time></trkpt><trkpt lat="43.4322591" lon="11.6157873"><ele>232.0</ele><time>2026-04-25T10:10:11.076Z</time></trkpt><trkpt lat="43.4321101" lon="11.6156872"><ele>232.0</ele><time>2026-04-25T10:10:12.075Z</time></trkpt><trkpt lat="43.4319531" lon="11.6155599"><ele>232.0</ele><time>2026-04-25T10:10:13.075Z</time></trkpt><trkpt lat="43.4317951" lon="11.6154006"><ele>232.0</ele><time>2026-04-25T10:10:14.075Z</time></trkpt><trkpt lat="43.4316452" lon="11.6152239"><ele>232.0</ele><time>2026-04-25T10:10:15.075Z</time></trkpt><trkpt lat="43.4314996" lon="11.6150445"><ele>232.0</ele><time>2026-04-25T10:10:16.076Z</time></trkpt><trkpt lat="43.4313504" lon="11.614876"><ele>232.0</ele><time>2026-04-25T10:10:17.076Z</time></trkpt><trkpt lat="43.4312103" lon="11.6147131"><ele>232.0</ele><time>2026-04-25T10:10:18.076Z</time></trkpt><trkpt lat="43.4310786" lon="11.6145597"><ele>232.0</ele><time>2026-04-25T10:10:19.075Z</time></trkpt><trkpt lat="43.4309554" lon="11.6144102"><ele>232.0</ele><time>2026-04-25T10:10:20.076Z</time></trkpt><trkpt lat="43.4308377" lon="11.6142718"><ele>232.0</ele><time>2026-04-25T10:10:21.076Z</time></trkpt><trkpt lat="43.4307136" lon="11.6141293"><ele>232.0</ele><time>2026-04-25T10:10:22.076Z</time></trkpt><trkpt lat="43.430593" lon="11.6139863"><ele>232.0</ele><time>2026-04-25T10:10:23.076Z</time></trkpt><trkpt lat="43.4304769" lon="11.6138429"><ele>232.0</ele><time>2026-04-25T10:10:24.075Z</time></trkpt><trkpt lat="43.4303641" lon="11.6137058"><ele>233.0</ele><time>2026-04-25T10:10:25.076Z</time></trkpt><trkpt lat="43.4302584" lon="11.6135772"><ele>234.0</ele><time>2026-04-25T10:10:26.075Z</time></trkpt><trkpt lat="43.4301638" lon="11.6134533"><ele>235.0</ele><time>2026-04-25T10:10:27.076Z</time></trkpt><trkpt lat="43.4300798" lon="11.6133307"><ele>236.0</ele><time>2026-04-25T10:10:28.075Z</time></trkpt><trkpt lat="43.4299948" lon="11.6132118"><ele>236.0</ele><time>2026-04-25T10:10:29.076Z</time></trkpt><trkpt lat="43.4299073" lon="11.6130928"><ele>236.0</ele><time>2026-04-25T10:10:30.076Z</time></trkpt><trkpt lat="43.4298145" lon="11.6129709"><ele>236.0</ele><time>2026-04-25T10:10:31.076Z</time></trkpt><trkpt lat="43.429712" lon="11.6128545"><ele>236.0</ele><time>2026-04-25T10:10:32.076Z</time></trkpt><trkpt lat="43.4295987" lon="11.6127553"><ele>237.0</ele><time>2026-04-25T10:10:33.075Z</time></trkpt><trkpt lat="43.4294758" lon="11.6126746"><ele>238.0</ele><time>2026-04-25T10:10:34.076Z</time></trkpt><trkpt lat="43.4293495" lon="11.6126173"><ele>239.0</ele><time>2026-04-25T10:10:35.076Z</time></trkpt><trkpt lat="43.4292222" lon="11.6125616"><ele>240.0</ele><time>2026-04-25T10:10:36.075Z</time></trkpt><trkpt lat="43.4290925" lon="11.6125156"><ele>240.0</ele><time>2026-04-25T10:10:37.076Z</time></trkpt><trkpt lat="43.4289647" lon="11.6124712"><ele>240.0</ele><time>2026-04-25T10:10:38.076Z</time></trkpt><trkpt lat="43.4288366" lon="11.612428"><ele>240.0</ele><time>2026-04-25T10:10:39.076Z</time></trkpt><trkpt lat="43.4287075" lon="11.6123766"><ele>240.0</ele><time>2026-04-25T10:10:40.076Z</time></trkpt><trkpt lat="43.4285807" lon="11.6123194"><ele>240.75</ele><time>2026-04-25T10:10:41.076Z</time></trkpt><trkpt lat="43.4284513" lon="11.6122635"><ele>241.5</ele><time>2026-04-25T10:10:42.075Z</time></trkpt><trkpt lat="43.428323" lon="11.6122113"><ele>242.25</ele><time>2026-04-25T10:10:43.076Z</time></trkpt><trkpt lat="43.4281929" lon="11.61216"><ele>243.0</ele><time>2026-04-25T10:10:44.076Z</time></trkpt><trkpt lat="43.4280636" lon="11.6121067"><ele>243.5</ele><time>2026-04-25T10:10:45.076Z</time></trkpt><trkpt lat="43.4279297" lon="11.6120515"><ele>244.0</ele><time>2026-04-25T10:10:46.076Z</time></trkpt><trkpt lat="43.4277985" lon="11.6119929"><ele>244.5</ele><time>2026-04-25T10:10:47.076Z</time></trkpt><trkpt lat="43.4276659" lon="11.6119374"><ele>245.0</ele><time>2026-04-25T10:10:48.076Z</time></trkpt><trkpt lat="43.4275346" lon="11.6119012"><ele>245.0</ele><time>2026-04-25T10:10:49.076Z</time></trkpt><trkpt lat="43.4273968" lon="11.6118955"><ele>245.0</ele><time>2026-04-25T10:10:50.076Z</time></trkpt><trkpt lat="43.42726" lon="11.6119243"><ele>245.0</ele><time>2026-04-25T10:10:51.075Z</time></trkpt><trkpt lat="43.4271235" lon="11.6119701"><ele>245.0</ele><time>2026-04-25T10:10:52.076Z</time></trkpt><trkpt lat="43.4269886" lon="11.6120219"><ele>246.0</ele><time>2026-04-25T10:10:53.076Z</time></trkpt><trkpt lat="43.4268453" lon="11.6120758"><ele>247.0</ele><time>2026-04-25T10:10:54.076Z</time></trkpt><trkpt lat="43.4266983" lon="11.612144"><ele>248.0</ele><time>2026-04-25T10:10:55.076Z</time></trkpt><trkpt lat="43.4265517" lon="11.6122518"><ele>248.0</ele><time>2026-04-25T10:10:56.076Z</time></trkpt><trkpt lat="43.4264048" lon="11.6123971"><ele>248.0</ele><time>2026-04-25T10:10:57.075Z</time></trkpt><trkpt lat="43.426241" lon="11.6125506"><ele>248.0</ele><time>2026-04-25T10:10:58.076Z</time></trkpt><trkpt lat="43.4260731" lon="11.6127127"><ele>247.0</ele><time>2026-04-25T10:10:59.075Z</time></trkpt><trkpt lat="43.4258988" lon="11.6128875"><ele>246.0</ele><time>2026-04-25T10:11:00.076Z</time></trkpt><trkpt lat="43.4257155" lon="11.6130601"><ele>245.0</ele><time>2026-04-25T10:11:01.076Z</time></trkpt><trkpt lat="43.4255287" lon="11.6132313"><ele>243.66666666666669</ele><time>2026-04-25T10:11:02.076Z</time></trkpt><trkpt lat="43.4253372" lon="11.6133912"><ele>242.33333333333331</ele><time>2026-04-25T10:11:03.076Z</time></trkpt><trkpt lat="43.4251452" lon="11.6135304"><ele>241.0</ele><time>2026-04-25T10:11:04.075Z</time></trkpt><trkpt lat="43.424958" lon="11.6136514"><ele>241.33333333333331</ele><time>2026-04-25T10:11:05.076Z</time></trkpt><trkpt lat="43.424784" lon="11.6137618"><ele>241.66666666666669</ele><time>2026-04-25T10:11:06.075Z</time></trkpt><trkpt lat="43.4246287" lon="11.6138729"><ele>242.0</ele><time>2026-04-25T10:11:07.075Z</time></trkpt><trkpt lat="43.424485" lon="11.6139675"><ele>242.0</ele><time>2026-04-25T10:11:08.075Z</time></trkpt><trkpt lat="43.4243569" lon="11.6140501"><ele>242.0</ele><time>2026-04-25T10:11:09.076Z</time></trkpt><trkpt lat="43.4242442" lon="11.6141196"><ele>242.0</ele><time>2026-04-25T10:11:10.076Z</time></trkpt><trkpt lat="43.4241505" lon="11.6141914"><ele>242.0</ele><time>2026-04-25T10:11:11.076Z</time></trkpt><trkpt lat="43.4240585" lon="11.6142513"><ele>242.0</ele><time>2026-04-25T10:11:12.075Z</time></trkpt><trkpt lat="43.4239702" lon="11.6142975"><ele>242.0</ele><time>2026-04-25T10:11:13.076Z</time></trkpt><trkpt lat="43.4238759" lon="11.6143294"><ele>242.0</ele><time>2026-04-25T10:11:14.075Z</time></trkpt><trkpt lat="43.4237829" lon="11.6143419"><ele>242.0</ele><time>2026-04-25T10:11:15.076Z</time></trkpt><trkpt lat="43.4236822" lon="11.6143224"><ele>242.0</ele><time>2026-04-25T10:11:16.076Z</time></trkpt><trkpt lat="43.4235825" lon="11.6142758"><ele>242.75</ele><time>2026-04-25T10:11:17.075Z</time></trkpt><trkpt lat="43.4234874" lon="11.6142058"><ele>243.5</ele><time>2026-04-25T10:11:18.075Z</time></trkpt><trkpt lat="43.423387" lon="11.6141166"><ele>244.25</ele><time>2026-04-25T10:11:19.076Z</time></trkpt><trkpt lat="43.4232796" lon="11.6140069"><ele>245.0</ele><time>2026-04-25T10:11:20.075Z</time></trkpt><trkpt lat="43.4231576" lon="11.6138706"><ele>245.0</ele><time>2026-04-25T10:11:21.076Z</time></trkpt><trkpt lat="43.4230228" lon="11.6137409"><ele>245.0</ele><time>2026-04-25T10:11:22.076Z</time></trkpt><trkpt lat="43.4228712" lon="11.6136074"><ele>245.0</ele><time>2026-04-25T10:11:23.076Z</time></trkpt><trkpt lat="43.422714" lon="11.613458"><ele>244.33333333333334</ele><time>2026-04-25T10:11:24.075Z</time></trkpt><trkpt lat="43.422555" lon="11.6132883"><ele>243.66666666666669</ele><time>2026-04-25T10:11:25.076Z</time></trkpt><trkpt lat="43.4223922" lon="11.6131072"><ele>243.0</ele><time>2026-04-25T10:11:26.076Z</time></trkpt><trkpt lat="43.4222243" lon="11.6129253"><ele>242.66666666666669</ele><time>2026-04-25T10:11:27.075Z</time></trkpt><trkpt lat="43.4220522" lon="11.6127409"><ele>242.33333333333334</ele><time>2026-04-25T10:11:28.076Z</time></trkpt><trkpt lat="43.4218796" lon="11.6125609"><ele>242.0</ele><time>2026-04-25T10:11:29.076Z</time></trkpt><trkpt lat="43.4217083" lon="11.6123762"><ele>242.0</ele><time>2026-04-25T10:11:30.076Z</time></trkpt><trkpt lat="43.4215257" lon="11.6121858"><ele>242.0</ele><time>2026-04-25T10:11:31.076Z</time></trkpt><trkpt lat="43.4213527" lon="11.6120009"><ele>242.0</ele><time>2026-04-25T10:11:32.076Z</time></trkpt><trkpt lat="43.4211807" lon="11.6118216"><ele>242.66666666666669</ele><time>2026-04-25T10:11:33.076Z</time></trkpt><trkpt lat="43.4210125" lon="11.6116471"><ele>243.33333333333331</ele><time>2026-04-25T10:11:34.075Z</time></trkpt><trkpt lat="43.4208546" lon="11.6114806"><ele>244.0</ele><time>2026-04-25T10:11:35.076Z</time></trkpt><trkpt lat="43.4207012" lon="11.6113231"><ele>244.0</ele><time>2026-04-25T10:11:36.076Z</time></trkpt><trkpt lat="43.4205557" lon="11.6111663"><ele>244.0</ele><time>2026-04-25T10:11:37.075Z</time></trkpt><trkpt lat="43.4204169" lon="11.6110252"><ele>244.0</ele><time>2026-04-25T10:11:38.076Z</time></trkpt><trkpt lat="43.4202832" lon="11.6108957"><ele>244.25</ele><time>2026-04-25T10:11:39.075Z</time></trkpt><trkpt lat="43.4201589" lon="11.6107688"><ele>244.5</ele><time>2026-04-25T10:11:40.076Z</time></trkpt><trkpt lat="43.4200419" lon="11.6106421"><ele>244.75</ele><time>2026-04-25T10:11:41.076Z</time></trkpt><trkpt lat="43.4199244" lon="11.6105269"><ele>245.0</ele><time>2026-04-25T10:11:42.076Z</time></trkpt><trkpt lat="43.419816" lon="11.6104148"><ele>244.5</ele><time>2026-04-25T10:11:43.075Z</time></trkpt><trkpt lat="43.4197116" lon="11.6103067"><ele>244.0</ele><time>2026-04-25T10:11:44.075Z</time></trkpt><trkpt lat="43.4196152" lon="11.6102081"><ele>243.5</ele><time>2026-04-25T10:11:45.076Z</time></trkpt><trkpt lat="43.4195217" lon="11.6101102"><ele>243.0</ele><time>2026-04-25T10:11:46.076Z</time></trkpt><trkpt lat="43.4194302" lon="11.6100106"><ele>244.25</ele><time>2026-04-25T10:11:47.076Z</time></trkpt><trkpt lat="43.4193392" lon="11.6099119"><ele>245.5</ele><time>2026-04-25T10:11:48.076Z</time></trkpt><trkpt lat="43.4192448" lon="11.6098114"><ele>246.75</ele><time>2026-04-25T10:11:49.076Z</time></trkpt><trkpt lat="43.4191539" lon="11.6097123"><ele>248.0</ele><time>2026-04-25T10:11:50.075Z</time></trkpt><trkpt lat="43.4190625" lon="11.6096151"><ele>248.0</ele><time>2026-04-25T10:11:51.076Z</time></trkpt><trkpt lat="43.4189721" lon="11.6095148"><ele>248.0</ele><time>2026-04-25T10:11:52.075Z</time></trkpt><trkpt lat="43.4188853" lon="11.6094245"><ele>248.0</ele><time>2026-04-25T10:11:53.076Z</time></trkpt><trkpt lat="43.4187914" lon="11.6093355"><ele>248.0</ele><time>2026-04-25T10:11:54.076Z</time></trkpt><trkpt lat="43.4187" lon="11.6092484"><ele>248.75</ele><time>2026-04-25T10:11:55.076Z</time></trkpt><trkpt lat="43.4186081" lon="11.6091555"><ele>249.5</ele><time>2026-04-25T10:11:56.076Z</time></trkpt><trkpt lat="43.418519" lon="11.6090639"><ele>250.25</ele><time>2026-04-25T10:11:57.076Z</time></trkpt><trkpt lat="43.4184266" lon="11.6089757"><ele>251.0</ele><time>2026-04-25T10:11:58.076Z</time></trkpt><trkpt lat="43.4183273" lon="11.6088894"><ele>251.0</ele><time>2026-04-25T10:11:59.076Z</time></trkpt><trkpt lat="43.4182283" lon="11.6088049"><ele>251.00000000000003</ele><time>2026-04-25T10:12:00.076Z</time></trkpt><trkpt lat="43.4181254" lon="11.6087417"><ele>251.00000000000003</ele><time>2026-04-25T10:12:01.076Z</time></trkpt><trkpt lat="43.4180263" lon="11.6086827"><ele>251.0</ele><time>2026-04-25T10:12:02.076Z</time></trkpt><trkpt lat="43.4179275" lon="11.6086248"><ele>251.0</ele><time>2026-04-25T10:12:03.076Z</time></trkpt><trkpt lat="43.4178263" lon="11.6085647"><ele>250.25</ele><time>2026-04-25T10:12:04.076Z</time></trkpt><trkpt lat="43.4177209" lon="11.6085046"><ele>249.5</ele><time>2026-04-25T10:12:05.076Z</time></trkpt><trkpt lat="43.4176121" lon="11.6084415"><ele>248.75</ele><time>2026-04-25T10:12:06.076Z</time></trkpt><trkpt lat="43.4174984" lon="11.6083785"><ele>248.0</ele><time>2026-04-25T10:12:07.075Z</time></trkpt><trkpt lat="43.4173843" lon="11.6083114"><ele>248.0</ele><time>2026-04-25T10:12:08.075Z</time></trkpt><trkpt lat="43.41727" lon="11.6082394"><ele>248.0</ele><time>2026-04-25T10:12:09.076Z</time></trkpt><trkpt lat="43.4171533" lon="11.6081418"><ele>248.0</ele><time>2026-04-25T10:12:10.076Z</time></trkpt><trkpt lat="43.4170457" lon="11.6080343"><ele>248.0</ele><time>2026-04-25T10:12:11.076Z</time></trkpt><trkpt lat="43.4169428" lon="11.6079156"><ele>247.25</ele><time>2026-04-25T10:12:12.076Z</time></trkpt><trkpt lat="43.416845" lon="11.6077973"><ele>246.5</ele><time>2026-04-25T10:12:13.076Z</time></trkpt><trkpt lat="43.4167512" lon="11.6076765"><ele>245.75</ele><time>2026-04-25T10:12:14.075Z</time></trkpt><trkpt lat="43.4166575" lon="11.6075603"><ele>245.0</ele><time>2026-04-25T10:12:15.076Z</time></trkpt><trkpt lat="43.4165681" lon="11.6074453"><ele>245.0</ele><time>2026-04-25T10:12:16.076Z</time></trkpt><trkpt lat="43.4164783" lon="11.6073305"><ele>245.0</ele><time>2026-04-25T10:12:17.075Z</time></trkpt><trkpt lat="43.416387" lon="11.6072148"><ele>245.0</ele><time>2026-04-25T10:12:18.076Z</time></trkpt><trkpt lat="43.4162925" lon="11.6070979"><ele>245.0</ele><time>2026-04-25T10:12:19.075Z</time></trkpt><trkpt lat="43.4161958" lon="11.6069754"><ele>245.0</ele><time>2026-04-25T10:12:20.076Z</time></trkpt><trkpt lat="43.4160941" lon="11.6068537"><ele>245.0</ele><time>2026-04-25T10:12:21.076Z</time></trkpt><trkpt lat="43.4159923" lon="11.6067245"><ele>245.0</ele><time>2026-04-25T10:12:22.076Z</time></trkpt><trkpt lat="43.4158912" lon="11.6065918"><ele>245.0</ele><time>2026-04-25T10:12:23.075Z</time></trkpt><trkpt lat="43.415788" lon="11.6064623"><ele>245.0</ele><time>2026-04-25T10:12:24.076Z</time></trkpt><trkpt lat="43.4156864" lon="11.6063383"><ele>245.0</ele><time>2026-04-25T10:12:25.075Z</time></trkpt><trkpt lat="43.4155917" lon="11.6062193"><ele>245.0</ele><time>2026-04-25T10:12:26.076Z</time></trkpt><trkpt lat="43.4154991" lon="11.6061014"><ele>245.0</ele><time>2026-04-25T10:12:27.076Z</time></trkpt><trkpt lat="43.4154032" lon="11.6059845"><ele>244.5</ele><time>2026-04-25T10:12:28.076Z</time></trkpt><trkpt lat="43.4153192" lon="11.6058592"><ele>244.0</ele><time>2026-04-25T10:12:29.076Z</time></trkpt><trkpt lat="43.4152439" lon="11.6057179"><ele>243.5</ele><time>2026-04-25T10:12:30.076Z</time></trkpt><trkpt lat="43.4151945" lon="11.6055535"><ele>243.0</ele><time>2026-04-25T10:12:31.076Z</time></trkpt><trkpt lat="43.4151626" lon="11.6053852"><ele>243.25</ele><time>2026-04-25T10:12:32.076Z</time></trkpt><trkpt lat="43.4151457" lon="11.6052133"><ele>243.5</ele><time>2026-04-25T10:12:33.076Z</time></trkpt><trkpt lat="43.4151381" lon="11.6050466"><ele>243.75</ele><time>2026-04-25T10:12:34.075Z</time></trkpt><trkpt lat="43.4151304" lon="11.6048828"><ele>244.0</ele><time>2026-04-25T10:12:35.076Z</time></trkpt><trkpt lat="43.4151223" lon="11.604715"><ele>244.0</ele><time>2026-04-25T10:12:36.076Z</time></trkpt><trkpt lat="43.4151133" lon="11.6045532"><ele>244.0</ele><time>2026-04-25T10:12:37.076Z</time></trkpt><trkpt lat="43.4151049" lon="11.6043932"><ele>244.0</ele><time>2026-04-25T10:12:38.076Z</time></trkpt><trkpt lat="43.4151005" lon="11.6042353"><ele>244.0</ele><time>2026-04-25T10:12:39.076Z</time></trkpt><trkpt lat="43.4150968" lon="11.6040819"><ele>244.39999999999998</ele><time>2026-04-25T10:12:40.076Z</time></trkpt><trkpt lat="43.4150895" lon="11.6039389"><ele>244.79999999999998</ele><time>2026-04-25T10:12:41.076Z</time></trkpt><trkpt lat="43.4150805" lon="11.6038"><ele>245.20000000000002</ele><time>2026-04-25T10:12:42.076Z</time></trkpt><trkpt lat="43.4150703" lon="11.6036742"><ele>245.60000000000002</ele><time>2026-04-25T10:12:43.076Z</time></trkpt><trkpt lat="43.4150569" lon="11.6035509"><ele>246.0</ele><time>2026-04-25T10:12:44.075Z</time></trkpt><trkpt lat="43.4150401" lon="11.6034301"><ele>247.0</ele><time>2026-04-25T10:12:45.076Z</time></trkpt><trkpt lat="43.4150221" lon="11.603315"><ele>248.00000000000003</ele><time>2026-04-25T10:12:46.075Z</time></trkpt><trkpt lat="43.4149935" lon="11.6031975"><ele>249.00000000000003</ele><time>2026-04-25T10:12:47.076Z</time></trkpt><trkpt lat="43.4149583" lon="11.6030803"><ele>250.0</ele><time>2026-04-25T10:12:48.076Z</time></trkpt><trkpt lat="43.4149195" lon="11.6029707"><ele>251.0</ele><time>2026-04-25T10:12:49.076Z</time></trkpt><trkpt lat="43.4148675" lon="11.6028625"><ele>250.60000000000002</ele><time>2026-04-25T10:12:50.076Z</time></trkpt><trkpt lat="43.4148052" lon="11.6027602"><ele>250.20000000000002</ele><time>2026-04-25T10:12:51.076Z</time></trkpt><trkpt lat="43.4147351" lon="11.6026663"><ele>249.79999999999998</ele><time>2026-04-25T10:12:52.076Z</time></trkpt><trkpt lat="43.4146574" lon="11.6025645"><ele>249.39999999999998</ele><time>2026-04-25T10:12:53.076Z</time></trkpt><trkpt lat="43.4145792" lon="11.602456"><ele>249.0</ele><time>2026-04-25T10:12:54.076Z</time></trkpt><trkpt lat="43.4144995" lon="11.6023474"><ele>249.0</ele><time>2026-04-25T10:12:55.075Z</time></trkpt><trkpt lat="43.414407" lon="11.6022334"><ele>249.0</ele><time>2026-04-25T10:12:56.076Z</time></trkpt><trkpt lat="43.4143088" lon="11.6021337"><ele>249.0</ele><time>2026-04-25T10:12:57.075Z</time></trkpt><trkpt lat="43.4141954" lon="11.6020352"><ele>249.0</ele><time>2026-04-25T10:12:58.076Z</time></trkpt><trkpt lat="43.4140731" lon="11.6019292"><ele>249.0</ele><time>2026-04-25T10:12:59.076Z</time></trkpt><trkpt lat="43.41394" lon="11.6018083"><ele>249.0</ele><time>2026-04-25T10:13:00.076Z</time></trkpt><trkpt lat="43.4137949" lon="11.6016816"><ele>249.0</ele><time>2026-04-25T10:13:01.076Z</time></trkpt><trkpt lat="43.413647" lon="11.6015506"><ele>249.0</ele><time>2026-04-25T10:13:02.076Z</time></trkpt><trkpt lat="43.4135086" lon="11.6014167"><ele>249.0</ele><time>2026-04-25T10:13:03.076Z</time></trkpt><trkpt lat="43.4133759" lon="11.6012973"><ele>249.0</ele><time>2026-04-25T10:13:04.076Z</time></trkpt><trkpt lat="43.4132469" lon="11.6011853"><ele>249.66666666666669</ele><time>2026-04-25T10:13:05.076Z</time></trkpt><trkpt lat="43.4131192" lon="11.6010779"><ele>250.33333333333334</ele><time>2026-04-25T10:13:06.076Z</time></trkpt><trkpt lat="43.4129794" lon="11.6009665"><ele>251.0</ele><time>2026-04-25T10:13:07.076Z</time></trkpt><trkpt lat="43.4128341" lon="11.6008435"><ele>249.66666666666669</ele><time>2026-04-25T10:13:08.076Z</time></trkpt><trkpt lat="43.4126842" lon="11.6006977"><ele>248.33333333333331</ele><time>2026-04-25T10:13:09.076Z</time></trkpt><trkpt lat="43.4125328" lon="11.6005512"><ele>247.0</ele><time>2026-04-25T10:13:10.076Z</time></trkpt><trkpt lat="43.4123714" lon="11.6004102"><ele>247.0</ele><time>2026-04-25T10:13:11.076Z</time></trkpt><trkpt lat="43.4122034" lon="11.6002718"><ele>247.0</ele><time>2026-04-25T10:13:12.076Z</time></trkpt><trkpt lat="43.4120373" lon="11.6001276"><ele>247.0</ele><time>2026-04-25T10:13:13.075Z</time></trkpt><trkpt lat="43.411869" lon="11.5999813"><ele>247.0</ele><time>2026-04-25T10:13:14.076Z</time></trkpt><trkpt lat="43.4116989" lon="11.599832"><ele>247.0</ele><time>2026-04-25T10:13:15.076Z</time></trkpt><trkpt lat="43.4115261" lon="11.5996824"><ele>247.0</ele><time>2026-04-25T10:13:16.075Z</time></trkpt><trkpt lat="43.4113543" lon="11.5995358"><ele>248.0</ele><time>2026-04-25T10:13:17.076Z</time></trkpt><trkpt lat="43.4111797" lon="11.5993827"><ele>249.0</ele><time>2026-04-25T10:13:18.076Z</time></trkpt><trkpt lat="43.4110028" lon="11.5992274"><ele>250.0</ele><time>2026-04-25T10:13:19.075Z</time></trkpt><trkpt lat="43.410828" lon="11.5990747"><ele>250.0</ele><time>2026-04-25T10:13:20.076Z</time></trkpt><trkpt lat="43.4106523" lon="11.59892"><ele>250.0</ele><time>2026-04-25T10:13:21.076Z</time></trkpt><trkpt lat="43.4104731" lon="11.5987629"><ele>250.0</ele><time>2026-04-25T10:13:22.076Z</time></trkpt><trkpt lat="43.4102941" lon="11.5986078"><ele>249.66666666666666</ele><time>2026-04-25T10:13:23.076Z</time></trkpt><trkpt lat="43.4101136" lon="11.5984528"><ele>249.33333333333331</ele><time>2026-04-25T10:13:24.076Z</time></trkpt><trkpt lat="43.4099317" lon="11.5982915"><ele>249.0</ele><time>2026-04-25T10:13:25.075Z</time></trkpt><trkpt lat="43.4097511" lon="11.5981394"><ele>249.33333333333331</ele><time>2026-04-25T10:13:26.076Z</time></trkpt><trkpt lat="43.4095725" lon="11.5979817"><ele>249.66666666666666</ele><time>2026-04-25T10:13:27.076Z</time></trkpt><trkpt lat="43.4093925" lon="11.5978271"><ele>250.0</ele><time>2026-04-25T10:13:28.075Z</time></trkpt><trkpt lat="43.4092158" lon="11.5976561"><ele>250.33333333333331</ele><time>2026-04-25T10:13:29.076Z</time></trkpt><trkpt lat="43.4090492" lon="11.5974744"><ele>250.66666666666669</ele><time>2026-04-25T10:13:30.075Z</time></trkpt><trkpt lat="43.4088914" lon="11.5972761"><ele>251.0</ele><time>2026-04-25T10:13:31.076Z</time></trkpt><trkpt lat="43.4087434" lon="11.5970697"><ele>251.33333333333334</ele><time>2026-04-25T10:13:32.076Z</time></trkpt><trkpt lat="43.4085989" lon="11.5968587"><ele>251.66666666666669</ele><time>2026-04-25T10:13:33.076Z</time></trkpt><trkpt lat="43.4084555" lon="11.5966541"><ele>252.0</ele><time>2026-04-25T10:13:34.075Z</time></trkpt><trkpt lat="43.4083092" lon="11.5964462"><ele>252.0</ele><time>2026-04-25T10:13:35.076Z</time></trkpt><trkpt lat="43.4081592" lon="11.59624"><ele>252.0</ele><time>2026-04-25T10:13:36.076Z</time></trkpt><trkpt lat="43.4080095" lon="11.5960368"><ele>252.0</ele><time>2026-04-25T10:13:37.076Z</time></trkpt><trkpt lat="43.4078474" lon="11.595846"><ele>252.0</ele><time>2026-04-25T10:13:38.076Z</time></trkpt><trkpt lat="43.4076778" lon="11.5956777"><ele>252.0</ele><time>2026-04-25T10:13:39.076Z</time></trkpt><trkpt lat="43.4074919" lon="11.5955267"><ele>252.0</ele><time>2026-04-25T10:13:40.076Z</time></trkpt><trkpt lat="43.4072955" lon="11.595407"><ele>252.0</ele><time>2026-04-25T10:13:41.075Z</time></trkpt><trkpt lat="43.4070873" lon="11.5953123"><ele>252.0</ele><time>2026-04-25T10:13:42.076Z</time></trkpt><trkpt lat="43.4068757" lon="11.5952368"><ele>252.0</ele><time>2026-04-25T10:13:43.076Z</time></trkpt><trkpt lat="43.40666" lon="11.5951628"><ele>252.0</ele><time>2026-04-25T10:13:44.075Z</time></trkpt><trkpt lat="43.406446" lon="11.5950892"><ele>252.0</ele><time>2026-04-25T10:13:45.076Z</time></trkpt><trkpt lat="43.4062312" lon="11.5950156"><ele>252.0</ele><time>2026-04-25T10:13:46.076Z</time></trkpt><trkpt lat="43.4060158" lon="11.5949362"><ele>251.66666666666669</ele><time>2026-04-25T10:13:47.076Z</time></trkpt><trkpt lat="43.4057982" lon="11.5948582"><ele>251.33333333333334</ele><time>2026-04-25T10:13:48.076Z</time></trkpt><trkpt lat="43.4055808" lon="11.5947808"><ele>251.0</ele><time>2026-04-25T10:13:49.076Z</time></trkpt><trkpt lat="43.4053658" lon="11.5947043"><ele>249.5</ele><time>2026-04-25T10:13:50.076Z</time></trkpt><trkpt lat="43.4051485" lon="11.5946302"><ele>248.0</ele><time>2026-04-25T10:13:51.076Z</time></trkpt><trkpt lat="43.4049291" lon="11.5945547"><ele>248.5</ele><time>2026-04-25T10:13:52.076Z</time></trkpt><trkpt lat="43.4047088" lon="11.5944808"><ele>249.0</ele><time>2026-04-25T10:13:53.076Z</time></trkpt><trkpt lat="43.4044861" lon="11.5944153"><ele>249.0</ele><time>2026-04-25T10:13:54.076Z</time></trkpt><trkpt lat="43.404262" lon="11.5943372"><ele>249.0</ele><time>2026-04-25T10:13:55.075Z</time></trkpt><trkpt lat="43.40404" lon="11.5942595"><ele>249.0</ele><time>2026-04-25T10:13:56.076Z</time></trkpt><trkpt lat="43.4038185" lon="11.5941812"><ele>249.0</ele><time>2026-04-25T10:13:57.076Z</time></trkpt><trkpt lat="43.4035976" lon="11.5941009"><ele>249.0</ele><time>2026-04-25T10:13:58.076Z</time></trkpt><trkpt lat="43.4033772" lon="11.5940241"><ele>249.0</ele><time>2026-04-25T10:13:59.076Z</time></trkpt><trkpt lat="43.4031548" lon="11.5939526"><ele>249.33333333333331</ele><time>2026-04-25T10:14:00.076Z</time></trkpt><trkpt lat="43.4029358" lon="11.5938774"><ele>249.66666666666666</ele><time>2026-04-25T10:14:01.076Z</time></trkpt><trkpt lat="43.4027201" lon="11.5938045"><ele>250.0</ele><time>2026-04-25T10:14:02.076Z</time></trkpt><trkpt lat="43.4025115" lon="11.593732"><ele>250.66666666666666</ele><time>2026-04-25T10:14:03.076Z</time></trkpt><trkpt lat="43.4023195" lon="11.5936648"><ele>251.33333333333331</ele><time>2026-04-25T10:14:04.076Z</time></trkpt><trkpt lat="43.4021358" lon="11.5935986"><ele>252.0</ele><time>2026-04-25T10:14:05.076Z</time></trkpt><trkpt lat="43.4019624" lon="11.5935338"><ele>253.33333333333331</ele><time>2026-04-25T10:14:06.075Z</time></trkpt><trkpt lat="43.4017966" lon="11.5934764"><ele>254.66666666666666</ele><time>2026-04-25T10:14:07.075Z</time></trkpt><trkpt lat="43.4016371" lon="11.5934202"><ele>256.0</ele><time>2026-04-25T10:14:08.076Z</time></trkpt><trkpt lat="43.4014934" lon="11.5933687"><ele>256.0</ele><time>2026-04-25T10:14:09.076Z</time></trkpt><trkpt lat="43.4013606" lon="11.5933099"><ele>256.0</ele><time>2026-04-25T10:14:10.076Z</time></trkpt><trkpt lat="43.4012368" lon="11.5932445"><ele>256.0</ele><time>2026-04-25T10:14:11.076Z</time></trkpt><trkpt lat="43.401123" lon="11.5931684"><ele>256.0</ele><time>2026-04-25T10:14:12.076Z</time></trkpt><trkpt lat="43.4010039" lon="11.5931088"><ele>255.5</ele><time>2026-04-25T10:14:13.076Z</time></trkpt><trkpt lat="43.4008659" lon="11.5930985"><ele>255.0</ele><time>2026-04-25T10:14:14.076Z</time></trkpt><trkpt lat="43.4007197" lon="11.5930907"><ele>254.5</ele><time>2026-04-25T10:14:15.076Z</time></trkpt><trkpt lat="43.4005658" lon="11.593065"><ele>254.0</ele><time>2026-04-25T10:14:16.076Z</time></trkpt><trkpt lat="43.4004019" lon="11.5930058"><ele>254.0</ele><time>2026-04-25T10:14:17.076Z</time></trkpt><trkpt lat="43.4002379" lon="11.5929393"><ele>254.0</ele><time>2026-04-25T10:14:18.076Z</time></trkpt><trkpt lat="43.400066" lon="11.5928797"><ele>254.0</ele><time>2026-04-25T10:14:19.076Z</time></trkpt><trkpt lat="43.3998889" lon="11.5928219"><ele>253.66666666666669</ele><time>2026-04-25T10:14:20.076Z</time></trkpt><trkpt lat="43.3997012" lon="11.5927594"><ele>253.33333333333331</ele><time>2026-04-25T10:14:21.076Z</time></trkpt><trkpt lat="43.3995027" lon="11.5926884"><ele>253.0</ele><time>2026-04-25T10:14:22.076Z</time></trkpt><trkpt lat="43.3993047" lon="11.5926152"><ele>254.0</ele><time>2026-04-25T10:14:23.076Z</time></trkpt><trkpt lat="43.3991055" lon="11.5925433"><ele>255.0</ele><time>2026-04-25T10:14:24.076Z</time></trkpt><trkpt lat="43.3989008" lon="11.5924721"><ele>256.0</ele><time>2026-04-25T10:14:25.075Z</time></trkpt><trkpt lat="43.3986947" lon="11.5924009"><ele>257.0</ele><time>2026-04-25T10:14:26.076Z</time></trkpt><trkpt lat="43.3984873" lon="11.5923287"><ele>258.0</ele><time>2026-04-25T10:14:27.075Z</time></trkpt><trkpt lat="43.3982805" lon="11.5922533"><ele>259.0</ele><time>2026-04-25T10:14:28.076Z</time></trkpt><trkpt lat="43.3980689" lon="11.5921811"><ele>259.3333333333333</ele><time>2026-04-25T10:14:29.075Z</time></trkpt><trkpt lat="43.3978557" lon="11.5921056"><ele>259.6666666666667</ele><time>2026-04-25T10:14:30.076Z</time></trkpt><trkpt lat="43.3976425" lon="11.5920303"><ele>260.0</ele><time>2026-04-25T10:14:31.076Z</time></trkpt><trkpt lat="43.3974268" lon="11.5919539"><ele>260.6666666666667</ele><time>2026-04-25T10:14:32.076Z</time></trkpt><trkpt lat="43.3972082" lon="11.5918756"><ele>261.3333333333333</ele><time>2026-04-25T10:14:33.076Z</time></trkpt><trkpt lat="43.3969925" lon="11.5917983"><ele>262.0</ele><time>2026-04-25T10:14:34.076Z</time></trkpt><trkpt lat="43.3967762" lon="11.591723"><ele>262.0</ele><time>2026-04-25T10:14:35.076Z</time></trkpt><trkpt lat="43.3965594" lon="11.5916522"><ele>262.0</ele><time>2026-04-25T10:14:36.076Z</time></trkpt><trkpt lat="43.3963456" lon="11.5915771"><ele>262.0</ele><time>2026-04-25T10:14:37.076Z</time></trkpt><trkpt lat="43.3961353" lon="11.5914856"><ele>261.66666666666663</ele><time>2026-04-25T10:14:38.075Z</time></trkpt><trkpt lat="43.3959376" lon="11.5913721"><ele>261.3333333333333</ele><time>2026-04-25T10:14:39.075Z</time></trkpt><trkpt lat="43.3957457" lon="11.5912186"><ele>261.0</ele><time>2026-04-25T10:14:40.076Z</time></trkpt><trkpt lat="43.3955723" lon="11.5910318"><ele>259.0</ele><time>2026-04-25T10:14:41.076Z</time></trkpt><trkpt lat="43.3954265" lon="11.5907944"><ele>257.0</ele><time>2026-04-25T10:14:42.076Z</time></trkpt><trkpt lat="43.3952977" lon="11.5905363"><ele>256.0</ele><time>2026-04-25T10:14:43.075Z</time></trkpt><trkpt lat="43.3951856" lon="11.5902628"><ele>255.0</ele><time>2026-04-25T10:14:44.076Z</time></trkpt><trkpt lat="43.395081" lon="11.5899791"><ele>255.0</ele><time>2026-04-25T10:14:45.076Z</time></trkpt><trkpt lat="43.3949818" lon="11.5896939"><ele>255.0</ele><time>2026-04-25T10:14:46.076Z</time></trkpt><trkpt lat="43.3948768" lon="11.5894142"><ele>255.5</ele><time>2026-04-25T10:14:47.076Z</time></trkpt><trkpt lat="43.3947699" lon="11.5891319"><ele>256.0</ele><time>2026-04-25T10:14:48.076Z</time></trkpt><trkpt lat="43.3946641" lon="11.5888522"><ele>256.66666666666663</ele><time>2026-04-25T10:14:49.075Z</time></trkpt><trkpt lat="43.3945619" lon="11.5885765"><ele>257.3333333333333</ele><time>2026-04-25T10:14:50.076Z</time></trkpt><trkpt lat="43.3944568" lon="11.5883133"><ele>258.0</ele><time>2026-04-25T10:14:51.075Z</time></trkpt><trkpt lat="43.3943332" lon="11.5880741"><ele>258.0</ele><time>2026-04-25T10:14:52.075Z</time></trkpt><trkpt lat="43.3941794" lon="11.5878671"><ele>258.0</ele><time>2026-04-25T10:14:53.076Z</time></trkpt><trkpt lat="43.3940037" lon="11.5876725"><ele>258.0</ele><time>2026-04-25T10:14:54.075Z</time></trkpt><trkpt lat="43.3938279" lon="11.5874832"><ele>259.0</ele><time>2026-04-25T10:14:55.076Z</time></trkpt><trkpt lat="43.3936474" lon="11.5872865"><ele>260.0</ele><time>2026-04-25T10:14:56.076Z</time></trkpt><trkpt lat="43.3934689" lon="11.5870893"><ele>263.0</ele><time>2026-04-25T10:14:57.076Z</time></trkpt><trkpt lat="43.3932928" lon="11.5868927"><ele>266.0</ele><time>2026-04-25T10:14:58.075Z</time></trkpt><trkpt lat="43.3931166" lon="11.5866999"><ele>265.0</ele><time>2026-04-25T10:14:59.076Z</time></trkpt><trkpt lat="43.3929403" lon="11.5865091"><ele>264.0</ele><time>2026-04-25T10:15:00.076Z</time></trkpt><trkpt lat="43.3927764" lon="11.5863117"><ele>263.0</ele><time>2026-04-25T10:15:01.076Z</time></trkpt><trkpt lat="43.3926291" lon="11.5861048"><ele>263.0</ele><time>2026-04-25T10:15:02.076Z</time></trkpt><trkpt lat="43.3925123" lon="11.5858567"><ele>263.0</ele><time>2026-04-25T10:15:03.076Z</time></trkpt><trkpt lat="43.3924195" lon="11.5855872"><ele>263.0</ele><time>2026-04-25T10:15:04.076Z</time></trkpt><trkpt lat="43.392364" lon="11.5853124"><ele>263.6666666666667</ele><time>2026-04-25T10:15:05.075Z</time></trkpt><trkpt lat="43.3923386" lon="11.5850207"><ele>264.3333333333333</ele><time>2026-04-25T10:15:06.076Z</time></trkpt><trkpt lat="43.3923515" lon="11.5847315"><ele>265.0</ele><time>2026-04-25T10:15:07.076Z</time></trkpt><trkpt lat="43.3924022" lon="11.5844584"><ele>265.0</ele><time>2026-04-25T10:15:08.075Z</time></trkpt><trkpt lat="43.3924845" lon="11.5841784"><ele>265.0</ele><time>2026-04-25T10:15:09.076Z</time></trkpt><trkpt lat="43.3925773" lon="11.5839088"><ele>265.0</ele><time>2026-04-25T10:15:10.076Z</time></trkpt><trkpt lat="43.3926556" lon="11.5836317"><ele>264.66666666666663</ele><time>2026-04-25T10:15:11.075Z</time></trkpt><trkpt lat="43.392693" lon="11.5833388"><ele>264.3333333333333</ele><time>2026-04-25T10:15:12.076Z</time></trkpt><trkpt lat="43.3926633" lon="11.5830371"><ele>264.0</ele><time>2026-04-25T10:15:13.076Z</time></trkpt><trkpt lat="43.3926039" lon="11.5827378"><ele>263.3333333333333</ele><time>2026-04-25T10:15:14.076Z</time></trkpt><trkpt lat="43.3925204" lon="11.5824525"><ele>262.66666666666663</ele><time>2026-04-25T10:15:15.076Z</time></trkpt><trkpt lat="43.3924403" lon="11.5821668"><ele>262.0</ele><time>2026-04-25T10:15:16.075Z</time></trkpt><trkpt lat="43.3923548" lon="11.581868"><ele>262.0</ele><time>2026-04-25T10:15:17.076Z</time></trkpt><trkpt lat="43.392279" lon="11.5815738"><ele>262.0</ele><time>2026-04-25T10:15:18.076Z</time></trkpt><trkpt lat="43.3921989" lon="11.5812763"><ele>260.0</ele><time>2026-04-25T10:15:19.076Z</time></trkpt><trkpt lat="43.3921152" lon="11.5809758"><ele>258.0</ele><time>2026-04-25T10:15:20.076Z</time></trkpt><trkpt lat="43.3920343" lon="11.5806757"><ele>258.0</ele><time>2026-04-25T10:15:21.076Z</time></trkpt><trkpt lat="43.3919537" lon="11.5803727"><ele>258.0</ele><time>2026-04-25T10:15:22.075Z</time></trkpt><trkpt lat="43.3918753" lon="11.5800735"><ele>258.0</ele><time>2026-04-25T10:15:23.076Z</time></trkpt><trkpt lat="43.3917966" lon="11.5797741"><ele>258.0</ele><time>2026-04-25T10:15:24.076Z</time></trkpt><trkpt lat="43.3917148" lon="11.5794717"><ele>260.0</ele><time>2026-04-25T10:15:25.076Z</time></trkpt><trkpt lat="43.3916289" lon="11.5791697"><ele>262.0</ele><time>2026-04-25T10:15:26.076Z</time></trkpt><trkpt lat="43.3915434" lon="11.5788756"><ele>263.0</ele><time>2026-04-25T10:15:27.076Z</time></trkpt><trkpt lat="43.3914447" lon="11.5785891"><ele>264.0</ele><time>2026-04-25T10:15:28.075Z</time></trkpt><trkpt lat="43.391335" lon="11.5783018"><ele>262.5</ele><time>2026-04-25T10:15:29.076Z</time></trkpt><trkpt lat="43.3912236" lon="11.5780239"><ele>261.0</ele><time>2026-04-25T10:15:30.076Z</time></trkpt><trkpt lat="43.3911126" lon="11.5777415"><ele>261.0</ele><time>2026-04-25T10:15:31.075Z</time></trkpt><trkpt lat="43.3910011" lon="11.577457"><ele>261.0</ele><time>2026-04-25T10:15:32.076Z</time></trkpt><trkpt lat="43.3908902" lon="11.5771704"><ele>260.5</ele><time>2026-04-25T10:15:33.075Z</time></trkpt><trkpt lat="43.390781" lon="11.5768824"><ele>260.0</ele><time>2026-04-25T10:15:34.076Z</time></trkpt><trkpt lat="43.390668" lon="11.5765925"><ele>260.0</ele><time>2026-04-25T10:15:35.076Z</time></trkpt><trkpt lat="43.3905528" lon="11.5763085"><ele>260.0</ele><time>2026-04-25T10:15:36.076Z</time></trkpt><trkpt lat="43.3904292" lon="11.5760335"><ele>260.5</ele><time>2026-04-25T10:15:37.076Z</time></trkpt><trkpt lat="43.390293" lon="11.5757726"><ele>261.0</ele><time>2026-04-25T10:15:38.075Z</time></trkpt><trkpt lat="43.3901366" lon="11.5755392"><ele>260.5</ele><time>2026-04-25T10:15:39.075Z</time></trkpt><trkpt lat="43.3899669" lon="11.5753115"><ele>260.0</ele><time>2026-04-25T10:15:40.075Z</time></trkpt><trkpt lat="43.3898004" lon="11.5750866"><ele>260.0</ele><time>2026-04-25T10:15:41.075Z</time></trkpt><trkpt lat="43.3896347" lon="11.5748625"><ele>260.0</ele><time>2026-04-25T10:15:42.076Z</time></trkpt><trkpt lat="43.389467" lon="11.5746377"><ele>259.5</ele><time>2026-04-25T10:15:43.076Z</time></trkpt><trkpt lat="43.3892994" lon="11.5744143"><ele>259.0</ele><time>2026-04-25T10:15:44.076Z</time></trkpt><trkpt lat="43.3891344" lon="11.5741881"><ele>259.0</ele><time>2026-04-25T10:15:45.075Z</time></trkpt><trkpt lat="43.3889661" lon="11.5739564"><ele>259.0</ele><time>2026-04-25T10:15:46.076Z</time></trkpt><trkpt lat="43.3887998" lon="11.5737306"><ele>259.0</ele><time>2026-04-25T10:15:47.076Z</time></trkpt><trkpt lat="43.3886328" lon="11.5735047"><ele>259.0</ele><time>2026-04-25T10:15:48.075Z</time></trkpt><trkpt lat="43.3884668" lon="11.5732806"><ele>259.0</ele><time>2026-04-25T10:15:49.076Z</time></trkpt><trkpt lat="43.3883023" lon="11.5730568"><ele>259.0</ele><time>2026-04-25T10:15:50.075Z</time></trkpt><trkpt lat="43.3881402" lon="11.5728314"><ele>260.0</ele><time>2026-04-25T10:15:51.076Z</time></trkpt><trkpt lat="43.3879784" lon="11.572605"><ele>261.0</ele><time>2026-04-25T10:15:52.075Z</time></trkpt><trkpt lat="43.3878143" lon="11.5723852"><ele>261.0</ele><time>2026-04-25T10:15:53.076Z</time></trkpt><trkpt lat="43.3876489" lon="11.5721672"><ele>261.0</ele><time>2026-04-25T10:15:54.076Z</time></trkpt><trkpt lat="43.3874834" lon="11.5719465"><ele>261.0</ele><time>2026-04-25T10:15:55.076Z</time></trkpt><trkpt lat="43.3873176" lon="11.5717264"><ele>261.0</ele><time>2026-04-25T10:15:56.076Z</time></trkpt><trkpt lat="43.3871518" lon="11.5715037"><ele>261.0</ele><time>2026-04-25T10:15:57.076Z</time></trkpt><trkpt lat="43.3869879" lon="11.5712808"><ele>261.0</ele><time>2026-04-25T10:15:58.076Z</time></trkpt><trkpt lat="43.3868251" lon="11.5710587"><ele>261.5</ele><time>2026-04-25T10:15:59.076Z</time></trkpt><trkpt lat="43.3866615" lon="11.5708361"><ele>262.0</ele><time>2026-04-25T10:16:00.076Z</time></trkpt><trkpt lat="43.3864983" lon="11.5706123"><ele>263.0</ele><time>2026-04-25T10:16:01.076Z</time></trkpt><trkpt lat="43.3863344" lon="11.5703913"><ele>264.0</ele><time>2026-04-25T10:16:02.075Z</time></trkpt><trkpt lat="43.3861712" lon="11.5701668"><ele>265.0</ele><time>2026-04-25T10:16:03.076Z</time></trkpt><trkpt lat="43.3860104" lon="11.5699403"><ele>266.0</ele><time>2026-04-25T10:16:04.076Z</time></trkpt><trkpt lat="43.3858488" lon="11.5697184"><ele>268.0</ele><time>2026-04-25T10:16:05.076Z</time></trkpt><trkpt lat="43.3856822" lon="11.5694975"><ele>270.0</ele><time>2026-04-25T10:16:06.075Z</time></trkpt><trkpt lat="43.3855187" lon="11.5692825"><ele>269.6666666666667</ele><time>2026-04-25T10:16:07.075Z</time></trkpt><trkpt lat="43.3853595" lon="11.569066"><ele>269.33333333333337</ele><time>2026-04-25T10:16:08.075Z</time></trkpt><trkpt lat="43.3851994" lon="11.5688496"><ele>269.0</ele><time>2026-04-25T10:16:09.076Z</time></trkpt><trkpt lat="43.3850382" lon="11.5686355"><ele>269.0</ele><time>2026-04-25T10:16:10.076Z</time></trkpt><trkpt lat="43.3848776" lon="11.5684153"><ele>269.0</ele><time>2026-04-25T10:16:11.076Z</time></trkpt><trkpt lat="43.3847143" lon="11.568199"><ele>267.0</ele><time>2026-04-25T10:16:12.076Z</time></trkpt><trkpt lat="43.3845491" lon="11.5679788"><ele>265.0</ele><time>2026-04-25T10:16:13.076Z</time></trkpt><trkpt lat="43.384382" lon="11.5677497"><ele>265.0</ele><time>2026-04-25T10:16:14.076Z</time></trkpt><trkpt lat="43.3842113" lon="11.5675175"><ele>265.0</ele><time>2026-04-25T10:16:15.075Z</time></trkpt><trkpt lat="43.3840416" lon="11.5672881"><ele>265.0</ele><time>2026-04-25T10:16:16.076Z</time></trkpt><trkpt lat="43.383871" lon="11.5670515"><ele>265.0</ele><time>2026-04-25T10:16:17.076Z</time></trkpt><trkpt lat="43.3837015" lon="11.566816"><ele>264.5</ele><time>2026-04-25T10:16:18.076Z</time></trkpt><trkpt lat="43.3835291" lon="11.5665773"><ele>264.0</ele><time>2026-04-25T10:16:19.076Z</time></trkpt><trkpt lat="43.3833596" lon="11.5663448"><ele>264.0</ele><time>2026-04-25T10:16:20.076Z</time></trkpt><trkpt lat="43.3831901" lon="11.5661117"><ele>264.0</ele><time>2026-04-25T10:16:21.076Z</time></trkpt><trkpt lat="43.3830256" lon="11.5658895"><ele>263.6666666666667</ele><time>2026-04-25T10:16:22.075Z</time></trkpt><trkpt lat="43.3828657" lon="11.5656662"><ele>263.33333333333337</ele><time>2026-04-25T10:16:23.076Z</time></trkpt><trkpt lat="43.3827127" lon="11.5654493"><ele>263.0</ele><time>2026-04-25T10:16:24.075Z</time></trkpt><trkpt lat="43.382549" lon="11.5652451"><ele>263.6666666666667</ele><time>2026-04-25T10:16:25.075Z</time></trkpt><trkpt lat="43.3823838" lon="11.5650739"><ele>264.3333333333333</ele><time>2026-04-25T10:16:26.076Z</time></trkpt><trkpt lat="43.3822074" lon="11.5649331"><ele>265.0</ele><time>2026-04-25T10:16:27.076Z</time></trkpt><trkpt lat="43.3820268" lon="11.5648243"><ele>265.0</ele><time>2026-04-25T10:16:28.075Z</time></trkpt><trkpt lat="43.3818249" lon="11.5647769"><ele>265.0</ele><time>2026-04-25T10:16:29.076Z</time></trkpt><trkpt lat="43.3816209" lon="11.5647731"><ele>265.0</ele><time>2026-04-25T10:16:30.076Z</time></trkpt><trkpt lat="43.3814304" lon="11.5648275"><ele>265.3333333333333</ele><time>2026-04-25T10:16:31.075Z</time></trkpt><trkpt lat="43.3812182" lon="11.5649016"><ele>265.6666666666667</ele><time>2026-04-25T10:16:32.076Z</time></trkpt><trkpt lat="43.3810043" lon="11.5649772"><ele>266.0</ele><time>2026-04-25T10:16:33.076Z</time></trkpt><trkpt lat="43.3807869" lon="11.5650512"><ele>266.0</ele><time>2026-04-25T10:16:34.076Z</time></trkpt><trkpt lat="43.3805656" lon="11.5651242"><ele>266.0</ele><time>2026-04-25T10:16:35.075Z</time></trkpt><trkpt lat="43.3803453" lon="11.565196"><ele>267.0</ele><time>2026-04-25T10:16:36.076Z</time></trkpt><trkpt lat="43.3801225" lon="11.5652656"><ele>268.0</ele><time>2026-04-25T10:16:37.076Z</time></trkpt><trkpt lat="43.3798988" lon="11.565336"><ele>268.0</ele><time>2026-04-25T10:16:38.075Z</time></trkpt><trkpt lat="43.3796771" lon="11.5654076"><ele>268.0</ele><time>2026-04-25T10:16:39.075Z</time></trkpt><trkpt lat="43.3794556" lon="11.5654862"><ele>268.0</ele><time>2026-04-25T10:16:40.076Z</time></trkpt><trkpt lat="43.3792247" lon="11.5655657"><ele>268.0</ele><time>2026-04-25T10:16:41.076Z</time></trkpt><trkpt lat="43.3789945" lon="11.5656432"><ele>269.5</ele><time>2026-04-25T10:16:42.076Z</time></trkpt><trkpt lat="43.3787655" lon="11.565717"><ele>271.0</ele><time>2026-04-25T10:16:43.075Z</time></trkpt><trkpt lat="43.3785376" lon="11.5657955"><ele>271.0</ele><time>2026-04-25T10:16:44.076Z</time></trkpt><trkpt lat="43.3783121" lon="11.5658713"><ele>271.0</ele><time>2026-04-25T10:16:45.076Z</time></trkpt><trkpt lat="43.3780938" lon="11.5659482"><ele>271.0</ele><time>2026-04-25T10:16:46.076Z</time></trkpt><trkpt lat="43.3778755" lon="11.5660155"><ele>271.0</ele><time>2026-04-25T10:16:47.075Z</time></trkpt><trkpt lat="43.3776604" lon="11.5660708"><ele>271.0</ele><time>2026-04-25T10:16:48.076Z</time></trkpt><trkpt lat="43.3774422" lon="11.5661054"><ele>271.0</ele><time>2026-04-25T10:16:49.076Z</time></trkpt><trkpt lat="43.3772198" lon="11.5660952"><ele>271.0</ele><time>2026-04-25T10:16:50.076Z</time></trkpt><trkpt lat="43.3770014" lon="11.5660323"><ele>271.0</ele><time>2026-04-25T10:16:51.076Z</time></trkpt><trkpt lat="43.3767935" lon="11.5659187"><ele>271.3333333333333</ele><time>2026-04-25T10:16:52.076Z</time></trkpt><trkpt lat="43.3765932" lon="11.5657817"><ele>271.6666666666667</ele><time>2026-04-25T10:16:53.076Z</time></trkpt><trkpt lat="43.3764064" lon="11.5656491"><ele>272.0</ele><time>2026-04-25T10:16:54.076Z</time></trkpt><trkpt lat="43.3762324" lon="11.5655152"><ele>272.0</ele><time>2026-04-25T10:16:55.076Z</time></trkpt><trkpt lat="43.3760659" lon="11.5653887"><ele>272.0</ele><time>2026-04-25T10:16:56.075Z</time></trkpt><trkpt lat="43.3759174" lon="11.5652608"><ele>272.0</ele><time>2026-04-25T10:16:57.076Z</time></trkpt><trkpt lat="43.3757752" lon="11.5651398"><ele>272.5</ele><time>2026-04-25T10:16:58.076Z</time></trkpt><trkpt lat="43.3756401" lon="11.5650274"><ele>273.0</ele><time>2026-04-25T10:16:59.076Z</time></trkpt><trkpt lat="43.3755106" lon="11.5649213"><ele>273.5</ele><time>2026-04-25T10:17:00.076Z</time></trkpt><trkpt lat="43.375395" lon="11.5648318"><ele>274.0</ele><time>2026-04-25T10:17:01.076Z</time></trkpt><trkpt lat="43.3752887" lon="11.5647602"><ele>272.75</ele><time>2026-04-25T10:17:02.076Z</time></trkpt><trkpt lat="43.375182" lon="11.5647182"><ele>271.5</ele><time>2026-04-25T10:17:03.076Z</time></trkpt><trkpt lat="43.3750594" lon="11.5646785"><ele>270.25</ele><time>2026-04-25T10:17:04.076Z</time></trkpt><trkpt lat="43.3749182" lon="11.5646459"><ele>269.0</ele><time>2026-04-25T10:17:05.076Z</time></trkpt><trkpt lat="43.3747521" lon="11.5646411"><ele>271.0</ele><time>2026-04-25T10:17:06.076Z</time></trkpt><trkpt lat="43.3745742" lon="11.564663"><ele>273.0</ele><time>2026-04-25T10:17:07.076Z</time></trkpt><trkpt lat="43.3743741" lon="11.5646916"><ele>275.0</ele><time>2026-04-25T10:17:08.076Z</time></trkpt><trkpt lat="43.3741712" lon="11.564719"><ele>275.0</ele><time>2026-04-25T10:17:09.076Z</time></trkpt><trkpt lat="43.3739647" lon="11.5647426"><ele>275.0</ele><time>2026-04-25T10:17:10.076Z</time></trkpt><trkpt lat="43.3737603" lon="11.5647607"><ele>275.0</ele><time>2026-04-25T10:17:11.076Z</time></trkpt><trkpt lat="43.3735568" lon="11.5647716"><ele>276.6666666666667</ele><time>2026-04-25T10:17:12.076Z</time></trkpt><trkpt lat="43.3733481" lon="11.5647929"><ele>278.3333333333333</ele><time>2026-04-25T10:17:13.076Z</time></trkpt><trkpt lat="43.373135" lon="11.5648136"><ele>280.0</ele><time>2026-04-25T10:17:14.075Z</time></trkpt><trkpt lat="43.3729237" lon="11.5648456"><ele>280.0</ele><time>2026-04-25T10:17:15.076Z</time></trkpt><trkpt lat="43.3727181" lon="11.5648825"><ele>280.0</ele><time>2026-04-25T10:17:16.075Z</time></trkpt><trkpt lat="43.3725077" lon="11.564916"><ele>280.0</ele><time>2026-04-25T10:17:17.076Z</time></trkpt><trkpt lat="43.3722958" lon="11.5649496"><ele>280.66666666666663</ele><time>2026-04-25T10:17:18.075Z</time></trkpt><trkpt lat="43.3720782" lon="11.5649864"><ele>281.3333333333333</ele><time>2026-04-25T10:17:19.076Z</time></trkpt><trkpt lat="43.3718583" lon="11.56502"><ele>282.0</ele><time>2026-04-25T10:17:20.076Z</time></trkpt><trkpt lat="43.3716404" lon="11.5650533"><ele>282.0</ele><time>2026-04-25T10:17:21.076Z</time></trkpt><trkpt lat="43.3714225" lon="11.5650824"><ele>282.0</ele><time>2026-04-25T10:17:22.076Z</time></trkpt><trkpt lat="43.3712026" lon="11.5651135"><ele>282.0</ele><time>2026-04-25T10:17:23.076Z</time></trkpt><trkpt lat="43.3709805" lon="11.5651434"><ele>284.5</ele><time>2026-04-25T10:17:24.075Z</time></trkpt><trkpt lat="43.3707518" lon="11.5651783"><ele>287.0</ele><time>2026-04-25T10:17:25.075Z</time></trkpt><trkpt lat="43.3705234" lon="11.5652043"><ele>288.0</ele><time>2026-04-25T10:17:26.075Z</time></trkpt><trkpt lat="43.3702971" lon="11.5652332"><ele>289.0</ele><time>2026-04-25T10:17:27.076Z</time></trkpt><trkpt lat="43.370069" lon="11.5652637"><ele>289.0</ele><time>2026-04-25T10:17:28.076Z</time></trkpt><trkpt lat="43.3698412" lon="11.565299"><ele>289.0</ele><time>2026-04-25T10:17:29.076Z</time></trkpt><trkpt lat="43.3696099" lon="11.5653387"><ele>287.5</ele><time>2026-04-25T10:17:30.076Z</time></trkpt><trkpt lat="43.3693746" lon="11.565373"><ele>286.0</ele><time>2026-04-25T10:17:31.075Z</time></trkpt><trkpt lat="43.3691386" lon="11.5654097"><ele>286.0</ele><time>2026-04-25T10:17:32.075Z</time></trkpt><trkpt lat="43.3689021" lon="11.5654463"><ele>286.0</ele><time>2026-04-25T10:17:33.076Z</time></trkpt><trkpt lat="43.3686591" lon="11.5654755"><ele>285.0</ele><time>2026-04-25T10:17:34.075Z</time></trkpt><trkpt lat="43.3684173" lon="11.5655087"><ele>284.0</ele><time>2026-04-25T10:17:35.075Z</time></trkpt><trkpt lat="43.3681783" lon="11.5655437"><ele>285.0</ele><time>2026-04-25T10:17:36.076Z</time></trkpt><trkpt lat="43.3679401" lon="11.5655761"><ele>286.0</ele><time>2026-04-25T10:17:37.076Z</time></trkpt><trkpt lat="43.3677035" lon="11.565616"><ele>286.0</ele><time>2026-04-25T10:17:38.076Z</time></trkpt><trkpt lat="43.3674668" lon="11.5656551"><ele>286.0</ele><time>2026-04-25T10:17:39.076Z</time></trkpt><trkpt lat="43.3672285" lon="11.5656904"><ele>287.0</ele><time>2026-04-25T10:17:40.076Z</time></trkpt><trkpt lat="43.3669909" lon="11.565722"><ele>288.0</ele><time>2026-04-25T10:17:41.076Z</time></trkpt><trkpt lat="43.3667582" lon="11.5657589"><ele>288.0</ele><time>2026-04-25T10:17:42.076Z</time></trkpt><trkpt lat="43.3665291" lon="11.5657962"><ele>288.0</ele><time>2026-04-25T10:17:43.076Z</time></trkpt><trkpt lat="43.3663091" lon="11.5658305"><ele>288.6666666666667</ele><time>2026-04-25T10:17:44.075Z</time></trkpt><trkpt lat="43.3660989" lon="11.565861"><ele>289.33333333333337</ele><time>2026-04-25T10:17:45.076Z</time></trkpt><trkpt lat="43.3659043" lon="11.5658904"><ele>290.0</ele><time>2026-04-25T10:17:46.075Z</time></trkpt><trkpt lat="43.3657183" lon="11.5659136"><ele>290.0</ele><time>2026-04-25T10:17:47.076Z</time></trkpt><trkpt lat="43.3655384" lon="11.565942"><ele>290.0</ele><time>2026-04-25T10:17:48.076Z</time></trkpt><trkpt lat="43.3653607" lon="11.5659702"><ele>290.0</ele><time>2026-04-25T10:17:49.075Z</time></trkpt><trkpt lat="43.3651838" lon="11.565996"><ele>290.0</ele><time>2026-04-25T10:17:50.075Z</time></trkpt><trkpt lat="43.3650077" lon="11.5660244"><ele>290.0</ele><time>2026-04-25T10:17:51.076Z</time></trkpt><trkpt lat="43.3648321" lon="11.5660498"><ele>290.0</ele><time>2026-04-25T10:17:52.075Z</time></trkpt><trkpt lat="43.3646574" lon="11.5660877"><ele>290.0</ele><time>2026-04-25T10:17:53.076Z</time></trkpt><trkpt lat="43.3644832" lon="11.5661195"><ele>290.0</ele><time>2026-04-25T10:17:54.076Z</time></trkpt><trkpt lat="43.3643084" lon="11.5661479"><ele>290.0</ele><time>2026-04-25T10:17:55.076Z</time></trkpt><trkpt lat="43.3641308" lon="11.5661654"><ele>290.0</ele><time>2026-04-25T10:17:56.076Z</time></trkpt><trkpt lat="43.3639524" lon="11.5661758"><ele>290.0</ele><time>2026-04-25T10:17:57.076Z</time></trkpt><trkpt lat="43.3637759" lon="11.5661638"><ele>290.0</ele><time>2026-04-25T10:17:58.075Z</time></trkpt><trkpt lat="43.3635927" lon="11.5661319"><ele>290.0</ele><time>2026-04-25T10:17:59.076Z</time></trkpt><trkpt lat="43.3634071" lon="11.5661041"><ele>290.0</ele><time>2026-04-25T10:18:00.076Z</time></trkpt><trkpt lat="43.3632221" lon="11.5660724"><ele>290.0</ele><time>2026-04-25T10:18:01.076Z</time></trkpt><trkpt lat="43.3630388" lon="11.5660445"><ele>289.6666666666667</ele><time>2026-04-25T10:18:02.075Z</time></trkpt><trkpt lat="43.3628527" lon="11.5660205"><ele>289.3333333333333</ele><time>2026-04-25T10:18:03.076Z</time></trkpt><trkpt lat="43.3626675" lon="11.5659959"><ele>289.0</ele><time>2026-04-25T10:18:04.076Z</time></trkpt><trkpt lat="43.3624806" lon="11.5659905"><ele>289.0</ele><time>2026-04-25T10:18:05.076Z</time></trkpt><trkpt lat="43.3622941" lon="11.5660131"><ele>289.0</ele><time>2026-04-25T10:18:06.076Z</time></trkpt><trkpt lat="43.3621066" lon="11.5660657"><ele>289.0</ele><time>2026-04-25T10:18:07.076Z</time></trkpt><trkpt lat="43.3619196" lon="11.5661211"><ele>288.3333333333333</ele><time>2026-04-25T10:18:08.076Z</time></trkpt><trkpt lat="43.361739" lon="11.5661826"><ele>287.6666666666667</ele><time>2026-04-25T10:18:09.075Z</time></trkpt><trkpt lat="43.3615558" lon="11.566245"><ele>287.0</ele><time>2026-04-25T10:18:10.076Z</time></trkpt><trkpt lat="43.3613753" lon="11.5663023"><ele>282.33333333333337</ele><time>2026-04-25T10:18:11.076Z</time></trkpt><trkpt lat="43.3611927" lon="11.5663572"><ele>277.6666666666667</ele><time>2026-04-25T10:18:12.075Z</time></trkpt><trkpt lat="43.3610145" lon="11.5664158"><ele>273.0</ele><time>2026-04-25T10:18:13.076Z</time></trkpt><trkpt lat="43.3608382" lon="11.5664754"><ele>273.0</ele><time>2026-04-25T10:18:14.076Z</time></trkpt><trkpt lat="43.3606626" lon="11.5665396"><ele>273.0</ele><time>2026-04-25T10:18:15.076Z</time></trkpt><trkpt lat="43.3604901" lon="11.5665933"><ele>273.0</ele><time>2026-04-25T10:18:16.075Z</time></trkpt><trkpt lat="43.3603259" lon="11.5666487"><ele>275.0</ele><time>2026-04-25T10:18:17.075Z</time></trkpt><trkpt lat="43.360164" lon="11.5667033"><ele>277.0</ele><time>2026-04-25T10:18:18.076Z</time></trkpt><trkpt lat="43.3600079" lon="11.5667512"><ele>279.0</ele><time>2026-04-25T10:18:19.075Z</time></trkpt><trkpt lat="43.3598588" lon="11.5668074"><ele>279.0</ele><time>2026-04-25T10:18:20.076Z</time></trkpt><trkpt lat="43.3597166" lon="11.5668576"><ele>279.0</ele><time>2026-04-25T10:18:21.076Z</time></trkpt><trkpt lat="43.3595815" lon="11.5669049"><ele>279.0</ele><time>2026-04-25T10:18:22.076Z</time></trkpt><trkpt lat="43.3594467" lon="11.566951"><ele>279.0</ele><time>2026-04-25T10:18:23.076Z</time></trkpt><trkpt lat="43.3593126" lon="11.5669967"><ele>279.0</ele><time>2026-04-25T10:18:24.076Z</time></trkpt><trkpt lat="43.3591757" lon="11.5670415"><ele>279.0</ele><time>2026-04-25T10:18:25.076Z</time></trkpt><trkpt lat="43.3590454" lon="11.5670825"><ele>279.0</ele><time>2026-04-25T10:18:26.076Z</time></trkpt><trkpt lat="43.3589141" lon="11.5671229"><ele>279.0</ele><time>2026-04-25T10:18:27.075Z</time></trkpt><trkpt lat="43.3587869" lon="11.5671661"><ele>279.0</ele><time>2026-04-25T10:18:28.076Z</time></trkpt><trkpt lat="43.3586629" lon="11.5672173"><ele>279.0</ele><time>2026-04-25T10:18:29.076Z</time></trkpt><trkpt lat="43.3585351" lon="11.5672712"><ele>279.0</ele><time>2026-04-25T10:18:30.076Z</time></trkpt><trkpt lat="43.3584006" lon="11.5673218"><ele>279.0</ele><time>2026-04-25T10:18:31.076Z</time></trkpt><trkpt lat="43.3582654" lon="11.5673908"><ele>279.0</ele><time>2026-04-25T10:18:32.075Z</time></trkpt><trkpt lat="43.3581132" lon="11.5674809"><ele>279.0</ele><time>2026-04-25T10:18:33.076Z</time></trkpt><trkpt lat="43.3579528" lon="11.5675772"><ele>279.0</ele><time>2026-04-25T10:18:34.076Z</time></trkpt><trkpt lat="43.3577853" lon="11.5676785"><ele>279.6666666666667</ele><time>2026-04-25T10:18:35.076Z</time></trkpt><trkpt lat="43.3576038" lon="11.5677809"><ele>280.33333333333337</ele><time>2026-04-25T10:18:36.076Z</time></trkpt><trkpt lat="43.3574222" lon="11.5678803"><ele>281.0</ele><time>2026-04-25T10:18:37.075Z</time></trkpt><trkpt lat="43.3572503" lon="11.5679738"><ele>278.0</ele><time>2026-04-25T10:18:38.076Z</time></trkpt><trkpt lat="43.3570893" lon="11.568076"><ele>275.0</ele><time>2026-04-25T10:18:39.076Z</time></trkpt><trkpt lat="43.3569222" lon="11.5681634"><ele>272.0</ele><time>2026-04-25T10:18:40.076Z</time></trkpt><trkpt lat="43.3567736" lon="11.5682358"><ele>272.0</ele><time>2026-04-25T10:18:41.076Z</time></trkpt><trkpt lat="43.3566192" lon="11.5682914"><ele>272.0</ele><time>2026-04-25T10:18:42.076Z</time></trkpt><trkpt lat="43.3564685" lon="11.5683418"><ele>272.0</ele><time>2026-04-25T10:18:43.075Z</time></trkpt><trkpt lat="43.3563201" lon="11.568379"><ele>271.75</ele><time>2026-04-25T10:18:44.076Z</time></trkpt><trkpt lat="43.3561811" lon="11.5683987"><ele>271.5</ele><time>2026-04-25T10:18:45.076Z</time></trkpt><trkpt lat="43.356049" lon="11.5684006"><ele>271.25</ele><time>2026-04-25T10:18:46.076Z</time></trkpt><trkpt lat="43.355922" lon="11.5684015"><ele>271.0</ele><time>2026-04-25T10:18:47.076Z</time></trkpt><trkpt lat="43.3557964" lon="11.5684161"><ele>271.0</ele><time>2026-04-25T10:18:48.076Z</time></trkpt><trkpt lat="43.3556718" lon="11.5684241"><ele>271.0</ele><time>2026-04-25T10:18:49.076Z</time></trkpt><trkpt lat="43.3555433" lon="11.5684142"><ele>271.0</ele><time>2026-04-25T10:18:50.075Z</time></trkpt><trkpt lat="43.3553994" lon="11.5683798"><ele>271.0</ele><time>2026-04-25T10:18:51.075Z</time></trkpt><trkpt lat="43.3552456" lon="11.5683252"><ele>270.3333333333333</ele><time>2026-04-25T10:18:52.075Z</time></trkpt><trkpt lat="43.3550845" lon="11.5682585"><ele>269.6666666666667</ele><time>2026-04-25T10:18:53.076Z</time></trkpt><trkpt lat="43.3549305" lon="11.568193"><ele>269.0</ele><time>2026-04-25T10:18:54.076Z</time></trkpt><trkpt lat="43.3547866" lon="11.5681222"><ele>268.0</ele><time>2026-04-25T10:18:55.076Z</time></trkpt><trkpt lat="43.3546507" lon="11.5680644"><ele>267.0</ele><time>2026-04-25T10:18:56.075Z</time></trkpt><trkpt lat="43.3545222" lon="11.5680209"><ele>266.0</ele><time>2026-04-25T10:18:57.076Z</time></trkpt><trkpt lat="43.3544042" lon="11.5679839"><ele>265.0</ele><time>2026-04-25T10:18:58.075Z</time></trkpt><trkpt lat="43.354273" lon="11.5679398"><ele>265.0</ele><time>2026-04-25T10:18:59.076Z</time></trkpt><trkpt lat="43.3541417" lon="11.5678825"><ele>265.0</ele><time>2026-04-25T10:19:00.076Z</time></trkpt><trkpt lat="43.3540098" lon="11.5678006"><ele>265.0</ele><time>2026-04-25T10:19:01.075Z</time></trkpt><trkpt lat="43.3538924" lon="11.5676941"><ele>265.0</ele><time>2026-04-25T10:19:02.076Z</time></trkpt><trkpt lat="43.3537765" lon="11.5675443"><ele>265.3333333333333</ele><time>2026-04-25T10:19:03.076Z</time></trkpt><trkpt lat="43.3536569" lon="11.5673862"><ele>265.6666666666667</ele><time>2026-04-25T10:19:04.075Z</time></trkpt><trkpt lat="43.3535228" lon="11.5671991"><ele>266.0</ele><time>2026-04-25T10:19:05.075Z</time></trkpt><trkpt lat="43.3533874" lon="11.5669905"><ele>265.33333333333337</ele><time>2026-04-25T10:19:06.076Z</time></trkpt><trkpt lat="43.3532491" lon="11.5667715"><ele>264.6666666666667</ele><time>2026-04-25T10:19:07.076Z</time></trkpt><trkpt lat="43.3530955" lon="11.5665413"><ele>264.0</ele><time>2026-04-25T10:19:08.076Z</time></trkpt><trkpt lat="43.352937" lon="11.5663013"><ele>264.0</ele><time>2026-04-25T10:19:09.076Z</time></trkpt><trkpt lat="43.3527891" lon="11.5660629"><ele>264.0</ele><time>2026-04-25T10:19:10.075Z</time></trkpt><trkpt lat="43.3526596" lon="11.5658374"><ele>264.0</ele><time>2026-04-25T10:19:11.076Z</time></trkpt><trkpt lat="43.3525357" lon="11.5656289"><ele>264.0</ele><time>2026-04-25T10:19:12.076Z</time></trkpt><trkpt lat="43.3524187" lon="11.5654399"><ele>264.0</ele><time>2026-04-25T10:19:13.076Z</time></trkpt><trkpt lat="43.3523011" lon="11.5652731"><ele>264.0</ele><time>2026-04-25T10:19:14.076Z</time></trkpt><trkpt lat="43.3521785" lon="11.5651262"><ele>263.6666666666667</ele><time>2026-04-25T10:19:15.076Z</time></trkpt><trkpt lat="43.3520522" lon="11.5650124"><ele>263.33333333333337</ele><time>2026-04-25T10:19:16.076Z</time></trkpt><trkpt lat="43.351913" lon="11.5649204"><ele>263.0</ele><time>2026-04-25T10:19:17.075Z</time></trkpt><trkpt lat="43.3517695" lon="11.5648506"><ele>263.0</ele><time>2026-04-25T10:19:18.076Z</time></trkpt><trkpt lat="43.3516197" lon="11.5648257"><ele>263.0</ele><time>2026-04-25T10:19:19.076Z</time></trkpt><trkpt lat="43.351467" lon="11.5648161"><ele>263.0</ele><time>2026-04-25T10:19:20.076Z</time></trkpt><trkpt lat="43.3513169" lon="11.5648196"><ele>262.75</ele><time>2026-04-25T10:19:21.076Z</time></trkpt><trkpt lat="43.3511678" lon="11.5648328"><ele>262.5</ele><time>2026-04-25T10:19:22.076Z</time></trkpt><trkpt lat="43.351022" lon="11.5648359"><ele>262.25</ele><time>2026-04-25T10:19:23.076Z</time></trkpt><trkpt lat="43.3508784" lon="11.5648472"><ele>262.0</ele><time>2026-04-25T10:19:24.076Z</time></trkpt><trkpt lat="43.3507332" lon="11.5648484"><ele>262.0</ele><time>2026-04-25T10:19:25.076Z</time></trkpt><trkpt lat="43.3505859" lon="11.5648424"><ele>262.0</ele><time>2026-04-25T10:19:26.075Z</time></trkpt><trkpt lat="43.3504436" lon="11.5648257"><ele>262.0</ele><time>2026-04-25T10:19:27.076Z</time></trkpt><trkpt lat="43.3503017" lon="11.5647962"><ele>262.0</ele><time>2026-04-25T10:19:28.076Z</time></trkpt><trkpt lat="43.3501568" lon="11.5647573"><ele>261.66666666666663</ele><time>2026-04-25T10:19:29.076Z</time></trkpt><trkpt lat="43.349996" lon="11.5647237"><ele>261.3333333333333</ele><time>2026-04-25T10:19:30.076Z</time></trkpt><trkpt lat="43.3498412" lon="11.5646706"><ele>261.0</ele><time>2026-04-25T10:19:31.076Z</time></trkpt><trkpt lat="43.349695" lon="11.5646185"><ele>260.0</ele><time>2026-04-25T10:19:32.076Z</time></trkpt><trkpt lat="43.3495517" lon="11.5645634"><ele>259.0</ele><time>2026-04-25T10:19:33.076Z</time></trkpt><trkpt lat="43.3494149" lon="11.5644914"><ele>258.0</ele><time>2026-04-25T10:19:34.076Z</time></trkpt><trkpt lat="43.3493024" lon="11.5643665"><ele>257.0</ele><time>2026-04-25T10:19:35.076Z</time></trkpt><trkpt lat="43.3491968" lon="11.5642256"><ele>256.33333333333337</ele><time>2026-04-25T10:19:36.076Z</time></trkpt><trkpt lat="43.3490976" lon="11.5640615"><ele>255.66666666666669</ele><time>2026-04-25T10:19:37.076Z</time></trkpt><trkpt lat="43.3489978" lon="11.5639017"><ele>255.0</ele><time>2026-04-25T10:19:38.076Z</time></trkpt><trkpt lat="43.3488884" lon="11.5637256"><ele>253.0</ele><time>2026-04-25T10:19:39.076Z</time></trkpt><trkpt lat="43.3487753" lon="11.5635646"><ele>251.0</ele><time>2026-04-25T10:19:40.076Z</time></trkpt><trkpt lat="43.3486413" lon="11.5634298"><ele>249.0</ele><time>2026-04-25T10:19:41.076Z</time></trkpt><trkpt lat="43.348485" lon="11.5633085"><ele>249.0</ele><time>2026-04-25T10:19:42.076Z</time></trkpt><trkpt lat="43.3483039" lon="11.563215"><ele>249.0</ele><time>2026-04-25T10:19:43.076Z</time></trkpt><trkpt lat="43.3481198" lon="11.5630963"><ele>249.0</ele><time>2026-04-25T10:19:44.075Z</time></trkpt><trkpt lat="43.3479237" lon="11.562959"><ele>247.0</ele><time>2026-04-25T10:19:45.075Z</time></trkpt><trkpt lat="43.3477103" lon="11.5628179"><ele>245.0</ele><time>2026-04-25T10:19:46.075Z</time></trkpt><trkpt lat="43.3474919" lon="11.5626796"><ele>245.0</ele><time>2026-04-25T10:19:47.076Z</time></trkpt><trkpt lat="43.3472601" lon="11.5625266"><ele>245.0</ele><time>2026-04-25T10:19:48.076Z</time></trkpt><trkpt lat="43.3470265" lon="11.562366"><ele>242.5</ele><time>2026-04-25T10:19:49.076Z</time></trkpt><trkpt lat="43.3467805" lon="11.5622021"><ele>240.0</ele><time>2026-04-25T10:19:50.076Z</time></trkpt><trkpt lat="43.3465381" lon="11.5620328"><ele>239.5</ele><time>2026-04-25T10:19:51.076Z</time></trkpt><trkpt lat="43.3463017" lon="11.5618629"><ele>239.0</ele><time>2026-04-25T10:19:52.075Z</time></trkpt><trkpt lat="43.3460618" lon="11.5616956"><ele>239.0</ele><time>2026-04-25T10:19:53.075Z</time></trkpt><trkpt lat="43.3458189" lon="11.561537"><ele>239.0</ele><time>2026-04-25T10:19:54.075Z</time></trkpt><trkpt lat="43.3455833" lon="11.5613799"><ele>237.5</ele><time>2026-04-25T10:19:55.076Z</time></trkpt><trkpt lat="43.3453614" lon="11.5612232"><ele>236.0</ele><time>2026-04-25T10:19:56.075Z</time></trkpt><trkpt lat="43.3451467" lon="11.5610776"><ele>236.0</ele><time>2026-04-25T10:19:57.076Z</time></trkpt><trkpt lat="43.3449301" lon="11.5609432"><ele>236.0</ele><time>2026-04-25T10:19:58.076Z</time></trkpt><trkpt lat="43.3447197" lon="11.5608039"><ele>235.5</ele><time>2026-04-25T10:19:59.075Z</time></trkpt><trkpt lat="43.3445109" lon="11.5606655"><ele>235.0</ele><time>2026-04-25T10:20:00.075Z</time></trkpt><trkpt lat="43.3443102" lon="11.5605276"><ele>235.0</ele><time>2026-04-25T10:20:01.075Z</time></trkpt><trkpt lat="43.3441124" lon="11.56039"><ele>235.0</ele><time>2026-04-25T10:20:02.075Z</time></trkpt><trkpt lat="43.3439189" lon="11.5602574"><ele>235.0</ele><time>2026-04-25T10:20:03.076Z</time></trkpt><trkpt lat="43.3437272" lon="11.5601257"><ele>235.66666666666666</ele><time>2026-04-25T10:20:04.075Z</time></trkpt><trkpt lat="43.3435344" lon="11.5599983"><ele>236.33333333333331</ele><time>2026-04-25T10:20:05.076Z</time></trkpt><trkpt lat="43.3433441" lon="11.5598787"><ele>237.0</ele><time>2026-04-25T10:20:06.075Z</time></trkpt><trkpt lat="43.3431515" lon="11.5597641"><ele>235.66666666666669</ele><time>2026-04-25T10:20:07.076Z</time></trkpt><trkpt lat="43.3429599" lon="11.5596463"><ele>234.33333333333334</ele><time>2026-04-25T10:20:08.076Z</time></trkpt><trkpt lat="43.342771" lon="11.5595248"><ele>233.0</ele><time>2026-04-25T10:20:09.076Z</time></trkpt><trkpt lat="43.3425829" lon="11.5593991"><ele>232.0</ele><time>2026-04-25T10:20:10.075Z</time></trkpt><trkpt lat="43.342396" lon="11.5592697"><ele>231.0</ele><time>2026-04-25T10:20:11.076Z</time></trkpt><trkpt lat="43.3422132" lon="11.5591289"><ele>230.0</ele><time>2026-04-25T10:20:12.076Z</time></trkpt><trkpt lat="43.3420322" lon="11.5589912"><ele>230.0</ele><time>2026-04-25T10:20:13.076Z</time></trkpt><trkpt lat="43.3418516" lon="11.5588634"><ele>230.0</ele><time>2026-04-25T10:20:14.076Z</time></trkpt><trkpt lat="43.3416651" lon="11.558741"><ele>230.0</ele><time>2026-04-25T10:20:15.075Z</time></trkpt><trkpt lat="43.3414812" lon="11.5586183"><ele>230.0</ele><time>2026-04-25T10:20:16.076Z</time></trkpt><trkpt lat="43.3412978" lon="11.5584961"><ele>230.0</ele><time>2026-04-25T10:20:17.076Z</time></trkpt><trkpt lat="43.3411196" lon="11.5583742"><ele>230.0</ele><time>2026-04-25T10:20:18.075Z</time></trkpt><trkpt lat="43.3409386" lon="11.558262"><ele>230.0</ele><time>2026-04-25T10:20:19.076Z</time></trkpt><trkpt lat="43.3407548" lon="11.5581658"><ele>230.0</ele><time>2026-04-25T10:20:20.076Z</time></trkpt><trkpt lat="43.3405653" lon="11.5580856"><ele>230.0</ele><time>2026-04-25T10:20:21.075Z</time></trkpt><trkpt lat="43.3403717" lon="11.5580121"><ele>230.0</ele><time>2026-04-25T10:20:22.075Z</time></trkpt><trkpt lat="43.3401774" lon="11.5579425"><ele>230.0</ele><time>2026-04-25T10:20:23.076Z</time></trkpt><trkpt lat="43.3399757" lon="11.5578716"><ele>230.0</ele><time>2026-04-25T10:20:24.076Z</time></trkpt><trkpt lat="43.3397707" lon="11.5577976"><ele>229.66666666666669</ele><time>2026-04-25T10:20:25.076Z</time></trkpt><trkpt lat="43.3395636" lon="11.5577241"><ele>229.33333333333331</ele><time>2026-04-25T10:20:26.076Z</time></trkpt><trkpt lat="43.3393539" lon="11.5576511"><ele>229.0</ele><time>2026-04-25T10:20:27.076Z</time></trkpt><trkpt lat="43.3391433" lon="11.5575762"><ele>229.0</ele><time>2026-04-25T10:20:28.075Z</time></trkpt><trkpt lat="43.3389307" lon="11.5574943"><ele>229.0</ele><time>2026-04-25T10:20:29.075Z</time></trkpt><trkpt lat="43.338714" lon="11.5574149"><ele>229.0</ele><time>2026-04-25T10:20:30.076Z</time></trkpt><trkpt lat="43.3384962" lon="11.5573383"><ele>228.33333333333331</ele><time>2026-04-25T10:20:31.076Z</time></trkpt><trkpt lat="43.3382801" lon="11.5572638"><ele>227.66666666666669</ele><time>2026-04-25T10:20:32.075Z</time></trkpt><trkpt lat="43.3380642" lon="11.5571877"><ele>227.0</ele><time>2026-04-25T10:20:33.076Z</time></trkpt><trkpt lat="43.337847" lon="11.5571077"><ele>227.33333333333334</ele><time>2026-04-25T10:20:34.076Z</time></trkpt><trkpt lat="43.3376314" lon="11.5570264"><ele>227.66666666666669</ele><time>2026-04-25T10:20:35.076Z</time></trkpt><trkpt lat="43.3374167" lon="11.5569398"><ele>228.0</ele><time>2026-04-25T10:20:36.076Z</time></trkpt><trkpt lat="43.3372053" lon="11.5568502"><ele>227.33333333333331</ele><time>2026-04-25T10:20:37.076Z</time></trkpt><trkpt lat="43.336996" lon="11.5567443"><ele>226.66666666666666</ele><time>2026-04-25T10:20:38.075Z</time></trkpt><trkpt lat="43.3367868" lon="11.5566326"><ele>226.0</ele><time>2026-04-25T10:20:39.076Z</time></trkpt><trkpt lat="43.3365729" lon="11.5565213"><ele>225.0</ele><time>2026-04-25T10:20:40.075Z</time></trkpt><trkpt lat="43.3363602" lon="11.5564132"><ele>224.0</ele><time>2026-04-25T10:20:41.076Z</time></trkpt><trkpt lat="43.3361493" lon="11.5563021"><ele>226.5</ele><time>2026-04-25T10:20:42.076Z</time></trkpt><trkpt lat="43.3359381" lon="11.5561877"><ele>229.0</ele><time>2026-04-25T10:20:43.075Z</time></trkpt><trkpt lat="43.3357229" lon="11.5560784"><ele>227.5</ele><time>2026-04-25T10:20:44.076Z</time></trkpt><trkpt lat="43.3355088" lon="11.5559649"><ele>226.0</ele><time>2026-04-25T10:20:45.076Z</time></trkpt><trkpt lat="43.3352964" lon="11.5558493"><ele>226.0</ele><time>2026-04-25T10:20:46.075Z</time></trkpt><trkpt lat="43.3350851" lon="11.555732"><ele>226.0</ele><time>2026-04-25T10:20:47.076Z</time></trkpt><trkpt lat="43.3348695" lon="11.5556152"><ele>226.0</ele><time>2026-04-25T10:20:48.076Z</time></trkpt><trkpt lat="43.3346515" lon="11.5555035"><ele>226.0</ele><time>2026-04-25T10:20:49.076Z</time></trkpt><trkpt lat="43.3344343" lon="11.5553881"><ele>229.5</ele><time>2026-04-25T10:20:50.076Z</time></trkpt><trkpt lat="43.3342195" lon="11.5552869"><ele>233.0</ele><time>2026-04-25T10:20:51.076Z</time></trkpt><trkpt lat="43.3340033" lon="11.5551839"><ele>231.5</ele><time>2026-04-25T10:20:52.076Z</time></trkpt><trkpt lat="43.3337885" lon="11.5550759"><ele>230.0</ele><time>2026-04-25T10:20:53.076Z</time></trkpt><trkpt lat="43.3335771" lon="11.5549644"><ele>230.0</ele><time>2026-04-25T10:20:54.076Z</time></trkpt><trkpt lat="43.3333728" lon="11.5548416"><ele>230.0</ele><time>2026-04-25T10:20:55.076Z</time></trkpt><trkpt lat="43.3331697" lon="11.5547046"><ele>230.0</ele><time>2026-04-25T10:20:56.076Z</time></trkpt><trkpt lat="43.3329815" lon="11.5545649"><ele>229.0</ele><time>2026-04-25T10:20:57.076Z</time></trkpt><trkpt lat="43.3327956" lon="11.5544324"><ele>228.0</ele><time>2026-04-25T10:20:58.076Z</time></trkpt><trkpt lat="43.3326215" lon="11.5543002"><ele>227.0</ele><time>2026-04-25T10:20:59.076Z</time></trkpt><trkpt lat="43.3324482" lon="11.554172"><ele>227.0</ele><time>2026-04-25T10:21:00.075Z</time></trkpt><trkpt lat="43.3322842" lon="11.5540528"><ele>227.0</ele><time>2026-04-25T10:21:01.076Z</time></trkpt><trkpt lat="43.3321251" lon="11.5539407"><ele>227.0</ele><time>2026-04-25T10:21:02.076Z</time></trkpt><trkpt lat="43.3319726" lon="11.5538349"><ele>226.33333333333334</ele><time>2026-04-25T10:21:03.076Z</time></trkpt><trkpt lat="43.3318274" lon="11.5537308"><ele>225.66666666666669</ele><time>2026-04-25T10:21:04.076Z</time></trkpt><trkpt lat="43.3316877" lon="11.5536303"><ele>225.0</ele><time>2026-04-25T10:21:05.075Z</time></trkpt><trkpt lat="43.3315516" lon="11.5535341"><ele>225.0</ele><time>2026-04-25T10:21:06.075Z</time></trkpt><trkpt lat="43.3314212" lon="11.5534395"><ele>225.0</ele><time>2026-04-25T10:21:07.076Z</time></trkpt><trkpt lat="43.3312943" lon="11.5533466"><ele>225.0</ele><time>2026-04-25T10:21:08.075Z</time></trkpt><trkpt lat="43.3311767" lon="11.553262"><ele>225.0</ele><time>2026-04-25T10:21:09.075Z</time></trkpt><trkpt lat="43.3310626" lon="11.5531775"><ele>225.2</ele><time>2026-04-25T10:21:10.076Z</time></trkpt><trkpt lat="43.3309542" lon="11.5530944"><ele>225.4</ele><time>2026-04-25T10:21:11.076Z</time></trkpt><trkpt lat="43.3308607" lon="11.5530192"><ele>225.60000000000002</ele><time>2026-04-25T10:21:12.075Z</time></trkpt><trkpt lat="43.3307735" lon="11.5529625"><ele>225.8</ele><time>2026-04-25T10:21:13.076Z</time></trkpt><trkpt lat="43.3306903" lon="11.5529083"><ele>226.0</ele><time>2026-04-25T10:21:14.075Z</time></trkpt><trkpt lat="43.3306129" lon="11.5528636"><ele>225.83333333333331</ele><time>2026-04-25T10:21:15.075Z</time></trkpt><trkpt lat="43.3305447" lon="11.552816"><ele>225.66666666666666</ele><time>2026-04-25T10:21:16.076Z</time></trkpt><trkpt lat="43.3304636" lon="11.552749"><ele>225.5</ele><time>2026-04-25T10:21:18.075Z</time></trkpt><trkpt lat="43.3303888" lon="11.5527624"><ele>225.33333333333331</ele><time>2026-04-25T10:21:20.075Z</time></trkpt><trkpt lat="43.330347" lon="11.5528344"><ele>225.16666666666666</ele><time>2026-04-25T10:21:21.076Z</time></trkpt><trkpt lat="43.3303211" lon="11.5529693"><ele>225.0</ele><time>2026-04-25T10:21:22.076Z</time></trkpt><trkpt lat="43.3302849" lon="11.5531119"><ele>225.0</ele><time>2026-04-25T10:21:23.076Z</time></trkpt><trkpt lat="43.3302216" lon="11.5532614"><ele>225.0</ele><time>2026-04-25T10:21:24.075Z</time></trkpt><trkpt lat="43.330153" lon="11.5534272"><ele>225.0</ele><time>2026-04-25T10:21:25.076Z</time></trkpt><trkpt lat="43.330077" lon="11.5535919"><ele>225.0</ele><time>2026-04-25T10:21:26.076Z</time></trkpt><trkpt lat="43.3299895" lon="11.5537707"><ele>225.0</ele><time>2026-04-25T10:21:27.076Z</time></trkpt><trkpt lat="43.3298955" lon="11.5539499"><ele>225.0</ele><time>2026-04-25T10:21:28.076Z</time></trkpt><trkpt lat="43.3297962" lon="11.5541379"><ele>225.0</ele><time>2026-04-25T10:21:29.076Z</time></trkpt><trkpt lat="43.3296971" lon="11.5543253"><ele>224.0</ele><time>2026-04-25T10:21:30.076Z</time></trkpt><trkpt lat="43.3295953" lon="11.5545195"><ele>223.0</ele><time>2026-04-25T10:21:31.076Z</time></trkpt><trkpt lat="43.3294936" lon="11.5547217"><ele>222.0</ele><time>2026-04-25T10:21:32.076Z</time></trkpt><trkpt lat="43.3293991" lon="11.5549331"><ele>222.0</ele><time>2026-04-25T10:21:33.076Z</time></trkpt><trkpt lat="43.3293064" lon="11.5551543"><ele>222.0</ele><time>2026-04-25T10:21:34.076Z</time></trkpt><trkpt lat="43.3292071" lon="11.5553807"><ele>222.0</ele><time>2026-04-25T10:21:35.076Z</time></trkpt><trkpt lat="43.3291023" lon="11.5556127"><ele>222.66666666666669</ele><time>2026-04-25T10:21:36.075Z</time></trkpt><trkpt lat="43.3289882" lon="11.5558405"><ele>223.33333333333334</ele><time>2026-04-25T10:21:37.076Z</time></trkpt><trkpt lat="43.3288685" lon="11.5560674"><ele>224.0</ele><time>2026-04-25T10:21:38.076Z</time></trkpt><trkpt lat="43.328748" lon="11.5562947"><ele>221.33333333333334</ele><time>2026-04-25T10:21:39.075Z</time></trkpt><trkpt lat="43.3286348" lon="11.5565305"><ele>218.66666666666669</ele><time>2026-04-25T10:21:40.076Z</time></trkpt><trkpt lat="43.3285281" lon="11.5567752"><ele>216.0</ele><time>2026-04-25T10:21:41.076Z</time></trkpt><trkpt lat="43.3284306" lon="11.5570254"><ele>216.0</ele><time>2026-04-25T10:21:42.076Z</time></trkpt><trkpt lat="43.3283526" lon="11.5572922"><ele>216.0</ele><time>2026-04-25T10:21:43.075Z</time></trkpt><trkpt lat="43.3282892" lon="11.5575737"><ele>216.0</ele><time>2026-04-25T10:21:44.076Z</time></trkpt><trkpt lat="43.3282383" lon="11.557859"><ele>215.66666666666669</ele><time>2026-04-25T10:21:45.076Z</time></trkpt><trkpt lat="43.328193" lon="11.558146"><ele>215.33333333333334</ele><time>2026-04-25T10:21:46.075Z</time></trkpt><trkpt lat="43.3281513" lon="11.5584343"><ele>215.0</ele><time>2026-04-25T10:21:47.076Z</time></trkpt><trkpt lat="43.3281114" lon="11.5587173"><ele>214.66666666666669</ele><time>2026-04-25T10:21:48.076Z</time></trkpt><trkpt lat="43.3280736" lon="11.558998"><ele>214.33333333333331</ele><time>2026-04-25T10:21:49.076Z</time></trkpt><trkpt lat="43.3280388" lon="11.559279"><ele>214.0</ele><time>2026-04-25T10:21:50.076Z</time></trkpt><trkpt lat="43.32801" lon="11.559556"><ele>213.0</ele><time>2026-04-25T10:21:51.076Z</time></trkpt><trkpt lat="43.3279772" lon="11.5598324"><ele>212.0</ele><time>2026-04-25T10:21:52.075Z</time></trkpt><trkpt lat="43.327933" lon="11.5601038"><ele>211.0</ele><time>2026-04-25T10:21:53.076Z</time></trkpt><trkpt lat="43.3278798" lon="11.5603627"><ele>211.33333333333331</ele><time>2026-04-25T10:21:54.075Z</time></trkpt><trkpt lat="43.327814" lon="11.5606187"><ele>211.66666666666669</ele><time>2026-04-25T10:21:55.075Z</time></trkpt><trkpt lat="43.3277506" lon="11.5608802"><ele>212.0</ele><time>2026-04-25T10:21:56.076Z</time></trkpt><trkpt lat="43.3276908" lon="11.5611393"><ele>213.0</ele><time>2026-04-25T10:21:57.076Z</time></trkpt><trkpt lat="43.3276371" lon="11.5613865"><ele>214.0</ele><time>2026-04-25T10:21:58.075Z</time></trkpt><trkpt lat="43.3275949" lon="11.561634"><ele>215.0</ele><time>2026-04-25T10:21:59.076Z</time></trkpt><trkpt lat="43.3275791" lon="11.5618684"><ele>215.75</ele><time>2026-04-25T10:22:00.076Z</time></trkpt><trkpt lat="43.3276006" lon="11.5620878"><ele>216.5</ele><time>2026-04-25T10:22:01.076Z</time></trkpt><trkpt lat="43.3276534" lon="11.5622837"><ele>217.25</ele><time>2026-04-25T10:22:02.076Z</time></trkpt><trkpt lat="43.3277004" lon="11.5624574"><ele>218.0</ele><time>2026-04-25T10:22:03.076Z</time></trkpt><trkpt lat="43.327732" lon="11.5626062"><ele>218.0</ele><time>2026-04-25T10:22:04.076Z</time></trkpt><trkpt lat="43.3277625" lon="11.5627189"><ele>218.0</ele><time>2026-04-25T10:22:05.076Z</time></trkpt><trkpt lat="43.3277706" lon="11.5628414"><ele>218.0</ele><time>2026-04-25T10:22:06.075Z</time></trkpt><trkpt lat="43.3277474" lon="11.5629597"><ele>218.0</ele><time>2026-04-25T10:22:07.076Z</time></trkpt><trkpt lat="43.327676" lon="11.5630804"><ele>218.0</ele><time>2026-04-25T10:22:08.076Z</time></trkpt><trkpt lat="43.3275723" lon="11.5631781"><ele>218.25</ele><time>2026-04-25T10:22:09.076Z</time></trkpt><trkpt lat="43.3274443" lon="11.5632495"><ele>218.5</ele><time>2026-04-25T10:22:10.075Z</time></trkpt><trkpt lat="43.3272997" lon="11.5633018"><ele>218.75</ele><time>2026-04-25T10:22:11.076Z</time></trkpt><trkpt lat="43.3271536" lon="11.5633443"><ele>219.0</ele><time>2026-04-25T10:22:12.076Z</time></trkpt><trkpt lat="43.3270028" lon="11.5633804"><ele>219.0</ele><time>2026-04-25T10:22:13.076Z</time></trkpt><trkpt lat="43.3268496" lon="11.563425"><ele>219.0</ele><time>2026-04-25T10:22:14.075Z</time></trkpt><trkpt lat="43.3266975" lon="11.5634729"><ele>219.0</ele><time>2026-04-25T10:22:15.076Z</time></trkpt><trkpt lat="43.3265484" lon="11.5635193"><ele>219.0</ele><time>2026-04-25T10:22:16.075Z</time></trkpt><trkpt lat="43.3264037" lon="11.5635582"><ele>219.0</ele><time>2026-04-25T10:22:17.075Z</time></trkpt><trkpt lat="43.3262615" lon="11.5635979"><ele>219.0</ele><time>2026-04-25T10:22:18.076Z</time></trkpt><trkpt lat="43.3261251" lon="11.5636428"><ele>219.0</ele><time>2026-04-25T10:22:19.076Z</time></trkpt><trkpt lat="43.3260036" lon="11.5636958"><ele>220.5</ele><time>2026-04-25T10:22:20.075Z</time></trkpt><trkpt lat="43.3258803" lon="11.5637747"><ele>222.0</ele><time>2026-04-25T10:22:21.076Z</time></trkpt><trkpt lat="43.3257773" lon="11.5638966"><ele>223.5</ele><time>2026-04-25T10:22:22.076Z</time></trkpt><trkpt lat="43.3256762" lon="11.564035"><ele>225.0</ele><time>2026-04-25T10:22:23.075Z</time></trkpt><trkpt lat="43.3255784" lon="11.5641878"><ele>224.25</ele><time>2026-04-25T10:22:24.076Z</time></trkpt><trkpt lat="43.3254864" lon="11.5643475"><ele>223.5</ele><time>2026-04-25T10:22:25.076Z</time></trkpt><trkpt lat="43.3253955" lon="11.564506"><ele>222.75</ele><time>2026-04-25T10:22:26.075Z</time></trkpt><trkpt lat="43.3253145" lon="11.5646733"><ele>222.0</ele><time>2026-04-25T10:22:27.076Z</time></trkpt><trkpt lat="43.3252494" lon="11.5648519"><ele>222.0</ele><time>2026-04-25T10:22:28.076Z</time></trkpt><trkpt lat="43.3252047" lon="11.5650456"><ele>222.0</ele><time>2026-04-25T10:22:29.076Z</time></trkpt><trkpt lat="43.3251783" lon="11.565248"><ele>222.0</ele><time>2026-04-25T10:22:30.075Z</time></trkpt><trkpt lat="43.3251627" lon="11.5654563"><ele>222.66666666666669</ele><time>2026-04-25T10:22:31.075Z</time></trkpt><trkpt lat="43.3251533" lon="11.565674"><ele>223.33333333333334</ele><time>2026-04-25T10:22:32.075Z</time></trkpt><trkpt lat="43.3251404" lon="11.56589"><ele>224.0</ele><time>2026-04-25T10:22:33.076Z</time></trkpt><trkpt lat="43.3251221" lon="11.5661086"><ele>223.66666666666669</ele><time>2026-04-25T10:22:34.075Z</time></trkpt><trkpt lat="43.3250907" lon="11.5663282"><ele>223.33333333333331</ele><time>2026-04-25T10:22:35.076Z</time></trkpt><trkpt lat="43.3250471" lon="11.5665412"><ele>223.0</ele><time>2026-04-25T10:22:36.076Z</time></trkpt><trkpt lat="43.3249872" lon="11.5667449"><ele>223.0</ele><time>2026-04-25T10:22:37.076Z</time></trkpt><trkpt lat="43.324919" lon="11.5669427"><ele>223.0</ele><time>2026-04-25T10:22:38.075Z</time></trkpt><trkpt lat="43.3248467" lon="11.5671361"><ele>223.0</ele><time>2026-04-25T10:22:39.076Z</time></trkpt><trkpt lat="43.3247754" lon="11.5673408"><ele>220.0</ele><time>2026-04-25T10:22:40.076Z</time></trkpt><trkpt lat="43.3247166" lon="11.5675434"><ele>217.0</ele><time>2026-04-25T10:22:41.076Z</time></trkpt><trkpt lat="43.3246583" lon="11.5677363"><ele>214.0</ele><time>2026-04-25T10:22:42.076Z</time></trkpt><trkpt lat="43.3246003" lon="11.5679216"><ele>213.0</ele><time>2026-04-25T10:22:43.076Z</time></trkpt><trkpt lat="43.3245207" lon="11.5680899"><ele>212.0</ele><time>2026-04-25T10:22:44.076Z</time></trkpt><trkpt lat="43.3244095" lon="11.5682489"><ele>211.0</ele><time>2026-04-25T10:22:45.075Z</time></trkpt><trkpt lat="43.3242804" lon="11.5683766"><ele>211.0</ele><time>2026-04-25T10:22:46.076Z</time></trkpt><trkpt lat="43.3241352" lon="11.5684864"><ele>211.0</ele><time>2026-04-25T10:22:47.076Z</time></trkpt><trkpt lat="43.3239955" lon="11.5686065"><ele>211.0</ele><time>2026-04-25T10:22:48.076Z</time></trkpt><trkpt lat="43.3238492" lon="11.5687298"><ele>211.0</ele><time>2026-04-25T10:22:49.076Z</time></trkpt><trkpt lat="43.3237039" lon="11.5688479"><ele>211.0</ele><time>2026-04-25T10:22:50.076Z</time></trkpt><trkpt lat="43.3235626" lon="11.5689685"><ele>211.0</ele><time>2026-04-25T10:22:51.076Z</time></trkpt><trkpt lat="43.3234195" lon="11.5690792"><ele>211.0</ele><time>2026-04-25T10:22:52.076Z</time></trkpt><trkpt lat="43.3232707" lon="11.569166"><ele>211.0</ele><time>2026-04-25T10:22:53.075Z</time></trkpt><trkpt lat="43.3231117" lon="11.5692163"><ele>211.0</ele><time>2026-04-25T10:22:54.076Z</time></trkpt><trkpt lat="43.3229487" lon="11.5692414"><ele>209.66666666666666</ele><time>2026-04-25T10:22:55.076Z</time></trkpt><trkpt lat="43.3227863" lon="11.5692797"><ele>208.33333333333331</ele><time>2026-04-25T10:22:56.076Z</time></trkpt><trkpt lat="43.3226154" lon="11.5693172"><ele>207.0</ele><time>2026-04-25T10:22:57.076Z</time></trkpt><trkpt lat="43.3224389" lon="11.5693605"><ele>207.0</ele><time>2026-04-25T10:22:58.076Z</time></trkpt><trkpt lat="43.3222625" lon="11.5694018"><ele>207.0</ele><time>2026-04-25T10:22:59.076Z</time></trkpt><trkpt lat="43.322092" lon="11.5694301"><ele>207.0</ele><time>2026-04-25T10:23:00.076Z</time></trkpt><trkpt lat="43.321921" lon="11.5694676"><ele>206.66666666666669</ele><time>2026-04-25T10:23:01.076Z</time></trkpt><trkpt lat="43.3217633" lon="11.5695024"><ele>206.33333333333334</ele><time>2026-04-25T10:23:02.076Z</time></trkpt><trkpt lat="43.3216112" lon="11.5695343"><ele>206.0</ele><time>2026-04-25T10:23:03.076Z</time></trkpt><trkpt lat="43.3214658" lon="11.5695778"><ele>206.0</ele><time>2026-04-25T10:23:04.075Z</time></trkpt><trkpt lat="43.3213315" lon="11.5696552"><ele>206.0</ele><time>2026-04-25T10:23:05.076Z</time></trkpt><trkpt lat="43.3212089" lon="11.5697863"><ele>206.0</ele><time>2026-04-25T10:23:06.076Z</time></trkpt><trkpt lat="43.3210901" lon="11.569943"><ele>206.0</ele><time>2026-04-25T10:23:07.076Z</time></trkpt><trkpt lat="43.3209682" lon="11.5701025"><ele>206.0</ele><time>2026-04-25T10:23:08.076Z</time></trkpt><trkpt lat="43.3208452" lon="11.570263"><ele>206.0</ele><time>2026-04-25T10:23:09.076Z</time></trkpt><trkpt lat="43.3207211" lon="11.5704132"><ele>206.0</ele><time>2026-04-25T10:23:10.076Z</time></trkpt><trkpt lat="43.3205957" lon="11.5705661"><ele>206.0</ele><time>2026-04-25T10:23:11.076Z</time></trkpt><trkpt lat="43.3204726" lon="11.5707246"><ele>206.0</ele><time>2026-04-25T10:23:12.075Z</time></trkpt><trkpt lat="43.320352" lon="11.5708938"><ele>206.0</ele><time>2026-04-25T10:23:13.076Z</time></trkpt><trkpt lat="43.3202255" lon="11.571059"><ele>206.0</ele><time>2026-04-25T10:23:14.076Z</time></trkpt><trkpt lat="43.3200959" lon="11.5712255"><ele>206.0</ele><time>2026-04-25T10:23:15.076Z</time></trkpt><trkpt lat="43.3199701" lon="11.5713891"><ele>206.66666666666669</ele><time>2026-04-25T10:23:16.076Z</time></trkpt><trkpt lat="43.3198434" lon="11.5715597"><ele>207.33333333333331</ele><time>2026-04-25T10:23:17.075Z</time></trkpt><trkpt lat="43.3197199" lon="11.5717275"><ele>208.0</ele><time>2026-04-25T10:23:18.075Z</time></trkpt><trkpt lat="43.3196" lon="11.5718862"><ele>207.0</ele><time>2026-04-25T10:23:19.076Z</time></trkpt><trkpt lat="43.3194821" lon="11.5720319"><ele>206.0</ele><time>2026-04-25T10:23:20.075Z</time></trkpt><trkpt lat="43.3193571" lon="11.5721672"><ele>205.0</ele><time>2026-04-25T10:23:21.076Z</time></trkpt><trkpt lat="43.3192265" lon="11.5722888"><ele>205.0</ele><time>2026-04-25T10:23:22.075Z</time></trkpt><trkpt lat="43.3190866" lon="11.5723839"><ele>205.0</ele><time>2026-04-25T10:23:23.075Z</time></trkpt><trkpt lat="43.3189304" lon="11.5724527"><ele>205.0</ele><time>2026-04-25T10:23:24.075Z</time></trkpt><trkpt lat="43.3187677" lon="11.572519"><ele>205.66666666666666</ele><time>2026-04-25T10:23:25.075Z</time></trkpt><trkpt lat="43.3186111" lon="11.5725821"><ele>206.33333333333331</ele><time>2026-04-25T10:23:26.076Z</time></trkpt><trkpt lat="43.3184679" lon="11.5726696"><ele>207.0</ele><time>2026-04-25T10:23:27.076Z</time></trkpt><trkpt lat="43.3183404" lon="11.5727845"><ele>207.66666666666669</ele><time>2026-04-25T10:23:28.076Z</time></trkpt><trkpt lat="43.3182169" lon="11.5729418"><ele>208.33333333333334</ele><time>2026-04-25T10:23:29.076Z</time></trkpt><trkpt lat="43.3180988" lon="11.5731015"><ele>209.0</ele><time>2026-04-25T10:23:30.075Z</time></trkpt><trkpt lat="43.3179778" lon="11.5732615"><ele>209.0</ele><time>2026-04-25T10:23:31.075Z</time></trkpt><trkpt lat="43.3178583" lon="11.5734165"><ele>209.0</ele><time>2026-04-25T10:23:32.076Z</time></trkpt><trkpt lat="43.317736" lon="11.5735681"><ele>209.0</ele><time>2026-04-25T10:23:33.076Z</time></trkpt><trkpt lat="43.3176164" lon="11.5737232"><ele>212.0</ele><time>2026-04-25T10:23:34.076Z</time></trkpt><trkpt lat="43.3174992" lon="11.5738723"><ele>215.0</ele><time>2026-04-25T10:23:35.076Z</time></trkpt><trkpt lat="43.3173845" lon="11.5740203"><ele>218.0</ele><time>2026-04-25T10:23:36.076Z</time></trkpt><trkpt lat="43.3172754" lon="11.5741592"><ele>217.5</ele><time>2026-04-25T10:23:37.075Z</time></trkpt><trkpt lat="43.3171668" lon="11.5742916"><ele>217.0</ele><time>2026-04-25T10:23:38.076Z</time></trkpt><trkpt lat="43.3170552" lon="11.5744263"><ele>216.5</ele><time>2026-04-25T10:23:39.075Z</time></trkpt><trkpt lat="43.3169409" lon="11.5745644"><ele>216.0</ele><time>2026-04-25T10:23:40.076Z</time></trkpt><trkpt lat="43.3168244" lon="11.5747083"><ele>216.0</ele><time>2026-04-25T10:23:41.076Z</time></trkpt><trkpt lat="43.3167038" lon="11.5748577"><ele>216.0</ele><time>2026-04-25T10:23:42.076Z</time></trkpt><trkpt lat="43.3165867" lon="11.5750057"><ele>216.0</ele><time>2026-04-25T10:23:43.076Z</time></trkpt><trkpt lat="43.3164728" lon="11.5751515"><ele>212.33333333333331</ele><time>2026-04-25T10:23:44.075Z</time></trkpt><trkpt lat="43.3163594" lon="11.5752909"><ele>208.66666666666666</ele><time>2026-04-25T10:23:45.076Z</time></trkpt><trkpt lat="43.3162468" lon="11.5754326"><ele>205.0</ele><time>2026-04-25T10:23:46.076Z</time></trkpt><trkpt lat="43.316138" lon="11.5755708"><ele>204.5</ele><time>2026-04-25T10:23:47.075Z</time></trkpt><trkpt lat="43.3160262" lon="11.5757083"><ele>204.0</ele><time>2026-04-25T10:23:48.075Z</time></trkpt><trkpt lat="43.3159153" lon="11.5758358"><ele>203.5</ele><time>2026-04-25T10:23:49.075Z</time></trkpt><trkpt lat="43.3158029" lon="11.5759578"><ele>203.0</ele><time>2026-04-25T10:23:50.076Z</time></trkpt><trkpt lat="43.3156942" lon="11.5760731"><ele>202.75</ele><time>2026-04-25T10:23:51.075Z</time></trkpt><trkpt lat="43.315587" lon="11.5761905"><ele>202.5</ele><time>2026-04-25T10:23:52.075Z</time></trkpt><trkpt lat="43.3154806" lon="11.5763081"><ele>202.25</ele><time>2026-04-25T10:23:53.076Z</time></trkpt><trkpt lat="43.3153818" lon="11.5764249"><ele>202.0</ele><time>2026-04-25T10:23:54.076Z</time></trkpt><trkpt lat="43.3152996" lon="11.576551"><ele>202.0</ele><time>2026-04-25T10:23:55.075Z</time></trkpt><trkpt lat="43.3152162" lon="11.5766698"><ele>202.0</ele><time>2026-04-25T10:23:56.075Z</time></trkpt><trkpt lat="43.3151336" lon="11.5767875"><ele>202.0</ele><time>2026-04-25T10:23:57.076Z</time></trkpt><trkpt lat="43.3150578" lon="11.5769182"><ele>202.0</ele><time>2026-04-25T10:23:58.076Z</time></trkpt><trkpt lat="43.3149894" lon="11.577063"><ele>202.0</ele><time>2026-04-25T10:23:59.076Z</time></trkpt><trkpt lat="43.3149271" lon="11.5772194"><ele>202.0</ele><time>2026-04-25T10:24:00.076Z</time></trkpt><trkpt lat="43.3148643" lon="11.5773784"><ele>202.0</ele><time>2026-04-25T10:24:01.075Z</time></trkpt><trkpt lat="43.3148005" lon="11.5775327"><ele>202.0</ele><time>2026-04-25T10:24:02.076Z</time></trkpt><trkpt lat="43.3147381" lon="11.5776809"><ele>201.75</ele><time>2026-04-25T10:24:03.076Z</time></trkpt><trkpt lat="43.3146796" lon="11.577825"><ele>201.5</ele><time>2026-04-25T10:24:04.076Z</time></trkpt><trkpt lat="43.3146336" lon="11.577971"><ele>201.25</ele><time>2026-04-25T10:24:05.075Z</time></trkpt><trkpt lat="43.3145919" lon="11.5781161"><ele>201.0</ele><time>2026-04-25T10:24:06.076Z</time></trkpt><trkpt lat="43.3145506" lon="11.5782571"><ele>201.0</ele><time>2026-04-25T10:24:07.076Z</time></trkpt><trkpt lat="43.3145073" lon="11.5783927"><ele>201.0</ele><time>2026-04-25T10:24:08.075Z</time></trkpt><trkpt lat="43.3144636" lon="11.5785225"><ele>201.0</ele><time>2026-04-25T10:24:09.076Z</time></trkpt><trkpt lat="43.3144228" lon="11.5786502"><ele>201.0</ele><time>2026-04-25T10:24:10.076Z</time></trkpt><trkpt lat="43.3143841" lon="11.5787796"><ele>201.0</ele><time>2026-04-25T10:24:11.076Z</time></trkpt><trkpt lat="43.3143413" lon="11.5789172"><ele>200.75</ele><time>2026-04-25T10:24:12.076Z</time></trkpt><trkpt lat="43.3142931" lon="11.5790542"><ele>200.5</ele><time>2026-04-25T10:24:13.076Z</time></trkpt><trkpt lat="43.314229" lon="11.5791809"><ele>200.25</ele><time>2026-04-25T10:24:14.076Z</time></trkpt><trkpt lat="43.3141564" lon="11.5792969"><ele>200.0</ele><time>2026-04-25T10:24:15.076Z</time></trkpt><trkpt lat="43.3140708" lon="11.579409"><ele>200.0</ele><time>2026-04-25T10:24:16.076Z</time></trkpt><trkpt lat="43.3139731" lon="11.5795011"><ele>200.0</ele><time>2026-04-25T10:24:17.075Z</time></trkpt><trkpt lat="43.3138652" lon="11.5795654"><ele>200.0</ele><time>2026-04-25T10:24:18.076Z</time></trkpt><trkpt lat="43.3137508" lon="11.5796095"><ele>200.0</ele><time>2026-04-25T10:24:19.076Z</time></trkpt><trkpt lat="43.3136271" lon="11.5796494"><ele>201.25</ele><time>2026-04-25T10:24:20.075Z</time></trkpt><trkpt lat="43.313503" lon="11.5796908"><ele>202.5</ele><time>2026-04-25T10:24:21.076Z</time></trkpt><trkpt lat="43.3133784" lon="11.5797344"><ele>203.75</ele><time>2026-04-25T10:24:22.075Z</time></trkpt><trkpt lat="43.3132584" lon="11.5797829"><ele>205.0</ele><time>2026-04-25T10:24:23.076Z</time></trkpt><trkpt lat="43.3131368" lon="11.5798537"><ele>206.0</ele><time>2026-04-25T10:24:24.076Z</time></trkpt><trkpt lat="43.3130186" lon="11.5799333"><ele>207.0</ele><time>2026-04-25T10:24:25.076Z</time></trkpt><trkpt lat="43.3129057" lon="11.5800333"><ele>208.0</ele><time>2026-04-25T10:24:26.076Z</time></trkpt><trkpt lat="43.3127977" lon="11.5801435"><ele>209.0</ele><time>2026-04-25T10:24:27.075Z</time></trkpt><trkpt lat="43.3126928" lon="11.5802529"><ele>210.5</ele><time>2026-04-25T10:24:28.076Z</time></trkpt><trkpt lat="43.3125904" lon="11.5803635"><ele>212.0</ele><time>2026-04-25T10:24:29.076Z</time></trkpt><trkpt lat="43.312492" lon="11.5804747"><ele>213.5</ele><time>2026-04-25T10:24:30.075Z</time></trkpt><trkpt lat="43.3123973" lon="11.5805806"><ele>215.0</ele><time>2026-04-25T10:24:31.076Z</time></trkpt><trkpt lat="43.3123154" lon="11.5806808"><ele>215.0</ele><time>2026-04-25T10:24:32.076Z</time></trkpt><trkpt lat="43.3122402" lon="11.5807486"><ele>215.0</ele><time>2026-04-25T10:24:33.076Z</time></trkpt><trkpt lat="43.3121595" lon="11.5807982"><ele>215.0</ele><time>2026-04-25T10:24:34.076Z</time></trkpt><trkpt lat="43.3120676" lon="11.5808177"><ele>215.0</ele><time>2026-04-25T10:24:35.075Z</time></trkpt><trkpt lat="43.3119736" lon="11.5808063"><ele>215.0</ele><time>2026-04-25T10:24:36.075Z</time></trkpt><trkpt lat="43.311888" lon="11.5807622"><ele>214.83333333333334</ele><time>2026-04-25T10:24:37.075Z</time></trkpt><trkpt lat="43.3118117" lon="11.5806903"><ele>214.66666666666669</ele><time>2026-04-25T10:24:38.076Z</time></trkpt><trkpt lat="43.3117435" lon="11.5806062"><ele>214.5</ele><time>2026-04-25T10:24:39.076Z</time></trkpt><trkpt lat="43.3116819" lon="11.580518"><ele>214.33333333333331</ele><time>2026-04-25T10:24:40.076Z</time></trkpt><trkpt lat="43.3116227" lon="11.5804331"><ele>214.16666666666666</ele><time>2026-04-25T10:24:41.076Z</time></trkpt><trkpt lat="43.3115574" lon="11.5803581"><ele>214.0</ele><time>2026-04-25T10:24:42.075Z</time></trkpt><trkpt lat="43.3114739" lon="11.5803126"><ele>213.0</ele><time>2026-04-25T10:24:43.075Z</time></trkpt><trkpt lat="43.3113706" lon="11.5802902"><ele>211.99999999999997</ele><time>2026-04-25T10:24:44.076Z</time></trkpt><trkpt lat="43.3112625" lon="11.5802983"><ele>211.0</ele><time>2026-04-25T10:24:45.075Z</time></trkpt><trkpt lat="43.3111515" lon="11.5803293"><ele>210.0</ele><time>2026-04-25T10:24:46.076Z</time></trkpt><trkpt lat="43.3110412" lon="11.580381"><ele>209.0</ele><time>2026-04-25T10:24:47.075Z</time></trkpt><trkpt lat="43.3109499" lon="11.5804816"><ele>209.0</ele><time>2026-04-25T10:24:48.075Z</time></trkpt><trkpt lat="43.3108978" lon="11.5806487"><ele>209.0</ele><time>2026-04-25T10:24:49.076Z</time></trkpt><trkpt lat="43.3108491" lon="11.5808214"><ele>209.0</ele><time>2026-04-25T10:24:50.076Z</time></trkpt><trkpt lat="43.3107964" lon="11.580998"><ele>209.0</ele><time>2026-04-25T10:24:51.076Z</time></trkpt><trkpt lat="43.3107424" lon="11.5811901"><ele>209.25</ele><time>2026-04-25T10:24:52.076Z</time></trkpt><trkpt lat="43.3106857" lon="11.5813788"><ele>209.5</ele><time>2026-04-25T10:24:53.076Z</time></trkpt><trkpt lat="43.3106256" lon="11.5815643"><ele>209.75</ele><time>2026-04-25T10:24:54.076Z</time></trkpt><trkpt lat="43.3105638" lon="11.5817487"><ele>210.0</ele><time>2026-04-25T10:24:55.076Z</time></trkpt><trkpt lat="43.3104996" lon="11.581939"><ele>211.66666666666669</ele><time>2026-04-25T10:24:56.076Z</time></trkpt><trkpt lat="43.3104403" lon="11.5821284"><ele>213.33333333333334</ele><time>2026-04-25T10:24:57.076Z</time></trkpt><trkpt lat="43.3103734" lon="11.5823215"><ele>215.0</ele><time>2026-04-25T10:24:58.075Z</time></trkpt><trkpt lat="43.3103037" lon="11.582522"><ele>215.0</ele><time>2026-04-25T10:24:59.076Z</time></trkpt><trkpt lat="43.3102356" lon="11.5827219"><ele>215.0</ele><time>2026-04-25T10:25:00.076Z</time></trkpt><trkpt lat="43.3101691" lon="11.5829261"><ele>215.0</ele><time>2026-04-25T10:25:01.076Z</time></trkpt><trkpt lat="43.310102" lon="11.5831236"><ele>216.33333333333334</ele><time>2026-04-25T10:25:02.076Z</time></trkpt><trkpt lat="43.3100405" lon="11.5833241"><ele>217.66666666666669</ele><time>2026-04-25T10:25:03.075Z</time></trkpt><trkpt lat="43.3099906" lon="11.5835282"><ele>219.0</ele><time>2026-04-25T10:25:04.076Z</time></trkpt><trkpt lat="43.3099404" lon="11.5837279"><ele>220.66666666666669</ele><time>2026-04-25T10:25:05.076Z</time></trkpt><trkpt lat="43.3098793" lon="11.5839276"><ele>222.33333333333334</ele><time>2026-04-25T10:25:06.076Z</time></trkpt><trkpt lat="43.3098095" lon="11.5841182"><ele>224.0</ele><time>2026-04-25T10:25:07.075Z</time></trkpt><trkpt lat="43.309742" lon="11.5843074"><ele>223.33333333333334</ele><time>2026-04-25T10:25:08.076Z</time></trkpt><trkpt lat="43.3096737" lon="11.584501"><ele>222.66666666666669</ele><time>2026-04-25T10:25:09.075Z</time></trkpt><trkpt lat="43.3096032" lon="11.5846927"><ele>222.0</ele><time>2026-04-25T10:25:10.076Z</time></trkpt><trkpt lat="43.3095264" lon="11.584885"><ele>222.0</ele><time>2026-04-25T10:25:11.075Z</time></trkpt><trkpt lat="43.3094347" lon="11.5850639"><ele>222.0</ele><time>2026-04-25T10:25:12.076Z</time></trkpt><trkpt lat="43.3093281" lon="11.5852188"><ele>222.0</ele><time>2026-04-25T10:25:13.075Z</time></trkpt><trkpt lat="43.3092154" lon="11.5853725"><ele>221.0</ele><time>2026-04-25T10:25:14.075Z</time></trkpt><trkpt lat="43.3090946" lon="11.5855243"><ele>220.0</ele><time>2026-04-25T10:25:15.075Z</time></trkpt><trkpt lat="43.3089699" lon="11.5856744"><ele>219.0</ele><time>2026-04-25T10:25:16.076Z</time></trkpt><trkpt lat="43.3088507" lon="11.5858347"><ele>218.0</ele><time>2026-04-25T10:25:17.076Z</time></trkpt><trkpt lat="43.3087279" lon="11.5859849"><ele>217.0</ele><time>2026-04-25T10:25:18.076Z</time></trkpt><trkpt lat="43.308609" lon="11.5861377"><ele>216.0</ele><time>2026-04-25T10:25:19.076Z</time></trkpt><trkpt lat="43.3084861" lon="11.5862952"><ele>215.66666666666669</ele><time>2026-04-25T10:25:20.076Z</time></trkpt><trkpt lat="43.3083662" lon="11.5864511"><ele>215.33333333333334</ele><time>2026-04-25T10:25:21.074Z</time></trkpt><trkpt lat="43.3082452" lon="11.5866115"><ele>215.0</ele><time>2026-04-25T10:25:22.075Z</time></trkpt><trkpt lat="43.3081285" lon="11.5867712"><ele>215.0</ele><time>2026-04-25T10:25:23.075Z</time></trkpt><trkpt lat="43.3080156" lon="11.586925"><ele>215.0</ele><time>2026-04-25T10:25:24.075Z</time></trkpt><trkpt lat="43.3079111" lon="11.5870702"><ele>215.0</ele><time>2026-04-25T10:25:25.075Z</time></trkpt><trkpt lat="43.307812" lon="11.5872035"><ele>215.0</ele><time>2026-04-25T10:25:26.074Z</time></trkpt><trkpt lat="43.3077084" lon="11.587308"><ele>215.0</ele><time>2026-04-25T10:25:27.075Z</time></trkpt><trkpt lat="43.3075908" lon="11.587376"><ele>215.0</ele><time>2026-04-25T10:25:28.075Z</time></trkpt><trkpt lat="43.3074565" lon="11.5874002"><ele>215.0</ele><time>2026-04-25T10:25:29.075Z</time></trkpt><trkpt lat="43.3073223" lon="11.5873912"><ele>215.0</ele><time>2026-04-25T10:25:30.075Z</time></trkpt><trkpt lat="43.3071933" lon="11.58732"><ele>215.5</ele><time>2026-04-25T10:25:31.074Z</time></trkpt><trkpt lat="43.3070717" lon="11.5872246"><ele>216.0</ele><time>2026-04-25T10:25:32.075Z</time></trkpt><trkpt lat="43.3069507" lon="11.5871263"><ele>216.5</ele><time>2026-04-25T10:25:33.075Z</time></trkpt><trkpt lat="43.3068296" lon="11.5870391"><ele>217.0</ele><time>2026-04-25T10:25:34.075Z</time></trkpt><trkpt lat="43.3066935" lon="11.5869772"><ele>215.0</ele><time>2026-04-25T10:25:35.075Z</time></trkpt><trkpt lat="43.3065462" lon="11.5869388"><ele>213.0</ele><time>2026-04-25T10:25:36.074Z</time></trkpt><trkpt lat="43.3063967" lon="11.5869205"><ele>211.0</ele><time>2026-04-25T10:25:37.075Z</time></trkpt><trkpt lat="43.3062439" lon="11.5869287"><ele>210.33333333333331</ele><time>2026-04-25T10:25:38.075Z</time></trkpt><trkpt lat="43.3061031" lon="11.5869632"><ele>209.66666666666669</ele><time>2026-04-25T10:25:39.074Z</time></trkpt><trkpt lat="43.3059603" lon="11.5870224"><ele>209.0</ele><time>2026-04-25T10:25:40.074Z</time></trkpt><trkpt lat="43.305819" lon="11.5871213"><ele>209.0</ele><time>2026-04-25T10:25:41.074Z</time></trkpt><trkpt lat="43.3056856" lon="11.5872573"><ele>209.0</ele><time>2026-04-25T10:25:42.075Z</time></trkpt><trkpt lat="43.3055631" lon="11.587418"><ele>209.0</ele><time>2026-04-25T10:25:43.075Z</time></trkpt><trkpt lat="43.3054463" lon="11.5875721"><ele>209.0</ele><time>2026-04-25T10:25:44.074Z</time></trkpt><trkpt lat="43.3053263" lon="11.587703"><ele>209.0</ele><time>2026-04-25T10:25:45.075Z</time></trkpt><trkpt lat="43.3051967" lon="11.5877892"><ele>209.0</ele><time>2026-04-25T10:25:46.075Z</time></trkpt><trkpt lat="43.3050387" lon="11.5878409"><ele>210.33333333333334</ele><time>2026-04-25T10:25:47.074Z</time></trkpt><trkpt lat="43.3048757" lon="11.587866"><ele>211.66666666666669</ele><time>2026-04-25T10:25:48.074Z</time></trkpt><trkpt lat="43.3047086" lon="11.5878873"><ele>213.0</ele><time>2026-04-25T10:25:49.075Z</time></trkpt><trkpt lat="43.3045393" lon="11.5879083"><ele>213.0</ele><time>2026-04-25T10:25:50.075Z</time></trkpt><trkpt lat="43.3043687" lon="11.5879307"><ele>213.0</ele><time>2026-04-25T10:25:51.075Z</time></trkpt><trkpt lat="43.3041923" lon="11.5879502"><ele>213.0</ele><time>2026-04-25T10:25:52.075Z</time></trkpt><trkpt lat="43.304016" lon="11.5879719"><ele>214.33333333333331</ele><time>2026-04-25T10:25:53.074Z</time></trkpt><trkpt lat="43.3038334" lon="11.587982"><ele>215.66666666666666</ele><time>2026-04-25T10:25:54.075Z</time></trkpt><trkpt lat="43.3036589" lon="11.5879667"><ele>217.0</ele><time>2026-04-25T10:25:55.075Z</time></trkpt><trkpt lat="43.3034951" lon="11.5879303"><ele>217.0</ele><time>2026-04-25T10:25:56.075Z</time></trkpt><trkpt lat="43.3033324" lon="11.587902"><ele>217.0</ele><time>2026-04-25T10:25:57.075Z</time></trkpt><trkpt lat="43.3031717" lon="11.5879189"><ele>217.0</ele><time>2026-04-25T10:25:58.075Z</time></trkpt><trkpt lat="43.3030135" lon="11.5879743"><ele>217.33333333333331</ele><time>2026-04-25T10:25:59.075Z</time></trkpt><trkpt lat="43.3028638" lon="11.5880731"><ele>217.66666666666669</ele><time>2026-04-25T10:26:00.075Z</time></trkpt><trkpt lat="43.3027279" lon="11.5882008"><ele>218.0</ele><time>2026-04-25T10:26:01.075Z</time></trkpt><trkpt lat="43.3025939" lon="11.5883409"><ele>218.0</ele><time>2026-04-25T10:26:02.074Z</time></trkpt><trkpt lat="43.3024592" lon="11.5884812"><ele>218.0</ele><time>2026-04-25T10:26:03.075Z</time></trkpt><trkpt lat="43.30233" lon="11.5886148"><ele>218.0</ele><time>2026-04-25T10:26:04.075Z</time></trkpt><trkpt lat="43.3022151" lon="11.5887684"><ele>217.33333333333334</ele><time>2026-04-25T10:26:05.074Z</time></trkpt><trkpt lat="43.3021269" lon="11.5889604"><ele>216.66666666666669</ele><time>2026-04-25T10:26:06.075Z</time></trkpt><trkpt lat="43.3020743" lon="11.5891777"><ele>216.0</ele><time>2026-04-25T10:26:07.075Z</time></trkpt><trkpt lat="43.3020432" lon="11.589411"><ele>217.0</ele><time>2026-04-25T10:26:08.075Z</time></trkpt><trkpt lat="43.3020349" lon="11.589653"><ele>218.0</ele><time>2026-04-25T10:26:09.075Z</time></trkpt><trkpt lat="43.3020587" lon="11.5898892"><ele>219.0</ele><time>2026-04-25T10:26:10.075Z</time></trkpt><trkpt lat="43.3021038" lon="11.5901259"><ele>218.66666666666669</ele><time>2026-04-25T10:26:11.075Z</time></trkpt><trkpt lat="43.3021702" lon="11.5903483"><ele>218.33333333333334</ele><time>2026-04-25T10:26:12.075Z</time></trkpt><trkpt lat="43.3022577" lon="11.5905669"><ele>218.0</ele><time>2026-04-25T10:26:13.075Z</time></trkpt><trkpt lat="43.3023624" lon="11.5907685"><ele>221.33333333333334</ele><time>2026-04-25T10:26:14.075Z</time></trkpt><trkpt lat="43.3024686" lon="11.5909632"><ele>224.66666666666669</ele><time>2026-04-25T10:26:15.075Z</time></trkpt><trkpt lat="43.3025759" lon="11.5911563"><ele>228.0</ele><time>2026-04-25T10:26:16.075Z</time></trkpt><trkpt lat="43.3026664" lon="11.59136"><ele>228.0</ele><time>2026-04-25T10:26:17.075Z</time></trkpt><trkpt lat="43.3027329" lon="11.5915776"><ele>228.0</ele><time>2026-04-25T10:26:18.075Z</time></trkpt><trkpt lat="43.302778" lon="11.5918067"><ele>228.0</ele><time>2026-04-25T10:26:19.075Z</time></trkpt><trkpt lat="43.3027872" lon="11.592046"><ele>229.0</ele><time>2026-04-25T10:26:20.075Z</time></trkpt><trkpt lat="43.3027867" lon="11.5922908"><ele>230.0</ele><time>2026-04-25T10:26:21.074Z</time></trkpt><trkpt lat="43.3027772" lon="11.5925216"><ele>231.0</ele><time>2026-04-25T10:26:22.075Z</time></trkpt><trkpt lat="43.3027687" lon="11.592742"><ele>231.66666666666669</ele><time>2026-04-25T10:26:23.075Z</time></trkpt><trkpt lat="43.302788" lon="11.592948"><ele>232.33333333333334</ele><time>2026-04-25T10:26:24.075Z</time></trkpt><trkpt lat="43.3028562" lon="11.5931338"><ele>233.0</ele><time>2026-04-25T10:26:25.075Z</time></trkpt><trkpt lat="43.3029576" lon="11.5933051"><ele>233.0</ele><time>2026-04-25T10:26:26.075Z</time></trkpt><trkpt lat="43.303059" lon="11.5934821"><ele>233.0</ele><time>2026-04-25T10:26:27.075Z</time></trkpt><trkpt lat="43.3031368" lon="11.5936531"><ele>233.0</ele><time>2026-04-25T10:26:28.075Z</time></trkpt><trkpt lat="43.3031907" lon="11.5938494"><ele>236.33333333333334</ele><time>2026-04-25T10:26:29.075Z</time></trkpt><trkpt lat="43.3032191" lon="11.5940649"><ele>239.66666666666669</ele><time>2026-04-25T10:26:30.075Z</time></trkpt><trkpt lat="43.3032494" lon="11.5942832"><ele>243.0</ele><time>2026-04-25T10:26:31.074Z</time></trkpt><trkpt lat="43.303262" lon="11.594503"><ele>244.0</ele><time>2026-04-25T10:26:32.075Z</time></trkpt><trkpt lat="43.3032811" lon="11.5947137"><ele>245.0</ele><time>2026-04-25T10:26:33.075Z</time></trkpt><trkpt lat="43.3032954" lon="11.5949087"><ele>246.0</ele><time>2026-04-25T10:26:34.075Z</time></trkpt><trkpt lat="43.3032836" lon="11.5951101"><ele>247.0</ele><time>2026-04-25T10:26:35.075Z</time></trkpt><trkpt lat="43.3032489" lon="11.5953024"><ele>247.33333333333331</ele><time>2026-04-25T10:26:36.075Z</time></trkpt><trkpt lat="43.3031922" lon="11.5954948"><ele>247.66666666666669</ele><time>2026-04-25T10:26:37.075Z</time></trkpt><trkpt lat="43.3031278" lon="11.5956828"><ele>248.0</ele><time>2026-04-25T10:26:38.075Z</time></trkpt><trkpt lat="43.3030498" lon="11.5958634"><ele>248.0</ele><time>2026-04-25T10:26:39.075Z</time></trkpt><trkpt lat="43.302949" lon="11.5960331"><ele>248.0</ele><time>2026-04-25T10:26:40.075Z</time></trkpt><trkpt lat="43.3028439" lon="11.5961941"><ele>248.0</ele><time>2026-04-25T10:26:41.075Z</time></trkpt><trkpt lat="43.3027455" lon="11.5963587"><ele>249.66666666666669</ele><time>2026-04-25T10:26:42.074Z</time></trkpt><trkpt lat="43.3026504" lon="11.5965304"><ele>251.33333333333331</ele><time>2026-04-25T10:26:43.074Z</time></trkpt><trkpt lat="43.3025477" lon="11.5966941"><ele>253.0</ele><time>2026-04-25T10:26:44.075Z</time></trkpt><trkpt lat="43.3024432" lon="11.5968421"><ele>253.0</ele><time>2026-04-25T10:26:45.074Z</time></trkpt><trkpt lat="43.3023348" lon="11.5969697"><ele>253.0</ele><time>2026-04-25T10:26:46.075Z</time></trkpt><trkpt lat="43.3022229" lon="11.5970763"><ele>253.0</ele><time>2026-04-25T10:26:47.074Z</time></trkpt><trkpt lat="43.3020947" lon="11.5971514"><ele>253.0</ele><time>2026-04-25T10:26:48.075Z</time></trkpt><trkpt lat="43.3019554" lon="11.5971922"><ele>255.25</ele><time>2026-04-25T10:26:49.074Z</time></trkpt><trkpt lat="43.3018111" lon="11.5972175"><ele>257.5</ele><time>2026-04-25T10:26:50.075Z</time></trkpt><trkpt lat="43.3016633" lon="11.5972431"><ele>259.75</ele><time>2026-04-25T10:26:51.075Z</time></trkpt><trkpt lat="43.3015157" lon="11.5972722"><ele>262.0</ele><time>2026-04-25T10:26:52.075Z</time></trkpt><trkpt lat="43.3013645" lon="11.597297"><ele>264.3333333333333</ele><time>2026-04-25T10:26:53.075Z</time></trkpt><trkpt lat="43.3012129" lon="11.5973225"><ele>266.6666666666667</ele><time>2026-04-25T10:26:54.075Z</time></trkpt><trkpt lat="43.3010605" lon="11.5973441"><ele>269.0</ele><time>2026-04-25T10:26:55.075Z</time></trkpt><trkpt lat="43.3009023" lon="11.5973697"><ele>269.0</ele><time>2026-04-25T10:26:56.075Z</time></trkpt><trkpt lat="43.3007475" lon="11.5973844"><ele>269.0</ele><time>2026-04-25T10:26:57.074Z</time></trkpt><trkpt lat="43.3005904" lon="11.5973843"><ele>269.0</ele><time>2026-04-25T10:26:58.075Z</time></trkpt><trkpt lat="43.3004478" lon="11.5973845"><ele>269.25</ele><time>2026-04-25T10:26:59.075Z</time></trkpt><trkpt lat="43.3003177" lon="11.5974021"><ele>269.5</ele><time>2026-04-25T10:27:00.075Z</time></trkpt><trkpt lat="43.3002005" lon="11.5974397"><ele>269.75</ele><time>2026-04-25T10:27:01.074Z</time></trkpt><trkpt lat="43.3000914" lon="11.5974915"><ele>270.0</ele><time>2026-04-25T10:27:02.075Z</time></trkpt><trkpt lat="43.2999867" lon="11.5975539"><ele>270.0</ele><time>2026-04-25T10:27:03.074Z</time></trkpt><trkpt lat="43.2998789" lon="11.5976382"><ele>270.0</ele><time>2026-04-25T10:27:04.075Z</time></trkpt><trkpt lat="43.2997834" lon="11.5977409"><ele>270.0</ele><time>2026-04-25T10:27:05.075Z</time></trkpt><trkpt lat="43.2996968" lon="11.5978509"><ele>270.0</ele><time>2026-04-25T10:27:06.075Z</time></trkpt><trkpt lat="43.2996239" lon="11.5979784"><ele>271.6</ele><time>2026-04-25T10:27:07.075Z</time></trkpt><trkpt lat="43.2995532" lon="11.5980905"><ele>273.2</ele><time>2026-04-25T10:27:08.075Z</time></trkpt><trkpt lat="43.2994696" lon="11.5981708"><ele>274.8</ele><time>2026-04-25T10:27:09.075Z</time></trkpt><trkpt lat="43.299373" lon="11.598212"><ele>276.4</ele><time>2026-04-25T10:27:10.075Z</time></trkpt><trkpt lat="43.2992723" lon="11.5982346"><ele>278.0</ele><time>2026-04-25T10:27:11.075Z</time></trkpt><trkpt lat="43.2991655" lon="11.5982217"><ele>278.0</ele><time>2026-04-25T10:27:12.075Z</time></trkpt><trkpt lat="43.2990566" lon="11.5981675"><ele>278.0</ele><time>2026-04-25T10:27:13.075Z</time></trkpt><trkpt lat="43.2989567" lon="11.5980729"><ele>278.0</ele><time>2026-04-25T10:27:14.075Z</time></trkpt><trkpt lat="43.2988649" lon="11.5979517"><ele>278.0</ele><time>2026-04-25T10:27:15.075Z</time></trkpt><trkpt lat="43.2987757" lon="11.597805"><ele>278.25</ele><time>2026-04-25T10:27:16.074Z</time></trkpt><trkpt lat="43.2986816" lon="11.5976711"><ele>278.5</ele><time>2026-04-25T10:27:17.075Z</time></trkpt><trkpt lat="43.2985732" lon="11.5975609"><ele>278.75</ele><time>2026-04-25T10:27:18.075Z</time></trkpt><trkpt lat="43.2984442" lon="11.597469"><ele>279.0</ele><time>2026-04-25T10:27:19.075Z</time></trkpt><trkpt lat="43.2983043" lon="11.5973964"><ele>279.0</ele><time>2026-04-25T10:27:20.074Z</time></trkpt><trkpt lat="43.2981565" lon="11.5973366"><ele>279.0</ele><time>2026-04-25T10:27:21.075Z</time></trkpt><trkpt lat="43.2980021" lon="11.597309"><ele>279.0</ele><time>2026-04-25T10:27:22.075Z</time></trkpt><trkpt lat="43.297844" lon="11.5973125"><ele>281.3333333333333</ele><time>2026-04-25T10:27:23.074Z</time></trkpt><trkpt lat="43.2976876" lon="11.597347"><ele>283.66666666666663</ele><time>2026-04-25T10:27:24.075Z</time></trkpt><trkpt lat="43.2975406" lon="11.5973977"><ele>286.0</ele><time>2026-04-25T10:27:25.075Z</time></trkpt><trkpt lat="43.2973994" lon="11.5974713"><ele>286.0</ele><time>2026-04-25T10:27:26.075Z</time></trkpt><trkpt lat="43.2972742" lon="11.5975534"><ele>286.0</ele><time>2026-04-25T10:27:27.075Z</time></trkpt><trkpt lat="43.2971653" lon="11.5976496"><ele>286.0</ele><time>2026-04-25T10:27:28.074Z</time></trkpt><trkpt lat="43.297057" lon="11.5977674"><ele>286.0</ele><time>2026-04-25T10:27:29.075Z</time></trkpt><trkpt lat="43.2969527" lon="11.5979055"><ele>287.0</ele><time>2026-04-25T10:27:30.075Z</time></trkpt><trkpt lat="43.2968467" lon="11.5980455"><ele>288.0</ele><time>2026-04-25T10:27:31.075Z</time></trkpt><trkpt lat="43.2967463" lon="11.5981942"><ele>289.0</ele><time>2026-04-25T10:27:32.075Z</time></trkpt><trkpt lat="43.2966404" lon="11.5983469"><ele>290.0</ele><time>2026-04-25T10:27:33.075Z</time></trkpt><trkpt lat="43.2965387" lon="11.5984992"><ele>290.0</ele><time>2026-04-25T10:27:34.075Z</time></trkpt><trkpt lat="43.2964368" lon="11.5986556"><ele>290.0</ele><time>2026-04-25T10:27:35.075Z</time></trkpt><trkpt lat="43.2963308" lon="11.5988093"><ele>290.0</ele><time>2026-04-25T10:27:36.075Z</time></trkpt><trkpt lat="43.2962263" lon="11.5989608"><ele>290.75</ele><time>2026-04-25T10:27:37.075Z</time></trkpt><trkpt lat="43.2961212" lon="11.59911"><ele>291.5</ele><time>2026-04-25T10:27:38.074Z</time></trkpt><trkpt lat="43.2960175" lon="11.5992583"><ele>292.25</ele><time>2026-04-25T10:27:39.074Z</time></trkpt><trkpt lat="43.2959182" lon="11.5994068"><ele>293.0</ele><time>2026-04-25T10:27:40.075Z</time></trkpt><trkpt lat="43.2958251" lon="11.5995451"><ele>293.75</ele><time>2026-04-25T10:27:41.075Z</time></trkpt><trkpt lat="43.295733" lon="11.599683"><ele>294.5</ele><time>2026-04-25T10:27:42.075Z</time></trkpt><trkpt lat="43.2956418" lon="11.5998136"><ele>295.25</ele><time>2026-04-25T10:27:43.075Z</time></trkpt><trkpt lat="43.2955566" lon="11.5999429"><ele>296.0</ele><time>2026-04-25T10:27:44.074Z</time></trkpt><trkpt lat="43.2954741" lon="11.6000656"><ele>296.25</ele><time>2026-04-25T10:27:45.075Z</time></trkpt><trkpt lat="43.2953855" lon="11.6001875"><ele>296.5</ele><time>2026-04-25T10:27:46.075Z</time></trkpt><trkpt lat="43.2953044" lon="11.6003105"><ele>296.75</ele><time>2026-04-25T10:27:47.075Z</time></trkpt><trkpt lat="43.2952227" lon="11.6004277"><ele>297.0</ele><time>2026-04-25T10:27:48.075Z</time></trkpt><trkpt lat="43.2951344" lon="11.6005478"><ele>297.0</ele><time>2026-04-25T10:27:49.075Z</time></trkpt><trkpt lat="43.2950506" lon="11.6006691"><ele>297.0</ele><time>2026-04-25T10:27:50.075Z</time></trkpt><trkpt lat="43.2949677" lon="11.6007947"><ele>297.0</ele><time>2026-04-25T10:27:51.075Z</time></trkpt><trkpt lat="43.2948817" lon="11.6009097"><ele>297.0</ele><time>2026-04-25T10:27:52.075Z</time></trkpt><trkpt lat="43.294802" lon="11.6010309"><ele>297.75</ele><time>2026-04-25T10:27:53.074Z</time></trkpt><trkpt lat="43.2947256" lon="11.6011535"><ele>298.5</ele><time>2026-04-25T10:27:54.075Z</time></trkpt><trkpt lat="43.2946502" lon="11.6012673"><ele>299.25</ele><time>2026-04-25T10:27:55.074Z</time></trkpt><trkpt lat="43.2945745" lon="11.6013846"><ele>300.0</ele><time>2026-04-25T10:27:56.075Z</time></trkpt><trkpt lat="43.2945016" lon="11.6014962"><ele>300.2</ele><time>2026-04-25T10:27:57.075Z</time></trkpt><trkpt lat="43.2944403" lon="11.6015954"><ele>300.4</ele><time>2026-04-25T10:27:58.075Z</time></trkpt><trkpt lat="43.2943755" lon="11.6016945"><ele>300.6</ele><time>2026-04-25T10:27:59.075Z</time></trkpt><trkpt lat="43.2943159" lon="11.6017943"><ele>300.8</ele><time>2026-04-25T10:28:00.074Z</time></trkpt><trkpt lat="43.2942572" lon="11.6018923"><ele>301.0</ele><time>2026-04-25T10:28:01.075Z</time></trkpt><trkpt lat="43.2942032" lon="11.601996"><ele>301.2</ele><time>2026-04-25T10:28:02.075Z</time></trkpt><trkpt lat="43.2941482" lon="11.6021083"><ele>301.40000000000003</ele><time>2026-04-25T10:28:03.074Z</time></trkpt><trkpt lat="43.2940983" lon="11.6022164"><ele>301.6</ele><time>2026-04-25T10:28:04.075Z</time></trkpt><trkpt lat="43.2940463" lon="11.6023336"><ele>301.8</ele><time>2026-04-25T10:28:05.075Z</time></trkpt><trkpt lat="43.2939982" lon="11.6024582"><ele>302.0</ele><time>2026-04-25T10:28:06.074Z</time></trkpt><trkpt lat="43.2939432" lon="11.6025849"><ele>301.8</ele><time>2026-04-25T10:28:07.074Z</time></trkpt><trkpt lat="43.2938876" lon="11.6027085"><ele>301.6</ele><time>2026-04-25T10:28:08.075Z</time></trkpt><trkpt lat="43.2938292" lon="11.602838"><ele>301.40000000000003</ele><time>2026-04-25T10:28:09.075Z</time></trkpt><trkpt lat="43.2937753" lon="11.602974"><ele>301.2</ele><time>2026-04-25T10:28:10.075Z</time></trkpt><trkpt lat="43.2937172" lon="11.6031044"><ele>301.0</ele><time>2026-04-25T10:28:11.074Z</time></trkpt><trkpt lat="43.293663" lon="11.6032239"><ele>301.3333333333333</ele><time>2026-04-25T10:28:12.074Z</time></trkpt><trkpt lat="43.2936047" lon="11.6033359"><ele>301.66666666666663</ele><time>2026-04-25T10:28:13.075Z</time></trkpt><trkpt lat="43.2935459" lon="11.6034369"><ele>302.0</ele><time>2026-04-25T10:28:14.075Z</time></trkpt><trkpt lat="43.2934852" lon="11.6035192"><ele>302.3333333333333</ele><time>2026-04-25T10:28:15.075Z</time></trkpt><trkpt lat="43.2934195" lon="11.6035818"><ele>302.6666666666667</ele><time>2026-04-25T10:28:16.075Z</time></trkpt><trkpt lat="43.2933661" lon="11.6036292"><ele>303.0</ele><time>2026-04-25T10:28:17.074Z</time></trkpt><trkpt lat="43.2932669" lon="11.6036879"><ele>303.0</ele><time>2026-04-25T10:28:19.075Z</time></trkpt><trkpt lat="43.2931682" lon="11.6037273"><ele>303.0</ele><time>2026-04-25T10:28:21.074Z</time></trkpt><trkpt lat="43.2930477" lon="11.6037569"><ele>303.0</ele><time>2026-04-25T10:28:23.075Z</time></trkpt><trkpt lat="43.2929341" lon="11.6038096"><ele>303.0</ele><time>2026-04-25T10:28:25.075Z</time></trkpt><trkpt lat="43.2928341" lon="11.6038541"><ele>303.6</ele><time>2026-04-25T10:28:27.075Z</time></trkpt><trkpt lat="43.292728" lon="11.6038894"><ele>304.20000000000005</ele><time>2026-04-25T10:28:29.075Z</time></trkpt><trkpt lat="43.2926024" lon="11.6039406"><ele>304.8</ele><time>2026-04-25T10:28:31.075Z</time></trkpt><trkpt lat="43.2924844" lon="11.6039932"><ele>305.40000000000003</ele><time>2026-04-25T10:28:33.074Z</time></trkpt><trkpt lat="43.2924176" lon="11.6040232"><ele>306.0</ele><time>2026-04-25T10:28:34.075Z</time></trkpt><trkpt lat="43.2923566" lon="11.6040488"><ele>306.0</ele><time>2026-04-25T10:28:35.074Z</time></trkpt><trkpt lat="43.2922458" lon="11.604086"><ele>306.0</ele><time>2026-04-25T10:28:37.075Z</time></trkpt><trkpt lat="43.292137" lon="11.6041321"><ele>306.0</ele><time>2026-04-25T10:28:39.075Z</time></trkpt><trkpt lat="43.2920216" lon="11.6041683"><ele>306.0</ele><time>2026-04-25T10:28:41.075Z</time></trkpt><trkpt lat="43.2919489" lon="11.6041994"><ele>306.0</ele><time>2026-04-25T10:28:42.075Z</time></trkpt><trkpt lat="43.2918765" lon="11.6042293"><ele>306.0</ele><time>2026-04-25T10:28:43.075Z</time></trkpt><trkpt lat="43.2918134" lon="11.6042582"><ele>306.0</ele><time>2026-04-25T10:28:44.075Z</time></trkpt><trkpt lat="43.2917452" lon="11.6042861"><ele>306.0</ele><time>2026-04-25T10:28:45.075Z</time></trkpt><trkpt lat="43.2916821" lon="11.6043111"><ele>306.0</ele><time>2026-04-25T10:28:46.074Z</time></trkpt><trkpt lat="43.2916184" lon="11.6043359"><ele>306.0</ele><time>2026-04-25T10:28:47.075Z</time></trkpt><trkpt lat="43.291546" lon="11.6043611"><ele>306.0</ele><time>2026-04-25T10:28:48.075Z</time></trkpt><trkpt lat="43.2914595" lon="11.6043885"><ele>306.0</ele><time>2026-04-25T10:28:49.074Z</time></trkpt><trkpt lat="43.2913773" lon="11.6044232"><ele>306.0</ele><time>2026-04-25T10:28:50.075Z</time></trkpt><trkpt lat="43.2912988" lon="11.6044546"><ele>306.0</ele><time>2026-04-25T10:28:51.075Z</time></trkpt><trkpt lat="43.2912109" lon="11.6044969"><ele>306.0</ele><time>2026-04-25T10:28:52.075Z</time></trkpt><trkpt lat="43.2911088" lon="11.6045275"><ele>306.0</ele><time>2026-04-25T10:28:53.074Z</time></trkpt><trkpt lat="43.2910095" lon="11.6045584"><ele>306.0</ele><time>2026-04-25T10:28:54.075Z</time></trkpt><trkpt lat="43.2909107" lon="11.6045958"><ele>306.0</ele><time>2026-04-25T10:28:55.075Z</time></trkpt><trkpt lat="43.2908068" lon="11.6046317"><ele>306.0</ele><time>2026-04-25T10:28:56.075Z</time></trkpt><trkpt lat="43.2907079" lon="11.6046759"><ele>306.0</ele><time>2026-04-25T10:28:57.075Z</time></trkpt><trkpt lat="43.2906028" lon="11.6047159"><ele>306.0</ele><time>2026-04-25T10:28:58.074Z</time></trkpt><trkpt lat="43.2904984" lon="11.6047617"><ele>306.0</ele><time>2026-04-25T10:28:59.075Z</time></trkpt><trkpt lat="43.2903937" lon="11.6047951"><ele>307.6</ele><time>2026-04-25T10:29:00.075Z</time></trkpt><trkpt lat="43.2902779" lon="11.604831"><ele>309.20000000000005</ele><time>2026-04-25T10:29:01.075Z</time></trkpt><trkpt lat="43.2901697" lon="11.6048562"><ele>310.79999999999995</ele><time>2026-04-25T10:29:02.075Z</time></trkpt><trkpt lat="43.2900696" lon="11.6048704"><ele>312.4</ele><time>2026-04-25T10:29:03.075Z</time></trkpt><trkpt lat="43.2899783" lon="11.6048719"><ele>314.0</ele><time>2026-04-25T10:29:04.074Z</time></trkpt><trkpt lat="43.2898929" lon="11.604874"><ele>314.0</ele><time>2026-04-25T10:29:05.075Z</time></trkpt><trkpt lat="43.2898165" lon="11.604839"><ele>314.0</ele><time>2026-04-25T10:29:06.074Z</time></trkpt><trkpt lat="43.2897595" lon="11.6047675"><ele>314.0</ele><time>2026-04-25T10:29:07.075Z</time></trkpt><trkpt lat="43.2896867" lon="11.6047299"><ele>314.0</ele><time>2026-04-25T10:29:08.075Z</time></trkpt><trkpt lat="43.2896055" lon="11.6047376"><ele>314.0</ele><time>2026-04-25T10:29:09.075Z</time></trkpt><trkpt lat="43.2895048" lon="11.6047547"><ele>314.0</ele><time>2026-04-25T10:29:10.075Z</time></trkpt><trkpt lat="43.2893993" lon="11.6047383"><ele>315.75</ele><time>2026-04-25T10:29:11.074Z</time></trkpt><trkpt lat="43.2892815" lon="11.6047129"><ele>317.5</ele><time>2026-04-25T10:29:12.075Z</time></trkpt><trkpt lat="43.2891619" lon="11.604686"><ele>319.25</ele><time>2026-04-25T10:29:13.075Z</time></trkpt><trkpt lat="43.2890301" lon="11.6046623"><ele>321.0</ele><time>2026-04-25T10:29:14.075Z</time></trkpt><trkpt lat="43.2889023" lon="11.6046422"><ele>321.25</ele><time>2026-04-25T10:29:15.074Z</time></trkpt><trkpt lat="43.288773" lon="11.6046206"><ele>321.5</ele><time>2026-04-25T10:29:16.075Z</time></trkpt><trkpt lat="43.288639" lon="11.6045962"><ele>321.75</ele><time>2026-04-25T10:29:17.075Z</time></trkpt><trkpt lat="43.2885084" lon="11.6045744"><ele>322.0</ele><time>2026-04-25T10:29:18.075Z</time></trkpt><trkpt lat="43.288372" lon="11.6045481"><ele>322.0</ele><time>2026-04-25T10:29:19.075Z</time></trkpt><trkpt lat="43.2882391" lon="11.6045208"><ele>322.0</ele><time>2026-04-25T10:29:20.075Z</time></trkpt><trkpt lat="43.288102" lon="11.604502"><ele>322.0</ele><time>2026-04-25T10:29:21.075Z</time></trkpt><trkpt lat="43.2879661" lon="11.604488"><ele>322.0</ele><time>2026-04-25T10:29:22.075Z</time></trkpt><trkpt lat="43.2878328" lon="11.6044832"><ele>322.6</ele><time>2026-04-25T10:29:23.075Z</time></trkpt><trkpt lat="43.287707" lon="11.6044969"><ele>323.20000000000005</ele><time>2026-04-25T10:29:24.075Z</time></trkpt><trkpt lat="43.2875947" lon="11.6045069"><ele>323.8</ele><time>2026-04-25T10:29:25.075Z</time></trkpt><trkpt lat="43.2874939" lon="11.60451"><ele>324.4</ele><time>2026-04-25T10:29:26.074Z</time></trkpt><trkpt lat="43.2873959" lon="11.6045166"><ele>325.0</ele><time>2026-04-25T10:29:27.075Z</time></trkpt><trkpt lat="43.287307" lon="11.6045099"><ele>325.0</ele><time>2026-04-25T10:29:28.075Z</time></trkpt><trkpt lat="43.287223" lon="11.6044937"><ele>325.0</ele><time>2026-04-25T10:29:29.075Z</time></trkpt><trkpt lat="43.2871559" lon="11.6044706"><ele>325.0</ele><time>2026-04-25T10:29:30.075Z</time></trkpt><trkpt lat="43.2870904" lon="11.6044578"><ele>325.0</ele><time>2026-04-25T10:29:32.075Z</time></trkpt><trkpt lat="43.2870211" lon="11.6044436"><ele>325.0</ele><time>2026-04-25T10:29:36.075Z</time></trkpt><trkpt lat="43.2869405" lon="11.6044234"><ele>325.0</ele><time>2026-04-25T10:29:40.075Z</time></trkpt><trkpt lat="43.2868721" lon="11.6044083"><ele>325.0</ele><time>2026-04-25T10:29:42.075Z</time></trkpt><trkpt lat="43.2867754" lon="11.6043817"><ele>325.0</ele><time>2026-04-25T10:29:44.075Z</time></trkpt><trkpt lat="43.2866675" lon="11.6043576"><ele>325.0</ele><time>2026-04-25T10:29:46.075Z</time></trkpt><trkpt lat="43.2865603" lon="11.6043339"><ele>325.0</ele><time>2026-04-25T10:29:48.075Z</time></trkpt><trkpt lat="43.2864973" lon="11.6043128"><ele>325.0</ele><time>2026-04-25T10:29:50.075Z</time></trkpt><trkpt lat="43.2864027" lon="11.6043352"><ele>325.0</ele><time>2026-04-25T10:29:53.074Z</time></trkpt><trkpt lat="43.2863317" lon="11.6043323"><ele>322.8</ele><time>2026-04-25T10:29:55.074Z</time></trkpt><trkpt lat="43.286247" lon="11.6043606"><ele>320.6</ele><time>2026-04-25T10:29:57.075Z</time></trkpt><trkpt lat="43.2861539" lon="11.6043919"><ele>318.4</ele><time>2026-04-25T10:29:59.074Z</time></trkpt><trkpt lat="43.2860555" lon="11.6044204"><ele>316.2</ele><time>2026-04-25T10:30:01.075Z</time></trkpt><trkpt lat="43.2859498" lon="11.6044496"><ele>314.0</ele><time>2026-04-25T10:30:03.075Z</time></trkpt><trkpt lat="43.2858441" lon="11.6044825"><ele>314.2</ele><time>2026-04-25T10:30:05.075Z</time></trkpt><trkpt lat="43.2857281" lon="11.6045154"><ele>314.4</ele><time>2026-04-25T10:30:07.075Z</time></trkpt><trkpt lat="43.2856344" lon="11.6045396"><ele>314.6</ele><time>2026-04-25T10:30:09.075Z</time></trkpt><trkpt lat="43.285548" lon="11.604576"><ele>314.8</ele><time>2026-04-25T10:30:11.074Z</time></trkpt><trkpt lat="43.2854485" lon="11.6046031"><ele>315.0</ele><time>2026-04-25T10:30:13.075Z</time></trkpt><trkpt lat="43.2853538" lon="11.6046265"><ele>314.6666666666667</ele><time>2026-04-25T10:30:15.075Z</time></trkpt><trkpt lat="43.2852651" lon="11.6046659"><ele>314.3333333333333</ele><time>2026-04-25T10:30:17.075Z</time></trkpt><trkpt lat="43.2851882" lon="11.6046903"><ele>314.0</ele><time>2026-04-25T10:30:19.075Z</time></trkpt><trkpt lat="43.2851142" lon="11.604699"><ele>313.66666666666663</ele><time>2026-04-25T10:30:21.075Z</time></trkpt><trkpt lat="43.2850513" lon="11.6047231"><ele>313.3333333333333</ele><time>2026-04-25T10:30:23.075Z</time></trkpt><trkpt lat="43.2849697" lon="11.604743"><ele>313.0</ele><time>2026-04-25T10:30:26.074Z</time></trkpt><trkpt lat="43.2848763" lon="11.6047889"><ele>313.0</ele><time>2026-04-25T10:30:29.075Z</time></trkpt><trkpt lat="43.284785" lon="11.6048172"><ele>313.0</ele><time>2026-04-25T10:30:31.074Z</time></trkpt><trkpt lat="43.2847193" lon="11.6048373"><ele>313.0</ele><time>2026-04-25T10:30:32.075Z</time></trkpt><trkpt lat="43.2846439" lon="11.6048609"><ele>313.0</ele><time>2026-04-25T10:30:33.075Z</time></trkpt><trkpt lat="43.2845607" lon="11.604885"><ele>313.0</ele><time>2026-04-25T10:30:34.075Z</time></trkpt><trkpt lat="43.2844735" lon="11.6049067"><ele>313.0</ele><time>2026-04-25T10:30:35.075Z</time></trkpt><trkpt lat="43.2843891" lon="11.604939"><ele>313.4</ele><time>2026-04-25T10:30:36.074Z</time></trkpt><trkpt lat="43.2843017" lon="11.6049699"><ele>313.8</ele><time>2026-04-25T10:30:37.075Z</time></trkpt><trkpt lat="43.2842078" lon="11.6049986"><ele>314.2</ele><time>2026-04-25T10:30:38.075Z</time></trkpt><trkpt lat="43.2841018" lon="11.605028"><ele>314.6</ele><time>2026-04-25T10:30:39.075Z</time></trkpt><trkpt lat="43.2839937" lon="11.605063"><ele>315.0</ele><time>2026-04-25T10:30:40.075Z</time></trkpt><trkpt lat="43.2838868" lon="11.6050938"><ele>315.2</ele><time>2026-04-25T10:30:41.075Z</time></trkpt><trkpt lat="43.2837802" lon="11.6051226"><ele>315.4</ele><time>2026-04-25T10:30:42.075Z</time></trkpt><trkpt lat="43.2836808" lon="11.6051488"><ele>315.6</ele><time>2026-04-25T10:30:43.074Z</time></trkpt><trkpt lat="43.2835804" lon="11.6051926"><ele>315.8</ele><time>2026-04-25T10:30:44.075Z</time></trkpt><trkpt lat="43.2834698" lon="11.6052262"><ele>316.0</ele><time>2026-04-25T10:30:45.074Z</time></trkpt><trkpt lat="43.2833664" lon="11.605245"><ele>316.0</ele><time>2026-04-25T10:30:46.075Z</time></trkpt><trkpt lat="43.283253" lon="11.6052538"><ele>316.0</ele><time>2026-04-25T10:30:47.075Z</time></trkpt><trkpt lat="43.283132" lon="11.6052306"><ele>316.0</ele><time>2026-04-25T10:30:48.074Z</time></trkpt><trkpt lat="43.2830208" lon="11.6051834"><ele>316.0</ele><time>2026-04-25T10:30:49.075Z</time></trkpt><trkpt lat="43.2829155" lon="11.6051391"><ele>316.25</ele><time>2026-04-25T10:30:50.074Z</time></trkpt><trkpt lat="43.2828094" lon="11.6051147"><ele>316.5</ele><time>2026-04-25T10:30:51.074Z</time></trkpt><trkpt lat="43.2826948" lon="11.6051336"><ele>316.75</ele><time>2026-04-25T10:30:52.075Z</time></trkpt><trkpt lat="43.2825734" lon="11.6051784"><ele>317.0</ele><time>2026-04-25T10:30:53.075Z</time></trkpt><trkpt lat="43.2824532" lon="11.605247"><ele>317.25</ele><time>2026-04-25T10:30:54.075Z</time></trkpt><trkpt lat="43.2823356" lon="11.6053329"><ele>317.5</ele><time>2026-04-25T10:30:55.075Z</time></trkpt><trkpt lat="43.2822177" lon="11.6054399"><ele>317.75</ele><time>2026-04-25T10:30:56.075Z</time></trkpt><trkpt lat="43.2820917" lon="11.6055282"><ele>318.0</ele><time>2026-04-25T10:30:57.075Z</time></trkpt><trkpt lat="43.2819536" lon="11.6056058"><ele>318.0</ele><time>2026-04-25T10:30:58.075Z</time></trkpt><trkpt lat="43.2818135" lon="11.6056683"><ele>318.0</ele><time>2026-04-25T10:30:59.075Z</time></trkpt><trkpt lat="43.2816723" lon="11.6057161"><ele>318.0</ele><time>2026-04-25T10:31:00.075Z</time></trkpt><trkpt lat="43.2815211" lon="11.6057537"><ele>318.0</ele><time>2026-04-25T10:31:01.075Z</time></trkpt><trkpt lat="43.2813607" lon="11.6057953"><ele>316.6666666666667</ele><time>2026-04-25T10:31:02.074Z</time></trkpt><trkpt lat="43.2811948" lon="11.6058373"><ele>315.33333333333337</ele><time>2026-04-25T10:31:03.075Z</time></trkpt><trkpt lat="43.2810354" lon="11.6058838"><ele>314.0</ele><time>2026-04-25T10:31:04.075Z</time></trkpt><trkpt lat="43.2808717" lon="11.6059308"><ele>314.0</ele><time>2026-04-25T10:31:05.075Z</time></trkpt><trkpt lat="43.2807006" lon="11.6059735"><ele>314.0</ele><time>2026-04-25T10:31:06.075Z</time></trkpt><trkpt lat="43.2805206" lon="11.6059921"><ele>314.0</ele><time>2026-04-25T10:31:07.075Z</time></trkpt><trkpt lat="43.2803416" lon="11.6059839"><ele>314.0</ele><time>2026-04-25T10:31:08.074Z</time></trkpt><trkpt lat="43.2801584" lon="11.6059668"><ele>314.0</ele><time>2026-04-25T10:31:09.075Z</time></trkpt><trkpt lat="43.2799824" lon="11.6059485"><ele>314.0</ele><time>2026-04-25T10:31:10.075Z</time></trkpt><trkpt lat="43.2798179" lon="11.6059335"><ele>314.5</ele><time>2026-04-25T10:31:11.075Z</time></trkpt><trkpt lat="43.2796656" lon="11.6059094"><ele>315.0</ele><time>2026-04-25T10:31:12.075Z</time></trkpt><trkpt lat="43.2795276" lon="11.6058965"><ele>315.5</ele><time>2026-04-25T10:31:13.075Z</time></trkpt><trkpt lat="43.2794005" lon="11.6059037"><ele>316.0</ele><time>2026-04-25T10:31:14.075Z</time></trkpt><trkpt lat="43.2792792" lon="11.6059673"><ele>316.0</ele><time>2026-04-25T10:31:15.075Z</time></trkpt><trkpt lat="43.2791746" lon="11.6060854"><ele>316.0</ele><time>2026-04-25T10:31:16.074Z</time></trkpt><trkpt lat="43.2790941" lon="11.6062388"><ele>316.0</ele><time>2026-04-25T10:31:17.074Z</time></trkpt><trkpt lat="43.2790105" lon="11.6064108"><ele>316.0</ele><time>2026-04-25T10:31:18.075Z</time></trkpt><trkpt lat="43.2789062" lon="11.6065568"><ele>314.66666666666663</ele><time>2026-04-25T10:31:19.075Z</time></trkpt><trkpt lat="43.2787756" lon="11.6066936"><ele>313.3333333333333</ele><time>2026-04-25T10:31:20.075Z</time></trkpt><trkpt lat="43.2786332" lon="11.6068154"><ele>312.0</ele><time>2026-04-25T10:31:21.075Z</time></trkpt><trkpt lat="43.2784951" lon="11.6069381"><ele>312.3333333333333</ele><time>2026-04-25T10:31:22.075Z</time></trkpt><trkpt lat="43.2783502" lon="11.6070734"><ele>312.66666666666663</ele><time>2026-04-25T10:31:23.074Z</time></trkpt><trkpt lat="43.2782187" lon="11.6072225"><ele>313.0</ele><time>2026-04-25T10:31:24.075Z</time></trkpt><trkpt lat="43.2780903" lon="11.6073488"><ele>313.0</ele><time>2026-04-25T10:31:25.075Z</time></trkpt><trkpt lat="43.2779601" lon="11.6074565"><ele>313.0</ele><time>2026-04-25T10:31:26.075Z</time></trkpt><trkpt lat="43.2778221" lon="11.607527"><ele>313.0</ele><time>2026-04-25T10:31:27.075Z</time></trkpt><trkpt lat="43.2776723" lon="11.6075367"><ele>313.0</ele><time>2026-04-25T10:31:28.075Z</time></trkpt><trkpt lat="43.2775139" lon="11.6075002"><ele>313.0</ele><time>2026-04-25T10:31:29.075Z</time></trkpt><trkpt lat="43.2773757" lon="11.6073955"><ele>313.0</ele><time>2026-04-25T10:31:30.075Z</time></trkpt><trkpt lat="43.2772492" lon="11.6072385"><ele>313.0</ele><time>2026-04-25T10:31:31.075Z</time></trkpt><trkpt lat="43.2771297" lon="11.6070647"><ele>310.66666666666663</ele><time>2026-04-25T10:31:32.075Z</time></trkpt><trkpt lat="43.2769973" lon="11.6068998"><ele>308.3333333333333</ele><time>2026-04-25T10:31:33.075Z</time></trkpt><trkpt lat="43.2768671" lon="11.6067333"><ele>306.0</ele><time>2026-04-25T10:31:34.075Z</time></trkpt><trkpt lat="43.276735" lon="11.606563"><ele>306.0</ele><time>2026-04-25T10:31:35.075Z</time></trkpt><trkpt lat="43.2766068" lon="11.6063884"><ele>306.0</ele><time>2026-04-25T10:31:36.075Z</time></trkpt><trkpt lat="43.2764898" lon="11.6061868"><ele>306.0</ele><time>2026-04-25T10:31:37.075Z</time></trkpt><trkpt lat="43.2764132" lon="11.6059637"><ele>303.6666666666667</ele><time>2026-04-25T10:31:38.074Z</time></trkpt><trkpt lat="43.2763601" lon="11.6057336"><ele>301.33333333333337</ele><time>2026-04-25T10:31:39.075Z</time></trkpt><trkpt lat="43.2763103" lon="11.6055099"><ele>299.0</ele><time>2026-04-25T10:31:40.075Z</time></trkpt><trkpt lat="43.2762609" lon="11.6052945"><ele>297.25</ele><time>2026-04-25T10:31:41.075Z</time></trkpt><trkpt lat="43.2762212" lon="11.6050857"><ele>295.5</ele><time>2026-04-25T10:31:42.075Z</time></trkpt><trkpt lat="43.2761776" lon="11.6048918"><ele>293.75</ele><time>2026-04-25T10:31:43.074Z</time></trkpt><trkpt lat="43.2761019" lon="11.6047315"><ele>292.0</ele><time>2026-04-25T10:31:44.075Z</time></trkpt><trkpt lat="43.2759983" lon="11.604604"><ele>292.0</ele><time>2026-04-25T10:31:45.075Z</time></trkpt><trkpt lat="43.2758635" lon="11.6045311"><ele>292.0</ele><time>2026-04-25T10:31:46.075Z</time></trkpt><trkpt lat="43.2757049" lon="11.6045315"><ele>292.0</ele><time>2026-04-25T10:31:47.075Z</time></trkpt><trkpt lat="43.2755423" lon="11.6045567"><ele>292.0</ele><time>2026-04-25T10:31:48.075Z</time></trkpt><trkpt lat="43.2753742" lon="11.6045998"><ele>292.0</ele><time>2026-04-25T10:31:49.075Z</time></trkpt><trkpt lat="43.2751977" lon="11.6046397"><ele>292.0</ele><time>2026-04-25T10:31:50.074Z</time></trkpt><trkpt lat="43.2750137" lon="11.6046718"><ele>292.0</ele><time>2026-04-25T10:31:51.075Z</time></trkpt><trkpt lat="43.2748249" lon="11.6047157"><ele>292.0</ele><time>2026-04-25T10:31:52.075Z</time></trkpt><trkpt lat="43.2746327" lon="11.604759"><ele>292.0</ele><time>2026-04-25T10:31:53.075Z</time></trkpt><trkpt lat="43.2744329" lon="11.6047988"><ele>291.66666666666663</ele><time>2026-04-25T10:31:54.075Z</time></trkpt><trkpt lat="43.2742326" lon="11.6048402"><ele>291.3333333333333</ele><time>2026-04-25T10:31:55.075Z</time></trkpt><trkpt lat="43.2740285" lon="11.604878"><ele>291.0</ele><time>2026-04-25T10:31:56.075Z</time></trkpt><trkpt lat="43.273821" lon="11.6049169"><ele>291.6666666666667</ele><time>2026-04-25T10:31:57.075Z</time></trkpt><trkpt lat="43.2736155" lon="11.6049555"><ele>292.33333333333337</ele><time>2026-04-25T10:31:58.075Z</time></trkpt><trkpt lat="43.2734073" lon="11.6049955"><ele>293.0</ele><time>2026-04-25T10:31:59.075Z</time></trkpt><trkpt lat="43.2731978" lon="11.6050352"><ele>294.33333333333337</ele><time>2026-04-25T10:32:00.074Z</time></trkpt><trkpt lat="43.2729887" lon="11.6050753"><ele>295.6666666666667</ele><time>2026-04-25T10:32:01.075Z</time></trkpt><trkpt lat="43.2727818" lon="11.6051171"><ele>297.0</ele><time>2026-04-25T10:32:02.075Z</time></trkpt><trkpt lat="43.2725714" lon="11.6051572"><ele>297.0</ele><time>2026-04-25T10:32:03.074Z</time></trkpt><trkpt lat="43.2723666" lon="11.6051976"><ele>297.0</ele><time>2026-04-25T10:32:04.075Z</time></trkpt><trkpt lat="43.272165" lon="11.6052385"><ele>297.0</ele><time>2026-04-25T10:32:05.075Z</time></trkpt><trkpt lat="43.2719684" lon="11.6052714"><ele>297.6666666666667</ele><time>2026-04-25T10:32:06.075Z</time></trkpt><trkpt lat="43.2717742" lon="11.6052865"><ele>298.33333333333337</ele><time>2026-04-25T10:32:07.074Z</time></trkpt><trkpt lat="43.2715799" lon="11.6052728"><ele>299.0</ele><time>2026-04-25T10:32:08.075Z</time></trkpt><trkpt lat="43.2713895" lon="11.6052261"><ele>299.0</ele><time>2026-04-25T10:32:09.074Z</time></trkpt><trkpt lat="43.2712025" lon="11.6051563"><ele>299.0</ele><time>2026-04-25T10:32:10.075Z</time></trkpt><trkpt lat="43.271013" lon="11.6050784"><ele>299.0</ele><time>2026-04-25T10:32:11.075Z</time></trkpt><trkpt lat="43.2708174" lon="11.6049996"><ele>299.0</ele><time>2026-04-25T10:32:12.074Z</time></trkpt><trkpt lat="43.2706249" lon="11.6049127"><ele>299.0</ele><time>2026-04-25T10:32:13.075Z</time></trkpt><trkpt lat="43.2704475" lon="11.6048091"><ele>299.0</ele><time>2026-04-25T10:32:14.075Z</time></trkpt><trkpt lat="43.2702767" lon="11.6047005"><ele>298.33333333333337</ele><time>2026-04-25T10:32:15.075Z</time></trkpt><trkpt lat="43.2701036" lon="11.6046163"><ele>297.6666666666667</ele><time>2026-04-25T10:32:16.075Z</time></trkpt><trkpt lat="43.2699168" lon="11.6045706"><ele>297.0</ele><time>2026-04-25T10:32:17.075Z</time></trkpt><trkpt lat="43.2697354" lon="11.604547"><ele>296.6666666666667</ele><time>2026-04-25T10:32:18.075Z</time></trkpt><trkpt lat="43.2695598" lon="11.6045326"><ele>296.33333333333337</ele><time>2026-04-25T10:32:19.075Z</time></trkpt><trkpt lat="43.2693978" lon="11.6045011"><ele>296.0</ele><time>2026-04-25T10:32:20.074Z</time></trkpt><trkpt lat="43.2692401" lon="11.6044348"><ele>296.0</ele><time>2026-04-25T10:32:21.075Z</time></trkpt><trkpt lat="43.2690841" lon="11.6043437"><ele>296.0</ele><time>2026-04-25T10:32:22.074Z</time></trkpt><trkpt lat="43.2689378" lon="11.6042297"><ele>296.0</ele><time>2026-04-25T10:32:23.075Z</time></trkpt><trkpt lat="43.2688161" lon="11.6041352"><ele>296.0</ele><time>2026-04-25T10:32:24.075Z</time></trkpt><trkpt lat="43.2687216" lon="11.6040677"><ele>296.0</ele><time>2026-04-25T10:32:25.074Z</time></trkpt><trkpt lat="43.2686511" lon="11.6040094"><ele>296.0</ele><time>2026-04-25T10:32:26.075Z</time></trkpt><trkpt lat="43.2685881" lon="11.6039305"><ele>296.0</ele><time>2026-04-25T10:32:28.075Z</time></trkpt><trkpt lat="43.2663698" lon="11.6079345"><ele>296.0</ele><time>2026-04-25T10:46:18.756Z</time></trkpt><trkpt lat="43.2685199" lon="11.6039052"><ele>296.0</ele><time>2026-04-25T10:46:22.075Z</time></trkpt><trkpt lat="43.2684329" lon="11.6038591"><ele>296.0</ele><time>2026-04-25T10:51:47.074Z</time></trkpt><trkpt lat="43.2683738" lon="11.6038251"><ele>296.0</ele><time>2026-04-25T10:51:48.075Z</time></trkpt><trkpt lat="43.26831" lon="11.6037777"><ele>296.0</ele><time>2026-04-25T10:51:49.075Z</time></trkpt><trkpt lat="43.2682447" lon="11.603731"><ele>296.0</ele><time>2026-04-25T10:51:50.074Z</time></trkpt><trkpt lat="43.2681747" lon="11.6036897"><ele>296.0</ele><time>2026-04-25T10:51:51.074Z</time></trkpt><trkpt lat="43.2681003" lon="11.6036489"><ele>295.2</ele><time>2026-04-25T10:51:52.075Z</time></trkpt><trkpt lat="43.2680236" lon="11.6036107"><ele>294.40000000000003</ele><time>2026-04-25T10:51:53.075Z</time></trkpt><trkpt lat="43.2679417" lon="11.6035671"><ele>293.6</ele><time>2026-04-25T10:51:54.075Z</time></trkpt><trkpt lat="43.2678577" lon="11.6035265"><ele>292.8</ele><time>2026-04-25T10:51:55.075Z</time></trkpt><trkpt lat="43.2677648" lon="11.6034894"><ele>292.0</ele><time>2026-04-25T10:51:56.075Z</time></trkpt><trkpt lat="43.2676591" lon="11.6034588"><ele>292.0</ele><time>2026-04-25T10:51:57.075Z</time></trkpt><trkpt lat="43.2675499" lon="11.603426"><ele>292.0</ele><time>2026-04-25T10:51:58.075Z</time></trkpt><trkpt lat="43.2674441" lon="11.603392"><ele>292.0</ele><time>2026-04-25T10:51:59.075Z</time></trkpt><trkpt lat="43.2673351" lon="11.6033523"><ele>292.0</ele><time>2026-04-25T10:52:00.075Z</time></trkpt><trkpt lat="43.2672284" lon="11.603304"><ele>292.0</ele><time>2026-04-25T10:52:01.074Z</time></trkpt><trkpt lat="43.2671275" lon="11.6032359"><ele>292.0</ele><time>2026-04-25T10:52:02.074Z</time></trkpt><trkpt lat="43.2670347" lon="11.6031501"><ele>292.0</ele><time>2026-04-25T10:52:03.074Z</time></trkpt><trkpt lat="43.2669433" lon="11.6030547"><ele>292.0</ele><time>2026-04-25T10:52:04.074Z</time></trkpt><trkpt lat="43.2668536" lon="11.6029635"><ele>292.0</ele><time>2026-04-25T10:52:05.075Z</time></trkpt><trkpt lat="43.266765" lon="11.6028701"><ele>292.2</ele><time>2026-04-25T10:52:06.075Z</time></trkpt><trkpt lat="43.2666802" lon="11.6027694"><ele>292.4</ele><time>2026-04-25T10:52:07.075Z</time></trkpt><trkpt lat="43.2665905" lon="11.6026827"><ele>292.6</ele><time>2026-04-25T10:52:08.075Z</time></trkpt><trkpt lat="43.2664992" lon="11.6025931"><ele>292.8</ele><time>2026-04-25T10:52:09.074Z</time></trkpt><trkpt lat="43.2664116" lon="11.6025033"><ele>293.0</ele><time>2026-04-25T10:52:10.075Z</time></trkpt><trkpt lat="43.2663235" lon="11.6024154"><ele>293.0</ele><time>2026-04-25T10:52:11.074Z</time></trkpt><trkpt lat="43.2662305" lon="11.6023226"><ele>293.0</ele><time>2026-04-25T10:52:12.075Z</time></trkpt><trkpt lat="43.2661312" lon="11.6022335"><ele>293.0</ele><time>2026-04-25T10:52:13.075Z</time></trkpt><trkpt lat="43.2660243" lon="11.6021551"><ele>293.0</ele><time>2026-04-25T10:52:14.075Z</time></trkpt><trkpt lat="43.2659103" lon="11.6020844"><ele>293.0</ele><time>2026-04-25T10:52:15.075Z</time></trkpt><trkpt lat="43.2657904" lon="11.6020259"><ele>293.0</ele><time>2026-04-25T10:52:16.075Z</time></trkpt><trkpt lat="43.2656625" lon="11.6019826"><ele>293.0</ele><time>2026-04-25T10:52:17.075Z</time></trkpt><trkpt lat="43.2655317" lon="11.6019487"><ele>293.0</ele><time>2026-04-25T10:52:18.075Z</time></trkpt><trkpt lat="43.2654025" lon="11.6019189"><ele>293.25</ele><time>2026-04-25T10:52:19.075Z</time></trkpt><trkpt lat="43.2652726" lon="11.6018877"><ele>293.5</ele><time>2026-04-25T10:52:20.074Z</time></trkpt><trkpt lat="43.2651414" lon="11.6018544"><ele>293.75</ele><time>2026-04-25T10:52:21.075Z</time></trkpt><trkpt lat="43.265011" lon="11.6018213"><ele>294.0</ele><time>2026-04-25T10:52:22.075Z</time></trkpt><trkpt lat="43.2648792" lon="11.6017778"><ele>293.75</ele><time>2026-04-25T10:52:23.075Z</time></trkpt><trkpt lat="43.264753" lon="11.6017173"><ele>293.5</ele><time>2026-04-25T10:52:24.074Z</time></trkpt><trkpt lat="43.2646317" lon="11.6016294"><ele>293.25</ele><time>2026-04-25T10:52:25.074Z</time></trkpt><trkpt lat="43.2645248" lon="11.6015087"><ele>293.0</ele><time>2026-04-25T10:52:26.075Z</time></trkpt><trkpt lat="43.2644251" lon="11.6013753"><ele>293.0</ele><time>2026-04-25T10:52:27.075Z</time></trkpt><trkpt lat="43.2643298" lon="11.6012181"><ele>293.0</ele><time>2026-04-25T10:52:28.075Z</time></trkpt><trkpt lat="43.2642384" lon="11.601062"><ele>293.0</ele><time>2026-04-25T10:52:29.075Z</time></trkpt><trkpt lat="43.26415" lon="11.6008987"><ele>293.0</ele><time>2026-04-25T10:52:30.075Z</time></trkpt><trkpt lat="43.2640589" lon="11.6007326"><ele>293.5</ele><time>2026-04-25T10:52:31.075Z</time></trkpt><trkpt lat="43.2639718" lon="11.6005723"><ele>294.0</ele><time>2026-04-25T10:52:32.075Z</time></trkpt><trkpt lat="43.263884" lon="11.6004175"><ele>294.5</ele><time>2026-04-25T10:52:33.075Z</time></trkpt><trkpt lat="43.2638034" lon="11.6002645"><ele>295.0</ele><time>2026-04-25T10:52:34.075Z</time></trkpt><trkpt lat="43.2637201" lon="11.6001196"><ele>295.75</ele><time>2026-04-25T10:52:35.075Z</time></trkpt><trkpt lat="43.2636209" lon="11.599988"><ele>296.5</ele><time>2026-04-25T10:52:36.075Z</time></trkpt><trkpt lat="43.263492" lon="11.5998972"><ele>297.25</ele><time>2026-04-25T10:52:37.075Z</time></trkpt><trkpt lat="43.2633492" lon="11.5998478"><ele>298.0</ele><time>2026-04-25T10:52:38.075Z</time></trkpt><trkpt lat="43.2631966" lon="11.5998285"><ele>297.66666666666663</ele><time>2026-04-25T10:52:39.075Z</time></trkpt><trkpt lat="43.2630479" lon="11.5998152"><ele>297.3333333333333</ele><time>2026-04-25T10:52:40.075Z</time></trkpt><trkpt lat="43.2628901" lon="11.5997981"><ele>297.0</ele><time>2026-04-25T10:52:41.075Z</time></trkpt><trkpt lat="43.2627256" lon="11.5997504"><ele>297.0</ele><time>2026-04-25T10:52:42.074Z</time></trkpt><trkpt lat="43.2625659" lon="11.5997"><ele>297.0</ele><time>2026-04-25T10:52:43.074Z</time></trkpt><trkpt lat="43.2624063" lon="11.5996301"><ele>297.0</ele><time>2026-04-25T10:52:44.075Z</time></trkpt><trkpt lat="43.2622443" lon="11.599557"><ele>295.0</ele><time>2026-04-25T10:52:45.075Z</time></trkpt><trkpt lat="43.2620831" lon="11.599484"><ele>293.0</ele><time>2026-04-25T10:52:46.075Z</time></trkpt><trkpt lat="43.261923" lon="11.5994097"><ele>291.0</ele><time>2026-04-25T10:52:47.075Z</time></trkpt><trkpt lat="43.2617678" lon="11.5993273"><ele>291.0</ele><time>2026-04-25T10:52:48.075Z</time></trkpt><trkpt lat="43.2616267" lon="11.5992229"><ele>291.0</ele><time>2026-04-25T10:52:49.075Z</time></trkpt><trkpt lat="43.2614944" lon="11.5990911"><ele>291.0</ele><time>2026-04-25T10:52:50.075Z</time></trkpt><trkpt lat="43.2613906" lon="11.5989204"><ele>291.0</ele><time>2026-04-25T10:52:51.075Z</time></trkpt><trkpt lat="43.2612916" lon="11.5987442"><ele>291.0</ele><time>2026-04-25T10:52:52.074Z</time></trkpt><trkpt lat="43.2611821" lon="11.5985728"><ele>291.0</ele><time>2026-04-25T10:52:53.075Z</time></trkpt><trkpt lat="43.2610622" lon="11.5984101"><ele>291.0</ele><time>2026-04-25T10:52:54.075Z</time></trkpt><trkpt lat="43.2609258" lon="11.5982766"><ele>291.0</ele><time>2026-04-25T10:52:55.073Z</time></trkpt><trkpt lat="43.2607687" lon="11.598176"><ele>291.0</ele><time>2026-04-25T10:52:56.074Z</time></trkpt><trkpt lat="43.260605" lon="11.5980983"><ele>291.0</ele><time>2026-04-25T10:52:57.074Z</time></trkpt><trkpt lat="43.2604324" lon="11.5980248"><ele>291.0</ele><time>2026-04-25T10:52:58.074Z</time></trkpt><trkpt lat="43.2602572" lon="11.5979527"><ele>291.0</ele><time>2026-04-25T10:52:59.074Z</time></trkpt><trkpt lat="43.2600795" lon="11.5978792"><ele>290.6666666666667</ele><time>2026-04-25T10:53:00.074Z</time></trkpt><trkpt lat="43.2598941" lon="11.5978182"><ele>290.33333333333337</ele><time>2026-04-25T10:53:01.074Z</time></trkpt><trkpt lat="43.259708" lon="11.5977754"><ele>290.0</ele><time>2026-04-25T10:53:02.073Z</time></trkpt><trkpt lat="43.2595201" lon="11.5977503"><ele>289.6666666666667</ele><time>2026-04-25T10:53:03.073Z</time></trkpt><trkpt lat="43.2593325" lon="11.5977195"><ele>289.3333333333333</ele><time>2026-04-25T10:53:04.073Z</time></trkpt><trkpt lat="43.2591431" lon="11.5976673"><ele>289.0</ele><time>2026-04-25T10:53:05.074Z</time></trkpt><trkpt lat="43.25895" lon="11.5975978"><ele>289.0</ele><time>2026-04-25T10:53:06.073Z</time></trkpt><trkpt lat="43.2587582" lon="11.5975093"><ele>289.0</ele><time>2026-04-25T10:53:07.074Z</time></trkpt><trkpt lat="43.2585619" lon="11.5974184"><ele>289.0</ele><time>2026-04-25T10:53:08.074Z</time></trkpt><trkpt lat="43.2583667" lon="11.5973249"><ele>289.0</ele><time>2026-04-25T10:53:09.074Z</time></trkpt><trkpt lat="43.2581748" lon="11.5972311"><ele>289.0</ele><time>2026-04-25T10:53:10.074Z</time></trkpt><trkpt lat="43.2579833" lon="11.597111"><ele>289.0</ele><time>2026-04-25T10:53:11.074Z</time></trkpt><trkpt lat="43.2577991" lon="11.5969704"><ele>288.3333333333333</ele><time>2026-04-25T10:53:12.074Z</time></trkpt><trkpt lat="43.2576061" lon="11.5968228"><ele>287.6666666666667</ele><time>2026-04-25T10:53:13.074Z</time></trkpt><trkpt lat="43.2574153" lon="11.5966721"><ele>287.0</ele><time>2026-04-25T10:53:14.074Z</time></trkpt><trkpt lat="43.2572232" lon="11.5965255"><ele>286.0</ele><time>2026-04-25T10:53:15.074Z</time></trkpt><trkpt lat="43.2570332" lon="11.5963773"><ele>285.0</ele><time>2026-04-25T10:53:16.073Z</time></trkpt><trkpt lat="43.2568448" lon="11.5962282"><ele>284.0</ele><time>2026-04-25T10:53:17.074Z</time></trkpt><trkpt lat="43.2566579" lon="11.5960679"><ele>284.0</ele><time>2026-04-25T10:53:18.074Z</time></trkpt><trkpt lat="43.256481" lon="11.5959024"><ele>284.0</ele><time>2026-04-25T10:53:19.074Z</time></trkpt><trkpt lat="43.2563152" lon="11.5957327"><ele>284.0</ele><time>2026-04-25T10:53:20.074Z</time></trkpt><trkpt lat="43.2561529" lon="11.5955773"><ele>284.6666666666667</ele><time>2026-04-25T10:53:21.074Z</time></trkpt><trkpt lat="43.255996" lon="11.5954453"><ele>285.3333333333333</ele><time>2026-04-25T10:53:22.074Z</time></trkpt><trkpt lat="43.2558229" lon="11.5953553"><ele>286.0</ele><time>2026-04-25T10:53:23.074Z</time></trkpt><trkpt lat="43.2556454" lon="11.5953125"><ele>286.3333333333333</ele><time>2026-04-25T10:53:24.074Z</time></trkpt><trkpt lat="43.2554572" lon="11.5953249"><ele>286.6666666666667</ele><time>2026-04-25T10:53:25.074Z</time></trkpt><trkpt lat="43.255278" lon="11.5953948"><ele>287.0</ele><time>2026-04-25T10:53:26.073Z</time></trkpt><trkpt lat="43.2551047" lon="11.595529"><ele>287.33333333333337</ele><time>2026-04-25T10:53:27.073Z</time></trkpt><trkpt lat="43.2549461" lon="11.5956941"><ele>287.6666666666667</ele><time>2026-04-25T10:53:28.074Z</time></trkpt><trkpt lat="43.2548018" lon="11.5958919"><ele>288.0</ele><time>2026-04-25T10:53:29.073Z</time></trkpt><trkpt lat="43.2546599" lon="11.5960979"><ele>287.3333333333333</ele><time>2026-04-25T10:53:30.074Z</time></trkpt><trkpt lat="43.2545156" lon="11.5962966"><ele>286.66666666666663</ele><time>2026-04-25T10:53:31.074Z</time></trkpt><trkpt lat="43.254369" lon="11.5965028"><ele>286.0</ele><time>2026-04-25T10:53:32.074Z</time></trkpt><trkpt lat="43.2542192" lon="11.5967143"><ele>286.0</ele><time>2026-04-25T10:53:33.073Z</time></trkpt><trkpt lat="43.2540722" lon="11.5969209"><ele>286.0</ele><time>2026-04-25T10:53:34.074Z</time></trkpt><trkpt lat="43.2539199" lon="11.597126"><ele>286.0</ele><time>2026-04-25T10:53:35.073Z</time></trkpt><trkpt lat="43.2537573" lon="11.5973197"><ele>285.0</ele><time>2026-04-25T10:53:36.073Z</time></trkpt><trkpt lat="43.2535813" lon="11.5974912"><ele>284.0</ele><time>2026-04-25T10:53:37.074Z</time></trkpt><trkpt lat="43.2533946" lon="11.5976267"><ele>283.0</ele><time>2026-04-25T10:53:38.074Z</time></trkpt><trkpt lat="43.2531848" lon="11.5977355"><ele>282.0</ele><time>2026-04-25T10:53:39.073Z</time></trkpt><trkpt lat="43.2529649" lon="11.5978079"><ele>281.0</ele><time>2026-04-25T10:53:40.073Z</time></trkpt><trkpt lat="43.2527399" lon="11.5978532"><ele>280.0</ele><time>2026-04-25T10:53:41.073Z</time></trkpt><trkpt lat="43.252514" lon="11.5978994"><ele>279.0</ele><time>2026-04-25T10:53:42.074Z</time></trkpt><trkpt lat="43.2522853" lon="11.5979476"><ele>279.0</ele><time>2026-04-25T10:53:43.074Z</time></trkpt><trkpt lat="43.2520489" lon="11.5980114"><ele>279.0</ele><time>2026-04-25T10:53:44.073Z</time></trkpt><trkpt lat="43.2518169" lon="11.598064"><ele>279.0</ele><time>2026-04-25T10:53:45.074Z</time></trkpt><trkpt lat="43.2515872" lon="11.5981185"><ele>279.0</ele><time>2026-04-25T10:53:46.073Z</time></trkpt><trkpt lat="43.2513593" lon="11.59817"><ele>278.5</ele><time>2026-04-25T10:53:47.073Z</time></trkpt><trkpt lat="43.2511325" lon="11.5982197"><ele>278.0</ele><time>2026-04-25T10:53:48.074Z</time></trkpt><trkpt lat="43.2509117" lon="11.5982613"><ele>278.0</ele><time>2026-04-25T10:53:49.074Z</time></trkpt><trkpt lat="43.2506967" lon="11.598288"><ele>278.0</ele><time>2026-04-25T10:53:50.073Z</time></trkpt><trkpt lat="43.2504961" lon="11.5982729"><ele>278.0</ele><time>2026-04-25T10:53:51.074Z</time></trkpt><trkpt lat="43.250295" lon="11.5982073"><ele>277.33333333333337</ele><time>2026-04-25T10:53:52.073Z</time></trkpt><trkpt lat="43.2501039" lon="11.5981113"><ele>276.6666666666667</ele><time>2026-04-25T10:53:53.074Z</time></trkpt><trkpt lat="43.2499113" lon="11.5979998"><ele>276.0</ele><time>2026-04-25T10:53:54.073Z</time></trkpt><trkpt lat="43.2497251" lon="11.5978756"><ele>276.0</ele><time>2026-04-25T10:53:55.074Z</time></trkpt><trkpt lat="43.2495351" lon="11.597758"><ele>276.0</ele><time>2026-04-25T10:53:56.073Z</time></trkpt><trkpt lat="43.249344" lon="11.5976455"><ele>276.0</ele><time>2026-04-25T10:53:57.073Z</time></trkpt><trkpt lat="43.2491478" lon="11.5975339"><ele>275.3333333333333</ele><time>2026-04-25T10:53:58.074Z</time></trkpt><trkpt lat="43.2489532" lon="11.5974263"><ele>274.66666666666663</ele><time>2026-04-25T10:53:59.074Z</time></trkpt><trkpt lat="43.2487593" lon="11.5973033"><ele>274.0</ele><time>2026-04-25T10:54:00.074Z</time></trkpt><trkpt lat="43.2485748" lon="11.5971547"><ele>275.0</ele><time>2026-04-25T10:54:01.073Z</time></trkpt><trkpt lat="43.2484077" lon="11.5969872"><ele>276.0</ele><time>2026-04-25T10:54:02.074Z</time></trkpt><trkpt lat="43.2482449" lon="11.596794"><ele>277.0</ele><time>2026-04-25T10:54:03.073Z</time></trkpt><trkpt lat="43.2480821" lon="11.5965954"><ele>277.0</ele><time>2026-04-25T10:54:04.074Z</time></trkpt><trkpt lat="43.2479185" lon="11.5963993"><ele>277.0</ele><time>2026-04-25T10:54:05.074Z</time></trkpt><trkpt lat="43.2477509" lon="11.5962107"><ele>277.0</ele><time>2026-04-25T10:54:06.073Z</time></trkpt><trkpt lat="43.247587" lon="11.5960197"><ele>277.0</ele><time>2026-04-25T10:54:07.074Z</time></trkpt><trkpt lat="43.2474199" lon="11.5958267"><ele>277.0</ele><time>2026-04-25T10:54:08.074Z</time></trkpt><trkpt lat="43.2472555" lon="11.5956269"><ele>277.0</ele><time>2026-04-25T10:54:09.074Z</time></trkpt><trkpt lat="43.2470859" lon="11.5954271"><ele>276.0</ele><time>2026-04-25T10:54:10.074Z</time></trkpt><trkpt lat="43.2469157" lon="11.5952297"><ele>275.0</ele><time>2026-04-25T10:54:11.073Z</time></trkpt><trkpt lat="43.2467449" lon="11.5950269"><ele>274.0</ele><time>2026-04-25T10:54:12.074Z</time></trkpt><trkpt lat="43.2465683" lon="11.5948219"><ele>272.0</ele><time>2026-04-25T10:54:13.074Z</time></trkpt><trkpt lat="43.2463927" lon="11.5946177"><ele>270.0</ele><time>2026-04-25T10:54:14.074Z</time></trkpt><trkpt lat="43.2462206" lon="11.5944156"><ele>269.3333333333333</ele><time>2026-04-25T10:54:15.074Z</time></trkpt><trkpt lat="43.2460524" lon="11.59422"><ele>268.66666666666663</ele><time>2026-04-25T10:54:16.073Z</time></trkpt><trkpt lat="43.2458863" lon="11.5940235"><ele>268.0</ele><time>2026-04-25T10:54:17.073Z</time></trkpt><trkpt lat="43.2457214" lon="11.5938245"><ele>266.66666666666663</ele><time>2026-04-25T10:54:18.074Z</time></trkpt><trkpt lat="43.2455572" lon="11.5936288"><ele>265.3333333333333</ele><time>2026-04-25T10:54:19.073Z</time></trkpt><trkpt lat="43.2453926" lon="11.5934331"><ele>264.0</ele><time>2026-04-25T10:54:20.074Z</time></trkpt><trkpt lat="43.2452318" lon="11.5932395"><ele>264.0</ele><time>2026-04-25T10:54:21.074Z</time></trkpt><trkpt lat="43.2450701" lon="11.5930431"><ele>264.0</ele><time>2026-04-25T10:54:22.074Z</time></trkpt><trkpt lat="43.2449111" lon="11.5928581"><ele>264.0</ele><time>2026-04-25T10:54:23.074Z</time></trkpt><trkpt lat="43.2447584" lon="11.5926774"><ele>263.0</ele><time>2026-04-25T10:54:24.074Z</time></trkpt><trkpt lat="43.2446115" lon="11.5925026"><ele>262.0</ele><time>2026-04-25T10:54:25.074Z</time></trkpt><trkpt lat="43.2444696" lon="11.5923365"><ele>261.0</ele><time>2026-04-25T10:54:26.073Z</time></trkpt><trkpt lat="43.2443323" lon="11.5921766"><ele>261.0</ele><time>2026-04-25T10:54:27.074Z</time></trkpt><trkpt lat="43.2442012" lon="11.5920232"><ele>261.0</ele><time>2026-04-25T10:54:28.074Z</time></trkpt><trkpt lat="43.2440788" lon="11.5918749"><ele>261.0</ele><time>2026-04-25T10:54:29.074Z</time></trkpt><trkpt lat="43.2439594" lon="11.5917333"><ele>260.75</ele><time>2026-04-25T10:54:30.074Z</time></trkpt><trkpt lat="43.2438469" lon="11.5915925"><ele>260.5</ele><time>2026-04-25T10:54:31.074Z</time></trkpt><trkpt lat="43.2437467" lon="11.5914428"><ele>260.25</ele><time>2026-04-25T10:54:32.074Z</time></trkpt><trkpt lat="43.2436585" lon="11.5912803"><ele>260.0</ele><time>2026-04-25T10:54:33.074Z</time></trkpt><trkpt lat="43.2435817" lon="11.5910928"><ele>259.75</ele><time>2026-04-25T10:54:34.073Z</time></trkpt><trkpt lat="43.2435151" lon="11.5909103"><ele>259.5</ele><time>2026-04-25T10:54:35.074Z</time></trkpt><trkpt lat="43.2434584" lon="11.590727"><ele>259.25</ele><time>2026-04-25T10:54:36.074Z</time></trkpt><trkpt lat="43.2434045" lon="11.5905504"><ele>259.0</ele><time>2026-04-25T10:54:37.073Z</time></trkpt><trkpt lat="43.2433538" lon="11.5903797"><ele>259.0</ele><time>2026-04-25T10:54:38.074Z</time></trkpt><trkpt lat="43.2432995" lon="11.5902041"><ele>259.0</ele><time>2026-04-25T10:54:39.074Z</time></trkpt><trkpt lat="43.2432498" lon="11.5900308"><ele>259.0</ele><time>2026-04-25T10:54:40.074Z</time></trkpt><trkpt lat="43.2432024" lon="11.58986"><ele>259.0</ele><time>2026-04-25T10:54:41.074Z</time></trkpt><trkpt lat="43.2431509" lon="11.5896836"><ele>259.0</ele><time>2026-04-25T10:54:42.074Z</time></trkpt><trkpt lat="43.2430964" lon="11.5895113"><ele>259.0</ele><time>2026-04-25T10:54:43.073Z</time></trkpt><trkpt lat="43.2430451" lon="11.5893337"><ele>259.0</ele><time>2026-04-25T10:54:44.074Z</time></trkpt><trkpt lat="43.2429977" lon="11.5891506"><ele>259.0</ele><time>2026-04-25T10:54:45.074Z</time></trkpt><trkpt lat="43.2429508" lon="11.5889624"><ele>259.0</ele><time>2026-04-25T10:54:46.074Z</time></trkpt><trkpt lat="43.2429037" lon="11.5887684"><ele>259.0</ele><time>2026-04-25T10:54:47.074Z</time></trkpt><trkpt lat="43.242859" lon="11.5885687"><ele>259.0</ele><time>2026-04-25T10:54:48.074Z</time></trkpt><trkpt lat="43.2428148" lon="11.5883742"><ele>259.25</ele><time>2026-04-25T10:54:49.074Z</time></trkpt><trkpt lat="43.242777" lon="11.5881805"><ele>259.5</ele><time>2026-04-25T10:54:50.074Z</time></trkpt><trkpt lat="43.2427375" lon="11.587977"><ele>259.75</ele><time>2026-04-25T10:54:51.073Z</time></trkpt><trkpt lat="43.2427006" lon="11.5877795"><ele>260.0</ele><time>2026-04-25T10:54:52.074Z</time></trkpt><trkpt lat="43.2426656" lon="11.5875847"><ele>260.0</ele><time>2026-04-25T10:54:53.074Z</time></trkpt><trkpt lat="43.2426321" lon="11.5873976"><ele>260.0</ele><time>2026-04-25T10:54:54.073Z</time></trkpt><trkpt lat="43.2425974" lon="11.5872135"><ele>260.0</ele><time>2026-04-25T10:54:55.074Z</time></trkpt><trkpt lat="43.2425597" lon="11.5870249"><ele>260.0</ele><time>2026-04-25T10:54:56.074Z</time></trkpt><trkpt lat="43.2425245" lon="11.5868455"><ele>260.25</ele><time>2026-04-25T10:54:57.074Z</time></trkpt><trkpt lat="43.2424926" lon="11.5866597"><ele>260.5</ele><time>2026-04-25T10:54:58.074Z</time></trkpt><trkpt lat="43.2424576" lon="11.5864882"><ele>260.75</ele><time>2026-04-25T10:54:59.073Z</time></trkpt><trkpt lat="43.2424255" lon="11.5863114"><ele>261.0</ele><time>2026-04-25T10:55:00.074Z</time></trkpt><trkpt lat="43.2423901" lon="11.5861297"><ele>261.0</ele><time>2026-04-25T10:55:01.073Z</time></trkpt><trkpt lat="43.2423557" lon="11.5859478"><ele>261.0</ele><time>2026-04-25T10:55:02.074Z</time></trkpt><trkpt lat="43.242325" lon="11.5857668"><ele>261.0</ele><time>2026-04-25T10:55:03.074Z</time></trkpt><trkpt lat="43.2422945" lon="11.5855823"><ele>261.0</ele><time>2026-04-25T10:55:04.074Z</time></trkpt><trkpt lat="43.2422611" lon="11.5853948"><ele>260.75</ele><time>2026-04-25T10:55:05.074Z</time></trkpt><trkpt lat="43.2422256" lon="11.5852025"><ele>260.5</ele><time>2026-04-25T10:55:06.073Z</time></trkpt><trkpt lat="43.2421862" lon="11.5850035"><ele>260.25</ele><time>2026-04-25T10:55:07.073Z</time></trkpt><trkpt lat="43.2421453" lon="11.5848057"><ele>260.0</ele><time>2026-04-25T10:55:08.074Z</time></trkpt><trkpt lat="43.2420909" lon="11.5846037"><ele>259.33333333333337</ele><time>2026-04-25T10:55:09.073Z</time></trkpt><trkpt lat="43.2420101" lon="11.5844019"><ele>258.6666666666667</ele><time>2026-04-25T10:55:10.073Z</time></trkpt><trkpt lat="43.2419043" lon="11.5842069"><ele>258.0</ele><time>2026-04-25T10:55:11.074Z</time></trkpt><trkpt lat="43.2417854" lon="11.5840079"><ele>258.0</ele><time>2026-04-25T10:55:12.074Z</time></trkpt><trkpt lat="43.2416673" lon="11.5837935"><ele>258.0</ele><time>2026-04-25T10:55:13.074Z</time></trkpt><trkpt lat="43.2415476" lon="11.5835752"><ele>258.0</ele><time>2026-04-25T10:55:14.073Z</time></trkpt><trkpt lat="43.2414212" lon="11.5833408"><ele>258.0</ele><time>2026-04-25T10:55:15.074Z</time></trkpt><trkpt lat="43.2412945" lon="11.5831077"><ele>258.0</ele><time>2026-04-25T10:55:16.073Z</time></trkpt><trkpt lat="43.2411722" lon="11.582875"><ele>258.0</ele><time>2026-04-25T10:55:17.074Z</time></trkpt><trkpt lat="43.2410486" lon="11.5826368"><ele>257.0</ele><time>2026-04-25T10:55:18.074Z</time></trkpt><trkpt lat="43.2409181" lon="11.5823968"><ele>256.0</ele><time>2026-04-25T10:55:19.074Z</time></trkpt><trkpt lat="43.2407896" lon="11.5821584"><ele>255.0</ele><time>2026-04-25T10:55:20.073Z</time></trkpt><trkpt lat="43.2406594" lon="11.5819227"><ele>254.66666666666669</ele><time>2026-04-25T10:55:21.074Z</time></trkpt><trkpt lat="43.240531" lon="11.5816853"><ele>254.33333333333334</ele><time>2026-04-25T10:55:22.074Z</time></trkpt><trkpt lat="43.2404035" lon="11.5814521"><ele>254.0</ele><time>2026-04-25T10:55:23.074Z</time></trkpt><trkpt lat="43.2402727" lon="11.5812165"><ele>253.66666666666669</ele><time>2026-04-25T10:55:24.074Z</time></trkpt><trkpt lat="43.2401428" lon="11.5809768"><ele>253.33333333333331</ele><time>2026-04-25T10:55:25.074Z</time></trkpt><trkpt lat="43.2400137" lon="11.5807383"><ele>253.0</ele><time>2026-04-25T10:55:26.074Z</time></trkpt><trkpt lat="43.2398858" lon="11.5805031"><ele>252.66666666666666</ele><time>2026-04-25T10:55:27.073Z</time></trkpt><trkpt lat="43.2397565" lon="11.5802616"><ele>252.33333333333331</ele><time>2026-04-25T10:55:28.074Z</time></trkpt><trkpt lat="43.2396257" lon="11.5800212"><ele>252.0</ele><time>2026-04-25T10:55:29.074Z</time></trkpt><trkpt lat="43.2394925" lon="11.5797771"><ele>252.0</ele><time>2026-04-25T10:55:30.074Z</time></trkpt><trkpt lat="43.2393583" lon="11.5795333"><ele>252.0</ele><time>2026-04-25T10:55:31.074Z</time></trkpt><trkpt lat="43.2392222" lon="11.5792894"><ele>252.0</ele><time>2026-04-25T10:55:32.074Z</time></trkpt><trkpt lat="43.2390913" lon="11.5790421"><ele>251.0</ele><time>2026-04-25T10:55:33.073Z</time></trkpt><trkpt lat="43.2389572" lon="11.5788039"><ele>250.0</ele><time>2026-04-25T10:55:34.074Z</time></trkpt><trkpt lat="43.2388221" lon="11.5785621"><ele>249.0</ele><time>2026-04-25T10:55:35.074Z</time></trkpt><trkpt lat="43.2386956" lon="11.5783154"><ele>248.66666666666669</ele><time>2026-04-25T10:55:36.073Z</time></trkpt><trkpt lat="43.2385784" lon="11.5780574"><ele>248.33333333333334</ele><time>2026-04-25T10:55:37.074Z</time></trkpt><trkpt lat="43.2384771" lon="11.5777865"><ele>248.0</ele><time>2026-04-25T10:55:38.074Z</time></trkpt><trkpt lat="43.2383809" lon="11.5775117"><ele>247.66666666666669</ele><time>2026-04-25T10:55:39.073Z</time></trkpt><trkpt lat="43.2382885" lon="11.5772349"><ele>247.33333333333331</ele><time>2026-04-25T10:55:40.073Z</time></trkpt><trkpt lat="43.2381916" lon="11.5769671"><ele>247.0</ele><time>2026-04-25T10:55:41.074Z</time></trkpt><trkpt lat="43.2380933" lon="11.5766953"><ele>246.66666666666666</ele><time>2026-04-25T10:55:42.074Z</time></trkpt><trkpt lat="43.2380005" lon="11.576424"><ele>246.33333333333331</ele><time>2026-04-25T10:55:43.074Z</time></trkpt><trkpt lat="43.2379093" lon="11.5761598"><ele>246.0</ele><time>2026-04-25T10:55:44.074Z</time></trkpt><trkpt lat="43.2378211" lon="11.5758986"><ele>246.0</ele><time>2026-04-25T10:55:45.074Z</time></trkpt><trkpt lat="43.2377243" lon="11.5756491"><ele>246.0</ele><time>2026-04-25T10:55:46.073Z</time></trkpt><trkpt lat="43.2376117" lon="11.5754096"><ele>246.0</ele><time>2026-04-25T10:55:47.074Z</time></trkpt><trkpt lat="43.2374643" lon="11.5751981"><ele>245.66666666666669</ele><time>2026-04-25T10:55:48.073Z</time></trkpt><trkpt lat="43.2372964" lon="11.575025"><ele>245.33333333333334</ele><time>2026-04-25T10:55:49.074Z</time></trkpt><trkpt lat="43.2371213" lon="11.5748746"><ele>245.0</ele><time>2026-04-25T10:55:50.073Z</time></trkpt><trkpt lat="43.2369528" lon="11.5747526"><ele>245.0</ele><time>2026-04-25T10:55:51.074Z</time></trkpt><trkpt lat="43.2367968" lon="11.5746288"><ele>245.0</ele><time>2026-04-25T10:55:52.073Z</time></trkpt><trkpt lat="43.2366517" lon="11.5745037"><ele>245.0</ele><time>2026-04-25T10:55:53.074Z</time></trkpt><trkpt lat="43.236516" lon="11.5743802"><ele>245.5</ele><time>2026-04-25T10:55:54.074Z</time></trkpt><trkpt lat="43.2363892" lon="11.5742598"><ele>246.0</ele><time>2026-04-25T10:55:55.074Z</time></trkpt><trkpt lat="43.2362658" lon="11.574142"><ele>246.5</ele><time>2026-04-25T10:55:56.073Z</time></trkpt><trkpt lat="43.2361548" lon="11.5740243"><ele>247.0</ele><time>2026-04-25T10:55:57.073Z</time></trkpt><trkpt lat="43.2360444" lon="11.5739021"><ele>247.0</ele><time>2026-04-25T10:55:58.074Z</time></trkpt><trkpt lat="43.2359309" lon="11.5737901"><ele>247.0</ele><time>2026-04-25T10:55:59.074Z</time></trkpt><trkpt lat="43.2358182" lon="11.5736795"><ele>247.0</ele><time>2026-04-25T10:56:00.074Z</time></trkpt><trkpt lat="43.2357084" lon="11.5735724"><ele>247.0</ele><time>2026-04-25T10:56:01.073Z</time></trkpt><trkpt lat="43.2355934" lon="11.5734789"><ele>246.75</ele><time>2026-04-25T10:56:02.074Z</time></trkpt><trkpt lat="43.2354754" lon="11.5733859"><ele>246.5</ele><time>2026-04-25T10:56:03.074Z</time></trkpt><trkpt lat="43.2353569" lon="11.5732918"><ele>246.25</ele><time>2026-04-25T10:56:04.074Z</time></trkpt><trkpt lat="43.2352329" lon="11.573201"><ele>246.0</ele><time>2026-04-25T10:56:05.074Z</time></trkpt><trkpt lat="43.2351093" lon="11.5731178"><ele>246.0</ele><time>2026-04-25T10:56:06.074Z</time></trkpt><trkpt lat="43.2349898" lon="11.5730297"><ele>246.0</ele><time>2026-04-25T10:56:07.074Z</time></trkpt><trkpt lat="43.2348691" lon="11.5729625"><ele>246.0</ele><time>2026-04-25T10:56:08.074Z</time></trkpt><trkpt lat="43.234758" lon="11.5728973"><ele>246.0</ele><time>2026-04-25T10:56:09.074Z</time></trkpt><trkpt lat="43.2346419" lon="11.572857"><ele>245.5</ele><time>2026-04-25T10:56:10.074Z</time></trkpt><trkpt lat="43.2345279" lon="11.5728194"><ele>245.0</ele><time>2026-04-25T10:56:11.074Z</time></trkpt><trkpt lat="43.234413" lon="11.5727891"><ele>244.5</ele><time>2026-04-25T10:56:12.074Z</time></trkpt><trkpt lat="43.2342885" lon="11.5727794"><ele>244.0</ele><time>2026-04-25T10:56:13.074Z</time></trkpt><trkpt lat="43.2341643" lon="11.5727772"><ele>244.0</ele><time>2026-04-25T10:56:14.074Z</time></trkpt><trkpt lat="43.234032" lon="11.5727802"><ele>244.0</ele><time>2026-04-25T10:56:15.074Z</time></trkpt><trkpt lat="43.2338903" lon="11.5727891"><ele>244.0</ele><time>2026-04-25T10:56:16.073Z</time></trkpt><trkpt lat="43.2337517" lon="11.5727826"><ele>244.0</ele><time>2026-04-25T10:56:17.074Z</time></trkpt><trkpt lat="43.233613" lon="11.5727693"><ele>243.75</ele><time>2026-04-25T10:56:18.074Z</time></trkpt><trkpt lat="43.233477" lon="11.572757"><ele>243.5</ele><time>2026-04-25T10:56:19.074Z</time></trkpt><trkpt lat="43.233342" lon="11.5727404"><ele>243.25</ele><time>2026-04-25T10:56:20.074Z</time></trkpt><trkpt lat="43.2332082" lon="11.572722"><ele>243.0</ele><time>2026-04-25T10:56:21.073Z</time></trkpt><trkpt lat="43.2330733" lon="11.5727015"><ele>242.75</ele><time>2026-04-25T10:56:22.073Z</time></trkpt><trkpt lat="43.2329427" lon="11.572678"><ele>242.5</ele><time>2026-04-25T10:56:23.074Z</time></trkpt><trkpt lat="43.2328108" lon="11.5726583"><ele>242.25</ele><time>2026-04-25T10:56:24.074Z</time></trkpt><trkpt lat="43.2326853" lon="11.5726362"><ele>242.0</ele><time>2026-04-25T10:56:25.074Z</time></trkpt><trkpt lat="43.2325585" lon="11.5726218"><ele>242.0</ele><time>2026-04-25T10:56:26.074Z</time></trkpt><trkpt lat="43.2324339" lon="11.5726176"><ele>242.0</ele><time>2026-04-25T10:56:27.074Z</time></trkpt><trkpt lat="43.2323087" lon="11.5726139"><ele>242.0</ele><time>2026-04-25T10:56:28.073Z</time></trkpt><trkpt lat="43.2321855" lon="11.5726146"><ele>242.0</ele><time>2026-04-25T10:56:29.073Z</time></trkpt><trkpt lat="43.2320656" lon="11.5726122"><ele>242.0</ele><time>2026-04-25T10:56:30.073Z</time></trkpt><trkpt lat="43.2319452" lon="11.5726117"><ele>242.0</ele><time>2026-04-25T10:56:31.074Z</time></trkpt><trkpt lat="43.2318237" lon="11.5726162"><ele>242.0</ele><time>2026-04-25T10:56:32.074Z</time></trkpt><trkpt lat="43.2317024" lon="11.5726173"><ele>242.0</ele><time>2026-04-25T10:56:33.073Z</time></trkpt><trkpt lat="43.2315802" lon="11.5726242"><ele>241.75</ele><time>2026-04-25T10:56:34.074Z</time></trkpt><trkpt lat="43.23145" lon="11.5726183"><ele>241.5</ele><time>2026-04-25T10:56:35.074Z</time></trkpt><trkpt lat="43.2313229" lon="11.5725982"><ele>241.25</ele><time>2026-04-25T10:56:36.074Z</time></trkpt><trkpt lat="43.2311942" lon="11.5725528"><ele>241.0</ele><time>2026-04-25T10:56:37.074Z</time></trkpt><trkpt lat="43.2310698" lon="11.5724911"><ele>241.0</ele><time>2026-04-25T10:56:38.073Z</time></trkpt><trkpt lat="43.230957" lon="11.5724272"><ele>241.00000000000003</ele><time>2026-04-25T10:56:39.074Z</time></trkpt><trkpt lat="43.2308555" lon="11.5723621"><ele>241.00000000000003</ele><time>2026-04-25T10:56:40.074Z</time></trkpt><trkpt lat="43.2307648" lon="11.5723039"><ele>241.0</ele><time>2026-04-25T10:56:41.074Z</time></trkpt><trkpt lat="43.2306993" lon="11.5722566"><ele>241.0</ele><time>2026-04-25T10:56:42.074Z</time></trkpt><trkpt lat="43.2305992" lon="11.5721697"><ele>241.0</ele><time>2026-04-25T10:56:44.074Z</time></trkpt><trkpt lat="43.2305459" lon="11.5720487"><ele>241.00000000000003</ele><time>2026-04-25T10:56:46.074Z</time></trkpt><trkpt lat="43.2305193" lon="11.5719506"><ele>241.00000000000003</ele><time>2026-04-25T10:56:47.074Z</time></trkpt><trkpt lat="43.2304934" lon="11.5718414"><ele>241.0</ele><time>2026-04-25T10:56:48.073Z</time></trkpt><trkpt lat="43.2304652" lon="11.5717156"><ele>241.0</ele><time>2026-04-25T10:56:49.073Z</time></trkpt><trkpt lat="43.2304324" lon="11.5715951"><ele>241.0</ele><time>2026-04-25T10:56:50.074Z</time></trkpt><trkpt lat="43.2303978" lon="11.5714671"><ele>241.0</ele><time>2026-04-25T10:56:51.073Z</time></trkpt><trkpt lat="43.23036" lon="11.5713184"><ele>241.0</ele><time>2026-04-25T10:56:52.073Z</time></trkpt><trkpt lat="43.2303251" lon="11.571161"><ele>241.0</ele><time>2026-04-25T10:56:53.074Z</time></trkpt><trkpt lat="43.2302845" lon="11.5710102"><ele>240.75</ele><time>2026-04-25T10:56:54.074Z</time></trkpt><trkpt lat="43.2302292" lon="11.5708516"><ele>240.5</ele><time>2026-04-25T10:56:55.074Z</time></trkpt><trkpt lat="43.2301661" lon="11.570703"><ele>240.25</ele><time>2026-04-25T10:56:56.073Z</time></trkpt><trkpt lat="43.2300897" lon="11.5705593"><ele>240.0</ele><time>2026-04-25T10:56:57.074Z</time></trkpt><trkpt lat="43.2300075" lon="11.5704343"><ele>239.8</ele><time>2026-04-25T10:56:58.074Z</time></trkpt><trkpt lat="43.2299207" lon="11.570322"><ele>239.6</ele><time>2026-04-25T10:56:59.073Z</time></trkpt><trkpt lat="43.2298414" lon="11.5702176"><ele>239.39999999999998</ele><time>2026-04-25T10:57:00.074Z</time></trkpt><trkpt lat="43.2297665" lon="11.570117"><ele>239.2</ele><time>2026-04-25T10:57:01.074Z</time></trkpt><trkpt lat="43.2296949" lon="11.5700204"><ele>239.0</ele><time>2026-04-25T10:57:02.074Z</time></trkpt><trkpt lat="43.2296179" lon="11.5699254"><ele>239.0</ele><time>2026-04-25T10:57:03.074Z</time></trkpt><trkpt lat="43.2295419" lon="11.5698221"><ele>238.99999999999997</ele><time>2026-04-25T10:57:04.074Z</time></trkpt><trkpt lat="43.2294667" lon="11.569709"><ele>238.99999999999997</ele><time>2026-04-25T10:57:05.074Z</time></trkpt><trkpt lat="43.2293952" lon="11.5695853"><ele>239.0</ele><time>2026-04-25T10:57:06.074Z</time></trkpt><trkpt lat="43.2293395" lon="11.5694512"><ele>239.0</ele><time>2026-04-25T10:57:07.074Z</time></trkpt><trkpt lat="43.2293031" lon="11.569292"><ele>238.75</ele><time>2026-04-25T10:57:08.074Z</time></trkpt><trkpt lat="43.2292712" lon="11.5691283"><ele>238.5</ele><time>2026-04-25T10:57:09.074Z</time></trkpt><trkpt lat="43.2292353" lon="11.5689779"><ele>238.25</ele><time>2026-04-25T10:57:10.074Z</time></trkpt><trkpt lat="43.2292007" lon="11.5688307"><ele>238.0</ele><time>2026-04-25T10:57:11.074Z</time></trkpt><trkpt lat="43.2291721" lon="11.5686857"><ele>237.8</ele><time>2026-04-25T10:57:12.074Z</time></trkpt><trkpt lat="43.2291554" lon="11.5685453"><ele>237.60000000000002</ele><time>2026-04-25T10:57:13.074Z</time></trkpt><trkpt lat="43.2291573" lon="11.5683951"><ele>237.39999999999998</ele><time>2026-04-25T10:57:14.074Z</time></trkpt><trkpt lat="43.2291768" lon="11.568235"><ele>237.2</ele><time>2026-04-25T10:57:15.074Z</time></trkpt><trkpt lat="43.2292328" lon="11.5680931"><ele>237.0</ele><time>2026-04-25T10:57:16.074Z</time></trkpt><trkpt lat="43.2293074" lon="11.5679474"><ele>236.75</ele><time>2026-04-25T10:57:17.074Z</time></trkpt><trkpt lat="43.2293845" lon="11.5677933"><ele>236.5</ele><time>2026-04-25T10:57:18.074Z</time></trkpt><trkpt lat="43.2294557" lon="11.5676269"><ele>236.25</ele><time>2026-04-25T10:57:19.074Z</time></trkpt><trkpt lat="43.2295304" lon="11.567459"><ele>236.0</ele><time>2026-04-25T10:57:20.074Z</time></trkpt><trkpt lat="43.2296064" lon="11.5672917"><ele>236.0</ele><time>2026-04-25T10:57:21.074Z</time></trkpt><trkpt lat="43.2296774" lon="11.5671249"><ele>236.0</ele><time>2026-04-25T10:57:22.074Z</time></trkpt><trkpt lat="43.2297548" lon="11.5669449"><ele>236.0</ele><time>2026-04-25T10:57:23.073Z</time></trkpt><trkpt lat="43.2298295" lon="11.5667673"><ele>236.0</ele><time>2026-04-25T10:57:24.074Z</time></trkpt><trkpt lat="43.2299029" lon="11.566595"><ele>235.75</ele><time>2026-04-25T10:57:25.073Z</time></trkpt><trkpt lat="43.2299741" lon="11.5664284"><ele>235.5</ele><time>2026-04-25T10:57:26.074Z</time></trkpt><trkpt lat="43.2300497" lon="11.5662583"><ele>235.25</ele><time>2026-04-25T10:57:27.074Z</time></trkpt><trkpt lat="43.2301216" lon="11.5660943"><ele>235.0</ele><time>2026-04-25T10:57:28.074Z</time></trkpt><trkpt lat="43.2301879" lon="11.5659395"><ele>235.0</ele><time>2026-04-25T10:57:29.074Z</time></trkpt><trkpt lat="43.2302469" lon="11.5657849"><ele>235.0</ele><time>2026-04-25T10:57:30.073Z</time></trkpt><trkpt lat="43.2303048" lon="11.5656385"><ele>235.0</ele><time>2026-04-25T10:57:31.074Z</time></trkpt><trkpt lat="43.2303531" lon="11.5654912"><ele>235.0</ele><time>2026-04-25T10:57:32.074Z</time></trkpt><trkpt lat="43.2304047" lon="11.5653487"><ele>234.8</ele><time>2026-04-25T10:57:33.074Z</time></trkpt><trkpt lat="43.2304543" lon="11.5652083"><ele>234.6</ele><time>2026-04-25T10:57:34.074Z</time></trkpt><trkpt lat="43.230502" lon="11.5650718"><ele>234.39999999999998</ele><time>2026-04-25T10:57:35.074Z</time></trkpt><trkpt lat="43.2305477" lon="11.5649387"><ele>234.2</ele><time>2026-04-25T10:57:36.074Z</time></trkpt><trkpt lat="43.2305944" lon="11.5648068"><ele>234.0</ele><time>2026-04-25T10:57:37.074Z</time></trkpt><trkpt lat="43.2306492" lon="11.5646626"><ele>232.25</ele><time>2026-04-25T10:57:38.074Z</time></trkpt><trkpt lat="43.230705" lon="11.56452"><ele>230.5</ele><time>2026-04-25T10:57:39.074Z</time></trkpt><trkpt lat="43.2307618" lon="11.5643728"><ele>228.75</ele><time>2026-04-25T10:57:40.073Z</time></trkpt><trkpt lat="43.2308207" lon="11.5642239"><ele>227.0</ele><time>2026-04-25T10:57:41.074Z</time></trkpt><trkpt lat="43.2308774" lon="11.564079"><ele>227.0</ele><time>2026-04-25T10:57:42.074Z</time></trkpt><trkpt lat="43.2309346" lon="11.5639321"><ele>227.0</ele><time>2026-04-25T10:57:43.074Z</time></trkpt><trkpt lat="43.2309992" lon="11.5638021"><ele>227.0</ele><time>2026-04-25T10:57:44.074Z</time></trkpt><trkpt lat="43.2310595" lon="11.5636866"><ele>227.0</ele><time>2026-04-25T10:57:45.074Z</time></trkpt><trkpt lat="43.2311156" lon="11.5635908"><ele>227.0</ele><time>2026-04-25T10:57:46.074Z</time></trkpt><trkpt lat="43.2311674" lon="11.5635149"><ele>227.0</ele><time>2026-04-25T10:57:47.074Z</time></trkpt><trkpt lat="43.2312238" lon="11.5634543"><ele>227.00000000000003</ele><time>2026-04-25T10:57:48.074Z</time></trkpt><trkpt lat="43.2312853" lon="11.5634056"><ele>227.0</ele><time>2026-04-25T10:57:49.074Z</time></trkpt><trkpt lat="43.2313505" lon="11.56337"><ele>227.0</ele><time>2026-04-25T10:57:50.073Z</time></trkpt><trkpt lat="43.2314201" lon="11.5633343"><ele>227.00000000000003</ele><time>2026-04-25T10:57:51.074Z</time></trkpt><trkpt lat="43.2314862" lon="11.5633046"><ele>227.0</ele><time>2026-04-25T10:57:52.074Z</time></trkpt><trkpt lat="43.2315593" lon="11.5632689"><ele>227.0</ele><time>2026-04-25T10:57:53.073Z</time></trkpt><trkpt lat="43.2316327" lon="11.5632315"><ele>226.00000000000003</ele><time>2026-04-25T10:57:54.074Z</time></trkpt><trkpt lat="43.2317053" lon="11.5631957"><ele>225.0</ele><time>2026-04-25T10:57:55.074Z</time></trkpt><trkpt lat="43.2317877" lon="11.5631583"><ele>224.0</ele><time>2026-04-25T10:57:56.074Z</time></trkpt><trkpt lat="43.2318732" lon="11.5631228"><ele>223.0</ele><time>2026-04-25T10:57:57.074Z</time></trkpt><trkpt lat="43.2319627" lon="11.5630882"><ele>222.00000000000003</ele><time>2026-04-25T10:57:58.073Z</time></trkpt><trkpt lat="43.2320521" lon="11.5630549"><ele>221.0</ele><time>2026-04-25T10:57:59.073Z</time></trkpt><trkpt lat="43.2321313" lon="11.5630208"><ele>221.00000000000003</ele><time>2026-04-25T10:58:00.074Z</time></trkpt><trkpt lat="43.232223" lon="11.562986"><ele>221.0</ele><time>2026-04-25T10:58:01.074Z</time></trkpt><trkpt lat="43.2323053" lon="11.562954"><ele>221.0</ele><time>2026-04-25T10:58:02.074Z</time></trkpt><trkpt lat="43.2323916" lon="11.5629235"><ele>221.0</ele><time>2026-04-25T10:58:03.074Z</time></trkpt><trkpt lat="43.2324831" lon="11.5628881"><ele>221.00000000000003</ele><time>2026-04-25T10:58:04.073Z</time></trkpt><trkpt lat="43.232564" lon="11.5628544"><ele>221.0</ele><time>2026-04-25T10:58:05.074Z</time></trkpt><trkpt lat="43.2326432" lon="11.5628315"><ele>220.14285714285717</ele><time>2026-04-25T10:58:06.074Z</time></trkpt><trkpt lat="43.2327138" lon="11.5628054"><ele>219.28571428571428</ele><time>2026-04-25T10:58:07.073Z</time></trkpt><trkpt lat="43.2327815" lon="11.5627842"><ele>218.42857142857144</ele><time>2026-04-25T10:58:08.074Z</time></trkpt><trkpt lat="43.2328479" lon="11.5627814"><ele>217.57142857142858</ele><time>2026-04-25T10:58:09.074Z</time></trkpt><trkpt lat="43.2329194" lon="11.5627927"><ele>216.71428571428572</ele><time>2026-04-25T10:58:10.074Z</time></trkpt><trkpt lat="43.2329868" lon="11.5628367"><ele>215.85714285714286</ele><time>2026-04-25T10:58:11.074Z</time></trkpt><trkpt lat="43.2330457" lon="11.5628922"><ele>215.0</ele><time>2026-04-25T10:58:12.074Z</time></trkpt><trkpt lat="43.2331556" lon="11.562955"><ele>214.00000000000003</ele><time>2026-04-25T10:58:14.074Z</time></trkpt><trkpt lat="43.2332573" lon="11.5630047"><ele>213.0</ele><time>2026-04-25T10:58:16.073Z</time></trkpt><trkpt lat="43.2333685" lon="11.5629618"><ele>212.0</ele><time>2026-04-25T10:58:18.074Z</time></trkpt><trkpt lat="43.2334205" lon="11.5629064"><ele>211.0</ele><time>2026-04-25T10:58:19.074Z</time></trkpt><trkpt lat="43.2334808" lon="11.5628563"><ele>210.00000000000003</ele><time>2026-04-25T10:58:20.074Z</time></trkpt><trkpt lat="43.2335378" lon="11.5628004"><ele>209.0</ele><time>2026-04-25T10:58:21.074Z</time></trkpt><trkpt lat="43.233605" lon="11.5627444"><ele>209.00000000000003</ele><time>2026-04-25T10:58:22.074Z</time></trkpt><trkpt lat="43.2336646" lon="11.5626903"><ele>209.0</ele><time>2026-04-25T10:58:23.074Z</time></trkpt><trkpt lat="43.2337229" lon="11.5626258"><ele>209.0</ele><time>2026-04-25T10:58:24.073Z</time></trkpt><trkpt lat="43.2337789" lon="11.5625799"><ele>209.0</ele><time>2026-04-25T10:58:25.074Z</time></trkpt><trkpt lat="43.233842" lon="11.5625349"><ele>209.00000000000003</ele><time>2026-04-25T10:58:26.074Z</time></trkpt><trkpt lat="43.233926" lon="11.5624742"><ele>209.0</ele><time>2026-04-25T10:58:28.074Z</time></trkpt><trkpt lat="43.2339894" lon="11.5624235"><ele>209.0</ele><time>2026-04-25T10:58:32.073Z</time></trkpt><trkpt lat="43.2339921" lon="11.5623148"><ele>209.0</ele><time>2026-04-25T10:58:35.074Z</time></trkpt><trkpt lat="43.2339155" lon="11.5621652"><ele>209.0</ele><time>2026-04-25T10:58:37.073Z</time></trkpt><trkpt lat="43.2338752" lon="11.5620816"><ele>209.0</ele><time>2026-04-25T10:58:38.074Z</time></trkpt><trkpt lat="43.2338104" lon="11.5619417"><ele>209.0</ele><time>2026-04-25T10:58:40.074Z</time></trkpt><trkpt lat="43.2337502" lon="11.5617919"><ele>208.50000000000003</ele><time>2026-04-25T10:58:42.074Z</time></trkpt><trkpt lat="43.2337147" lon="11.5617016"><ele>208.0</ele><time>2026-04-25T10:58:44.074Z</time></trkpt><trkpt lat="43.2337121" lon="11.5615939"><ele>207.5</ele><time>2026-04-25T10:58:47.073Z</time></trkpt><trkpt lat="43.2337514" lon="11.5614832"><ele>207.0</ele><time>2026-04-25T10:58:49.073Z</time></trkpt><trkpt lat="43.2337852" lon="11.5614033"><ele>206.50000000000003</ele><time>2026-04-25T10:58:50.074Z</time></trkpt><trkpt lat="43.2338321" lon="11.5613226"><ele>206.0</ele><time>2026-04-25T10:58:51.074Z</time></trkpt><trkpt lat="43.2338747" lon="11.5612499"><ele>205.83333333333334</ele><time>2026-04-25T10:58:52.073Z</time></trkpt><trkpt lat="43.2339198" lon="11.5611677"><ele>205.66666666666669</ele><time>2026-04-25T10:58:53.074Z</time></trkpt><trkpt lat="43.2339584" lon="11.5610737"><ele>205.5</ele><time>2026-04-25T10:58:54.074Z</time></trkpt><trkpt lat="43.233995" lon="11.5609741"><ele>205.33333333333331</ele><time>2026-04-25T10:58:55.074Z</time></trkpt><trkpt lat="43.234025" lon="11.5608791"><ele>205.16666666666666</ele><time>2026-04-25T10:58:56.073Z</time></trkpt><trkpt lat="43.23404" lon="11.5607799"><ele>205.0</ele><time>2026-04-25T10:58:57.073Z</time></trkpt><trkpt lat="43.2340485" lon="11.5606811"><ele>204.99999999999997</ele><time>2026-04-25T10:58:58.073Z</time></trkpt><trkpt lat="43.2340578" lon="11.5605955"><ele>205.0</ele><time>2026-04-25T10:58:59.074Z</time></trkpt><trkpt lat="43.2340366" lon="11.5604289"><ele>205.0</ele><time>2026-04-25T10:59:01.074Z</time></trkpt><trkpt lat="43.2340264" lon="11.5603322"><ele>205.0</ele><time>2026-04-25T10:59:02.074Z</time></trkpt><trkpt lat="43.2340136" lon="11.56022"><ele>204.99999999999997</ele><time>2026-04-25T10:59:03.074Z</time></trkpt><trkpt lat="43.2340104" lon="11.5600829"><ele>205.0</ele><time>2026-04-25T10:59:04.074Z</time></trkpt><trkpt lat="43.2339988" lon="11.5599249"><ele>203.75</ele><time>2026-04-25T10:59:05.074Z</time></trkpt><trkpt lat="43.2339852" lon="11.5597635"><ele>202.5</ele><time>2026-04-25T10:59:06.074Z</time></trkpt><trkpt lat="43.2339633" lon="11.5595984"><ele>201.25</ele><time>2026-04-25T10:59:07.074Z</time></trkpt><trkpt lat="43.2339317" lon="11.559433"><ele>200.0</ele><time>2026-04-25T10:59:08.074Z</time></trkpt><trkpt lat="43.233904" lon="11.5592751"><ele>198.0</ele><time>2026-04-25T10:59:09.074Z</time></trkpt><trkpt lat="43.2338794" lon="11.5591165"><ele>196.0</ele><time>2026-04-25T10:59:10.074Z</time></trkpt><trkpt lat="43.2338553" lon="11.5589612"><ele>194.0</ele><time>2026-04-25T10:59:11.074Z</time></trkpt><trkpt lat="43.2338336" lon="11.5588088"><ele>192.0</ele><time>2026-04-25T10:59:12.074Z</time></trkpt><trkpt lat="43.2338228" lon="11.5586547"><ele>189.75</ele><time>2026-04-25T10:59:13.074Z</time></trkpt><trkpt lat="43.2338461" lon="11.5584934"><ele>187.5</ele><time>2026-04-25T10:59:14.073Z</time></trkpt><trkpt lat="43.2339074" lon="11.558336"><ele>185.25</ele><time>2026-04-25T10:59:15.074Z</time></trkpt><trkpt lat="43.233996" lon="11.5582011"><ele>183.0</ele><time>2026-04-25T10:59:16.073Z</time></trkpt><trkpt lat="43.234091" lon="11.5580596"><ele>183.0</ele><time>2026-04-25T10:59:17.074Z</time></trkpt><trkpt lat="43.2341896" lon="11.557912"><ele>183.0</ele><time>2026-04-25T10:59:18.073Z</time></trkpt><trkpt lat="43.234291" lon="11.5577755"><ele>183.0</ele><time>2026-04-25T10:59:19.074Z</time></trkpt><trkpt lat="43.2343895" lon="11.5576342"><ele>183.0</ele><time>2026-04-25T10:59:20.074Z</time></trkpt><trkpt lat="43.2344737" lon="11.557504"><ele>182.75</ele><time>2026-04-25T10:59:21.073Z</time></trkpt><trkpt lat="43.2345609" lon="11.5573735"><ele>182.5</ele><time>2026-04-25T10:59:22.074Z</time></trkpt><trkpt lat="43.2346482" lon="11.5572429"><ele>182.25</ele><time>2026-04-25T10:59:23.074Z</time></trkpt><trkpt lat="43.2347464" lon="11.5571289"><ele>182.0</ele><time>2026-04-25T10:59:24.073Z</time></trkpt><trkpt lat="43.2348548" lon="11.5570409"><ele>180.5</ele><time>2026-04-25T10:59:25.074Z</time></trkpt><trkpt lat="43.2349727" lon="11.5569652"><ele>179.0</ele><time>2026-04-25T10:59:26.074Z</time></trkpt><trkpt lat="43.2350962" lon="11.5568982"><ele>177.5</ele><time>2026-04-25T10:59:27.074Z</time></trkpt><trkpt lat="43.2352199" lon="11.5568348"><ele>176.0</ele><time>2026-04-25T10:59:28.074Z</time></trkpt><trkpt lat="43.2353342" lon="11.5567715"><ele>176.0</ele><time>2026-04-25T10:59:29.074Z</time></trkpt><trkpt lat="43.2354436" lon="11.5567071"><ele>176.0</ele><time>2026-04-25T10:59:30.074Z</time></trkpt><trkpt lat="43.235547" lon="11.5566435"><ele>176.0</ele><time>2026-04-25T10:59:31.073Z</time></trkpt><trkpt lat="43.2356405" lon="11.556585"><ele>176.0</ele><time>2026-04-25T10:59:32.074Z</time></trkpt><trkpt lat="43.2357205" lon="11.5565317"><ele>176.0</ele><time>2026-04-25T10:59:33.073Z</time></trkpt><trkpt lat="43.2357882" lon="11.5564933"><ele>176.16666666666666</ele><time>2026-04-25T10:59:34.074Z</time></trkpt><trkpt lat="43.2358647" lon="11.5564755"><ele>176.33333333333331</ele><time>2026-04-25T10:59:36.073Z</time></trkpt><trkpt lat="43.2359314" lon="11.5564526"><ele>176.5</ele><time>2026-04-25T10:59:39.073Z</time></trkpt><trkpt lat="43.2359187" lon="11.5563017"><ele>176.66666666666666</ele><time>2026-04-25T10:59:42.074Z</time></trkpt><trkpt lat="43.235907" lon="11.5562018"><ele>176.83333333333334</ele><time>2026-04-25T10:59:43.074Z</time></trkpt><trkpt lat="43.2358854" lon="11.5561065"><ele>177.0</ele><time>2026-04-25T10:59:44.074Z</time></trkpt><trkpt lat="43.2358663" lon="11.5560014"><ele>177.33333333333334</ele><time>2026-04-25T10:59:45.074Z</time></trkpt><trkpt lat="43.235846" lon="11.5559137"><ele>177.66666666666666</ele><time>2026-04-25T10:59:46.074Z</time></trkpt><trkpt lat="43.2358108" lon="11.55584"><ele>178.0</ele><time>2026-04-25T10:59:47.074Z</time></trkpt><trkpt lat="43.2357449" lon="11.5558016"><ele>178.33333333333331</ele><time>2026-04-25T10:59:48.074Z</time></trkpt><trkpt lat="43.2356498" lon="11.5558001"><ele>178.66666666666666</ele><time>2026-04-25T10:59:49.073Z</time></trkpt><trkpt lat="43.2355462" lon="11.5557913"><ele>179.0</ele><time>2026-04-25T10:59:50.074Z</time></trkpt><trkpt lat="43.2354395" lon="11.5557608"><ele>179.39999999999998</ele><time>2026-04-25T10:59:51.073Z</time></trkpt><trkpt lat="43.2353346" lon="11.5557142"><ele>179.8</ele><time>2026-04-25T10:59:52.074Z</time></trkpt><trkpt lat="43.2352273" lon="11.5556759"><ele>180.2</ele><time>2026-04-25T10:59:53.074Z</time></trkpt><trkpt lat="43.235122" lon="11.5556294"><ele>180.60000000000002</ele><time>2026-04-25T10:59:54.073Z</time></trkpt><trkpt lat="43.2350242" lon="11.5555686"><ele>181.0</ele><time>2026-04-25T10:59:55.074Z</time></trkpt><trkpt lat="43.2349384" lon="11.555475"><ele>184.8</ele><time>2026-04-25T10:59:56.074Z</time></trkpt><trkpt lat="43.2348637" lon="11.5553625"><ele>188.60000000000002</ele><time>2026-04-25T10:59:57.074Z</time></trkpt><trkpt lat="43.2347901" lon="11.5552378"><ele>192.4</ele><time>2026-04-25T10:59:58.074Z</time></trkpt><trkpt lat="43.2347276" lon="11.5551109"><ele>196.2</ele><time>2026-04-25T10:59:59.074Z</time></trkpt><trkpt lat="43.2346668" lon="11.554986"><ele>200.0</ele><time>2026-04-25T11:00:00.073Z</time></trkpt><trkpt lat="43.2346122" lon="11.5548563"><ele>200.83333333333334</ele><time>2026-04-25T11:00:01.074Z</time></trkpt><trkpt lat="43.2345738" lon="11.5547394"><ele>201.66666666666669</ele><time>2026-04-25T11:00:02.074Z</time></trkpt><trkpt lat="43.2345267" lon="11.5546541"><ele>202.5</ele><time>2026-04-25T11:00:03.073Z</time></trkpt><trkpt lat="43.2344579" lon="11.5545963"><ele>203.33333333333331</ele><time>2026-04-25T11:00:04.074Z</time></trkpt><trkpt lat="43.2343724" lon="11.5545913"><ele>204.16666666666666</ele><time>2026-04-25T11:00:05.074Z</time></trkpt><trkpt lat="43.234287" lon="11.5546345"><ele>205.0</ele><time>2026-04-25T11:00:06.074Z</time></trkpt><trkpt lat="43.234217" lon="11.5547226"><ele>205.0</ele><time>2026-04-25T11:00:07.074Z</time></trkpt><trkpt lat="43.2341548" lon="11.5548287"><ele>205.0</ele><time>2026-04-25T11:00:08.074Z</time></trkpt><trkpt lat="43.2340807" lon="11.5549333"><ele>205.0</ele><time>2026-04-25T11:00:09.074Z</time></trkpt><trkpt lat="43.2340036" lon="11.5550379"><ele>205.0</ele><time>2026-04-25T11:00:10.074Z</time></trkpt><trkpt lat="43.233923" lon="11.555142"><ele>205.0</ele><time>2026-04-25T11:00:11.074Z</time></trkpt><trkpt lat="43.2338341" lon="11.5552438"><ele>205.8</ele><time>2026-04-25T11:00:12.074Z</time></trkpt><trkpt lat="43.233748" lon="11.5553399"><ele>206.6</ele><time>2026-04-25T11:00:13.073Z</time></trkpt><trkpt lat="43.2336549" lon="11.5554153"><ele>207.39999999999998</ele><time>2026-04-25T11:00:14.074Z</time></trkpt><trkpt lat="43.2335709" lon="11.5554685"><ele>208.2</ele><time>2026-04-25T11:00:15.074Z</time></trkpt><trkpt lat="43.2334784" lon="11.5555032"><ele>209.0</ele><time>2026-04-25T11:00:16.073Z</time></trkpt><trkpt lat="43.2333794" lon="11.5555304"><ele>209.00000000000003</ele><time>2026-04-25T11:00:17.074Z</time></trkpt><trkpt lat="43.2332849" lon="11.5555357"><ele>209.0</ele><time>2026-04-25T11:00:18.073Z</time></trkpt><trkpt lat="43.2331961" lon="11.5555303"><ele>209.0</ele><time>2026-04-25T11:00:19.073Z</time></trkpt><trkpt lat="43.2331177" lon="11.5555004"><ele>209.0</ele><time>2026-04-25T11:00:20.073Z</time></trkpt><trkpt lat="43.233044" lon="11.5554378"><ele>209.00000000000003</ele><time>2026-04-25T11:00:21.073Z</time></trkpt><trkpt lat="43.2329842" lon="11.5553515"><ele>209.0</ele><time>2026-04-25T11:00:22.074Z</time></trkpt><trkpt lat="43.2329211" lon="11.5552623"><ele>212.83333333333334</ele><time>2026-04-25T11:00:23.074Z</time></trkpt><trkpt lat="43.2328664" lon="11.5551744"><ele>216.66666666666669</ele><time>2026-04-25T11:00:24.074Z</time></trkpt><trkpt lat="43.2328229" lon="11.5551095"><ele>220.5</ele><time>2026-04-25T11:00:25.074Z</time></trkpt><trkpt lat="43.2327522" lon="11.5550373"><ele>224.33333333333331</ele><time>2026-04-25T11:00:27.074Z</time></trkpt><trkpt lat="43.2326421" lon="11.5550224"><ele>228.16666666666666</ele><time>2026-04-25T11:00:30.074Z</time></trkpt><trkpt lat="43.2325806" lon="11.5550415"><ele>232.0</ele><time>2026-04-25T11:00:31.074Z</time></trkpt><trkpt lat="43.232511" lon="11.5550847"><ele>232.0</ele><time>2026-04-25T11:00:32.074Z</time></trkpt><trkpt lat="43.2324264" lon="11.5551354"><ele>232.0</ele><time>2026-04-25T11:00:33.074Z</time></trkpt><trkpt lat="43.2323376" lon="11.5551947"><ele>232.0</ele><time>2026-04-25T11:00:34.074Z</time></trkpt><trkpt lat="43.2322414" lon="11.5552416"><ele>232.0</ele><time>2026-04-25T11:00:35.073Z</time></trkpt><trkpt lat="43.2321324" lon="11.5553008"><ele>232.0</ele><time>2026-04-25T11:00:36.073Z</time></trkpt><trkpt lat="43.2320218" lon="11.5553683"><ele>232.0</ele><time>2026-04-25T11:00:37.073Z</time></trkpt><trkpt lat="43.2319006" lon="11.5554255"><ele>232.0</ele><time>2026-04-25T11:00:38.073Z</time></trkpt><trkpt lat="43.2317729" lon="11.5554733"><ele>232.0</ele><time>2026-04-25T11:00:39.074Z</time></trkpt><trkpt lat="43.2316416" lon="11.5555032"><ele>232.0</ele><time>2026-04-25T11:00:40.074Z</time></trkpt><trkpt lat="43.2314988" lon="11.5555127"><ele>232.33333333333331</ele><time>2026-04-25T11:00:41.073Z</time></trkpt><trkpt lat="43.231354" lon="11.5554935"><ele>232.66666666666669</ele><time>2026-04-25T11:00:42.074Z</time></trkpt><trkpt lat="43.2312056" lon="11.5554598"><ele>233.0</ele><time>2026-04-25T11:00:43.074Z</time></trkpt><trkpt lat="43.2310529" lon="11.5553996"><ele>235.33333333333334</ele><time>2026-04-25T11:00:44.074Z</time></trkpt><trkpt lat="43.2309018" lon="11.5553044"><ele>237.66666666666669</ele><time>2026-04-25T11:00:45.073Z</time></trkpt><trkpt lat="43.2307533" lon="11.5551879"><ele>240.0</ele><time>2026-04-25T11:00:46.074Z</time></trkpt><trkpt lat="43.2306073" lon="11.5550661"><ele>240.0</ele><time>2026-04-25T11:00:47.074Z</time></trkpt><trkpt lat="43.2304564" lon="11.5549526"><ele>240.0</ele><time>2026-04-25T11:00:48.074Z</time></trkpt><trkpt lat="43.2303043" lon="11.5548383"><ele>240.0</ele><time>2026-04-25T11:00:49.074Z</time></trkpt><trkpt lat="43.2301458" lon="11.554722"><ele>240.0</ele><time>2026-04-25T11:00:50.074Z</time></trkpt><trkpt lat="43.2299928" lon="11.5546022"><ele>240.0</ele><time>2026-04-25T11:00:51.074Z</time></trkpt><trkpt lat="43.2298407" lon="11.5544856"><ele>240.0</ele><time>2026-04-25T11:00:52.074Z</time></trkpt><trkpt lat="43.2296875" lon="11.5543756"><ele>244.33333333333331</ele><time>2026-04-25T11:00:53.073Z</time></trkpt><trkpt lat="43.2295369" lon="11.5542648"><ele>248.66666666666666</ele><time>2026-04-25T11:00:54.074Z</time></trkpt><trkpt lat="43.2293837" lon="11.5541594"><ele>253.0</ele><time>2026-04-25T11:00:55.074Z</time></trkpt><trkpt lat="43.2292278" lon="11.5540555"><ele>253.0</ele><time>2026-04-25T11:00:56.074Z</time></trkpt><trkpt lat="43.2290637" lon="11.5539701"><ele>253.0</ele><time>2026-04-25T11:00:57.074Z</time></trkpt><trkpt lat="43.2288955" lon="11.5539131"><ele>253.0</ele><time>2026-04-25T11:00:58.073Z</time></trkpt><trkpt lat="43.2287258" lon="11.5538663"><ele>253.0</ele><time>2026-04-25T11:00:59.074Z</time></trkpt><trkpt lat="43.2285546" lon="11.553804"><ele>253.0</ele><time>2026-04-25T11:01:00.074Z</time></trkpt><trkpt lat="43.2283831" lon="11.5537361"><ele>253.0</ele><time>2026-04-25T11:01:01.074Z</time></trkpt><trkpt lat="43.228217" lon="11.5536576"><ele>255.66666666666666</ele><time>2026-04-25T11:01:02.073Z</time></trkpt><trkpt lat="43.2280614" lon="11.5535546"><ele>258.3333333333333</ele><time>2026-04-25T11:01:03.073Z</time></trkpt><trkpt lat="43.2279203" lon="11.5534132"><ele>261.0</ele><time>2026-04-25T11:01:04.074Z</time></trkpt><trkpt lat="43.2277757" lon="11.5532756"><ele>261.0</ele><time>2026-04-25T11:01:05.074Z</time></trkpt><trkpt lat="43.2276292" lon="11.5531297"><ele>261.0</ele><time>2026-04-25T11:01:06.074Z</time></trkpt><trkpt lat="43.227488" lon="11.5529869"><ele>261.0</ele><time>2026-04-25T11:01:07.073Z</time></trkpt><trkpt lat="43.2273529" lon="11.5528344"><ele>262.0</ele><time>2026-04-25T11:01:08.074Z</time></trkpt><trkpt lat="43.2272148" lon="11.5526802"><ele>263.0</ele><time>2026-04-25T11:01:09.074Z</time></trkpt><trkpt lat="43.227074" lon="11.5525347"><ele>264.0</ele><time>2026-04-25T11:01:10.074Z</time></trkpt><trkpt lat="43.2269226" lon="11.5524045"><ele>264.0</ele><time>2026-04-25T11:01:11.074Z</time></trkpt><trkpt lat="43.2267715" lon="11.552278"><ele>264.0</ele><time>2026-04-25T11:01:12.073Z</time></trkpt><trkpt lat="43.2266294" lon="11.5521456"><ele>264.0</ele><time>2026-04-25T11:01:13.074Z</time></trkpt><trkpt lat="43.2264989" lon="11.5520063"><ele>265.6666666666667</ele><time>2026-04-25T11:01:14.073Z</time></trkpt><trkpt lat="43.2263872" lon="11.5518381"><ele>267.33333333333337</ele><time>2026-04-25T11:01:15.074Z</time></trkpt><trkpt lat="43.2262877" lon="11.5516532"><ele>269.0</ele><time>2026-04-25T11:01:16.073Z</time></trkpt><trkpt lat="43.2261863" lon="11.5514738"><ele>269.0</ele><time>2026-04-25T11:01:17.074Z</time></trkpt><trkpt lat="43.226055" lon="11.5513266"><ele>269.0</ele><time>2026-04-25T11:01:18.074Z</time></trkpt><trkpt lat="43.2258868" lon="11.5512132"><ele>269.0</ele><time>2026-04-25T11:01:19.074Z</time></trkpt><trkpt lat="43.2257176" lon="11.5511046"><ele>270.0</ele><time>2026-04-25T11:01:20.073Z</time></trkpt><trkpt lat="43.2255483" lon="11.5510055"><ele>271.0</ele><time>2026-04-25T11:01:21.074Z</time></trkpt><trkpt lat="43.2253733" lon="11.5509133"><ele>272.0</ele><time>2026-04-25T11:01:22.074Z</time></trkpt><trkpt lat="43.2251956" lon="11.5508242"><ele>272.0</ele><time>2026-04-25T11:01:23.074Z</time></trkpt><trkpt lat="43.2250195" lon="11.5507398"><ele>272.0</ele><time>2026-04-25T11:01:24.073Z</time></trkpt><trkpt lat="43.2248382" lon="11.5506628"><ele>272.0</ele><time>2026-04-25T11:01:25.074Z</time></trkpt><trkpt lat="43.224656" lon="11.5505947"><ele>271.33333333333337</ele><time>2026-04-25T11:01:26.074Z</time></trkpt><trkpt lat="43.2244701" lon="11.5505182"><ele>270.6666666666667</ele><time>2026-04-25T11:01:27.074Z</time></trkpt><trkpt lat="43.2242848" lon="11.5504414"><ele>270.0</ele><time>2026-04-25T11:01:28.074Z</time></trkpt><trkpt lat="43.2240982" lon="11.5503662"><ele>275.0</ele><time>2026-04-25T11:01:29.074Z</time></trkpt><trkpt lat="43.2239094" lon="11.5502966"><ele>280.0</ele><time>2026-04-25T11:01:30.074Z</time></trkpt><trkpt lat="43.2237137" lon="11.5502418"><ele>285.0</ele><time>2026-04-25T11:01:31.074Z</time></trkpt><trkpt lat="43.2235134" lon="11.5502165"><ele>285.0</ele><time>2026-04-25T11:01:32.074Z</time></trkpt><trkpt lat="43.2233089" lon="11.5502011"><ele>285.0</ele><time>2026-04-25T11:01:33.074Z</time></trkpt><trkpt lat="43.223106" lon="11.5501783"><ele>285.0</ele><time>2026-04-25T11:01:34.074Z</time></trkpt><trkpt lat="43.2229013" lon="11.5501558"><ele>288.0</ele><time>2026-04-25T11:01:35.074Z</time></trkpt><trkpt lat="43.2226969" lon="11.5501358"><ele>291.0</ele><time>2026-04-25T11:01:36.074Z</time></trkpt><trkpt lat="43.2224989" lon="11.5501061"><ele>294.0</ele><time>2026-04-25T11:01:37.074Z</time></trkpt><trkpt lat="43.2223016" lon="11.5500832"><ele>295.3333333333333</ele><time>2026-04-25T11:01:38.074Z</time></trkpt><trkpt lat="43.2221055" lon="11.5500785"><ele>296.66666666666663</ele><time>2026-04-25T11:01:39.074Z</time></trkpt><trkpt lat="43.2219118" lon="11.5501032"><ele>298.0</ele><time>2026-04-25T11:01:40.073Z</time></trkpt><trkpt lat="43.2217279" lon="11.5501441"><ele>298.0</ele><time>2026-04-25T11:01:41.074Z</time></trkpt><trkpt lat="43.2215536" lon="11.5501702"><ele>298.0</ele><time>2026-04-25T11:01:42.074Z</time></trkpt><trkpt lat="43.2213919" lon="11.5501608"><ele>298.0</ele><time>2026-04-25T11:01:43.073Z</time></trkpt><trkpt lat="43.2212392" lon="11.5501342"><ele>301.0</ele><time>2026-04-25T11:01:44.074Z</time></trkpt><trkpt lat="43.2210872" lon="11.5500857"><ele>304.0</ele><time>2026-04-25T11:01:45.074Z</time></trkpt><trkpt lat="43.2209283" lon="11.5500318"><ele>307.0</ele><time>2026-04-25T11:01:46.074Z</time></trkpt><trkpt lat="43.2207613" lon="11.5499714"><ele>310.0</ele><time>2026-04-25T11:01:47.074Z</time></trkpt><trkpt lat="43.2205929" lon="11.5499159"><ele>313.0</ele><time>2026-04-25T11:01:48.074Z</time></trkpt><trkpt lat="43.2204242" lon="11.5498669"><ele>316.0</ele><time>2026-04-25T11:01:49.074Z</time></trkpt><trkpt lat="43.2202564" lon="11.5498096"><ele>316.0</ele><time>2026-04-25T11:01:50.074Z</time></trkpt><trkpt lat="43.220087" lon="11.5497498"><ele>316.0</ele><time>2026-04-25T11:01:51.073Z</time></trkpt><trkpt lat="43.219914" lon="11.549684"><ele>316.0</ele><time>2026-04-25T11:01:52.074Z</time></trkpt><trkpt lat="43.2197392" lon="11.5496109"><ele>317.0</ele><time>2026-04-25T11:01:53.073Z</time></trkpt><trkpt lat="43.2195648" lon="11.5495304"><ele>318.0</ele><time>2026-04-25T11:01:54.073Z</time></trkpt><trkpt lat="43.219388" lon="11.5494525"><ele>319.0</ele><time>2026-04-25T11:01:55.074Z</time></trkpt><trkpt lat="43.2192087" lon="11.5493804"><ele>319.0</ele><time>2026-04-25T11:01:56.074Z</time></trkpt><trkpt lat="43.2190296" lon="11.5493095"><ele>319.0</ele><time>2026-04-25T11:01:57.073Z</time></trkpt><trkpt lat="43.218845" lon="11.5492501"><ele>319.0</ele><time>2026-04-25T11:01:58.073Z</time></trkpt><trkpt lat="43.2186518" lon="11.549186"><ele>319.3333333333333</ele><time>2026-04-25T11:01:59.074Z</time></trkpt><trkpt lat="43.2184564" lon="11.5491285"><ele>319.6666666666667</ele><time>2026-04-25T11:02:00.074Z</time></trkpt><trkpt lat="43.2182587" lon="11.5490634"><ele>320.0</ele><time>2026-04-25T11:02:01.074Z</time></trkpt><trkpt lat="43.2180652" lon="11.5489842"><ele>319.33333333333337</ele><time>2026-04-25T11:02:02.073Z</time></trkpt><trkpt lat="43.2178802" lon="11.5488863"><ele>318.6666666666667</ele><time>2026-04-25T11:02:03.074Z</time></trkpt><trkpt lat="43.2177109" lon="11.5487667"><ele>318.0</ele><time>2026-04-25T11:02:04.073Z</time></trkpt><trkpt lat="43.2175492" lon="11.5486522"><ele>318.0</ele><time>2026-04-25T11:02:05.074Z</time></trkpt><trkpt lat="43.2173849" lon="11.5485586"><ele>318.0</ele><time>2026-04-25T11:02:06.074Z</time></trkpt><trkpt lat="43.2172135" lon="11.5484759"><ele>318.0</ele><time>2026-04-25T11:02:07.073Z</time></trkpt><trkpt lat="43.2170333" lon="11.5484037"><ele>318.3333333333333</ele><time>2026-04-25T11:02:08.074Z</time></trkpt><trkpt lat="43.2168433" lon="11.5483505"><ele>318.66666666666663</ele><time>2026-04-25T11:02:09.074Z</time></trkpt><trkpt lat="43.216644" lon="11.5483245"><ele>319.0</ele><time>2026-04-25T11:02:10.074Z</time></trkpt><trkpt lat="43.2164457" lon="11.5483108"><ele>320.0</ele><time>2026-04-25T11:02:11.074Z</time></trkpt><trkpt lat="43.2162314" lon="11.5483081"><ele>321.0</ele><time>2026-04-25T11:02:12.074Z</time></trkpt><trkpt lat="43.2160197" lon="11.5482908"><ele>322.0</ele><time>2026-04-25T11:02:13.074Z</time></trkpt><trkpt lat="43.2158063" lon="11.5482595"><ele>323.3333333333333</ele><time>2026-04-25T11:02:14.074Z</time></trkpt><trkpt lat="43.2156005" lon="11.5482089"><ele>324.6666666666667</ele><time>2026-04-25T11:02:15.074Z</time></trkpt><trkpt lat="43.2154" lon="11.5481424"><ele>326.0</ele><time>2026-04-25T11:02:16.073Z</time></trkpt><trkpt lat="43.2152056" lon="11.5480647"><ele>326.0</ele><time>2026-04-25T11:02:17.073Z</time></trkpt><trkpt lat="43.2150127" lon="11.5479804"><ele>326.0</ele><time>2026-04-25T11:02:18.074Z</time></trkpt><trkpt lat="43.2148242" lon="11.5478966"><ele>326.0</ele><time>2026-04-25T11:02:19.074Z</time></trkpt><trkpt lat="43.2146391" lon="11.5478123"><ele>327.6666666666667</ele><time>2026-04-25T11:02:20.074Z</time></trkpt><trkpt lat="43.2144518" lon="11.5477385"><ele>329.3333333333333</ele><time>2026-04-25T11:02:21.074Z</time></trkpt><trkpt lat="43.2142613" lon="11.5476636"><ele>331.0</ele><time>2026-04-25T11:02:22.074Z</time></trkpt><trkpt lat="43.2140691" lon="11.547586"><ele>331.3333333333333</ele><time>2026-04-25T11:02:23.074Z</time></trkpt><trkpt lat="43.2138775" lon="11.5475116"><ele>331.6666666666667</ele><time>2026-04-25T11:02:24.074Z</time></trkpt><trkpt lat="43.2136928" lon="11.547439"><ele>332.0</ele><time>2026-04-25T11:02:25.074Z</time></trkpt><trkpt lat="43.2135202" lon="11.5473617"><ele>332.0</ele><time>2026-04-25T11:02:26.074Z</time></trkpt><trkpt lat="43.2133696" lon="11.5472566"><ele>332.0</ele><time>2026-04-25T11:02:27.074Z</time></trkpt><trkpt lat="43.213222" lon="11.5471403"><ele>332.0</ele><time>2026-04-25T11:02:28.074Z</time></trkpt><trkpt lat="43.2130859" lon="11.5470293"><ele>332.5</ele><time>2026-04-25T11:02:29.074Z</time></trkpt><trkpt lat="43.2129815" lon="11.5468968"><ele>333.0</ele><time>2026-04-25T11:02:30.074Z</time></trkpt><trkpt lat="43.2129044" lon="11.5467485"><ele>333.5</ele><time>2026-04-25T11:02:31.074Z</time></trkpt><trkpt lat="43.2128358" lon="11.5465747"><ele>334.0</ele><time>2026-04-25T11:02:32.073Z</time></trkpt><trkpt lat="43.2127732" lon="11.5463985"><ele>331.75</ele><time>2026-04-25T11:02:33.074Z</time></trkpt><trkpt lat="43.212714" lon="11.5462014"><ele>329.5</ele><time>2026-04-25T11:02:34.074Z</time></trkpt><trkpt lat="43.2126555" lon="11.5460209"><ele>327.25</ele><time>2026-04-25T11:02:35.074Z</time></trkpt><trkpt lat="43.212605" lon="11.5458435"><ele>325.0</ele><time>2026-04-25T11:02:36.074Z</time></trkpt><trkpt lat="43.2125623" lon="11.5456741"><ele>325.0</ele><time>2026-04-25T11:02:37.074Z</time></trkpt><trkpt lat="43.2125243" lon="11.5455106"><ele>325.0</ele><time>2026-04-25T11:02:38.074Z</time></trkpt><trkpt lat="43.2124941" lon="11.5453586"><ele>325.0</ele><time>2026-04-25T11:02:39.074Z</time></trkpt><trkpt lat="43.2124762" lon="11.5452131"><ele>325.0</ele><time>2026-04-25T11:02:40.073Z</time></trkpt><trkpt lat="43.2124615" lon="11.5450786"><ele>325.0</ele><time>2026-04-25T11:02:41.073Z</time></trkpt><trkpt lat="43.2124449" lon="11.5449642"><ele>323.2</ele><time>2026-04-25T11:02:42.074Z</time></trkpt><trkpt lat="43.212417" lon="11.5448627"><ele>321.4</ele><time>2026-04-25T11:02:43.074Z</time></trkpt><trkpt lat="43.2123526" lon="11.5447961"><ele>319.6</ele><time>2026-04-25T11:02:44.074Z</time></trkpt><trkpt lat="43.2122569" lon="11.5447716"><ele>317.8</ele><time>2026-04-25T11:02:45.074Z</time></trkpt><trkpt lat="43.2121503" lon="11.544765"><ele>316.0</ele><time>2026-04-25T11:02:46.074Z</time></trkpt><trkpt lat="43.2120587" lon="11.5446964"><ele>316.0</ele><time>2026-04-25T11:02:47.073Z</time></trkpt><trkpt lat="43.2120038" lon="11.5445832"><ele>316.0</ele><time>2026-04-25T11:02:48.074Z</time></trkpt><trkpt lat="43.2119883" lon="11.5443945"><ele>316.0</ele><time>2026-04-25T11:02:49.074Z</time></trkpt><trkpt lat="43.2119568" lon="11.5442112"><ele>316.0</ele><time>2026-04-25T11:02:50.074Z</time></trkpt><trkpt lat="43.2119102" lon="11.5440186"><ele>311.66666666666663</ele><time>2026-04-25T11:02:51.074Z</time></trkpt><trkpt lat="43.2118651" lon="11.5438239"><ele>307.3333333333333</ele><time>2026-04-25T11:02:52.074Z</time></trkpt><trkpt lat="43.2118104" lon="11.5436026"><ele>303.0</ele><time>2026-04-25T11:02:53.074Z</time></trkpt><trkpt lat="43.2117693" lon="11.54337"><ele>299.3333333333333</ele><time>2026-04-25T11:02:54.074Z</time></trkpt><trkpt lat="43.2117316" lon="11.5431276"><ele>295.66666666666663</ele><time>2026-04-25T11:02:55.074Z</time></trkpt><trkpt lat="43.2117039" lon="11.542887"><ele>292.0</ele><time>2026-04-25T11:02:56.074Z</time></trkpt><trkpt lat="43.2116847" lon="11.5426585"><ele>290.0</ele><time>2026-04-25T11:02:57.074Z</time></trkpt><trkpt lat="43.2116604" lon="11.5424421"><ele>288.0</ele><time>2026-04-25T11:02:58.074Z</time></trkpt><trkpt lat="43.2116305" lon="11.5422436"><ele>286.0</ele><time>2026-04-25T11:02:59.074Z</time></trkpt><trkpt lat="43.2115755" lon="11.5420556"><ele>285.3333333333333</ele><time>2026-04-25T11:03:00.074Z</time></trkpt><trkpt lat="43.2114835" lon="11.5418944"><ele>284.6666666666667</ele><time>2026-04-25T11:03:01.073Z</time></trkpt><trkpt lat="43.2113631" lon="11.5417688"><ele>284.0</ele><time>2026-04-25T11:03:02.074Z</time></trkpt><trkpt lat="43.2112243" lon="11.5416493"><ele>284.0</ele><time>2026-04-25T11:03:03.074Z</time></trkpt><trkpt lat="43.2110741" lon="11.5415506"><ele>284.0</ele><time>2026-04-25T11:03:04.074Z</time></trkpt><trkpt lat="43.2109176" lon="11.5414674"><ele>284.0</ele><time>2026-04-25T11:03:05.073Z</time></trkpt><trkpt lat="43.210756" lon="11.5414071"><ele>282.33333333333337</ele><time>2026-04-25T11:03:06.074Z</time></trkpt><trkpt lat="43.2105814" lon="11.5413692"><ele>280.6666666666667</ele><time>2026-04-25T11:03:07.074Z</time></trkpt><trkpt lat="43.2104046" lon="11.5413511"><ele>279.0</ele><time>2026-04-25T11:03:08.074Z</time></trkpt><trkpt lat="43.2102222" lon="11.5413372"><ele>279.0</ele><time>2026-04-25T11:03:09.074Z</time></trkpt><trkpt lat="43.2100405" lon="11.5413172"><ele>279.0</ele><time>2026-04-25T11:03:10.074Z</time></trkpt><trkpt lat="43.209858" lon="11.5413067"><ele>279.0</ele><time>2026-04-25T11:03:11.074Z</time></trkpt><trkpt lat="43.2096715" lon="11.5413025"><ele>280.6666666666667</ele><time>2026-04-25T11:03:12.074Z</time></trkpt><trkpt lat="43.2094848" lon="11.5413115"><ele>282.33333333333337</ele><time>2026-04-25T11:03:13.074Z</time></trkpt><trkpt lat="43.2093032" lon="11.5413347"><ele>284.0</ele><time>2026-04-25T11:03:14.073Z</time></trkpt><trkpt lat="43.2091259" lon="11.5413763"><ele>286.6666666666667</ele><time>2026-04-25T11:03:15.073Z</time></trkpt><trkpt lat="43.2089538" lon="11.5414242"><ele>289.3333333333333</ele><time>2026-04-25T11:03:16.074Z</time></trkpt><trkpt lat="43.2087999" lon="11.5414788"><ele>292.0</ele><time>2026-04-25T11:03:17.074Z</time></trkpt><trkpt lat="43.2086603" lon="11.541553"><ele>292.0</ele><time>2026-04-25T11:03:18.074Z</time></trkpt><trkpt lat="43.2085293" lon="11.5416402"><ele>292.0</ele><time>2026-04-25T11:03:19.074Z</time></trkpt><trkpt lat="43.2083855" lon="11.541715"><ele>292.0</ele><time>2026-04-25T11:03:20.074Z</time></trkpt><trkpt lat="43.2082269" lon="11.5417648"><ele>294.3333333333333</ele><time>2026-04-25T11:03:21.074Z</time></trkpt><trkpt lat="43.2080684" lon="11.5417729"><ele>296.6666666666667</ele><time>2026-04-25T11:03:22.074Z</time></trkpt><trkpt lat="43.2079012" lon="11.5417557"><ele>299.0</ele><time>2026-04-25T11:03:23.074Z</time></trkpt><trkpt lat="43.2077307" lon="11.5417226"><ele>299.0</ele><time>2026-04-25T11:03:24.073Z</time></trkpt><trkpt lat="43.2075647" lon="11.5416734"><ele>299.0</ele><time>2026-04-25T11:03:25.074Z</time></trkpt><trkpt lat="43.2073982" lon="11.5416147"><ele>299.0</ele><time>2026-04-25T11:03:26.073Z</time></trkpt><trkpt lat="43.2072389" lon="11.5415663"><ele>299.25</ele><time>2026-04-25T11:03:27.074Z</time></trkpt><trkpt lat="43.2070947" lon="11.5415317"><ele>299.5</ele><time>2026-04-25T11:03:28.074Z</time></trkpt><trkpt lat="43.2069683" lon="11.5415125"><ele>299.75</ele><time>2026-04-25T11:03:29.074Z</time></trkpt><trkpt lat="43.20685" lon="11.5415228"><ele>300.0</ele><time>2026-04-25T11:03:30.074Z</time></trkpt><trkpt lat="43.2067405" lon="11.5415827"><ele>300.0</ele><time>2026-04-25T11:03:31.073Z</time></trkpt><trkpt lat="43.2066287" lon="11.5416844"><ele>300.0</ele><time>2026-04-25T11:03:32.073Z</time></trkpt><trkpt lat="43.2065223" lon="11.5418087"><ele>300.0</ele><time>2026-04-25T11:03:33.074Z</time></trkpt><trkpt lat="43.2064165" lon="11.5419479"><ele>300.0</ele><time>2026-04-25T11:03:34.073Z</time></trkpt><trkpt lat="43.2063071" lon="11.5420733"><ele>296.6666666666667</ele><time>2026-04-25T11:03:35.074Z</time></trkpt><trkpt lat="43.2061697" lon="11.5421573"><ele>293.33333333333337</ele><time>2026-04-25T11:03:36.074Z</time></trkpt><trkpt lat="43.2060151" lon="11.5422283"><ele>290.0</ele><time>2026-04-25T11:03:37.074Z</time></trkpt><trkpt lat="43.2058525" lon="11.5422734"><ele>290.0</ele><time>2026-04-25T11:03:38.074Z</time></trkpt><trkpt lat="43.2056839" lon="11.5423422"><ele>290.0</ele><time>2026-04-25T11:03:39.073Z</time></trkpt><trkpt lat="43.2055115" lon="11.5424229"><ele>290.0</ele><time>2026-04-25T11:03:40.073Z</time></trkpt><trkpt lat="43.2053404" lon="11.5425366"><ele>290.0</ele><time>2026-04-25T11:03:41.074Z</time></trkpt><trkpt lat="43.2051765" lon="11.5426531"><ele>290.0</ele><time>2026-04-25T11:03:42.074Z</time></trkpt><trkpt lat="43.2050113" lon="11.5427491"><ele>290.0</ele><time>2026-04-25T11:03:43.074Z</time></trkpt><trkpt lat="43.2048536" lon="11.5428188"><ele>291.33333333333337</ele><time>2026-04-25T11:03:44.073Z</time></trkpt><trkpt lat="43.2046949" lon="11.542859"><ele>292.6666666666667</ele><time>2026-04-25T11:03:45.073Z</time></trkpt><trkpt lat="43.2045452" lon="11.5428887"><ele>294.0</ele><time>2026-04-25T11:03:46.074Z</time></trkpt><trkpt lat="43.2043986" lon="11.5429183"><ele>294.0</ele><time>2026-04-25T11:03:47.074Z</time></trkpt><trkpt lat="43.2042551" lon="11.542927"><ele>294.0</ele><time>2026-04-25T11:03:48.073Z</time></trkpt><trkpt lat="43.2041109" lon="11.5429282"><ele>294.0</ele><time>2026-04-25T11:03:49.074Z</time></trkpt><trkpt lat="43.2039747" lon="11.5429292"><ele>294.0</ele><time>2026-04-25T11:03:50.073Z</time></trkpt><trkpt lat="43.2038382" lon="11.5429575"><ele>294.3333333333333</ele><time>2026-04-25T11:03:51.074Z</time></trkpt><trkpt lat="43.2036949" lon="11.5430157"><ele>294.66666666666663</ele><time>2026-04-25T11:03:52.073Z</time></trkpt><trkpt lat="43.2035445" lon="11.5431162"><ele>295.0</ele><time>2026-04-25T11:03:53.073Z</time></trkpt><trkpt lat="43.203392" lon="11.5432015"><ele>295.0</ele><time>2026-04-25T11:03:54.074Z</time></trkpt><trkpt lat="43.2032347" lon="11.5432882"><ele>295.0</ele><time>2026-04-25T11:03:55.074Z</time></trkpt><trkpt lat="43.2030858" lon="11.5433851"><ele>295.0</ele><time>2026-04-25T11:03:56.074Z</time></trkpt><trkpt lat="43.2029345" lon="11.5434908"><ele>296.75</ele><time>2026-04-25T11:03:57.073Z</time></trkpt><trkpt lat="43.2027919" lon="11.5435917"><ele>298.5</ele><time>2026-04-25T11:03:58.074Z</time></trkpt><trkpt lat="43.2026579" lon="11.5436851"><ele>300.25</ele><time>2026-04-25T11:03:59.073Z</time></trkpt><trkpt lat="43.2025331" lon="11.5437423"><ele>302.0</ele><time>2026-04-25T11:04:00.074Z</time></trkpt><trkpt lat="43.2024038" lon="11.5438059"><ele>298.5</ele><time>2026-04-25T11:04:01.074Z</time></trkpt><trkpt lat="43.2022644" lon="11.5438525"><ele>295.0</ele><time>2026-04-25T11:04:02.074Z</time></trkpt><trkpt lat="43.2021104" lon="11.5438677"><ele>291.5</ele><time>2026-04-25T11:04:03.074Z</time></trkpt><trkpt lat="43.201964" lon="11.543861"><ele>288.0</ele><time>2026-04-25T11:04:04.073Z</time></trkpt><trkpt lat="43.2018174" lon="11.543855"><ele>288.0</ele><time>2026-04-25T11:04:05.074Z</time></trkpt><trkpt lat="43.2016738" lon="11.5438542"><ele>288.0</ele><time>2026-04-25T11:04:06.074Z</time></trkpt><trkpt lat="43.201534" lon="11.5438574"><ele>288.0</ele><time>2026-04-25T11:04:07.074Z</time></trkpt><trkpt lat="43.2013899" lon="11.5438854"><ele>288.0</ele><time>2026-04-25T11:04:08.074Z</time></trkpt><trkpt lat="43.2012481" lon="11.5439318"><ele>289.75</ele><time>2026-04-25T11:04:09.073Z</time></trkpt><trkpt lat="43.2011178" lon="11.5439842"><ele>291.5</ele><time>2026-04-25T11:04:10.074Z</time></trkpt><trkpt lat="43.2009732" lon="11.5440361"><ele>293.25</ele><time>2026-04-25T11:04:11.074Z</time></trkpt><trkpt lat="43.2008295" lon="11.5440968"><ele>295.0</ele><time>2026-04-25T11:04:12.074Z</time></trkpt><trkpt lat="43.200697" lon="11.5441745"><ele>296.25</ele><time>2026-04-25T11:04:13.073Z</time></trkpt><trkpt lat="43.2005775" lon="11.5442646"><ele>297.5</ele><time>2026-04-25T11:04:14.074Z</time></trkpt><trkpt lat="43.2004805" lon="11.5443886"><ele>298.75</ele><time>2026-04-25T11:04:15.073Z</time></trkpt><trkpt lat="43.200396" lon="11.5445222"><ele>300.0</ele><time>2026-04-25T11:04:16.074Z</time></trkpt><trkpt lat="43.200322" lon="11.5446606"><ele>301.0</ele><time>2026-04-25T11:04:17.074Z</time></trkpt><trkpt lat="43.2002706" lon="11.5448164"><ele>302.0</ele><time>2026-04-25T11:04:18.073Z</time></trkpt><trkpt lat="43.2002563" lon="11.5449707"><ele>303.0</ele><time>2026-04-25T11:04:19.074Z</time></trkpt><trkpt lat="43.2003154" lon="11.5451107"><ele>304.0</ele><time>2026-04-25T11:04:20.074Z</time></trkpt><trkpt lat="43.200404" lon="11.5452221"><ele>304.0</ele><time>2026-04-25T11:04:21.073Z</time></trkpt><trkpt lat="43.200505" lon="11.5453121"><ele>304.0</ele><time>2026-04-25T11:04:22.073Z</time></trkpt><trkpt lat="43.2005899" lon="11.5454439"><ele>304.0</ele><time>2026-04-25T11:04:23.074Z</time></trkpt><trkpt lat="43.2006561" lon="11.5455877"><ele>304.0</ele><time>2026-04-25T11:04:24.074Z</time></trkpt><trkpt lat="43.2006909" lon="11.5457529"><ele>303.25</ele><time>2026-04-25T11:04:25.074Z</time></trkpt><trkpt lat="43.2006733" lon="11.5459186"><ele>302.5</ele><time>2026-04-25T11:04:26.074Z</time></trkpt><trkpt lat="43.2006114" lon="11.5460464"><ele>301.75</ele><time>2026-04-25T11:04:27.074Z</time></trkpt><trkpt lat="43.2005305" lon="11.5461644"><ele>301.0</ele><time>2026-04-25T11:04:28.074Z</time></trkpt><trkpt lat="43.2004516" lon="11.546286"><ele>305.5</ele><time>2026-04-25T11:04:29.073Z</time></trkpt><trkpt lat="43.2003595" lon="11.5463989"><ele>310.0</ele><time>2026-04-25T11:04:30.074Z</time></trkpt><trkpt lat="43.2002799" lon="11.5465249"><ele>314.5</ele><time>2026-04-25T11:04:31.073Z</time></trkpt><trkpt lat="43.2002172" lon="11.5466686"><ele>319.0</ele><time>2026-04-25T11:04:32.074Z</time></trkpt><trkpt lat="43.200169" lon="11.5468327"><ele>319.0</ele><time>2026-04-25T11:04:33.074Z</time></trkpt><trkpt lat="43.2001349" lon="11.5470045"><ele>319.0</ele><time>2026-04-25T11:04:34.074Z</time></trkpt><trkpt lat="43.2001124" lon="11.5471714"><ele>319.0</ele><time>2026-04-25T11:04:35.074Z</time></trkpt><trkpt lat="43.2000987" lon="11.5473264"><ele>319.0</ele><time>2026-04-25T11:04:36.074Z</time></trkpt><trkpt lat="43.2000981" lon="11.5474811"><ele>319.6</ele><time>2026-04-25T11:04:37.074Z</time></trkpt><trkpt lat="43.200087" lon="11.547622"><ele>320.2</ele><time>2026-04-25T11:04:38.074Z</time></trkpt><trkpt lat="43.2000647" lon="11.5477544"><ele>320.8</ele><time>2026-04-25T11:04:39.073Z</time></trkpt><trkpt lat="43.2000291" lon="11.5478779"><ele>321.40000000000003</ele><time>2026-04-25T11:04:40.074Z</time></trkpt><trkpt lat="43.1999872" lon="11.5479859"><ele>322.0</ele><time>2026-04-25T11:04:41.074Z</time></trkpt><trkpt lat="43.1999479" lon="11.5480909"><ele>322.0</ele><time>2026-04-25T11:04:42.074Z</time></trkpt><trkpt lat="43.1999066" lon="11.5481954"><ele>322.0</ele><time>2026-04-25T11:04:43.073Z</time></trkpt><trkpt lat="43.1998627" lon="11.5483121"><ele>322.0</ele><time>2026-04-25T11:04:44.074Z</time></trkpt><trkpt lat="43.1998214" lon="11.5484408"><ele>322.0</ele><time>2026-04-25T11:04:45.074Z</time></trkpt><trkpt lat="43.1997752" lon="11.5485764"><ele>322.0</ele><time>2026-04-25T11:04:46.074Z</time></trkpt><trkpt lat="43.1997299" lon="11.5487253"><ele>320.0</ele><time>2026-04-25T11:04:47.073Z</time></trkpt><trkpt lat="43.1996841" lon="11.5488873"><ele>318.0</ele><time>2026-04-25T11:04:48.074Z</time></trkpt><trkpt lat="43.1996343" lon="11.5490581"><ele>316.0</ele><time>2026-04-25T11:04:49.074Z</time></trkpt><trkpt lat="43.1995845" lon="11.5492361"><ele>314.0</ele><time>2026-04-25T11:04:50.073Z</time></trkpt><trkpt lat="43.1995346" lon="11.5494219"><ele>313.5</ele><time>2026-04-25T11:04:51.074Z</time></trkpt><trkpt lat="43.1994804" lon="11.5496074"><ele>313.0</ele><time>2026-04-25T11:04:52.073Z</time></trkpt><trkpt lat="43.1994264" lon="11.5497965"><ele>312.5</ele><time>2026-04-25T11:04:53.074Z</time></trkpt><trkpt lat="43.1993748" lon="11.5499808"><ele>312.0</ele><time>2026-04-25T11:04:54.074Z</time></trkpt><trkpt lat="43.1993277" lon="11.550155"><ele>312.0</ele><time>2026-04-25T11:04:55.073Z</time></trkpt><trkpt lat="43.1992823" lon="11.5503297"><ele>312.0</ele><time>2026-04-25T11:04:56.074Z</time></trkpt><trkpt lat="43.1992424" lon="11.5505015"><ele>312.0</ele><time>2026-04-25T11:04:57.074Z</time></trkpt><trkpt lat="43.1992032" lon="11.5506731"><ele>312.0</ele><time>2026-04-25T11:04:58.074Z</time></trkpt><trkpt lat="43.1991592" lon="11.5508436"><ele>310.5</ele><time>2026-04-25T11:04:59.074Z</time></trkpt><trkpt lat="43.1991243" lon="11.5510234"><ele>309.0</ele><time>2026-04-25T11:05:00.074Z</time></trkpt><trkpt lat="43.1990869" lon="11.5512016"><ele>307.5</ele><time>2026-04-25T11:05:01.073Z</time></trkpt><trkpt lat="43.1990572" lon="11.5513786"><ele>306.0</ele><time>2026-04-25T11:05:02.073Z</time></trkpt><trkpt lat="43.1990331" lon="11.5515541"><ele>305.0</ele><time>2026-04-25T11:05:03.074Z</time></trkpt><trkpt lat="43.1990087" lon="11.5517205"><ele>304.0</ele><time>2026-04-25T11:05:04.074Z</time></trkpt><trkpt lat="43.1989839" lon="11.5518801"><ele>303.0</ele><time>2026-04-25T11:05:05.074Z</time></trkpt><trkpt lat="43.1989603" lon="11.5520453"><ele>302.0</ele><time>2026-04-25T11:05:06.074Z</time></trkpt><trkpt lat="43.1989349" lon="11.5522004"><ele>298.5</ele><time>2026-04-25T11:05:07.074Z</time></trkpt><trkpt lat="43.1989111" lon="11.5523498"><ele>295.0</ele><time>2026-04-25T11:05:08.074Z</time></trkpt><trkpt lat="43.1988848" lon="11.552515"><ele>291.5</ele><time>2026-04-25T11:05:09.074Z</time></trkpt><trkpt lat="43.1988535" lon="11.5526773"><ele>288.0</ele><time>2026-04-25T11:05:10.074Z</time></trkpt><trkpt lat="43.1988176" lon="11.5528434"><ele>289.25</ele><time>2026-04-25T11:05:11.074Z</time></trkpt><trkpt lat="43.1987736" lon="11.5530166"><ele>290.5</ele><time>2026-04-25T11:05:12.074Z</time></trkpt><trkpt lat="43.1987283" lon="11.5532007"><ele>291.75</ele><time>2026-04-25T11:05:13.074Z</time></trkpt><trkpt lat="43.1986823" lon="11.5533798"><ele>293.0</ele><time>2026-04-25T11:05:14.074Z</time></trkpt><trkpt lat="43.1986303" lon="11.5535582"><ele>296.75</ele><time>2026-04-25T11:05:15.073Z</time></trkpt><trkpt lat="43.1985804" lon="11.5537313"><ele>300.5</ele><time>2026-04-25T11:05:16.074Z</time></trkpt><trkpt lat="43.1985299" lon="11.5538997"><ele>304.25</ele><time>2026-04-25T11:05:17.074Z</time></trkpt><trkpt lat="43.1984833" lon="11.5540591"><ele>308.0</ele><time>2026-04-25T11:05:18.074Z</time></trkpt><trkpt lat="43.1984441" lon="11.5542084"><ele>308.0</ele><time>2026-04-25T11:05:19.074Z</time></trkpt><trkpt lat="43.1983925" lon="11.5543375"><ele>308.0</ele><time>2026-04-25T11:05:20.074Z</time></trkpt><trkpt lat="43.1983267" lon="11.5544508"><ele>308.0</ele><time>2026-04-25T11:05:21.074Z</time></trkpt><trkpt lat="43.198237" lon="11.5545225"><ele>308.0</ele><time>2026-04-25T11:05:22.073Z</time></trkpt><trkpt lat="43.1981265" lon="11.5545482"><ele>308.0</ele><time>2026-04-25T11:05:23.074Z</time></trkpt><trkpt lat="43.1980034" lon="11.5545807"><ele>308.75</ele><time>2026-04-25T11:05:24.074Z</time></trkpt><trkpt lat="43.1978692" lon="11.5546184"><ele>309.5</ele><time>2026-04-25T11:05:25.074Z</time></trkpt><trkpt lat="43.1977373" lon="11.5546611"><ele>310.25</ele><time>2026-04-25T11:05:26.074Z</time></trkpt><trkpt lat="43.1976086" lon="11.5547081"><ele>311.0</ele><time>2026-04-25T11:05:27.074Z</time></trkpt><trkpt lat="43.1974834" lon="11.5547624"><ele>311.0</ele><time>2026-04-25T11:05:28.074Z</time></trkpt><trkpt lat="43.1973712" lon="11.5548442"><ele>311.0</ele><time>2026-04-25T11:05:29.074Z</time></trkpt><trkpt lat="43.1972743" lon="11.5549516"><ele>311.0</ele><time>2026-04-25T11:05:30.073Z</time></trkpt><trkpt lat="43.1971843" lon="11.555067"><ele>311.0</ele><time>2026-04-25T11:05:31.074Z</time></trkpt><trkpt lat="43.1970862" lon="11.555198"><ele>310.0</ele><time>2026-04-25T11:05:32.074Z</time></trkpt><trkpt lat="43.1969801" lon="11.555329"><ele>309.0</ele><time>2026-04-25T11:05:33.074Z</time></trkpt><trkpt lat="43.1968707" lon="11.5554638"><ele>308.0</ele><time>2026-04-25T11:05:34.073Z</time></trkpt><trkpt lat="43.1967531" lon="11.5555861"><ele>307.0</ele><time>2026-04-25T11:05:35.074Z</time></trkpt><trkpt lat="43.1966274" lon="11.5557044"><ele>303.0</ele><time>2026-04-25T11:05:36.074Z</time></trkpt><trkpt lat="43.1965027" lon="11.5558143"><ele>299.0</ele><time>2026-04-25T11:05:37.074Z</time></trkpt><trkpt lat="43.196385" lon="11.5559113"><ele>295.0</ele><time>2026-04-25T11:05:38.073Z</time></trkpt><trkpt lat="43.1962739" lon="11.5559906"><ele>291.0</ele><time>2026-04-25T11:05:39.074Z</time></trkpt><trkpt lat="43.1961712" lon="11.5560514"><ele>291.0</ele><time>2026-04-25T11:05:40.074Z</time></trkpt><trkpt lat="43.1960591" lon="11.556069"><ele>291.0</ele><time>2026-04-25T11:05:41.073Z</time></trkpt><trkpt lat="43.1959379" lon="11.5560479"><ele>291.0</ele><time>2026-04-25T11:05:42.073Z</time></trkpt><trkpt lat="43.1958268" lon="11.5560608"><ele>291.0</ele><time>2026-04-25T11:05:43.074Z</time></trkpt><trkpt lat="43.1957213" lon="11.5561268"><ele>290.0</ele><time>2026-04-25T11:05:44.073Z</time></trkpt><trkpt lat="43.1956048" lon="11.5562221"><ele>289.0</ele><time>2026-04-25T11:05:45.074Z</time></trkpt><trkpt lat="43.1954781" lon="11.5562952"><ele>288.0</ele><time>2026-04-25T11:05:46.074Z</time></trkpt><trkpt lat="43.1953227" lon="11.5563459"><ele>287.0</ele><time>2026-04-25T11:05:47.074Z</time></trkpt><trkpt lat="43.1951714" lon="11.5564034"><ele>287.0</ele><time>2026-04-25T11:05:48.074Z</time></trkpt><trkpt lat="43.1950141" lon="11.5564771"><ele>287.0</ele><time>2026-04-25T11:05:49.074Z</time></trkpt><trkpt lat="43.1948608" lon="11.556561"><ele>287.0</ele><time>2026-04-25T11:05:50.073Z</time></trkpt><trkpt lat="43.1947116" lon="11.5566463"><ele>290.6666666666667</ele><time>2026-04-25T11:05:51.073Z</time></trkpt><trkpt lat="43.1945644" lon="11.5567311"><ele>294.3333333333333</ele><time>2026-04-25T11:05:52.073Z</time></trkpt><trkpt lat="43.1944185" lon="11.5567914"><ele>298.0</ele><time>2026-04-25T11:05:53.073Z</time></trkpt><trkpt lat="43.1942659" lon="11.5568361"><ele>298.0</ele><time>2026-04-25T11:05:54.074Z</time></trkpt><trkpt lat="43.1941035" lon="11.5568643"><ele>298.0</ele><time>2026-04-25T11:05:55.074Z</time></trkpt><trkpt lat="43.1939377" lon="11.5568973"><ele>298.0</ele><time>2026-04-25T11:05:56.074Z</time></trkpt><trkpt lat="43.1937727" lon="11.5569315"><ele>300.25</ele><time>2026-04-25T11:05:57.074Z</time></trkpt><trkpt lat="43.1936193" lon="11.5569578"><ele>302.5</ele><time>2026-04-25T11:05:58.074Z</time></trkpt><trkpt lat="43.1934731" lon="11.5569896"><ele>304.75</ele><time>2026-04-25T11:05:59.073Z</time></trkpt><trkpt lat="43.1933315" lon="11.5570181"><ele>307.0</ele><time>2026-04-25T11:06:00.074Z</time></trkpt><trkpt lat="43.1931852" lon="11.5570406"><ele>307.5</ele><time>2026-04-25T11:06:01.074Z</time></trkpt><trkpt lat="43.1930439" lon="11.557062"><ele>308.0</ele><time>2026-04-25T11:06:02.074Z</time></trkpt><trkpt lat="43.1929023" lon="11.5570966"><ele>308.5</ele><time>2026-04-25T11:06:03.074Z</time></trkpt><trkpt lat="43.1927657" lon="11.5571372"><ele>309.0</ele><time>2026-04-25T11:06:04.074Z</time></trkpt><trkpt lat="43.1926364" lon="11.5571884"><ele>309.0</ele><time>2026-04-25T11:06:05.073Z</time></trkpt><trkpt lat="43.1925119" lon="11.5572278"><ele>309.0</ele><time>2026-04-25T11:06:06.074Z</time></trkpt><trkpt lat="43.1923871" lon="11.5572672"><ele>309.0</ele><time>2026-04-25T11:06:07.073Z</time></trkpt><trkpt lat="43.1921084" lon="11.5573478"><ele>309.0</ele><time>2026-04-25T11:06:09.074Z</time></trkpt><trkpt lat="43.191958" lon="11.557386"><ele>309.0</ele><time>2026-04-25T11:06:10.073Z</time></trkpt><trkpt lat="43.1918012" lon="11.5574161"><ele>309.0</ele><time>2026-04-25T11:06:11.074Z</time></trkpt><trkpt lat="43.1916389" lon="11.5574395"><ele>310.6666666666667</ele><time>2026-04-25T11:06:12.074Z</time></trkpt><trkpt lat="43.1914779" lon="11.5574602"><ele>312.33333333333337</ele><time>2026-04-25T11:06:13.074Z</time></trkpt><trkpt lat="43.1913197" lon="11.5574641"><ele>314.0</ele><time>2026-04-25T11:06:14.074Z</time></trkpt><trkpt lat="43.1911717" lon="11.557454"><ele>314.0</ele><time>2026-04-25T11:06:15.074Z</time></trkpt><trkpt lat="43.1910328" lon="11.5574366"><ele>314.0</ele><time>2026-04-25T11:06:16.073Z</time></trkpt><trkpt lat="43.1909026" lon="11.5574148"><ele>314.0</ele><time>2026-04-25T11:06:17.074Z</time></trkpt><trkpt lat="43.1907798" lon="11.557394"><ele>314.0</ele><time>2026-04-25T11:06:18.074Z</time></trkpt><trkpt lat="43.1906563" lon="11.5574025"><ele>315.25</ele><time>2026-04-25T11:06:19.074Z</time></trkpt><trkpt lat="43.1905334" lon="11.5574152"><ele>316.5</ele><time>2026-04-25T11:06:20.074Z</time></trkpt><trkpt lat="43.1904133" lon="11.5574008"><ele>317.75</ele><time>2026-04-25T11:06:21.074Z</time></trkpt><trkpt lat="43.1902849" lon="11.5573619"><ele>319.0</ele><time>2026-04-25T11:06:22.074Z</time></trkpt><trkpt lat="43.1901693" lon="11.5573014"><ele>319.0</ele><time>2026-04-25T11:06:23.074Z</time></trkpt><trkpt lat="43.1900521" lon="11.5572161"><ele>319.0</ele><time>2026-04-25T11:06:24.074Z</time></trkpt><trkpt lat="43.1899366" lon="11.5571245"><ele>319.0</ele><time>2026-04-25T11:06:25.073Z</time></trkpt><trkpt lat="43.1898201" lon="11.5570226"><ele>319.0</ele><time>2026-04-25T11:06:26.074Z</time></trkpt><trkpt lat="43.1896986" lon="11.5569198"><ele>320.25</ele><time>2026-04-25T11:06:27.074Z</time></trkpt><trkpt lat="43.1895787" lon="11.5568162"><ele>321.5</ele><time>2026-04-25T11:06:28.073Z</time></trkpt><trkpt lat="43.1894525" lon="11.5567101"><ele>322.75</ele><time>2026-04-25T11:06:29.073Z</time></trkpt><trkpt lat="43.1893326" lon="11.5566041"><ele>324.0</ele><time>2026-04-25T11:06:30.073Z</time></trkpt><trkpt lat="43.1892151" lon="11.5564958"><ele>324.0</ele><time>2026-04-25T11:06:31.074Z</time></trkpt><trkpt lat="43.1891155" lon="11.5563724"><ele>324.0</ele><time>2026-04-25T11:06:32.074Z</time></trkpt><trkpt lat="43.18904" lon="11.5562354"><ele>324.0</ele><time>2026-04-25T11:06:33.073Z</time></trkpt><trkpt lat="43.1889787" lon="11.5560734"><ele>324.0</ele><time>2026-04-25T11:06:34.073Z</time></trkpt><trkpt lat="43.1889107" lon="11.555905"><ele>325.25</ele><time>2026-04-25T11:06:35.074Z</time></trkpt><trkpt lat="43.1888391" lon="11.5557361"><ele>326.5</ele><time>2026-04-25T11:06:36.073Z</time></trkpt><trkpt lat="43.188761" lon="11.5555676"><ele>327.75</ele><time>2026-04-25T11:06:37.074Z</time></trkpt><trkpt lat="43.188677" lon="11.5553998"><ele>329.0</ele><time>2026-04-25T11:06:38.074Z</time></trkpt><trkpt lat="43.1885887" lon="11.5552311"><ele>329.0</ele><time>2026-04-25T11:06:39.074Z</time></trkpt><trkpt lat="43.1884933" lon="11.5550761"><ele>329.0</ele><time>2026-04-25T11:06:40.073Z</time></trkpt><trkpt lat="43.188394" lon="11.5549311"><ele>329.0</ele><time>2026-04-25T11:06:41.074Z</time></trkpt><trkpt lat="43.1882771" lon="11.5547968"><ele>329.0</ele><time>2026-04-25T11:06:42.074Z</time></trkpt><trkpt lat="43.1881514" lon="11.5546822"><ele>330.6666666666667</ele><time>2026-04-25T11:06:43.074Z</time></trkpt><trkpt lat="43.1880149" lon="11.5545721"><ele>332.3333333333333</ele><time>2026-04-25T11:06:44.074Z</time></trkpt><trkpt lat="43.1878785" lon="11.554462"><ele>334.0</ele><time>2026-04-25T11:06:45.074Z</time></trkpt><trkpt lat="43.1877473" lon="11.5543559"><ele>334.0</ele><time>2026-04-25T11:06:46.074Z</time></trkpt><trkpt lat="43.1876195" lon="11.5542422"><ele>334.0</ele><time>2026-04-25T11:06:47.074Z</time></trkpt><trkpt lat="43.1875002" lon="11.5541136"><ele>334.0</ele><time>2026-04-25T11:06:48.074Z</time></trkpt><trkpt lat="43.1873865" lon="11.553995"><ele>334.0</ele><time>2026-04-25T11:06:49.074Z</time></trkpt><trkpt lat="43.1872821" lon="11.5538819"><ele>332.75</ele><time>2026-04-25T11:06:50.073Z</time></trkpt><trkpt lat="43.1871726" lon="11.5537733"><ele>331.5</ele><time>2026-04-25T11:06:51.073Z</time></trkpt><trkpt lat="43.1870636" lon="11.5536717"><ele>330.25</ele><time>2026-04-25T11:06:52.074Z</time></trkpt><trkpt lat="43.1869613" lon="11.553584"><ele>329.0</ele><time>2026-04-25T11:06:53.074Z</time></trkpt><trkpt lat="43.1868661" lon="11.5535009"><ele>330.0</ele><time>2026-04-25T11:06:54.074Z</time></trkpt><trkpt lat="43.1867647" lon="11.553417"><ele>331.0</ele><time>2026-04-25T11:06:55.073Z</time></trkpt><trkpt lat="43.1866537" lon="11.5533601"><ele>332.0</ele><time>2026-04-25T11:06:56.074Z</time></trkpt><trkpt lat="43.1865432" lon="11.5533155"><ele>333.0</ele><time>2026-04-25T11:06:57.073Z</time></trkpt><trkpt lat="43.186425" lon="11.5532806"><ele>333.0</ele><time>2026-04-25T11:06:58.074Z</time></trkpt><trkpt lat="43.1863045" lon="11.5532491"><ele>333.0</ele><time>2026-04-25T11:06:59.074Z</time></trkpt><trkpt lat="43.1861854" lon="11.5532214"><ele>333.0</ele><time>2026-04-25T11:07:00.073Z</time></trkpt><trkpt lat="43.186068" lon="11.553195"><ele>333.0</ele><time>2026-04-25T11:07:01.074Z</time></trkpt><trkpt lat="43.185953" lon="11.553171"><ele>333.0</ele><time>2026-04-25T11:07:02.074Z</time></trkpt><trkpt lat="43.1858428" lon="11.5531441"><ele>333.0</ele><time>2026-04-25T11:07:03.074Z</time></trkpt><trkpt lat="43.1857322" lon="11.553123"><ele>333.0</ele><time>2026-04-25T11:07:04.073Z</time></trkpt><trkpt lat="43.1856238" lon="11.5531104"><ele>333.0</ele><time>2026-04-25T11:07:05.074Z</time></trkpt><trkpt lat="43.1855133" lon="11.5531133"><ele>333.0</ele><time>2026-04-25T11:07:06.074Z</time></trkpt><trkpt lat="43.1854028" lon="11.5531294"><ele>332.75</ele><time>2026-04-25T11:07:07.074Z</time></trkpt><trkpt lat="43.1852901" lon="11.5531532"><ele>332.5</ele><time>2026-04-25T11:07:08.074Z</time></trkpt><trkpt lat="43.1851767" lon="11.5531962"><ele>332.25</ele><time>2026-04-25T11:07:09.074Z</time></trkpt><trkpt lat="43.1850645" lon="11.5532587"><ele>332.0</ele><time>2026-04-25T11:07:10.074Z</time></trkpt><trkpt lat="43.1849544" lon="11.553326"><ele>332.75</ele><time>2026-04-25T11:07:11.074Z</time></trkpt><trkpt lat="43.1848451" lon="11.5533963"><ele>333.5</ele><time>2026-04-25T11:07:12.074Z</time></trkpt><trkpt lat="43.1847363" lon="11.553467"><ele>334.25</ele><time>2026-04-25T11:07:13.074Z</time></trkpt><trkpt lat="43.1846268" lon="11.553533"><ele>335.0</ele><time>2026-04-25T11:07:14.074Z</time></trkpt><trkpt lat="43.1845176" lon="11.5536011"><ele>335.0</ele><time>2026-04-25T11:07:15.074Z</time></trkpt><trkpt lat="43.1844119" lon="11.5536675"><ele>335.0</ele><time>2026-04-25T11:07:16.074Z</time></trkpt><trkpt lat="43.1843066" lon="11.5537333"><ele>335.0</ele><time>2026-04-25T11:07:17.074Z</time></trkpt><trkpt lat="43.1841995" lon="11.5537956"><ele>335.0</ele><time>2026-04-25T11:07:18.074Z</time></trkpt><trkpt lat="43.1840946" lon="11.5538478"><ele>335.0</ele><time>2026-04-25T11:07:19.074Z</time></trkpt><trkpt lat="43.1839909" lon="11.5539012"><ele>335.0</ele><time>2026-04-25T11:07:20.074Z</time></trkpt><trkpt lat="43.1838836" lon="11.5539498"><ele>335.0</ele><time>2026-04-25T11:07:21.074Z</time></trkpt><trkpt lat="43.1837704" lon="11.5539944"><ele>335.0</ele><time>2026-04-25T11:07:22.073Z</time></trkpt><trkpt lat="43.1836502" lon="11.5540151"><ele>335.0</ele><time>2026-04-25T11:07:23.074Z</time></trkpt><trkpt lat="43.18354" lon="11.5540427"><ele>335.0</ele><time>2026-04-25T11:07:24.073Z</time></trkpt><trkpt lat="43.1834366" lon="11.5540549"><ele>335.0</ele><time>2026-04-25T11:07:25.073Z</time></trkpt><trkpt lat="43.1833363" lon="11.5540575"><ele>335.0</ele><time>2026-04-25T11:07:26.073Z</time></trkpt><trkpt lat="43.183235" lon="11.5540517"><ele>335.0</ele><time>2026-04-25T11:07:27.073Z</time></trkpt><trkpt lat="43.1831377" lon="11.5540486"><ele>334.25</ele><time>2026-04-25T11:07:28.073Z</time></trkpt><trkpt lat="43.1830302" lon="11.5540557"><ele>333.5</ele><time>2026-04-25T11:07:29.073Z</time></trkpt><trkpt lat="43.1829157" lon="11.5540707"><ele>332.75</ele><time>2026-04-25T11:07:30.073Z</time></trkpt><trkpt lat="43.1827931" lon="11.5540959"><ele>332.0</ele><time>2026-04-25T11:07:31.073Z</time></trkpt><trkpt lat="43.182663" lon="11.5541199"><ele>332.0</ele><time>2026-04-25T11:07:32.073Z</time></trkpt><trkpt lat="43.1825236" lon="11.5541585"><ele>332.0</ele><time>2026-04-25T11:07:33.073Z</time></trkpt><trkpt lat="43.1823783" lon="11.5542114"><ele>332.0</ele><time>2026-04-25T11:07:34.073Z</time></trkpt><trkpt lat="43.1822329" lon="11.5542774"><ele>332.0</ele><time>2026-04-25T11:07:35.072Z</time></trkpt><trkpt lat="43.1820917" lon="11.5543382"><ele>328.75</ele><time>2026-04-25T11:07:36.072Z</time></trkpt><trkpt lat="43.1819554" lon="11.5543806"><ele>325.5</ele><time>2026-04-25T11:07:37.072Z</time></trkpt><trkpt lat="43.1818195" lon="11.5544293"><ele>322.25</ele><time>2026-04-25T11:07:38.073Z</time></trkpt><trkpt lat="43.1816859" lon="11.5544819"><ele>319.0</ele><time>2026-04-25T11:07:39.072Z</time></trkpt><trkpt lat="43.18154" lon="11.5545217"><ele>318.66666666666663</ele><time>2026-04-25T11:07:40.073Z</time></trkpt><trkpt lat="43.1813902" lon="11.5545212"><ele>318.3333333333333</ele><time>2026-04-25T11:07:41.073Z</time></trkpt><trkpt lat="43.1812408" lon="11.5544861"><ele>318.0</ele><time>2026-04-25T11:07:42.072Z</time></trkpt><trkpt lat="43.1810906" lon="11.554436"><ele>318.0</ele><time>2026-04-25T11:07:43.072Z</time></trkpt><trkpt lat="43.1809402" lon="11.5543712"><ele>318.0</ele><time>2026-04-25T11:07:44.073Z</time></trkpt><trkpt lat="43.1807912" lon="11.5543041"><ele>318.0</ele><time>2026-04-25T11:07:45.073Z</time></trkpt><trkpt lat="43.1806469" lon="11.5542512"><ele>317.5</ele><time>2026-04-25T11:07:46.073Z</time></trkpt><trkpt lat="43.1805135" lon="11.5542007"><ele>317.0</ele><time>2026-04-25T11:07:47.073Z</time></trkpt><trkpt lat="43.18039" lon="11.554154"><ele>316.5</ele><time>2026-04-25T11:07:48.073Z</time></trkpt><trkpt lat="43.1802692" lon="11.5541081"><ele>316.0</ele><time>2026-04-25T11:07:49.073Z</time></trkpt><trkpt lat="43.1801631" lon="11.5540571"><ele>316.0</ele><time>2026-04-25T11:07:50.073Z</time></trkpt><trkpt lat="43.1800721" lon="11.5539808"><ele>316.0</ele><time>2026-04-25T11:07:51.073Z</time></trkpt><trkpt lat="43.1800071" lon="11.5538631"><ele>316.0</ele><time>2026-04-25T11:07:52.072Z</time></trkpt><trkpt lat="43.1799717" lon="11.5537003"><ele>316.0</ele><time>2026-04-25T11:07:53.072Z</time></trkpt><trkpt lat="43.1799779" lon="11.5535239"><ele>314.25</ele><time>2026-04-25T11:07:54.072Z</time></trkpt><trkpt lat="43.1800218" lon="11.5533433"><ele>312.5</ele><time>2026-04-25T11:07:55.072Z</time></trkpt><trkpt lat="43.1800623" lon="11.5531768"><ele>310.75</ele><time>2026-04-25T11:07:56.073Z</time></trkpt><trkpt lat="43.1801026" lon="11.5530206"><ele>309.0</ele><time>2026-04-25T11:07:57.073Z</time></trkpt><trkpt lat="43.1801427" lon="11.5528716"><ele>306.8</ele><time>2026-04-25T11:07:58.072Z</time></trkpt><trkpt lat="43.1801781" lon="11.552735"><ele>304.59999999999997</ele><time>2026-04-25T11:07:59.073Z</time></trkpt><trkpt lat="43.180209" lon="11.5525901"><ele>302.4</ele><time>2026-04-25T11:08:00.072Z</time></trkpt><trkpt lat="43.1802174" lon="11.5524552"><ele>300.2</ele><time>2026-04-25T11:08:01.072Z</time></trkpt><trkpt lat="43.1801992" lon="11.5523224"><ele>298.0</ele><time>2026-04-25T11:08:02.073Z</time></trkpt><trkpt lat="43.1801452" lon="11.5522059"><ele>298.0</ele><time>2026-04-25T11:08:03.073Z</time></trkpt><trkpt lat="43.1800721" lon="11.5521152"><ele>298.0</ele><time>2026-04-25T11:08:04.073Z</time></trkpt><trkpt lat="43.179989" lon="11.5520464"><ele>298.0</ele><time>2026-04-25T11:08:05.073Z</time></trkpt><trkpt lat="43.1799081" lon="11.5519765"><ele>298.0</ele><time>2026-04-25T11:08:06.073Z</time></trkpt><trkpt lat="43.1798357" lon="11.5518852"><ele>298.0</ele><time>2026-04-25T11:08:07.072Z</time></trkpt><trkpt lat="43.1797777" lon="11.5517824"><ele>295.6</ele><time>2026-04-25T11:08:08.072Z</time></trkpt><trkpt lat="43.1797389" lon="11.5516704"><ele>293.20000000000005</ele><time>2026-04-25T11:08:09.073Z</time></trkpt><trkpt lat="43.1797115" lon="11.5515442"><ele>290.8</ele><time>2026-04-25T11:08:10.072Z</time></trkpt><trkpt lat="43.1796907" lon="11.5514142"><ele>288.40000000000003</ele><time>2026-04-25T11:08:11.072Z</time></trkpt><trkpt lat="43.179676" lon="11.5512646"><ele>286.0</ele><time>2026-04-25T11:08:12.073Z</time></trkpt><trkpt lat="43.1796573" lon="11.5511057"><ele>286.0</ele><time>2026-04-25T11:08:13.073Z</time></trkpt><trkpt lat="43.1796352" lon="11.5509314"><ele>286.0</ele><time>2026-04-25T11:08:14.073Z</time></trkpt><trkpt lat="43.1796079" lon="11.5507473"><ele>286.0</ele><time>2026-04-25T11:08:15.073Z</time></trkpt><trkpt lat="43.1795615" lon="11.5505641"><ele>286.0</ele><time>2026-04-25T11:08:16.073Z</time></trkpt><trkpt lat="43.1794906" lon="11.5503941"><ele>288.0</ele><time>2026-04-25T11:08:17.073Z</time></trkpt><trkpt lat="43.1793933" lon="11.5502369"><ele>290.0</ele><time>2026-04-25T11:08:18.073Z</time></trkpt><trkpt lat="43.1792895" lon="11.550087"><ele>292.0</ele><time>2026-04-25T11:08:19.073Z</time></trkpt><trkpt lat="43.1791881" lon="11.5499334"><ele>292.0</ele><time>2026-04-25T11:08:20.073Z</time></trkpt><trkpt lat="43.1790929" lon="11.5497789"><ele>292.0</ele><time>2026-04-25T11:08:21.072Z</time></trkpt><trkpt lat="43.1790127" lon="11.5496141"><ele>292.0</ele><time>2026-04-25T11:08:22.073Z</time></trkpt><trkpt lat="43.1789412" lon="11.5494295"><ele>292.0</ele><time>2026-04-25T11:08:23.073Z</time></trkpt><trkpt lat="43.1788821" lon="11.5492552"><ele>292.25</ele><time>2026-04-25T11:08:24.072Z</time></trkpt><trkpt lat="43.1788468" lon="11.549082"><ele>292.5</ele><time>2026-04-25T11:08:25.072Z</time></trkpt><trkpt lat="43.1788348" lon="11.5489046"><ele>292.75</ele><time>2026-04-25T11:08:26.073Z</time></trkpt><trkpt lat="43.1788276" lon="11.5487296"><ele>293.0</ele><time>2026-04-25T11:08:27.072Z</time></trkpt><trkpt lat="43.1788373" lon="11.5485571"><ele>298.0</ele><time>2026-04-25T11:08:28.072Z</time></trkpt><trkpt lat="43.1788423" lon="11.5483889"><ele>303.0</ele><time>2026-04-25T11:08:29.073Z</time></trkpt><trkpt lat="43.1788453" lon="11.5482172"><ele>308.0</ele><time>2026-04-25T11:08:30.073Z</time></trkpt><trkpt lat="43.1788527" lon="11.5480606"><ele>313.0</ele><time>2026-04-25T11:08:31.073Z</time></trkpt><trkpt lat="43.1788622" lon="11.5479207"><ele>311.8333333333333</ele><time>2026-04-25T11:08:32.073Z</time></trkpt><trkpt lat="43.178873" lon="11.547804"><ele>310.66666666666663</ele><time>2026-04-25T11:08:33.073Z</time></trkpt><trkpt lat="43.1788839" lon="11.5476974"><ele>309.5</ele><time>2026-04-25T11:08:34.073Z</time></trkpt><trkpt lat="43.1789017" lon="11.547605"><ele>308.3333333333333</ele><time>2026-04-25T11:08:35.073Z</time></trkpt><trkpt lat="43.1789245" lon="11.5474894"><ele>307.1666666666667</ele><time>2026-04-25T11:08:37.073Z</time></trkpt><trkpt lat="43.1789536" lon="11.5473929"><ele>306.0</ele><time>2026-04-25T11:08:42.073Z</time></trkpt><trkpt lat="43.1790106" lon="11.5472774"><ele>302.6</ele><time>2026-04-25T11:08:44.073Z</time></trkpt><trkpt lat="43.1790512" lon="11.5471849"><ele>299.20000000000005</ele><time>2026-04-25T11:08:45.073Z</time></trkpt><trkpt lat="43.1791037" lon="11.547076"><ele>295.79999999999995</ele><time>2026-04-25T11:08:46.073Z</time></trkpt><trkpt lat="43.1791693" lon="11.5469432"><ele>292.4</ele><time>2026-04-25T11:08:47.072Z</time></trkpt><trkpt lat="43.179242" lon="11.5467951"><ele>289.0</ele><time>2026-04-25T11:08:48.073Z</time></trkpt><trkpt lat="43.1793067" lon="11.5466546"><ele>287.5</ele><time>2026-04-25T11:08:49.073Z</time></trkpt><trkpt lat="43.1793812" lon="11.5465093"><ele>286.0</ele><time>2026-04-25T11:08:50.072Z</time></trkpt><trkpt lat="43.1794673" lon="11.5463728"><ele>284.5</ele><time>2026-04-25T11:08:51.072Z</time></trkpt><trkpt lat="43.1795543" lon="11.546239"><ele>283.0</ele><time>2026-04-25T11:08:52.073Z</time></trkpt><trkpt lat="43.1796105" lon="11.5460688"><ele>278.3333333333333</ele><time>2026-04-25T11:08:53.073Z</time></trkpt><trkpt lat="43.1796239" lon="11.5458674"><ele>273.6666666666667</ele><time>2026-04-25T11:08:54.073Z</time></trkpt><trkpt lat="43.17963" lon="11.5456534"><ele>269.0</ele><time>2026-04-25T11:08:55.073Z</time></trkpt><trkpt lat="43.1796347" lon="11.5454473"><ele>270.33333333333337</ele><time>2026-04-25T11:08:56.073Z</time></trkpt><trkpt lat="43.1796301" lon="11.5452433"><ele>271.6666666666667</ele><time>2026-04-25T11:08:57.073Z</time></trkpt><trkpt lat="43.1796114" lon="11.5450313"><ele>273.0</ele><time>2026-04-25T11:08:58.073Z</time></trkpt><trkpt lat="43.1795693" lon="11.5448244"><ele>273.0</ele><time>2026-04-25T11:08:59.073Z</time></trkpt><trkpt lat="43.1794998" lon="11.5446127"><ele>273.0</ele><time>2026-04-25T11:09:00.073Z</time></trkpt><trkpt lat="43.1794403" lon="11.5443947"><ele>273.0</ele><time>2026-04-25T11:09:01.073Z</time></trkpt><trkpt lat="43.1794319" lon="11.5441529"><ele>277.0</ele><time>2026-04-25T11:09:02.073Z</time></trkpt><trkpt lat="43.1794241" lon="11.5439222"><ele>281.0</ele><time>2026-04-25T11:09:03.072Z</time></trkpt><trkpt lat="43.1794228" lon="11.5436828"><ele>285.0</ele><time>2026-04-25T11:09:04.072Z</time></trkpt><trkpt lat="43.1794094" lon="11.5434449"><ele>285.3333333333333</ele><time>2026-04-25T11:09:05.073Z</time></trkpt><trkpt lat="43.1793677" lon="11.5432072"><ele>285.66666666666663</ele><time>2026-04-25T11:09:06.072Z</time></trkpt><trkpt lat="43.1793134" lon="11.54298"><ele>286.0</ele><time>2026-04-25T11:09:07.073Z</time></trkpt><trkpt lat="43.1792513" lon="11.5427588"><ele>286.66666666666663</ele><time>2026-04-25T11:09:08.073Z</time></trkpt><trkpt lat="43.179172" lon="11.5425516"><ele>287.3333333333333</ele><time>2026-04-25T11:09:09.073Z</time></trkpt><trkpt lat="43.1790669" lon="11.5423612"><ele>288.0</ele><time>2026-04-25T11:09:10.073Z</time></trkpt><trkpt lat="43.178941" lon="11.542184"><ele>284.0</ele><time>2026-04-25T11:09:11.073Z</time></trkpt><trkpt lat="43.178797" lon="11.542023"><ele>280.0</ele><time>2026-04-25T11:09:12.073Z</time></trkpt><trkpt lat="43.1786321" lon="11.5418775"><ele>276.0</ele><time>2026-04-25T11:09:13.073Z</time></trkpt><trkpt lat="43.1784588" lon="11.5417474"><ele>276.0</ele><time>2026-04-25T11:09:14.073Z</time></trkpt><trkpt lat="43.1782854" lon="11.541595"><ele>276.0</ele><time>2026-04-25T11:09:15.073Z</time></trkpt><trkpt lat="43.1781204" lon="11.5414177"><ele>276.0</ele><time>2026-04-25T11:09:16.072Z</time></trkpt><trkpt lat="43.1779727" lon="11.5412287"><ele>275.3333333333333</ele><time>2026-04-25T11:09:17.072Z</time></trkpt><trkpt lat="43.1778399" lon="11.5410314"><ele>274.66666666666663</ele><time>2026-04-25T11:09:18.073Z</time></trkpt><trkpt lat="43.1777075" lon="11.5408561"><ele>274.0</ele><time>2026-04-25T11:09:19.073Z</time></trkpt><trkpt lat="43.1775731" lon="11.5406981"><ele>274.0</ele><time>2026-04-25T11:09:20.073Z</time></trkpt><trkpt lat="43.1774705" lon="11.5405253"><ele>274.0</ele><time>2026-04-25T11:09:21.073Z</time></trkpt><trkpt lat="43.1774145" lon="11.5403107"><ele>274.0</ele><time>2026-04-25T11:09:22.073Z</time></trkpt><trkpt lat="43.1773883" lon="11.5400678"><ele>275.0</ele><time>2026-04-25T11:09:23.073Z</time></trkpt><trkpt lat="43.1773887" lon="11.5398251"><ele>276.0</ele><time>2026-04-25T11:09:24.073Z</time></trkpt><trkpt lat="43.1774051" lon="11.5395807"><ele>277.0</ele><time>2026-04-25T11:09:25.073Z</time></trkpt><trkpt lat="43.1774085" lon="11.5393405"><ele>277.0</ele><time>2026-04-25T11:09:26.073Z</time></trkpt><trkpt lat="43.1773815" lon="11.5391039"><ele>277.0</ele><time>2026-04-25T11:09:27.073Z</time></trkpt><trkpt lat="43.1773505" lon="11.5388651"><ele>277.0</ele><time>2026-04-25T11:09:28.072Z</time></trkpt><trkpt lat="43.1773453" lon="11.5386287"><ele>278.0</ele><time>2026-04-25T11:09:29.072Z</time></trkpt><trkpt lat="43.1773873" lon="11.5384001"><ele>279.0</ele><time>2026-04-25T11:09:30.073Z</time></trkpt><trkpt lat="43.1774624" lon="11.5381687"><ele>280.0</ele><time>2026-04-25T11:09:31.073Z</time></trkpt><trkpt lat="43.1775365" lon="11.5379389"><ele>280.3333333333333</ele><time>2026-04-25T11:09:32.073Z</time></trkpt><trkpt lat="43.1776032" lon="11.5376993"><ele>280.6666666666667</ele><time>2026-04-25T11:09:33.073Z</time></trkpt><trkpt lat="43.1776689" lon="11.537466"><ele>281.0</ele><time>2026-04-25T11:09:34.072Z</time></trkpt><trkpt lat="43.1777572" lon="11.5372471"><ele>279.0</ele><time>2026-04-25T11:09:35.073Z</time></trkpt><trkpt lat="43.1778685" lon="11.5370472"><ele>277.0</ele><time>2026-04-25T11:09:36.072Z</time></trkpt><trkpt lat="43.1780042" lon="11.5368533"><ele>275.0</ele><time>2026-04-25T11:09:37.072Z</time></trkpt><trkpt lat="43.1781305" lon="11.5366538"><ele>277.33333333333337</ele><time>2026-04-25T11:09:38.073Z</time></trkpt><trkpt lat="43.1782221" lon="11.536419"><ele>279.6666666666667</ele><time>2026-04-25T11:09:39.073Z</time></trkpt><trkpt lat="43.1782716" lon="11.5361565"><ele>282.0</ele><time>2026-04-25T11:09:40.072Z</time></trkpt><trkpt lat="43.1782932" lon="11.5358917"><ele>282.6666666666667</ele><time>2026-04-25T11:09:41.073Z</time></trkpt><trkpt lat="43.1783161" lon="11.5356215"><ele>283.33333333333337</ele><time>2026-04-25T11:09:42.073Z</time></trkpt><trkpt lat="43.1783367" lon="11.5353373"><ele>284.0</ele><time>2026-04-25T11:09:43.072Z</time></trkpt><trkpt lat="43.1783606" lon="11.5350461"><ele>284.33333333333337</ele><time>2026-04-25T11:09:44.072Z</time></trkpt><trkpt lat="43.178386" lon="11.5347529"><ele>284.6666666666667</ele><time>2026-04-25T11:09:45.073Z</time></trkpt><trkpt lat="43.1784133" lon="11.5344571"><ele>285.0</ele><time>2026-04-25T11:09:46.073Z</time></trkpt><trkpt lat="43.1784339" lon="11.5341537"><ele>285.0</ele><time>2026-04-25T11:09:47.073Z</time></trkpt><trkpt lat="43.178463" lon="11.5338526"><ele>285.0</ele><time>2026-04-25T11:09:48.073Z</time></trkpt><trkpt lat="43.1784873" lon="11.5335482"><ele>285.0</ele><time>2026-04-25T11:09:49.072Z</time></trkpt><trkpt lat="43.1785101" lon="11.5332587"><ele>283.3333333333333</ele><time>2026-04-25T11:09:50.073Z</time></trkpt><trkpt lat="43.1785357" lon="11.5329972"><ele>281.66666666666663</ele><time>2026-04-25T11:09:51.073Z</time></trkpt><trkpt lat="43.1785536" lon="11.53276"><ele>280.0</ele><time>2026-04-25T11:09:52.073Z</time></trkpt><trkpt lat="43.1785593" lon="11.5325334"><ele>280.0</ele><time>2026-04-25T11:09:53.073Z</time></trkpt><trkpt lat="43.1785228" lon="11.5323335"><ele>280.0</ele><time>2026-04-25T11:09:54.073Z</time></trkpt><trkpt lat="43.1784505" lon="11.5321634"><ele>280.0</ele><time>2026-04-25T11:09:55.072Z</time></trkpt><trkpt lat="43.1783196" lon="11.5320133"><ele>276.0</ele><time>2026-04-25T11:09:56.072Z</time></trkpt><trkpt lat="43.1781696" lon="11.5318811"><ele>272.0</ele><time>2026-04-25T11:09:57.072Z</time></trkpt><trkpt lat="43.17802" lon="11.5317573"><ele>268.0</ele><time>2026-04-25T11:09:58.073Z</time></trkpt><trkpt lat="43.1778958" lon="11.5316389"><ele>268.0</ele><time>2026-04-25T11:09:59.072Z</time></trkpt><trkpt lat="43.1778061" lon="11.5314916"><ele>268.0</ele><time>2026-04-25T11:10:00.073Z</time></trkpt><trkpt lat="43.1777467" lon="11.5312915"><ele>268.0</ele><time>2026-04-25T11:10:01.073Z</time></trkpt><trkpt lat="43.1777101" lon="11.5310734"><ele>269.0</ele><time>2026-04-25T11:10:02.072Z</time></trkpt><trkpt lat="43.1776815" lon="11.5308463"><ele>270.0</ele><time>2026-04-25T11:10:03.073Z</time></trkpt><trkpt lat="43.1776494" lon="11.5306073"><ele>271.0</ele><time>2026-04-25T11:10:04.073Z</time></trkpt><trkpt lat="43.1776137" lon="11.530359"><ele>272.0</ele><time>2026-04-25T11:10:05.073Z</time></trkpt><trkpt lat="43.1775814" lon="11.5301071"><ele>273.0</ele><time>2026-04-25T11:10:06.073Z</time></trkpt><trkpt lat="43.1775474" lon="11.5298459"><ele>274.0</ele><time>2026-04-25T11:10:07.073Z</time></trkpt><trkpt lat="43.1775169" lon="11.5295799"><ele>274.0</ele><time>2026-04-25T11:10:08.073Z</time></trkpt><trkpt lat="43.1774891" lon="11.5293014"><ele>274.0</ele><time>2026-04-25T11:10:09.073Z</time></trkpt><trkpt lat="43.1774625" lon="11.5290143"><ele>274.0</ele><time>2026-04-25T11:10:10.073Z</time></trkpt><trkpt lat="43.1774348" lon="11.5287238"><ele>274.0</ele><time>2026-04-25T11:10:11.072Z</time></trkpt><trkpt lat="43.1774078" lon="11.5284344"><ele>274.0</ele><time>2026-04-25T11:10:12.073Z</time></trkpt><trkpt lat="43.1773732" lon="11.5281519"><ele>274.0</ele><time>2026-04-25T11:10:13.073Z</time></trkpt><trkpt lat="43.1773349" lon="11.527868"><ele>274.3333333333333</ele><time>2026-04-25T11:10:14.073Z</time></trkpt><trkpt lat="43.1772833" lon="11.5275921"><ele>274.6666666666667</ele><time>2026-04-25T11:10:15.073Z</time></trkpt><trkpt lat="43.1772261" lon="11.5273133"><ele>275.0</ele><time>2026-04-25T11:10:16.073Z</time></trkpt><trkpt lat="43.1771728" lon="11.5270356"><ele>275.0</ele><time>2026-04-25T11:10:17.073Z</time></trkpt><trkpt lat="43.1771392" lon="11.5267518"><ele>275.0</ele><time>2026-04-25T11:10:18.073Z</time></trkpt><trkpt lat="43.1771451" lon="11.5264822"><ele>275.0</ele><time>2026-04-25T11:10:19.073Z</time></trkpt><trkpt lat="43.1771934" lon="11.5262297"><ele>274.6666666666667</ele><time>2026-04-25T11:10:20.073Z</time></trkpt><trkpt lat="43.1772372" lon="11.5259726"><ele>274.3333333333333</ele><time>2026-04-25T11:10:21.073Z</time></trkpt><trkpt lat="43.1772727" lon="11.5257297"><ele>274.0</ele><time>2026-04-25T11:10:22.073Z</time></trkpt><trkpt lat="43.1773034" lon="11.5255044"><ele>273.25</ele><time>2026-04-25T11:10:23.073Z</time></trkpt><trkpt lat="43.1773291" lon="11.5253073"><ele>272.5</ele><time>2026-04-25T11:10:24.073Z</time></trkpt><trkpt lat="43.1773516" lon="11.5251164"><ele>271.75</ele><time>2026-04-25T11:10:25.072Z</time></trkpt><trkpt lat="43.1773682" lon="11.5249396"><ele>271.0</ele><time>2026-04-25T11:10:26.073Z</time></trkpt><trkpt lat="43.1773949" lon="11.524765"><ele>272.25</ele><time>2026-04-25T11:10:27.073Z</time></trkpt><trkpt lat="43.1774204" lon="11.5245956"><ele>273.5</ele><time>2026-04-25T11:10:28.073Z</time></trkpt><trkpt lat="43.1774325" lon="11.524428"><ele>274.75</ele><time>2026-04-25T11:10:29.073Z</time></trkpt><trkpt lat="43.1774355" lon="11.5242591"><ele>276.0</ele><time>2026-04-25T11:10:30.073Z</time></trkpt><trkpt lat="43.1774168" lon="11.5240907"><ele>276.0</ele><time>2026-04-25T11:10:31.073Z</time></trkpt><trkpt lat="43.1773805" lon="11.5239348"><ele>276.0</ele><time>2026-04-25T11:10:32.073Z</time></trkpt><trkpt lat="43.1773302" lon="11.5237927"><ele>276.0</ele><time>2026-04-25T11:10:33.073Z</time></trkpt><trkpt lat="43.1772847" lon="11.5236649"><ele>276.0</ele><time>2026-04-25T11:10:34.073Z</time></trkpt><trkpt lat="43.177239" lon="11.5235452"><ele>276.0</ele><time>2026-04-25T11:10:35.072Z</time></trkpt><trkpt lat="43.1771959" lon="11.523427"><ele>277.3333333333333</ele><time>2026-04-25T11:10:36.072Z</time></trkpt><trkpt lat="43.1771513" lon="11.5233279"><ele>278.6666666666667</ele><time>2026-04-25T11:10:37.073Z</time></trkpt><trkpt lat="43.1770918" lon="11.5232602"><ele>280.0</ele><time>2026-04-25T11:10:38.073Z</time></trkpt><trkpt lat="43.1769889" lon="11.5231852"><ele>281.33333333333337</ele><time>2026-04-25T11:10:40.073Z</time></trkpt><trkpt lat="43.1769266" lon="11.5231604"><ele>282.6666666666667</ele><time>2026-04-25T11:10:41.072Z</time></trkpt><trkpt lat="43.17686" lon="11.5231429"><ele>284.0</ele><time>2026-04-25T11:10:42.072Z</time></trkpt><trkpt lat="43.1767913" lon="11.5231393"><ele>284.0</ele><time>2026-04-25T11:10:43.073Z</time></trkpt><trkpt lat="43.1767139" lon="11.5231387"><ele>284.0</ele><time>2026-04-25T11:10:44.073Z</time></trkpt><trkpt lat="43.1766361" lon="11.52315"><ele>284.0</ele><time>2026-04-25T11:10:45.073Z</time></trkpt><trkpt lat="43.1765565" lon="11.5231608"><ele>284.0</ele><time>2026-04-25T11:10:46.073Z</time></trkpt><trkpt lat="43.1764712" lon="11.5231751"><ele>284.0</ele><time>2026-04-25T11:10:47.073Z</time></trkpt><trkpt lat="43.1763752" lon="11.5231787"><ele>284.0</ele><time>2026-04-25T11:10:48.073Z</time></trkpt><trkpt lat="43.1762719" lon="11.5231687"><ele>283.4</ele><time>2026-04-25T11:10:49.073Z</time></trkpt><trkpt lat="43.1761705" lon="11.5231213"><ele>282.79999999999995</ele><time>2026-04-25T11:10:50.073Z</time></trkpt><trkpt lat="43.1760803" lon="11.5230493"><ele>282.20000000000005</ele><time>2026-04-25T11:10:51.073Z</time></trkpt><trkpt lat="43.1759936" lon="11.5229691"><ele>281.6</ele><time>2026-04-25T11:10:52.072Z</time></trkpt><trkpt lat="43.1759121" lon="11.522891"><ele>281.0</ele><time>2026-04-25T11:10:53.072Z</time></trkpt><trkpt lat="43.1758288" lon="11.5228066"><ele>281.0</ele><time>2026-04-25T11:10:54.073Z</time></trkpt><trkpt lat="43.1757462" lon="11.5227289"><ele>281.0</ele><time>2026-04-25T11:10:55.073Z</time></trkpt><trkpt lat="43.1756702" lon="11.522646"><ele>281.0</ele><time>2026-04-25T11:10:56.073Z</time></trkpt><trkpt lat="43.175598" lon="11.5225456"><ele>281.0</ele><time>2026-04-25T11:10:57.073Z</time></trkpt><trkpt lat="43.1755314" lon="11.5224135"><ele>281.0</ele><time>2026-04-25T11:10:58.073Z</time></trkpt><trkpt lat="43.1754762" lon="11.5222753"><ele>277.6</ele><time>2026-04-25T11:10:59.072Z</time></trkpt><trkpt lat="43.1754259" lon="11.5221302"><ele>274.20000000000005</ele><time>2026-04-25T11:11:00.072Z</time></trkpt><trkpt lat="43.1753899" lon="11.5219915"><ele>270.79999999999995</ele><time>2026-04-25T11:11:01.072Z</time></trkpt><trkpt lat="43.1753547" lon="11.5218504"><ele>267.4</ele><time>2026-04-25T11:11:02.073Z</time></trkpt><trkpt lat="43.1753222" lon="11.5217125"><ele>264.0</ele><time>2026-04-25T11:11:03.073Z</time></trkpt><trkpt lat="43.1753047" lon="11.5215615"><ele>264.0</ele><time>2026-04-25T11:11:04.073Z</time></trkpt><trkpt lat="43.1753219" lon="11.5213941"><ele>264.0</ele><time>2026-04-25T11:11:05.073Z</time></trkpt><trkpt lat="43.1753521" lon="11.5212193"><ele>264.0</ele><time>2026-04-25T11:11:06.072Z</time></trkpt><trkpt lat="43.1753849" lon="11.5210431"><ele>264.0</ele><time>2026-04-25T11:11:07.072Z</time></trkpt><trkpt lat="43.1754088" lon="11.5208656"><ele>263.75</ele><time>2026-04-25T11:11:08.073Z</time></trkpt><trkpt lat="43.1754238" lon="11.5206943"><ele>263.5</ele><time>2026-04-25T11:11:09.073Z</time></trkpt><trkpt lat="43.17543" lon="11.5205223"><ele>263.25</ele><time>2026-04-25T11:11:10.073Z</time></trkpt><trkpt lat="43.1754237" lon="11.5203583"><ele>263.0</ele><time>2026-04-25T11:11:11.073Z</time></trkpt><trkpt lat="43.1754162" lon="11.5201932"><ele>263.0</ele><time>2026-04-25T11:11:12.072Z</time></trkpt><trkpt lat="43.1754166" lon="11.5200321"><ele>263.0</ele><time>2026-04-25T11:11:13.072Z</time></trkpt><trkpt lat="43.1754098" lon="11.5198822"><ele>263.0</ele><time>2026-04-25T11:11:14.073Z</time></trkpt><trkpt lat="43.1753975" lon="11.5197312"><ele>263.0</ele><time>2026-04-25T11:11:15.073Z</time></trkpt><trkpt lat="43.1753756" lon="11.5195938"><ele>263.0</ele><time>2026-04-25T11:11:16.073Z</time></trkpt><trkpt lat="43.1753365" lon="11.5194447"><ele>263.2</ele><time>2026-04-25T11:11:17.073Z</time></trkpt><trkpt lat="43.1752917" lon="11.5193048"><ele>263.4</ele><time>2026-04-25T11:11:18.073Z</time></trkpt><trkpt lat="43.1752409" lon="11.519165"><ele>263.59999999999997</ele><time>2026-04-25T11:11:19.073Z</time></trkpt><trkpt lat="43.1751933" lon="11.5190206"><ele>263.8</ele><time>2026-04-25T11:11:20.073Z</time></trkpt><trkpt lat="43.1751468" lon="11.5188897"><ele>264.0</ele><time>2026-04-25T11:11:21.073Z</time></trkpt><trkpt lat="43.1751026" lon="11.5187723"><ele>262.2</ele><time>2026-04-25T11:11:22.072Z</time></trkpt><trkpt lat="43.1750422" lon="11.5186749"><ele>260.4</ele><time>2026-04-25T11:11:23.073Z</time></trkpt><trkpt lat="43.1749633" lon="11.5186097"><ele>258.6</ele><time>2026-04-25T11:11:24.073Z</time></trkpt><trkpt lat="43.1748678" lon="11.5185942"><ele>256.8</ele><time>2026-04-25T11:11:25.073Z</time></trkpt><trkpt lat="43.174769" lon="11.5186128"><ele>255.0</ele><time>2026-04-25T11:11:26.072Z</time></trkpt><trkpt lat="43.1746727" lon="11.5186345"><ele>255.0</ele><time>2026-04-25T11:11:27.073Z</time></trkpt><trkpt lat="43.1745688" lon="11.5186509"><ele>255.0</ele><time>2026-04-25T11:11:28.073Z</time></trkpt><trkpt lat="43.1744698" lon="11.518653"><ele>255.0</ele><time>2026-04-25T11:11:29.072Z</time></trkpt><trkpt lat="43.1743695" lon="11.5186308"><ele>255.0</ele><time>2026-04-25T11:11:30.073Z</time></trkpt><trkpt lat="43.1742694" lon="11.5185651"><ele>255.0</ele><time>2026-04-25T11:11:31.073Z</time></trkpt><trkpt lat="43.1741774" lon="11.5184766"><ele>255.0</ele><time>2026-04-25T11:11:32.072Z</time></trkpt><trkpt lat="43.1740996" lon="11.5183692"><ele>255.0</ele><time>2026-04-25T11:11:33.073Z</time></trkpt><trkpt lat="43.174024" lon="11.5182657"><ele>255.0</ele><time>2026-04-25T11:11:34.072Z</time></trkpt><trkpt lat="43.1739533" lon="11.5181543"><ele>255.0</ele><time>2026-04-25T11:11:35.072Z</time></trkpt><trkpt lat="43.1738678" lon="11.5180507"><ele>255.0</ele><time>2026-04-25T11:11:36.073Z</time></trkpt><trkpt lat="43.1737805" lon="11.5179621"><ele>252.75</ele><time>2026-04-25T11:11:37.072Z</time></trkpt><trkpt lat="43.173688" lon="11.5178802"><ele>250.5</ele><time>2026-04-25T11:11:38.073Z</time></trkpt><trkpt lat="43.1735845" lon="11.5177998"><ele>248.25</ele><time>2026-04-25T11:11:39.072Z</time></trkpt><trkpt lat="43.1734792" lon="11.5177234"><ele>246.0</ele><time>2026-04-25T11:11:40.073Z</time></trkpt><trkpt lat="43.1733657" lon="11.5176503"><ele>246.0</ele><time>2026-04-25T11:11:41.072Z</time></trkpt><trkpt lat="43.1732436" lon="11.5175876"><ele>246.0</ele><time>2026-04-25T11:11:42.073Z</time></trkpt><trkpt lat="43.1731197" lon="11.5175503"><ele>246.0</ele><time>2026-04-25T11:11:43.073Z</time></trkpt><trkpt lat="43.1729997" lon="11.5175293"><ele>246.0</ele><time>2026-04-25T11:11:44.073Z</time></trkpt><trkpt lat="43.1728721" lon="11.5175234"><ele>244.5</ele><time>2026-04-25T11:11:45.073Z</time></trkpt><trkpt lat="43.1727477" lon="11.517515"><ele>243.0</ele><time>2026-04-25T11:11:46.073Z</time></trkpt><trkpt lat="43.1726226" lon="11.5175049"><ele>241.5</ele><time>2026-04-25T11:11:47.073Z</time></trkpt><trkpt lat="43.1724955" lon="11.5174861"><ele>240.0</ele><time>2026-04-25T11:11:48.073Z</time></trkpt><trkpt lat="43.1723647" lon="11.5174632"><ele>237.66666666666669</ele><time>2026-04-25T11:11:49.073Z</time></trkpt><trkpt lat="43.1722236" lon="11.5173981"><ele>235.33333333333334</ele><time>2026-04-25T11:11:50.073Z</time></trkpt><trkpt lat="43.1720637" lon="11.5173129"><ele>233.0</ele><time>2026-04-25T11:11:51.072Z</time></trkpt><trkpt lat="43.1718922" lon="11.5172137"><ele>233.0</ele><time>2026-04-25T11:11:52.073Z</time></trkpt><trkpt lat="43.1717071" lon="11.5171275"><ele>233.0</ele><time>2026-04-25T11:11:53.072Z</time></trkpt><trkpt lat="43.1715131" lon="11.5170101"><ele>233.0</ele><time>2026-04-25T11:11:54.073Z</time></trkpt><trkpt lat="43.1713171" lon="11.5168823"><ele>235.5</ele><time>2026-04-25T11:11:55.073Z</time></trkpt><trkpt lat="43.171109" lon="11.5167603"><ele>238.0</ele><time>2026-04-25T11:11:56.072Z</time></trkpt><trkpt lat="43.1709028" lon="11.5166347"><ele>238.0</ele><time>2026-04-25T11:11:57.072Z</time></trkpt><trkpt lat="43.1706947" lon="11.5165128"><ele>238.0</ele><time>2026-04-25T11:11:58.073Z</time></trkpt><trkpt lat="43.1704939" lon="11.5163853"><ele>238.0</ele><time>2026-04-25T11:11:59.073Z</time></trkpt><trkpt lat="43.1702901" lon="11.5162683"><ele>238.66666666666666</ele><time>2026-04-25T11:12:00.073Z</time></trkpt><trkpt lat="43.1700877" lon="11.5161711"><ele>239.33333333333331</ele><time>2026-04-25T11:12:01.072Z</time></trkpt><trkpt lat="43.1698673" lon="11.516126"><ele>240.0</ele><time>2026-04-25T11:12:02.073Z</time></trkpt><trkpt lat="43.1696376" lon="11.5160857"><ele>240.0</ele><time>2026-04-25T11:12:03.073Z</time></trkpt><trkpt lat="43.169418" lon="11.5159975"><ele>240.0</ele><time>2026-04-25T11:12:04.073Z</time></trkpt><trkpt lat="43.1692149" lon="11.5158725"><ele>238.0</ele><time>2026-04-25T11:12:05.073Z</time></trkpt><trkpt lat="43.1690221" lon="11.5157941"><ele>236.0</ele><time>2026-04-25T11:12:06.073Z</time></trkpt><trkpt lat="43.1688225" lon="11.5157819"><ele>234.0</ele><time>2026-04-25T11:12:07.073Z</time></trkpt><trkpt lat="43.1686313" lon="11.5158053"><ele>234.0</ele><time>2026-04-25T11:12:08.072Z</time></trkpt><trkpt lat="43.1684605" lon="11.5157804"><ele>234.0</ele><time>2026-04-25T11:12:09.073Z</time></trkpt><trkpt lat="43.1682762" lon="11.5156989"><ele>234.0</ele><time>2026-04-25T11:12:10.072Z</time></trkpt><trkpt lat="43.1681052" lon="11.5155821"><ele>233.66666666666669</ele><time>2026-04-25T11:12:11.073Z</time></trkpt><trkpt lat="43.1679409" lon="11.5154721"><ele>233.33333333333334</ele><time>2026-04-25T11:12:12.073Z</time></trkpt><trkpt lat="43.1677973" lon="11.5153721"><ele>233.0</ele><time>2026-04-25T11:12:13.073Z</time></trkpt><trkpt lat="43.1676668" lon="11.5152685"><ele>233.0</ele><time>2026-04-25T11:12:14.072Z</time></trkpt><trkpt lat="43.1675674" lon="11.5151259"><ele>233.0</ele><time>2026-04-25T11:12:15.073Z</time></trkpt><trkpt lat="43.1674989" lon="11.5149234"><ele>233.0</ele><time>2026-04-25T11:12:16.073Z</time></trkpt><trkpt lat="43.1674625" lon="11.5147146"><ele>232.66666666666669</ele><time>2026-04-25T11:12:17.073Z</time></trkpt><trkpt lat="43.1674324" lon="11.5145164"><ele>232.33333333333331</ele><time>2026-04-25T11:12:18.072Z</time></trkpt><trkpt lat="43.1673653" lon="11.5143308"><ele>232.0</ele><time>2026-04-25T11:12:19.073Z</time></trkpt><trkpt lat="43.1672586" lon="11.5141781"><ele>232.0</ele><time>2026-04-25T11:12:20.072Z</time></trkpt><trkpt lat="43.1671183" lon="11.5140522"><ele>232.0</ele><time>2026-04-25T11:12:21.073Z</time></trkpt><trkpt lat="43.166967" lon="11.5139585"><ele>232.0</ele><time>2026-04-25T11:12:22.073Z</time></trkpt><trkpt lat="43.16684" lon="11.513867"><ele>232.0</ele><time>2026-04-25T11:12:23.073Z</time></trkpt><trkpt lat="43.1667085" lon="11.5138084"><ele>232.0</ele><time>2026-04-25T11:12:24.073Z</time></trkpt><trkpt lat="43.166574" lon="11.5138292"><ele>232.0</ele><time>2026-04-25T11:12:25.073Z</time></trkpt><trkpt lat="43.166442" lon="11.5139118"><ele>232.0</ele><time>2026-04-25T11:12:26.073Z</time></trkpt><trkpt lat="43.1663254" lon="11.5140546"><ele>232.75</ele><time>2026-04-25T11:12:27.073Z</time></trkpt><trkpt lat="43.1662336" lon="11.514193"><ele>233.5</ele><time>2026-04-25T11:12:28.072Z</time></trkpt><trkpt lat="43.1661535" lon="11.5143392"><ele>234.25</ele><time>2026-04-25T11:12:29.073Z</time></trkpt><trkpt lat="43.1660747" lon="11.5144613"><ele>235.0</ele><time>2026-04-25T11:12:30.072Z</time></trkpt><trkpt lat="43.1659886" lon="11.5145531"><ele>235.0</ele><time>2026-04-25T11:12:31.072Z</time></trkpt><trkpt lat="43.1658868" lon="11.5145847"><ele>235.0</ele><time>2026-04-25T11:12:32.072Z</time></trkpt><trkpt lat="43.1657825" lon="11.5145622"><ele>235.0</ele><time>2026-04-25T11:12:33.072Z</time></trkpt><trkpt lat="43.1656781" lon="11.5144432"><ele>235.0</ele><time>2026-04-25T11:12:34.073Z</time></trkpt><trkpt lat="43.1656036" lon="11.5142936"><ele>232.5</ele><time>2026-04-25T11:12:35.072Z</time></trkpt><trkpt lat="43.165534" lon="11.5141326"><ele>230.0</ele><time>2026-04-25T11:12:36.073Z</time></trkpt><trkpt lat="43.1654355" lon="11.5139987"><ele>227.5</ele><time>2026-04-25T11:12:37.072Z</time></trkpt><trkpt lat="43.1653138" lon="11.5139124"><ele>225.0</ele><time>2026-04-25T11:12:38.073Z</time></trkpt><trkpt lat="43.1651706" lon="11.5138594"><ele>225.0</ele><time>2026-04-25T11:12:39.072Z</time></trkpt><trkpt lat="43.1650379" lon="11.51382"><ele>225.0</ele><time>2026-04-25T11:12:40.073Z</time></trkpt><trkpt lat="43.1649025" lon="11.5138109"><ele>225.0</ele><time>2026-04-25T11:12:41.073Z</time></trkpt><trkpt lat="43.164766" lon="11.5138571"><ele>225.0</ele><time>2026-04-25T11:12:42.073Z</time></trkpt><trkpt lat="43.1646285" lon="11.5139409"><ele>224.5</ele><time>2026-04-25T11:12:43.072Z</time></trkpt><trkpt lat="43.1644906" lon="11.5139998"><ele>224.0</ele><time>2026-04-25T11:12:44.073Z</time></trkpt><trkpt lat="43.16435" lon="11.5140588"><ele>223.5</ele><time>2026-04-25T11:12:45.072Z</time></trkpt><trkpt lat="43.1642097" lon="11.5141251"><ele>223.0</ele><time>2026-04-25T11:12:46.073Z</time></trkpt><trkpt lat="43.1640692" lon="11.5141992"><ele>222.5</ele><time>2026-04-25T11:12:47.072Z</time></trkpt><trkpt lat="43.1639399" lon="11.5142582"><ele>222.0</ele><time>2026-04-25T11:12:48.073Z</time></trkpt><trkpt lat="43.1638087" lon="11.5143196"><ele>221.5</ele><time>2026-04-25T11:12:49.073Z</time></trkpt><trkpt lat="43.1636761" lon="11.5143859"><ele>221.0</ele><time>2026-04-25T11:12:50.073Z</time></trkpt><trkpt lat="43.163538" lon="11.5144703"><ele>221.0</ele><time>2026-04-25T11:12:51.073Z</time></trkpt><trkpt lat="43.1634062" lon="11.5145511"><ele>221.0</ele><time>2026-04-25T11:12:52.073Z</time></trkpt><trkpt lat="43.1632726" lon="11.5146375"><ele>221.0</ele><time>2026-04-25T11:12:53.073Z</time></trkpt><trkpt lat="43.1631371" lon="11.5147166"><ele>221.0</ele><time>2026-04-25T11:12:54.072Z</time></trkpt><trkpt lat="43.163012" lon="11.5147899"><ele>223.75</ele><time>2026-04-25T11:12:55.073Z</time></trkpt><trkpt lat="43.1628848" lon="11.5148426"><ele>226.5</ele><time>2026-04-25T11:12:56.073Z</time></trkpt><trkpt lat="43.1627569" lon="11.514866"><ele>229.25</ele><time>2026-04-25T11:12:57.073Z</time></trkpt><trkpt lat="43.1626369" lon="11.5148463"><ele>232.0</ele><time>2026-04-25T11:12:58.073Z</time></trkpt><trkpt lat="43.1625304" lon="11.5147946"><ele>232.0</ele><time>2026-04-25T11:12:59.073Z</time></trkpt><trkpt lat="43.1624222" lon="11.5147144"><ele>232.0</ele><time>2026-04-25T11:13:00.073Z</time></trkpt><trkpt lat="43.1623202" lon="11.5146289"><ele>232.0</ele><time>2026-04-25T11:13:01.072Z</time></trkpt><trkpt lat="43.1622187" lon="11.5145451"><ele>232.0</ele><time>2026-04-25T11:13:02.072Z</time></trkpt><trkpt lat="43.162115" lon="11.5144539"><ele>230.0</ele><time>2026-04-25T11:13:03.073Z</time></trkpt><trkpt lat="43.1620089" lon="11.5143735"><ele>228.0</ele><time>2026-04-25T11:13:04.072Z</time></trkpt><trkpt lat="43.1619019" lon="11.514293"><ele>226.0</ele><time>2026-04-25T11:13:05.073Z</time></trkpt><trkpt lat="43.1617986" lon="11.514212"><ele>224.0</ele><time>2026-04-25T11:13:06.073Z</time></trkpt><trkpt lat="43.1616916" lon="11.5141303"><ele>224.0</ele><time>2026-04-25T11:13:07.073Z</time></trkpt><trkpt lat="43.1615788" lon="11.5140479"><ele>224.0</ele><time>2026-04-25T11:13:08.072Z</time></trkpt><trkpt lat="43.1614603" lon="11.513972"><ele>224.0</ele><time>2026-04-25T11:13:09.073Z</time></trkpt><trkpt lat="43.16134" lon="11.5139066"><ele>224.0</ele><time>2026-04-25T11:13:10.073Z</time></trkpt><trkpt lat="43.1612163" lon="11.5138485"><ele>225.75</ele><time>2026-04-25T11:13:11.073Z</time></trkpt><trkpt lat="43.1610913" lon="11.5138013"><ele>227.5</ele><time>2026-04-25T11:13:12.073Z</time></trkpt><trkpt lat="43.1609691" lon="11.5137464"><ele>229.25</ele><time>2026-04-25T11:13:13.072Z</time></trkpt><trkpt lat="43.1608508" lon="11.513696"><ele>231.0</ele><time>2026-04-25T11:13:14.073Z</time></trkpt><trkpt lat="43.1607371" lon="11.5136459"><ele>232.5</ele><time>2026-04-25T11:13:15.073Z</time></trkpt><trkpt lat="43.160623" lon="11.5135902"><ele>234.0</ele><time>2026-04-25T11:13:16.072Z</time></trkpt><trkpt lat="43.1605096" lon="11.5135335"><ele>235.5</ele><time>2026-04-25T11:13:17.072Z</time></trkpt><trkpt lat="43.1603962" lon="11.5134721"><ele>237.0</ele><time>2026-04-25T11:13:18.073Z</time></trkpt><trkpt lat="43.160286" lon="11.5133957"><ele>237.0</ele><time>2026-04-25T11:13:19.072Z</time></trkpt><trkpt lat="43.1601775" lon="11.5133145"><ele>237.0</ele><time>2026-04-25T11:13:20.073Z</time></trkpt><trkpt lat="43.1600788" lon="11.5132047"><ele>237.0</ele><time>2026-04-25T11:13:21.073Z</time></trkpt><trkpt lat="43.1599923" lon="11.5130831"><ele>237.0</ele><time>2026-04-25T11:13:22.073Z</time></trkpt><trkpt lat="43.1599231" lon="11.5129512"><ele>236.25</ele><time>2026-04-25T11:13:23.073Z</time></trkpt><trkpt lat="43.1598709" lon="11.5127955"><ele>235.5</ele><time>2026-04-25T11:13:24.073Z</time></trkpt><trkpt lat="43.1598387" lon="11.5126359"><ele>234.75</ele><time>2026-04-25T11:13:25.073Z</time></trkpt><trkpt lat="43.1598214" lon="11.5124694"><ele>234.0</ele><time>2026-04-25T11:13:26.072Z</time></trkpt><trkpt lat="43.1598071" lon="11.5123092"><ele>234.0</ele><time>2026-04-25T11:13:27.073Z</time></trkpt><trkpt lat="43.159792" lon="11.5121506"><ele>234.0</ele><time>2026-04-25T11:13:28.073Z</time></trkpt><trkpt lat="43.1597732" lon="11.5119868"><ele>234.0</ele><time>2026-04-25T11:13:29.073Z</time></trkpt><trkpt lat="43.1597535" lon="11.5118243"><ele>234.0</ele><time>2026-04-25T11:13:30.073Z</time></trkpt><trkpt lat="43.1597352" lon="11.5116632"><ele>236.5</ele><time>2026-04-25T11:13:31.073Z</time></trkpt><trkpt lat="43.1597255" lon="11.511505"><ele>239.0</ele><time>2026-04-25T11:13:32.073Z</time></trkpt><trkpt lat="43.1597342" lon="11.5113462"><ele>241.5</ele><time>2026-04-25T11:13:33.073Z</time></trkpt><trkpt lat="43.1597615" lon="11.5111906"><ele>244.0</ele><time>2026-04-25T11:13:34.072Z</time></trkpt><trkpt lat="43.1598077" lon="11.5110456"><ele>241.0</ele><time>2026-04-25T11:13:35.073Z</time></trkpt><trkpt lat="43.1598747" lon="11.5109146"><ele>238.0</ele><time>2026-04-25T11:13:36.072Z</time></trkpt><trkpt lat="43.1599392" lon="11.5107878"><ele>235.0</ele><time>2026-04-25T11:13:37.073Z</time></trkpt><trkpt lat="43.1599791" lon="11.5106408"><ele>232.0</ele><time>2026-04-25T11:13:38.072Z</time></trkpt><trkpt lat="43.1599792" lon="11.5104902"><ele>232.0</ele><time>2026-04-25T11:13:39.073Z</time></trkpt><trkpt lat="43.15992" lon="11.5103537"><ele>232.0</ele><time>2026-04-25T11:13:40.073Z</time></trkpt><trkpt lat="43.1598364" lon="11.5102516"><ele>232.0</ele><time>2026-04-25T11:13:41.073Z</time></trkpt><trkpt lat="43.1597243" lon="11.510191"><ele>232.0</ele><time>2026-04-25T11:13:42.073Z</time></trkpt><trkpt lat="43.1595994" lon="11.5101682"><ele>232.0</ele><time>2026-04-25T11:13:43.072Z</time></trkpt><trkpt lat="43.1594704" lon="11.5101514"><ele>232.0</ele><time>2026-04-25T11:13:44.072Z</time></trkpt><trkpt lat="43.1593458" lon="11.5100812"><ele>232.0</ele><time>2026-04-25T11:13:45.073Z</time></trkpt><trkpt lat="43.1592212" lon="11.5099685"><ele>232.0</ele><time>2026-04-25T11:13:46.073Z</time></trkpt><trkpt lat="43.1591155" lon="11.5098142"><ele>232.0</ele><time>2026-04-25T11:13:47.073Z</time></trkpt><trkpt lat="43.1590078" lon="11.5096636"><ele>232.0</ele><time>2026-04-25T11:13:48.073Z</time></trkpt><trkpt lat="43.1588936" lon="11.5095173"><ele>232.0</ele><time>2026-04-25T11:13:49.073Z</time></trkpt><trkpt lat="43.1587863" lon="11.5093742"><ele>232.0</ele><time>2026-04-25T11:13:50.072Z</time></trkpt><trkpt lat="43.1586893" lon="11.5092253"><ele>232.0</ele><time>2026-04-25T11:13:51.073Z</time></trkpt><trkpt lat="43.1586242" lon="11.509058"><ele>232.0</ele><time>2026-04-25T11:13:52.073Z</time></trkpt><trkpt lat="43.1585787" lon="11.5088623"><ele>232.0</ele><time>2026-04-25T11:13:53.072Z</time></trkpt><trkpt lat="43.1585508" lon="11.5086601"><ele>229.66666666666666</ele><time>2026-04-25T11:13:54.072Z</time></trkpt><trkpt lat="43.1584946" lon="11.5084716"><ele>227.33333333333331</ele><time>2026-04-25T11:13:55.073Z</time></trkpt><trkpt lat="43.1584088" lon="11.5082933"><ele>225.0</ele><time>2026-04-25T11:13:56.073Z</time></trkpt><trkpt lat="43.158332" lon="11.5081081"><ele>222.33333333333331</ele><time>2026-04-25T11:13:57.073Z</time></trkpt><trkpt lat="43.1582742" lon="11.5079088"><ele>219.66666666666666</ele><time>2026-04-25T11:13:58.072Z</time></trkpt><trkpt lat="43.1582517" lon="11.5077034"><ele>217.0</ele><time>2026-04-25T11:13:59.073Z</time></trkpt><trkpt lat="43.1582789" lon="11.5074984"><ele>217.0</ele><time>2026-04-25T11:14:00.073Z</time></trkpt><trkpt lat="43.158334" lon="11.5073137"><ele>217.0</ele><time>2026-04-25T11:14:01.073Z</time></trkpt><trkpt lat="43.1583726" lon="11.5071386"><ele>217.0</ele><time>2026-04-25T11:14:02.073Z</time></trkpt><trkpt lat="43.1583673" lon="11.5069825"><ele>217.0</ele><time>2026-04-25T11:14:03.073Z</time></trkpt><trkpt lat="43.1583222" lon="11.5068352"><ele>215.5</ele><time>2026-04-25T11:14:04.072Z</time></trkpt><trkpt lat="43.158231" lon="11.5067334"><ele>214.0</ele><time>2026-04-25T11:14:05.073Z</time></trkpt><trkpt lat="43.1581124" lon="11.5066749"><ele>212.5</ele><time>2026-04-25T11:14:06.073Z</time></trkpt><trkpt lat="43.1579822" lon="11.5066788"><ele>211.0</ele><time>2026-04-25T11:14:07.073Z</time></trkpt><trkpt lat="43.1578407" lon="11.5067223"><ele>210.0</ele><time>2026-04-25T11:14:08.073Z</time></trkpt><trkpt lat="43.1576952" lon="11.5067704"><ele>209.0</ele><time>2026-04-25T11:14:09.073Z</time></trkpt><trkpt lat="43.1575475" lon="11.5068123"><ele>208.0</ele><time>2026-04-25T11:14:10.073Z</time></trkpt><trkpt lat="43.1573957" lon="11.5068592"><ele>207.33333333333331</ele><time>2026-04-25T11:14:11.073Z</time></trkpt><trkpt lat="43.1572333" lon="11.5068982"><ele>206.66666666666669</ele><time>2026-04-25T11:14:12.073Z</time></trkpt><trkpt lat="43.1570682" lon="11.5069366"><ele>206.0</ele><time>2026-04-25T11:14:13.073Z</time></trkpt><trkpt lat="43.1568976" lon="11.5069695"><ele>206.0</ele><time>2026-04-25T11:14:14.073Z</time></trkpt><trkpt lat="43.1567253" lon="11.5069898"><ele>206.0</ele><time>2026-04-25T11:14:15.073Z</time></trkpt><trkpt lat="43.1565558" lon="11.5069891"><ele>206.0</ele><time>2026-04-25T11:14:16.073Z</time></trkpt><trkpt lat="43.1563861" lon="11.506966"><ele>206.33333333333334</ele><time>2026-04-25T11:14:17.073Z</time></trkpt><trkpt lat="43.1562157" lon="11.5069301"><ele>206.66666666666669</ele><time>2026-04-25T11:14:18.073Z</time></trkpt><trkpt lat="43.1560551" lon="11.5068859"><ele>207.0</ele><time>2026-04-25T11:14:19.073Z</time></trkpt><trkpt lat="43.1559008" lon="11.5068484"><ele>207.0</ele><time>2026-04-25T11:14:20.073Z</time></trkpt><trkpt lat="43.1557519" lon="11.5068102"><ele>207.0</ele><time>2026-04-25T11:14:21.073Z</time></trkpt><trkpt lat="43.1556098" lon="11.5067757"><ele>207.0</ele><time>2026-04-25T11:14:22.073Z</time></trkpt><trkpt lat="43.1554775" lon="11.5067268"><ele>207.0</ele><time>2026-04-25T11:14:23.073Z</time></trkpt><trkpt lat="43.1553615" lon="11.5066286"><ele>207.75</ele><time>2026-04-25T11:14:24.073Z</time></trkpt><trkpt lat="43.1552663" lon="11.5064784"><ele>208.5</ele><time>2026-04-25T11:14:25.072Z</time></trkpt><trkpt lat="43.1552156" lon="11.506293"><ele>209.25</ele><time>2026-04-25T11:14:26.073Z</time></trkpt><trkpt lat="43.1551836" lon="11.506091"><ele>210.0</ele><time>2026-04-25T11:14:27.073Z</time></trkpt><trkpt lat="43.1551588" lon="11.5058909"><ele>210.0</ele><time>2026-04-25T11:14:28.073Z</time></trkpt><trkpt lat="43.1551405" lon="11.5057032"><ele>210.0</ele><time>2026-04-25T11:14:29.073Z</time></trkpt><trkpt lat="43.1551191" lon="11.5055249"><ele>210.0</ele><time>2026-04-25T11:14:30.073Z</time></trkpt><trkpt lat="43.1550809" lon="11.5053608"><ele>210.0</ele><time>2026-04-25T11:14:31.072Z</time></trkpt><trkpt lat="43.155015" lon="11.5052031"><ele>207.0</ele><time>2026-04-25T11:14:32.073Z</time></trkpt><trkpt lat="43.1549099" lon="11.5050697"><ele>204.0</ele><time>2026-04-25T11:14:33.073Z</time></trkpt><trkpt lat="43.1547836" lon="11.5050067"><ele>201.0</ele><time>2026-04-25T11:14:34.072Z</time></trkpt><trkpt lat="43.1546414" lon="11.5050069"><ele>198.0</ele><time>2026-04-25T11:14:35.073Z</time></trkpt><trkpt lat="43.1545037" lon="11.505058"><ele>198.0</ele><time>2026-04-25T11:14:36.072Z</time></trkpt><trkpt lat="43.1543693" lon="11.5051269"><ele>198.0</ele><time>2026-04-25T11:14:37.073Z</time></trkpt><trkpt lat="43.1542321" lon="11.5051936"><ele>198.0</ele><time>2026-04-25T11:14:38.072Z</time></trkpt><trkpt lat="43.1540974" lon="11.5052462"><ele>198.0</ele><time>2026-04-25T11:14:39.073Z</time></trkpt><trkpt lat="43.1539529" lon="11.5052768"><ele>199.75</ele><time>2026-04-25T11:14:40.073Z</time></trkpt><trkpt lat="43.153813" lon="11.5052887"><ele>201.5</ele><time>2026-04-25T11:14:41.073Z</time></trkpt><trkpt lat="43.1536721" lon="11.5052694"><ele>203.25</ele><time>2026-04-25T11:14:42.072Z</time></trkpt><trkpt lat="43.1535468" lon="11.5052077"><ele>205.0</ele><time>2026-04-25T11:14:43.073Z</time></trkpt><trkpt lat="43.153435" lon="11.5050905"><ele>205.0</ele><time>2026-04-25T11:14:44.072Z</time></trkpt><trkpt lat="43.1533455" lon="11.5049415"><ele>205.0</ele><time>2026-04-25T11:14:45.072Z</time></trkpt><trkpt lat="43.1532708" lon="11.5047814"><ele>205.0</ele><time>2026-04-25T11:14:46.073Z</time></trkpt><trkpt lat="43.1532224" lon="11.5046073"><ele>205.0</ele><time>2026-04-25T11:14:47.073Z</time></trkpt><trkpt lat="43.1531751" lon="11.5044425"><ele>203.75</ele><time>2026-04-25T11:14:48.073Z</time></trkpt><trkpt lat="43.1531021" lon="11.504301"><ele>202.5</ele><time>2026-04-25T11:14:49.073Z</time></trkpt><trkpt lat="43.1529843" lon="11.5041884"><ele>201.25</ele><time>2026-04-25T11:14:50.073Z</time></trkpt><trkpt lat="43.1528442" lon="11.5040925"><ele>200.0</ele><time>2026-04-25T11:14:51.072Z</time></trkpt><trkpt lat="43.1527019" lon="11.5040118"><ele>200.0</ele><time>2026-04-25T11:14:52.072Z</time></trkpt><trkpt lat="43.152553" lon="11.5039255"><ele>200.0</ele><time>2026-04-25T11:14:53.073Z</time></trkpt><trkpt lat="43.1524006" lon="11.5038408"><ele>200.0</ele><time>2026-04-25T11:14:54.073Z</time></trkpt><trkpt lat="43.1522506" lon="11.503741"><ele>197.66666666666669</ele><time>2026-04-25T11:14:55.073Z</time></trkpt><trkpt lat="43.152115" lon="11.5036104"><ele>195.33333333333331</ele><time>2026-04-25T11:14:56.073Z</time></trkpt><trkpt lat="43.1519837" lon="11.5034496"><ele>193.0</ele><time>2026-04-25T11:14:57.072Z</time></trkpt><trkpt lat="43.1518575" lon="11.5032687"><ele>193.0</ele><time>2026-04-25T11:14:58.073Z</time></trkpt><trkpt lat="43.1517341" lon="11.5030818"><ele>193.0</ele><time>2026-04-25T11:14:59.072Z</time></trkpt><trkpt lat="43.1516072" lon="11.502899"><ele>193.0</ele><time>2026-04-25T11:15:00.073Z</time></trkpt><trkpt lat="43.1514728" lon="11.5027094"><ele>187.66666666666666</ele><time>2026-04-25T11:15:01.073Z</time></trkpt><trkpt lat="43.1513438" lon="11.5025369"><ele>182.33333333333331</ele><time>2026-04-25T11:15:02.073Z</time></trkpt><trkpt lat="43.1512174" lon="11.5023793"><ele>177.0</ele><time>2026-04-25T11:15:03.073Z</time></trkpt><trkpt lat="43.1510918" lon="11.5022325"><ele>180.0</ele><time>2026-04-25T11:15:04.073Z</time></trkpt><trkpt lat="43.1509671" lon="11.5020652"><ele>183.0</ele><time>2026-04-25T11:15:05.073Z</time></trkpt><trkpt lat="43.15085" lon="11.5018844"><ele>186.0</ele><time>2026-04-25T11:15:06.072Z</time></trkpt><trkpt lat="43.1507538" lon="11.5016851"><ele>180.66666666666666</ele><time>2026-04-25T11:15:07.072Z</time></trkpt><trkpt lat="43.1506839" lon="11.5014644"><ele>175.33333333333331</ele><time>2026-04-25T11:15:08.073Z</time></trkpt><trkpt lat="43.1506248" lon="11.5012444"><ele>170.0</ele><time>2026-04-25T11:15:09.073Z</time></trkpt><trkpt lat="43.1505484" lon="11.5010293"><ele>170.0</ele><time>2026-04-25T11:15:10.073Z</time></trkpt><trkpt lat="43.150439" lon="11.5008251"><ele>170.0</ele><time>2026-04-25T11:15:11.073Z</time></trkpt><trkpt lat="43.1503256" lon="11.5006262"><ele>170.0</ele><time>2026-04-25T11:15:12.073Z</time></trkpt><trkpt lat="43.1502154" lon="11.5004453"><ele>167.33333333333331</ele><time>2026-04-25T11:15:13.073Z</time></trkpt><trkpt lat="43.1500961" lon="11.5002746"><ele>164.66666666666666</ele><time>2026-04-25T11:15:14.073Z</time></trkpt><trkpt lat="43.1499677" lon="11.5001245"><ele>162.0</ele><time>2026-04-25T11:15:15.073Z</time></trkpt><trkpt lat="43.1498311" lon="11.5000154"><ele>162.0</ele><time>2026-04-25T11:15:16.072Z</time></trkpt><trkpt lat="43.1496901" lon="11.4999133"><ele>162.0</ele><time>2026-04-25T11:15:17.073Z</time></trkpt><trkpt lat="43.1495647" lon="11.4997751"><ele>162.0</ele><time>2026-04-25T11:15:18.073Z</time></trkpt><trkpt lat="43.1494546" lon="11.4996199"><ele>164.0</ele><time>2026-04-25T11:15:19.072Z</time></trkpt><trkpt lat="43.1493634" lon="11.49945"><ele>166.0</ele><time>2026-04-25T11:15:20.073Z</time></trkpt><trkpt lat="43.1492953" lon="11.4992639"><ele>168.0</ele><time>2026-04-25T11:15:21.072Z</time></trkpt><trkpt lat="43.1492418" lon="11.4990663"><ele>168.0</ele><time>2026-04-25T11:15:22.073Z</time></trkpt><trkpt lat="43.149175" lon="11.4988868"><ele>168.0</ele><time>2026-04-25T11:15:23.073Z</time></trkpt><trkpt lat="43.1490829" lon="11.4987445"><ele>168.0</ele><time>2026-04-25T11:15:24.073Z</time></trkpt><trkpt lat="43.1489442" lon="11.4986518"><ele>168.0</ele><time>2026-04-25T11:15:25.072Z</time></trkpt><trkpt lat="43.1487873" lon="11.4985992"><ele>168.0</ele><time>2026-04-25T11:15:26.073Z</time></trkpt><trkpt lat="43.1486177" lon="11.4985911"><ele>168.0</ele><time>2026-04-25T11:15:27.073Z</time></trkpt><trkpt lat="43.1484596" lon="11.4986099"><ele>168.0</ele><time>2026-04-25T11:15:28.073Z</time></trkpt><trkpt lat="43.1483061" lon="11.4986263"><ele>167.33333333333334</ele><time>2026-04-25T11:15:29.073Z</time></trkpt><trkpt lat="43.1481603" lon="11.4986296"><ele>166.66666666666669</ele><time>2026-04-25T11:15:30.072Z</time></trkpt><trkpt lat="43.1480114" lon="11.4986112"><ele>166.0</ele><time>2026-04-25T11:15:31.072Z</time></trkpt><trkpt lat="43.1478595" lon="11.4985396"><ele>166.0</ele><time>2026-04-25T11:15:32.072Z</time></trkpt><trkpt lat="43.1477117" lon="11.4984391"><ele>166.0</ele><time>2026-04-25T11:15:33.072Z</time></trkpt><trkpt lat="43.1475575" lon="11.4983355"><ele>166.0</ele><time>2026-04-25T11:15:34.073Z</time></trkpt><trkpt lat="43.1473887" lon="11.4982612"><ele>161.33333333333334</ele><time>2026-04-25T11:15:35.073Z</time></trkpt><trkpt lat="43.1472198" lon="11.4981844"><ele>156.66666666666666</ele><time>2026-04-25T11:15:36.072Z</time></trkpt><trkpt lat="43.147057" lon="11.4980792"><ele>152.0</ele><time>2026-04-25T11:15:37.073Z</time></trkpt><trkpt lat="43.146899" lon="11.4979334"><ele>150.66666666666666</ele><time>2026-04-25T11:15:38.073Z</time></trkpt><trkpt lat="43.1467519" lon="11.4977827"><ele>149.33333333333334</ele><time>2026-04-25T11:15:39.073Z</time></trkpt><trkpt lat="43.1466005" lon="11.4976223"><ele>148.0</ele><time>2026-04-25T11:15:40.073Z</time></trkpt><trkpt lat="43.1464512" lon="11.4974596"><ele>148.0</ele><time>2026-04-25T11:15:41.073Z</time></trkpt><trkpt lat="43.1463021" lon="11.4972981"><ele>148.0</ele><time>2026-04-25T11:15:42.072Z</time></trkpt><trkpt lat="43.1461568" lon="11.4971264"><ele>148.0</ele><time>2026-04-25T11:15:43.073Z</time></trkpt><trkpt lat="43.1460138" lon="11.4969557"><ele>147.66666666666669</ele><time>2026-04-25T11:15:44.073Z</time></trkpt><trkpt lat="43.145878" lon="11.4967848"><ele>147.33333333333334</ele><time>2026-04-25T11:15:45.073Z</time></trkpt><trkpt lat="43.1457454" lon="11.4966187"><ele>147.0</ele><time>2026-04-25T11:15:46.073Z</time></trkpt><trkpt lat="43.1456134" lon="11.4964622"><ele>147.0</ele><time>2026-04-25T11:15:47.073Z</time></trkpt><trkpt lat="43.1454732" lon="11.4963166"><ele>147.0</ele><time>2026-04-25T11:15:48.073Z</time></trkpt><trkpt lat="43.1453181" lon="11.4961976"><ele>147.0</ele><time>2026-04-25T11:15:49.073Z</time></trkpt><trkpt lat="43.1451451" lon="11.496108"><ele>147.33333333333334</ele><time>2026-04-25T11:15:50.073Z</time></trkpt><trkpt lat="43.1449621" lon="11.4960491"><ele>147.66666666666669</ele><time>2026-04-25T11:15:51.073Z</time></trkpt><trkpt lat="43.1447683" lon="11.4960003"><ele>148.0</ele><time>2026-04-25T11:15:52.073Z</time></trkpt><trkpt lat="43.1445667" lon="11.4959566"><ele>147.33333333333334</ele><time>2026-04-25T11:15:53.073Z</time></trkpt><trkpt lat="43.1443732" lon="11.4959064"><ele>146.66666666666666</ele><time>2026-04-25T11:15:54.073Z</time></trkpt><trkpt lat="43.1441847" lon="11.4958566"><ele>146.0</ele><time>2026-04-25T11:15:55.073Z</time></trkpt><trkpt lat="43.1440038" lon="11.4958132"><ele>146.0</ele><time>2026-04-25T11:15:56.072Z</time></trkpt><trkpt lat="43.143826" lon="11.4957748"><ele>146.0</ele><time>2026-04-25T11:15:57.073Z</time></trkpt><trkpt lat="43.1436594" lon="11.4957302"><ele>146.0</ele><time>2026-04-25T11:15:58.073Z</time></trkpt><trkpt lat="43.1435146" lon="11.4956578"><ele>146.0</ele><time>2026-04-25T11:15:59.073Z</time></trkpt><trkpt lat="43.1433958" lon="11.4955165"><ele>146.0</ele><time>2026-04-25T11:16:00.072Z</time></trkpt><trkpt lat="43.1433011" lon="11.4953432"><ele>146.0</ele><time>2026-04-25T11:16:01.073Z</time></trkpt><trkpt lat="43.1432152" lon="11.4951495"><ele>146.33333333333331</ele><time>2026-04-25T11:16:02.072Z</time></trkpt><trkpt lat="43.1431274" lon="11.4949552"><ele>146.66666666666666</ele><time>2026-04-25T11:16:03.072Z</time></trkpt><trkpt lat="43.1430336" lon="11.4947662"><ele>147.0</ele><time>2026-04-25T11:16:04.073Z</time></trkpt><trkpt lat="43.1429275" lon="11.4945761"><ele>147.0</ele><time>2026-04-25T11:16:05.072Z</time></trkpt><trkpt lat="43.1428191" lon="11.4943796"><ele>147.0</ele><time>2026-04-25T11:16:06.073Z</time></trkpt><trkpt lat="43.1427134" lon="11.4941751"><ele>147.0</ele><time>2026-04-25T11:16:07.073Z</time></trkpt><trkpt lat="43.1426154" lon="11.493957"><ele>147.33333333333334</ele><time>2026-04-25T11:16:08.073Z</time></trkpt><trkpt lat="43.1425351" lon="11.493727"><ele>147.66666666666669</ele><time>2026-04-25T11:16:09.072Z</time></trkpt><trkpt lat="43.1424698" lon="11.4934782"><ele>148.0</ele><time>2026-04-25T11:16:10.073Z</time></trkpt><trkpt lat="43.1424244" lon="11.493216"><ele>148.0</ele><time>2026-04-25T11:16:11.072Z</time></trkpt><trkpt lat="43.1423921" lon="11.4929464"><ele>148.0</ele><time>2026-04-25T11:16:12.073Z</time></trkpt><trkpt lat="43.142364" lon="11.4926648"><ele>148.0</ele><time>2026-04-25T11:16:13.072Z</time></trkpt><trkpt lat="43.142337" lon="11.4923828"><ele>152.66666666666669</ele><time>2026-04-25T11:16:14.073Z</time></trkpt><trkpt lat="43.1423038" lon="11.4921015"><ele>157.33333333333334</ele><time>2026-04-25T11:16:15.073Z</time></trkpt><trkpt lat="43.1422716" lon="11.4918203"><ele>162.0</ele><time>2026-04-25T11:16:16.073Z</time></trkpt><trkpt lat="43.1422381" lon="11.4915317"><ele>160.66666666666666</ele><time>2026-04-25T11:16:17.073Z</time></trkpt><trkpt lat="43.1422007" lon="11.4912421"><ele>159.33333333333331</ele><time>2026-04-25T11:16:18.073Z</time></trkpt><trkpt lat="43.1421528" lon="11.4909477"><ele>158.0</ele><time>2026-04-25T11:16:19.073Z</time></trkpt><trkpt lat="43.1420989" lon="11.490651"><ele>157.33333333333331</ele><time>2026-04-25T11:16:20.073Z</time></trkpt><trkpt lat="43.1420499" lon="11.4903624"><ele>156.66666666666666</ele><time>2026-04-25T11:16:21.073Z</time></trkpt><trkpt lat="43.1419963" lon="11.4900987"><ele>156.0</ele><time>2026-04-25T11:16:22.072Z</time></trkpt><trkpt lat="43.1419352" lon="11.4898482"><ele>156.0</ele><time>2026-04-25T11:16:23.072Z</time></trkpt><trkpt lat="43.1418822" lon="11.4896146"><ele>156.0</ele><time>2026-04-25T11:16:24.073Z</time></trkpt><trkpt lat="43.1418411" lon="11.4893951"><ele>156.0</ele><time>2026-04-25T11:16:25.073Z</time></trkpt><trkpt lat="43.1418051" lon="11.4891767"><ele>154.75</ele><time>2026-04-25T11:16:26.073Z</time></trkpt><trkpt lat="43.1417723" lon="11.4889741"><ele>153.5</ele><time>2026-04-25T11:16:27.073Z</time></trkpt><trkpt lat="43.1417283" lon="11.4887788"><ele>152.25</ele><time>2026-04-25T11:16:28.073Z</time></trkpt><trkpt lat="43.141659" lon="11.4885992"><ele>151.0</ele><time>2026-04-25T11:16:29.073Z</time></trkpt><trkpt lat="43.1415573" lon="11.4884311"><ele>151.25</ele><time>2026-04-25T11:16:30.073Z</time></trkpt><trkpt lat="43.1414537" lon="11.4882735"><ele>151.5</ele><time>2026-04-25T11:16:31.072Z</time></trkpt><trkpt lat="43.141354" lon="11.4881212"><ele>151.75</ele><time>2026-04-25T11:16:32.073Z</time></trkpt><trkpt lat="43.1412586" lon="11.4879775"><ele>152.0</ele><time>2026-04-25T11:16:33.073Z</time></trkpt><trkpt lat="43.1411476" lon="11.4878634"><ele>151.75</ele><time>2026-04-25T11:16:34.072Z</time></trkpt><trkpt lat="43.1410136" lon="11.4877757"><ele>151.5</ele><time>2026-04-25T11:16:35.073Z</time></trkpt><trkpt lat="43.140874" lon="11.487702"><ele>151.25</ele><time>2026-04-25T11:16:36.073Z</time></trkpt><trkpt lat="43.1407393" lon="11.4876296"><ele>151.0</ele><time>2026-04-25T11:16:37.072Z</time></trkpt><trkpt lat="43.1406044" lon="11.487562"><ele>151.0</ele><time>2026-04-25T11:16:38.073Z</time></trkpt><trkpt lat="43.1404852" lon="11.4874914"><ele>151.0</ele><time>2026-04-25T11:16:39.073Z</time></trkpt><trkpt lat="43.140371" lon="11.4873963"><ele>151.0</ele><time>2026-04-25T11:16:40.072Z</time></trkpt><trkpt lat="43.1402666" lon="11.4872804"><ele>151.0</ele><time>2026-04-25T11:16:41.073Z</time></trkpt><trkpt lat="43.1401792" lon="11.4871318"><ele>150.0</ele><time>2026-04-25T11:16:42.073Z</time></trkpt><trkpt lat="43.1401184" lon="11.4869655"><ele>149.0</ele><time>2026-04-25T11:16:43.072Z</time></trkpt><trkpt lat="43.1400745" lon="11.4867834"><ele>148.0</ele><time>2026-04-25T11:16:44.073Z</time></trkpt><trkpt lat="43.1400402" lon="11.4866006"><ele>147.0</ele><time>2026-04-25T11:16:45.072Z</time></trkpt><trkpt lat="43.1400026" lon="11.4864159"><ele>147.0</ele><time>2026-04-25T11:16:46.073Z</time></trkpt><trkpt lat="43.1399685" lon="11.4862346"><ele>147.0</ele><time>2026-04-25T11:16:47.073Z</time></trkpt><trkpt lat="43.1399332" lon="11.4860503"><ele>147.0</ele><time>2026-04-25T11:16:48.072Z</time></trkpt><trkpt lat="43.1398964" lon="11.4858586"><ele>147.0</ele><time>2026-04-25T11:16:49.073Z</time></trkpt><trkpt lat="43.1398574" lon="11.4856706"><ele>147.0</ele><time>2026-04-25T11:16:50.073Z</time></trkpt><trkpt lat="43.139818" lon="11.4854752"><ele>147.0</ele><time>2026-04-25T11:16:51.073Z</time></trkpt><trkpt lat="43.1397802" lon="11.4852866"><ele>147.0</ele><time>2026-04-25T11:16:52.073Z</time></trkpt><trkpt lat="43.1397388" lon="11.4851051"><ele>147.0</ele><time>2026-04-25T11:16:53.072Z</time></trkpt><trkpt lat="43.1397034" lon="11.4849297"><ele>146.5</ele><time>2026-04-25T11:16:54.073Z</time></trkpt><trkpt lat="43.1396739" lon="11.4847575"><ele>146.0</ele><time>2026-04-25T11:16:55.072Z</time></trkpt><trkpt lat="43.1396468" lon="11.484592"><ele>145.5</ele><time>2026-04-25T11:16:56.073Z</time></trkpt><trkpt lat="43.1396131" lon="11.4844348"><ele>145.0</ele><time>2026-04-25T11:16:57.073Z</time></trkpt><trkpt lat="43.1395795" lon="11.4842892"><ele>145.0</ele><time>2026-04-25T11:16:58.072Z</time></trkpt><trkpt lat="43.139542" lon="11.4841538"><ele>145.0</ele><time>2026-04-25T11:16:59.073Z</time></trkpt><trkpt lat="43.1395056" lon="11.4840261"><ele>145.0</ele><time>2026-04-25T11:17:00.073Z</time></trkpt><trkpt lat="43.13947" lon="11.4838983"><ele>145.0</ele><time>2026-04-25T11:17:01.073Z</time></trkpt><trkpt lat="43.1394313" lon="11.4837721"><ele>145.0</ele><time>2026-04-25T11:17:02.073Z</time></trkpt><trkpt lat="43.1393919" lon="11.4836469"><ele>145.0</ele><time>2026-04-25T11:17:03.073Z</time></trkpt><trkpt lat="43.1393553" lon="11.4835207"><ele>145.0</ele><time>2026-04-25T11:17:04.072Z</time></trkpt><trkpt lat="43.1393262" lon="11.4834064"><ele>145.0</ele><time>2026-04-25T11:17:05.073Z</time></trkpt><trkpt lat="43.1392959" lon="11.4832997"><ele>145.0</ele><time>2026-04-25T11:17:06.072Z</time></trkpt><trkpt lat="43.1392761" lon="11.4832171"><ele>145.0</ele><time>2026-04-25T11:17:07.073Z</time></trkpt><trkpt lat="43.1392393" lon="11.4830989"><ele>145.0</ele><time>2026-04-25T11:17:09.073Z</time></trkpt><trkpt lat="43.1392099" lon="11.4830213"><ele>145.0</ele><time>2026-04-25T11:17:25.073Z</time></trkpt><trkpt lat="43.1391124" lon="11.4830235"><ele>145.0</ele><time>2026-04-25T11:17:27.072Z</time></trkpt><trkpt lat="43.1390447" lon="11.4830605"><ele>145.0</ele><time>2026-04-25T11:17:28.072Z</time></trkpt><trkpt lat="43.138973" lon="11.4831012"><ele>145.0</ele><time>2026-04-25T11:17:29.073Z</time></trkpt><trkpt lat="43.1388987" lon="11.4831389"><ele>145.0</ele><time>2026-04-25T11:17:30.073Z</time></trkpt><trkpt lat="43.138823" lon="11.4831788"><ele>145.0</ele><time>2026-04-25T11:17:31.072Z</time></trkpt><trkpt lat="43.1387404" lon="11.4832146"><ele>145.2</ele><time>2026-04-25T11:17:32.072Z</time></trkpt><trkpt lat="43.1386533" lon="11.4832448"><ele>145.4</ele><time>2026-04-25T11:17:33.073Z</time></trkpt><trkpt lat="43.1385626" lon="11.4832652"><ele>145.6</ele><time>2026-04-25T11:17:34.073Z</time></trkpt><trkpt lat="43.1384695" lon="11.4832897"><ele>145.8</ele><time>2026-04-25T11:17:35.073Z</time></trkpt><trkpt lat="43.1383741" lon="11.4833078"><ele>146.0</ele><time>2026-04-25T11:17:36.073Z</time></trkpt><trkpt lat="43.1382804" lon="11.4833229"><ele>146.16666666666666</ele><time>2026-04-25T11:17:37.073Z</time></trkpt><trkpt lat="43.1381887" lon="11.4833303"><ele>146.33333333333331</ele><time>2026-04-25T11:17:38.072Z</time></trkpt><trkpt lat="43.1380999" lon="11.4833376"><ele>146.5</ele><time>2026-04-25T11:17:39.073Z</time></trkpt><trkpt lat="43.1380211" lon="11.4833344"><ele>146.66666666666666</ele><time>2026-04-25T11:17:40.072Z</time></trkpt><trkpt lat="43.1379455" lon="11.4833362"><ele>146.83333333333334</ele><time>2026-04-25T11:17:41.073Z</time></trkpt><trkpt lat="43.1378761" lon="11.4833342"><ele>147.0</ele><time>2026-04-25T11:17:42.073Z</time></trkpt><trkpt lat="43.1377655" lon="11.4833418"><ele>147.0</ele><time>2026-04-25T11:17:44.073Z</time></trkpt><trkpt lat="43.137707" lon="11.4832917"><ele>147.0</ele><time>2026-04-25T11:17:46.072Z</time></trkpt><trkpt lat="43.1377205" lon="11.4831791"><ele>147.0</ele><time>2026-04-25T11:17:49.073Z</time></trkpt><trkpt lat="43.1376987" lon="11.4830867"><ele>147.0</ele><time>2026-04-25T11:17:51.072Z</time></trkpt><trkpt lat="43.1376817" lon="11.4829954"><ele>147.0</ele><time>2026-04-25T11:17:53.073Z</time></trkpt><trkpt lat="43.1378039" lon="11.4829713"><ele>147.0</ele><time>2026-04-25T11:20:26.287Z</time></trkpt><trkpt lat="43.1380988" lon="11.4830363"><ele>147.0</ele><time>2026-04-25T11:21:40.183Z</time></trkpt><trkpt lat="43.1378793" lon="11.4829224"><ele>147.0</ele><time>2026-04-25T11:23:34.822Z</time></trkpt><trkpt lat="43.1377542" lon="11.4828654"><ele>147.0</ele><time>2026-04-25T11:30:32.072Z</time></trkpt></trkseg><trkseg><trkpt lat="43.1377542" lon="11.4827502"><ele>194.0</ele><time>2026-04-25T11:46:28.081Z</time></trkpt></trkseg><trkseg><trkpt lat="43.1377123" lon="11.4830149"><ele>147.0</ele><time>2026-04-25T12:56:28.106Z</time></trkpt><trkpt lat="43.1376885" lon="11.4829266"><ele>147.0</ele><time>2026-04-25T12:56:36.106Z</time></trkpt><trkpt lat="43.1376361" lon="11.4829884"><ele>147.0</ele><time>2026-04-25T12:56:38.105Z</time></trkpt><trkpt lat="43.1376611" lon="11.4830857"><ele>147.0</ele><time>2026-04-25T12:56:58.106Z</time></trkpt><trkpt lat="43.1376744" lon="11.4832006"><ele>147.0</ele><time>2026-04-25T12:57:00.105Z</time></trkpt><trkpt lat="43.1376739" lon="11.4833019"><ele>147.0</ele><time>2026-04-25T12:57:02.106Z</time></trkpt><trkpt lat="43.1376176" lon="11.4833802"><ele>147.0</ele><time>2026-04-25T12:57:05.106Z</time></trkpt><trkpt lat="43.137492" lon="11.4833943"><ele>147.0</ele><time>2026-04-25T12:57:07.106Z</time></trkpt><trkpt lat="43.1374145" lon="11.4833917"><ele>147.0</ele><time>2026-04-25T12:57:08.106Z</time></trkpt><trkpt lat="43.1373342" lon="11.4833913"><ele>147.0</ele><time>2026-04-25T12:57:09.106Z</time></trkpt><trkpt lat="43.1372531" lon="11.4833938"><ele>147.0</ele><time>2026-04-25T12:57:10.105Z</time></trkpt><trkpt lat="43.1371523" lon="11.4833978"><ele>146.79999999999998</ele><time>2026-04-25T12:57:11.106Z</time></trkpt><trkpt lat="43.1370509" lon="11.4833911"><ele>146.6</ele><time>2026-04-25T12:57:12.106Z</time></trkpt><trkpt lat="43.1369449" lon="11.4833897"><ele>146.39999999999998</ele><time>2026-04-25T12:57:13.105Z</time></trkpt><trkpt lat="43.1368373" lon="11.4833867"><ele>146.2</ele><time>2026-04-25T12:57:14.106Z</time></trkpt><trkpt lat="43.1367272" lon="11.4833875"><ele>146.0</ele><time>2026-04-25T12:57:15.106Z</time></trkpt><trkpt lat="43.1366137" lon="11.4833866"><ele>146.0</ele><time>2026-04-25T12:57:16.106Z</time></trkpt><trkpt lat="43.1364998" lon="11.4833851"><ele>146.0</ele><time>2026-04-25T12:57:17.106Z</time></trkpt><trkpt lat="43.1363889" lon="11.4833891"><ele>146.0</ele><time>2026-04-25T12:57:18.106Z</time></trkpt><trkpt lat="43.1362813" lon="11.4833935"><ele>146.0</ele><time>2026-04-25T12:57:19.106Z</time></trkpt><trkpt lat="43.1361702" lon="11.4833983"><ele>146.0</ele><time>2026-04-25T12:57:20.106Z</time></trkpt><trkpt lat="43.1360542" lon="11.4833973"><ele>146.0</ele><time>2026-04-25T12:57:21.106Z</time></trkpt><trkpt lat="43.1359359" lon="11.4833919"><ele>146.0</ele><time>2026-04-25T12:57:22.105Z</time></trkpt><trkpt lat="43.1358152" lon="11.4833832"><ele>146.0</ele><time>2026-04-25T12:57:23.106Z</time></trkpt><trkpt lat="43.1356983" lon="11.4833693"><ele>146.0</ele><time>2026-04-25T12:57:24.106Z</time></trkpt><trkpt lat="43.1355823" lon="11.4833578"><ele>146.0</ele><time>2026-04-25T12:57:25.106Z</time></trkpt><trkpt lat="43.1354674" lon="11.4833455"><ele>146.0</ele><time>2026-04-25T12:57:26.105Z</time></trkpt><trkpt lat="43.1353513" lon="11.4833327"><ele>146.0</ele><time>2026-04-25T12:57:27.106Z</time></trkpt><trkpt lat="43.135227" lon="11.4833118"><ele>146.0</ele><time>2026-04-25T12:57:28.106Z</time></trkpt><trkpt lat="43.1350998" lon="11.4832799"><ele>146.0</ele><time>2026-04-25T12:57:29.106Z</time></trkpt><trkpt lat="43.1349695" lon="11.4832557"><ele>146.0</ele><time>2026-04-25T12:57:30.105Z</time></trkpt><trkpt lat="43.1348353" lon="11.4832262"><ele>146.0</ele><time>2026-04-25T12:57:31.106Z</time></trkpt><trkpt lat="43.1346927" lon="11.4831916"><ele>146.0</ele><time>2026-04-25T12:57:32.106Z</time></trkpt><trkpt lat="43.1345507" lon="11.4831656"><ele>145.75</ele><time>2026-04-25T12:57:33.106Z</time></trkpt><trkpt lat="43.1344089" lon="11.4831398"><ele>145.5</ele><time>2026-04-25T12:57:34.106Z</time></trkpt><trkpt lat="43.1342646" lon="11.4831136"><ele>145.25</ele><time>2026-04-25T12:57:35.106Z</time></trkpt><trkpt lat="43.1341196" lon="11.4830902"><ele>145.0</ele><time>2026-04-25T12:57:36.105Z</time></trkpt><trkpt lat="43.1339698" lon="11.4830596"><ele>145.0</ele><time>2026-04-25T12:57:37.106Z</time></trkpt><trkpt lat="43.1338178" lon="11.4830246"><ele>145.0</ele><time>2026-04-25T12:57:38.106Z</time></trkpt><trkpt lat="43.1336622" lon="11.4829912"><ele>145.0</ele><time>2026-04-25T12:57:39.105Z</time></trkpt><trkpt lat="43.1335041" lon="11.4829379"><ele>145.0</ele><time>2026-04-25T12:57:40.106Z</time></trkpt><trkpt lat="43.1333503" lon="11.4828797"><ele>145.0</ele><time>2026-04-25T12:57:41.106Z</time></trkpt><trkpt lat="43.1331948" lon="11.4828207"><ele>145.0</ele><time>2026-04-25T12:57:42.105Z</time></trkpt><trkpt lat="43.1330332" lon="11.4827615"><ele>144.33333333333334</ele><time>2026-04-25T12:57:43.106Z</time></trkpt><trkpt lat="43.1328695" lon="11.4827033"><ele>143.66666666666666</ele><time>2026-04-25T12:57:44.106Z</time></trkpt><trkpt lat="43.1327066" lon="11.4826412"><ele>143.0</ele><time>2026-04-25T12:57:45.106Z</time></trkpt><trkpt lat="43.1325433" lon="11.482579"><ele>143.33333333333331</ele><time>2026-04-25T12:57:46.106Z</time></trkpt><trkpt lat="43.1323805" lon="11.4825156"><ele>143.66666666666666</ele><time>2026-04-25T12:57:47.105Z</time></trkpt><trkpt lat="43.1322149" lon="11.4824531"><ele>144.0</ele><time>2026-04-25T12:57:48.106Z</time></trkpt><trkpt lat="43.1320445" lon="11.4824032"><ele>144.0</ele><time>2026-04-25T12:57:49.105Z</time></trkpt><trkpt lat="43.1318715" lon="11.4823735"><ele>144.0</ele><time>2026-04-25T12:57:50.106Z</time></trkpt><trkpt lat="43.1317062" lon="11.4823712"><ele>144.0</ele><time>2026-04-25T12:57:51.106Z</time></trkpt><trkpt lat="43.1315529" lon="11.482382"><ele>143.25</ele><time>2026-04-25T12:57:52.106Z</time></trkpt><trkpt lat="43.1314078" lon="11.4824003"><ele>142.5</ele><time>2026-04-25T12:57:53.106Z</time></trkpt><trkpt lat="43.1312738" lon="11.4824097"><ele>141.75</ele><time>2026-04-25T12:57:54.105Z</time></trkpt><trkpt lat="43.1311498" lon="11.4824191"><ele>141.0</ele><time>2026-04-25T12:57:55.106Z</time></trkpt><trkpt lat="43.1310337" lon="11.4824277"><ele>141.0</ele><time>2026-04-25T12:57:56.106Z</time></trkpt><trkpt lat="43.1309333" lon="11.4824381"><ele>141.0</ele><time>2026-04-25T12:57:57.106Z</time></trkpt><trkpt lat="43.1308487" lon="11.4824418"><ele>141.0</ele><time>2026-04-25T12:57:58.106Z</time></trkpt><trkpt lat="43.1307718" lon="11.4824475"><ele>141.0</ele><time>2026-04-25T12:57:59.106Z</time></trkpt><trkpt lat="43.1307042" lon="11.482449"><ele>141.0</ele><time>2026-04-25T12:58:00.106Z</time></trkpt><trkpt lat="43.1306406" lon="11.48246"><ele>141.0</ele><time>2026-04-25T12:58:01.106Z</time></trkpt><trkpt lat="43.1305255" lon="11.482481"><ele>141.2</ele><time>2026-04-25T12:58:03.106Z</time></trkpt><trkpt lat="43.1304131" lon="11.482495"><ele>141.39999999999998</ele><time>2026-04-25T12:58:05.105Z</time></trkpt><trkpt lat="43.1303117" lon="11.4825046"><ele>141.6</ele><time>2026-04-25T12:58:07.106Z</time></trkpt><trkpt lat="43.1302234" lon="11.4825107"><ele>141.79999999999998</ele><time>2026-04-25T12:58:09.106Z</time></trkpt><trkpt lat="43.130147" lon="11.4825167"><ele>142.0</ele><time>2026-04-25T12:58:11.106Z</time></trkpt><trkpt lat="43.1300676" lon="11.4825046"><ele>142.0</ele><time>2026-04-25T12:58:14.106Z</time></trkpt><trkpt lat="43.1299905" lon="11.482509"><ele>142.0</ele><time>2026-04-25T13:00:16.106Z</time></trkpt><trkpt lat="43.1298725" lon="11.4825147"><ele>142.0</ele><time>2026-04-25T13:00:18.106Z</time></trkpt><trkpt lat="43.1297928" lon="11.4825138"><ele>142.0</ele><time>2026-04-25T13:00:19.106Z</time></trkpt><trkpt lat="43.1297033" lon="11.4825182"><ele>142.0</ele><time>2026-04-25T13:00:20.106Z</time></trkpt><trkpt lat="43.1296084" lon="11.4825279"><ele>142.4</ele><time>2026-04-25T13:00:21.106Z</time></trkpt><trkpt lat="43.129506" lon="11.4825373"><ele>142.79999999999998</ele><time>2026-04-25T13:00:22.105Z</time></trkpt><trkpt lat="43.1294007" lon="11.4825462"><ele>143.2</ele><time>2026-04-25T13:00:23.106Z</time></trkpt><trkpt lat="43.1292893" lon="11.4825574"><ele>143.6</ele><time>2026-04-25T13:00:24.106Z</time></trkpt><trkpt lat="43.1291784" lon="11.4825644"><ele>144.0</ele><time>2026-04-25T13:00:25.106Z</time></trkpt><trkpt lat="43.1290568" lon="11.4825749"><ele>144.25</ele><time>2026-04-25T13:00:26.105Z</time></trkpt><trkpt lat="43.1289302" lon="11.4825855"><ele>144.5</ele><time>2026-04-25T13:00:27.106Z</time></trkpt><trkpt lat="43.1288002" lon="11.4825988"><ele>144.75</ele><time>2026-04-25T13:00:28.106Z</time></trkpt><trkpt lat="43.128665" lon="11.4826113"><ele>145.0</ele><time>2026-04-25T13:00:29.106Z</time></trkpt><trkpt lat="43.1285257" lon="11.4826186"><ele>145.0</ele><time>2026-04-25T13:00:30.106Z</time></trkpt><trkpt lat="43.1283833" lon="11.4826343"><ele>145.0</ele><time>2026-04-25T13:00:31.105Z</time></trkpt><trkpt lat="43.1282426" lon="11.4826433"><ele>145.0</ele><time>2026-04-25T13:00:32.105Z</time></trkpt><trkpt lat="43.1280978" lon="11.4826551"><ele>145.0</ele><time>2026-04-25T13:00:33.105Z</time></trkpt><trkpt lat="43.1279477" lon="11.482667"><ele>145.0</ele><time>2026-04-25T13:00:34.106Z</time></trkpt><trkpt lat="43.1277918" lon="11.4826797"><ele>145.0</ele><time>2026-04-25T13:00:35.105Z</time></trkpt><trkpt lat="43.127634" lon="11.4826955"><ele>145.0</ele><time>2026-04-25T13:00:36.106Z</time></trkpt><trkpt lat="43.1274727" lon="11.4827103"><ele>144.66666666666669</ele><time>2026-04-25T13:00:37.106Z</time></trkpt><trkpt lat="43.1273122" lon="11.4827314"><ele>144.33333333333334</ele><time>2026-04-25T13:00:38.105Z</time></trkpt><trkpt lat="43.127148" lon="11.482748"><ele>144.0</ele><time>2026-04-25T13:00:39.105Z</time></trkpt><trkpt lat="43.1269826" lon="11.4827607"><ele>144.0</ele><time>2026-04-25T13:00:40.105Z</time></trkpt><trkpt lat="43.1268114" lon="11.4827741"><ele>144.0</ele><time>2026-04-25T13:00:41.106Z</time></trkpt><trkpt lat="43.1266421" lon="11.4827883"><ele>144.0</ele><time>2026-04-25T13:00:42.106Z</time></trkpt><trkpt lat="43.1264732" lon="11.482804"><ele>143.33333333333334</ele><time>2026-04-25T13:00:43.105Z</time></trkpt><trkpt lat="43.1263033" lon="11.4828175"><ele>142.66666666666669</ele><time>2026-04-25T13:00:44.106Z</time></trkpt><trkpt lat="43.1261287" lon="11.4828366"><ele>142.0</ele><time>2026-04-25T13:00:45.106Z</time></trkpt><trkpt lat="43.12595" lon="11.4828549"><ele>142.0</ele><time>2026-04-25T13:00:46.106Z</time></trkpt><trkpt lat="43.1257715" lon="11.4828691"><ele>142.0</ele><time>2026-04-25T13:00:47.106Z</time></trkpt><trkpt lat="43.1255926" lon="11.4828874"><ele>142.0</ele><time>2026-04-25T13:00:48.106Z</time></trkpt><trkpt lat="43.1254102" lon="11.4829014"><ele>141.66666666666669</ele><time>2026-04-25T13:00:49.106Z</time></trkpt><trkpt lat="43.1252245" lon="11.4829169"><ele>141.33333333333334</ele><time>2026-04-25T13:00:50.106Z</time></trkpt><trkpt lat="43.1250355" lon="11.4829332"><ele>141.0</ele><time>2026-04-25T13:00:51.106Z</time></trkpt><trkpt lat="43.1248483" lon="11.482949"><ele>141.66666666666666</ele><time>2026-04-25T13:00:52.106Z</time></trkpt><trkpt lat="43.1246571" lon="11.4829688"><ele>142.33333333333331</ele><time>2026-04-25T13:00:53.105Z</time></trkpt><trkpt lat="43.1244671" lon="11.482991"><ele>143.0</ele><time>2026-04-25T13:00:54.105Z</time></trkpt><trkpt lat="43.1242773" lon="11.4830053"><ele>143.0</ele><time>2026-04-25T13:00:55.106Z</time></trkpt><trkpt lat="43.1240892" lon="11.4830232"><ele>143.0</ele><time>2026-04-25T13:00:56.106Z</time></trkpt><trkpt lat="43.1238996" lon="11.4830421"><ele>143.0</ele><time>2026-04-25T13:00:57.105Z</time></trkpt><trkpt lat="43.1237141" lon="11.4830585"><ele>143.66666666666666</ele><time>2026-04-25T13:00:58.106Z</time></trkpt><trkpt lat="43.1235298" lon="11.4830738"><ele>144.33333333333334</ele><time>2026-04-25T13:00:59.106Z</time></trkpt><trkpt lat="43.1233445" lon="11.4830861"><ele>145.0</ele><time>2026-04-25T13:01:00.106Z</time></trkpt><trkpt lat="43.1231643" lon="11.4831016"><ele>145.66666666666669</ele><time>2026-04-25T13:01:01.106Z</time></trkpt><trkpt lat="43.1229857" lon="11.4831161"><ele>146.33333333333334</ele><time>2026-04-25T13:01:02.106Z</time></trkpt><trkpt lat="43.1228041" lon="11.4831383"><ele>147.0</ele><time>2026-04-25T13:01:03.106Z</time></trkpt><trkpt lat="43.1226255" lon="11.4831583"><ele>147.0</ele><time>2026-04-25T13:01:04.106Z</time></trkpt><trkpt lat="43.1224459" lon="11.4831747"><ele>147.0</ele><time>2026-04-25T13:01:05.106Z</time></trkpt><trkpt lat="43.1222663" lon="11.4831874"><ele>147.0</ele><time>2026-04-25T13:01:06.106Z</time></trkpt><trkpt lat="43.1220873" lon="11.4831997"><ele>146.0</ele><time>2026-04-25T13:01:07.106Z</time></trkpt><trkpt lat="43.1219048" lon="11.4832125"><ele>145.0</ele><time>2026-04-25T13:01:08.105Z</time></trkpt><trkpt lat="43.121725" lon="11.4832298"><ele>144.0</ele><time>2026-04-25T13:01:09.106Z</time></trkpt><trkpt lat="43.1215503" lon="11.4832445"><ele>143.66666666666666</ele><time>2026-04-25T13:01:10.105Z</time></trkpt><trkpt lat="43.1213802" lon="11.4832576"><ele>143.33333333333331</ele><time>2026-04-25T13:01:11.106Z</time></trkpt><trkpt lat="43.1212147" lon="11.483274"><ele>143.0</ele><time>2026-04-25T13:01:12.106Z</time></trkpt><trkpt lat="43.1210444" lon="11.4832857"><ele>143.0</ele><time>2026-04-25T13:01:13.106Z</time></trkpt><trkpt lat="43.1208747" lon="11.4832985"><ele>143.0</ele><time>2026-04-25T13:01:14.106Z</time></trkpt><trkpt lat="43.1207019" lon="11.4833103"><ele>143.0</ele><time>2026-04-25T13:01:15.106Z</time></trkpt><trkpt lat="43.1205293" lon="11.4833281"><ele>142.66666666666666</ele><time>2026-04-25T13:01:16.106Z</time></trkpt><trkpt lat="43.120354" lon="11.4833436"><ele>142.33333333333334</ele><time>2026-04-25T13:01:17.105Z</time></trkpt><trkpt lat="43.1201813" lon="11.4833624"><ele>142.0</ele><time>2026-04-25T13:01:18.106Z</time></trkpt><trkpt lat="43.1200115" lon="11.4833829"><ele>142.0</ele><time>2026-04-25T13:01:19.105Z</time></trkpt><trkpt lat="43.1198506" lon="11.4834128"><ele>142.0</ele><time>2026-04-25T13:01:20.106Z</time></trkpt><trkpt lat="43.1196945" lon="11.4834457"><ele>142.0</ele><time>2026-04-25T13:01:21.106Z</time></trkpt><trkpt lat="43.1195494" lon="11.4834776"><ele>142.0</ele><time>2026-04-25T13:01:22.106Z</time></trkpt><trkpt lat="43.1194194" lon="11.4835006"><ele>142.0</ele><time>2026-04-25T13:01:23.106Z</time></trkpt><trkpt lat="43.1193028" lon="11.483502"><ele>142.0</ele><time>2026-04-25T13:01:24.105Z</time></trkpt><trkpt lat="43.119186" lon="11.4834615"><ele>142.0</ele><time>2026-04-25T13:01:25.106Z</time></trkpt><trkpt lat="43.1190741" lon="11.483386"><ele>142.25</ele><time>2026-04-25T13:01:26.106Z</time></trkpt><trkpt lat="43.1189931" lon="11.4832642"><ele>142.5</ele><time>2026-04-25T13:01:27.106Z</time></trkpt><trkpt lat="43.1189449" lon="11.4831107"><ele>142.75</ele><time>2026-04-25T13:01:28.106Z</time></trkpt><trkpt lat="43.1189295" lon="11.4829355"><ele>143.0</ele><time>2026-04-25T13:01:29.106Z</time></trkpt><trkpt lat="43.1189147" lon="11.4827579"><ele>142.5</ele><time>2026-04-25T13:01:30.105Z</time></trkpt><trkpt lat="43.1188853" lon="11.4825784"><ele>142.0</ele><time>2026-04-25T13:01:31.105Z</time></trkpt><trkpt lat="43.1188317" lon="11.4824025"><ele>141.5</ele><time>2026-04-25T13:01:32.106Z</time></trkpt><trkpt lat="43.1187521" lon="11.4822423"><ele>141.0</ele><time>2026-04-25T13:01:33.106Z</time></trkpt><trkpt lat="43.1186481" lon="11.4821031"><ele>141.33333333333334</ele><time>2026-04-25T13:01:34.106Z</time></trkpt><trkpt lat="43.1185209" lon="11.4819821"><ele>141.66666666666669</ele><time>2026-04-25T13:01:35.105Z</time></trkpt><trkpt lat="43.1183746" lon="11.4818781"><ele>142.0</ele><time>2026-04-25T13:01:36.105Z</time></trkpt><trkpt lat="43.1182212" lon="11.4817931"><ele>143.33333333333334</ele><time>2026-04-25T13:01:37.106Z</time></trkpt><trkpt lat="43.1180573" lon="11.4817217"><ele>144.66666666666666</ele><time>2026-04-25T13:01:38.106Z</time></trkpt><trkpt lat="43.1178939" lon="11.4816537"><ele>146.0</ele><time>2026-04-25T13:01:39.105Z</time></trkpt><trkpt lat="43.1177303" lon="11.4815757"><ele>146.0</ele><time>2026-04-25T13:01:40.106Z</time></trkpt><trkpt lat="43.1175636" lon="11.4814989"><ele>146.0</ele><time>2026-04-25T13:01:41.106Z</time></trkpt><trkpt lat="43.1173928" lon="11.4814274"><ele>146.0</ele><time>2026-04-25T13:01:42.105Z</time></trkpt><trkpt lat="43.1172207" lon="11.4813597"><ele>149.66666666666666</ele><time>2026-04-25T13:01:43.106Z</time></trkpt><trkpt lat="43.1170438" lon="11.4812891"><ele>153.33333333333334</ele><time>2026-04-25T13:01:44.105Z</time></trkpt><trkpt lat="43.1168695" lon="11.4812105"><ele>157.0</ele><time>2026-04-25T13:01:45.106Z</time></trkpt><trkpt lat="43.1166924" lon="11.4811291"><ele>158.66666666666669</ele><time>2026-04-25T13:01:46.106Z</time></trkpt><trkpt lat="43.116511" lon="11.4810508"><ele>160.33333333333334</ele><time>2026-04-25T13:01:47.106Z</time></trkpt><trkpt lat="43.1163258" lon="11.4809736"><ele>162.0</ele><time>2026-04-25T13:01:48.105Z</time></trkpt><trkpt lat="43.1161438" lon="11.4808978"><ele>162.0</ele><time>2026-04-25T13:01:49.106Z</time></trkpt><trkpt lat="43.1159592" lon="11.4808147"><ele>162.0</ele><time>2026-04-25T13:01:50.106Z</time></trkpt><trkpt lat="43.1157712" lon="11.4807278"><ele>162.0</ele><time>2026-04-25T13:01:51.106Z</time></trkpt><trkpt lat="43.1155865" lon="11.4806426"><ele>163.0</ele><time>2026-04-25T13:01:52.105Z</time></trkpt><trkpt lat="43.1153936" lon="11.480568"><ele>164.0</ele><time>2026-04-25T13:01:53.106Z</time></trkpt><trkpt lat="43.1151989" lon="11.4805083"><ele>165.0</ele><time>2026-04-25T13:01:54.106Z</time></trkpt><trkpt lat="43.1150034" lon="11.4804667"><ele>165.0</ele><time>2026-04-25T13:01:55.106Z</time></trkpt><trkpt lat="43.1148" lon="11.4804282"><ele>165.0</ele><time>2026-04-25T13:01:56.106Z</time></trkpt><trkpt lat="43.1145954" lon="11.4803876"><ele>165.0</ele><time>2026-04-25T13:01:57.106Z</time></trkpt><trkpt lat="43.1143898" lon="11.4803468"><ele>165.0</ele><time>2026-04-25T13:01:58.106Z</time></trkpt><trkpt lat="43.1141791" lon="11.4803119"><ele>165.0</ele><time>2026-04-25T13:01:59.105Z</time></trkpt><trkpt lat="43.1139638" lon="11.4802791"><ele>165.0</ele><time>2026-04-25T13:02:00.105Z</time></trkpt><trkpt lat="43.1137449" lon="11.4802434"><ele>163.33333333333334</ele><time>2026-04-25T13:02:01.106Z</time></trkpt><trkpt lat="43.1135205" lon="11.480204"><ele>161.66666666666669</ele><time>2026-04-25T13:02:02.106Z</time></trkpt><trkpt lat="43.1132998" lon="11.4801586"><ele>160.0</ele><time>2026-04-25T13:02:03.106Z</time></trkpt><trkpt lat="43.1130815" lon="11.4801037"><ele>157.5</ele><time>2026-04-25T13:02:04.106Z</time></trkpt><trkpt lat="43.1128626" lon="11.480035"><ele>155.0</ele><time>2026-04-25T13:02:05.106Z</time></trkpt><trkpt lat="43.1126431" lon="11.4799563"><ele>155.0</ele><time>2026-04-25T13:02:06.106Z</time></trkpt><trkpt lat="43.1124272" lon="11.4798725"><ele>155.0</ele><time>2026-04-25T13:02:07.106Z</time></trkpt><trkpt lat="43.1122095" lon="11.4797865"><ele>154.66666666666666</ele><time>2026-04-25T13:02:08.106Z</time></trkpt><trkpt lat="43.1119913" lon="11.4797015"><ele>154.33333333333334</ele><time>2026-04-25T13:02:09.106Z</time></trkpt><trkpt lat="43.1117781" lon="11.479617"><ele>154.0</ele><time>2026-04-25T13:02:10.106Z</time></trkpt><trkpt lat="43.1115618" lon="11.4795339"><ele>153.33333333333334</ele><time>2026-04-25T13:02:11.106Z</time></trkpt><trkpt lat="43.111345" lon="11.4794727"><ele>152.66666666666666</ele><time>2026-04-25T13:02:12.105Z</time></trkpt><trkpt lat="43.1111236" lon="11.4794295"><ele>152.0</ele><time>2026-04-25T13:02:13.106Z</time></trkpt><trkpt lat="43.1108998" lon="11.4793999"><ele>151.0</ele><time>2026-04-25T13:02:14.106Z</time></trkpt><trkpt lat="43.1106769" lon="11.4793856"><ele>150.0</ele><time>2026-04-25T13:02:15.105Z</time></trkpt><trkpt lat="43.1104546" lon="11.4793731"><ele>149.0</ele><time>2026-04-25T13:02:16.105Z</time></trkpt><trkpt lat="43.1102319" lon="11.4793647"><ele>149.0</ele><time>2026-04-25T13:02:17.106Z</time></trkpt><trkpt lat="43.1100046" lon="11.4793513"><ele>149.0</ele><time>2026-04-25T13:02:18.106Z</time></trkpt><trkpt lat="43.1097761" lon="11.4793311"><ele>147.5</ele><time>2026-04-25T13:02:19.105Z</time></trkpt><trkpt lat="43.1095462" lon="11.4793123"><ele>146.0</ele><time>2026-04-25T13:02:20.106Z</time></trkpt><trkpt lat="43.1093163" lon="11.4792948"><ele>146.0</ele><time>2026-04-25T13:02:21.106Z</time></trkpt><trkpt lat="43.1090825" lon="11.4792768"><ele>146.0</ele><time>2026-04-25T13:02:22.105Z</time></trkpt><trkpt lat="43.1088468" lon="11.4792637"><ele>143.5</ele><time>2026-04-25T13:02:23.106Z</time></trkpt><trkpt lat="43.1086063" lon="11.4792498"><ele>141.0</ele><time>2026-04-25T13:02:24.106Z</time></trkpt><trkpt lat="43.1083651" lon="11.4792352"><ele>139.5</ele><time>2026-04-25T13:02:25.106Z</time></trkpt><trkpt lat="43.1081247" lon="11.4792218"><ele>138.0</ele><time>2026-04-25T13:02:26.106Z</time></trkpt><trkpt lat="43.1078819" lon="11.4792238"><ele>138.0</ele><time>2026-04-25T13:02:27.106Z</time></trkpt><trkpt lat="43.1076413" lon="11.4792334"><ele>138.0</ele><time>2026-04-25T13:02:28.106Z</time></trkpt><trkpt lat="43.1073971" lon="11.4792454"><ele>137.5</ele><time>2026-04-25T13:02:29.106Z</time></trkpt><trkpt lat="43.1071548" lon="11.4792514"><ele>137.0</ele><time>2026-04-25T13:02:30.106Z</time></trkpt><trkpt lat="43.1069157" lon="11.479261"><ele>137.0</ele><time>2026-04-25T13:02:31.106Z</time></trkpt><trkpt lat="43.1066801" lon="11.4792721"><ele>137.0</ele><time>2026-04-25T13:02:32.106Z</time></trkpt><trkpt lat="43.1064443" lon="11.4792871"><ele>139.0</ele><time>2026-04-25T13:02:33.105Z</time></trkpt><trkpt lat="43.1062065" lon="11.4793027"><ele>141.0</ele><time>2026-04-25T13:02:34.105Z</time></trkpt><trkpt lat="43.1059734" lon="11.4793125"><ele>144.0</ele><time>2026-04-25T13:02:35.106Z</time></trkpt><trkpt lat="43.1057374" lon="11.4793176"><ele>147.0</ele><time>2026-04-25T13:02:36.105Z</time></trkpt><trkpt lat="43.1055047" lon="11.4793224"><ele>147.0</ele><time>2026-04-25T13:02:37.106Z</time></trkpt><trkpt lat="43.1052753" lon="11.4793309"><ele>147.0</ele><time>2026-04-25T13:02:38.106Z</time></trkpt><trkpt lat="43.105041" lon="11.4793435"><ele>150.0</ele><time>2026-04-25T13:02:39.105Z</time></trkpt><trkpt lat="43.1048096" lon="11.4793578"><ele>153.0</ele><time>2026-04-25T13:02:40.106Z</time></trkpt><trkpt lat="43.1045822" lon="11.4793678"><ele>153.0</ele><time>2026-04-25T13:02:41.106Z</time></trkpt><trkpt lat="43.1043577" lon="11.4793756"><ele>153.0</ele><time>2026-04-25T13:02:42.106Z</time></trkpt><trkpt lat="43.1041287" lon="11.4793825"><ele>153.0</ele><time>2026-04-25T13:02:43.105Z</time></trkpt><trkpt lat="43.1039025" lon="11.4793954"><ele>153.0</ele><time>2026-04-25T13:02:44.106Z</time></trkpt><trkpt lat="43.1036781" lon="11.4794338"><ele>153.0</ele><time>2026-04-25T13:02:45.106Z</time></trkpt><trkpt lat="43.1034592" lon="11.4795161"><ele>153.0</ele><time>2026-04-25T13:02:46.106Z</time></trkpt><trkpt lat="43.1032503" lon="11.4796437"><ele>149.0</ele><time>2026-04-25T13:02:47.106Z</time></trkpt><trkpt lat="43.1030491" lon="11.4797954"><ele>145.0</ele><time>2026-04-25T13:02:48.106Z</time></trkpt><trkpt lat="43.102849" lon="11.4799556"><ele>145.0</ele><time>2026-04-25T13:02:49.106Z</time></trkpt><trkpt lat="43.1026485" lon="11.4801187"><ele>145.0</ele><time>2026-04-25T13:02:50.105Z</time></trkpt><trkpt lat="43.1024489" lon="11.48028"><ele>144.5</ele><time>2026-04-25T13:02:51.106Z</time></trkpt><trkpt lat="43.1022486" lon="11.4804364"><ele>144.0</ele><time>2026-04-25T13:02:52.106Z</time></trkpt><trkpt lat="43.1020561" lon="11.4806054"><ele>144.0</ele><time>2026-04-25T13:02:53.106Z</time></trkpt><trkpt lat="43.1018722" lon="11.4807939"><ele>144.0</ele><time>2026-04-25T13:02:54.106Z</time></trkpt><trkpt lat="43.1016972" lon="11.4809928"><ele>143.5</ele><time>2026-04-25T13:02:55.105Z</time></trkpt><trkpt lat="43.1015253" lon="11.4811975"><ele>143.0</ele><time>2026-04-25T13:02:56.106Z</time></trkpt><trkpt lat="43.1013583" lon="11.4814174"><ele>143.0</ele><time>2026-04-25T13:02:57.105Z</time></trkpt><trkpt lat="43.1011912" lon="11.4816348"><ele>143.0</ele><time>2026-04-25T13:02:58.106Z</time></trkpt><trkpt lat="43.1010246" lon="11.4818591"><ele>143.0</ele><time>2026-04-25T13:02:59.106Z</time></trkpt><trkpt lat="43.100853" lon="11.4820779"><ele>143.0</ele><time>2026-04-25T13:03:00.105Z</time></trkpt><trkpt lat="43.1006831" lon="11.4822946"><ele>143.66666666666666</ele><time>2026-04-25T13:03:01.105Z</time></trkpt><trkpt lat="43.1005197" lon="11.4825071"><ele>144.33333333333334</ele><time>2026-04-25T13:03:02.106Z</time></trkpt><trkpt lat="43.1003622" lon="11.482706"><ele>145.0</ele><time>2026-04-25T13:03:03.106Z</time></trkpt><trkpt lat="43.1002188" lon="11.482897"><ele>145.0</ele><time>2026-04-25T13:03:04.106Z</time></trkpt><trkpt lat="43.1000787" lon="11.4830643"><ele>145.0</ele><time>2026-04-25T13:03:05.106Z</time></trkpt><trkpt lat="43.0999312" lon="11.4831991"><ele>145.0</ele><time>2026-04-25T13:03:06.105Z</time></trkpt><trkpt lat="43.0997564" lon="11.4832891"><ele>145.33333333333334</ele><time>2026-04-25T13:03:07.106Z</time></trkpt><trkpt lat="43.0995667" lon="11.4833275"><ele>145.66666666666666</ele><time>2026-04-25T13:03:08.106Z</time></trkpt><trkpt lat="43.0993697" lon="11.483325"><ele>146.0</ele><time>2026-04-25T13:03:09.106Z</time></trkpt><trkpt lat="43.0991699" lon="11.4833342"><ele>146.66666666666666</ele><time>2026-04-25T13:03:10.106Z</time></trkpt><trkpt lat="43.0989604" lon="11.483356"><ele>147.33333333333334</ele><time>2026-04-25T13:03:11.106Z</time></trkpt><trkpt lat="43.0987542" lon="11.4834083"><ele>148.0</ele><time>2026-04-25T13:03:12.106Z</time></trkpt><trkpt lat="43.0985573" lon="11.483484"><ele>148.0</ele><time>2026-04-25T13:03:13.106Z</time></trkpt><trkpt lat="43.0983625" lon="11.4835761"><ele>148.0</ele><time>2026-04-25T13:03:14.106Z</time></trkpt><trkpt lat="43.098165" lon="11.4836761"><ele>148.0</ele><time>2026-04-25T13:03:15.106Z</time></trkpt><trkpt lat="43.0979639" lon="11.4837751"><ele>148.33333333333334</ele><time>2026-04-25T13:03:16.106Z</time></trkpt><trkpt lat="43.0977626" lon="11.4838839"><ele>148.66666666666666</ele><time>2026-04-25T13:03:17.105Z</time></trkpt><trkpt lat="43.0975657" lon="11.4840164"><ele>149.0</ele><time>2026-04-25T13:03:18.105Z</time></trkpt><trkpt lat="43.0973691" lon="11.4841713"><ele>149.0</ele><time>2026-04-25T13:03:19.106Z</time></trkpt><trkpt lat="43.0971792" lon="11.4843383"><ele>149.0</ele><time>2026-04-25T13:03:20.106Z</time></trkpt><trkpt lat="43.0969912" lon="11.4845089"><ele>150.0</ele><time>2026-04-25T13:03:21.106Z</time></trkpt><trkpt lat="43.0968029" lon="11.4846829"><ele>151.0</ele><time>2026-04-25T13:03:22.106Z</time></trkpt><trkpt lat="43.0966117" lon="11.4848534"><ele>152.0</ele><time>2026-04-25T13:03:23.106Z</time></trkpt><trkpt lat="43.0964153" lon="11.4850142"><ele>153.0</ele><time>2026-04-25T13:03:24.106Z</time></trkpt><trkpt lat="43.0962186" lon="11.4851674"><ele>153.0</ele><time>2026-04-25T13:03:25.106Z</time></trkpt><trkpt lat="43.0960141" lon="11.4853044"><ele>153.0</ele><time>2026-04-25T13:03:26.105Z</time></trkpt><trkpt lat="43.0957978" lon="11.4854066"><ele>152.0</ele><time>2026-04-25T13:03:27.106Z</time></trkpt><trkpt lat="43.0955793" lon="11.4854838"><ele>151.0</ele><time>2026-04-25T13:03:28.106Z</time></trkpt><trkpt lat="43.0953506" lon="11.4855534"><ele>151.0</ele><time>2026-04-25T13:03:29.105Z</time></trkpt><trkpt lat="43.0951256" lon="11.4856316"><ele>151.0</ele><time>2026-04-25T13:03:30.106Z</time></trkpt><trkpt lat="43.0949137" lon="11.4857333"><ele>153.5</ele><time>2026-04-25T13:03:31.105Z</time></trkpt><trkpt lat="43.0947002" lon="11.4858373"><ele>156.0</ele><time>2026-04-25T13:03:32.106Z</time></trkpt><trkpt lat="43.094485" lon="11.4859324"><ele>156.0</ele><time>2026-04-25T13:03:33.106Z</time></trkpt><trkpt lat="43.0942658" lon="11.4860118"><ele>156.0</ele><time>2026-04-25T13:03:34.105Z</time></trkpt><trkpt lat="43.0940348" lon="11.4860728"><ele>156.5</ele><time>2026-04-25T13:03:35.106Z</time></trkpt><trkpt lat="43.0938052" lon="11.4861088"><ele>157.0</ele><time>2026-04-25T13:03:36.106Z</time></trkpt><trkpt lat="43.0935746" lon="11.486141"><ele>157.0</ele><time>2026-04-25T13:03:37.106Z</time></trkpt><trkpt lat="43.0933353" lon="11.4861724"><ele>157.0</ele><time>2026-04-25T13:03:38.106Z</time></trkpt><trkpt lat="43.0931014" lon="11.4862113"><ele>156.0</ele><time>2026-04-25T13:03:39.106Z</time></trkpt><trkpt lat="43.0928652" lon="11.4862436"><ele>155.0</ele><time>2026-04-25T13:03:40.106Z</time></trkpt><trkpt lat="43.0926275" lon="11.4862718"><ele>154.5</ele><time>2026-04-25T13:03:41.106Z</time></trkpt><trkpt lat="43.0923904" lon="11.4863005"><ele>154.0</ele><time>2026-04-25T13:03:42.106Z</time></trkpt><trkpt lat="43.0921527" lon="11.4863346"><ele>154.0</ele><time>2026-04-25T13:03:43.105Z</time></trkpt><trkpt lat="43.0919145" lon="11.4863698"><ele>154.0</ele><time>2026-04-25T13:03:44.106Z</time></trkpt><trkpt lat="43.0916772" lon="11.4864035"><ele>155.5</ele><time>2026-04-25T13:03:45.106Z</time></trkpt><trkpt lat="43.091443" lon="11.4864359"><ele>157.0</ele><time>2026-04-25T13:03:46.106Z</time></trkpt><trkpt lat="43.0912036" lon="11.4864721"><ele>157.0</ele><time>2026-04-25T13:03:47.106Z</time></trkpt><trkpt lat="43.0909655" lon="11.486506"><ele>157.0</ele><time>2026-04-25T13:03:48.106Z</time></trkpt><trkpt lat="43.0907271" lon="11.4865444"><ele>157.5</ele><time>2026-04-25T13:03:49.106Z</time></trkpt><trkpt lat="43.0904896" lon="11.4865806"><ele>158.0</ele><time>2026-04-25T13:03:50.106Z</time></trkpt><trkpt lat="43.09025" lon="11.4866186"><ele>158.0</ele><time>2026-04-25T13:03:51.106Z</time></trkpt><trkpt lat="43.0900146" lon="11.4866536"><ele>158.0</ele><time>2026-04-25T13:03:52.106Z</time></trkpt><trkpt lat="43.0897768" lon="11.4866868"><ele>158.0</ele><time>2026-04-25T13:03:53.105Z</time></trkpt><trkpt lat="43.0895495" lon="11.486723"><ele>158.0</ele><time>2026-04-25T13:03:54.106Z</time></trkpt><trkpt lat="43.089323" lon="11.486754"><ele>158.0</ele><time>2026-04-25T13:03:55.106Z</time></trkpt><trkpt lat="43.0890975" lon="11.4867734"><ele>158.0</ele><time>2026-04-25T13:03:56.106Z</time></trkpt><trkpt lat="43.0888861" lon="11.4867498"><ele>158.0</ele><time>2026-04-25T13:03:57.106Z</time></trkpt><trkpt lat="43.0886871" lon="11.4866717"><ele>158.0</ele><time>2026-04-25T13:03:58.106Z</time></trkpt><trkpt lat="43.0884952" lon="11.4865335"><ele>158.0</ele><time>2026-04-25T13:03:59.106Z</time></trkpt><trkpt lat="43.0883343" lon="11.4863612"><ele>158.0</ele><time>2026-04-25T13:04:00.106Z</time></trkpt><trkpt lat="43.0881895" lon="11.4861592"><ele>158.0</ele><time>2026-04-25T13:04:01.106Z</time></trkpt><trkpt lat="43.0880584" lon="11.4859379"><ele>158.0</ele><time>2026-04-25T13:04:02.106Z</time></trkpt><trkpt lat="43.0879233" lon="11.4857072"><ele>158.0</ele><time>2026-04-25T13:04:03.106Z</time></trkpt><trkpt lat="43.0877824" lon="11.4854741"><ele>159.0</ele><time>2026-04-25T13:04:04.105Z</time></trkpt><trkpt lat="43.0876388" lon="11.4852419"><ele>160.0</ele><time>2026-04-25T13:04:05.105Z</time></trkpt><trkpt lat="43.0874945" lon="11.4850075"><ele>161.0</ele><time>2026-04-25T13:04:06.106Z</time></trkpt><trkpt lat="43.0873558" lon="11.4847711"><ele>162.33333333333331</ele><time>2026-04-25T13:04:07.106Z</time></trkpt><trkpt lat="43.0872155" lon="11.4845408"><ele>163.66666666666666</ele><time>2026-04-25T13:04:08.106Z</time></trkpt><trkpt lat="43.0870694" lon="11.4843299"><ele>165.0</ele><time>2026-04-25T13:04:09.106Z</time></trkpt><trkpt lat="43.0868915" lon="11.4841579"><ele>165.0</ele><time>2026-04-25T13:04:10.106Z</time></trkpt><trkpt lat="43.0867051" lon="11.4840424"><ele>165.0</ele><time>2026-04-25T13:04:11.106Z</time></trkpt><trkpt lat="43.086502" lon="11.4839586"><ele>165.0</ele><time>2026-04-25T13:04:12.106Z</time></trkpt><trkpt lat="43.0862919" lon="11.4839347"><ele>166.33333333333334</ele><time>2026-04-25T13:04:13.106Z</time></trkpt><trkpt lat="43.0860816" lon="11.4839354"><ele>167.66666666666669</ele><time>2026-04-25T13:04:14.106Z</time></trkpt><trkpt lat="43.0858649" lon="11.4839528"><ele>169.0</ele><time>2026-04-25T13:04:15.106Z</time></trkpt><trkpt lat="43.0856462" lon="11.4839789"><ele>172.0</ele><time>2026-04-25T13:04:16.106Z</time></trkpt><trkpt lat="43.0854285" lon="11.4840004"><ele>175.0</ele><time>2026-04-25T13:04:17.106Z</time></trkpt><trkpt lat="43.0852093" lon="11.4840208"><ele>178.0</ele><time>2026-04-25T13:04:18.105Z</time></trkpt><trkpt lat="43.0849878" lon="11.4840384"><ele>180.66666666666669</ele><time>2026-04-25T13:04:19.106Z</time></trkpt><trkpt lat="43.084764" lon="11.4840553"><ele>183.33333333333334</ele><time>2026-04-25T13:04:20.106Z</time></trkpt><trkpt lat="43.0845406" lon="11.4840682"><ele>186.0</ele><time>2026-04-25T13:04:21.106Z</time></trkpt><trkpt lat="43.0843223" lon="11.4840862"><ele>186.0</ele><time>2026-04-25T13:04:22.106Z</time></trkpt><trkpt lat="43.0840988" lon="11.484106"><ele>186.0</ele><time>2026-04-25T13:04:23.106Z</time></trkpt><trkpt lat="43.0838803" lon="11.4841356"><ele>186.0</ele><time>2026-04-25T13:04:24.105Z</time></trkpt><trkpt lat="43.0836637" lon="11.4841884"><ele>190.0</ele><time>2026-04-25T13:04:25.106Z</time></trkpt><trkpt lat="43.0834479" lon="11.4842678"><ele>194.0</ele><time>2026-04-25T13:04:26.106Z</time></trkpt><trkpt lat="43.0832361" lon="11.4843785"><ele>194.0</ele><time>2026-04-25T13:04:27.106Z</time></trkpt><trkpt lat="43.0830288" lon="11.4844941"><ele>194.0</ele><time>2026-04-25T13:04:28.106Z</time></trkpt><trkpt lat="43.0828212" lon="11.4845794"><ele>194.0</ele><time>2026-04-25T13:04:29.105Z</time></trkpt><trkpt lat="43.0826162" lon="11.4846225"><ele>199.66666666666669</ele><time>2026-04-25T13:04:30.105Z</time></trkpt><trkpt lat="43.0824054" lon="11.4845954"><ele>205.33333333333331</ele><time>2026-04-25T13:04:31.106Z</time></trkpt><trkpt lat="43.0821862" lon="11.4845183"><ele>211.0</ele><time>2026-04-25T13:04:32.106Z</time></trkpt><trkpt lat="43.0819945" lon="11.4844284"><ele>211.0</ele><time>2026-04-25T13:04:33.106Z</time></trkpt><trkpt lat="43.0818188" lon="11.4843397"><ele>211.0</ele><time>2026-04-25T13:04:34.106Z</time></trkpt><trkpt lat="43.0816555" lon="11.4842726"><ele>211.0</ele><time>2026-04-25T13:04:35.105Z</time></trkpt><trkpt lat="43.081501" lon="11.4842634"><ele>213.0</ele><time>2026-04-25T13:04:36.106Z</time></trkpt><trkpt lat="43.0813477" lon="11.4843124"><ele>215.0</ele><time>2026-04-25T13:04:37.105Z</time></trkpt><trkpt lat="43.0812339" lon="11.4844281"><ele>217.0</ele><time>2026-04-25T13:04:38.106Z</time></trkpt><trkpt lat="43.0811471" lon="11.4846101"><ele>217.0</ele><time>2026-04-25T13:04:39.105Z</time></trkpt><trkpt lat="43.0810931" lon="11.4848198"><ele>217.0</ele><time>2026-04-25T13:04:40.106Z</time></trkpt><trkpt lat="43.0810646" lon="11.4850558"><ele>217.0</ele><time>2026-04-25T13:04:41.105Z</time></trkpt><trkpt lat="43.0810388" lon="11.485297"><ele>216.33333333333331</ele><time>2026-04-25T13:04:42.106Z</time></trkpt><trkpt lat="43.0809855" lon="11.485543"><ele>215.66666666666669</ele><time>2026-04-25T13:04:43.106Z</time></trkpt><trkpt lat="43.0809039" lon="11.4857658"><ele>215.0</ele><time>2026-04-25T13:04:44.106Z</time></trkpt><trkpt lat="43.0807814" lon="11.485973"><ele>220.0</ele><time>2026-04-25T13:04:45.105Z</time></trkpt><trkpt lat="43.0806331" lon="11.4861592"><ele>225.0</ele><time>2026-04-25T13:04:46.106Z</time></trkpt><trkpt lat="43.0804806" lon="11.4863363"><ele>230.0</ele><time>2026-04-25T13:04:47.106Z</time></trkpt><trkpt lat="43.0803377" lon="11.4865294"><ele>230.0</ele><time>2026-04-25T13:04:48.106Z</time></trkpt><trkpt lat="43.0802146" lon="11.4867509"><ele>230.0</ele><time>2026-04-25T13:04:49.106Z</time></trkpt><trkpt lat="43.0801135" lon="11.4869869"><ele>230.0</ele><time>2026-04-25T13:04:50.106Z</time></trkpt><trkpt lat="43.0800214" lon="11.4872278"><ele>232.66666666666669</ele><time>2026-04-25T13:04:51.106Z</time></trkpt><trkpt lat="43.0799076" lon="11.4874393"><ele>235.33333333333331</ele><time>2026-04-25T13:04:52.105Z</time></trkpt><trkpt lat="43.0797621" lon="11.4876418"><ele>238.0</ele><time>2026-04-25T13:04:53.106Z</time></trkpt><trkpt lat="43.0795935" lon="11.4878002"><ele>238.0</ele><time>2026-04-25T13:04:54.106Z</time></trkpt><trkpt lat="43.0794129" lon="11.4879497"><ele>238.0</ele><time>2026-04-25T13:04:55.106Z</time></trkpt><trkpt lat="43.0792274" lon="11.4880922"><ele>238.0</ele><time>2026-04-25T13:04:56.106Z</time></trkpt><trkpt lat="43.0790432" lon="11.4882116"><ele>238.0</ele><time>2026-04-25T13:04:57.106Z</time></trkpt><trkpt lat="43.0788709" lon="11.4883191"><ele>238.0</ele><time>2026-04-25T13:04:58.106Z</time></trkpt><trkpt lat="43.0787118" lon="11.4884122"><ele>238.0</ele><time>2026-04-25T13:04:59.106Z</time></trkpt><trkpt lat="43.0785665" lon="11.4885229"><ele>238.0</ele><time>2026-04-25T13:05:00.106Z</time></trkpt><trkpt lat="43.0784531" lon="11.4886567"><ele>238.0</ele><time>2026-04-25T13:05:01.106Z</time></trkpt><trkpt lat="43.0783815" lon="11.4888339"><ele>238.0</ele><time>2026-04-25T13:05:02.106Z</time></trkpt><trkpt lat="43.0783522" lon="11.4890538"><ele>238.66666666666666</ele><time>2026-04-25T13:05:03.106Z</time></trkpt><trkpt lat="43.0783661" lon="11.4892844"><ele>239.33333333333331</ele><time>2026-04-25T13:05:04.106Z</time></trkpt><trkpt lat="43.0784128" lon="11.4895081"><ele>240.0</ele><time>2026-04-25T13:05:05.106Z</time></trkpt><trkpt lat="43.0784726" lon="11.4897097"><ele>240.0</ele><time>2026-04-25T13:05:06.106Z</time></trkpt><trkpt lat="43.0785133" lon="11.4898781"><ele>240.0</ele><time>2026-04-25T13:05:07.106Z</time></trkpt><trkpt lat="43.0785249" lon="11.4900601"><ele>240.0</ele><time>2026-04-25T13:05:08.106Z</time></trkpt><trkpt lat="43.0785041" lon="11.4902636"><ele>240.0</ele><time>2026-04-25T13:05:09.106Z</time></trkpt><trkpt lat="43.0784432" lon="11.4904593"><ele>239.33333333333331</ele><time>2026-04-25T13:05:10.106Z</time></trkpt><trkpt lat="43.0783693" lon="11.4906511"><ele>238.66666666666666</ele><time>2026-04-25T13:05:11.106Z</time></trkpt><trkpt lat="43.0782915" lon="11.4908525"><ele>238.0</ele><time>2026-04-25T13:05:12.106Z</time></trkpt><trkpt lat="43.0782185" lon="11.4910616"><ele>241.66666666666666</ele><time>2026-04-25T13:05:13.106Z</time></trkpt><trkpt lat="43.0781775" lon="11.4912867"><ele>245.33333333333331</ele><time>2026-04-25T13:05:14.105Z</time></trkpt><trkpt lat="43.0781519" lon="11.4915212"><ele>249.0</ele><time>2026-04-25T13:05:15.106Z</time></trkpt><trkpt lat="43.0781267" lon="11.4917549"><ele>249.0</ele><time>2026-04-25T13:05:16.106Z</time></trkpt><trkpt lat="43.0781" lon="11.491982"><ele>249.0</ele><time>2026-04-25T13:05:17.106Z</time></trkpt><trkpt lat="43.0780649" lon="11.4921856"><ele>249.0</ele><time>2026-04-25T13:05:18.106Z</time></trkpt><trkpt lat="43.0780084" lon="11.4923731"><ele>249.25</ele><time>2026-04-25T13:05:19.105Z</time></trkpt><trkpt lat="43.0779178" lon="11.4925252"><ele>249.5</ele><time>2026-04-25T13:05:20.106Z</time></trkpt><trkpt lat="43.0778107" lon="11.4926546"><ele>249.75</ele><time>2026-04-25T13:05:21.106Z</time></trkpt><trkpt lat="43.0776976" lon="11.492747"><ele>250.0</ele><time>2026-04-25T13:05:22.106Z</time></trkpt><trkpt lat="43.0775724" lon="11.492824"><ele>250.0</ele><time>2026-04-25T13:05:23.106Z</time></trkpt><trkpt lat="43.0774499" lon="11.4928967"><ele>250.0</ele><time>2026-04-25T13:05:24.106Z</time></trkpt><trkpt lat="43.077323" lon="11.4929726"><ele>250.0</ele><time>2026-04-25T13:05:25.105Z</time></trkpt><trkpt lat="43.0772032" lon="11.4930512"><ele>250.0</ele><time>2026-04-25T13:05:26.105Z</time></trkpt><trkpt lat="43.0770805" lon="11.4931327"><ele>250.25</ele><time>2026-04-25T13:05:27.105Z</time></trkpt><trkpt lat="43.0769515" lon="11.4932125"><ele>250.5</ele><time>2026-04-25T13:05:28.106Z</time></trkpt><trkpt lat="43.0768285" lon="11.493309"><ele>250.75</ele><time>2026-04-25T13:05:29.106Z</time></trkpt><trkpt lat="43.0767115" lon="11.4934194"><ele>251.0</ele><time>2026-04-25T13:05:30.106Z</time></trkpt><trkpt lat="43.0765922" lon="11.4935468"><ele>251.33333333333334</ele><time>2026-04-25T13:05:31.106Z</time></trkpt><trkpt lat="43.0764639" lon="11.4936737"><ele>251.66666666666669</ele><time>2026-04-25T13:05:32.106Z</time></trkpt><trkpt lat="43.0763406" lon="11.4938048"><ele>252.0</ele><time>2026-04-25T13:05:33.106Z</time></trkpt><trkpt lat="43.076214" lon="11.4939423"><ele>252.33333333333331</ele><time>2026-04-25T13:05:34.106Z</time></trkpt><trkpt lat="43.0760815" lon="11.4940778"><ele>252.66666666666666</ele><time>2026-04-25T13:05:35.106Z</time></trkpt><trkpt lat="43.0759454" lon="11.4942133"><ele>253.0</ele><time>2026-04-25T13:05:36.106Z</time></trkpt><trkpt lat="43.0758077" lon="11.4943508"><ele>253.66666666666666</ele><time>2026-04-25T13:05:37.105Z</time></trkpt><trkpt lat="43.0756707" lon="11.4944838"><ele>254.33333333333331</ele><time>2026-04-25T13:05:38.106Z</time></trkpt><trkpt lat="43.0755295" lon="11.4946166"><ele>255.0</ele><time>2026-04-25T13:05:39.106Z</time></trkpt><trkpt lat="43.0753844" lon="11.4947476"><ele>256.0</ele><time>2026-04-25T13:05:40.106Z</time></trkpt><trkpt lat="43.0752368" lon="11.4948732"><ele>257.0</ele><time>2026-04-25T13:05:41.106Z</time></trkpt><trkpt lat="43.0750854" lon="11.4950022"><ele>258.0</ele><time>2026-04-25T13:05:42.106Z</time></trkpt><trkpt lat="43.0749389" lon="11.4951311"><ele>258.6666666666667</ele><time>2026-04-25T13:05:43.106Z</time></trkpt><trkpt lat="43.0747881" lon="11.4952573"><ele>259.33333333333337</ele><time>2026-04-25T13:05:44.106Z</time></trkpt><trkpt lat="43.074639" lon="11.4953865"><ele>260.0</ele><time>2026-04-25T13:05:45.106Z</time></trkpt><trkpt lat="43.0744903" lon="11.4955139"><ele>261.33333333333337</ele><time>2026-04-25T13:05:46.105Z</time></trkpt><trkpt lat="43.074337" lon="11.4956424"><ele>262.6666666666667</ele><time>2026-04-25T13:05:47.105Z</time></trkpt><trkpt lat="43.0741822" lon="11.4957684"><ele>264.0</ele><time>2026-04-25T13:05:48.106Z</time></trkpt><trkpt lat="43.074026" lon="11.495893"><ele>264.3333333333333</ele><time>2026-04-25T13:05:49.105Z</time></trkpt><trkpt lat="43.073866" lon="11.4960102"><ele>264.66666666666663</ele><time>2026-04-25T13:05:50.105Z</time></trkpt><trkpt lat="43.0737059" lon="11.496109"><ele>265.0</ele><time>2026-04-25T13:05:51.106Z</time></trkpt><trkpt lat="43.0735379" lon="11.496188"><ele>267.66666666666663</ele><time>2026-04-25T13:05:52.106Z</time></trkpt><trkpt lat="43.0733676" lon="11.4962684"><ele>270.3333333333333</ele><time>2026-04-25T13:05:53.105Z</time></trkpt><trkpt lat="43.0731973" lon="11.4963329"><ele>273.0</ele><time>2026-04-25T13:05:54.105Z</time></trkpt><trkpt lat="43.0730254" lon="11.4964044"><ele>274.0</ele><time>2026-04-25T13:05:55.105Z</time></trkpt><trkpt lat="43.0728521" lon="11.4964751"><ele>275.0</ele><time>2026-04-25T13:05:56.105Z</time></trkpt><trkpt lat="43.0726828" lon="11.4965674"><ele>276.0</ele><time>2026-04-25T13:05:57.106Z</time></trkpt><trkpt lat="43.0725187" lon="11.4966751"><ele>275.0</ele><time>2026-04-25T13:05:58.105Z</time></trkpt><trkpt lat="43.0723591" lon="11.4967889"><ele>274.0</ele><time>2026-04-25T13:05:59.106Z</time></trkpt><trkpt lat="43.0722038" lon="11.4969127"><ele>273.0</ele><time>2026-04-25T13:06:00.105Z</time></trkpt><trkpt lat="43.0720443" lon="11.4970371"><ele>274.3333333333333</ele><time>2026-04-25T13:06:01.106Z</time></trkpt><trkpt lat="43.0718861" lon="11.497161"><ele>275.66666666666663</ele><time>2026-04-25T13:06:02.106Z</time></trkpt><trkpt lat="43.0717291" lon="11.4972821"><ele>277.0</ele><time>2026-04-25T13:06:03.106Z</time></trkpt><trkpt lat="43.0715715" lon="11.4974018"><ele>277.0</ele><time>2026-04-25T13:06:04.106Z</time></trkpt><trkpt lat="43.0714159" lon="11.4975303"><ele>277.0</ele><time>2026-04-25T13:06:05.106Z</time></trkpt><trkpt lat="43.0712626" lon="11.4976551"><ele>277.0</ele><time>2026-04-25T13:06:06.106Z</time></trkpt><trkpt lat="43.0711052" lon="11.4977795"><ele>277.0</ele><time>2026-04-25T13:06:07.105Z</time></trkpt><trkpt lat="43.0709484" lon="11.4978992"><ele>277.0</ele><time>2026-04-25T13:06:08.106Z</time></trkpt><trkpt lat="43.0707889" lon="11.498015"><ele>277.0</ele><time>2026-04-25T13:06:09.106Z</time></trkpt><trkpt lat="43.070627" lon="11.4981333"><ele>279.66666666666663</ele><time>2026-04-25T13:06:10.106Z</time></trkpt><trkpt lat="43.0704648" lon="11.4982508"><ele>282.3333333333333</ele><time>2026-04-25T13:06:11.106Z</time></trkpt><trkpt lat="43.0703026" lon="11.4983606"><ele>285.0</ele><time>2026-04-25T13:06:12.105Z</time></trkpt><trkpt lat="43.0701369" lon="11.4984647"><ele>285.0</ele><time>2026-04-25T13:06:13.105Z</time></trkpt><trkpt lat="43.0699621" lon="11.498556"><ele>285.0</ele><time>2026-04-25T13:06:14.105Z</time></trkpt><trkpt lat="43.0697869" lon="11.4986297"><ele>285.0</ele><time>2026-04-25T13:06:15.106Z</time></trkpt><trkpt lat="43.0696059" lon="11.4986861"><ele>285.6666666666667</ele><time>2026-04-25T13:06:16.106Z</time></trkpt><trkpt lat="43.0694281" lon="11.4987368"><ele>286.33333333333337</ele><time>2026-04-25T13:06:17.106Z</time></trkpt><trkpt lat="43.0692507" lon="11.4987792"><ele>287.0</ele><time>2026-04-25T13:06:18.106Z</time></trkpt><trkpt lat="43.0690703" lon="11.4988305"><ele>289.33333333333337</ele><time>2026-04-25T13:06:19.106Z</time></trkpt><trkpt lat="43.0688955" lon="11.4988839"><ele>291.6666666666667</ele><time>2026-04-25T13:06:20.105Z</time></trkpt><trkpt lat="43.0687225" lon="11.4989377"><ele>294.0</ele><time>2026-04-25T13:06:21.105Z</time></trkpt><trkpt lat="43.0685514" lon="11.498989"><ele>294.0</ele><time>2026-04-25T13:06:22.106Z</time></trkpt><trkpt lat="43.0683807" lon="11.4990407"><ele>294.0</ele><time>2026-04-25T13:06:23.105Z</time></trkpt><trkpt lat="43.0682097" lon="11.4990989"><ele>294.0</ele><time>2026-04-25T13:06:24.105Z</time></trkpt><trkpt lat="43.0680361" lon="11.4991542"><ele>297.3333333333333</ele><time>2026-04-25T13:06:25.106Z</time></trkpt><trkpt lat="43.0678632" lon="11.499212"><ele>300.66666666666663</ele><time>2026-04-25T13:06:26.106Z</time></trkpt><trkpt lat="43.067698" lon="11.4992815"><ele>304.0</ele><time>2026-04-25T13:06:27.106Z</time></trkpt><trkpt lat="43.067534" lon="11.4993644"><ele>304.66666666666663</ele><time>2026-04-25T13:06:28.106Z</time></trkpt><trkpt lat="43.0673745" lon="11.4994642"><ele>305.3333333333333</ele><time>2026-04-25T13:06:29.106Z</time></trkpt><trkpt lat="43.0672197" lon="11.4995742"><ele>306.0</ele><time>2026-04-25T13:06:30.105Z</time></trkpt><trkpt lat="43.0670614" lon="11.4996853"><ele>306.0</ele><time>2026-04-25T13:06:31.106Z</time></trkpt><trkpt lat="43.0669015" lon="11.4997909"><ele>306.0</ele><time>2026-04-25T13:06:32.106Z</time></trkpt><trkpt lat="43.0667395" lon="11.4998874"><ele>306.0</ele><time>2026-04-25T13:06:33.106Z</time></trkpt><trkpt lat="43.0665709" lon="11.4999677"><ele>308.6666666666667</ele><time>2026-04-25T13:06:34.106Z</time></trkpt><trkpt lat="43.0663997" lon="11.5000244"><ele>311.33333333333337</ele><time>2026-04-25T13:06:35.106Z</time></trkpt><trkpt lat="43.066233" lon="11.5000799"><ele>314.0</ele><time>2026-04-25T13:06:36.105Z</time></trkpt><trkpt lat="43.0660822" lon="11.5001401"><ele>314.0</ele><time>2026-04-25T13:06:37.106Z</time></trkpt><trkpt lat="43.0659492" lon="11.5002167"><ele>314.0</ele><time>2026-04-25T13:06:38.106Z</time></trkpt><trkpt lat="43.065824" lon="11.5003333"><ele>314.0</ele><time>2026-04-25T13:06:39.106Z</time></trkpt><trkpt lat="43.065706" lon="11.500485"><ele>316.33333333333337</ele><time>2026-04-25T13:06:40.106Z</time></trkpt><trkpt lat="43.0656081" lon="11.5006649"><ele>318.6666666666667</ele><time>2026-04-25T13:06:41.105Z</time></trkpt><trkpt lat="43.065522" lon="11.5008559"><ele>321.0</ele><time>2026-04-25T13:06:42.106Z</time></trkpt><trkpt lat="43.0654371" lon="11.5010445"><ele>321.0</ele><time>2026-04-25T13:06:43.105Z</time></trkpt><trkpt lat="43.0653487" lon="11.5012279"><ele>321.0</ele><time>2026-04-25T13:06:44.106Z</time></trkpt><trkpt lat="43.0652487" lon="11.501396"><ele>321.0</ele><time>2026-04-25T13:06:45.106Z</time></trkpt><trkpt lat="43.0651265" lon="11.501537"><ele>321.3333333333333</ele><time>2026-04-25T13:06:46.106Z</time></trkpt><trkpt lat="43.06499" lon="11.5016261"><ele>321.66666666666663</ele><time>2026-04-25T13:06:47.106Z</time></trkpt><trkpt lat="43.064842" lon="11.5016915"><ele>322.0</ele><time>2026-04-25T13:06:48.105Z</time></trkpt><trkpt lat="43.0646813" lon="11.5017143"><ele>322.0</ele><time>2026-04-25T13:06:49.105Z</time></trkpt><trkpt lat="43.0645164" lon="11.5016954"><ele>322.0</ele><time>2026-04-25T13:06:50.106Z</time></trkpt><trkpt lat="43.0643609" lon="11.5016377"><ele>322.0</ele><time>2026-04-25T13:06:51.106Z</time></trkpt><trkpt lat="43.0642066" lon="11.5015584"><ele>322.3333333333333</ele><time>2026-04-25T13:06:52.106Z</time></trkpt><trkpt lat="43.064052" lon="11.5014717"><ele>322.6666666666667</ele><time>2026-04-25T13:06:53.105Z</time></trkpt><trkpt lat="43.0638962" lon="11.5013887"><ele>323.0</ele><time>2026-04-25T13:06:54.106Z</time></trkpt><trkpt lat="43.0637393" lon="11.5013087"><ele>325.6666666666667</ele><time>2026-04-25T13:06:55.106Z</time></trkpt><trkpt lat="43.0635828" lon="11.5012304"><ele>328.3333333333333</ele><time>2026-04-25T13:06:56.106Z</time></trkpt><trkpt lat="43.0634284" lon="11.5011477"><ele>331.0</ele><time>2026-04-25T13:06:57.106Z</time></trkpt><trkpt lat="43.063273" lon="11.5010714"><ele>333.0</ele><time>2026-04-25T13:06:58.106Z</time></trkpt><trkpt lat="43.0631176" lon="11.5009989"><ele>335.0</ele><time>2026-04-25T13:06:59.105Z</time></trkpt><trkpt lat="43.0629554" lon="11.5009534"><ele>337.0</ele><time>2026-04-25T13:07:00.106Z</time></trkpt><trkpt lat="43.0627921" lon="11.5009745"><ele>337.0</ele><time>2026-04-25T13:07:01.106Z</time></trkpt><trkpt lat="43.0626471" lon="11.5010512"><ele>337.0</ele><time>2026-04-25T13:07:02.106Z</time></trkpt><trkpt lat="43.0625092" lon="11.5011619"><ele>337.0</ele><time>2026-04-25T13:07:03.106Z</time></trkpt><trkpt lat="43.0623812" lon="11.5012876"><ele>338.25</ele><time>2026-04-25T13:07:04.105Z</time></trkpt><trkpt lat="43.0622624" lon="11.5013922"><ele>339.5</ele><time>2026-04-25T13:07:05.106Z</time></trkpt><trkpt lat="43.0621528" lon="11.5015003"><ele>340.75</ele><time>2026-04-25T13:07:06.106Z</time></trkpt><trkpt lat="43.0620392" lon="11.5015972"><ele>342.0</ele><time>2026-04-25T13:07:07.106Z</time></trkpt><trkpt lat="43.0619321" lon="11.5016901"><ele>342.0</ele><time>2026-04-25T13:07:08.105Z</time></trkpt><trkpt lat="43.0618304" lon="11.5017826"><ele>342.0</ele><time>2026-04-25T13:07:09.105Z</time></trkpt><trkpt lat="43.0617305" lon="11.5018652"><ele>342.0</ele><time>2026-04-25T13:07:10.105Z</time></trkpt><trkpt lat="43.0616373" lon="11.5019352"><ele>342.0</ele><time>2026-04-25T13:07:11.106Z</time></trkpt><trkpt lat="43.0615413" lon="11.5019936"><ele>342.0</ele><time>2026-04-25T13:07:12.105Z</time></trkpt><trkpt lat="43.0614393" lon="11.5020362"><ele>342.0</ele><time>2026-04-25T13:07:13.106Z</time></trkpt><trkpt lat="43.0613323" lon="11.5020561"><ele>342.0</ele><time>2026-04-25T13:07:14.106Z</time></trkpt><trkpt lat="43.0612236" lon="11.5020725"><ele>342.0</ele><time>2026-04-25T13:07:15.105Z</time></trkpt><trkpt lat="43.0611184" lon="11.5020789"><ele>342.0</ele><time>2026-04-25T13:07:16.106Z</time></trkpt><trkpt lat="43.0610019" lon="11.5021087"><ele>342.0</ele><time>2026-04-25T13:07:17.105Z</time></trkpt><trkpt lat="43.060896" lon="11.5021673"><ele>342.0</ele><time>2026-04-25T13:07:18.106Z</time></trkpt><trkpt lat="43.0608054" lon="11.502257"><ele>342.0</ele><time>2026-04-25T13:07:19.106Z</time></trkpt><trkpt lat="43.0607251" lon="11.5023581"><ele>342.0</ele><time>2026-04-25T13:07:20.106Z</time></trkpt><trkpt lat="43.0606536" lon="11.5024707"><ele>342.0</ele><time>2026-04-25T13:07:21.106Z</time></trkpt><trkpt lat="43.0605896" lon="11.5025809"><ele>341.20000000000005</ele><time>2026-04-25T13:07:22.105Z</time></trkpt><trkpt lat="43.0605306" lon="11.502686"><ele>340.4</ele><time>2026-04-25T13:07:23.106Z</time></trkpt><trkpt lat="43.0604752" lon="11.5027708"><ele>339.6</ele><time>2026-04-25T13:07:24.106Z</time></trkpt><trkpt lat="43.0604137" lon="11.5028545"><ele>338.79999999999995</ele><time>2026-04-25T13:07:25.106Z</time></trkpt><trkpt lat="43.0603415" lon="11.5029295"><ele>338.0</ele><time>2026-04-25T13:07:26.106Z</time></trkpt><trkpt lat="43.0602593" lon="11.502997"><ele>338.0</ele><time>2026-04-25T13:07:27.105Z</time></trkpt><trkpt lat="43.0601651" lon="11.5030388"><ele>338.0</ele><time>2026-04-25T13:07:28.105Z</time></trkpt><trkpt lat="43.0600609" lon="11.503058"><ele>338.0</ele><time>2026-04-25T13:07:29.106Z</time></trkpt><trkpt lat="43.0599513" lon="11.503063"><ele>338.0</ele><time>2026-04-25T13:07:30.106Z</time></trkpt><trkpt lat="43.0598448" lon="11.5030583"><ele>338.0</ele><time>2026-04-25T13:07:31.106Z</time></trkpt><trkpt lat="43.0597404" lon="11.5030504"><ele>338.79999999999995</ele><time>2026-04-25T13:07:32.106Z</time></trkpt><trkpt lat="43.0596346" lon="11.5030331"><ele>339.6</ele><time>2026-04-25T13:07:33.106Z</time></trkpt><trkpt lat="43.0595343" lon="11.5030118"><ele>340.4</ele><time>2026-04-25T13:07:34.105Z</time></trkpt><trkpt lat="43.0594328" lon="11.5029809"><ele>341.20000000000005</ele><time>2026-04-25T13:07:35.106Z</time></trkpt><trkpt lat="43.0593284" lon="11.5029377"><ele>342.0</ele><time>2026-04-25T13:07:36.106Z</time></trkpt><trkpt lat="43.0592258" lon="11.5028671"><ele>345.8</ele><time>2026-04-25T13:07:37.105Z</time></trkpt><trkpt lat="43.0591254" lon="11.5027851"><ele>349.6</ele><time>2026-04-25T13:07:38.106Z</time></trkpt><trkpt lat="43.0590295" lon="11.5026867"><ele>353.40000000000003</ele><time>2026-04-25T13:07:39.105Z</time></trkpt><trkpt lat="43.0589503" lon="11.5025892"><ele>357.20000000000005</ele><time>2026-04-25T13:07:40.106Z</time></trkpt><trkpt lat="43.0588806" lon="11.5024944"><ele>361.0</ele><time>2026-04-25T13:07:41.106Z</time></trkpt><trkpt lat="43.0588124" lon="11.5024176"><ele>361.0</ele><time>2026-04-25T13:07:42.106Z</time></trkpt><trkpt lat="43.0587582" lon="11.5023428"><ele>361.0</ele><time>2026-04-25T13:07:43.105Z</time></trkpt><trkpt lat="43.0587052" lon="11.5022737"><ele>361.0</ele><time>2026-04-25T13:07:44.106Z</time></trkpt><trkpt lat="43.0586501" lon="11.5022147"><ele>361.0</ele><time>2026-04-25T13:07:45.105Z</time></trkpt><trkpt lat="43.0585911" lon="11.5021539"><ele>361.0</ele><time>2026-04-25T13:07:46.106Z</time></trkpt><trkpt lat="43.0585299" lon="11.5020903"><ele>361.0</ele><time>2026-04-25T13:07:47.105Z</time></trkpt><trkpt lat="43.0584577" lon="11.5020434"><ele>361.8333333333333</ele><time>2026-04-25T13:07:48.106Z</time></trkpt><trkpt lat="43.0583743" lon="11.5020218"><ele>362.66666666666663</ele><time>2026-04-25T13:07:49.105Z</time></trkpt><trkpt lat="43.058285" lon="11.5020152"><ele>363.5</ele><time>2026-04-25T13:07:50.106Z</time></trkpt><trkpt lat="43.0582014" lon="11.502022"><ele>364.3333333333333</ele><time>2026-04-25T13:07:51.106Z</time></trkpt><trkpt lat="43.0581218" lon="11.5020427"><ele>365.1666666666667</ele><time>2026-04-25T13:07:52.106Z</time></trkpt><trkpt lat="43.0580472" lon="11.5020743"><ele>366.0</ele><time>2026-04-25T13:07:53.106Z</time></trkpt><trkpt lat="43.05797" lon="11.5021149"><ele>367.8</ele><time>2026-04-25T13:07:54.106Z</time></trkpt><trkpt lat="43.0579067" lon="11.5021831"><ele>369.6</ele><time>2026-04-25T13:07:55.106Z</time></trkpt><trkpt lat="43.0578482" lon="11.5022747"><ele>371.4</ele><time>2026-04-25T13:07:56.106Z</time></trkpt><trkpt lat="43.0578129" lon="11.5023947"><ele>373.2</ele><time>2026-04-25T13:07:57.106Z</time></trkpt><trkpt lat="43.0577957" lon="11.5025448"><ele>375.0</ele><time>2026-04-25T13:07:58.106Z</time></trkpt><trkpt lat="43.0577608" lon="11.5028096"><ele>374.0</ele><time>2026-04-25T13:08:00.105Z</time></trkpt><trkpt lat="43.0577042" lon="11.5030322"><ele>373.0</ele><time>2026-04-25T13:08:01.106Z</time></trkpt><trkpt lat="43.0576136" lon="11.5032877"><ele>372.0</ele><time>2026-04-25T13:08:02.105Z</time></trkpt><trkpt lat="43.0574689" lon="11.5035616"><ele>372.0</ele><time>2026-04-25T13:08:03.106Z</time></trkpt><trkpt lat="43.0572815" lon="11.5038242"><ele>372.0</ele><time>2026-04-25T13:08:04.105Z</time></trkpt><trkpt lat="43.0570582" lon="11.5041129"><ele>372.0</ele><time>2026-04-25T13:08:05.105Z</time></trkpt><trkpt lat="43.0568379" lon="11.5044209"><ele>372.0</ele><time>2026-04-25T13:08:06.106Z</time></trkpt><trkpt lat="43.0566143" lon="11.5047363"><ele>377.5</ele><time>2026-04-25T13:08:07.106Z</time></trkpt><trkpt lat="43.0564098" lon="11.5051101"><ele>383.0</ele><time>2026-04-25T13:08:08.105Z</time></trkpt><trkpt lat="43.0562311" lon="11.5054952"><ele>383.0</ele><time>2026-04-25T13:08:09.106Z</time></trkpt><trkpt lat="43.0560697" lon="11.5058912"><ele>383.0</ele><time>2026-04-25T13:08:10.106Z</time></trkpt><trkpt lat="43.0559492" lon="11.5063043"><ele>386.5</ele><time>2026-04-25T13:08:11.106Z</time></trkpt><trkpt lat="43.0558502" lon="11.5067217"><ele>390.0</ele><time>2026-04-25T13:08:12.105Z</time></trkpt><trkpt lat="43.0557126" lon="11.5071684"><ele>390.0</ele><time>2026-04-25T13:08:13.106Z</time></trkpt><trkpt lat="43.0561043" lon="11.5043702"><ele>390.0</ele><time>2026-04-25T13:08:14.105Z</time></trkpt><trkpt lat="43.0560082" lon="11.5045563"><ele>390.0</ele><time>2026-04-25T13:08:15.106Z</time></trkpt><trkpt lat="43.0559153" lon="11.5047419"><ele>390.0</ele><time>2026-04-25T13:08:16.106Z</time></trkpt><trkpt lat="43.0558272" lon="11.504934"><ele>394.0</ele><time>2026-04-25T13:08:17.106Z</time></trkpt><trkpt lat="43.0557424" lon="11.5051278"><ele>398.0</ele><time>2026-04-25T13:08:18.105Z</time></trkpt><trkpt lat="43.0556638" lon="11.5053321"><ele>402.0</ele><time>2026-04-25T13:08:19.106Z</time></trkpt><trkpt lat="43.0555945" lon="11.505545"><ele>402.66666666666663</ele><time>2026-04-25T13:08:20.105Z</time></trkpt><trkpt lat="43.0555345" lon="11.5057584"><ele>403.3333333333333</ele><time>2026-04-25T13:08:21.105Z</time></trkpt><trkpt lat="43.0554851" lon="11.5059611"><ele>404.0</ele><time>2026-04-25T13:08:22.106Z</time></trkpt><trkpt lat="43.0554677" lon="11.5061604"><ele>403.3333333333333</ele><time>2026-04-25T13:08:23.106Z</time></trkpt><trkpt lat="43.0554842" lon="11.5063596"><ele>402.66666666666663</ele><time>2026-04-25T13:08:24.106Z</time></trkpt><trkpt lat="43.0555441" lon="11.5065452"><ele>402.0</ele><time>2026-04-25T13:08:25.106Z</time></trkpt><trkpt lat="43.055633" lon="11.506724"><ele>402.0</ele><time>2026-04-25T13:08:26.106Z</time></trkpt><trkpt lat="43.0557446" lon="11.5068792"><ele>402.0</ele><time>2026-04-25T13:08:27.106Z</time></trkpt><trkpt lat="43.0558424" lon="11.5070339"><ele>402.0</ele><time>2026-04-25T13:08:28.106Z</time></trkpt><trkpt lat="43.0559064" lon="11.507232"><ele>400.0</ele><time>2026-04-25T13:08:29.106Z</time></trkpt><trkpt lat="43.0559337" lon="11.5074514"><ele>398.0</ele><time>2026-04-25T13:08:30.106Z</time></trkpt><trkpt lat="43.0559393" lon="11.5076776"><ele>396.0</ele><time>2026-04-25T13:08:31.106Z</time></trkpt><trkpt lat="43.0559313" lon="11.5078972"><ele>396.5</ele><time>2026-04-25T13:08:32.106Z</time></trkpt><trkpt lat="43.0559107" lon="11.5081023"><ele>397.0</ele><time>2026-04-25T13:08:33.106Z</time></trkpt><trkpt lat="43.0558567" lon="11.5082808"><ele>397.5</ele><time>2026-04-25T13:08:34.106Z</time></trkpt><trkpt lat="43.0557637" lon="11.5084317"><ele>398.0</ele><time>2026-04-25T13:08:35.106Z</time></trkpt><trkpt lat="43.0556442" lon="11.5085645"><ele>403.3333333333333</ele><time>2026-04-25T13:08:36.106Z</time></trkpt><trkpt lat="43.0555331" lon="11.508706"><ele>408.66666666666663</ele><time>2026-04-25T13:08:37.106Z</time></trkpt><trkpt lat="43.0554236" lon="11.5088464"><ele>414.0</ele><time>2026-04-25T13:08:38.106Z</time></trkpt><trkpt lat="43.0553105" lon="11.5089841"><ele>414.0</ele><time>2026-04-25T13:08:39.106Z</time></trkpt><trkpt lat="43.0552037" lon="11.5091539"><ele>414.0</ele><time>2026-04-25T13:08:40.106Z</time></trkpt><trkpt lat="43.0551299" lon="11.5093295"><ele>414.0</ele><time>2026-04-25T13:08:41.106Z</time></trkpt><trkpt lat="43.0550659" lon="11.5095321"><ele>412.33333333333337</ele><time>2026-04-25T13:08:42.106Z</time></trkpt><trkpt lat="43.0550069" lon="11.5097365"><ele>410.6666666666667</ele><time>2026-04-25T13:08:43.106Z</time></trkpt><trkpt lat="43.0549352" lon="11.5099293"><ele>409.0</ele><time>2026-04-25T13:08:44.106Z</time></trkpt><trkpt lat="43.0548391" lon="11.5100982"><ele>411.33333333333337</ele><time>2026-04-25T13:08:45.106Z</time></trkpt><trkpt lat="43.0547185" lon="11.5102637"><ele>413.66666666666663</ele><time>2026-04-25T13:08:46.106Z</time></trkpt><trkpt lat="43.0545979" lon="11.5104091"><ele>416.0</ele><time>2026-04-25T13:08:47.106Z</time></trkpt><trkpt lat="43.0544596" lon="11.5105266"><ele>416.0</ele><time>2026-04-25T13:08:48.106Z</time></trkpt><trkpt lat="43.0543113" lon="11.5106008"><ele>416.0</ele><time>2026-04-25T13:08:49.105Z</time></trkpt><trkpt lat="43.0541501" lon="11.5106366"><ele>416.0</ele><time>2026-04-25T13:08:50.106Z</time></trkpt><trkpt lat="43.053977" lon="11.5106091"><ele>416.66666666666663</ele><time>2026-04-25T13:08:51.106Z</time></trkpt><trkpt lat="43.0538199" lon="11.5105427"><ele>417.33333333333337</ele><time>2026-04-25T13:08:52.106Z</time></trkpt><trkpt lat="43.0536619" lon="11.5104272"><ele>418.0</ele><time>2026-04-25T13:08:53.106Z</time></trkpt><trkpt lat="43.0535182" lon="11.5102902"><ele>418.6666666666667</ele><time>2026-04-25T13:08:54.105Z</time></trkpt><trkpt lat="43.0533909" lon="11.5101278"><ele>419.33333333333337</ele><time>2026-04-25T13:08:55.106Z</time></trkpt><trkpt lat="43.053273" lon="11.5099534"><ele>420.0</ele><time>2026-04-25T13:08:56.106Z</time></trkpt><trkpt lat="43.0531715" lon="11.5097493"><ele>422.66666666666663</ele><time>2026-04-25T13:08:57.106Z</time></trkpt><trkpt lat="43.0531022" lon="11.5095226"><ele>425.3333333333333</ele><time>2026-04-25T13:08:58.106Z</time></trkpt><trkpt lat="43.0530563" lon="11.5092824"><ele>428.0</ele><time>2026-04-25T13:08:59.106Z</time></trkpt><trkpt lat="43.053019" lon="11.5090467"><ele>428.0</ele><time>2026-04-25T13:09:00.106Z</time></trkpt><trkpt lat="43.0529947" lon="11.5088214"><ele>428.0</ele><time>2026-04-25T13:09:01.106Z</time></trkpt><trkpt lat="43.052982" lon="11.5085823"><ele>428.0</ele><time>2026-04-25T13:09:02.106Z</time></trkpt><trkpt lat="43.0529844" lon="11.5083481"><ele>430.66666666666663</ele><time>2026-04-25T13:09:03.106Z</time></trkpt><trkpt lat="43.0530143" lon="11.508114"><ele>433.33333333333337</ele><time>2026-04-25T13:09:04.105Z</time></trkpt><trkpt lat="43.0530486" lon="11.5078766"><ele>436.0</ele><time>2026-04-25T13:09:05.106Z</time></trkpt><trkpt lat="43.0530803" lon="11.5076426"><ele>439.0</ele><time>2026-04-25T13:09:06.106Z</time></trkpt><trkpt lat="43.0531082" lon="11.5073997"><ele>442.0</ele><time>2026-04-25T13:09:07.106Z</time></trkpt><trkpt lat="43.0531343" lon="11.5071619"><ele>445.0</ele><time>2026-04-25T13:09:08.106Z</time></trkpt><trkpt lat="43.0531614" lon="11.5069228"><ele>447.6666666666667</ele><time>2026-04-25T13:09:09.106Z</time></trkpt><trkpt lat="43.0531886" lon="11.5066832"><ele>450.33333333333337</ele><time>2026-04-25T13:09:10.106Z</time></trkpt><trkpt lat="43.0532182" lon="11.5064448"><ele>453.0</ele><time>2026-04-25T13:09:11.106Z</time></trkpt><trkpt lat="43.0532465" lon="11.5062197"><ele>454.0</ele><time>2026-04-25T13:09:12.106Z</time></trkpt><trkpt lat="43.0532711" lon="11.5059996"><ele>455.0</ele><time>2026-04-25T13:09:13.106Z</time></trkpt><trkpt lat="43.0532752" lon="11.5057895"><ele>456.0</ele><time>2026-04-25T13:09:14.106Z</time></trkpt><trkpt lat="43.0532451" lon="11.5056055"><ele>456.0</ele><time>2026-04-25T13:09:15.106Z</time></trkpt><trkpt lat="43.0531709" lon="11.5054274"><ele>456.0</ele><time>2026-04-25T13:09:16.105Z</time></trkpt><trkpt lat="43.0530797" lon="11.5052865"><ele>456.0</ele><time>2026-04-25T13:09:17.106Z</time></trkpt><trkpt lat="43.0529667" lon="11.5051823"><ele>456.0</ele><time>2026-04-25T13:09:18.106Z</time></trkpt><trkpt lat="43.0528575" lon="11.5051063"><ele>456.4</ele><time>2026-04-25T13:09:19.105Z</time></trkpt><trkpt lat="43.0527533" lon="11.5050485"><ele>456.8</ele><time>2026-04-25T13:09:20.106Z</time></trkpt><trkpt lat="43.0526628" lon="11.5050005"><ele>457.19999999999993</ele><time>2026-04-25T13:09:21.106Z</time></trkpt><trkpt lat="43.0525775" lon="11.5049562"><ele>457.59999999999997</ele><time>2026-04-25T13:09:22.105Z</time></trkpt><trkpt lat="43.0525008" lon="11.5049239"><ele>458.0</ele><time>2026-04-25T13:09:23.105Z</time></trkpt><trkpt lat="43.052433" lon="11.504873"><ele>457.66666666666663</ele><time>2026-04-25T13:09:24.106Z</time></trkpt><trkpt lat="43.0523775" lon="11.5048037"><ele>457.3333333333333</ele><time>2026-04-25T13:09:25.106Z</time></trkpt><trkpt lat="43.0523444" lon="11.5046934"><ele>457.0</ele><time>2026-04-25T13:09:26.106Z</time></trkpt><trkpt lat="43.0523101" lon="11.5045763"><ele>456.66666666666663</ele><time>2026-04-25T13:09:27.106Z</time></trkpt><trkpt lat="43.0522715" lon="11.5044584"><ele>456.3333333333333</ele><time>2026-04-25T13:09:28.106Z</time></trkpt><trkpt lat="43.0522265" lon="11.504339"><ele>456.0</ele><time>2026-04-25T13:09:29.106Z</time></trkpt><trkpt lat="43.052176" lon="11.5042097"><ele>456.0</ele><time>2026-04-25T13:09:30.106Z</time></trkpt><trkpt lat="43.0521257" lon="11.5040814"><ele>456.0</ele><time>2026-04-25T13:09:31.106Z</time></trkpt><trkpt lat="43.0520732" lon="11.5039609"><ele>456.0</ele><time>2026-04-25T13:09:32.106Z</time></trkpt><trkpt lat="43.0520206" lon="11.5038329"><ele>456.0</ele><time>2026-04-25T13:09:33.106Z</time></trkpt><trkpt lat="43.0519649" lon="11.5037087"><ele>456.0</ele><time>2026-04-25T13:09:34.106Z</time></trkpt><trkpt lat="43.0519181" lon="11.5035884"><ele>457.6</ele><time>2026-04-25T13:09:35.106Z</time></trkpt><trkpt lat="43.0518665" lon="11.5034625"><ele>459.20000000000005</ele><time>2026-04-25T13:09:36.106Z</time></trkpt><trkpt lat="43.0518102" lon="11.5033348"><ele>460.79999999999995</ele><time>2026-04-25T13:09:37.106Z</time></trkpt><trkpt lat="43.0517773" lon="11.5032021"><ele>462.4</ele><time>2026-04-25T13:09:38.106Z</time></trkpt><trkpt lat="43.0517559" lon="11.5030567"><ele>464.0</ele><time>2026-04-25T13:09:39.105Z</time></trkpt><trkpt lat="43.0517551" lon="11.5029035"><ele>464.5</ele><time>2026-04-25T13:09:40.106Z</time></trkpt><trkpt lat="43.0517767" lon="11.5027467"><ele>465.0</ele><time>2026-04-25T13:09:41.106Z</time></trkpt><trkpt lat="43.0518025" lon="11.5025965"><ele>465.5</ele><time>2026-04-25T13:09:42.106Z</time></trkpt><trkpt lat="43.0518448" lon="11.5024488"><ele>466.0</ele><time>2026-04-25T13:09:43.106Z</time></trkpt><trkpt lat="43.0518835" lon="11.5023069"><ele>466.0</ele><time>2026-04-25T13:09:44.106Z</time></trkpt><trkpt lat="43.0519229" lon="11.5021601"><ele>466.0</ele><time>2026-04-25T13:09:45.106Z</time></trkpt><trkpt lat="43.0519514" lon="11.5020003"><ele>466.0</ele><time>2026-04-25T13:09:46.106Z</time></trkpt><trkpt lat="43.0519622" lon="11.5018322"><ele>466.0</ele><time>2026-04-25T13:09:47.106Z</time></trkpt><trkpt lat="43.051959" lon="11.5016692"><ele>466.75</ele><time>2026-04-25T13:09:48.106Z</time></trkpt><trkpt lat="43.0519528" lon="11.5015053"><ele>467.5</ele><time>2026-04-25T13:09:49.106Z</time></trkpt><trkpt lat="43.0519446" lon="11.5013312"><ele>468.25</ele><time>2026-04-25T13:09:50.105Z</time></trkpt><trkpt lat="43.0519419" lon="11.5011563"><ele>469.0</ele><time>2026-04-25T13:09:51.105Z</time></trkpt><trkpt lat="43.0519459" lon="11.5009793"><ele>470.25</ele><time>2026-04-25T13:09:52.106Z</time></trkpt><trkpt lat="43.0519649" lon="11.5008056"><ele>471.5</ele><time>2026-04-25T13:09:53.106Z</time></trkpt><trkpt lat="43.0519991" lon="11.5006335"><ele>472.75</ele><time>2026-04-25T13:09:54.105Z</time></trkpt><trkpt lat="43.0520542" lon="11.5004594"><ele>474.0</ele><time>2026-04-25T13:09:55.105Z</time></trkpt><trkpt lat="43.0521158" lon="11.5002846"><ele>475.25</ele><time>2026-04-25T13:09:56.106Z</time></trkpt><trkpt lat="43.0521855" lon="11.5001146"><ele>476.5</ele><time>2026-04-25T13:09:57.106Z</time></trkpt><trkpt lat="43.0522587" lon="11.4999365"><ele>477.75</ele><time>2026-04-25T13:09:58.106Z</time></trkpt><trkpt lat="43.0523326" lon="11.4997541"><ele>479.0</ele><time>2026-04-25T13:09:59.105Z</time></trkpt><trkpt lat="43.0524127" lon="11.4995678"><ele>482.66666666666663</ele><time>2026-04-25T13:10:00.106Z</time></trkpt><trkpt lat="43.052491" lon="11.4993849"><ele>486.33333333333337</ele><time>2026-04-25T13:10:01.105Z</time></trkpt><trkpt lat="43.0525699" lon="11.4991978"><ele>490.0</ele><time>2026-04-25T13:10:02.106Z</time></trkpt><trkpt lat="43.0526466" lon="11.4990125"><ele>490.0</ele><time>2026-04-25T13:10:03.105Z</time></trkpt><trkpt lat="43.0527193" lon="11.4988345"><ele>490.0</ele><time>2026-04-25T13:10:04.106Z</time></trkpt><trkpt lat="43.0527922" lon="11.4986552"><ele>490.0</ele><time>2026-04-25T13:10:05.106Z</time></trkpt><trkpt lat="43.0528626" lon="11.4984743"><ele>490.0</ele><time>2026-04-25T13:10:06.105Z</time></trkpt><trkpt lat="43.0529355" lon="11.4982964"><ele>492.5</ele><time>2026-04-25T13:10:07.106Z</time></trkpt><trkpt lat="43.0530157" lon="11.4981264"><ele>495.0</ele><time>2026-04-25T13:10:08.106Z</time></trkpt><trkpt lat="43.0530933" lon="11.4979583"><ele>497.5</ele><time>2026-04-25T13:10:09.105Z</time></trkpt><trkpt lat="43.0531701" lon="11.4977886"><ele>500.0</ele><time>2026-04-25T13:10:10.105Z</time></trkpt><trkpt lat="43.0532449" lon="11.4976167"><ele>499.75</ele><time>2026-04-25T13:10:11.105Z</time></trkpt><trkpt lat="43.053318" lon="11.4974416"><ele>499.5</ele><time>2026-04-25T13:10:12.105Z</time></trkpt><trkpt lat="43.0533776" lon="11.4972564"><ele>499.25</ele><time>2026-04-25T13:10:13.106Z</time></trkpt><trkpt lat="43.0534263" lon="11.4970686"><ele>499.0</ele><time>2026-04-25T13:10:14.106Z</time></trkpt><trkpt lat="43.0534652" lon="11.4968708"><ele>499.0</ele><time>2026-04-25T13:10:15.106Z</time></trkpt><trkpt lat="43.0534928" lon="11.4966776"><ele>499.0</ele><time>2026-04-25T13:10:16.105Z</time></trkpt><trkpt lat="43.0535161" lon="11.4964811"><ele>499.0</ele><time>2026-04-25T13:10:17.106Z</time></trkpt><trkpt lat="43.0535379" lon="11.4962893"><ele>499.0</ele><time>2026-04-25T13:10:18.106Z</time></trkpt><trkpt lat="43.0535605" lon="11.496099"><ele>500.25</ele><time>2026-04-25T13:10:19.105Z</time></trkpt><trkpt lat="43.0535749" lon="11.4959027"><ele>501.5</ele><time>2026-04-25T13:10:20.105Z</time></trkpt><trkpt lat="43.0535785" lon="11.4957152"><ele>502.75</ele><time>2026-04-25T13:10:21.106Z</time></trkpt><trkpt lat="43.0535766" lon="11.4955291"><ele>504.0</ele><time>2026-04-25T13:10:22.106Z</time></trkpt><trkpt lat="43.0535607" lon="11.4953375"><ele>504.25</ele><time>2026-04-25T13:10:23.106Z</time></trkpt><trkpt lat="43.0535396" lon="11.495147"><ele>504.5</ele><time>2026-04-25T13:10:24.105Z</time></trkpt><trkpt lat="43.0535254" lon="11.4949597"><ele>504.75</ele><time>2026-04-25T13:10:25.106Z</time></trkpt><trkpt lat="43.0535153" lon="11.4947748"><ele>505.0</ele><time>2026-04-25T13:10:26.106Z</time></trkpt><trkpt lat="43.0535138" lon="11.4945898"><ele>505.75</ele><time>2026-04-25T13:10:27.106Z</time></trkpt><trkpt lat="43.0535188" lon="11.4944"><ele>506.5</ele><time>2026-04-25T13:10:28.106Z</time></trkpt><trkpt lat="43.0535415" lon="11.4942172"><ele>507.25</ele><time>2026-04-25T13:10:29.106Z</time></trkpt><trkpt lat="43.053601" lon="11.4940505"><ele>508.0</ele><time>2026-04-25T13:10:30.106Z</time></trkpt><trkpt lat="43.0536819" lon="11.4939016"><ele>508.0</ele><time>2026-04-25T13:10:31.106Z</time></trkpt><trkpt lat="43.0537806" lon="11.4937762"><ele>508.0</ele><time>2026-04-25T13:10:32.106Z</time></trkpt><trkpt lat="43.0538854" lon="11.4936747"><ele>508.0</ele><time>2026-04-25T13:10:33.106Z</time></trkpt><trkpt lat="43.0539885" lon="11.4935844"><ele>508.0</ele><time>2026-04-25T13:10:34.106Z</time></trkpt><trkpt lat="43.0540888" lon="11.4934983"><ele>507.59999999999997</ele><time>2026-04-25T13:10:35.106Z</time></trkpt><trkpt lat="43.0541778" lon="11.4934134"><ele>507.19999999999993</ele><time>2026-04-25T13:10:36.106Z</time></trkpt><trkpt lat="43.0542479" lon="11.4933146"><ele>506.8</ele><time>2026-04-25T13:10:37.106Z</time></trkpt><trkpt lat="43.0543079" lon="11.493202"><ele>506.4</ele><time>2026-04-25T13:10:38.106Z</time></trkpt><trkpt lat="43.054358" lon="11.4930972"><ele>506.0</ele><time>2026-04-25T13:10:39.105Z</time></trkpt><trkpt lat="43.0544001" lon="11.4929936"><ele>508.99999999999994</ele><time>2026-04-25T13:10:40.106Z</time></trkpt><trkpt lat="43.0544258" lon="11.4928888"><ele>512.0</ele><time>2026-04-25T13:10:41.106Z</time></trkpt><trkpt lat="43.0544446" lon="11.4927835"><ele>515.0</ele><time>2026-04-25T13:10:42.106Z</time></trkpt><trkpt lat="43.0544604" lon="11.4926734"><ele>518.0</ele><time>2026-04-25T13:10:43.106Z</time></trkpt><trkpt lat="43.0544721" lon="11.492564"><ele>521.0</ele><time>2026-04-25T13:10:44.106Z</time></trkpt><trkpt lat="43.0544747" lon="11.4924562"><ele>524.0</ele><time>2026-04-25T13:10:45.106Z</time></trkpt><trkpt lat="43.0544703" lon="11.4923506"><ele>524.0</ele><time>2026-04-25T13:10:46.106Z</time></trkpt><trkpt lat="43.0544648" lon="11.4922492"><ele>524.0</ele><time>2026-04-25T13:10:47.106Z</time></trkpt><trkpt lat="43.0544563" lon="11.492143"><ele>524.0</ele><time>2026-04-25T13:10:48.106Z</time></trkpt><trkpt lat="43.0544481" lon="11.4920448"><ele>524.0</ele><time>2026-04-25T13:10:49.106Z</time></trkpt><trkpt lat="43.0544376" lon="11.4919466"><ele>524.0</ele><time>2026-04-25T13:10:50.106Z</time></trkpt><trkpt lat="43.0544203" lon="11.4918488"><ele>524.0</ele><time>2026-04-25T13:10:51.106Z</time></trkpt><trkpt lat="43.0544121" lon="11.4917455"><ele>524.0</ele><time>2026-04-25T13:10:52.106Z</time></trkpt><trkpt lat="43.0544017" lon="11.4916554"><ele>526.4</ele><time>2026-04-25T13:10:53.106Z</time></trkpt><trkpt lat="43.0543956" lon="11.4915652"><ele>528.8</ele><time>2026-04-25T13:10:54.105Z</time></trkpt><trkpt lat="43.0543847" lon="11.4913954"><ele>531.2</ele><time>2026-04-25T13:10:56.106Z</time></trkpt><trkpt lat="43.0543881" lon="11.4912547"><ele>533.6</ele><time>2026-04-25T13:10:58.106Z</time></trkpt><trkpt lat="43.0544314" lon="11.4911216"><ele>536.0</ele><time>2026-04-25T13:11:00.106Z</time></trkpt><trkpt lat="43.0545136" lon="11.4910224"><ele>536.0</ele><time>2026-04-25T13:11:02.106Z</time></trkpt><trkpt lat="43.0546287" lon="11.490998"><ele>536.0</ele><time>2026-04-25T13:11:04.106Z</time></trkpt><trkpt lat="43.0547348" lon="11.4910623"><ele>536.0</ele><time>2026-04-25T13:11:06.105Z</time></trkpt><trkpt lat="43.0548197" lon="11.4911723"><ele>536.0</ele><time>2026-04-25T13:11:08.106Z</time></trkpt><trkpt lat="43.054864" lon="11.4912375"><ele>536.0</ele><time>2026-04-25T13:11:09.106Z</time></trkpt><trkpt lat="43.0549124" lon="11.4913103"><ele>533.2857142857143</ele><time>2026-04-25T13:11:10.105Z</time></trkpt><trkpt lat="43.0549572" lon="11.4913806"><ele>530.5714285714286</ele><time>2026-04-25T13:11:11.106Z</time></trkpt><trkpt lat="43.0550028" lon="11.4914505"><ele>527.8571428571429</ele><time>2026-04-25T13:11:12.106Z</time></trkpt><trkpt lat="43.0550502" lon="11.4915181"><ele>525.1428571428571</ele><time>2026-04-25T13:11:13.106Z</time></trkpt><trkpt lat="43.0550984" lon="11.4915797"><ele>522.4285714285714</ele><time>2026-04-25T13:11:14.105Z</time></trkpt><trkpt lat="43.0551508" lon="11.4916526"><ele>519.7142857142858</ele><time>2026-04-25T13:11:15.106Z</time></trkpt><trkpt lat="43.0551969" lon="11.4917254"><ele>517.0</ele><time>2026-04-25T13:11:16.106Z</time></trkpt><trkpt lat="43.0552438" lon="11.4917946"><ele>517.0</ele><time>2026-04-25T13:11:17.106Z</time></trkpt><trkpt lat="43.0552999" lon="11.491907"><ele>517.0</ele><time>2026-04-25T13:11:19.105Z</time></trkpt><trkpt lat="43.0553603" lon="11.491981"><ele>517.0</ele><time>2026-04-25T13:11:21.105Z</time></trkpt><trkpt lat="43.055428" lon="11.4920225"><ele>517.0</ele><time>2026-04-25T13:11:23.106Z</time></trkpt><trkpt lat="43.0554922" lon="11.491983"><ele>517.0</ele><time>2026-04-25T13:11:25.105Z</time></trkpt><trkpt lat="43.0555084" lon="11.4918712"><ele>517.0</ele><time>2026-04-25T13:11:27.105Z</time></trkpt><trkpt lat="43.0554479" lon="11.4917619"><ele>517.0</ele><time>2026-04-25T13:11:29.106Z</time></trkpt><trkpt lat="43.0553576" lon="11.4916536"><ele>517.0</ele><time>2026-04-25T13:11:31.106Z</time></trkpt><trkpt lat="43.0552753" lon="11.4915227"><ele>517.0</ele><time>2026-04-25T13:11:33.106Z</time></trkpt><trkpt lat="43.055235" lon="11.4914392"><ele>517.0</ele><time>2026-04-25T13:11:34.106Z</time></trkpt><trkpt lat="43.0551938" lon="11.4913494"><ele>517.0</ele><time>2026-04-25T13:11:35.106Z</time></trkpt><trkpt lat="43.0551457" lon="11.491244"><ele>521.0</ele><time>2026-04-25T13:11:36.106Z</time></trkpt><trkpt lat="43.0550981" lon="11.4911355"><ele>525.0</ele><time>2026-04-25T13:11:37.105Z</time></trkpt><trkpt lat="43.0550515" lon="11.491019"><ele>529.0</ele><time>2026-04-25T13:11:38.106Z</time></trkpt><trkpt lat="43.0549965" lon="11.4909054"><ele>533.0</ele><time>2026-04-25T13:11:39.106Z</time></trkpt><trkpt lat="43.0549306" lon="11.4907991"><ele>537.0</ele><time>2026-04-25T13:11:40.106Z</time></trkpt><trkpt lat="43.0548595" lon="11.4906929"><ele>537.2</ele><time>2026-04-25T13:11:41.106Z</time></trkpt><trkpt lat="43.0547768" lon="11.4905901"><ele>537.4000000000001</ele><time>2026-04-25T13:11:42.106Z</time></trkpt><trkpt lat="43.0546954" lon="11.4904942"><ele>537.5999999999999</ele><time>2026-04-25T13:11:43.105Z</time></trkpt><trkpt lat="43.0546138" lon="11.4903973"><ele>537.8</ele><time>2026-04-25T13:11:44.106Z</time></trkpt><trkpt lat="43.0545376" lon="11.4903055"><ele>538.0</ele><time>2026-04-25T13:11:45.106Z</time></trkpt><trkpt lat="43.0544604" lon="11.4902271"><ele>539.3333333333334</ele><time>2026-04-25T13:11:46.106Z</time></trkpt><trkpt lat="43.0543878" lon="11.4901598"><ele>540.6666666666667</ele><time>2026-04-25T13:11:47.106Z</time></trkpt><trkpt lat="43.0543217" lon="11.490097"><ele>542.0</ele><time>2026-04-25T13:11:48.106Z</time></trkpt><trkpt lat="43.054263" lon="11.4900317"><ele>543.3333333333334</ele><time>2026-04-25T13:11:49.106Z</time></trkpt><trkpt lat="43.0542156" lon="11.4899668"><ele>544.6666666666666</ele><time>2026-04-25T13:11:50.106Z</time></trkpt><trkpt lat="43.0541584" lon="11.4898212"><ele>546.0</ele><time>2026-04-25T13:11:52.106Z</time></trkpt><trkpt lat="43.0541503" lon="11.4896738"><ele>547.8</ele><time>2026-04-25T13:11:54.106Z</time></trkpt><trkpt lat="43.0541807" lon="11.4895307"><ele>549.6</ele><time>2026-04-25T13:11:56.106Z</time></trkpt><trkpt lat="43.0542426" lon="11.4894271"><ele>551.4</ele><time>2026-04-25T13:11:58.106Z</time></trkpt><trkpt lat="43.0543384" lon="11.4893379"><ele>553.2</ele><time>2026-04-25T13:12:00.106Z</time></trkpt><trkpt lat="43.054459" lon="11.4893074"><ele>555.0</ele><time>2026-04-25T13:12:02.106Z</time></trkpt><trkpt lat="43.0545239" lon="11.4892972"><ele>555.0</ele><time>2026-04-25T13:12:03.106Z</time></trkpt><trkpt lat="43.0545927" lon="11.4892933"><ele>555.0</ele><time>2026-04-25T13:12:04.105Z</time></trkpt><trkpt lat="43.0546617" lon="11.4892893"><ele>555.0</ele><time>2026-04-25T13:12:05.105Z</time></trkpt><trkpt lat="43.0547745" lon="11.4892783"><ele>555.0</ele><time>2026-04-25T13:12:07.106Z</time></trkpt><trkpt lat="43.0548526" lon="11.4892882"><ele>555.0</ele><time>2026-04-25T13:12:10.106Z</time></trkpt><trkpt lat="43.0549489" lon="11.4892758"><ele>555.0</ele><time>2026-04-25T13:12:19.106Z</time></trkpt><trkpt lat="43.0550452" lon="11.4892759"><ele>554.6</ele><time>2026-04-25T13:12:21.106Z</time></trkpt><trkpt lat="43.0551147" lon="11.4892576"><ele>554.2</ele><time>2026-04-25T13:12:23.106Z</time></trkpt><trkpt lat="43.0552251" lon="11.489175"><ele>553.8</ele><time>2026-04-25T13:12:25.106Z</time></trkpt><trkpt lat="43.0553023" lon="11.4891282"><ele>553.4</ele><time>2026-04-25T13:12:26.106Z</time></trkpt><trkpt lat="43.0553838" lon="11.4890731"><ele>553.0</ele><time>2026-04-25T13:12:27.105Z</time></trkpt><trkpt lat="43.0554745" lon="11.4890313"><ele>553.0</ele><time>2026-04-25T13:12:28.105Z</time></trkpt><trkpt lat="43.0555623" lon="11.4890063"><ele>553.0</ele><time>2026-04-25T13:12:29.106Z</time></trkpt><trkpt lat="43.0556509" lon="11.4889852"><ele>553.0</ele><time>2026-04-25T13:12:30.105Z</time></trkpt><trkpt lat="43.0557436" lon="11.4889883"><ele>553.0</ele><time>2026-04-25T13:12:31.106Z</time></trkpt><trkpt lat="43.0558308" lon="11.4890126"><ele>553.0</ele><time>2026-04-25T13:12:32.105Z</time></trkpt><trkpt lat="43.055909" lon="11.4890511"><ele>553.0</ele><time>2026-04-25T13:12:33.106Z</time></trkpt><trkpt lat="43.0559833" lon="11.4890849"><ele>552.3333333333334</ele><time>2026-04-25T13:12:34.106Z</time></trkpt><trkpt lat="43.0560698" lon="11.489093"><ele>551.6666666666667</ele><time>2026-04-25T13:12:35.105Z</time></trkpt><trkpt lat="43.0561426" lon="11.4890729"><ele>551.0</ele><time>2026-04-25T13:12:36.106Z</time></trkpt><trkpt lat="43.0562261" lon="11.4890463"><ele>550.3333333333334</ele><time>2026-04-25T13:12:37.106Z</time></trkpt><trkpt lat="43.0563132" lon="11.4890049"><ele>549.6666666666666</ele><time>2026-04-25T13:12:38.106Z</time></trkpt><trkpt lat="43.0564032" lon="11.4889686"><ele>549.0</ele><time>2026-04-25T13:12:39.105Z</time></trkpt><trkpt lat="43.0564947" lon="11.4889274"><ele>549.0</ele><time>2026-04-25T13:12:40.106Z</time></trkpt><trkpt lat="43.0565861" lon="11.4888872"><ele>549.0</ele><time>2026-04-25T13:12:41.106Z</time></trkpt><trkpt lat="43.0566795" lon="11.4888386"><ele>549.0</ele><time>2026-04-25T13:12:42.106Z</time></trkpt><trkpt lat="43.0567669" lon="11.4887791"><ele>549.0</ele><time>2026-04-25T13:12:43.105Z</time></trkpt><trkpt lat="43.0568457" lon="11.4887069"><ele>549.0</ele><time>2026-04-25T13:12:44.106Z</time></trkpt><trkpt lat="43.0569153" lon="11.4886102"><ele>546.4</ele><time>2026-04-25T13:12:45.105Z</time></trkpt><trkpt lat="43.0569763" lon="11.4884884"><ele>543.8</ele><time>2026-04-25T13:12:46.106Z</time></trkpt><trkpt lat="43.0570322" lon="11.4883564"><ele>541.2</ele><time>2026-04-25T13:12:47.106Z</time></trkpt><trkpt lat="43.057088" lon="11.4882274"><ele>538.6</ele><time>2026-04-25T13:12:48.106Z</time></trkpt><trkpt lat="43.0571508" lon="11.4880972"><ele>536.0</ele><time>2026-04-25T13:12:49.106Z</time></trkpt><trkpt lat="43.0572108" lon="11.4879721"><ele>537.0</ele><time>2026-04-25T13:12:50.106Z</time></trkpt><trkpt lat="43.0572732" lon="11.487847"><ele>538.0</ele><time>2026-04-25T13:12:51.106Z</time></trkpt><trkpt lat="43.0573337" lon="11.4877277"><ele>539.0</ele><time>2026-04-25T13:12:52.106Z</time></trkpt><trkpt lat="43.0573966" lon="11.487613"><ele>540.0</ele><time>2026-04-25T13:12:53.105Z</time></trkpt><trkpt lat="43.0574549" lon="11.4875009"><ele>541.0</ele><time>2026-04-25T13:12:54.106Z</time></trkpt><trkpt lat="43.0575232" lon="11.4873977"><ele>541.0</ele><time>2026-04-25T13:12:55.106Z</time></trkpt><trkpt lat="43.0576015" lon="11.4873101"><ele>541.0</ele><time>2026-04-25T13:12:56.106Z</time></trkpt><trkpt lat="43.057683" lon="11.4872117"><ele>541.0</ele><time>2026-04-25T13:12:57.106Z</time></trkpt><trkpt lat="43.0577617" lon="11.4871135"><ele>541.0</ele><time>2026-04-25T13:12:58.106Z</time></trkpt><trkpt lat="43.057849" lon="11.4870199"><ele>541.0</ele><time>2026-04-25T13:12:59.106Z</time></trkpt><trkpt lat="43.0579326" lon="11.4869312"><ele>542.4</ele><time>2026-04-25T13:13:00.106Z</time></trkpt><trkpt lat="43.0580148" lon="11.4868301"><ele>543.8</ele><time>2026-04-25T13:13:01.106Z</time></trkpt><trkpt lat="43.0581018" lon="11.4867267"><ele>545.1999999999999</ele><time>2026-04-25T13:13:02.106Z</time></trkpt><trkpt lat="43.058189" lon="11.4866329"><ele>546.6</ele><time>2026-04-25T13:13:03.106Z</time></trkpt><trkpt lat="43.0582753" lon="11.4865336"><ele>548.0</ele><time>2026-04-25T13:13:04.106Z</time></trkpt><trkpt lat="43.058363" lon="11.4864439"><ele>548.0</ele><time>2026-04-25T13:13:05.105Z</time></trkpt><trkpt lat="43.0584518" lon="11.4863641"><ele>548.0</ele><time>2026-04-25T13:13:06.105Z</time></trkpt><trkpt lat="43.0585527" lon="11.4862926"><ele>548.0</ele><time>2026-04-25T13:13:07.106Z</time></trkpt><trkpt lat="43.0586546" lon="11.4862282"><ele>548.0</ele><time>2026-04-25T13:13:08.106Z</time></trkpt><trkpt lat="43.0587577" lon="11.4861776"><ele>548.0</ele><time>2026-04-25T13:13:09.106Z</time></trkpt><trkpt lat="43.0588602" lon="11.4861516"><ele>549.1999999999999</ele><time>2026-04-25T13:13:10.106Z</time></trkpt><trkpt lat="43.0589574" lon="11.4861524"><ele>550.4</ele><time>2026-04-25T13:13:11.106Z</time></trkpt><trkpt lat="43.0590577" lon="11.4861738"><ele>551.5999999999999</ele><time>2026-04-25T13:13:12.106Z</time></trkpt><trkpt lat="43.0591599" lon="11.4862063"><ele>552.8</ele><time>2026-04-25T13:13:13.105Z</time></trkpt><trkpt lat="43.0592662" lon="11.4862483"><ele>554.0</ele><time>2026-04-25T13:13:14.106Z</time></trkpt><trkpt lat="43.0593762" lon="11.4862921"><ele>554.0</ele><time>2026-04-25T13:13:15.106Z</time></trkpt><trkpt lat="43.0594847" lon="11.4863442"><ele>554.0</ele><time>2026-04-25T13:13:16.106Z</time></trkpt><trkpt lat="43.0595951" lon="11.4863944"><ele>554.0</ele><time>2026-04-25T13:13:17.106Z</time></trkpt><trkpt lat="43.0597044" lon="11.4864477"><ele>554.0</ele><time>2026-04-25T13:13:18.106Z</time></trkpt><trkpt lat="43.0598072" lon="11.4865024"><ele>554.0</ele><time>2026-04-25T13:13:19.106Z</time></trkpt><trkpt lat="43.0599129" lon="11.48655"><ele>554.0</ele><time>2026-04-25T13:13:20.105Z</time></trkpt><trkpt lat="43.0600138" lon="11.4865938"><ele>554.0</ele><time>2026-04-25T13:13:21.105Z</time></trkpt><trkpt lat="43.060113" lon="11.4866414"><ele>554.0</ele><time>2026-04-25T13:13:22.106Z</time></trkpt><trkpt lat="43.0602088" lon="11.4866831"><ele>554.0</ele><time>2026-04-25T13:13:23.106Z</time></trkpt><trkpt lat="43.0602931" lon="11.4867269"><ele>553.8333333333333</ele><time>2026-04-25T13:13:24.106Z</time></trkpt><trkpt lat="43.0603701" lon="11.4867749"><ele>553.6666666666666</ele><time>2026-04-25T13:13:25.106Z</time></trkpt><trkpt lat="43.0604347" lon="11.4868347"><ele>553.5</ele><time>2026-04-25T13:13:26.106Z</time></trkpt><trkpt lat="43.0604904" lon="11.486892"><ele>553.3333333333334</ele><time>2026-04-25T13:13:27.106Z</time></trkpt><trkpt lat="43.0605428" lon="11.4869511"><ele>553.1666666666667</ele><time>2026-04-25T13:13:28.106Z</time></trkpt><trkpt lat="43.0606051" lon="11.4870763"><ele>553.0</ele><time>2026-04-25T13:13:30.106Z</time></trkpt><trkpt lat="43.06063" lon="11.4871561"><ele>554.3333333333334</ele><time>2026-04-25T13:13:31.106Z</time></trkpt><trkpt lat="43.0606396" lon="11.4872495"><ele>555.6666666666667</ele><time>2026-04-25T13:13:32.105Z</time></trkpt><trkpt lat="43.0606406" lon="11.4873388"><ele>557.0</ele><time>2026-04-25T13:13:33.106Z</time></trkpt><trkpt lat="43.0606388" lon="11.4874399"><ele>558.3333333333334</ele><time>2026-04-25T13:13:34.106Z</time></trkpt><trkpt lat="43.0606393" lon="11.487548"><ele>559.6666666666666</ele><time>2026-04-25T13:13:35.106Z</time></trkpt><trkpt lat="43.0606418" lon="11.4876592"><ele>561.0</ele><time>2026-04-25T13:13:36.106Z</time></trkpt><trkpt lat="43.0606496" lon="11.4877811"><ele>561.0</ele><time>2026-04-25T13:13:37.106Z</time></trkpt><trkpt lat="43.0606577" lon="11.4879078"><ele>561.0</ele><time>2026-04-25T13:13:38.106Z</time></trkpt><trkpt lat="43.060661" lon="11.4880264"><ele>561.0</ele><time>2026-04-25T13:13:39.106Z</time></trkpt><trkpt lat="43.0606625" lon="11.4881592"><ele>561.0</ele><time>2026-04-25T13:13:40.106Z</time></trkpt><trkpt lat="43.060663" lon="11.488292"><ele>561.0</ele><time>2026-04-25T13:13:41.106Z</time></trkpt><trkpt lat="43.0606695" lon="11.4884288"><ele>560.0</ele><time>2026-04-25T13:13:42.106Z</time></trkpt><trkpt lat="43.0606812" lon="11.4885711"><ele>559.0</ele><time>2026-04-25T13:13:43.106Z</time></trkpt><trkpt lat="43.0606882" lon="11.4887117"><ele>558.0</ele><time>2026-04-25T13:13:44.106Z</time></trkpt><trkpt lat="43.0606905" lon="11.4888597"><ele>557.0</ele><time>2026-04-25T13:13:45.106Z</time></trkpt><trkpt lat="43.0606934" lon="11.4890041"><ele>556.0</ele><time>2026-04-25T13:13:46.106Z</time></trkpt><trkpt lat="43.0606953" lon="11.4891424"><ele>554.1666666666667</ele><time>2026-04-25T13:13:47.106Z</time></trkpt><trkpt lat="43.0606962" lon="11.4892694"><ele>552.3333333333334</ele><time>2026-04-25T13:13:48.106Z</time></trkpt><trkpt lat="43.0607" lon="11.489383"><ele>550.5</ele><time>2026-04-25T13:13:49.105Z</time></trkpt><trkpt lat="43.0606998" lon="11.48948"><ele>548.6666666666666</ele><time>2026-04-25T13:13:50.106Z</time></trkpt><trkpt lat="43.0607058" lon="11.4895659"><ele>546.8333333333333</ele><time>2026-04-25T13:13:51.106Z</time></trkpt><trkpt lat="43.0607161" lon="11.489685"><ele>545.0</ele><time>2026-04-25T13:13:53.106Z</time></trkpt><trkpt lat="43.0607182" lon="11.4897868"><ele>542.7142857142858</ele><time>2026-04-25T13:13:56.106Z</time></trkpt><trkpt lat="43.0607838" lon="11.4898226"><ele>540.4285714285714</ele><time>2026-04-25T13:13:59.105Z</time></trkpt><trkpt lat="43.0608673" lon="11.4898123"><ele>538.1428571428571</ele><time>2026-04-25T13:14:02.106Z</time></trkpt><trkpt lat="43.0609368" lon="11.4898133"><ele>535.8571428571429</ele><time>2026-04-25T13:14:04.105Z</time></trkpt><trkpt lat="43.0610217" lon="11.4897913"><ele>533.5714285714286</ele><time>2026-04-25T13:14:06.106Z</time></trkpt><trkpt lat="43.0610573" lon="11.4897053"><ele>531.2857142857143</ele><time>2026-04-25T13:14:08.105Z</time></trkpt><trkpt lat="43.0609945" lon="11.4896757"><ele>529.0</ele><time>2026-04-25T13:14:10.106Z</time></trkpt><trkpt lat="43.0608993" lon="11.4897141"><ele>529.0</ele><time>2026-04-25T13:14:12.106Z</time></trkpt><trkpt lat="43.0608091" lon="11.4897446"><ele>529.0</ele><time>2026-04-25T13:14:14.106Z</time></trkpt><trkpt lat="43.0607483" lon="11.4896882"><ele>529.0</ele><time>2026-04-25T13:14:16.106Z</time></trkpt><trkpt lat="43.0607314" lon="11.4895457"><ele>529.0</ele><time>2026-04-25T13:14:18.106Z</time></trkpt><trkpt lat="43.0607243" lon="11.4893811"><ele>529.0</ele><time>2026-04-25T13:14:20.106Z</time></trkpt><trkpt lat="43.0607269" lon="11.4892062"><ele>531.6666666666667</ele><time>2026-04-25T13:14:22.106Z</time></trkpt><trkpt lat="43.0607209" lon="11.48911"><ele>534.3333333333334</ele><time>2026-04-25T13:14:23.106Z</time></trkpt><trkpt lat="43.0607154" lon="11.4890069"><ele>537.0</ele><time>2026-04-25T13:14:24.106Z</time></trkpt><trkpt lat="43.0607095" lon="11.4888946"><ele>539.6666666666666</ele><time>2026-04-25T13:14:25.105Z</time></trkpt><trkpt lat="43.0607058" lon="11.4887751"><ele>542.3333333333333</ele><time>2026-04-25T13:14:26.105Z</time></trkpt><trkpt lat="43.0607021" lon="11.488652"><ele>545.0</ele><time>2026-04-25T13:14:27.106Z</time></trkpt><trkpt lat="43.0606974" lon="11.4885334"><ele>547.2</ele><time>2026-04-25T13:14:28.106Z</time></trkpt><trkpt lat="43.0606948" lon="11.488418"><ele>549.4</ele><time>2026-04-25T13:14:29.106Z</time></trkpt><trkpt lat="43.0606867" lon="11.4882944"><ele>551.6</ele><time>2026-04-25T13:14:30.106Z</time></trkpt><trkpt lat="43.0606849" lon="11.4881701"><ele>553.8</ele><time>2026-04-25T13:14:31.106Z</time></trkpt><trkpt lat="43.0606817" lon="11.4880372"><ele>556.0</ele><time>2026-04-25T13:14:32.106Z</time></trkpt><trkpt lat="43.0606825" lon="11.4879184"><ele>556.8333333333334</ele><time>2026-04-25T13:14:33.105Z</time></trkpt><trkpt lat="43.0606833" lon="11.4878047"><ele>557.6666666666667</ele><time>2026-04-25T13:14:34.106Z</time></trkpt><trkpt lat="43.0606757" lon="11.4876857"><ele>558.5</ele><time>2026-04-25T13:14:35.106Z</time></trkpt><trkpt lat="43.0606662" lon="11.487564"><ele>559.3333333333334</ele><time>2026-04-25T13:14:36.105Z</time></trkpt><trkpt lat="43.060664" lon="11.4874551"><ele>560.1666666666666</ele><time>2026-04-25T13:14:37.106Z</time></trkpt><trkpt lat="43.0606626" lon="11.4873446"><ele>561.0</ele><time>2026-04-25T13:14:38.106Z</time></trkpt><trkpt lat="43.0606618" lon="11.4872424"><ele>561.0</ele><time>2026-04-25T13:14:39.106Z</time></trkpt><trkpt lat="43.0606517" lon="11.4871355"><ele>561.0</ele><time>2026-04-25T13:14:40.105Z</time></trkpt><trkpt lat="43.0606305" lon="11.4870296"><ele>561.0</ele><time>2026-04-25T13:14:41.105Z</time></trkpt><trkpt lat="43.0605892" lon="11.4869348"><ele>561.0</ele><time>2026-04-25T13:14:42.106Z</time></trkpt><trkpt lat="43.060537" lon="11.4868505"><ele>561.0</ele><time>2026-04-25T13:14:43.106Z</time></trkpt><trkpt lat="43.0604713" lon="11.4867837"><ele>561.0</ele><time>2026-04-25T13:14:44.106Z</time></trkpt><trkpt lat="43.0603914" lon="11.4867231"><ele>559.6</ele><time>2026-04-25T13:14:45.106Z</time></trkpt><trkpt lat="43.0603041" lon="11.4866747"><ele>558.2</ele><time>2026-04-25T13:14:46.106Z</time></trkpt><trkpt lat="43.0602101" lon="11.48663"><ele>556.8</ele><time>2026-04-25T13:14:47.106Z</time></trkpt><trkpt lat="43.0601151" lon="11.4865885"><ele>555.4</ele><time>2026-04-25T13:14:48.106Z</time></trkpt><trkpt lat="43.0600177" lon="11.4865471"><ele>554.0</ele><time>2026-04-25T13:14:49.106Z</time></trkpt><trkpt lat="43.0599217" lon="11.4865035"><ele>554.0</ele><time>2026-04-25T13:14:50.106Z</time></trkpt><trkpt lat="43.0598265" lon="11.4864658"><ele>554.0</ele><time>2026-04-25T13:14:51.106Z</time></trkpt><trkpt lat="43.0597247" lon="11.486417"><ele>554.0</ele><time>2026-04-25T13:14:52.106Z</time></trkpt><trkpt lat="43.0596179" lon="11.4863689"><ele>554.0</ele><time>2026-04-25T13:14:53.106Z</time></trkpt><trkpt lat="43.0595062" lon="11.4863205"><ele>554.0</ele><time>2026-04-25T13:14:54.106Z</time></trkpt><trkpt lat="43.0593959" lon="11.4862681"><ele>550.0</ele><time>2026-04-25T13:14:55.106Z</time></trkpt><trkpt lat="43.059284" lon="11.4862124"><ele>546.0</ele><time>2026-04-25T13:14:56.106Z</time></trkpt><trkpt lat="43.0591649" lon="11.4861633"><ele>542.0</ele><time>2026-04-25T13:14:57.106Z</time></trkpt><trkpt lat="43.0590488" lon="11.4861299"><ele>538.0</ele><time>2026-04-25T13:14:58.106Z</time></trkpt><trkpt lat="43.0589284" lon="11.4861059"><ele>540.5</ele><time>2026-04-25T13:14:59.106Z</time></trkpt><trkpt lat="43.0588122" lon="11.4861063"><ele>543.0</ele><time>2026-04-25T13:15:00.106Z</time></trkpt><trkpt lat="43.058701" lon="11.4861267"><ele>545.5</ele><time>2026-04-25T13:15:01.106Z</time></trkpt><trkpt lat="43.0585931" lon="11.4861889"><ele>548.0</ele><time>2026-04-25T13:15:02.106Z</time></trkpt><trkpt lat="43.058493" lon="11.4862657"><ele>548.0</ele><time>2026-04-25T13:15:03.106Z</time></trkpt><trkpt lat="43.058394" lon="11.4863462"><ele>548.0</ele><time>2026-04-25T13:15:04.106Z</time></trkpt><trkpt lat="43.0583098" lon="11.4864437"><ele>548.0</ele><time>2026-04-25T13:15:05.106Z</time></trkpt><trkpt lat="43.0582212" lon="11.4865482"><ele>548.0</ele><time>2026-04-25T13:15:06.106Z</time></trkpt><trkpt lat="43.0581325" lon="11.4866542"><ele>542.0</ele><time>2026-04-25T13:15:07.106Z</time></trkpt><trkpt lat="43.0580419" lon="11.4867562"><ele>536.0</ele><time>2026-04-25T13:15:08.106Z</time></trkpt><trkpt lat="43.0579451" lon="11.4868693"><ele>530.0</ele><time>2026-04-25T13:15:09.106Z</time></trkpt><trkpt lat="43.0578492" lon="11.4869789"><ele>524.0</ele><time>2026-04-25T13:15:10.105Z</time></trkpt><trkpt lat="43.0577582" lon="11.4870866"><ele>524.0</ele><time>2026-04-25T13:15:11.106Z</time></trkpt><trkpt lat="43.0576665" lon="11.4871956"><ele>524.0</ele><time>2026-04-25T13:15:12.106Z</time></trkpt><trkpt lat="43.0575674" lon="11.4873056"><ele>524.0</ele><time>2026-04-25T13:15:13.105Z</time></trkpt><trkpt lat="43.0574771" lon="11.4874198"><ele>524.0</ele><time>2026-04-25T13:15:14.106Z</time></trkpt><trkpt lat="43.057394" lon="11.4875419"><ele>524.0</ele><time>2026-04-25T13:15:15.105Z</time></trkpt><trkpt lat="43.0573252" lon="11.4876526"><ele>524.0</ele><time>2026-04-25T13:15:16.106Z</time></trkpt><trkpt lat="43.0572634" lon="11.4877743"><ele>524.0</ele><time>2026-04-25T13:15:17.106Z</time></trkpt><trkpt lat="43.0572001" lon="11.487898"><ele>524.0</ele><time>2026-04-25T13:15:18.106Z</time></trkpt><trkpt lat="43.0571427" lon="11.4880173"><ele>524.0</ele><time>2026-04-25T13:15:19.106Z</time></trkpt><trkpt lat="43.0570909" lon="11.4881254"><ele>526.4</ele><time>2026-04-25T13:15:20.106Z</time></trkpt><trkpt lat="43.0570432" lon="11.488231"><ele>528.8</ele><time>2026-04-25T13:15:21.105Z</time></trkpt><trkpt lat="43.0569963" lon="11.4883352"><ele>531.2</ele><time>2026-04-25T13:15:22.105Z</time></trkpt><trkpt lat="43.056951" lon="11.488441"><ele>533.6</ele><time>2026-04-25T13:15:23.105Z</time></trkpt><trkpt lat="43.0568914" lon="11.4885485"><ele>536.0</ele><time>2026-04-25T13:15:24.106Z</time></trkpt><trkpt lat="43.0568355" lon="11.4886446"><ele>536.0</ele><time>2026-04-25T13:15:25.106Z</time></trkpt><trkpt lat="43.0567705" lon="11.4887289"><ele>536.0</ele><time>2026-04-25T13:15:26.105Z</time></trkpt><trkpt lat="43.056696" lon="11.4888042"><ele>536.0</ele><time>2026-04-25T13:15:27.106Z</time></trkpt><trkpt lat="43.0566069" lon="11.4888612"><ele>536.0</ele><time>2026-04-25T13:15:28.106Z</time></trkpt><trkpt lat="43.0565093" lon="11.4888905"><ele>536.0</ele><time>2026-04-25T13:15:29.106Z</time></trkpt><trkpt lat="43.0564087" lon="11.4889223"><ele>538.6</ele><time>2026-04-25T13:15:30.105Z</time></trkpt><trkpt lat="43.0563046" lon="11.488962"><ele>541.2</ele><time>2026-04-25T13:15:31.106Z</time></trkpt><trkpt lat="43.0562077" lon="11.4890023"><ele>543.8</ele><time>2026-04-25T13:15:32.106Z</time></trkpt><trkpt lat="43.0561103" lon="11.489041"><ele>546.4</ele><time>2026-04-25T13:15:33.106Z</time></trkpt><trkpt lat="43.0560205" lon="11.4890604"><ele>549.0</ele><time>2026-04-25T13:15:34.105Z</time></trkpt><trkpt lat="43.0559212" lon="11.4890588"><ele>549.0</ele><time>2026-04-25T13:15:35.106Z</time></trkpt><trkpt lat="43.055834" lon="11.489025"><ele>549.0</ele><time>2026-04-25T13:15:36.105Z</time></trkpt><trkpt lat="43.0557499" lon="11.4889872"><ele>549.0</ele><time>2026-04-25T13:15:37.106Z</time></trkpt><trkpt lat="43.0556653" lon="11.488957"><ele>549.0</ele><time>2026-04-25T13:15:38.106Z</time></trkpt><trkpt lat="43.0555782" lon="11.4889623"><ele>549.0</ele><time>2026-04-25T13:15:39.106Z</time></trkpt><trkpt lat="43.0554967" lon="11.4889832"><ele>549.0</ele><time>2026-04-25T13:15:40.105Z</time></trkpt><trkpt lat="43.0554198" lon="11.4889895"><ele>549.8</ele><time>2026-04-25T13:15:41.106Z</time></trkpt><trkpt lat="43.0553478" lon="11.4890001"><ele>550.5999999999999</ele><time>2026-04-25T13:15:42.106Z</time></trkpt><trkpt lat="43.0552816" lon="11.4890047"><ele>551.4</ele><time>2026-04-25T13:15:43.105Z</time></trkpt><trkpt lat="43.0551659" lon="11.4889926"><ele>552.1999999999999</ele><time>2026-04-25T13:15:45.106Z</time></trkpt><trkpt lat="43.0550706" lon="11.4890527"><ele>553.0</ele><time>2026-04-25T13:15:47.106Z</time></trkpt><trkpt lat="43.0550235" lon="11.4891738"><ele>553.4</ele><time>2026-04-25T13:15:49.106Z</time></trkpt><trkpt lat="43.0549163" lon="11.4892538"><ele>553.8</ele><time>2026-04-25T13:15:51.106Z</time></trkpt><trkpt lat="43.0548344" lon="11.4892535"><ele>554.2</ele><time>2026-04-25T13:15:52.106Z</time></trkpt><trkpt lat="43.0547445" lon="11.4892563"><ele>554.6</ele><time>2026-04-25T13:15:53.106Z</time></trkpt><trkpt lat="43.0546552" lon="11.4892724"><ele>555.0</ele><time>2026-04-25T13:15:54.106Z</time></trkpt><trkpt lat="43.0545594" lon="11.4892776"><ele>555.0</ele><time>2026-04-25T13:15:55.106Z</time></trkpt><trkpt lat="43.0544621" lon="11.4892881"><ele>555.0</ele><time>2026-04-25T13:15:56.106Z</time></trkpt><trkpt lat="43.0543662" lon="11.4893081"><ele>555.0</ele><time>2026-04-25T13:15:57.106Z</time></trkpt><trkpt lat="43.0542734" lon="11.4893296"><ele>555.0</ele><time>2026-04-25T13:15:58.106Z</time></trkpt><trkpt lat="43.0541838" lon="11.4893841"><ele>555.0</ele><time>2026-04-25T13:15:59.106Z</time></trkpt><trkpt lat="43.054123" lon="11.4894991"><ele>553.2</ele><time>2026-04-25T13:16:00.106Z</time></trkpt><trkpt lat="43.0540992" lon="11.4896361"><ele>551.4</ele><time>2026-04-25T13:16:01.106Z</time></trkpt><trkpt lat="43.0541" lon="11.4897726"><ele>549.6</ele><time>2026-04-25T13:16:02.105Z</time></trkpt><trkpt lat="43.0541275" lon="11.4899036"><ele>547.8</ele><time>2026-04-25T13:16:03.105Z</time></trkpt><trkpt lat="43.054189" lon="11.4900202"><ele>546.0</ele><time>2026-04-25T13:16:04.105Z</time></trkpt><trkpt lat="43.0542756" lon="11.490117"><ele>546.0</ele><time>2026-04-25T13:16:05.106Z</time></trkpt><trkpt lat="43.0543566" lon="11.4902127"><ele>546.0</ele><time>2026-04-25T13:16:06.106Z</time></trkpt><trkpt lat="43.0544558" lon="11.4902878"><ele>546.0</ele><time>2026-04-25T13:16:07.106Z</time></trkpt><trkpt lat="43.054557" lon="11.4903791"><ele>546.0</ele><time>2026-04-25T13:16:08.106Z</time></trkpt><trkpt lat="43.0546447" lon="11.4904921"><ele>544.0</ele><time>2026-04-25T13:16:09.106Z</time></trkpt><trkpt lat="43.0547387" lon="11.4906004"><ele>542.0</ele><time>2026-04-25T13:16:10.106Z</time></trkpt><trkpt lat="43.0548288" lon="11.490718"><ele>540.0</ele><time>2026-04-25T13:16:11.106Z</time></trkpt><trkpt lat="43.054911" lon="11.4908397"><ele>538.0</ele><time>2026-04-25T13:16:12.105Z</time></trkpt><trkpt lat="43.0549855" lon="11.4909697"><ele>537.8</ele><time>2026-04-25T13:16:13.106Z</time></trkpt><trkpt lat="43.0550489" lon="11.4911081"><ele>537.5999999999999</ele><time>2026-04-25T13:16:14.106Z</time></trkpt><trkpt lat="43.0551065" lon="11.4912387"><ele>537.4000000000001</ele><time>2026-04-25T13:16:15.106Z</time></trkpt><trkpt lat="43.0551618" lon="11.491368"><ele>537.2</ele><time>2026-04-25T13:16:16.105Z</time></trkpt><trkpt lat="43.0552154" lon="11.4914872"><ele>537.0</ele><time>2026-04-25T13:16:17.106Z</time></trkpt><trkpt lat="43.055268" lon="11.4915843"><ele>533.6666666666666</ele><time>2026-04-25T13:16:18.106Z</time></trkpt><trkpt lat="43.055319" lon="11.4916675"><ele>530.3333333333334</ele><time>2026-04-25T13:16:19.106Z</time></trkpt><trkpt lat="43.0553917" lon="11.4917825"><ele>527.0</ele><time>2026-04-25T13:16:21.105Z</time></trkpt><trkpt lat="43.0554322" lon="11.4918491"><ele>523.6666666666667</ele><time>2026-04-25T13:16:23.106Z</time></trkpt><trkpt lat="43.0554121" lon="11.4919324"><ele>520.3333333333334</ele><time>2026-04-25T13:16:25.106Z</time></trkpt><trkpt lat="43.0553466" lon="11.4919361"><ele>517.0</ele><time>2026-04-25T13:16:27.106Z</time></trkpt><trkpt lat="43.0553026" lon="11.4918441"><ele>517.0</ele><time>2026-04-25T13:16:28.105Z</time></trkpt><trkpt lat="43.0552442" lon="11.4917523"><ele>517.0</ele><time>2026-04-25T13:16:29.106Z</time></trkpt><trkpt lat="43.0551957" lon="11.4916623"><ele>517.0</ele><time>2026-04-25T13:16:30.106Z</time></trkpt><trkpt lat="43.0551383" lon="11.4915783"><ele>517.0</ele><time>2026-04-25T13:16:31.106Z</time></trkpt><trkpt lat="43.0550683" lon="11.4914815"><ele>517.0</ele><time>2026-04-25T13:16:32.106Z</time></trkpt><trkpt lat="43.0550014" lon="11.4913851"><ele>520.1666666666667</ele><time>2026-04-25T13:16:33.106Z</time></trkpt><trkpt lat="43.0549388" lon="11.4912885"><ele>523.3333333333334</ele><time>2026-04-25T13:16:34.105Z</time></trkpt><trkpt lat="43.0548791" lon="11.491193"><ele>526.5</ele><time>2026-04-25T13:16:35.106Z</time></trkpt><trkpt lat="43.0548214" lon="11.4911018"><ele>529.6666666666666</ele><time>2026-04-25T13:16:36.106Z</time></trkpt><trkpt lat="43.0547602" lon="11.4910254"><ele>532.8333333333333</ele><time>2026-04-25T13:16:37.106Z</time></trkpt><trkpt lat="43.0546984" lon="11.4909662"><ele>536.0</ele><time>2026-04-25T13:16:38.106Z</time></trkpt><trkpt lat="43.0546232" lon="11.4909439"><ele>536.0</ele><time>2026-04-25T13:16:39.105Z</time></trkpt><trkpt lat="43.0545341" lon="11.4909666"><ele>536.0</ele><time>2026-04-25T13:16:40.105Z</time></trkpt><trkpt lat="43.0544614" lon="11.4910352"><ele>536.0</ele><time>2026-04-25T13:16:41.104Z</time></trkpt><trkpt lat="43.0544023" lon="11.4911267"><ele>536.0</ele><time>2026-04-25T13:16:42.105Z</time></trkpt><trkpt lat="43.0543635" lon="11.4912461"><ele>536.0</ele><time>2026-04-25T13:16:43.105Z</time></trkpt><trkpt lat="43.0543491" lon="11.4913678"><ele>536.0</ele><time>2026-04-25T13:16:44.105Z</time></trkpt><trkpt lat="43.0543549" lon="11.4915099"><ele>536.0</ele><time>2026-04-25T13:16:45.105Z</time></trkpt><trkpt lat="43.0543755" lon="11.4916651"><ele>536.0</ele><time>2026-04-25T13:16:46.105Z</time></trkpt><trkpt lat="43.0543924" lon="11.491821"><ele>536.0</ele><time>2026-04-25T13:16:47.105Z</time></trkpt><trkpt lat="43.0544138" lon="11.4919881"><ele>533.0</ele><time>2026-04-25T13:16:48.105Z</time></trkpt><trkpt lat="43.0544298" lon="11.4921679"><ele>530.0</ele><time>2026-04-25T13:16:49.104Z</time></trkpt><trkpt lat="43.054449" lon="11.4923472"><ele>527.0</ele><time>2026-04-25T13:16:50.105Z</time></trkpt><trkpt lat="43.0544552" lon="11.4925335"><ele>524.0</ele><time>2026-04-25T13:16:51.105Z</time></trkpt><trkpt lat="43.0544408" lon="11.4927087"><ele>524.0</ele><time>2026-04-25T13:16:52.105Z</time></trkpt><trkpt lat="43.0544128" lon="11.4928805"><ele>524.0</ele><time>2026-04-25T13:16:53.105Z</time></trkpt><trkpt lat="43.0543545" lon="11.4930293"><ele>524.0</ele><time>2026-04-25T13:16:54.105Z</time></trkpt><trkpt lat="43.0542921" lon="11.4931835"><ele>524.0</ele><time>2026-04-25T13:16:55.105Z</time></trkpt><trkpt lat="43.0541996" lon="11.4933286"><ele>521.5</ele><time>2026-04-25T13:16:56.105Z</time></trkpt><trkpt lat="43.0541048" lon="11.4934501"><ele>519.0</ele><time>2026-04-25T13:16:57.105Z</time></trkpt><trkpt lat="43.0539956" lon="11.4935521"><ele>516.5</ele><time>2026-04-25T13:16:58.105Z</time></trkpt><trkpt lat="43.0538885" lon="11.4936493"><ele>514.0</ele><time>2026-04-25T13:16:59.105Z</time></trkpt><trkpt lat="43.0537828" lon="11.4937474"><ele>512.5</ele><time>2026-04-25T13:17:00.105Z</time></trkpt><trkpt lat="43.05369" lon="11.4938661"><ele>511.0</ele><time>2026-04-25T13:17:01.105Z</time></trkpt><trkpt lat="43.0536137" lon="11.4940032"><ele>509.5</ele><time>2026-04-25T13:17:02.105Z</time></trkpt><trkpt lat="43.0535564" lon="11.4941511"><ele>508.0</ele><time>2026-04-25T13:17:03.105Z</time></trkpt><trkpt lat="43.0535075" lon="11.4943143"><ele>508.0</ele><time>2026-04-25T13:17:04.104Z</time></trkpt><trkpt lat="43.0534866" lon="11.494472"><ele>508.0</ele><time>2026-04-25T13:17:05.104Z</time></trkpt><trkpt lat="43.0534797" lon="11.494636"><ele>508.0</ele><time>2026-04-25T13:17:06.104Z</time></trkpt><trkpt lat="43.0534856" lon="11.4947884"><ele>508.0</ele><time>2026-04-25T13:17:07.104Z</time></trkpt><trkpt lat="43.053496" lon="11.4949347"><ele>507.4</ele><time>2026-04-25T13:17:08.105Z</time></trkpt><trkpt lat="43.0535114" lon="11.4950809"><ele>506.79999999999995</ele><time>2026-04-25T13:17:09.105Z</time></trkpt><trkpt lat="43.0535241" lon="11.4952163"><ele>506.2</ele><time>2026-04-25T13:17:10.105Z</time></trkpt><trkpt lat="43.0535315" lon="11.4953507"><ele>505.6</ele><time>2026-04-25T13:17:11.105Z</time></trkpt><trkpt lat="43.0535412" lon="11.4954707"><ele>505.0</ele><time>2026-04-25T13:17:12.105Z</time></trkpt><trkpt lat="43.0535507" lon="11.4955857"><ele>504.8</ele><time>2026-04-25T13:17:13.104Z</time></trkpt><trkpt lat="43.0535545" lon="11.4957059"><ele>504.6</ele><time>2026-04-25T13:17:14.104Z</time></trkpt><trkpt lat="43.0535516" lon="11.4958331"><ele>504.4</ele><time>2026-04-25T13:17:15.105Z</time></trkpt><trkpt lat="43.0535487" lon="11.4959637"><ele>504.2</ele><time>2026-04-25T13:17:16.105Z</time></trkpt><trkpt lat="43.0535426" lon="11.4960945"><ele>504.0</ele><time>2026-04-25T13:17:17.105Z</time></trkpt><trkpt lat="43.0535358" lon="11.4962237"><ele>503.0</ele><time>2026-04-25T13:17:18.105Z</time></trkpt><trkpt lat="43.0535187" lon="11.4963492"><ele>502.0</ele><time>2026-04-25T13:17:19.105Z</time></trkpt><trkpt lat="43.0534996" lon="11.4964766"><ele>501.0</ele><time>2026-04-25T13:17:20.105Z</time></trkpt><trkpt lat="43.0534786" lon="11.4966093"><ele>500.0</ele><time>2026-04-25T13:17:21.105Z</time></trkpt><trkpt lat="43.0534621" lon="11.4967305"><ele>499.0</ele><time>2026-04-25T13:17:22.105Z</time></trkpt><trkpt lat="43.0534459" lon="11.4968471"><ele>499.0</ele><time>2026-04-25T13:17:23.105Z</time></trkpt><trkpt lat="43.0534298" lon="11.4969607"><ele>499.0</ele><time>2026-04-25T13:17:24.104Z</time></trkpt><trkpt lat="43.0534093" lon="11.4970776"><ele>499.0</ele><time>2026-04-25T13:17:25.105Z</time></trkpt><trkpt lat="43.0533826" lon="11.4971931"><ele>499.0</ele><time>2026-04-25T13:17:26.105Z</time></trkpt><trkpt lat="43.0533456" lon="11.4973095"><ele>499.0</ele><time>2026-04-25T13:17:27.105Z</time></trkpt><trkpt lat="43.0533024" lon="11.4974331"><ele>499.2</ele><time>2026-04-25T13:17:28.105Z</time></trkpt><trkpt lat="43.0532642" lon="11.4975499"><ele>499.4</ele><time>2026-04-25T13:17:29.105Z</time></trkpt><trkpt lat="43.0532157" lon="11.4976681"><ele>499.6</ele><time>2026-04-25T13:17:30.105Z</time></trkpt><trkpt lat="43.053169" lon="11.497783"><ele>499.8</ele><time>2026-04-25T13:17:31.104Z</time></trkpt><trkpt lat="43.0531199" lon="11.4978918"><ele>500.0</ele><time>2026-04-25T13:17:32.105Z</time></trkpt><trkpt lat="43.0530711" lon="11.4980022"><ele>500.0</ele><time>2026-04-25T13:17:33.105Z</time></trkpt><trkpt lat="43.0530168" lon="11.4981202"><ele>500.0</ele><time>2026-04-25T13:17:34.105Z</time></trkpt><trkpt lat="43.0529599" lon="11.4982382"><ele>500.0</ele><time>2026-04-25T13:17:35.105Z</time></trkpt><trkpt lat="43.0529043" lon="11.4983672"><ele>500.0</ele><time>2026-04-25T13:17:36.104Z</time></trkpt><trkpt lat="43.0528458" lon="11.4985006"><ele>500.0</ele><time>2026-04-25T13:17:37.105Z</time></trkpt><trkpt lat="43.0527867" lon="11.4986393"><ele>497.5</ele><time>2026-04-25T13:17:38.104Z</time></trkpt><trkpt lat="43.0527289" lon="11.4987828"><ele>495.0</ele><time>2026-04-25T13:17:39.105Z</time></trkpt><trkpt lat="43.0526704" lon="11.4989201"><ele>492.5</ele><time>2026-04-25T13:17:40.105Z</time></trkpt><trkpt lat="43.0526115" lon="11.4990581"><ele>490.0</ele><time>2026-04-25T13:17:41.105Z</time></trkpt><trkpt lat="43.0525485" lon="11.4992058"><ele>490.0</ele><time>2026-04-25T13:17:42.104Z</time></trkpt><trkpt lat="43.0524894" lon="11.4993473"><ele>490.0</ele><time>2026-04-25T13:17:43.105Z</time></trkpt><trkpt lat="43.0524324" lon="11.4994888"><ele>490.0</ele><time>2026-04-25T13:17:44.105Z</time></trkpt><trkpt lat="43.0523785" lon="11.4996277"><ele>490.0</ele><time>2026-04-25T13:17:45.105Z</time></trkpt><trkpt lat="43.0523248" lon="11.499767"><ele>487.8</ele><time>2026-04-25T13:17:46.104Z</time></trkpt><trkpt lat="43.0522698" lon="11.4998948"><ele>485.6</ele><time>2026-04-25T13:17:47.104Z</time></trkpt><trkpt lat="43.052214" lon="11.5000296"><ele>483.4</ele><time>2026-04-25T13:17:48.105Z</time></trkpt><trkpt lat="43.0521578" lon="11.5001543"><ele>481.2</ele><time>2026-04-25T13:17:49.105Z</time></trkpt><trkpt lat="43.0521027" lon="11.5002799"><ele>479.0</ele><time>2026-04-25T13:17:50.104Z</time></trkpt><trkpt lat="43.052054" lon="11.5003985"><ele>478.0</ele><time>2026-04-25T13:17:51.105Z</time></trkpt><trkpt lat="43.0520136" lon="11.500514"><ele>477.0</ele><time>2026-04-25T13:17:52.105Z</time></trkpt><trkpt lat="43.0519775" lon="11.5006321"><ele>476.0</ele><time>2026-04-25T13:17:53.105Z</time></trkpt><trkpt lat="43.051951" lon="11.5007485"><ele>475.0</ele><time>2026-04-25T13:17:54.105Z</time></trkpt><trkpt lat="43.0519301" lon="11.5008639"><ele>474.0</ele><time>2026-04-25T13:17:55.104Z</time></trkpt><trkpt lat="43.0519186" lon="11.5009825"><ele>474.0</ele><time>2026-04-25T13:17:56.104Z</time></trkpt><trkpt lat="43.0519172" lon="11.5011083"><ele>474.0</ele><time>2026-04-25T13:17:57.105Z</time></trkpt><trkpt lat="43.0519224" lon="11.5012356"><ele>474.0</ele><time>2026-04-25T13:17:58.104Z</time></trkpt><trkpt lat="43.0519209" lon="11.5013758"><ele>474.0</ele><time>2026-04-25T13:17:59.105Z</time></trkpt><trkpt lat="43.0519232" lon="11.5015233"><ele>474.0</ele><time>2026-04-25T13:18:00.105Z</time></trkpt><trkpt lat="43.05193" lon="11.501669"><ele>473.0</ele><time>2026-04-25T13:18:01.105Z</time></trkpt><trkpt lat="43.0519359" lon="11.501812"><ele>472.0</ele><time>2026-04-25T13:18:02.105Z</time></trkpt><trkpt lat="43.051935" lon="11.5019562"><ele>471.0</ele><time>2026-04-25T13:18:03.105Z</time></trkpt><trkpt lat="43.0519263" lon="11.502095"><ele>470.0</ele><time>2026-04-25T13:18:04.105Z</time></trkpt><trkpt lat="43.0519076" lon="11.5022236"><ele>469.0</ele><time>2026-04-25T13:18:05.104Z</time></trkpt><trkpt lat="43.0518743" lon="11.5023426"><ele>468.4</ele><time>2026-04-25T13:18:06.105Z</time></trkpt><trkpt lat="43.0518455" lon="11.502448"><ele>467.79999999999995</ele><time>2026-04-25T13:18:07.105Z</time></trkpt><trkpt lat="43.0518199" lon="11.5025343"><ele>467.20000000000005</ele><time>2026-04-25T13:18:08.105Z</time></trkpt><trkpt lat="43.0517765" lon="11.5026986"><ele>466.6</ele><time>2026-04-25T13:18:10.104Z</time></trkpt><trkpt lat="43.0517458" lon="11.502864"><ele>466.0</ele><time>2026-04-25T13:18:12.105Z</time></trkpt><trkpt lat="43.05174" lon="11.50295"><ele>465.6</ele><time>2026-04-25T13:18:13.105Z</time></trkpt><trkpt lat="43.051744" lon="11.5031"><ele>465.20000000000005</ele><time>2026-04-25T13:18:15.105Z</time></trkpt><trkpt lat="43.0517617" lon="11.5032263"><ele>464.79999999999995</ele><time>2026-04-25T13:18:17.105Z</time></trkpt><trkpt lat="43.0518023" lon="11.5033738"><ele>464.4</ele><time>2026-04-25T13:18:19.104Z</time></trkpt><trkpt lat="43.0518347" lon="11.5034539"><ele>464.0</ele><time>2026-04-25T13:18:20.105Z</time></trkpt><trkpt lat="43.0518688" lon="11.503532"><ele>463.99999999999994</ele><time>2026-04-25T13:18:21.104Z</time></trkpt><trkpt lat="43.0519052" lon="11.5036177"><ele>464.0</ele><time>2026-04-25T13:18:22.105Z</time></trkpt><trkpt lat="43.0519444" lon="11.5037049"><ele>464.0</ele><time>2026-04-25T13:18:23.105Z</time></trkpt><trkpt lat="43.0519851" lon="11.5037963"><ele>464.0</ele><time>2026-04-25T13:18:24.105Z</time></trkpt><trkpt lat="43.0520263" lon="11.5038971"><ele>463.99999999999994</ele><time>2026-04-25T13:18:25.104Z</time></trkpt><trkpt lat="43.0520639" lon="11.5040044"><ele>464.0</ele><time>2026-04-25T13:18:26.104Z</time></trkpt><trkpt lat="43.0521003" lon="11.5041028"><ele>462.66666666666663</ele><time>2026-04-25T13:18:27.105Z</time></trkpt><trkpt lat="43.052133" lon="11.5042088"><ele>461.3333333333333</ele><time>2026-04-25T13:18:28.104Z</time></trkpt><trkpt lat="43.0521778" lon="11.5043057"><ele>460.0</ele><time>2026-04-25T13:18:29.105Z</time></trkpt><trkpt lat="43.0522133" lon="11.5043999"><ele>458.66666666666663</ele><time>2026-04-25T13:18:30.105Z</time></trkpt><trkpt lat="43.0522411" lon="11.5044835"><ele>457.3333333333333</ele><time>2026-04-25T13:18:31.105Z</time></trkpt><trkpt lat="43.0522691" lon="11.5046397"><ele>456.0</ele><time>2026-04-25T13:18:33.105Z</time></trkpt><trkpt lat="43.0522794" lon="11.5047672"><ele>454.6666666666667</ele><time>2026-04-25T13:18:35.105Z</time></trkpt><trkpt lat="43.0522688" lon="11.5049245"><ele>453.33333333333337</ele><time>2026-04-25T13:18:37.104Z</time></trkpt><trkpt lat="43.0522618" lon="11.5050165"><ele>452.0</ele><time>2026-04-25T13:18:38.105Z</time></trkpt><trkpt lat="43.052251" lon="11.5051214"><ele>450.6666666666667</ele><time>2026-04-25T13:18:39.105Z</time></trkpt><trkpt lat="43.0522268" lon="11.5052336"><ele>449.33333333333337</ele><time>2026-04-25T13:18:40.104Z</time></trkpt><trkpt lat="43.0521968" lon="11.5053562"><ele>448.0</ele><time>2026-04-25T13:18:41.105Z</time></trkpt><trkpt lat="43.0521499" lon="11.5054931"><ele>448.0</ele><time>2026-04-25T13:18:42.105Z</time></trkpt><trkpt lat="43.0521009" lon="11.5056321"><ele>448.0</ele><time>2026-04-25T13:18:43.105Z</time></trkpt><trkpt lat="43.0520557" lon="11.5057688"><ele>448.0</ele><time>2026-04-25T13:18:44.105Z</time></trkpt><trkpt lat="43.0520092" lon="11.5059138"><ele>448.0</ele><time>2026-04-25T13:18:45.105Z</time></trkpt><trkpt lat="43.0519617" lon="11.5060707"><ele>448.0</ele><time>2026-04-25T13:18:46.105Z</time></trkpt><trkpt lat="43.0519115" lon="11.5062258"><ele>448.0</ele><time>2026-04-25T13:18:47.104Z</time></trkpt><trkpt lat="43.0518675" lon="11.5063835"><ele>448.0</ele><time>2026-04-25T13:18:48.105Z</time></trkpt><trkpt lat="43.0518375" lon="11.5065466"><ele>448.0</ele><time>2026-04-25T13:18:49.104Z</time></trkpt><trkpt lat="43.0518233" lon="11.5067324"><ele>449.25</ele><time>2026-04-25T13:18:50.105Z</time></trkpt><trkpt lat="43.051823" lon="11.5069231"><ele>450.5</ele><time>2026-04-25T13:18:51.105Z</time></trkpt><trkpt lat="43.0518292" lon="11.5071254"><ele>451.75</ele><time>2026-04-25T13:18:52.105Z</time></trkpt><trkpt lat="43.0518419" lon="11.507326"><ele>453.0</ele><time>2026-04-25T13:18:53.105Z</time></trkpt><trkpt lat="43.0518475" lon="11.5075289"><ele>453.5</ele><time>2026-04-25T13:18:54.104Z</time></trkpt><trkpt lat="43.0518435" lon="11.5077244"><ele>454.0</ele><time>2026-04-25T13:18:55.105Z</time></trkpt><trkpt lat="43.0518139" lon="11.5079199"><ele>454.5</ele><time>2026-04-25T13:18:56.104Z</time></trkpt><trkpt lat="43.0517539" lon="11.508107"><ele>455.0</ele><time>2026-04-25T13:18:57.105Z</time></trkpt><trkpt lat="43.0516521" lon="11.508272"><ele>454.3333333333333</ele><time>2026-04-25T13:18:58.104Z</time></trkpt><trkpt lat="43.051542" lon="11.5084421"><ele>453.66666666666663</ele><time>2026-04-25T13:18:59.104Z</time></trkpt><trkpt lat="43.0514231" lon="11.5086132"><ele>453.0</ele><time>2026-04-25T13:19:00.105Z</time></trkpt><trkpt lat="43.0513005" lon="11.5087906"><ele>448.33333333333337</ele><time>2026-04-25T13:19:01.105Z</time></trkpt><trkpt lat="43.0511724" lon="11.5089656"><ele>443.6666666666667</ele><time>2026-04-25T13:19:02.104Z</time></trkpt><trkpt lat="43.0510315" lon="11.5091306"><ele>439.0</ele><time>2026-04-25T13:19:03.105Z</time></trkpt><trkpt lat="43.0508856" lon="11.5092861"><ele>439.33333333333337</ele><time>2026-04-25T13:19:04.105Z</time></trkpt><trkpt lat="43.0507324" lon="11.5094421"><ele>439.66666666666663</ele><time>2026-04-25T13:19:05.105Z</time></trkpt><trkpt lat="43.0505826" lon="11.5095962"><ele>440.0</ele><time>2026-04-25T13:19:06.105Z</time></trkpt><trkpt lat="43.0504346" lon="11.5097481"><ele>436.66666666666663</ele><time>2026-04-25T13:19:07.105Z</time></trkpt><trkpt lat="43.0502908" lon="11.5099084"><ele>433.33333333333337</ele><time>2026-04-25T13:19:08.105Z</time></trkpt><trkpt lat="43.0501507" lon="11.5100584"><ele>430.0</ele><time>2026-04-25T13:19:09.105Z</time></trkpt><trkpt lat="43.0500106" lon="11.5102024"><ele>426.0</ele><time>2026-04-25T13:19:10.105Z</time></trkpt><trkpt lat="43.0498679" lon="11.5103441"><ele>422.0</ele><time>2026-04-25T13:19:11.104Z</time></trkpt><trkpt lat="43.0497331" lon="11.5104822"><ele>418.0</ele><time>2026-04-25T13:19:12.105Z</time></trkpt><trkpt lat="43.0496126" lon="11.510636"><ele>417.33333333333337</ele><time>2026-04-25T13:19:13.104Z</time></trkpt><trkpt lat="43.0495057" lon="11.5108123"><ele>416.66666666666663</ele><time>2026-04-25T13:19:14.105Z</time></trkpt><trkpt lat="43.0494021" lon="11.5109815"><ele>416.0</ele><time>2026-04-25T13:19:15.104Z</time></trkpt><trkpt lat="43.0493049" lon="11.5111479"><ele>415.25</ele><time>2026-04-25T13:19:16.105Z</time></trkpt><trkpt lat="43.0492315" lon="11.5113228"><ele>414.5</ele><time>2026-04-25T13:19:17.105Z</time></trkpt><trkpt lat="43.0491774" lon="11.5114995"><ele>413.75</ele><time>2026-04-25T13:19:18.105Z</time></trkpt><trkpt lat="43.0491293" lon="11.5116875"><ele>413.0</ele><time>2026-04-25T13:19:19.105Z</time></trkpt><trkpt lat="43.0490779" lon="11.5118742"><ele>411.5</ele><time>2026-04-25T13:19:20.105Z</time></trkpt><trkpt lat="43.0490296" lon="11.5120566"><ele>410.0</ele><time>2026-04-25T13:19:21.105Z</time></trkpt><trkpt lat="43.0489728" lon="11.5122396"><ele>408.5</ele><time>2026-04-25T13:19:22.105Z</time></trkpt><trkpt lat="43.0489125" lon="11.5124153"><ele>407.0</ele><time>2026-04-25T13:19:23.105Z</time></trkpt><trkpt lat="43.0488457" lon="11.5125753"><ele>407.0</ele><time>2026-04-25T13:19:24.105Z</time></trkpt><trkpt lat="43.0487863" lon="11.5127156"><ele>407.0</ele><time>2026-04-25T13:19:25.105Z</time></trkpt><trkpt lat="43.048742" lon="11.512848"><ele>407.0</ele><time>2026-04-25T13:19:26.105Z</time></trkpt><trkpt lat="43.0487247" lon="11.5129794"><ele>407.0</ele><time>2026-04-25T13:19:27.105Z</time></trkpt><trkpt lat="43.0487411" lon="11.5131289"><ele>407.0</ele><time>2026-04-25T13:19:28.105Z</time></trkpt><trkpt lat="43.0487823" lon="11.5132707"><ele>407.0</ele><time>2026-04-25T13:19:29.105Z</time></trkpt><trkpt lat="43.0488295" lon="11.5134086"><ele>407.0</ele><time>2026-04-25T13:19:30.105Z</time></trkpt><trkpt lat="43.048875" lon="11.5135484"><ele>407.0</ele><time>2026-04-25T13:19:31.105Z</time></trkpt><trkpt lat="43.0489091" lon="11.5137014"><ele>407.0</ele><time>2026-04-25T13:19:32.104Z</time></trkpt><trkpt lat="43.0489149" lon="11.5138617"><ele>406.25</ele><time>2026-04-25T13:19:33.105Z</time></trkpt><trkpt lat="43.0488883" lon="11.5140321"><ele>405.5</ele><time>2026-04-25T13:19:34.105Z</time></trkpt><trkpt lat="43.0488519" lon="11.5141963"><ele>404.75</ele><time>2026-04-25T13:19:35.105Z</time></trkpt><trkpt lat="43.0488219" lon="11.5143464"><ele>404.0</ele><time>2026-04-25T13:19:36.105Z</time></trkpt><trkpt lat="43.0487891" lon="11.5144951"><ele>403.0</ele><time>2026-04-25T13:19:37.105Z</time></trkpt><trkpt lat="43.0487569" lon="11.5146412"><ele>402.0</ele><time>2026-04-25T13:19:38.105Z</time></trkpt><trkpt lat="43.0487411" lon="11.5147913"><ele>401.0</ele><time>2026-04-25T13:19:39.105Z</time></trkpt><trkpt lat="43.0487561" lon="11.5149351"><ele>400.0</ele><time>2026-04-25T13:19:40.104Z</time></trkpt><trkpt lat="43.0487995" lon="11.5150706"><ele>399.0</ele><time>2026-04-25T13:19:41.105Z</time></trkpt><trkpt lat="43.0488786" lon="11.5151696"><ele>399.0</ele><time>2026-04-25T13:19:42.105Z</time></trkpt><trkpt lat="43.0489742" lon="11.5152331"><ele>399.0</ele><time>2026-04-25T13:19:43.105Z</time></trkpt><trkpt lat="43.0490796" lon="11.5152675"><ele>399.0</ele><time>2026-04-25T13:19:44.105Z</time></trkpt><trkpt lat="43.049199" lon="11.515297"><ele>399.0</ele><time>2026-04-25T13:19:45.104Z</time></trkpt><trkpt lat="43.0493191" lon="11.515322"><ele>399.0</ele><time>2026-04-25T13:19:46.105Z</time></trkpt><trkpt lat="43.0494295" lon="11.5153521"><ele>399.0</ele><time>2026-04-25T13:19:47.105Z</time></trkpt><trkpt lat="43.0495421" lon="11.5154058"><ele>399.0</ele><time>2026-04-25T13:19:48.104Z</time></trkpt><trkpt lat="43.0496468" lon="11.5154927"><ele>399.0</ele><time>2026-04-25T13:19:49.105Z</time></trkpt><trkpt lat="43.0497414" lon="11.5156289"><ele>397.25</ele><time>2026-04-25T13:19:50.105Z</time></trkpt><trkpt lat="43.0498101" lon="11.5158062"><ele>395.5</ele><time>2026-04-25T13:19:51.105Z</time></trkpt><trkpt lat="43.0498424" lon="11.5160029"><ele>393.75</ele><time>2026-04-25T13:19:52.105Z</time></trkpt><trkpt lat="43.0498458" lon="11.5162048"><ele>392.0</ele><time>2026-04-25T13:19:53.105Z</time></trkpt><trkpt lat="43.0498283" lon="11.516411"><ele>389.3333333333333</ele><time>2026-04-25T13:19:54.104Z</time></trkpt><trkpt lat="43.0498096" lon="11.5166159"><ele>386.66666666666663</ele><time>2026-04-25T13:19:55.104Z</time></trkpt><trkpt lat="43.0497914" lon="11.5168194"><ele>384.0</ele><time>2026-04-25T13:19:56.105Z</time></trkpt><trkpt lat="43.0497839" lon="11.5170255"><ele>382.0</ele><time>2026-04-25T13:19:57.105Z</time></trkpt><trkpt lat="43.049775" lon="11.517238"><ele>380.0</ele><time>2026-04-25T13:19:58.105Z</time></trkpt><trkpt lat="43.049777" lon="11.5174524"><ele>378.0</ele><time>2026-04-25T13:19:59.105Z</time></trkpt><trkpt lat="43.0497992" lon="11.5176607"><ele>378.0</ele><time>2026-04-25T13:20:00.104Z</time></trkpt><trkpt lat="43.0498341" lon="11.517862"><ele>378.0</ele><time>2026-04-25T13:20:01.105Z</time></trkpt><trkpt lat="43.0498736" lon="11.5180537"><ele>378.0</ele><time>2026-04-25T13:20:02.104Z</time></trkpt><trkpt lat="43.0499091" lon="11.5182435"><ele>378.0</ele><time>2026-04-25T13:20:03.105Z</time></trkpt><trkpt lat="43.0499422" lon="11.5184279"><ele>377.0</ele><time>2026-04-25T13:20:04.105Z</time></trkpt><trkpt lat="43.0499859" lon="11.5186121"><ele>376.0</ele><time>2026-04-25T13:20:05.105Z</time></trkpt><trkpt lat="43.0500418" lon="11.5187839"><ele>375.0</ele><time>2026-04-25T13:20:06.105Z</time></trkpt><trkpt lat="43.0501102" lon="11.5189383"><ele>374.0</ele><time>2026-04-25T13:20:07.105Z</time></trkpt><trkpt lat="43.0502091" lon="11.5190629"><ele>372.0</ele><time>2026-04-25T13:20:08.105Z</time></trkpt><trkpt lat="43.0503261" lon="11.5191736"><ele>370.0</ele><time>2026-04-25T13:20:09.105Z</time></trkpt><trkpt lat="43.0504514" lon="11.5192803"><ele>368.0</ele><time>2026-04-25T13:20:10.105Z</time></trkpt><trkpt lat="43.0505878" lon="11.5193752"><ele>366.0</ele><time>2026-04-25T13:20:11.105Z</time></trkpt><trkpt lat="43.050729" lon="11.5194655"><ele>367.0</ele><time>2026-04-25T13:20:12.105Z</time></trkpt><trkpt lat="43.0508687" lon="11.5195602"><ele>368.0</ele><time>2026-04-25T13:20:13.105Z</time></trkpt><trkpt lat="43.0510038" lon="11.5196592"><ele>369.0</ele><time>2026-04-25T13:20:14.105Z</time></trkpt><trkpt lat="43.0511441" lon="11.5197527"><ele>366.0</ele><time>2026-04-25T13:20:15.105Z</time></trkpt><trkpt lat="43.0512844" lon="11.5198368"><ele>363.0</ele><time>2026-04-25T13:20:16.105Z</time></trkpt><trkpt lat="43.0514278" lon="11.5199045"><ele>360.0</ele><time>2026-04-25T13:20:17.104Z</time></trkpt><trkpt lat="43.0515741" lon="11.5199684"><ele>358.0</ele><time>2026-04-25T13:20:18.104Z</time></trkpt><trkpt lat="43.0517238" lon="11.5200164"><ele>356.0</ele><time>2026-04-25T13:20:19.105Z</time></trkpt><trkpt lat="43.0518756" lon="11.5200663"><ele>354.0</ele><time>2026-04-25T13:20:20.105Z</time></trkpt><trkpt lat="43.0520273" lon="11.5201149"><ele>354.0</ele><time>2026-04-25T13:20:21.105Z</time></trkpt><trkpt lat="43.0521801" lon="11.5201657"><ele>354.0</ele><time>2026-04-25T13:20:22.104Z</time></trkpt><trkpt lat="43.0523337" lon="11.5202153"><ele>354.0</ele><time>2026-04-25T13:20:23.105Z</time></trkpt><trkpt lat="43.052485" lon="11.520265"><ele>353.3333333333333</ele><time>2026-04-25T13:20:24.105Z</time></trkpt><trkpt lat="43.0526396" lon="11.5203174"><ele>352.66666666666663</ele><time>2026-04-25T13:20:25.105Z</time></trkpt><trkpt lat="43.0527967" lon="11.5203715"><ele>352.0</ele><time>2026-04-25T13:20:26.105Z</time></trkpt><trkpt lat="43.0529587" lon="11.5204221"><ele>348.66666666666663</ele><time>2026-04-25T13:20:27.104Z</time></trkpt><trkpt lat="43.0531209" lon="11.520473"><ele>345.3333333333333</ele><time>2026-04-25T13:20:28.105Z</time></trkpt><trkpt lat="43.0532809" lon="11.520526"><ele>342.0</ele><time>2026-04-25T13:20:29.104Z</time></trkpt><trkpt lat="43.053438" lon="11.5205773"><ele>340.6666666666667</ele><time>2026-04-25T13:20:30.105Z</time></trkpt><trkpt lat="43.0535908" lon="11.5206287"><ele>339.33333333333337</ele><time>2026-04-25T13:20:31.105Z</time></trkpt><trkpt lat="43.0537409" lon="11.5206785"><ele>338.0</ele><time>2026-04-25T13:20:32.105Z</time></trkpt><trkpt lat="43.0538879" lon="11.5207283"><ele>338.0</ele><time>2026-04-25T13:20:33.105Z</time></trkpt><trkpt lat="43.0540351" lon="11.5207784"><ele>338.0</ele><time>2026-04-25T13:20:34.105Z</time></trkpt><trkpt lat="43.0541794" lon="11.5208068"><ele>338.0</ele><time>2026-04-25T13:20:35.105Z</time></trkpt><trkpt lat="43.0543276" lon="11.5207905"><ele>338.0</ele><time>2026-04-25T13:20:36.105Z</time></trkpt><trkpt lat="43.0544812" lon="11.5207235"><ele>336.6666666666667</ele><time>2026-04-25T13:20:37.105Z</time></trkpt><trkpt lat="43.0546385" lon="11.5206303"><ele>335.3333333333333</ele><time>2026-04-25T13:20:38.105Z</time></trkpt><trkpt lat="43.0547979" lon="11.5205482"><ele>334.0</ele><time>2026-04-25T13:20:39.104Z</time></trkpt><trkpt lat="43.0549551" lon="11.5204825"><ele>331.66666666666663</ele><time>2026-04-25T13:20:40.105Z</time></trkpt><trkpt lat="43.0551136" lon="11.5204398"><ele>329.3333333333333</ele><time>2026-04-25T13:20:41.104Z</time></trkpt><trkpt lat="43.0552752" lon="11.5204326"><ele>327.0</ele><time>2026-04-25T13:20:42.105Z</time></trkpt><trkpt lat="43.0554407" lon="11.5204383"><ele>327.0</ele><time>2026-04-25T13:20:43.105Z</time></trkpt><trkpt lat="43.0555972" lon="11.5204488"><ele>327.0</ele><time>2026-04-25T13:20:44.105Z</time></trkpt><trkpt lat="43.0557529" lon="11.5204487"><ele>327.0</ele><time>2026-04-25T13:20:45.105Z</time></trkpt><trkpt lat="43.0559058" lon="11.5204484"><ele>325.3333333333333</ele><time>2026-04-25T13:20:46.105Z</time></trkpt><trkpt lat="43.0560582" lon="11.5204512"><ele>323.66666666666663</ele><time>2026-04-25T13:20:47.105Z</time></trkpt><trkpt lat="43.056211" lon="11.5204644"><ele>322.0</ele><time>2026-04-25T13:20:48.104Z</time></trkpt><trkpt lat="43.0563692" lon="11.5205135"><ele>322.0</ele><time>2026-04-25T13:20:49.105Z</time></trkpt><trkpt lat="43.0565112" lon="11.5206003"><ele>322.0</ele><time>2026-04-25T13:20:50.105Z</time></trkpt><trkpt lat="43.0566441" lon="11.5207281"><ele>322.0</ele><time>2026-04-25T13:20:51.105Z</time></trkpt><trkpt lat="43.0567632" lon="11.5208954"><ele>321.3333333333333</ele><time>2026-04-25T13:20:52.105Z</time></trkpt><trkpt lat="43.0568556" lon="11.5211154"><ele>320.6666666666667</ele><time>2026-04-25T13:20:53.105Z</time></trkpt><trkpt lat="43.0569239" lon="11.5213409"><ele>320.0</ele><time>2026-04-25T13:20:54.105Z</time></trkpt><trkpt lat="43.0569763" lon="11.5215748"><ele>318.6666666666667</ele><time>2026-04-25T13:20:55.104Z</time></trkpt><trkpt lat="43.0570201" lon="11.5218063"><ele>317.3333333333333</ele><time>2026-04-25T13:20:56.104Z</time></trkpt><trkpt lat="43.0570697" lon="11.5220369"><ele>316.0</ele><time>2026-04-25T13:20:57.105Z</time></trkpt><trkpt lat="43.0571146" lon="11.5222551"><ele>315.0</ele><time>2026-04-25T13:20:58.104Z</time></trkpt><trkpt lat="43.0571598" lon="11.5224671"><ele>314.0</ele><time>2026-04-25T13:20:59.105Z</time></trkpt><trkpt lat="43.0571987" lon="11.5226639"><ele>313.0</ele><time>2026-04-25T13:21:00.105Z</time></trkpt><trkpt lat="43.0572436" lon="11.5228568"><ele>312.75</ele><time>2026-04-25T13:21:01.105Z</time></trkpt><trkpt lat="43.0573052" lon="11.5230403"><ele>312.5</ele><time>2026-04-25T13:21:02.105Z</time></trkpt><trkpt lat="43.0573992" lon="11.523187"><ele>312.25</ele><time>2026-04-25T13:21:03.105Z</time></trkpt><trkpt lat="43.0575209" lon="11.5232804"><ele>312.0</ele><time>2026-04-25T13:21:04.105Z</time></trkpt><trkpt lat="43.0576505" lon="11.5233289"><ele>312.0</ele><time>2026-04-25T13:21:05.105Z</time></trkpt><trkpt lat="43.0577885" lon="11.5233115"><ele>312.0</ele><time>2026-04-25T13:21:06.105Z</time></trkpt><trkpt lat="43.0579172" lon="11.5232305"><ele>312.0</ele><time>2026-04-25T13:21:07.105Z</time></trkpt><trkpt lat="43.0580287" lon="11.5231117"><ele>312.0</ele><time>2026-04-25T13:21:08.105Z</time></trkpt><trkpt lat="43.0581255" lon="11.5229511"><ele>312.5</ele><time>2026-04-25T13:21:09.105Z</time></trkpt><trkpt lat="43.0582054" lon="11.522791"><ele>313.0</ele><time>2026-04-25T13:21:10.105Z</time></trkpt><trkpt lat="43.0582871" lon="11.5226359"><ele>313.5</ele><time>2026-04-25T13:21:11.105Z</time></trkpt><trkpt lat="43.0583761" lon="11.5224827"><ele>314.0</ele><time>2026-04-25T13:21:12.105Z</time></trkpt><trkpt lat="43.0584637" lon="11.5223275"><ele>313.25</ele><time>2026-04-25T13:21:13.105Z</time></trkpt><trkpt lat="43.0585503" lon="11.522177"><ele>312.5</ele><time>2026-04-25T13:21:14.105Z</time></trkpt><trkpt lat="43.0586326" lon="11.5220312"><ele>311.75</ele><time>2026-04-25T13:21:15.105Z</time></trkpt><trkpt lat="43.0587115" lon="11.5218796"><ele>311.0</ele><time>2026-04-25T13:21:16.105Z</time></trkpt><trkpt lat="43.0587919" lon="11.5217249"><ele>311.0</ele><time>2026-04-25T13:21:17.105Z</time></trkpt><trkpt lat="43.0588788" lon="11.5215744"><ele>311.0</ele><time>2026-04-25T13:21:18.105Z</time></trkpt><trkpt lat="43.0589899" lon="11.5214343"><ele>311.0</ele><time>2026-04-25T13:21:19.105Z</time></trkpt><trkpt lat="43.0591098" lon="11.5213262"><ele>311.0</ele><time>2026-04-25T13:21:20.105Z</time></trkpt><trkpt lat="43.0592492" lon="11.5212863"><ele>306.6666666666667</ele><time>2026-04-25T13:21:21.105Z</time></trkpt><trkpt lat="43.0593953" lon="11.5213116"><ele>302.3333333333333</ele><time>2026-04-25T13:21:22.105Z</time></trkpt><trkpt lat="43.0595331" lon="11.5213877"><ele>298.0</ele><time>2026-04-25T13:21:23.105Z</time></trkpt><trkpt lat="43.0596763" lon="11.5215016"><ele>298.0</ele><time>2026-04-25T13:21:24.105Z</time></trkpt><trkpt lat="43.0598355" lon="11.5216243"><ele>298.0</ele><time>2026-04-25T13:21:25.105Z</time></trkpt><trkpt lat="43.0599987" lon="11.5217745"><ele>298.0</ele><time>2026-04-25T13:21:26.105Z</time></trkpt><trkpt lat="43.0601631" lon="11.5219404"><ele>294.3333333333333</ele><time>2026-04-25T13:21:27.105Z</time></trkpt><trkpt lat="43.0603293" lon="11.522103"><ele>290.6666666666667</ele><time>2026-04-25T13:21:28.105Z</time></trkpt><trkpt lat="43.0604932" lon="11.5222627"><ele>287.0</ele><time>2026-04-25T13:21:29.105Z</time></trkpt><trkpt lat="43.060665" lon="11.5224138"><ele>287.33333333333337</ele><time>2026-04-25T13:21:30.104Z</time></trkpt><trkpt lat="43.0608298" lon="11.5225781"><ele>287.6666666666667</ele><time>2026-04-25T13:21:31.104Z</time></trkpt><trkpt lat="43.0609821" lon="11.5227581"><ele>288.0</ele><time>2026-04-25T13:21:32.105Z</time></trkpt><trkpt lat="43.0611218" lon="11.5229625"><ele>286.0</ele><time>2026-04-25T13:21:33.105Z</time></trkpt><trkpt lat="43.0612472" lon="11.5231919"><ele>284.0</ele><time>2026-04-25T13:21:34.105Z</time></trkpt><trkpt lat="43.0613693" lon="11.5234357"><ele>282.0</ele><time>2026-04-25T13:21:35.104Z</time></trkpt><trkpt lat="43.0614909" lon="11.5236819"><ele>282.3333333333333</ele><time>2026-04-25T13:21:36.105Z</time></trkpt><trkpt lat="43.061614" lon="11.5239225"><ele>282.66666666666663</ele><time>2026-04-25T13:21:37.105Z</time></trkpt><trkpt lat="43.0617441" lon="11.5241549"><ele>283.0</ele><time>2026-04-25T13:21:38.104Z</time></trkpt><trkpt lat="43.0618816" lon="11.5243773"><ele>280.3333333333333</ele><time>2026-04-25T13:21:39.104Z</time></trkpt><trkpt lat="43.0620174" lon="11.5246056"><ele>277.6666666666667</ele><time>2026-04-25T13:21:40.105Z</time></trkpt><trkpt lat="43.0621182" lon="11.5248546"><ele>275.0</ele><time>2026-04-25T13:21:41.105Z</time></trkpt><trkpt lat="43.0621773" lon="11.5251361"><ele>273.6666666666667</ele><time>2026-04-25T13:21:42.105Z</time></trkpt><trkpt lat="43.062229" lon="11.5254249"><ele>272.3333333333333</ele><time>2026-04-25T13:21:43.105Z</time></trkpt><trkpt lat="43.0622831" lon="11.525706"><ele>271.0</ele><time>2026-04-25T13:21:44.104Z</time></trkpt><trkpt lat="43.0623338" lon="11.5259768"><ele>270.3333333333333</ele><time>2026-04-25T13:21:45.104Z</time></trkpt><trkpt lat="43.0624023" lon="11.5262369"><ele>269.6666666666667</ele><time>2026-04-25T13:21:46.105Z</time></trkpt><trkpt lat="43.062502" lon="11.5264772"><ele>269.0</ele><time>2026-04-25T13:21:47.105Z</time></trkpt><trkpt lat="43.0626312" lon="11.5267139"><ele>270.0</ele><time>2026-04-25T13:21:48.105Z</time></trkpt><trkpt lat="43.0627745" lon="11.5269532"><ele>271.0</ele><time>2026-04-25T13:21:49.104Z</time></trkpt><trkpt lat="43.0629225" lon="11.5271994"><ele>271.0</ele><time>2026-04-25T13:21:50.105Z</time></trkpt><trkpt lat="43.063067" lon="11.5274337"><ele>271.0</ele><time>2026-04-25T13:21:51.104Z</time></trkpt><trkpt lat="43.0632125" lon="11.5276586"><ele>271.0</ele><time>2026-04-25T13:21:52.105Z</time></trkpt><trkpt lat="43.0633447" lon="11.5278805"><ele>271.0</ele><time>2026-04-25T13:21:53.105Z</time></trkpt><trkpt lat="43.0634574" lon="11.5281193"><ele>271.0</ele><time>2026-04-25T13:21:54.105Z</time></trkpt><trkpt lat="43.0635355" lon="11.5283847"><ele>271.0</ele><time>2026-04-25T13:21:55.104Z</time></trkpt><trkpt lat="43.0635802" lon="11.5286606"><ele>270.0</ele><time>2026-04-25T13:21:56.105Z</time></trkpt><trkpt lat="43.0635986" lon="11.528928"><ele>269.0</ele><time>2026-04-25T13:21:57.105Z</time></trkpt><trkpt lat="43.0636191" lon="11.529199"><ele>268.0</ele><time>2026-04-25T13:21:58.105Z</time></trkpt><trkpt lat="43.0636643" lon="11.5294539"><ele>266.3333333333333</ele><time>2026-04-25T13:21:59.105Z</time></trkpt><trkpt lat="43.0637444" lon="11.5297243"><ele>264.6666666666667</ele><time>2026-04-25T13:22:00.105Z</time></trkpt><trkpt lat="43.0638446" lon="11.52997"><ele>263.0</ele><time>2026-04-25T13:22:01.105Z</time></trkpt><trkpt lat="43.0639469" lon="11.5302124"><ele>263.33333333333337</ele><time>2026-04-25T13:22:02.105Z</time></trkpt><trkpt lat="43.0640481" lon="11.5304375"><ele>263.6666666666667</ele><time>2026-04-25T13:22:03.105Z</time></trkpt><trkpt lat="43.0641693" lon="11.5306335"><ele>264.0</ele><time>2026-04-25T13:22:04.105Z</time></trkpt><trkpt lat="43.0643151" lon="11.5308157"><ele>264.0</ele><time>2026-04-25T13:22:05.105Z</time></trkpt><trkpt lat="43.0644826" lon="11.5309543"><ele>264.0</ele><time>2026-04-25T13:22:06.104Z</time></trkpt><trkpt lat="43.0646518" lon="11.5310605"><ele>264.0</ele><time>2026-04-25T13:22:07.104Z</time></trkpt><trkpt lat="43.0648079" lon="11.531177"><ele>262.6666666666667</ele><time>2026-04-25T13:22:08.104Z</time></trkpt><trkpt lat="43.064946" lon="11.5313197"><ele>261.33333333333337</ele><time>2026-04-25T13:22:09.105Z</time></trkpt><trkpt lat="43.065066" lon="11.5314965"><ele>260.0</ele><time>2026-04-25T13:22:10.105Z</time></trkpt><trkpt lat="43.0651412" lon="11.5317097"><ele>260.0</ele><time>2026-04-25T13:22:11.105Z</time></trkpt><trkpt lat="43.0651819" lon="11.5319489"><ele>260.0</ele><time>2026-04-25T13:22:12.105Z</time></trkpt><trkpt lat="43.0651595" lon="11.5322148"><ele>260.0</ele><time>2026-04-25T13:22:13.105Z</time></trkpt><trkpt lat="43.0651203" lon="11.5324809"><ele>258.6666666666667</ele><time>2026-04-25T13:22:14.104Z</time></trkpt><trkpt lat="43.0650812" lon="11.5327475"><ele>257.3333333333333</ele><time>2026-04-25T13:22:15.105Z</time></trkpt><trkpt lat="43.0650768" lon="11.5330173"><ele>256.0</ele><time>2026-04-25T13:22:16.104Z</time></trkpt><trkpt lat="43.0651213" lon="11.5332865"><ele>255.33333333333331</ele><time>2026-04-25T13:22:17.105Z</time></trkpt><trkpt lat="43.065199" lon="11.5335563"><ele>254.66666666666669</ele><time>2026-04-25T13:22:18.105Z</time></trkpt><trkpt lat="43.0652766" lon="11.5338224"><ele>254.0</ele><time>2026-04-25T13:22:19.105Z</time></trkpt><trkpt lat="43.0653517" lon="11.534092"><ele>252.66666666666669</ele><time>2026-04-25T13:22:20.105Z</time></trkpt><trkpt lat="43.0654238" lon="11.5343663"><ele>251.33333333333331</ele><time>2026-04-25T13:22:21.105Z</time></trkpt><trkpt lat="43.0655053" lon="11.5346453"><ele>250.0</ele><time>2026-04-25T13:22:22.104Z</time></trkpt><trkpt lat="43.0655862" lon="11.5349265"><ele>249.33333333333331</ele><time>2026-04-25T13:22:23.105Z</time></trkpt><trkpt lat="43.0656682" lon="11.5352114"><ele>248.66666666666669</ele><time>2026-04-25T13:22:24.105Z</time></trkpt><trkpt lat="43.0657445" lon="11.5354997"><ele>248.0</ele><time>2026-04-25T13:22:25.105Z</time></trkpt><trkpt lat="43.0658255" lon="11.5357907"><ele>248.0</ele><time>2026-04-25T13:22:26.105Z</time></trkpt><trkpt lat="43.0659082" lon="11.5360811"><ele>248.0</ele><time>2026-04-25T13:22:27.105Z</time></trkpt><trkpt lat="43.0659914" lon="11.5363717"><ele>246.0</ele><time>2026-04-25T13:22:28.105Z</time></trkpt><trkpt lat="43.0660715" lon="11.5366625"><ele>244.0</ele><time>2026-04-25T13:22:29.105Z</time></trkpt><trkpt lat="43.0661495" lon="11.5369491"><ele>243.5</ele><time>2026-04-25T13:22:30.105Z</time></trkpt><trkpt lat="43.0662299" lon="11.5372391"><ele>243.0</ele><time>2026-04-25T13:22:31.104Z</time></trkpt><trkpt lat="43.0663127" lon="11.5375311"><ele>243.0</ele><time>2026-04-25T13:22:32.104Z</time></trkpt><trkpt lat="43.0663978" lon="11.5378218"><ele>243.0</ele><time>2026-04-25T13:22:33.105Z</time></trkpt><trkpt lat="43.0664806" lon="11.5381135"><ele>243.0</ele><time>2026-04-25T13:22:34.105Z</time></trkpt><trkpt lat="43.066563" lon="11.5383982"><ele>243.0</ele><time>2026-04-25T13:22:35.105Z</time></trkpt><trkpt lat="43.0666459" lon="11.5386823"><ele>243.0</ele><time>2026-04-25T13:22:36.105Z</time></trkpt><trkpt lat="43.0667241" lon="11.5389651"><ele>242.66666666666669</ele><time>2026-04-25T13:22:37.105Z</time></trkpt><trkpt lat="43.0667958" lon="11.5392437"><ele>242.33333333333334</ele><time>2026-04-25T13:22:38.104Z</time></trkpt><trkpt lat="43.0668486" lon="11.5395264"><ele>242.0</ele><time>2026-04-25T13:22:39.104Z</time></trkpt><trkpt lat="43.0668592" lon="11.5398195"><ele>242.0</ele><time>2026-04-25T13:22:40.104Z</time></trkpt><trkpt lat="43.0668331" lon="11.5401051"><ele>242.0</ele><time>2026-04-25T13:22:41.105Z</time></trkpt><trkpt lat="43.066781" lon="11.5403934"><ele>242.0</ele><time>2026-04-25T13:22:42.105Z</time></trkpt><trkpt lat="43.0667044" lon="11.5406679"><ele>242.33333333333334</ele><time>2026-04-25T13:22:43.105Z</time></trkpt><trkpt lat="43.0666211" lon="11.5409406"><ele>242.66666666666669</ele><time>2026-04-25T13:22:44.105Z</time></trkpt><trkpt lat="43.0665427" lon="11.5412226"><ele>243.0</ele><time>2026-04-25T13:22:45.104Z</time></trkpt><trkpt lat="43.0664687" lon="11.5415036"><ele>241.66666666666669</ele><time>2026-04-25T13:22:46.105Z</time></trkpt><trkpt lat="43.0663977" lon="11.541789"><ele>240.33333333333334</ele><time>2026-04-25T13:22:47.104Z</time></trkpt><trkpt lat="43.0663222" lon="11.5420709"><ele>239.0</ele><time>2026-04-25T13:22:48.104Z</time></trkpt><trkpt lat="43.0662454" lon="11.542353"><ele>239.0</ele><time>2026-04-25T13:22:49.105Z</time></trkpt><trkpt lat="43.0661683" lon="11.5426345"><ele>239.0</ele><time>2026-04-25T13:22:50.105Z</time></trkpt><trkpt lat="43.0660893" lon="11.5429154"><ele>239.0</ele><time>2026-04-25T13:22:51.105Z</time></trkpt><trkpt lat="43.0660116" lon="11.5431898"><ele>239.0</ele><time>2026-04-25T13:22:52.105Z</time></trkpt><trkpt lat="43.0659442" lon="11.5434653"><ele>239.0</ele><time>2026-04-25T13:22:53.104Z</time></trkpt><trkpt lat="43.0658896" lon="11.5437435"><ele>239.0</ele><time>2026-04-25T13:22:54.105Z</time></trkpt><trkpt lat="43.06586" lon="11.5440266"><ele>239.33333333333334</ele><time>2026-04-25T13:22:55.104Z</time></trkpt><trkpt lat="43.0658775" lon="11.5443173"><ele>239.66666666666669</ele><time>2026-04-25T13:22:56.104Z</time></trkpt><trkpt lat="43.0659079" lon="11.5446042"><ele>240.0</ele><time>2026-04-25T13:22:57.105Z</time></trkpt><trkpt lat="43.0659389" lon="11.5448874"><ele>240.33333333333331</ele><time>2026-04-25T13:22:58.104Z</time></trkpt><trkpt lat="43.065965" lon="11.5451703"><ele>240.66666666666666</ele><time>2026-04-25T13:22:59.104Z</time></trkpt><trkpt lat="43.0659949" lon="11.5454471"><ele>241.0</ele><time>2026-04-25T13:23:00.104Z</time></trkpt><trkpt lat="43.0660208" lon="11.5457239"><ele>241.0</ele><time>2026-04-25T13:23:01.104Z</time></trkpt><trkpt lat="43.0660475" lon="11.5459951"><ele>241.0</ele><time>2026-04-25T13:23:02.105Z</time></trkpt><trkpt lat="43.0660747" lon="11.5462587"><ele>241.0</ele><time>2026-04-25T13:23:03.105Z</time></trkpt><trkpt lat="43.0660993" lon="11.5465085"><ele>240.66666666666666</ele><time>2026-04-25T13:23:04.105Z</time></trkpt><trkpt lat="43.066123" lon="11.5467327"><ele>240.33333333333331</ele><time>2026-04-25T13:23:05.105Z</time></trkpt><trkpt lat="43.0661467" lon="11.5469415"><ele>240.0</ele><time>2026-04-25T13:23:06.105Z</time></trkpt><trkpt lat="43.0661601" lon="11.5471276"><ele>239.8</ele><time>2026-04-25T13:23:07.105Z</time></trkpt><trkpt lat="43.0661853" lon="11.5472673"><ele>239.6</ele><time>2026-04-25T13:23:08.105Z</time></trkpt><trkpt lat="43.0662138" lon="11.5473991"><ele>239.39999999999998</ele><time>2026-04-25T13:23:09.104Z</time></trkpt><trkpt lat="43.0662476" lon="11.5475097"><ele>239.2</ele><time>2026-04-25T13:23:10.105Z</time></trkpt><trkpt lat="43.0662871" lon="11.5476167"><ele>239.0</ele><time>2026-04-25T13:23:11.104Z</time></trkpt><trkpt lat="43.0663262" lon="11.5477269"><ele>239.0</ele><time>2026-04-25T13:23:12.105Z</time></trkpt><trkpt lat="43.0663778" lon="11.5478399"><ele>238.99999999999997</ele><time>2026-04-25T13:23:13.105Z</time></trkpt><trkpt lat="43.0664372" lon="11.5479481"><ele>238.99999999999997</ele><time>2026-04-25T13:23:14.105Z</time></trkpt><trkpt lat="43.0665109" lon="11.5480581"><ele>239.0</ele><time>2026-04-25T13:23:15.105Z</time></trkpt><trkpt lat="43.066598" lon="11.5481438"><ele>239.0</ele><time>2026-04-25T13:23:16.104Z</time></trkpt><trkpt lat="43.0666943" lon="11.5482104"><ele>239.39999999999998</ele><time>2026-04-25T13:23:17.105Z</time></trkpt><trkpt lat="43.0667899" lon="11.5482517"><ele>239.79999999999998</ele><time>2026-04-25T13:23:18.104Z</time></trkpt><trkpt lat="43.0668872" lon="11.54827"><ele>240.20000000000002</ele><time>2026-04-25T13:23:19.105Z</time></trkpt><trkpt lat="43.0669913" lon="11.5482665"><ele>240.60000000000002</ele><time>2026-04-25T13:23:20.104Z</time></trkpt><trkpt lat="43.0671001" lon="11.5482626"><ele>241.0</ele><time>2026-04-25T13:23:21.104Z</time></trkpt><trkpt lat="43.0672195" lon="11.5482388"><ele>241.0</ele><time>2026-04-25T13:23:22.105Z</time></trkpt><trkpt lat="43.0673509" lon="11.548199"><ele>241.0</ele><time>2026-04-25T13:23:23.105Z</time></trkpt><trkpt lat="43.0674803" lon="11.5481739"><ele>241.0</ele><time>2026-04-25T13:23:24.105Z</time></trkpt><trkpt lat="43.0676116" lon="11.5481549"><ele>241.0</ele><time>2026-04-25T13:23:25.105Z</time></trkpt><trkpt lat="43.0677536" lon="11.5481343"><ele>240.5</ele><time>2026-04-25T13:23:26.105Z</time></trkpt><trkpt lat="43.0678982" lon="11.5481109"><ele>240.0</ele><time>2026-04-25T13:23:27.105Z</time></trkpt><trkpt lat="43.0680448" lon="11.5480861"><ele>239.5</ele><time>2026-04-25T13:23:28.105Z</time></trkpt><trkpt lat="43.0681955" lon="11.5480541"><ele>239.0</ele><time>2026-04-25T13:23:29.105Z</time></trkpt><trkpt lat="43.0683469" lon="11.5480234"><ele>239.0</ele><time>2026-04-25T13:23:30.105Z</time></trkpt><trkpt lat="43.0684949" lon="11.5479932"><ele>239.0</ele><time>2026-04-25T13:23:31.105Z</time></trkpt><trkpt lat="43.0686292" lon="11.5479595"><ele>239.0</ele><time>2026-04-25T13:23:32.104Z</time></trkpt><trkpt lat="43.0687416" lon="11.5478989"><ele>239.0</ele><time>2026-04-25T13:23:33.105Z</time></trkpt><trkpt lat="43.0688322" lon="11.5478011"><ele>243.0</ele><time>2026-04-25T13:23:34.105Z</time></trkpt><trkpt lat="43.0809649" lon="11.5480666"><ele>243.0</ele><time>2026-04-25T13:24:51.105Z</time></trkpt><trkpt lat="43.0811055" lon="11.5481332"><ele>243.0</ele><time>2026-04-25T13:24:52.105Z</time></trkpt><trkpt lat="43.0812387" lon="11.5481787"><ele>243.0</ele><time>2026-04-25T13:24:53.105Z</time></trkpt><trkpt lat="43.0813569" lon="11.5482064"><ele>243.0</ele><time>2026-04-25T13:24:54.105Z</time></trkpt><trkpt lat="43.0814601" lon="11.5482264"><ele>243.0</ele><time>2026-04-25T13:24:55.104Z</time></trkpt><trkpt lat="43.0815558" lon="11.5482337"><ele>243.0</ele><time>2026-04-25T13:24:56.105Z</time></trkpt><trkpt lat="43.0817184" lon="11.5481461"><ele>243.0</ele><time>2026-04-25T13:24:58.105Z</time></trkpt><trkpt lat="43.0817737" lon="11.5480634"><ele>243.0</ele><time>2026-04-25T13:24:59.105Z</time></trkpt><trkpt lat="43.081804" lon="11.5479723"><ele>243.0</ele><time>2026-04-25T13:25:00.105Z</time></trkpt><trkpt lat="43.081813" lon="11.5478548"><ele>244.2</ele><time>2026-04-25T13:25:01.104Z</time></trkpt><trkpt lat="43.0817994" lon="11.5477181"><ele>245.4</ele><time>2026-04-25T13:25:02.105Z</time></trkpt><trkpt lat="43.0817536" lon="11.5475738"><ele>246.59999999999997</ele><time>2026-04-25T13:25:03.104Z</time></trkpt><trkpt lat="43.0816934" lon="11.54744"><ele>247.79999999999998</ele><time>2026-04-25T13:25:04.106Z</time></trkpt><trkpt lat="43.0816267" lon="11.5473083"><ele>249.0</ele><time>2026-04-25T13:25:05.107Z</time></trkpt><trkpt lat="43.0815415" lon="11.54719"><ele>249.0</ele><time>2026-04-25T13:25:06.107Z</time></trkpt><trkpt lat="43.0814301" lon="11.5470882"><ele>249.0</ele><time>2026-04-25T13:25:07.106Z</time></trkpt><trkpt lat="43.0812959" lon="11.5470328"><ele>249.0</ele><time>2026-04-25T13:25:08.106Z</time></trkpt><trkpt lat="43.0811452" lon="11.5470075"><ele>249.0</ele><time>2026-04-25T13:25:09.107Z</time></trkpt><trkpt lat="43.0809822" lon="11.5469937"><ele>249.0</ele><time>2026-04-25T13:25:10.107Z</time></trkpt><trkpt lat="43.0808153" lon="11.546964"><ele>249.0</ele><time>2026-04-25T13:25:11.107Z</time></trkpt><trkpt lat="43.0806384" lon="11.5469324"><ele>249.0</ele><time>2026-04-25T13:25:12.107Z</time></trkpt><trkpt lat="43.0804698" lon="11.5468977"><ele>249.0</ele><time>2026-04-25T13:25:13.107Z</time></trkpt><trkpt lat="43.0803012" lon="11.5468624"><ele>249.0</ele><time>2026-04-25T13:25:14.107Z</time></trkpt><trkpt lat="43.0801267" lon="11.5468217"><ele>249.0</ele><time>2026-04-25T13:25:15.106Z</time></trkpt><trkpt lat="43.0799532" lon="11.5467723"><ele>246.5</ele><time>2026-04-25T13:25:16.107Z</time></trkpt><trkpt lat="43.0797822" lon="11.5466936"><ele>244.0</ele><time>2026-04-25T13:25:17.107Z</time></trkpt><trkpt lat="43.0794484" lon="11.5464954"><ele>244.0</ele><time>2026-04-25T13:25:19.106Z</time></trkpt><trkpt lat="43.0792792" lon="11.5463958"><ele>244.0</ele><time>2026-04-25T13:25:20.107Z</time></trkpt><trkpt lat="43.0791151" lon="11.5463022"><ele>244.0</ele><time>2026-04-25T13:25:21.107Z</time></trkpt><trkpt lat="43.0789604" lon="11.5462076"><ele>244.5</ele><time>2026-04-25T13:25:22.107Z</time></trkpt><trkpt lat="43.0788175" lon="11.5461162"><ele>245.0</ele><time>2026-04-25T13:25:23.107Z</time></trkpt><trkpt lat="43.0786898" lon="11.5460269"><ele>245.5</ele><time>2026-04-25T13:25:24.107Z</time></trkpt><trkpt lat="43.0785694" lon="11.5459785"><ele>246.0</ele><time>2026-04-25T13:25:25.107Z</time></trkpt><trkpt lat="43.0784548" lon="11.5459771"><ele>246.0</ele><time>2026-04-25T13:25:26.106Z</time></trkpt><trkpt lat="43.0783678" lon="11.5460471"><ele>246.00000000000003</ele><time>2026-04-25T13:25:27.107Z</time></trkpt><trkpt lat="43.078313" lon="11.5461427"><ele>246.00000000000003</ele><time>2026-04-25T13:25:28.107Z</time></trkpt><trkpt lat="43.0782615" lon="11.5462736"><ele>246.0</ele><time>2026-04-25T13:25:29.107Z</time></trkpt><trkpt lat="43.0781923" lon="11.5463932"><ele>246.0</ele><time>2026-04-25T13:25:30.107Z</time></trkpt><trkpt lat="43.0780742" lon="11.5464944"><ele>245.0</ele><time>2026-04-25T13:25:31.107Z</time></trkpt><trkpt lat="43.0779372" lon="11.5465246"><ele>244.0</ele><time>2026-04-25T13:25:32.107Z</time></trkpt><trkpt lat="43.0777858" lon="11.546534"><ele>243.0</ele><time>2026-04-25T13:25:33.107Z</time></trkpt><trkpt lat="43.0776139" lon="11.5465451"><ele>244.0</ele><time>2026-04-25T13:25:34.107Z</time></trkpt><trkpt lat="43.0774347" lon="11.5465723"><ele>245.0</ele><time>2026-04-25T13:25:35.106Z</time></trkpt><trkpt lat="43.0772541" lon="11.5466135"><ele>246.0</ele><time>2026-04-25T13:25:36.107Z</time></trkpt><trkpt lat="43.0770721" lon="11.5466556"><ele>246.0</ele><time>2026-04-25T13:25:37.107Z</time></trkpt><trkpt lat="43.076878" lon="11.5467021"><ele>246.0</ele><time>2026-04-25T13:25:38.107Z</time></trkpt><trkpt lat="43.0764771" lon="11.5468026"><ele>247.33333333333331</ele><time>2026-04-25T13:25:40.106Z</time></trkpt><trkpt lat="43.0762644" lon="11.5468547"><ele>248.66666666666666</ele><time>2026-04-25T13:25:41.107Z</time></trkpt><trkpt lat="43.0760546" lon="11.5468996"><ele>250.0</ele><time>2026-04-25T13:25:42.107Z</time></trkpt><trkpt lat="43.0758489" lon="11.5469519"><ele>249.0</ele><time>2026-04-25T13:25:43.107Z</time></trkpt><trkpt lat="43.0756375" lon="11.546999"><ele>248.0</ele><time>2026-04-25T13:25:44.107Z</time></trkpt><trkpt lat="43.0754245" lon="11.5470469"><ele>247.0</ele><time>2026-04-25T13:25:45.106Z</time></trkpt><trkpt lat="43.0752133" lon="11.5471024"><ele>247.0</ele><time>2026-04-25T13:25:46.107Z</time></trkpt><trkpt lat="43.0749979" lon="11.5471591"><ele>247.0</ele><time>2026-04-25T13:25:47.107Z</time></trkpt><trkpt lat="43.0747778" lon="11.5472195"><ele>247.0</ele><time>2026-04-25T13:25:48.107Z</time></trkpt><trkpt lat="43.0745591" lon="11.5472774"><ele>247.33333333333331</ele><time>2026-04-25T13:25:49.107Z</time></trkpt><trkpt lat="43.0743393" lon="11.5473278"><ele>247.66666666666669</ele><time>2026-04-25T13:25:50.107Z</time></trkpt><trkpt lat="43.074121" lon="11.5473749"><ele>248.0</ele><time>2026-04-25T13:25:51.107Z</time></trkpt><trkpt lat="43.0739014" lon="11.5474206"><ele>248.0</ele><time>2026-04-25T13:25:52.107Z</time></trkpt><trkpt lat="43.0736845" lon="11.5474499"><ele>248.0</ele><time>2026-04-25T13:25:53.107Z</time></trkpt><trkpt lat="43.0734664" lon="11.5474796"><ele>248.0</ele><time>2026-04-25T13:25:54.107Z</time></trkpt><trkpt lat="43.0732469" lon="11.547494"><ele>246.66666666666669</ele><time>2026-04-25T13:25:55.107Z</time></trkpt><trkpt lat="43.073028" lon="11.5474963"><ele>245.33333333333331</ele><time>2026-04-25T13:25:56.107Z</time></trkpt><trkpt lat="43.0728101" lon="11.5474837"><ele>244.0</ele><time>2026-04-25T13:25:57.107Z</time></trkpt><trkpt lat="43.0725897" lon="11.5474566"><ele>242.5</ele><time>2026-04-25T13:25:58.107Z</time></trkpt><trkpt lat="43.072375" lon="11.5474091"><ele>241.0</ele><time>2026-04-25T13:25:59.106Z</time></trkpt><trkpt lat="43.0719531" lon="11.5472976"><ele>241.0</ele><time>2026-04-25T13:26:01.107Z</time></trkpt><trkpt lat="43.0717445" lon="11.5472314"><ele>241.0</ele><time>2026-04-25T13:26:02.106Z</time></trkpt><trkpt lat="43.0715397" lon="11.5471688"><ele>241.0</ele><time>2026-04-25T13:26:03.107Z</time></trkpt><trkpt lat="43.0713342" lon="11.5471056"><ele>241.33333333333331</ele><time>2026-04-25T13:26:04.107Z</time></trkpt><trkpt lat="43.0711264" lon="11.5470422"><ele>241.66666666666669</ele><time>2026-04-25T13:26:05.107Z</time></trkpt><trkpt lat="43.0709161" lon="11.5469845"><ele>242.0</ele><time>2026-04-25T13:26:06.107Z</time></trkpt><trkpt lat="43.07071" lon="11.5469282"><ele>242.33333333333334</ele><time>2026-04-25T13:26:07.107Z</time></trkpt><trkpt lat="43.0704996" lon="11.5468834"><ele>242.66666666666669</ele><time>2026-04-25T13:26:08.106Z</time></trkpt><trkpt lat="43.0702904" lon="11.5468503"><ele>243.0</ele><time>2026-04-25T13:26:09.107Z</time></trkpt><trkpt lat="43.0700794" lon="11.5468259"><ele>244.33333333333331</ele><time>2026-04-25T13:26:10.107Z</time></trkpt><trkpt lat="43.069868" lon="11.5468171"><ele>245.66666666666666</ele><time>2026-04-25T13:26:11.107Z</time></trkpt><trkpt lat="43.0696536" lon="11.5468225"><ele>247.0</ele><time>2026-04-25T13:26:12.107Z</time></trkpt><trkpt lat="43.0694424" lon="11.5468402"><ele>247.0</ele><time>2026-04-25T13:26:13.106Z</time></trkpt><trkpt lat="43.0692343" lon="11.5468731"><ele>247.0</ele><time>2026-04-25T13:26:14.106Z</time></trkpt><trkpt lat="43.0690287" lon="11.5469106"><ele>247.0</ele><time>2026-04-25T13:26:15.107Z</time></trkpt><trkpt lat="43.0688233" lon="11.546965"><ele>246.66666666666666</ele><time>2026-04-25T13:26:16.107Z</time></trkpt><trkpt lat="43.068624" lon="11.5470262"><ele>246.33333333333331</ele><time>2026-04-25T13:26:17.107Z</time></trkpt><trkpt lat="43.068419" lon="11.5471069"><ele>246.0</ele><time>2026-04-25T13:26:18.107Z</time></trkpt><trkpt lat="43.0682219" lon="11.5472041"><ele>242.5</ele><time>2026-04-25T13:26:19.106Z</time></trkpt><trkpt lat="43.068024" lon="11.5473145"><ele>239.0</ele><time>2026-04-25T13:26:20.107Z</time></trkpt><trkpt lat="43.0676479" lon="11.5475883"><ele>239.0</ele><time>2026-04-25T13:26:22.107Z</time></trkpt><trkpt lat="43.0674649" lon="11.5477545"><ele>239.0</ele><time>2026-04-25T13:26:23.106Z</time></trkpt><trkpt lat="43.0672854" lon="11.5479217"><ele>239.0</ele><time>2026-04-25T13:26:24.107Z</time></trkpt><trkpt lat="43.0671123" lon="11.5481004"><ele>239.66666666666669</ele><time>2026-04-25T13:26:25.106Z</time></trkpt><trkpt lat="43.0669439" lon="11.5482888"><ele>240.33333333333331</ele><time>2026-04-25T13:26:26.107Z</time></trkpt><trkpt lat="43.0667854" lon="11.5484882"><ele>241.0</ele><time>2026-04-25T13:26:27.106Z</time></trkpt><trkpt lat="43.0666314" lon="11.5486993"><ele>240.0</ele><time>2026-04-25T13:26:28.106Z</time></trkpt><trkpt lat="43.0664889" lon="11.5489293"><ele>239.0</ele><time>2026-04-25T13:26:29.107Z</time></trkpt><trkpt lat="43.0663513" lon="11.549166"><ele>238.0</ele><time>2026-04-25T13:26:30.107Z</time></trkpt><trkpt lat="43.066221" lon="11.5494118"><ele>237.66666666666666</ele><time>2026-04-25T13:26:31.107Z</time></trkpt><trkpt lat="43.0660994" lon="11.549663"><ele>237.33333333333331</ele><time>2026-04-25T13:26:32.107Z</time></trkpt><trkpt lat="43.0659868" lon="11.5499231"><ele>237.0</ele><time>2026-04-25T13:26:33.107Z</time></trkpt><trkpt lat="43.0658878" lon="11.5501905"><ele>236.0</ele><time>2026-04-25T13:26:34.107Z</time></trkpt><trkpt lat="43.0657897" lon="11.5504695"><ele>235.0</ele><time>2026-04-25T13:26:35.107Z</time></trkpt><trkpt lat="43.0656971" lon="11.5507442"><ele>234.0</ele><time>2026-04-25T13:26:36.106Z</time></trkpt><trkpt lat="43.065602" lon="11.5510175"><ele>233.66666666666669</ele><time>2026-04-25T13:26:37.106Z</time></trkpt><trkpt lat="43.0655158" lon="11.5512966"><ele>233.33333333333334</ele><time>2026-04-25T13:26:38.106Z</time></trkpt><trkpt lat="43.0654277" lon="11.5515756"><ele>233.0</ele><time>2026-04-25T13:26:39.107Z</time></trkpt><trkpt lat="43.0653441" lon="11.5518483"><ele>234.0</ele><time>2026-04-25T13:26:40.106Z</time></trkpt><trkpt lat="43.0652581" lon="11.5521136"><ele>235.0</ele><time>2026-04-25T13:26:41.107Z</time></trkpt><trkpt lat="43.065084" lon="11.5526554"><ele>235.0</ele><time>2026-04-25T13:26:43.107Z</time></trkpt><trkpt lat="43.0649996" lon="11.5529227"><ele>235.0</ele><time>2026-04-25T13:26:44.106Z</time></trkpt><trkpt lat="43.0649171" lon="11.5531889"><ele>235.0</ele><time>2026-04-25T13:26:45.107Z</time></trkpt><trkpt lat="43.0648359" lon="11.5534573"><ele>237.0</ele><time>2026-04-25T13:26:46.107Z</time></trkpt><trkpt lat="43.0647506" lon="11.5537176"><ele>239.0</ele><time>2026-04-25T13:26:47.107Z</time></trkpt><trkpt lat="43.0646675" lon="11.5539779"><ele>241.0</ele><time>2026-04-25T13:26:48.107Z</time></trkpt><trkpt lat="43.0645844" lon="11.5542358"><ele>241.0</ele><time>2026-04-25T13:26:49.107Z</time></trkpt><trkpt lat="43.0645068" lon="11.5544926"><ele>241.0</ele><time>2026-04-25T13:26:50.107Z</time></trkpt><trkpt lat="43.0644364" lon="11.5547497"><ele>241.0</ele><time>2026-04-25T13:26:51.107Z</time></trkpt><trkpt lat="43.0643668" lon="11.5550135"><ele>244.0</ele><time>2026-04-25T13:26:52.107Z</time></trkpt><trkpt lat="43.064309" lon="11.5552781"><ele>247.0</ele><time>2026-04-25T13:26:53.107Z</time></trkpt><trkpt lat="43.0642593" lon="11.5555438"><ele>250.0</ele><time>2026-04-25T13:26:54.107Z</time></trkpt><trkpt lat="43.0642148" lon="11.555809"><ele>250.0</ele><time>2026-04-25T13:26:55.106Z</time></trkpt><trkpt lat="43.06418" lon="11.5560753"><ele>250.0</ele><time>2026-04-25T13:26:56.107Z</time></trkpt><trkpt lat="43.0641542" lon="11.5563313"><ele>250.0</ele><time>2026-04-25T13:26:57.107Z</time></trkpt><trkpt lat="43.0641352" lon="11.5565769"><ele>249.0</ele><time>2026-04-25T13:26:58.107Z</time></trkpt><trkpt lat="43.0641185" lon="11.5568057"><ele>248.0</ele><time>2026-04-25T13:26:59.107Z</time></trkpt><trkpt lat="43.0640967" lon="11.557016"><ele>247.0</ele><time>2026-04-25T13:27:00.106Z</time></trkpt><trkpt lat="43.0640796" lon="11.5572178"><ele>244.5</ele><time>2026-04-25T13:27:01.107Z</time></trkpt><trkpt lat="43.064067" lon="11.5574109"><ele>242.0</ele><time>2026-04-25T13:27:02.107Z</time></trkpt><trkpt lat="43.0639307" lon="11.5595642"><ele>245.39999999999998</ele><time>2026-04-25T13:29:28.107Z</time></trkpt><trkpt lat="43.0639162" lon="11.5596696"><ele>248.79999999999998</ele><time>2026-04-25T13:29:29.107Z</time></trkpt><trkpt lat="43.0639054" lon="11.5597979"><ele>252.2</ele><time>2026-04-25T13:29:30.107Z</time></trkpt><trkpt lat="43.0638939" lon="11.5599419"><ele>255.6</ele><time>2026-04-25T13:29:31.107Z</time></trkpt><trkpt lat="43.0638848" lon="11.5601009"><ele>259.0</ele><time>2026-04-25T13:29:32.106Z</time></trkpt><trkpt lat="43.0638759" lon="11.5602809"><ele>260.0</ele><time>2026-04-25T13:29:33.107Z</time></trkpt><trkpt lat="43.0638628" lon="11.5604718"><ele>261.0</ele><time>2026-04-25T13:29:34.107Z</time></trkpt><trkpt lat="43.0638483" lon="11.560676"><ele>262.0</ele><time>2026-04-25T13:29:35.107Z</time></trkpt><trkpt lat="43.0638373" lon="11.5608942"><ele>262.0</ele><time>2026-04-25T13:29:36.107Z</time></trkpt><trkpt lat="43.0638261" lon="11.5611129"><ele>262.0</ele><time>2026-04-25T13:29:37.107Z</time></trkpt><trkpt lat="43.0638149" lon="11.5613342"><ele>262.0</ele><time>2026-04-25T13:29:38.106Z</time></trkpt><trkpt lat="43.0638005" lon="11.5615671"><ele>259.0</ele><time>2026-04-25T13:29:39.107Z</time></trkpt><trkpt lat="43.063788" lon="11.5618067"><ele>256.0</ele><time>2026-04-25T13:29:40.107Z</time></trkpt><trkpt lat="43.063774" lon="11.5620588"><ele>253.0</ele><time>2026-04-25T13:29:41.107Z</time></trkpt><trkpt lat="43.063767" lon="11.5623156"><ele>250.66666666666666</ele><time>2026-04-25T13:29:42.107Z</time></trkpt><trkpt lat="43.0637605" lon="11.5625711"><ele>248.33333333333331</ele><time>2026-04-25T13:29:43.107Z</time></trkpt><trkpt lat="43.0637623" lon="11.5628323"><ele>246.0</ele><time>2026-04-25T13:29:44.107Z</time></trkpt><trkpt lat="43.0637731" lon="11.5630964"><ele>245.33333333333331</ele><time>2026-04-25T13:29:45.107Z</time></trkpt><trkpt lat="43.0637866" lon="11.5633631"><ele>244.66666666666666</ele><time>2026-04-25T13:29:46.107Z</time></trkpt><trkpt lat="43.06381" lon="11.5636341"><ele>244.0</ele><time>2026-04-25T13:29:47.107Z</time></trkpt><trkpt lat="43.0638455" lon="11.5639015"><ele>244.0</ele><time>2026-04-25T13:29:48.107Z</time></trkpt><trkpt lat="43.0638915" lon="11.5641646"><ele>244.0</ele><time>2026-04-25T13:29:49.107Z</time></trkpt><trkpt lat="43.0639459" lon="11.5644243"><ele>244.0</ele><time>2026-04-25T13:29:50.106Z</time></trkpt><trkpt lat="43.0640074" lon="11.5646763"><ele>244.33333333333331</ele><time>2026-04-25T13:29:51.106Z</time></trkpt><trkpt lat="43.0640734" lon="11.5649199"><ele>244.66666666666669</ele><time>2026-04-25T13:29:52.107Z</time></trkpt><trkpt lat="43.0641417" lon="11.5651552"><ele>245.0</ele><time>2026-04-25T13:29:53.107Z</time></trkpt><trkpt lat="43.0642157" lon="11.565382"><ele>247.0</ele><time>2026-04-25T13:29:54.106Z</time></trkpt><trkpt lat="43.0642967" lon="11.5655978"><ele>249.0</ele><time>2026-04-25T13:29:55.107Z</time></trkpt><trkpt lat="43.0643818" lon="11.5658144"><ele>251.0</ele><time>2026-04-25T13:29:56.107Z</time></trkpt><trkpt lat="43.0644739" lon="11.5660252"><ele>249.66666666666669</ele><time>2026-04-25T13:29:57.106Z</time></trkpt><trkpt lat="43.0645744" lon="11.5662401"><ele>248.33333333333331</ele><time>2026-04-25T13:29:58.107Z</time></trkpt><trkpt lat="43.0646858" lon="11.5664546"><ele>247.0</ele><time>2026-04-25T13:29:59.106Z</time></trkpt><trkpt lat="43.0648136" lon="11.5666628"><ele>246.33333333333331</ele><time>2026-04-25T13:30:00.107Z</time></trkpt><trkpt lat="43.0649572" lon="11.5668787"><ele>245.66666666666669</ele><time>2026-04-25T13:30:01.107Z</time></trkpt><trkpt lat="43.0651004" lon="11.5671094"><ele>245.0</ele><time>2026-04-25T13:30:02.107Z</time></trkpt><trkpt lat="43.0652542" lon="11.5673506"><ele>245.0</ele><time>2026-04-25T13:30:03.107Z</time></trkpt><trkpt lat="43.0654183" lon="11.5675865"><ele>245.0</ele><time>2026-04-25T13:30:04.106Z</time></trkpt><trkpt lat="43.0655898" lon="11.5678325"><ele>244.5</ele><time>2026-04-25T13:30:05.107Z</time></trkpt><trkpt lat="43.0657715" lon="11.5680797"><ele>244.0</ele><time>2026-04-25T13:30:06.106Z</time></trkpt><trkpt lat="43.0659515" lon="11.5683278"><ele>244.0</ele><time>2026-04-25T13:30:07.107Z</time></trkpt><trkpt lat="43.0661286" lon="11.5685855"><ele>244.0</ele><time>2026-04-25T13:30:08.106Z</time></trkpt><trkpt lat="43.0663046" lon="11.5688492"><ele>243.5</ele><time>2026-04-25T13:30:09.107Z</time></trkpt><trkpt lat="43.0664798" lon="11.5691145"><ele>243.0</ele><time>2026-04-25T13:30:10.107Z</time></trkpt><trkpt lat="43.0666537" lon="11.5693747"><ele>245.5</ele><time>2026-04-25T13:30:11.107Z</time></trkpt><trkpt lat="43.0668354" lon="11.5696349"><ele>248.0</ele><time>2026-04-25T13:30:12.107Z</time></trkpt><trkpt lat="43.0670134" lon="11.5698901"><ele>248.0</ele><time>2026-04-25T13:30:13.106Z</time></trkpt><trkpt lat="43.0671918" lon="11.5701457"><ele>248.0</ele><time>2026-04-25T13:30:14.107Z</time></trkpt><trkpt lat="43.0673635" lon="11.5704081"><ele>248.5</ele><time>2026-04-25T13:30:15.107Z</time></trkpt><trkpt lat="43.0675343" lon="11.5706672"><ele>249.0</ele><time>2026-04-25T13:30:16.107Z</time></trkpt><trkpt lat="43.0677173" lon="11.5709095"><ele>249.0</ele><time>2026-04-25T13:30:17.107Z</time></trkpt><trkpt lat="43.0679004" lon="11.5711616"><ele>249.0</ele><time>2026-04-25T13:30:18.107Z</time></trkpt><trkpt lat="43.0680787" lon="11.5714186"><ele>248.5</ele><time>2026-04-25T13:30:19.107Z</time></trkpt><trkpt lat="43.0682539" lon="11.5716805"><ele>248.0</ele><time>2026-04-25T13:30:20.106Z</time></trkpt><trkpt lat="43.0684265" lon="11.5719424"><ele>246.5</ele><time>2026-04-25T13:30:21.107Z</time></trkpt><trkpt lat="43.0685929" lon="11.5722087"><ele>245.0</ele><time>2026-04-25T13:30:22.106Z</time></trkpt><trkpt lat="43.0687557" lon="11.5724827"><ele>245.0</ele><time>2026-04-25T13:30:23.107Z</time></trkpt><trkpt lat="43.0689133" lon="11.5727531"><ele>245.0</ele><time>2026-04-25T13:30:24.107Z</time></trkpt><trkpt lat="43.0690686" lon="11.5730321"><ele>245.5</ele><time>2026-04-25T13:30:25.107Z</time></trkpt><trkpt lat="43.0692165" lon="11.5733128"><ele>246.0</ele><time>2026-04-25T13:30:26.107Z</time></trkpt><trkpt lat="43.069354" lon="11.5735982"><ele>245.0</ele><time>2026-04-25T13:30:27.107Z</time></trkpt><trkpt lat="43.0694916" lon="11.5738873"><ele>244.0</ele><time>2026-04-25T13:30:28.107Z</time></trkpt><trkpt lat="43.0696149" lon="11.5741852"><ele>244.0</ele><time>2026-04-25T13:30:29.107Z</time></trkpt><trkpt lat="43.0697267" lon="11.5744905"><ele>244.0</ele><time>2026-04-25T13:30:30.107Z</time></trkpt><trkpt lat="43.0698311" lon="11.5747993"><ele>244.5</ele><time>2026-04-25T13:30:31.107Z</time></trkpt><trkpt lat="43.0699262" lon="11.5751136"><ele>245.0</ele><time>2026-04-25T13:30:32.107Z</time></trkpt><trkpt lat="43.0700074" lon="11.5754302"><ele>246.5</ele><time>2026-04-25T13:30:33.107Z</time></trkpt><trkpt lat="43.0700735" lon="11.5757528"><ele>248.0</ele><time>2026-04-25T13:30:34.106Z</time></trkpt><trkpt lat="43.0701273" lon="11.5760741"><ele>249.0</ele><time>2026-04-25T13:30:35.107Z</time></trkpt><trkpt lat="43.0701656" lon="11.5763963"><ele>250.0</ele><time>2026-04-25T13:30:36.107Z</time></trkpt><trkpt lat="43.0701989" lon="11.5767168"><ele>253.5</ele><time>2026-04-25T13:30:37.107Z</time></trkpt><trkpt lat="43.0702133" lon="11.5770321"><ele>257.0</ele><time>2026-04-25T13:30:38.107Z</time></trkpt><trkpt lat="43.0702238" lon="11.5773455"><ele>257.0</ele><time>2026-04-25T13:30:39.107Z</time></trkpt><trkpt lat="43.0702193" lon="11.5776594"><ele>257.0</ele><time>2026-04-25T13:30:40.107Z</time></trkpt><trkpt lat="43.0701947" lon="11.577973"><ele>259.6666666666667</ele><time>2026-04-25T13:30:41.107Z</time></trkpt><trkpt lat="43.0701626" lon="11.5782782"><ele>262.3333333333333</ele><time>2026-04-25T13:30:42.107Z</time></trkpt><trkpt lat="43.0701196" lon="11.5785748"><ele>265.0</ele><time>2026-04-25T13:30:43.107Z</time></trkpt><trkpt lat="43.0700529" lon="11.5788725"><ele>268.0</ele><time>2026-04-25T13:30:44.106Z</time></trkpt><trkpt lat="43.0699865" lon="11.5791672"><ele>271.0</ele><time>2026-04-25T13:30:45.107Z</time></trkpt><trkpt lat="43.0699127" lon="11.5794545"><ele>274.0</ele><time>2026-04-25T13:30:46.107Z</time></trkpt><trkpt lat="43.0698233" lon="11.5797382"><ele>279.5</ele><time>2026-04-25T13:30:47.106Z</time></trkpt><trkpt lat="43.0697273" lon="11.5800186"><ele>285.0</ele><time>2026-04-25T13:30:48.107Z</time></trkpt><trkpt lat="43.0696161" lon="11.5802935"><ele>286.5</ele><time>2026-04-25T13:30:49.107Z</time></trkpt><trkpt lat="43.069501" lon="11.5805627"><ele>288.0</ele><time>2026-04-25T13:30:50.107Z</time></trkpt><trkpt lat="43.0693715" lon="11.580821"><ele>288.0</ele><time>2026-04-25T13:30:51.106Z</time></trkpt><trkpt lat="43.069238" lon="11.5810747"><ele>288.0</ele><time>2026-04-25T13:30:52.107Z</time></trkpt><trkpt lat="43.069092" lon="11.5813153"><ele>293.0</ele><time>2026-04-25T13:30:53.107Z</time></trkpt><trkpt lat="43.0689334" lon="11.5815452"><ele>298.0</ele><time>2026-04-25T13:30:54.107Z</time></trkpt><trkpt lat="43.0687702" lon="11.5817714"><ele>298.0</ele><time>2026-04-25T13:30:55.107Z</time></trkpt><trkpt lat="43.0686027" lon="11.581983"><ele>298.0</ele><time>2026-04-25T13:30:56.107Z</time></trkpt><trkpt lat="43.068425" lon="11.5821853"><ele>302.0</ele><time>2026-04-25T13:30:57.107Z</time></trkpt><trkpt lat="43.0682445" lon="11.5823811"><ele>306.0</ele><time>2026-04-25T13:30:58.107Z</time></trkpt><trkpt lat="43.0680608" lon="11.582566"><ele>306.0</ele><time>2026-04-25T13:30:59.107Z</time></trkpt><trkpt lat="43.0678722" lon="11.5827424"><ele>306.0</ele><time>2026-04-25T13:31:00.107Z</time></trkpt><trkpt lat="43.0676741" lon="11.5829122"><ele>307.5</ele><time>2026-04-25T13:31:01.107Z</time></trkpt><trkpt lat="43.0674782" lon="11.5830752"><ele>309.0</ele><time>2026-04-25T13:31:02.107Z</time></trkpt><trkpt lat="43.0672733" lon="11.5832179"><ele>309.0</ele><time>2026-04-25T13:31:03.107Z</time></trkpt><trkpt lat="43.0670674" lon="11.5833588"><ele>309.0</ele><time>2026-04-25T13:31:04.107Z</time></trkpt><trkpt lat="43.066859" lon="11.583492"><ele>309.0</ele><time>2026-04-25T13:31:05.107Z</time></trkpt><trkpt lat="43.0666517" lon="11.5836309"><ele>309.0</ele><time>2026-04-25T13:31:06.106Z</time></trkpt><trkpt lat="43.0664425" lon="11.5837665"><ele>308.0</ele><time>2026-04-25T13:31:07.106Z</time></trkpt><trkpt lat="43.0662319" lon="11.5838896"><ele>307.0</ele><time>2026-04-25T13:31:08.107Z</time></trkpt><trkpt lat="43.0660166" lon="11.5840107"><ele>307.0</ele><time>2026-04-25T13:31:09.106Z</time></trkpt><trkpt lat="43.0658007" lon="11.5841312"><ele>307.0</ele><time>2026-04-25T13:31:10.106Z</time></trkpt><trkpt lat="43.065588" lon="11.5842529"><ele>311.5</ele><time>2026-04-25T13:31:11.106Z</time></trkpt><trkpt lat="43.0653779" lon="11.5843707"><ele>316.0</ele><time>2026-04-25T13:31:12.107Z</time></trkpt><trkpt lat="43.0651693" lon="11.5844903"><ele>315.0</ele><time>2026-04-25T13:31:13.107Z</time></trkpt><trkpt lat="43.0649625" lon="11.5846053"><ele>314.0</ele><time>2026-04-25T13:31:14.107Z</time></trkpt><trkpt lat="43.0647564" lon="11.5847245"><ele>313.0</ele><time>2026-04-25T13:31:15.107Z</time></trkpt><trkpt lat="43.0645511" lon="11.5848417"><ele>315.3333333333333</ele><time>2026-04-25T13:31:16.107Z</time></trkpt><trkpt lat="43.0643459" lon="11.5849711"><ele>317.6666666666667</ele><time>2026-04-25T13:31:17.107Z</time></trkpt><trkpt lat="43.0641475" lon="11.5851077"><ele>320.0</ele><time>2026-04-25T13:31:18.107Z</time></trkpt><trkpt lat="43.0639548" lon="11.5852672"><ele>320.0</ele><time>2026-04-25T13:31:19.107Z</time></trkpt><trkpt lat="43.0637682" lon="11.5854454"><ele>320.0</ele><time>2026-04-25T13:31:20.107Z</time></trkpt><trkpt lat="43.0635908" lon="11.5856306"><ele>320.0</ele><time>2026-04-25T13:31:21.107Z</time></trkpt><trkpt lat="43.0634177" lon="11.5858211"><ele>320.0</ele><time>2026-04-25T13:31:22.106Z</time></trkpt><trkpt lat="43.0632476" lon="11.5860238"><ele>320.0</ele><time>2026-04-25T13:31:23.107Z</time></trkpt><trkpt lat="43.0630848" lon="11.5862381"><ele>322.33333333333337</ele><time>2026-04-25T13:31:24.107Z</time></trkpt><trkpt lat="43.0629355" lon="11.5864664"><ele>324.6666666666667</ele><time>2026-04-25T13:31:25.107Z</time></trkpt><trkpt lat="43.0627969" lon="11.5867087"><ele>327.0</ele><time>2026-04-25T13:31:26.107Z</time></trkpt><trkpt lat="43.0626681" lon="11.5869611"><ele>326.0</ele><time>2026-04-25T13:31:27.107Z</time></trkpt><trkpt lat="43.0625447" lon="11.5872206"><ele>325.0</ele><time>2026-04-25T13:31:28.107Z</time></trkpt><trkpt lat="43.0624222" lon="11.5874854"><ele>331.5</ele><time>2026-04-25T13:31:29.106Z</time></trkpt><trkpt lat="43.0623119" lon="11.5877631"><ele>338.0</ele><time>2026-04-25T13:31:30.107Z</time></trkpt><trkpt lat="43.0622122" lon="11.5880366"><ele>339.0</ele><time>2026-04-25T13:31:31.107Z</time></trkpt><trkpt lat="43.062114" lon="11.5883193"><ele>340.0</ele><time>2026-04-25T13:31:32.107Z</time></trkpt><trkpt lat="43.0620179" lon="11.5886047"><ele>341.0</ele><time>2026-04-25T13:31:33.107Z</time></trkpt><trkpt lat="43.0619249" lon="11.5888898"><ele>342.0</ele><time>2026-04-25T13:31:34.107Z</time></trkpt><trkpt lat="43.061827" lon="11.5891724"><ele>342.0</ele><time>2026-04-25T13:31:35.107Z</time></trkpt><trkpt lat="43.0617261" lon="11.5894534"><ele>342.0</ele><time>2026-04-25T13:31:36.107Z</time></trkpt><trkpt lat="43.0616163" lon="11.5897283"><ele>347.0</ele><time>2026-04-25T13:31:37.107Z</time></trkpt><trkpt lat="43.0614969" lon="11.5899989"><ele>352.0</ele><time>2026-04-25T13:31:38.107Z</time></trkpt><trkpt lat="43.0613663" lon="11.5902614"><ele>349.0</ele><time>2026-04-25T13:31:39.107Z</time></trkpt><trkpt lat="43.0612336" lon="11.5905209"><ele>346.0</ele><time>2026-04-25T13:31:40.106Z</time></trkpt><trkpt lat="43.0610973" lon="11.5907761"><ele>346.0</ele><time>2026-04-25T13:31:41.107Z</time></trkpt><trkpt lat="43.0609562" lon="11.5910314"><ele>346.0</ele><time>2026-04-25T13:31:42.107Z</time></trkpt><trkpt lat="43.0608194" lon="11.5912896"><ele>344.5</ele><time>2026-04-25T13:31:43.107Z</time></trkpt><trkpt lat="43.0606829" lon="11.5915492"><ele>343.0</ele><time>2026-04-25T13:31:44.107Z</time></trkpt><trkpt lat="43.0605557" lon="11.591811"><ele>344.5</ele><time>2026-04-25T13:31:45.107Z</time></trkpt><trkpt lat="43.0604372" lon="11.5920817"><ele>346.0</ele><time>2026-04-25T13:31:46.107Z</time></trkpt><trkpt lat="43.0603277" lon="11.5923557"><ele>346.0</ele><time>2026-04-25T13:31:47.107Z</time></trkpt><trkpt lat="43.0602227" lon="11.5926341"><ele>346.0</ele><time>2026-04-25T13:31:48.107Z</time></trkpt><trkpt lat="43.0601283" lon="11.5929175"><ele>349.5</ele><time>2026-04-25T13:31:49.107Z</time></trkpt><trkpt lat="43.0600413" lon="11.5932098"><ele>353.0</ele><time>2026-04-25T13:31:50.107Z</time></trkpt><trkpt lat="43.0599676" lon="11.5935047"><ele>361.0</ele><time>2026-04-25T13:31:51.107Z</time></trkpt><trkpt lat="43.0599102" lon="11.5938106"><ele>369.0</ele><time>2026-04-25T13:31:52.107Z</time></trkpt><trkpt lat="43.0598661" lon="11.5941129"><ele>369.0</ele><time>2026-04-25T13:31:53.107Z</time></trkpt><trkpt lat="43.0598284" lon="11.5944154"><ele>369.0</ele><time>2026-04-25T13:31:54.107Z</time></trkpt><trkpt lat="43.0598019" lon="11.5947227"><ele>373.0</ele><time>2026-04-25T13:31:55.107Z</time></trkpt><trkpt lat="43.0597797" lon="11.5950278"><ele>377.0</ele><time>2026-04-25T13:31:56.107Z</time></trkpt><trkpt lat="43.0597726" lon="11.5953394"><ele>378.5</ele><time>2026-04-25T13:31:57.106Z</time></trkpt><trkpt lat="43.0597715" lon="11.5956548"><ele>380.0</ele><time>2026-04-25T13:31:58.106Z</time></trkpt><trkpt lat="43.0597762" lon="11.5959749"><ele>381.5</ele><time>2026-04-25T13:31:59.107Z</time></trkpt><trkpt lat="43.0597787" lon="11.5962864"><ele>383.0</ele><time>2026-04-25T13:32:00.107Z</time></trkpt><trkpt lat="43.0597806" lon="11.5965962"><ele>383.0</ele><time>2026-04-25T13:32:01.107Z</time></trkpt><trkpt lat="43.0597861" lon="11.5969003"><ele>383.0</ele><time>2026-04-25T13:32:02.106Z</time></trkpt><trkpt lat="43.0598008" lon="11.5971979"><ele>383.0</ele><time>2026-04-25T13:32:03.107Z</time></trkpt><trkpt lat="43.0598281" lon="11.5974924"><ele>382.33333333333337</ele><time>2026-04-25T13:32:04.106Z</time></trkpt><trkpt lat="43.0598585" lon="11.5977746"><ele>381.6666666666667</ele><time>2026-04-25T13:32:05.107Z</time></trkpt><trkpt lat="43.0599055" lon="11.5980602"><ele>381.0</ele><time>2026-04-25T13:32:06.106Z</time></trkpt><trkpt lat="43.0599601" lon="11.5983407"><ele>376.3333333333333</ele><time>2026-04-25T13:32:07.107Z</time></trkpt><trkpt lat="43.0600258" lon="11.598619"><ele>371.66666666666663</ele><time>2026-04-25T13:32:08.106Z</time></trkpt><trkpt lat="43.0600985" lon="11.5988937"><ele>367.0</ele><time>2026-04-25T13:32:09.107Z</time></trkpt><trkpt lat="43.0601823" lon="11.5991656"><ele>367.0</ele><time>2026-04-25T13:32:10.107Z</time></trkpt><trkpt lat="43.0602778" lon="11.5994359"><ele>367.0</ele><time>2026-04-25T13:32:11.107Z</time></trkpt><trkpt lat="43.06038" lon="11.5996935"><ele>367.0</ele><time>2026-04-25T13:32:12.107Z</time></trkpt><trkpt lat="43.060488" lon="11.5999501"><ele>370.3333333333333</ele><time>2026-04-25T13:32:13.107Z</time></trkpt><trkpt lat="43.0606015" lon="11.6001998"><ele>373.6666666666667</ele><time>2026-04-25T13:32:14.107Z</time></trkpt><trkpt lat="43.0607168" lon="11.6004464"><ele>377.0</ele><time>2026-04-25T13:32:15.107Z</time></trkpt><trkpt lat="43.0608295" lon="11.6006904"><ele>379.33333333333337</ele><time>2026-04-25T13:32:16.106Z</time></trkpt><trkpt lat="43.0609452" lon="11.6009256"><ele>381.6666666666667</ele><time>2026-04-25T13:32:17.107Z</time></trkpt><trkpt lat="43.0610497" lon="11.6011449"><ele>384.0</ele><time>2026-04-25T13:32:18.106Z</time></trkpt><trkpt lat="43.0611401" lon="11.6013512"><ele>387.0</ele><time>2026-04-25T13:32:19.106Z</time></trkpt><trkpt lat="43.0612248" lon="11.6015545"><ele>390.0</ele><time>2026-04-25T13:32:20.107Z</time></trkpt><trkpt lat="43.0612911" lon="11.601761"><ele>393.0</ele><time>2026-04-25T13:32:21.107Z</time></trkpt><trkpt lat="43.0613446" lon="11.6019608"><ele>395.66666666666663</ele><time>2026-04-25T13:32:22.107Z</time></trkpt><trkpt lat="43.06138" lon="11.6021684"><ele>398.3333333333333</ele><time>2026-04-25T13:32:23.107Z</time></trkpt><trkpt lat="43.0614086" lon="11.6023812"><ele>401.0</ele><time>2026-04-25T13:32:24.107Z</time></trkpt><trkpt lat="43.0614302" lon="11.6025895"><ele>401.0</ele><time>2026-04-25T13:32:25.106Z</time></trkpt><trkpt lat="43.0614497" lon="11.602783"><ele>401.0</ele><time>2026-04-25T13:32:26.107Z</time></trkpt><trkpt lat="43.061466" lon="11.6029497"><ele>401.0</ele><time>2026-04-25T13:32:27.107Z</time></trkpt><trkpt lat="43.0614644" lon="11.603088"><ele>401.0</ele><time>2026-04-25T13:32:28.107Z</time></trkpt><trkpt lat="43.0614417" lon="11.6032074"><ele>402.16666666666663</ele><time>2026-04-25T13:32:29.107Z</time></trkpt><trkpt lat="43.0613925" lon="11.6033084"><ele>403.3333333333333</ele><time>2026-04-25T13:32:30.107Z</time></trkpt><trkpt lat="43.0613222" lon="11.6033578"><ele>404.5</ele><time>2026-04-25T13:32:31.107Z</time></trkpt><trkpt lat="43.0612429" lon="11.6033675"><ele>405.66666666666663</ele><time>2026-04-25T13:32:32.107Z</time></trkpt><trkpt lat="43.0611786" lon="11.603332"><ele>406.8333333333333</ele><time>2026-04-25T13:32:33.107Z</time></trkpt><trkpt lat="43.0611221" lon="11.6032753"><ele>408.0</ele><time>2026-04-25T13:32:34.106Z</time></trkpt><trkpt lat="43.061082" lon="11.6031947"><ele>408.0</ele><time>2026-04-25T13:32:35.106Z</time></trkpt><trkpt lat="43.0610735" lon="11.6031034"><ele>408.0</ele><time>2026-04-25T13:32:36.107Z</time></trkpt><trkpt lat="43.0610942" lon="11.6030063"><ele>408.0</ele><time>2026-04-25T13:32:37.107Z</time></trkpt><trkpt lat="43.0611171" lon="11.6029238"><ele>408.0</ele><time>2026-04-25T13:32:38.107Z</time></trkpt><trkpt lat="43.061149" lon="11.6028357"><ele>408.0</ele><time>2026-04-25T13:32:39.107Z</time></trkpt><trkpt lat="43.0611827" lon="11.6027459"><ele>408.0</ele><time>2026-04-25T13:32:40.107Z</time></trkpt><trkpt lat="43.0612128" lon="11.6026557"><ele>408.0</ele><time>2026-04-25T13:32:41.107Z</time></trkpt><trkpt lat="43.0612394" lon="11.6025599"><ele>406.8333333333333</ele><time>2026-04-25T13:32:42.107Z</time></trkpt><trkpt lat="43.0612515" lon="11.6024673"><ele>405.66666666666663</ele><time>2026-04-25T13:32:43.106Z</time></trkpt><trkpt lat="43.0612365" lon="11.6023817"><ele>404.5</ele><time>2026-04-25T13:32:44.107Z</time></trkpt><trkpt lat="43.0611712" lon="11.6022664"><ele>403.3333333333333</ele><time>2026-04-25T13:32:46.107Z</time></trkpt><trkpt lat="43.0610816" lon="11.6022069"><ele>402.16666666666663</ele><time>2026-04-25T13:32:48.107Z</time></trkpt><trkpt lat="43.0610018" lon="11.6021829"><ele>401.0</ele><time>2026-04-25T13:32:50.107Z</time></trkpt><trkpt lat="43.0609322" lon="11.6022077"><ele>400.99999999999994</ele><time>2026-04-25T13:32:52.107Z</time></trkpt><trkpt lat="43.0608872" lon="11.602275"><ele>401.0</ele><time>2026-04-25T13:33:11.107Z</time></trkpt><trkpt lat="43.0608604" lon="11.6023968"><ele>401.0</ele><time>2026-04-25T13:33:13.107Z</time></trkpt><trkpt lat="43.0608673" lon="11.6025047"><ele>401.0</ele><time>2026-04-25T13:33:14.107Z</time></trkpt><trkpt lat="43.0608766" lon="11.6026164"><ele>400.99999999999994</ele><time>2026-04-25T13:33:15.107Z</time></trkpt><trkpt lat="43.0608891" lon="11.602738"><ele>401.0</ele><time>2026-04-25T13:33:16.107Z</time></trkpt><trkpt lat="43.0609053" lon="11.6028811"><ele>402.75</ele><time>2026-04-25T13:33:17.107Z</time></trkpt><trkpt lat="43.0609243" lon="11.603036"><ele>404.5</ele><time>2026-04-25T13:33:18.107Z</time></trkpt><trkpt lat="43.0609361" lon="11.6031985"><ele>406.25</ele><time>2026-04-25T13:33:19.106Z</time></trkpt><trkpt lat="43.0609383" lon="11.6033672"><ele>408.0</ele><time>2026-04-25T13:33:20.107Z</time></trkpt><trkpt lat="43.0609355" lon="11.6035427"><ele>408.25</ele><time>2026-04-25T13:33:21.107Z</time></trkpt><trkpt lat="43.0609315" lon="11.6037209"><ele>408.5</ele><time>2026-04-25T13:33:22.107Z</time></trkpt><trkpt lat="43.0609284" lon="11.6038966"><ele>408.75</ele><time>2026-04-25T13:33:23.106Z</time></trkpt><trkpt lat="43.0609243" lon="11.604067"><ele>409.0</ele><time>2026-04-25T13:33:24.107Z</time></trkpt><trkpt lat="43.0609233" lon="11.6042481"><ele>409.0</ele><time>2026-04-25T13:33:25.106Z</time></trkpt><trkpt lat="43.0609312" lon="11.6044383"><ele>409.0</ele><time>2026-04-25T13:33:26.107Z</time></trkpt><trkpt lat="43.0609398" lon="11.6046303"><ele>409.0</ele><time>2026-04-25T13:33:27.106Z</time></trkpt><trkpt lat="43.0609528" lon="11.6048247"><ele>409.0</ele><time>2026-04-25T13:33:28.106Z</time></trkpt><trkpt lat="43.060964" lon="11.6050137"><ele>409.0</ele><time>2026-04-25T13:33:29.107Z</time></trkpt><trkpt lat="43.0609632" lon="11.6052018"><ele>409.0</ele><time>2026-04-25T13:33:30.107Z</time></trkpt><trkpt lat="43.0609368" lon="11.6053713"><ele>409.0</ele><time>2026-04-25T13:33:31.107Z</time></trkpt><trkpt lat="43.0608983" lon="11.6055183"><ele>409.0</ele><time>2026-04-25T13:33:32.107Z</time></trkpt><trkpt lat="43.0608452" lon="11.6056363"><ele>408.1666666666667</ele><time>2026-04-25T13:33:33.107Z</time></trkpt><trkpt lat="43.0608024" lon="11.6057462"><ele>407.33333333333337</ele><time>2026-04-25T13:33:34.107Z</time></trkpt><trkpt lat="43.060763" lon="11.6058329"><ele>406.5</ele><time>2026-04-25T13:33:35.107Z</time></trkpt><trkpt lat="43.0607378" lon="11.6059208"><ele>405.66666666666663</ele><time>2026-04-25T13:33:36.107Z</time></trkpt><trkpt lat="43.0607423" lon="11.6060152"><ele>404.8333333333333</ele><time>2026-04-25T13:33:37.107Z</time></trkpt><trkpt lat="43.0607737" lon="11.6061273"><ele>404.0</ele><time>2026-04-25T13:33:38.106Z</time></trkpt><trkpt lat="43.0608256" lon="11.6062541"><ele>403.25</ele><time>2026-04-25T13:33:39.107Z</time></trkpt><trkpt lat="43.0608869" lon="11.6063883"><ele>402.5</ele><time>2026-04-25T13:33:40.107Z</time></trkpt><trkpt lat="43.0609455" lon="11.6065411"><ele>401.75</ele><time>2026-04-25T13:33:41.107Z</time></trkpt><trkpt lat="43.0610073" lon="11.6067009"><ele>401.0</ele><time>2026-04-25T13:33:42.107Z</time></trkpt><trkpt lat="43.061077" lon="11.6068638"><ele>400.0</ele><time>2026-04-25T13:33:43.107Z</time></trkpt><trkpt lat="43.0611585" lon="11.6070409"><ele>399.0</ele><time>2026-04-25T13:33:44.107Z</time></trkpt><trkpt lat="43.0612529" lon="11.6072271"><ele>398.0</ele><time>2026-04-25T13:33:45.107Z</time></trkpt><trkpt lat="43.0613579" lon="11.6074128"><ele>398.0</ele><time>2026-04-25T13:33:46.107Z</time></trkpt><trkpt lat="43.0614687" lon="11.6076"><ele>398.0</ele><time>2026-04-25T13:33:47.107Z</time></trkpt><trkpt lat="43.0615812" lon="11.6077888"><ele>398.0</ele><time>2026-04-25T13:33:48.107Z</time></trkpt><trkpt lat="43.0616977" lon="11.6079719"><ele>400.3333333333333</ele><time>2026-04-25T13:33:49.107Z</time></trkpt><trkpt lat="43.061824" lon="11.6081488"><ele>402.66666666666663</ele><time>2026-04-25T13:33:50.107Z</time></trkpt><trkpt lat="43.0619521" lon="11.6083197"><ele>405.0</ele><time>2026-04-25T13:33:51.106Z</time></trkpt><trkpt lat="43.0620845" lon="11.6084876"><ele>405.33333333333337</ele><time>2026-04-25T13:33:52.106Z</time></trkpt><trkpt lat="43.0622138" lon="11.6086635"><ele>405.6666666666667</ele><time>2026-04-25T13:33:53.107Z</time></trkpt><trkpt lat="43.0623465" lon="11.6088299"><ele>406.0</ele><time>2026-04-25T13:33:54.107Z</time></trkpt><trkpt lat="43.0624709" lon="11.6090073"><ele>408.6666666666667</ele><time>2026-04-25T13:33:55.106Z</time></trkpt><trkpt lat="43.0625946" lon="11.6091698"><ele>411.33333333333337</ele><time>2026-04-25T13:33:56.107Z</time></trkpt><trkpt lat="43.0627205" lon="11.6093247"><ele>414.0</ele><time>2026-04-25T13:33:57.107Z</time></trkpt><trkpt lat="43.0628424" lon="11.6094738"><ele>413.33333333333337</ele><time>2026-04-25T13:33:58.107Z</time></trkpt><trkpt lat="43.0629737" lon="11.6096054"><ele>412.6666666666667</ele><time>2026-04-25T13:33:59.107Z</time></trkpt><trkpt lat="43.0631146" lon="11.6097255"><ele>412.0</ele><time>2026-04-25T13:34:00.106Z</time></trkpt><trkpt lat="43.063263" lon="11.6098334"><ele>413.0</ele><time>2026-04-25T13:34:01.107Z</time></trkpt><trkpt lat="43.0634194" lon="11.60994"><ele>414.0</ele><time>2026-04-25T13:34:02.107Z</time></trkpt><trkpt lat="43.0635765" lon="11.6100481"><ele>415.0</ele><time>2026-04-25T13:34:03.107Z</time></trkpt><trkpt lat="43.063735" lon="11.610158"><ele>415.0</ele><time>2026-04-25T13:34:04.107Z</time></trkpt><trkpt lat="43.0639065" lon="11.6102666"><ele>415.0</ele><time>2026-04-25T13:34:05.107Z</time></trkpt><trkpt lat="43.0640878" lon="11.6103852"><ele>415.0</ele><time>2026-04-25T13:34:06.107Z</time></trkpt><trkpt lat="43.0642617" lon="11.6105045"><ele>410.0</ele><time>2026-04-25T13:34:07.107Z</time></trkpt><trkpt lat="43.064436" lon="11.6106245"><ele>405.0</ele><time>2026-04-25T13:34:08.107Z</time></trkpt><trkpt lat="43.0646065" lon="11.6107639"><ele>400.0</ele><time>2026-04-25T13:34:09.107Z</time></trkpt><trkpt lat="43.064767" lon="11.6109179"><ele>400.0</ele><time>2026-04-25T13:34:10.107Z</time></trkpt><trkpt lat="43.0649007" lon="11.6110932"><ele>400.0</ele><time>2026-04-25T13:34:11.107Z</time></trkpt><trkpt lat="43.065011" lon="11.6112673"><ele>400.0</ele><time>2026-04-25T13:34:12.106Z</time></trkpt><trkpt lat="43.0650982" lon="11.6114339"><ele>399.75</ele><time>2026-04-25T13:34:13.107Z</time></trkpt><trkpt lat="43.0651726" lon="11.6115968"><ele>399.5</ele><time>2026-04-25T13:34:14.106Z</time></trkpt><trkpt lat="43.0652399" lon="11.6117555"><ele>399.25</ele><time>2026-04-25T13:34:15.107Z</time></trkpt><trkpt lat="43.065293" lon="11.6118952"><ele>399.0</ele><time>2026-04-25T13:34:16.106Z</time></trkpt><trkpt lat="43.065334" lon="11.6120087"><ele>399.0</ele><time>2026-04-25T13:34:17.107Z</time></trkpt><trkpt lat="43.0653654" lon="11.612089"><ele>399.0</ele><time>2026-04-25T13:34:18.107Z</time></trkpt><trkpt lat="43.0654098" lon="11.612229"><ele>399.0</ele><time>2026-04-25T13:34:20.106Z</time></trkpt><trkpt lat="43.0654463" lon="11.612364"><ele>399.0</ele><time>2026-04-25T13:34:22.105Z</time></trkpt><trkpt lat="43.065478" lon="11.6124394"><ele>399.0</ele><time>2026-04-25T13:34:23.106Z</time></trkpt><trkpt lat="43.0655132" lon="11.6125199"><ele>399.0</ele><time>2026-04-25T13:34:24.106Z</time></trkpt><trkpt lat="43.0655572" lon="11.6126123"><ele>399.0</ele><time>2026-04-25T13:34:25.107Z</time></trkpt><trkpt lat="43.0656046" lon="11.6127278"><ele>399.0</ele><time>2026-04-25T13:34:26.107Z</time></trkpt><trkpt lat="43.0656593" lon="11.6128533"><ele>399.0</ele><time>2026-04-25T13:34:27.107Z</time></trkpt><trkpt lat="43.0657092" lon="11.6129979"><ele>399.0</ele><time>2026-04-25T13:34:28.107Z</time></trkpt><trkpt lat="43.0657683" lon="11.6131547"><ele>399.0</ele><time>2026-04-25T13:34:29.106Z</time></trkpt><trkpt lat="43.0658276" lon="11.6133177"><ele>399.33333333333337</ele><time>2026-04-25T13:34:30.107Z</time></trkpt><trkpt lat="43.0658942" lon="11.6134907"><ele>399.6666666666667</ele><time>2026-04-25T13:34:31.107Z</time></trkpt><trkpt lat="43.0659685" lon="11.6136729"><ele>400.0</ele><time>2026-04-25T13:34:32.107Z</time></trkpt><trkpt lat="43.0660657" lon="11.613863"><ele>400.0</ele><time>2026-04-25T13:34:33.107Z</time></trkpt><trkpt lat="43.0661748" lon="11.6140374"><ele>400.0</ele><time>2026-04-25T13:34:34.107Z</time></trkpt><trkpt lat="43.0663017" lon="11.6141875"><ele>400.0</ele><time>2026-04-25T13:34:35.107Z</time></trkpt><trkpt lat="43.0664436" lon="11.6143247"><ele>400.0</ele><time>2026-04-25T13:34:36.107Z</time></trkpt><trkpt lat="43.0665991" lon="11.6144441"><ele>400.0</ele><time>2026-04-25T13:34:37.107Z</time></trkpt><trkpt lat="43.0667637" lon="11.6145328"><ele>400.0</ele><time>2026-04-25T13:34:38.106Z</time></trkpt><trkpt lat="43.0669399" lon="11.6145954"><ele>399.0</ele><time>2026-04-25T13:34:39.107Z</time></trkpt><trkpt lat="43.0671216" lon="11.614655"><ele>398.0</ele><time>2026-04-25T13:34:40.107Z</time></trkpt><trkpt lat="43.0673063" lon="11.6147161"><ele>397.0</ele><time>2026-04-25T13:34:41.107Z</time></trkpt><trkpt lat="43.0674896" lon="11.6147886"><ele>396.6666666666667</ele><time>2026-04-25T13:34:42.107Z</time></trkpt><trkpt lat="43.0676756" lon="11.6148591"><ele>396.33333333333337</ele><time>2026-04-25T13:34:43.106Z</time></trkpt><trkpt lat="43.0678585" lon="11.6149279"><ele>396.0</ele><time>2026-04-25T13:34:44.107Z</time></trkpt><trkpt lat="43.0680363" lon="11.6149932"><ele>396.0</ele><time>2026-04-25T13:34:45.106Z</time></trkpt><trkpt lat="43.0682126" lon="11.6150547"><ele>396.0</ele><time>2026-04-25T13:34:46.107Z</time></trkpt><trkpt lat="43.0683839" lon="11.6151157"><ele>396.0</ele><time>2026-04-25T13:34:47.107Z</time></trkpt><trkpt lat="43.0685484" lon="11.6151786"><ele>395.0</ele><time>2026-04-25T13:34:48.107Z</time></trkpt><trkpt lat="43.0687065" lon="11.6152439"><ele>394.0</ele><time>2026-04-25T13:34:49.106Z</time></trkpt><trkpt lat="43.0688656" lon="11.6153097"><ele>393.0</ele><time>2026-04-25T13:34:50.107Z</time></trkpt><trkpt lat="43.0690164" lon="11.6153855"><ele>390.0</ele><time>2026-04-25T13:34:51.107Z</time></trkpt><trkpt lat="43.0691596" lon="11.6154774"><ele>387.0</ele><time>2026-04-25T13:34:52.107Z</time></trkpt><trkpt lat="43.0692921" lon="11.6155843"><ele>384.0</ele><time>2026-04-25T13:34:53.106Z</time></trkpt><trkpt lat="43.0694086" lon="11.6157115"><ele>384.0</ele><time>2026-04-25T13:34:54.107Z</time></trkpt><trkpt lat="43.0695175" lon="11.615852"><ele>384.0</ele><time>2026-04-25T13:34:55.107Z</time></trkpt><trkpt lat="43.0696131" lon="11.6160028"><ele>384.0</ele><time>2026-04-25T13:34:56.107Z</time></trkpt><trkpt lat="43.0696915" lon="11.616166"><ele>384.0</ele><time>2026-04-25T13:34:57.107Z</time></trkpt><trkpt lat="43.0697614" lon="11.6163337"><ele>383.0</ele><time>2026-04-25T13:34:58.107Z</time></trkpt><trkpt lat="43.069825" lon="11.6165139"><ele>382.0</ele><time>2026-04-25T13:34:59.107Z</time></trkpt><trkpt lat="43.0698777" lon="11.6166956"><ele>381.0</ele><time>2026-04-25T13:35:00.107Z</time></trkpt><trkpt lat="43.069928" lon="11.6168757"><ele>380.0</ele><time>2026-04-25T13:35:01.107Z</time></trkpt><trkpt lat="43.0699775" lon="11.6170535"><ele>379.75</ele><time>2026-04-25T13:35:02.106Z</time></trkpt><trkpt lat="43.0700305" lon="11.6172255"><ele>379.5</ele><time>2026-04-25T13:35:03.106Z</time></trkpt><trkpt lat="43.0700865" lon="11.6173895"><ele>379.25</ele><time>2026-04-25T13:35:04.107Z</time></trkpt><trkpt lat="43.0701462" lon="11.6175505"><ele>379.0</ele><time>2026-04-25T13:35:05.107Z</time></trkpt><trkpt lat="43.0702149" lon="11.6177042"><ele>378.75</ele><time>2026-04-25T13:35:06.107Z</time></trkpt><trkpt lat="43.0702935" lon="11.6178554"><ele>378.5</ele><time>2026-04-25T13:35:07.107Z</time></trkpt><trkpt lat="43.070385" lon="11.6179918"><ele>378.25</ele><time>2026-04-25T13:35:08.106Z</time></trkpt><trkpt lat="43.0704896" lon="11.6181118"><ele>378.0</ele><time>2026-04-25T13:35:09.107Z</time></trkpt><trkpt lat="43.070606" lon="11.6182205"><ele>378.0</ele><time>2026-04-25T13:35:10.107Z</time></trkpt><trkpt lat="43.0707302" lon="11.6183294"><ele>378.0</ele><time>2026-04-25T13:35:11.107Z</time></trkpt><trkpt lat="43.0708621" lon="11.6184301"><ele>378.0</ele><time>2026-04-25T13:35:12.107Z</time></trkpt><trkpt lat="43.0710069" lon="11.6185238"><ele>376.0</ele><time>2026-04-25T13:35:13.107Z</time></trkpt><trkpt lat="43.0711531" lon="11.6186146"><ele>374.0</ele><time>2026-04-25T13:35:14.107Z</time></trkpt><trkpt lat="43.0713052" lon="11.6187089"><ele>372.0</ele><time>2026-04-25T13:35:15.107Z</time></trkpt><trkpt lat="43.0714574" lon="11.618805"><ele>370.0</ele><time>2026-04-25T13:35:16.106Z</time></trkpt><trkpt lat="43.071611" lon="11.6189043"><ele>368.0</ele><time>2026-04-25T13:35:17.107Z</time></trkpt><trkpt lat="43.0717694" lon="11.6190099"><ele>366.0</ele><time>2026-04-25T13:35:18.107Z</time></trkpt><trkpt lat="43.0719279" lon="11.6191103"><ele>366.0</ele><time>2026-04-25T13:35:19.106Z</time></trkpt><trkpt lat="43.0720862" lon="11.6192132"><ele>366.0</ele><time>2026-04-25T13:35:20.107Z</time></trkpt><trkpt lat="43.0722458" lon="11.6193157"><ele>366.0</ele><time>2026-04-25T13:35:21.107Z</time></trkpt><trkpt lat="43.0724025" lon="11.6194194"><ele>367.0</ele><time>2026-04-25T13:35:22.107Z</time></trkpt><trkpt lat="43.0725566" lon="11.6195191"><ele>368.0</ele><time>2026-04-25T13:35:23.107Z</time></trkpt><trkpt lat="43.0727052" lon="11.6196253"><ele>369.0</ele><time>2026-04-25T13:35:24.106Z</time></trkpt><trkpt lat="43.072844" lon="11.6197527"><ele>369.0</ele><time>2026-04-25T13:35:25.107Z</time></trkpt><trkpt lat="43.0729727" lon="11.6198977"><ele>369.0</ele><time>2026-04-25T13:35:26.107Z</time></trkpt><trkpt lat="43.073087" lon="11.6200661"><ele>369.0</ele><time>2026-04-25T13:35:27.107Z</time></trkpt><trkpt lat="43.0731921" lon="11.6202567"><ele>368.3333333333333</ele><time>2026-04-25T13:35:28.106Z</time></trkpt><trkpt lat="43.0732764" lon="11.6204582"><ele>367.66666666666663</ele><time>2026-04-25T13:35:29.107Z</time></trkpt><trkpt lat="43.073351" lon="11.6206747"><ele>367.0</ele><time>2026-04-25T13:35:30.106Z</time></trkpt><trkpt lat="43.0734079" lon="11.6208977"><ele>367.0</ele><time>2026-04-25T13:35:31.107Z</time></trkpt><trkpt lat="43.0734434" lon="11.6211346"><ele>367.0</ele><time>2026-04-25T13:35:32.106Z</time></trkpt><trkpt lat="43.0734485" lon="11.6213777"><ele>367.0</ele><time>2026-04-25T13:35:33.106Z</time></trkpt><trkpt lat="43.0734335" lon="11.6216202"><ele>366.0</ele><time>2026-04-25T13:35:34.107Z</time></trkpt><trkpt lat="43.0733999" lon="11.6218696"><ele>365.0</ele><time>2026-04-25T13:35:35.107Z</time></trkpt><trkpt lat="43.0733515" lon="11.6221158"><ele>364.0</ele><time>2026-04-25T13:35:36.107Z</time></trkpt><trkpt lat="43.0732953" lon="11.6223568"><ele>362.66666666666663</ele><time>2026-04-25T13:35:37.107Z</time></trkpt><trkpt lat="43.0732364" lon="11.6225951"><ele>361.3333333333333</ele><time>2026-04-25T13:35:38.107Z</time></trkpt><trkpt lat="43.0731799" lon="11.6228326"><ele>360.0</ele><time>2026-04-25T13:35:39.106Z</time></trkpt><trkpt lat="43.0731385" lon="11.6230739"><ele>360.0</ele><time>2026-04-25T13:35:40.107Z</time></trkpt><trkpt lat="43.0731094" lon="11.6233217"><ele>360.0</ele><time>2026-04-25T13:35:41.107Z</time></trkpt><trkpt lat="43.073103" lon="11.6235668"><ele>360.0</ele><time>2026-04-25T13:35:42.106Z</time></trkpt><trkpt lat="43.0731077" lon="11.6238097"><ele>360.0</ele><time>2026-04-25T13:35:43.107Z</time></trkpt><trkpt lat="43.0731256" lon="11.6240443"><ele>360.0</ele><time>2026-04-25T13:35:44.106Z</time></trkpt><trkpt lat="43.0731575" lon="11.6242697"><ele>360.0</ele><time>2026-04-25T13:35:45.107Z</time></trkpt><trkpt lat="43.0732064" lon="11.6244756"><ele>360.25</ele><time>2026-04-25T13:35:46.106Z</time></trkpt><trkpt lat="43.0732734" lon="11.6246629"><ele>360.5</ele><time>2026-04-25T13:35:47.107Z</time></trkpt><trkpt lat="43.0733463" lon="11.6248348"><ele>360.75</ele><time>2026-04-25T13:35:48.107Z</time></trkpt><trkpt lat="43.0734312" lon="11.6249908"><ele>361.0</ele><time>2026-04-25T13:35:49.106Z</time></trkpt><trkpt lat="43.0735165" lon="11.6251397"><ele>358.3333333333333</ele><time>2026-04-25T13:35:50.107Z</time></trkpt><trkpt lat="43.0736082" lon="11.6253136"><ele>355.6666666666667</ele><time>2026-04-25T13:35:51.107Z</time></trkpt><trkpt lat="43.0736991" lon="11.6254917"><ele>353.0</ele><time>2026-04-25T13:35:52.106Z</time></trkpt><trkpt lat="43.0738037" lon="11.6256707"><ele>353.0</ele><time>2026-04-25T13:35:53.107Z</time></trkpt><trkpt lat="43.0739105" lon="11.6258541"><ele>353.0</ele><time>2026-04-25T13:35:54.107Z</time></trkpt><trkpt lat="43.0740166" lon="11.6260351"><ele>353.0</ele><time>2026-04-25T13:35:55.107Z</time></trkpt><trkpt lat="43.0741235" lon="11.6262126"><ele>353.33333333333337</ele><time>2026-04-25T13:35:56.107Z</time></trkpt><trkpt lat="43.0742241" lon="11.6263819"><ele>353.6666666666667</ele><time>2026-04-25T13:35:57.107Z</time></trkpt><trkpt lat="43.0743184" lon="11.6265469"><ele>354.0</ele><time>2026-04-25T13:35:58.106Z</time></trkpt><trkpt lat="43.0744101" lon="11.6267075"><ele>354.0</ele><time>2026-04-25T13:35:59.107Z</time></trkpt><trkpt lat="43.0745049" lon="11.6268578"><ele>354.0</ele><time>2026-04-25T13:36:00.106Z</time></trkpt><trkpt lat="43.0746115" lon="11.6269915"><ele>354.0</ele><time>2026-04-25T13:36:01.106Z</time></trkpt><trkpt lat="43.0747302" lon="11.6271083"><ele>354.0</ele><time>2026-04-25T13:36:02.107Z</time></trkpt><trkpt lat="43.0748632" lon="11.6271982"><ele>354.3333333333333</ele><time>2026-04-25T13:36:03.106Z</time></trkpt><trkpt lat="43.0750037" lon="11.6272731"><ele>354.66666666666663</ele><time>2026-04-25T13:36:04.107Z</time></trkpt><trkpt lat="43.0751546" lon="11.6273342"><ele>355.0</ele><time>2026-04-25T13:36:05.107Z</time></trkpt><trkpt lat="43.0753066" lon="11.6273945"><ele>355.0</ele><time>2026-04-25T13:36:06.107Z</time></trkpt><trkpt lat="43.0754667" lon="11.627458"><ele>355.0</ele><time>2026-04-25T13:36:07.107Z</time></trkpt><trkpt lat="43.0756295" lon="11.6275298"><ele>355.0</ele><time>2026-04-25T13:36:08.107Z</time></trkpt><trkpt lat="43.0757979" lon="11.6276016"><ele>353.3333333333333</ele><time>2026-04-25T13:36:09.107Z</time></trkpt><trkpt lat="43.0759666" lon="11.6276776"><ele>351.6666666666667</ele><time>2026-04-25T13:36:10.107Z</time></trkpt><trkpt lat="43.0761376" lon="11.6277529"><ele>350.0</ele><time>2026-04-25T13:36:11.107Z</time></trkpt><trkpt lat="43.0763098" lon="11.6278272"><ele>350.0</ele><time>2026-04-25T13:36:12.107Z</time></trkpt><trkpt lat="43.0764828" lon="11.6279025"><ele>350.0</ele><time>2026-04-25T13:36:13.107Z</time></trkpt><trkpt lat="43.0766537" lon="11.6279799"><ele>350.0</ele><time>2026-04-25T13:36:14.106Z</time></trkpt><trkpt lat="43.0768254" lon="11.6280594"><ele>348.0</ele><time>2026-04-25T13:36:15.107Z</time></trkpt><trkpt lat="43.0769981" lon="11.6281384"><ele>346.0</ele><time>2026-04-25T13:36:16.107Z</time></trkpt><trkpt lat="43.0771705" lon="11.6282127"><ele>344.0</ele><time>2026-04-25T13:36:17.106Z</time></trkpt><trkpt lat="43.0773404" lon="11.6282827"><ele>344.6666666666667</ele><time>2026-04-25T13:36:18.107Z</time></trkpt><trkpt lat="43.0775124" lon="11.6283565"><ele>345.3333333333333</ele><time>2026-04-25T13:36:19.107Z</time></trkpt><trkpt lat="43.0776797" lon="11.6284339"><ele>346.0</ele><time>2026-04-25T13:36:20.107Z</time></trkpt><trkpt lat="43.0778442" lon="11.6285143"><ele>346.0</ele><time>2026-04-25T13:36:21.107Z</time></trkpt><trkpt lat="43.0780105" lon="11.6285915"><ele>346.0</ele><time>2026-04-25T13:36:22.106Z</time></trkpt><trkpt lat="43.0781759" lon="11.6286666"><ele>346.0</ele><time>2026-04-25T13:36:23.107Z</time></trkpt><trkpt lat="43.0783414" lon="11.628731"><ele>344.66666666666663</ele><time>2026-04-25T13:36:24.107Z</time></trkpt><trkpt lat="43.0785124" lon="11.6287794"><ele>343.3333333333333</ele><time>2026-04-25T13:36:25.106Z</time></trkpt><trkpt lat="43.0786919" lon="11.6288023"><ele>342.0</ele><time>2026-04-25T13:36:26.107Z</time></trkpt><trkpt lat="43.0788738" lon="11.6288"><ele>342.0</ele><time>2026-04-25T13:36:27.106Z</time></trkpt><trkpt lat="43.0790555" lon="11.6287693"><ele>342.0</ele><time>2026-04-25T13:36:28.107Z</time></trkpt><trkpt lat="43.0792336" lon="11.6287408"><ele>342.0</ele><time>2026-04-25T13:36:29.106Z</time></trkpt><trkpt lat="43.0794145" lon="11.6287106"><ele>342.3333333333333</ele><time>2026-04-25T13:36:30.107Z</time></trkpt><trkpt lat="43.0795915" lon="11.62868"><ele>342.66666666666663</ele><time>2026-04-25T13:36:31.107Z</time></trkpt><trkpt lat="43.0797559" lon="11.6286468"><ele>343.0</ele><time>2026-04-25T13:36:32.107Z</time></trkpt><trkpt lat="43.0799161" lon="11.6286143"><ele>344.3333333333333</ele><time>2026-04-25T13:36:33.107Z</time></trkpt><trkpt lat="43.0800734" lon="11.6285873"><ele>345.6666666666667</ele><time>2026-04-25T13:36:34.107Z</time></trkpt><trkpt lat="43.0802268" lon="11.6285753"><ele>347.0</ele><time>2026-04-25T13:36:35.107Z</time></trkpt><trkpt lat="43.0803747" lon="11.6285973"><ele>347.0</ele><time>2026-04-25T13:36:36.107Z</time></trkpt><trkpt lat="43.0805297" lon="11.6286314"><ele>347.0</ele><time>2026-04-25T13:36:37.106Z</time></trkpt><trkpt lat="43.0806779" lon="11.6287069"><ele>347.0</ele><time>2026-04-25T13:36:38.107Z</time></trkpt><trkpt lat="43.0808214" lon="11.6288189"><ele>345.6666666666667</ele><time>2026-04-25T13:36:39.107Z</time></trkpt><trkpt lat="43.0809654" lon="11.6289271"><ele>344.3333333333333</ele><time>2026-04-25T13:36:40.106Z</time></trkpt><trkpt lat="43.0811082" lon="11.6290121"><ele>343.0</ele><time>2026-04-25T13:36:41.107Z</time></trkpt><trkpt lat="43.0812485" lon="11.6290907"><ele>343.0</ele><time>2026-04-25T13:36:42.107Z</time></trkpt><trkpt lat="43.0814005" lon="11.6291327"><ele>343.0</ele><time>2026-04-25T13:36:43.107Z</time></trkpt><trkpt lat="43.0815602" lon="11.6291535"><ele>343.0</ele><time>2026-04-25T13:36:44.107Z</time></trkpt><trkpt lat="43.0817279" lon="11.6291657"><ele>341.0</ele><time>2026-04-25T13:36:45.107Z</time></trkpt><trkpt lat="43.0818995" lon="11.6291835"><ele>339.0</ele><time>2026-04-25T13:36:46.107Z</time></trkpt><trkpt lat="43.0820694" lon="11.6292017"><ele>337.0</ele><time>2026-04-25T13:36:47.107Z</time></trkpt><trkpt lat="43.082239" lon="11.629219"><ele>337.0</ele><time>2026-04-25T13:36:48.107Z</time></trkpt><trkpt lat="43.0824055" lon="11.6292377"><ele>337.0</ele><time>2026-04-25T13:36:49.107Z</time></trkpt><trkpt lat="43.082562" lon="11.6292533"><ele>337.0</ele><time>2026-04-25T13:36:50.106Z</time></trkpt><trkpt lat="43.0827131" lon="11.6292661"><ele>336.5</ele><time>2026-04-25T13:36:51.107Z</time></trkpt><trkpt lat="43.0828564" lon="11.629281"><ele>336.0</ele><time>2026-04-25T13:36:52.107Z</time></trkpt><trkpt lat="43.0829993" lon="11.6293001"><ele>335.5</ele><time>2026-04-25T13:36:53.107Z</time></trkpt><trkpt lat="43.0831391" lon="11.6293339"><ele>335.0</ele><time>2026-04-25T13:36:54.107Z</time></trkpt><trkpt lat="43.0832748" lon="11.629395"><ele>336.0</ele><time>2026-04-25T13:36:55.107Z</time></trkpt><trkpt lat="43.0834042" lon="11.6294816"><ele>337.0</ele><time>2026-04-25T13:36:56.106Z</time></trkpt><trkpt lat="43.0835129" lon="11.6296083"><ele>338.0</ele><time>2026-04-25T13:36:57.107Z</time></trkpt><trkpt lat="43.0836084" lon="11.6297487"><ele>339.0</ele><time>2026-04-25T13:36:58.107Z</time></trkpt><trkpt lat="43.0836915" lon="11.6299104"><ele>339.0</ele><time>2026-04-25T13:36:59.107Z</time></trkpt><trkpt lat="43.0837484" lon="11.630095"><ele>339.0</ele><time>2026-04-25T13:37:00.106Z</time></trkpt><trkpt lat="43.0837877" lon="11.6302978"><ele>339.0</ele><time>2026-04-25T13:37:01.107Z</time></trkpt><trkpt lat="43.0838028" lon="11.6305124"><ele>339.0</ele><time>2026-04-25T13:37:02.107Z</time></trkpt><trkpt lat="43.0838007" lon="11.6307185"><ele>339.0</ele><time>2026-04-25T13:37:03.107Z</time></trkpt><trkpt lat="43.0837903" lon="11.6309226"><ele>339.0</ele><time>2026-04-25T13:37:04.107Z</time></trkpt><trkpt lat="43.0837785" lon="11.6311297"><ele>341.0</ele><time>2026-04-25T13:37:05.106Z</time></trkpt><trkpt lat="43.0837679" lon="11.6313355"><ele>343.0</ele><time>2026-04-25T13:37:06.107Z</time></trkpt><trkpt lat="43.0837604" lon="11.6315447"><ele>345.0</ele><time>2026-04-25T13:37:07.107Z</time></trkpt><trkpt lat="43.0837549" lon="11.6317571"><ele>348.6666666666667</ele><time>2026-04-25T13:37:08.107Z</time></trkpt><trkpt lat="43.0837447" lon="11.6319762"><ele>352.33333333333337</ele><time>2026-04-25T13:37:09.107Z</time></trkpt><trkpt lat="43.0837352" lon="11.6321952"><ele>356.0</ele><time>2026-04-25T13:37:10.107Z</time></trkpt><trkpt lat="43.0837235" lon="11.6324184"><ele>356.0</ele><time>2026-04-25T13:37:11.106Z</time></trkpt><trkpt lat="43.0837145" lon="11.6326356"><ele>356.0</ele><time>2026-04-25T13:37:12.106Z</time></trkpt><trkpt lat="43.0837039" lon="11.6328565"><ele>356.0</ele><time>2026-04-25T13:37:13.107Z</time></trkpt><trkpt lat="43.083689" lon="11.6330747"><ele>356.33333333333337</ele><time>2026-04-25T13:37:14.107Z</time></trkpt><trkpt lat="43.0836664" lon="11.6332863"><ele>356.6666666666667</ele><time>2026-04-25T13:37:15.107Z</time></trkpt><trkpt lat="43.0836382" lon="11.6334979"><ele>357.0</ele><time>2026-04-25T13:37:16.106Z</time></trkpt><trkpt lat="43.0836059" lon="11.6337036"><ele>355.6666666666667</ele><time>2026-04-25T13:37:17.107Z</time></trkpt><trkpt lat="43.0835776" lon="11.633903"><ele>354.33333333333337</ele><time>2026-04-25T13:37:18.107Z</time></trkpt><trkpt lat="43.0835475" lon="11.6341059"><ele>353.0</ele><time>2026-04-25T13:37:19.107Z</time></trkpt><trkpt lat="43.0835186" lon="11.6343105"><ele>351.6666666666667</ele><time>2026-04-25T13:37:20.107Z</time></trkpt><trkpt lat="43.0834936" lon="11.6345149"><ele>350.3333333333333</ele><time>2026-04-25T13:37:21.107Z</time></trkpt><trkpt lat="43.0834713" lon="11.6347195"><ele>349.0</ele><time>2026-04-25T13:37:22.106Z</time></trkpt><trkpt lat="43.083455" lon="11.6349246"><ele>349.0</ele><time>2026-04-25T13:37:23.107Z</time></trkpt><trkpt lat="43.0834459" lon="11.6351323"><ele>349.0</ele><time>2026-04-25T13:37:24.107Z</time></trkpt><trkpt lat="43.083443" lon="11.6353401"><ele>349.0</ele><time>2026-04-25T13:37:25.107Z</time></trkpt><trkpt lat="43.0834412" lon="11.6355515"><ele>349.0</ele><time>2026-04-25T13:37:26.107Z</time></trkpt><trkpt lat="43.083438" lon="11.6357632"><ele>349.0</ele><time>2026-04-25T13:37:27.107Z</time></trkpt><trkpt lat="43.0834348" lon="11.6359754"><ele>349.0</ele><time>2026-04-25T13:37:28.106Z</time></trkpt><trkpt lat="43.083428" lon="11.6361915"><ele>349.0</ele><time>2026-04-25T13:37:29.107Z</time></trkpt><trkpt lat="43.0834193" lon="11.6364072"><ele>349.0</ele><time>2026-04-25T13:37:30.107Z</time></trkpt><trkpt lat="43.083413" lon="11.6366277"><ele>349.0</ele><time>2026-04-25T13:37:31.107Z</time></trkpt><trkpt lat="43.0834089" lon="11.6368472"><ele>350.0</ele><time>2026-04-25T13:37:32.107Z</time></trkpt><trkpt lat="43.0834021" lon="11.6370695"><ele>351.0</ele><time>2026-04-25T13:37:33.107Z</time></trkpt><trkpt lat="43.0833942" lon="11.6372917"><ele>352.0</ele><time>2026-04-25T13:37:34.107Z</time></trkpt><trkpt lat="43.0833851" lon="11.637509"><ele>352.0</ele><time>2026-04-25T13:37:35.107Z</time></trkpt><trkpt lat="43.0833607" lon="11.6377216"><ele>352.0</ele><time>2026-04-25T13:37:36.107Z</time></trkpt><trkpt lat="43.0833171" lon="11.6379317"><ele>352.0</ele><time>2026-04-25T13:37:37.107Z</time></trkpt><trkpt lat="43.0832669" lon="11.6381316"><ele>353.66666666666663</ele><time>2026-04-25T13:37:38.107Z</time></trkpt><trkpt lat="43.0832129" lon="11.6383341"><ele>355.3333333333333</ele><time>2026-04-25T13:37:39.107Z</time></trkpt><trkpt lat="43.0831504" lon="11.6385308"><ele>357.0</ele><time>2026-04-25T13:37:40.107Z</time></trkpt><trkpt lat="43.0830799" lon="11.6387274"><ele>358.3333333333333</ele><time>2026-04-25T13:37:41.107Z</time></trkpt><trkpt lat="43.0830146" lon="11.6389211"><ele>359.66666666666663</ele><time>2026-04-25T13:37:42.107Z</time></trkpt><trkpt lat="43.0829536" lon="11.6391132"><ele>361.0</ele><time>2026-04-25T13:37:43.107Z</time></trkpt><trkpt lat="43.0828933" lon="11.639308"><ele>361.66666666666663</ele><time>2026-04-25T13:37:44.107Z</time></trkpt><trkpt lat="43.0828291" lon="11.639503"><ele>362.3333333333333</ele><time>2026-04-25T13:37:45.107Z</time></trkpt><trkpt lat="43.0827664" lon="11.6396924"><ele>363.0</ele><time>2026-04-25T13:37:46.107Z</time></trkpt><trkpt lat="43.0826978" lon="11.6398783"><ele>363.0</ele><time>2026-04-25T13:37:47.107Z</time></trkpt><trkpt lat="43.0826221" lon="11.640062"><ele>363.0</ele><time>2026-04-25T13:37:48.107Z</time></trkpt><trkpt lat="43.082535" lon="11.6402379"><ele>363.0</ele><time>2026-04-25T13:37:49.107Z</time></trkpt><trkpt lat="43.082435" lon="11.6403986"><ele>365.3333333333333</ele><time>2026-04-25T13:37:50.107Z</time></trkpt><trkpt lat="43.0823279" lon="11.6405554"><ele>367.66666666666663</ele><time>2026-04-25T13:37:51.107Z</time></trkpt><trkpt lat="43.0822228" lon="11.6407078"><ele>370.0</ele><time>2026-04-25T13:37:52.107Z</time></trkpt><trkpt lat="43.0821187" lon="11.6408568"><ele>370.0</ele><time>2026-04-25T13:37:53.106Z</time></trkpt><trkpt lat="43.0820169" lon="11.6410098"><ele>370.0</ele><time>2026-04-25T13:37:54.107Z</time></trkpt><trkpt lat="43.0819222" lon="11.6411641"><ele>370.0</ele><time>2026-04-25T13:37:55.107Z</time></trkpt><trkpt lat="43.0818399" lon="11.6413357"><ele>370.0</ele><time>2026-04-25T13:37:56.106Z</time></trkpt><trkpt lat="43.0817775" lon="11.6415236"><ele>369.75</ele><time>2026-04-25T13:37:57.107Z</time></trkpt><trkpt lat="43.0817308" lon="11.6417123"><ele>369.5</ele><time>2026-04-25T13:37:58.107Z</time></trkpt><trkpt lat="43.0816999" lon="11.6419057"><ele>369.25</ele><time>2026-04-25T13:37:59.107Z</time></trkpt><trkpt lat="43.0816855" lon="11.6421108"><ele>369.0</ele><time>2026-04-25T13:38:00.106Z</time></trkpt><trkpt lat="43.0816765" lon="11.6423229"><ele>369.6666666666667</ele><time>2026-04-25T13:38:01.106Z</time></trkpt><trkpt lat="43.081673" lon="11.6425411"><ele>370.33333333333337</ele><time>2026-04-25T13:38:02.107Z</time></trkpt><trkpt lat="43.0816643" lon="11.6427584"><ele>371.0</ele><time>2026-04-25T13:38:03.107Z</time></trkpt><trkpt lat="43.0816545" lon="11.6429713"><ele>371.33333333333337</ele><time>2026-04-25T13:38:04.107Z</time></trkpt><trkpt lat="43.0816445" lon="11.6431915"><ele>371.6666666666667</ele><time>2026-04-25T13:38:05.107Z</time></trkpt><trkpt lat="43.0816365" lon="11.64341"><ele>372.0</ele><time>2026-04-25T13:38:06.107Z</time></trkpt><trkpt lat="43.0816308" lon="11.6436309"><ele>372.3333333333333</ele><time>2026-04-25T13:38:07.107Z</time></trkpt><trkpt lat="43.0816244" lon="11.6438503"><ele>372.66666666666663</ele><time>2026-04-25T13:38:08.107Z</time></trkpt><trkpt lat="43.0816186" lon="11.6440649"><ele>373.0</ele><time>2026-04-25T13:38:09.107Z</time></trkpt><trkpt lat="43.081614" lon="11.6442751"><ele>372.75</ele><time>2026-04-25T13:38:10.107Z</time></trkpt><trkpt lat="43.0816107" lon="11.6444775"><ele>372.5</ele><time>2026-04-25T13:38:11.107Z</time></trkpt><trkpt lat="43.0816124" lon="11.6446752"><ele>372.25</ele><time>2026-04-25T13:38:12.107Z</time></trkpt><trkpt lat="43.0816242" lon="11.6448621"><ele>372.0</ele><time>2026-04-25T13:38:13.107Z</time></trkpt><trkpt lat="43.0816475" lon="11.645039"><ele>372.0</ele><time>2026-04-25T13:38:14.106Z</time></trkpt><trkpt lat="43.0816813" lon="11.6452108"><ele>372.0</ele><time>2026-04-25T13:38:15.107Z</time></trkpt><trkpt lat="43.0817228" lon="11.6453801"><ele>372.0</ele><time>2026-04-25T13:38:16.107Z</time></trkpt><trkpt lat="43.0817641" lon="11.6455419"><ele>372.0</ele><time>2026-04-25T13:38:17.107Z</time></trkpt><trkpt lat="43.0818157" lon="11.6456946"><ele>371.5</ele><time>2026-04-25T13:38:18.107Z</time></trkpt><trkpt lat="43.0818735" lon="11.6458447"><ele>371.0</ele><time>2026-04-25T13:38:19.107Z</time></trkpt><trkpt lat="43.0819442" lon="11.6459891"><ele>370.5</ele><time>2026-04-25T13:38:20.107Z</time></trkpt><trkpt lat="43.0820173" lon="11.6461266"><ele>370.0</ele><time>2026-04-25T13:38:21.106Z</time></trkpt><trkpt lat="43.0820952" lon="11.6462617"><ele>369.5</ele><time>2026-04-25T13:38:22.107Z</time></trkpt><trkpt lat="43.0821735" lon="11.6463913"><ele>369.0</ele><time>2026-04-25T13:38:23.106Z</time></trkpt><trkpt lat="43.0822516" lon="11.6465229"><ele>368.5</ele><time>2026-04-25T13:38:24.107Z</time></trkpt><trkpt lat="43.0823261" lon="11.6466509"><ele>368.0</ele><time>2026-04-25T13:38:25.107Z</time></trkpt><trkpt lat="43.0823997" lon="11.6467736"><ele>368.75</ele><time>2026-04-25T13:38:26.107Z</time></trkpt><trkpt lat="43.0824723" lon="11.6468939"><ele>369.5</ele><time>2026-04-25T13:38:27.107Z</time></trkpt><trkpt lat="43.0825424" lon="11.6470135"><ele>370.25</ele><time>2026-04-25T13:38:28.107Z</time></trkpt><trkpt lat="43.0826138" lon="11.6471364"><ele>371.0</ele><time>2026-04-25T13:38:29.107Z</time></trkpt><trkpt lat="43.0826873" lon="11.6472659"><ele>371.0</ele><time>2026-04-25T13:38:30.107Z</time></trkpt><trkpt lat="43.0827657" lon="11.6474021"><ele>371.0</ele><time>2026-04-25T13:38:31.106Z</time></trkpt><trkpt lat="43.0828475" lon="11.6475447"><ele>371.0</ele><time>2026-04-25T13:38:32.107Z</time></trkpt><trkpt lat="43.0829336" lon="11.6476904"><ele>371.0</ele><time>2026-04-25T13:38:33.107Z</time></trkpt><trkpt lat="43.0830225" lon="11.6478453"><ele>370.0</ele><time>2026-04-25T13:38:34.107Z</time></trkpt><trkpt lat="43.083116" lon="11.6480014"><ele>369.0</ele><time>2026-04-25T13:38:35.106Z</time></trkpt><trkpt lat="43.0832132" lon="11.6481615"><ele>368.0</ele><time>2026-04-25T13:38:36.107Z</time></trkpt><trkpt lat="43.083311" lon="11.6483271"><ele>368.0</ele><time>2026-04-25T13:38:37.107Z</time></trkpt><trkpt lat="43.0834106" lon="11.648497"><ele>368.0</ele><time>2026-04-25T13:38:38.107Z</time></trkpt><trkpt lat="43.0835113" lon="11.6486716"><ele>368.0</ele><time>2026-04-25T13:38:39.107Z</time></trkpt><trkpt lat="43.0836119" lon="11.6488421"><ele>366.6666666666667</ele><time>2026-04-25T13:38:40.107Z</time></trkpt><trkpt lat="43.0837144" lon="11.6490167"><ele>365.3333333333333</ele><time>2026-04-25T13:38:41.106Z</time></trkpt><trkpt lat="43.0838183" lon="11.6491914"><ele>364.0</ele><time>2026-04-25T13:38:42.107Z</time></trkpt><trkpt lat="43.0839224" lon="11.649372"><ele>364.3333333333333</ele><time>2026-04-25T13:38:43.106Z</time></trkpt><trkpt lat="43.0840269" lon="11.6495478"><ele>364.6666666666667</ele><time>2026-04-25T13:38:44.106Z</time></trkpt><trkpt lat="43.0841274" lon="11.6497268"><ele>365.0</ele><time>2026-04-25T13:38:45.107Z</time></trkpt><trkpt lat="43.0842328" lon="11.649904"><ele>365.0</ele><time>2026-04-25T13:38:46.107Z</time></trkpt><trkpt lat="43.0843437" lon="11.6500688"><ele>365.0</ele><time>2026-04-25T13:38:47.106Z</time></trkpt><trkpt lat="43.0844682" lon="11.6502173"><ele>365.0</ele><time>2026-04-25T13:38:48.107Z</time></trkpt><trkpt lat="43.0845995" lon="11.650352"><ele>366.33333333333337</ele><time>2026-04-25T13:38:49.107Z</time></trkpt><trkpt lat="43.0847289" lon="11.6504819"><ele>367.6666666666667</ele><time>2026-04-25T13:38:50.107Z</time></trkpt><trkpt lat="43.0848615" lon="11.650608"><ele>369.0</ele><time>2026-04-25T13:38:51.107Z</time></trkpt><trkpt lat="43.0849974" lon="11.650735"><ele>369.0</ele><time>2026-04-25T13:38:52.107Z</time></trkpt><trkpt lat="43.0851308" lon="11.6508591"><ele>369.0</ele><time>2026-04-25T13:38:53.107Z</time></trkpt><trkpt lat="43.085268" lon="11.650983"><ele>369.0</ele><time>2026-04-25T13:38:54.107Z</time></trkpt><trkpt lat="43.0854062" lon="11.651111"><ele>369.0</ele><time>2026-04-25T13:38:55.107Z</time></trkpt><trkpt lat="43.0855449" lon="11.6512411"><ele>369.0</ele><time>2026-04-25T13:38:56.107Z</time></trkpt><trkpt lat="43.0856861" lon="11.6513713"><ele>369.0</ele><time>2026-04-25T13:38:57.107Z</time></trkpt><trkpt lat="43.085832" lon="11.6515015"><ele>369.0</ele><time>2026-04-25T13:38:58.107Z</time></trkpt><trkpt lat="43.0859771" lon="11.6516259"><ele>369.0</ele><time>2026-04-25T13:38:59.107Z</time></trkpt><trkpt lat="43.086128" lon="11.6517414"><ele>369.0</ele><time>2026-04-25T13:39:00.106Z</time></trkpt><trkpt lat="43.0862802" lon="11.6518508"><ele>368.3333333333333</ele><time>2026-04-25T13:39:01.107Z</time></trkpt><trkpt lat="43.0864307" lon="11.651964"><ele>367.66666666666663</ele><time>2026-04-25T13:39:02.107Z</time></trkpt><trkpt lat="43.0865759" lon="11.6520757"><ele>367.0</ele><time>2026-04-25T13:39:03.107Z</time></trkpt><trkpt lat="43.0867178" lon="11.652181"><ele>367.0</ele><time>2026-04-25T13:39:04.106Z</time></trkpt><trkpt lat="43.0868523" lon="11.6522822"><ele>367.0</ele><time>2026-04-25T13:39:05.106Z</time></trkpt><trkpt lat="43.0869886" lon="11.6523624"><ele>367.0</ele><time>2026-04-25T13:39:06.107Z</time></trkpt><trkpt lat="43.0871318" lon="11.6524124"><ele>367.0</ele><time>2026-04-25T13:39:07.107Z</time></trkpt><trkpt lat="43.0872764" lon="11.652419"><ele>367.0</ele><time>2026-04-25T13:39:08.107Z</time></trkpt><trkpt lat="43.0874159" lon="11.6523832"><ele>367.0</ele><time>2026-04-25T13:39:09.106Z</time></trkpt><trkpt lat="43.0875547" lon="11.6523179"><ele>367.0</ele><time>2026-04-25T13:39:10.107Z</time></trkpt><trkpt lat="43.087685" lon="11.6522336"><ele>368.75</ele><time>2026-04-25T13:39:11.107Z</time></trkpt><trkpt lat="43.0878189" lon="11.6521521"><ele>370.5</ele><time>2026-04-25T13:39:12.107Z</time></trkpt><trkpt lat="43.087963" lon="11.6521092"><ele>372.25</ele><time>2026-04-25T13:39:13.107Z</time></trkpt><trkpt lat="43.0881104" lon="11.6520925"><ele>374.0</ele><time>2026-04-25T13:39:14.107Z</time></trkpt><trkpt lat="43.0882557" lon="11.6520847"><ele>375.0</ele><time>2026-04-25T13:39:15.106Z</time></trkpt><trkpt lat="43.0883963" lon="11.6520913"><ele>376.0</ele><time>2026-04-25T13:39:16.107Z</time></trkpt><trkpt lat="43.0885229" lon="11.6521359"><ele>377.0</ele><time>2026-04-25T13:39:17.107Z</time></trkpt><trkpt lat="43.0886306" lon="11.6522433"><ele>378.0</ele><time>2026-04-25T13:39:18.107Z</time></trkpt><trkpt lat="43.0887098" lon="11.6524072"><ele>378.0</ele><time>2026-04-25T13:39:19.107Z</time></trkpt><trkpt lat="43.0887359" lon="11.6526094"><ele>378.0</ele><time>2026-04-25T13:39:20.107Z</time></trkpt><trkpt lat="43.0887408" lon="11.6528035"><ele>378.0</ele><time>2026-04-25T13:39:21.107Z</time></trkpt><trkpt lat="43.0887507" lon="11.6529969"><ele>378.0</ele><time>2026-04-25T13:39:22.106Z</time></trkpt><trkpt lat="43.0887675" lon="11.6531856"><ele>379.0</ele><time>2026-04-25T13:39:23.107Z</time></trkpt><trkpt lat="43.0887941" lon="11.6533616"><ele>380.0</ele><time>2026-04-25T13:39:24.107Z</time></trkpt><trkpt lat="43.088834" lon="11.6535406"><ele>381.0</ele><time>2026-04-25T13:39:25.106Z</time></trkpt><trkpt lat="43.0888914" lon="11.6536983"><ele>382.0</ele><time>2026-04-25T13:39:26.107Z</time></trkpt><trkpt lat="43.088982" lon="11.6538135"><ele>384.25</ele><time>2026-04-25T13:39:27.107Z</time></trkpt><trkpt lat="43.089095" lon="11.653902"><ele>386.5</ele><time>2026-04-25T13:39:28.106Z</time></trkpt><trkpt lat="43.0892189" lon="11.6539436"><ele>388.75</ele><time>2026-04-25T13:39:29.107Z</time></trkpt><trkpt lat="43.0893626" lon="11.6539444"><ele>391.0</ele><time>2026-04-25T13:39:30.107Z</time></trkpt><trkpt lat="43.0894971" lon="11.6539406"><ele>391.0</ele><time>2026-04-25T13:39:31.106Z</time></trkpt><trkpt lat="43.0896346" lon="11.6539303"><ele>391.0</ele><time>2026-04-25T13:39:32.107Z</time></trkpt><trkpt lat="43.0897687" lon="11.6539122"><ele>391.0</ele><time>2026-04-25T13:39:33.107Z</time></trkpt><trkpt lat="43.0899015" lon="11.6538683"><ele>391.0</ele><time>2026-04-25T13:39:34.107Z</time></trkpt><trkpt lat="43.0900169" lon="11.6537735"><ele>392.5</ele><time>2026-04-25T13:39:35.107Z</time></trkpt><trkpt lat="43.090124" lon="11.6536753"><ele>394.0</ele><time>2026-04-25T13:39:36.107Z</time></trkpt><trkpt lat="43.0902321" lon="11.6535893"><ele>395.5</ele><time>2026-04-25T13:39:37.107Z</time></trkpt><trkpt lat="43.0903504" lon="11.653535"><ele>397.0</ele><time>2026-04-25T13:39:38.107Z</time></trkpt><trkpt lat="43.0904809" lon="11.6535094"><ele>395.75</ele><time>2026-04-25T13:39:39.107Z</time></trkpt><trkpt lat="43.0906076" lon="11.6534932"><ele>394.5</ele><time>2026-04-25T13:39:40.107Z</time></trkpt><trkpt lat="43.0907408" lon="11.6534762"><ele>393.25</ele><time>2026-04-25T13:39:41.106Z</time></trkpt><trkpt lat="43.0908771" lon="11.6534656"><ele>392.0</ele><time>2026-04-25T13:39:42.107Z</time></trkpt><trkpt lat="43.0910139" lon="11.6534554"><ele>392.0</ele><time>2026-04-25T13:39:43.106Z</time></trkpt><trkpt lat="43.0911524" lon="11.6534372"><ele>392.0</ele><time>2026-04-25T13:39:44.107Z</time></trkpt><trkpt lat="43.0912912" lon="11.6534222"><ele>392.0</ele><time>2026-04-25T13:39:45.107Z</time></trkpt><trkpt lat="43.09143" lon="11.6534092"><ele>392.0</ele><time>2026-04-25T13:39:46.107Z</time></trkpt><trkpt lat="43.0915712" lon="11.6534193"><ele>393.5</ele><time>2026-04-25T13:39:47.107Z</time></trkpt><trkpt lat="43.0917105" lon="11.6534575"><ele>395.0</ele><time>2026-04-25T13:39:48.107Z</time></trkpt><trkpt lat="43.0918476" lon="11.6535057"><ele>396.5</ele><time>2026-04-25T13:39:49.107Z</time></trkpt><trkpt lat="43.0919814" lon="11.6535622"><ele>398.0</ele><time>2026-04-25T13:39:50.107Z</time></trkpt><trkpt lat="43.0921165" lon="11.6536191"><ele>399.5</ele><time>2026-04-25T13:39:51.107Z</time></trkpt><trkpt lat="43.0922493" lon="11.6536685"><ele>401.0</ele><time>2026-04-25T13:39:52.106Z</time></trkpt><trkpt lat="43.092387" lon="11.653698"><ele>402.5</ele><time>2026-04-25T13:39:53.107Z</time></trkpt><trkpt lat="43.0925142" lon="11.6537131"><ele>404.0</ele><time>2026-04-25T13:39:54.107Z</time></trkpt><trkpt lat="43.0926304" lon="11.6537178"><ele>404.0</ele><time>2026-04-25T13:39:55.107Z</time></trkpt><trkpt lat="43.0927349" lon="11.6537359"><ele>404.0</ele><time>2026-04-25T13:39:56.105Z</time></trkpt><trkpt lat="43.0928105" lon="11.6538064"><ele>404.0</ele><time>2026-04-25T13:39:57.106Z</time></trkpt><trkpt lat="43.092853" lon="11.6539268"><ele>404.0</ele><time>2026-04-25T13:39:58.106Z</time></trkpt><trkpt lat="43.0928737" lon="11.6540445"><ele>404.0</ele><time>2026-04-25T13:39:59.106Z</time></trkpt><trkpt lat="43.0928621" lon="11.6541564"><ele>404.0</ele><time>2026-04-25T13:40:00.106Z</time></trkpt><trkpt lat="43.0928174" lon="11.6542632"><ele>404.0</ele><time>2026-04-25T13:40:01.106Z</time></trkpt><trkpt lat="43.092739" lon="11.6543185"><ele>404.0</ele><time>2026-04-25T13:40:02.106Z</time></trkpt><trkpt lat="43.0926499" lon="11.6543409"><ele>404.0</ele><time>2026-04-25T13:40:03.105Z</time></trkpt><trkpt lat="43.0925487" lon="11.6543065"><ele>404.0</ele><time>2026-04-25T13:40:04.106Z</time></trkpt><trkpt lat="43.0924403" lon="11.6542491"><ele>404.75</ele><time>2026-04-25T13:40:05.106Z</time></trkpt><trkpt lat="43.0923305" lon="11.6541904"><ele>405.5</ele><time>2026-04-25T13:40:06.105Z</time></trkpt><trkpt lat="43.0922104" lon="11.6541305"><ele>406.25</ele><time>2026-04-25T13:40:07.106Z</time></trkpt><trkpt lat="43.0920923" lon="11.6540745"><ele>407.0</ele><time>2026-04-25T13:40:08.106Z</time></trkpt><trkpt lat="43.0919656" lon="11.654031"><ele>407.0</ele><time>2026-04-25T13:40:09.105Z</time></trkpt><trkpt lat="43.0918337" lon="11.6540144"><ele>407.0</ele><time>2026-04-25T13:40:10.106Z</time></trkpt><trkpt lat="43.091704" lon="11.6540433"><ele>407.0</ele><time>2026-04-25T13:40:11.106Z</time></trkpt><trkpt lat="43.0915723" lon="11.6540949"><ele>407.0</ele><time>2026-04-25T13:40:12.106Z</time></trkpt><trkpt lat="43.0914508" lon="11.6541688"><ele>406.25</ele><time>2026-04-25T13:40:13.106Z</time></trkpt><trkpt lat="43.0913248" lon="11.654263"><ele>405.5</ele><time>2026-04-25T13:40:14.106Z</time></trkpt><trkpt lat="43.0912008" lon="11.6543574"><ele>404.75</ele><time>2026-04-25T13:40:15.106Z</time></trkpt><trkpt lat="43.0910752" lon="11.6544505"><ele>404.0</ele><time>2026-04-25T13:40:16.105Z</time></trkpt><trkpt lat="43.0909497" lon="11.6545394"><ele>404.5</ele><time>2026-04-25T13:40:17.105Z</time></trkpt><trkpt lat="43.0908275" lon="11.6546371"><ele>405.0</ele><time>2026-04-25T13:40:18.106Z</time></trkpt><trkpt lat="43.090707" lon="11.6547376"><ele>405.5</ele><time>2026-04-25T13:40:19.105Z</time></trkpt><trkpt lat="43.0905983" lon="11.6548265"><ele>406.0</ele><time>2026-04-25T13:40:20.106Z</time></trkpt><trkpt lat="43.0905029" lon="11.65493"><ele>406.0</ele><time>2026-04-25T13:40:21.105Z</time></trkpt><trkpt lat="43.0904203" lon="11.6550515"><ele>406.0</ele><time>2026-04-25T13:40:22.106Z</time></trkpt><trkpt lat="43.0903549" lon="11.655198"><ele>406.0</ele><time>2026-04-25T13:40:23.106Z</time></trkpt><trkpt lat="43.0903113" lon="11.655355"><ele>406.0</ele><time>2026-04-25T13:40:24.105Z</time></trkpt><trkpt lat="43.0902855" lon="11.655528"><ele>407.75</ele><time>2026-04-25T13:40:25.105Z</time></trkpt><trkpt lat="43.090272" lon="11.6557045"><ele>409.5</ele><time>2026-04-25T13:40:26.106Z</time></trkpt><trkpt lat="43.0902749" lon="11.6558822"><ele>411.25</ele><time>2026-04-25T13:40:27.106Z</time></trkpt><trkpt lat="43.0902911" lon="11.6560676"><ele>413.0</ele><time>2026-04-25T13:40:28.105Z</time></trkpt><trkpt lat="43.0903129" lon="11.6562526"><ele>414.0</ele><time>2026-04-25T13:40:29.105Z</time></trkpt><trkpt lat="43.0903229" lon="11.656435"><ele>415.0</ele><time>2026-04-25T13:40:30.105Z</time></trkpt><trkpt lat="43.0902978" lon="11.656612"><ele>416.0</ele><time>2026-04-25T13:40:31.106Z</time></trkpt><trkpt lat="43.0902212" lon="11.6567887"><ele>417.0</ele><time>2026-04-25T13:40:32.105Z</time></trkpt><trkpt lat="43.0901214" lon="11.6569278"><ele>417.5</ele><time>2026-04-25T13:40:33.106Z</time></trkpt><trkpt lat="43.0900045" lon="11.6570361"><ele>418.0</ele><time>2026-04-25T13:40:34.106Z</time></trkpt><trkpt lat="43.089867" lon="11.6570854"><ele>418.5</ele><time>2026-04-25T13:40:35.106Z</time></trkpt><trkpt lat="43.089736" lon="11.6571241"><ele>419.0</ele><time>2026-04-25T13:40:36.105Z</time></trkpt><trkpt lat="43.0896064" lon="11.6571785"><ele>419.0</ele><time>2026-04-25T13:40:37.106Z</time></trkpt><trkpt lat="43.0894754" lon="11.6572681"><ele>419.0</ele><time>2026-04-25T13:40:38.106Z</time></trkpt><trkpt lat="43.08935" lon="11.65741"><ele>419.0</ele><time>2026-04-25T13:40:39.106Z</time></trkpt><trkpt lat="43.0892274" lon="11.6575659"><ele>419.0</ele><time>2026-04-25T13:40:40.106Z</time></trkpt><trkpt lat="43.089099" lon="11.6577419"><ele>419.0</ele><time>2026-04-25T13:40:41.105Z</time></trkpt><trkpt lat="43.0889592" lon="11.6579305"><ele>419.0</ele><time>2026-04-25T13:40:42.106Z</time></trkpt><trkpt lat="43.0888028" lon="11.6581271"><ele>420.66666666666663</ele><time>2026-04-25T13:40:43.106Z</time></trkpt><trkpt lat="43.0886439" lon="11.6583076"><ele>422.33333333333337</ele><time>2026-04-25T13:40:44.106Z</time></trkpt><trkpt lat="43.0885072" lon="11.6584798"><ele>424.0</ele><time>2026-04-25T13:40:45.105Z</time></trkpt><trkpt lat="43.0884297" lon="11.6586399"><ele>425.0</ele><time>2026-04-25T13:40:46.106Z</time></trkpt><trkpt lat="43.0884003" lon="11.6588354"><ele>426.0</ele><time>2026-04-25T13:40:47.106Z</time></trkpt><trkpt lat="43.0884319" lon="11.6590269"><ele>427.0</ele><time>2026-04-25T13:40:48.106Z</time></trkpt><trkpt lat="43.0884877" lon="11.6592008"><ele>428.0</ele><time>2026-04-25T13:40:49.105Z</time></trkpt><trkpt lat="43.0885377" lon="11.6593794"><ele>429.25</ele><time>2026-04-25T13:40:50.106Z</time></trkpt><trkpt lat="43.0885358" lon="11.6595753"><ele>430.5</ele><time>2026-04-25T13:40:51.106Z</time></trkpt><trkpt lat="43.0884683" lon="11.6597685"><ele>431.75</ele><time>2026-04-25T13:40:52.106Z</time></trkpt><trkpt lat="43.0883678" lon="11.6598986"><ele>433.0</ele><time>2026-04-25T13:40:53.106Z</time></trkpt><trkpt lat="43.0882291" lon="11.6599764"><ele>434.33333333333337</ele><time>2026-04-25T13:40:54.106Z</time></trkpt><trkpt lat="43.0880743" lon="11.6599971"><ele>435.66666666666663</ele><time>2026-04-25T13:40:55.106Z</time></trkpt><trkpt lat="43.0879151" lon="11.6599784"><ele>437.0</ele><time>2026-04-25T13:40:56.106Z</time></trkpt><trkpt lat="43.087754" lon="11.6599452"><ele>437.0</ele><time>2026-04-25T13:40:57.106Z</time></trkpt><trkpt lat="43.0875831" lon="11.659924"><ele>437.0</ele><time>2026-04-25T13:40:58.106Z</time></trkpt><trkpt lat="43.0874076" lon="11.6598976"><ele>437.0</ele><time>2026-04-25T13:40:59.106Z</time></trkpt><trkpt lat="43.0872326" lon="11.6598804"><ele>437.66666666666663</ele><time>2026-04-25T13:41:00.106Z</time></trkpt><trkpt lat="43.0870657" lon="11.6598591"><ele>438.33333333333337</ele><time>2026-04-25T13:41:01.106Z</time></trkpt><trkpt lat="43.0869139" lon="11.6598518"><ele>439.0</ele><time>2026-04-25T13:41:02.106Z</time></trkpt><trkpt lat="43.0867734" lon="11.6598995"><ele>439.0</ele><time>2026-04-25T13:41:03.105Z</time></trkpt><trkpt lat="43.0866433" lon="11.6599985"><ele>439.0</ele><time>2026-04-25T13:41:04.106Z</time></trkpt><trkpt lat="43.0865383" lon="11.6601689"><ele>439.0</ele><time>2026-04-25T13:41:05.105Z</time></trkpt><trkpt lat="43.0864406" lon="11.6603636"><ele>440.0</ele><time>2026-04-25T13:41:06.106Z</time></trkpt><trkpt lat="43.0863432" lon="11.6605706"><ele>441.0</ele><time>2026-04-25T13:41:07.106Z</time></trkpt><trkpt lat="43.0862458" lon="11.6607931"><ele>442.0</ele><time>2026-04-25T13:41:08.106Z</time></trkpt><trkpt lat="43.0861578" lon="11.6610098"><ele>444.0</ele><time>2026-04-25T13:41:09.106Z</time></trkpt><trkpt lat="43.0860709" lon="11.661228"><ele>446.0</ele><time>2026-04-25T13:41:10.105Z</time></trkpt><trkpt lat="43.0859868" lon="11.6614498"><ele>448.0</ele><time>2026-04-25T13:41:11.106Z</time></trkpt><trkpt lat="43.0859067" lon="11.6616711"><ele>448.0</ele><time>2026-04-25T13:41:12.106Z</time></trkpt><trkpt lat="43.0858255" lon="11.6618942"><ele>448.0</ele><time>2026-04-25T13:41:13.105Z</time></trkpt><trkpt lat="43.0857441" lon="11.6621149"><ele>448.0</ele><time>2026-04-25T13:41:14.106Z</time></trkpt><trkpt lat="43.0856677" lon="11.6623339"><ele>449.33333333333337</ele><time>2026-04-25T13:41:15.106Z</time></trkpt><trkpt lat="43.0855932" lon="11.6625543"><ele>450.66666666666663</ele><time>2026-04-25T13:41:16.106Z</time></trkpt><trkpt lat="43.0855262" lon="11.6627727"><ele>452.0</ele><time>2026-04-25T13:41:17.105Z</time></trkpt><trkpt lat="43.0854648" lon="11.662998"><ele>453.3333333333333</ele><time>2026-04-25T13:41:18.106Z</time></trkpt><trkpt lat="43.0854046" lon="11.6632292"><ele>454.66666666666663</ele><time>2026-04-25T13:41:19.106Z</time></trkpt><trkpt lat="43.0853527" lon="11.6634569"><ele>456.0</ele><time>2026-04-25T13:41:20.106Z</time></trkpt><trkpt lat="43.0853005" lon="11.6636903"><ele>456.66666666666663</ele><time>2026-04-25T13:41:21.105Z</time></trkpt><trkpt lat="43.0852405" lon="11.663921"><ele>457.3333333333333</ele><time>2026-04-25T13:41:22.106Z</time></trkpt><trkpt lat="43.0851841" lon="11.6641494"><ele>458.0</ele><time>2026-04-25T13:41:23.106Z</time></trkpt><trkpt lat="43.0851273" lon="11.6643808"><ele>457.66666666666663</ele><time>2026-04-25T13:41:24.106Z</time></trkpt><trkpt lat="43.0850592" lon="11.6646029"><ele>457.33333333333337</ele><time>2026-04-25T13:41:25.106Z</time></trkpt><trkpt lat="43.0849796" lon="11.6648232"><ele>457.0</ele><time>2026-04-25T13:41:26.106Z</time></trkpt><trkpt lat="43.0848853" lon="11.6650392"><ele>458.6666666666667</ele><time>2026-04-25T13:41:27.106Z</time></trkpt><trkpt lat="43.0847754" lon="11.6652458"><ele>460.33333333333337</ele><time>2026-04-25T13:41:28.106Z</time></trkpt><trkpt lat="43.0846671" lon="11.6654542"><ele>462.0</ele><time>2026-04-25T13:41:29.105Z</time></trkpt><trkpt lat="43.0845573" lon="11.6656667"><ele>462.0</ele><time>2026-04-25T13:41:30.106Z</time></trkpt><trkpt lat="43.0844517" lon="11.6658722"><ele>462.0</ele><time>2026-04-25T13:41:31.106Z</time></trkpt><trkpt lat="43.0843455" lon="11.6660739"><ele>462.0</ele><time>2026-04-25T13:41:32.106Z</time></trkpt><trkpt lat="43.0842394" lon="11.6662809"><ele>462.33333333333337</ele><time>2026-04-25T13:41:33.106Z</time></trkpt><trkpt lat="43.0841407" lon="11.6664952"><ele>462.6666666666667</ele><time>2026-04-25T13:41:34.106Z</time></trkpt><trkpt lat="43.084041" lon="11.666716"><ele>463.0</ele><time>2026-04-25T13:41:35.105Z</time></trkpt><trkpt lat="43.0839548" lon="11.666939"><ele>464.6666666666667</ele><time>2026-04-25T13:41:36.106Z</time></trkpt><trkpt lat="43.0838821" lon="11.6671776"><ele>466.33333333333337</ele><time>2026-04-25T13:41:37.106Z</time></trkpt><trkpt lat="43.0838178" lon="11.66742"><ele>468.0</ele><time>2026-04-25T13:41:38.105Z</time></trkpt><trkpt lat="43.0837471" lon="11.6676474"><ele>468.0</ele><time>2026-04-25T13:41:39.105Z</time></trkpt><trkpt lat="43.0836777" lon="11.667875"><ele>468.0</ele><time>2026-04-25T13:41:40.106Z</time></trkpt><trkpt lat="43.0836125" lon="11.6680954"><ele>468.0</ele><time>2026-04-25T13:41:41.106Z</time></trkpt><trkpt lat="43.0835401" lon="11.668314"><ele>468.0</ele><time>2026-04-25T13:41:42.106Z</time></trkpt><trkpt lat="43.0834619" lon="11.6685373"><ele>468.0</ele><time>2026-04-25T13:41:43.105Z</time></trkpt><trkpt lat="43.0833821" lon="11.6687682"><ele>468.0</ele><time>2026-04-25T13:41:44.105Z</time></trkpt><trkpt lat="43.083298" lon="11.6690006"><ele>469.66666666666663</ele><time>2026-04-25T13:41:45.105Z</time></trkpt><trkpt lat="43.0832125" lon="11.6692344"><ele>471.3333333333333</ele><time>2026-04-25T13:41:46.106Z</time></trkpt><trkpt lat="43.0831304" lon="11.6694683"><ele>473.0</ele><time>2026-04-25T13:41:47.106Z</time></trkpt><trkpt lat="43.0830505" lon="11.6696939"><ele>473.66666666666663</ele><time>2026-04-25T13:41:48.105Z</time></trkpt><trkpt lat="43.0829765" lon="11.6699007"><ele>474.33333333333337</ele><time>2026-04-25T13:41:49.106Z</time></trkpt><trkpt lat="43.0829082" lon="11.6700996"><ele>475.0</ele><time>2026-04-25T13:41:50.106Z</time></trkpt><trkpt lat="43.0828386" lon="11.670282"><ele>475.25</ele><time>2026-04-25T13:41:51.105Z</time></trkpt><trkpt lat="43.0827684" lon="11.6704475"><ele>475.5</ele><time>2026-04-25T13:41:52.106Z</time></trkpt><trkpt lat="43.0826984" lon="11.6705876"><ele>475.75</ele><time>2026-04-25T13:41:53.105Z</time></trkpt><trkpt lat="43.0826262" lon="11.6707146"><ele>476.0</ele><time>2026-04-25T13:41:54.105Z</time></trkpt><trkpt lat="43.0825561" lon="11.6708204"><ele>475.99999999999994</ele><time>2026-04-25T13:41:55.106Z</time></trkpt><trkpt lat="43.0824994" lon="11.6709105"><ele>476.0</ele><time>2026-04-25T13:41:56.106Z</time></trkpt><trkpt lat="43.0824441" lon="11.6709673"><ele>476.0</ele><time>2026-04-25T13:41:57.106Z</time></trkpt><trkpt lat="43.0823436" lon="11.6710104"><ele>476.0</ele><time>2026-04-25T13:41:59.106Z</time></trkpt><trkpt lat="43.0823027" lon="11.6711322"><ele>475.99999999999994</ele><time>2026-04-25T13:43:59.105Z</time></trkpt><trkpt lat="43.0823079" lon="11.6712248"><ele>476.0</ele><time>2026-04-25T13:44:00.106Z</time></trkpt><trkpt lat="43.0823442" lon="11.6713087"><ele>476.0</ele><time>2026-04-25T13:44:01.106Z</time></trkpt><trkpt lat="43.0824046" lon="11.671342"><ele>476.0</ele><time>2026-04-25T13:44:02.105Z</time></trkpt><trkpt lat="43.0825229" lon="11.6712748"><ele>476.0</ele><time>2026-04-25T13:44:04.106Z</time></trkpt><trkpt lat="43.0825532" lon="11.671173"><ele>476.0</ele><time>2026-04-25T13:44:05.106Z</time></trkpt><trkpt lat="43.0825649" lon="11.671054"><ele>476.0</ele><time>2026-04-25T13:44:06.106Z</time></trkpt><trkpt lat="43.0825782" lon="11.6709128"><ele>476.0</ele><time>2026-04-25T13:44:07.106Z</time></trkpt><trkpt lat="43.0826227" lon="11.6707771"><ele>476.0</ele><time>2026-04-25T13:44:08.105Z</time></trkpt><trkpt lat="43.0826938" lon="11.670639"><ele>476.0</ele><time>2026-04-25T13:44:09.106Z</time></trkpt><trkpt lat="43.082766" lon="11.6704861"><ele>476.0</ele><time>2026-04-25T13:44:10.105Z</time></trkpt><trkpt lat="43.0828438" lon="11.6703275"><ele>475.66666666666663</ele><time>2026-04-25T13:44:11.105Z</time></trkpt><trkpt lat="43.0829158" lon="11.6701462"><ele>475.33333333333337</ele><time>2026-04-25T13:44:12.106Z</time></trkpt><trkpt lat="43.08299" lon="11.6699543"><ele>475.0</ele><time>2026-04-25T13:44:13.106Z</time></trkpt><trkpt lat="43.083059" lon="11.6697495"><ele>475.0</ele><time>2026-04-25T13:44:14.106Z</time></trkpt><trkpt lat="43.0831357" lon="11.6695386"><ele>475.0</ele><time>2026-04-25T13:44:15.106Z</time></trkpt><trkpt lat="43.0832137" lon="11.6693237"><ele>475.0</ele><time>2026-04-25T13:44:16.106Z</time></trkpt><trkpt lat="43.08329" lon="11.6691054"><ele>473.0</ele><time>2026-04-25T13:44:17.106Z</time></trkpt><trkpt lat="43.0833689" lon="11.668877"><ele>471.0</ele><time>2026-04-25T13:44:18.106Z</time></trkpt><trkpt lat="43.0834467" lon="11.6686521"><ele>469.0</ele><time>2026-04-25T13:44:19.106Z</time></trkpt><trkpt lat="43.0835252" lon="11.6684256"><ele>468.6666666666667</ele><time>2026-04-25T13:44:20.106Z</time></trkpt><trkpt lat="43.0836037" lon="11.6681963"><ele>468.33333333333337</ele><time>2026-04-25T13:44:21.105Z</time></trkpt><trkpt lat="43.0836803" lon="11.6679608"><ele>468.0</ele><time>2026-04-25T13:44:22.106Z</time></trkpt><trkpt lat="43.083752" lon="11.6677225"><ele>468.0</ele><time>2026-04-25T13:44:23.106Z</time></trkpt><trkpt lat="43.083826" lon="11.6674736"><ele>468.0</ele><time>2026-04-25T13:44:24.106Z</time></trkpt><trkpt lat="43.0838997" lon="11.6672262"><ele>468.0</ele><time>2026-04-25T13:44:25.105Z</time></trkpt><trkpt lat="43.0839747" lon="11.6669745"><ele>467.0</ele><time>2026-04-25T13:44:26.106Z</time></trkpt><trkpt lat="43.0840641" lon="11.6667246"><ele>466.0</ele><time>2026-04-25T13:44:27.106Z</time></trkpt><trkpt lat="43.0841691" lon="11.666484"><ele>465.0</ele><time>2026-04-25T13:44:28.106Z</time></trkpt><trkpt lat="43.0842898" lon="11.6662482"><ele>464.0</ele><time>2026-04-25T13:44:29.105Z</time></trkpt><trkpt lat="43.0844036" lon="11.6660199"><ele>463.0</ele><time>2026-04-25T13:44:30.106Z</time></trkpt><trkpt lat="43.0845229" lon="11.6657902"><ele>462.0</ele><time>2026-04-25T13:44:31.106Z</time></trkpt><trkpt lat="43.0846387" lon="11.6655578"><ele>462.0</ele><time>2026-04-25T13:44:32.106Z</time></trkpt><trkpt lat="43.0847555" lon="11.6653267"><ele>462.0</ele><time>2026-04-25T13:44:33.105Z</time></trkpt><trkpt lat="43.0848694" lon="11.6650999"><ele>462.0</ele><time>2026-04-25T13:44:34.105Z</time></trkpt><trkpt lat="43.084974" lon="11.6648849"><ele>460.66666666666663</ele><time>2026-04-25T13:44:35.106Z</time></trkpt><trkpt lat="43.0850668" lon="11.6646636"><ele>459.3333333333333</ele><time>2026-04-25T13:44:36.106Z</time></trkpt><trkpt lat="43.0851488" lon="11.6644302"><ele>458.0</ele><time>2026-04-25T13:44:37.106Z</time></trkpt><trkpt lat="43.0852118" lon="11.6641859"><ele>458.0</ele><time>2026-04-25T13:44:38.106Z</time></trkpt><trkpt lat="43.0852665" lon="11.6639278"><ele>458.0</ele><time>2026-04-25T13:44:39.105Z</time></trkpt><trkpt lat="43.0853243" lon="11.6636644"><ele>458.0</ele><time>2026-04-25T13:44:40.106Z</time></trkpt><trkpt lat="43.0853848" lon="11.6634018"><ele>457.3333333333333</ele><time>2026-04-25T13:44:41.105Z</time></trkpt><trkpt lat="43.0854472" lon="11.663141"><ele>456.66666666666663</ele><time>2026-04-25T13:44:42.106Z</time></trkpt><trkpt lat="43.0855156" lon="11.6628784"><ele>456.0</ele><time>2026-04-25T13:44:43.106Z</time></trkpt><trkpt lat="43.0855936" lon="11.662618"><ele>454.66666666666663</ele><time>2026-04-25T13:44:44.105Z</time></trkpt><trkpt lat="43.0856808" lon="11.6623569"><ele>453.3333333333333</ele><time>2026-04-25T13:44:45.106Z</time></trkpt><trkpt lat="43.0857772" lon="11.6620975"><ele>452.0</ele><time>2026-04-25T13:44:46.106Z</time></trkpt><trkpt lat="43.0858761" lon="11.6618358"><ele>450.66666666666663</ele><time>2026-04-25T13:44:47.106Z</time></trkpt><trkpt lat="43.0859706" lon="11.6615701"><ele>449.33333333333337</ele><time>2026-04-25T13:44:48.106Z</time></trkpt><trkpt lat="43.0860639" lon="11.6613177"><ele>448.0</ele><time>2026-04-25T13:44:49.106Z</time></trkpt><trkpt lat="43.086153" lon="11.6610747"><ele>446.0</ele><time>2026-04-25T13:44:50.106Z</time></trkpt><trkpt lat="43.0862456" lon="11.6608457"><ele>444.0</ele><time>2026-04-25T13:44:51.106Z</time></trkpt><trkpt lat="43.0863336" lon="11.6606378"><ele>442.0</ele><time>2026-04-25T13:44:52.106Z</time></trkpt><trkpt lat="43.0864164" lon="11.6604352"><ele>441.0</ele><time>2026-04-25T13:44:53.106Z</time></trkpt><trkpt lat="43.0864982" lon="11.6602456"><ele>440.0</ele><time>2026-04-25T13:44:54.106Z</time></trkpt><trkpt lat="43.0865889" lon="11.660092"><ele>439.0</ele><time>2026-04-25T13:44:55.105Z</time></trkpt><trkpt lat="43.0867093" lon="11.6599755"><ele>439.0</ele><time>2026-04-25T13:44:56.106Z</time></trkpt><trkpt lat="43.0868563" lon="11.659894"><ele>439.0</ele><time>2026-04-25T13:44:57.106Z</time></trkpt><trkpt lat="43.0870126" lon="11.6598654"><ele>439.0</ele><time>2026-04-25T13:44:58.106Z</time></trkpt><trkpt lat="43.0871828" lon="11.6598787"><ele>439.0</ele><time>2026-04-25T13:44:59.106Z</time></trkpt><trkpt lat="43.0873612" lon="11.6599138"><ele>439.0</ele><time>2026-04-25T13:45:00.106Z</time></trkpt><trkpt lat="43.0875429" lon="11.6599462"><ele>439.0</ele><time>2026-04-25T13:45:01.106Z</time></trkpt><trkpt lat="43.0877208" lon="11.6599741"><ele>438.33333333333337</ele><time>2026-04-25T13:45:02.106Z</time></trkpt><trkpt lat="43.0878868" lon="11.6600007"><ele>437.66666666666663</ele><time>2026-04-25T13:45:03.106Z</time></trkpt><trkpt lat="43.0880376" lon="11.6600195"><ele>437.0</ele><time>2026-04-25T13:45:04.106Z</time></trkpt><trkpt lat="43.0881753" lon="11.6600207"><ele>436.0</ele><time>2026-04-25T13:45:05.106Z</time></trkpt><trkpt lat="43.0883024" lon="11.6599832"><ele>435.0</ele><time>2026-04-25T13:45:06.105Z</time></trkpt><trkpt lat="43.0884225" lon="11.6598913"><ele>434.0</ele><time>2026-04-25T13:45:07.106Z</time></trkpt><trkpt lat="43.088515" lon="11.6597548"><ele>433.0</ele><time>2026-04-25T13:45:08.105Z</time></trkpt><trkpt lat="43.088568" lon="11.6595756"><ele>431.33333333333337</ele><time>2026-04-25T13:45:09.106Z</time></trkpt><trkpt lat="43.0885685" lon="11.6593747"><ele>429.66666666666663</ele><time>2026-04-25T13:45:10.105Z</time></trkpt><trkpt lat="43.0885197" lon="11.6591717"><ele>428.0</ele><time>2026-04-25T13:45:11.106Z</time></trkpt><trkpt lat="43.0884518" lon="11.6589682"><ele>428.0</ele><time>2026-04-25T13:45:12.106Z</time></trkpt><trkpt lat="43.0884228" lon="11.6587608"><ele>428.0</ele><time>2026-04-25T13:45:13.106Z</time></trkpt><trkpt lat="43.0884686" lon="11.6585496"><ele>428.0</ele><time>2026-04-25T13:45:14.106Z</time></trkpt><trkpt lat="43.0885633" lon="11.6583901"><ele>426.66666666666663</ele><time>2026-04-25T13:45:15.106Z</time></trkpt><trkpt lat="43.08869" lon="11.6582374"><ele>425.33333333333337</ele><time>2026-04-25T13:45:16.106Z</time></trkpt><trkpt lat="43.0888228" lon="11.6580809"><ele>424.0</ele><time>2026-04-25T13:45:17.106Z</time></trkpt><trkpt lat="43.0889617" lon="11.6579304"><ele>422.33333333333337</ele><time>2026-04-25T13:45:18.105Z</time></trkpt><trkpt lat="43.0890954" lon="11.6577654"><ele>420.66666666666663</ele><time>2026-04-25T13:45:19.106Z</time></trkpt><trkpt lat="43.0892287" lon="11.6575961"><ele>419.0</ele><time>2026-04-25T13:45:20.106Z</time></trkpt><trkpt lat="43.0893587" lon="11.6574248"><ele>419.0</ele><time>2026-04-25T13:45:21.105Z</time></trkpt><trkpt lat="43.089494" lon="11.6572753"><ele>419.0</ele><time>2026-04-25T13:45:22.105Z</time></trkpt><trkpt lat="43.0896424" lon="11.6571806"><ele>419.0</ele><time>2026-04-25T13:45:23.106Z</time></trkpt><trkpt lat="43.0898023" lon="11.6571313"><ele>419.66666666666663</ele><time>2026-04-25T13:45:24.106Z</time></trkpt><trkpt lat="43.089954" lon="11.6570719"><ele>420.33333333333337</ele><time>2026-04-25T13:45:25.106Z</time></trkpt><trkpt lat="43.0900862" lon="11.6569789"><ele>421.0</ele><time>2026-04-25T13:45:26.106Z</time></trkpt><trkpt lat="43.0901888" lon="11.6568346"><ele>419.6666666666667</ele><time>2026-04-25T13:45:27.106Z</time></trkpt><trkpt lat="43.0902731" lon="11.6566484"><ele>418.33333333333337</ele><time>2026-04-25T13:45:28.105Z</time></trkpt><trkpt lat="43.090314" lon="11.6564432"><ele>417.0</ele><time>2026-04-25T13:45:29.106Z</time></trkpt><trkpt lat="43.0903166" lon="11.6562183"><ele>415.66666666666663</ele><time>2026-04-25T13:45:30.106Z</time></trkpt><trkpt lat="43.0902867" lon="11.6559814"><ele>414.3333333333333</ele><time>2026-04-25T13:45:31.106Z</time></trkpt><trkpt lat="43.0902764" lon="11.6557326"><ele>413.0</ele><time>2026-04-25T13:45:32.106Z</time></trkpt><trkpt lat="43.0902988" lon="11.655486"><ele>410.66666666666663</ele><time>2026-04-25T13:45:33.106Z</time></trkpt><trkpt lat="43.0903632" lon="11.6552731"><ele>408.33333333333337</ele><time>2026-04-25T13:45:34.106Z</time></trkpt><trkpt lat="43.0904491" lon="11.655083"><ele>406.0</ele><time>2026-04-25T13:45:35.106Z</time></trkpt><trkpt lat="43.0905525" lon="11.6549224"><ele>406.0</ele><time>2026-04-25T13:45:36.106Z</time></trkpt><trkpt lat="43.0906924" lon="11.6547816"><ele>406.0</ele><time>2026-04-25T13:45:37.106Z</time></trkpt><trkpt lat="43.0908425" lon="11.6546578"><ele>406.0</ele><time>2026-04-25T13:45:38.106Z</time></trkpt><trkpt lat="43.0909979" lon="11.6545486"><ele>405.33333333333337</ele><time>2026-04-25T13:45:39.106Z</time></trkpt><trkpt lat="43.0911483" lon="11.6544337"><ele>404.66666666666663</ele><time>2026-04-25T13:45:40.106Z</time></trkpt><trkpt lat="43.0912967" lon="11.6543184"><ele>404.0</ele><time>2026-04-25T13:45:41.106Z</time></trkpt><trkpt lat="43.0914384" lon="11.6542014"><ele>404.0</ele><time>2026-04-25T13:45:42.105Z</time></trkpt><trkpt lat="43.0915807" lon="11.6540967"><ele>404.0</ele><time>2026-04-25T13:45:43.106Z</time></trkpt><trkpt lat="43.0917435" lon="11.6540478"><ele>404.0</ele><time>2026-04-25T13:45:44.105Z</time></trkpt><trkpt lat="43.091917" lon="11.6540735"><ele>405.0</ele><time>2026-04-25T13:45:45.106Z</time></trkpt><trkpt lat="43.0920857" lon="11.6541108"><ele>406.0</ele><time>2026-04-25T13:45:46.106Z</time></trkpt><trkpt lat="43.0922321" lon="11.654178"><ele>407.0</ele><time>2026-04-25T13:45:47.105Z</time></trkpt><trkpt lat="43.0923689" lon="11.6542569"><ele>406.25</ele><time>2026-04-25T13:45:48.106Z</time></trkpt><trkpt lat="43.0924964" lon="11.6543185"><ele>405.5</ele><time>2026-04-25T13:45:49.106Z</time></trkpt><trkpt lat="43.0926045" lon="11.6543626"><ele>404.75</ele><time>2026-04-25T13:45:50.106Z</time></trkpt><trkpt lat="43.0927064" lon="11.6543628"><ele>404.0</ele><time>2026-04-25T13:45:51.106Z</time></trkpt><trkpt lat="43.0927937" lon="11.6542901"><ele>404.0</ele><time>2026-04-25T13:45:52.106Z</time></trkpt><trkpt lat="43.0928615" lon="11.6541967"><ele>404.0</ele><time>2026-04-25T13:45:53.106Z</time></trkpt><trkpt lat="43.0928989" lon="11.6540869"><ele>404.0</ele><time>2026-04-25T13:45:54.105Z</time></trkpt><trkpt lat="43.0929137" lon="11.65396"><ele>404.0</ele><time>2026-04-25T13:45:55.106Z</time></trkpt><trkpt lat="43.0928854" lon="11.6538374"><ele>404.0</ele><time>2026-04-25T13:45:56.105Z</time></trkpt><trkpt lat="43.0927944" lon="11.6537389"><ele>404.0</ele><time>2026-04-25T13:45:57.105Z</time></trkpt><trkpt lat="43.0926936" lon="11.6536966"><ele>404.0</ele><time>2026-04-25T13:45:58.105Z</time></trkpt><trkpt lat="43.092584" lon="11.6536929"><ele>404.0</ele><time>2026-04-25T13:45:59.106Z</time></trkpt><trkpt lat="43.092473" lon="11.6536869"><ele>404.0</ele><time>2026-04-25T13:46:00.106Z</time></trkpt><trkpt lat="43.092363" lon="11.6536753"><ele>404.0</ele><time>2026-04-25T13:46:01.106Z</time></trkpt><trkpt lat="43.0922526" lon="11.6536387"><ele>402.5</ele><time>2026-04-25T13:46:02.106Z</time></trkpt><trkpt lat="43.0921439" lon="11.6535898"><ele>401.0</ele><time>2026-04-25T13:46:03.106Z</time></trkpt><trkpt lat="43.0920278" lon="11.6535449"><ele>399.5</ele><time>2026-04-25T13:46:04.106Z</time></trkpt><trkpt lat="43.0919093" lon="11.6535072"><ele>398.0</ele><time>2026-04-25T13:46:05.106Z</time></trkpt><trkpt lat="43.0917879" lon="11.6534534"><ele>398.0</ele><time>2026-04-25T13:46:06.105Z</time></trkpt><trkpt lat="43.091656" lon="11.6534086"><ele>398.0</ele><time>2026-04-25T13:46:07.106Z</time></trkpt><trkpt lat="43.0915153" lon="11.6533834"><ele>398.0</ele><time>2026-04-25T13:46:08.106Z</time></trkpt><trkpt lat="43.0913641" lon="11.6533918"><ele>398.0</ele><time>2026-04-25T13:46:09.106Z</time></trkpt><trkpt lat="43.0912065" lon="11.6534279"><ele>396.0</ele><time>2026-04-25T13:46:10.106Z</time></trkpt><trkpt lat="43.0910279" lon="11.6534639"><ele>394.0</ele><time>2026-04-25T13:46:11.105Z</time></trkpt><trkpt lat="43.0908424" lon="11.6534716"><ele>392.0</ele><time>2026-04-25T13:46:12.106Z</time></trkpt><trkpt lat="43.0906705" lon="11.6534803"><ele>393.25</ele><time>2026-04-25T13:46:13.106Z</time></trkpt><trkpt lat="43.0905204" lon="11.6534965"><ele>394.5</ele><time>2026-04-25T13:46:14.106Z</time></trkpt><trkpt lat="43.0903849" lon="11.6535233"><ele>395.75</ele><time>2026-04-25T13:46:15.105Z</time></trkpt><trkpt lat="43.0902579" lon="11.6535567"><ele>397.0</ele><time>2026-04-25T13:46:16.106Z</time></trkpt><trkpt lat="43.0901371" lon="11.6536318"><ele>397.0</ele><time>2026-04-25T13:46:17.106Z</time></trkpt><trkpt lat="43.0900294" lon="11.6537202"><ele>397.0</ele><time>2026-04-25T13:46:18.105Z</time></trkpt><trkpt lat="43.089925" lon="11.6538143"><ele>397.0</ele><time>2026-04-25T13:46:19.106Z</time></trkpt><trkpt lat="43.0898135" lon="11.6538719"><ele>397.0</ele><time>2026-04-25T13:46:20.106Z</time></trkpt><trkpt lat="43.0896885" lon="11.6539061"><ele>395.5</ele><time>2026-04-25T13:46:21.106Z</time></trkpt><trkpt lat="43.0895607" lon="11.6539171"><ele>394.0</ele><time>2026-04-25T13:46:22.106Z</time></trkpt><trkpt lat="43.0894343" lon="11.6539194"><ele>392.5</ele><time>2026-04-25T13:46:23.106Z</time></trkpt><trkpt lat="43.0893097" lon="11.6539219"><ele>391.0</ele><time>2026-04-25T13:46:24.106Z</time></trkpt><trkpt lat="43.0891866" lon="11.653916"><ele>389.5</ele><time>2026-04-25T13:46:25.106Z</time></trkpt><trkpt lat="43.0890736" lon="11.6538644"><ele>388.0</ele><time>2026-04-25T13:46:26.106Z</time></trkpt><trkpt lat="43.0889731" lon="11.6537719"><ele>386.5</ele><time>2026-04-25T13:46:27.106Z</time></trkpt><trkpt lat="43.0888963" lon="11.6536502"><ele>385.0</ele><time>2026-04-25T13:46:28.105Z</time></trkpt><trkpt lat="43.0888471" lon="11.6535047"><ele>384.4</ele><time>2026-04-25T13:46:29.106Z</time></trkpt><trkpt lat="43.0888181" lon="11.6533493"><ele>383.8</ele><time>2026-04-25T13:46:30.106Z</time></trkpt><trkpt lat="43.0888008" lon="11.6531997"><ele>383.20000000000005</ele><time>2026-04-25T13:46:31.106Z</time></trkpt><trkpt lat="43.088786" lon="11.6530518"><ele>382.6</ele><time>2026-04-25T13:46:32.106Z</time></trkpt><trkpt lat="43.0887737" lon="11.6529089"><ele>382.0</ele><time>2026-04-25T13:46:33.105Z</time></trkpt><trkpt lat="43.0887594" lon="11.6527769"><ele>381.20000000000005</ele><time>2026-04-25T13:46:34.106Z</time></trkpt><trkpt lat="43.0887499" lon="11.6526468"><ele>380.4</ele><time>2026-04-25T13:46:35.106Z</time></trkpt><trkpt lat="43.0887364" lon="11.6525176"><ele>379.6</ele><time>2026-04-25T13:46:36.106Z</time></trkpt><trkpt lat="43.0887097" lon="11.6523898"><ele>378.79999999999995</ele><time>2026-04-25T13:46:37.106Z</time></trkpt><trkpt lat="43.088663" lon="11.6522706"><ele>378.0</ele><time>2026-04-25T13:46:38.106Z</time></trkpt><trkpt lat="43.0885963" lon="11.6521775"><ele>378.0</ele><time>2026-04-25T13:46:39.106Z</time></trkpt><trkpt lat="43.0885029" lon="11.652112"><ele>378.0</ele><time>2026-04-25T13:46:40.106Z</time></trkpt><trkpt lat="43.0883907" lon="11.6520758"><ele>378.0</ele><time>2026-04-25T13:46:41.106Z</time></trkpt><trkpt lat="43.0882743" lon="11.6520709"><ele>378.0</ele><time>2026-04-25T13:46:42.106Z</time></trkpt><trkpt lat="43.088158" lon="11.6520744"><ele>377.2</ele><time>2026-04-25T13:46:43.106Z</time></trkpt><trkpt lat="43.0880416" lon="11.6520787"><ele>376.4</ele><time>2026-04-25T13:46:44.106Z</time></trkpt><trkpt lat="43.0879295" lon="11.6520913"><ele>375.59999999999997</ele><time>2026-04-25T13:46:45.105Z</time></trkpt><trkpt lat="43.087823" lon="11.6521201"><ele>374.79999999999995</ele><time>2026-04-25T13:46:46.106Z</time></trkpt><trkpt lat="43.0877192" lon="11.6521724"><ele>374.0</ele><time>2026-04-25T13:46:47.105Z</time></trkpt><trkpt lat="43.0876201" lon="11.6522405"><ele>374.0</ele><time>2026-04-25T13:46:48.106Z</time></trkpt><trkpt lat="43.087519" lon="11.6523011"><ele>374.0</ele><time>2026-04-25T13:46:49.105Z</time></trkpt><trkpt lat="43.0874054" lon="11.6523424"><ele>374.0</ele><time>2026-04-25T13:46:50.106Z</time></trkpt><trkpt lat="43.0872803" lon="11.6523766"><ele>374.0</ele><time>2026-04-25T13:46:51.106Z</time></trkpt><trkpt lat="43.0871474" lon="11.6523839"><ele>372.25</ele><time>2026-04-25T13:46:52.106Z</time></trkpt><trkpt lat="43.0870074" lon="11.6523506"><ele>370.5</ele><time>2026-04-25T13:46:53.105Z</time></trkpt><trkpt lat="43.0868695" lon="11.6522724"><ele>368.75</ele><time>2026-04-25T13:46:54.106Z</time></trkpt><trkpt lat="43.0867282" lon="11.6521851"><ele>367.0</ele><time>2026-04-25T13:46:55.106Z</time></trkpt><trkpt lat="43.086582" lon="11.6520755"><ele>367.66666666666663</ele><time>2026-04-25T13:46:56.106Z</time></trkpt><trkpt lat="43.0864315" lon="11.6519514"><ele>368.3333333333333</ele><time>2026-04-25T13:46:57.106Z</time></trkpt><trkpt lat="43.0862832" lon="11.651837"><ele>369.0</ele><time>2026-04-25T13:46:58.106Z</time></trkpt><trkpt lat="43.0861443" lon="11.6517285"><ele>369.0</ele><time>2026-04-25T13:46:59.106Z</time></trkpt><trkpt lat="43.0860055" lon="11.6516227"><ele>369.0</ele><time>2026-04-25T13:47:00.105Z</time></trkpt><trkpt lat="43.0858529" lon="11.6515082"><ele>369.0</ele><time>2026-04-25T13:47:01.106Z</time></trkpt><trkpt lat="43.0856954" lon="11.6513684"><ele>369.0</ele><time>2026-04-25T13:47:02.106Z</time></trkpt><trkpt lat="43.0855552" lon="11.6512311"><ele>369.0</ele><time>2026-04-25T13:47:03.106Z</time></trkpt><trkpt lat="43.0854294" lon="11.6511037"><ele>369.0</ele><time>2026-04-25T13:47:04.106Z</time></trkpt><trkpt lat="43.0853114" lon="11.6509946"><ele>369.0</ele><time>2026-04-25T13:47:05.106Z</time></trkpt><trkpt lat="43.0852004" lon="11.6508923"><ele>369.0</ele><time>2026-04-25T13:47:06.106Z</time></trkpt><trkpt lat="43.0850911" lon="11.6507951"><ele>369.0</ele><time>2026-04-25T13:47:07.106Z</time></trkpt><trkpt lat="43.084988" lon="11.6506893"><ele>369.0</ele><time>2026-04-25T13:47:08.106Z</time></trkpt><trkpt lat="43.0848722" lon="11.6505868"><ele>368.0</ele><time>2026-04-25T13:47:09.106Z</time></trkpt><trkpt lat="43.084757" lon="11.6504821"><ele>367.0</ele><time>2026-04-25T13:47:10.106Z</time></trkpt><trkpt lat="43.0846441" lon="11.6503764"><ele>366.0</ele><time>2026-04-25T13:47:11.106Z</time></trkpt><trkpt lat="43.0845347" lon="11.6502655"><ele>365.0</ele><time>2026-04-25T13:47:12.106Z</time></trkpt><trkpt lat="43.0844257" lon="11.6501431"><ele>365.0</ele><time>2026-04-25T13:47:13.105Z</time></trkpt><trkpt lat="43.0843115" lon="11.6499998"><ele>365.0</ele><time>2026-04-25T13:47:14.105Z</time></trkpt><trkpt lat="43.0841907" lon="11.6498209"><ele>365.0</ele><time>2026-04-25T13:47:15.106Z</time></trkpt><trkpt lat="43.0840745" lon="11.6496126"><ele>364.6666666666667</ele><time>2026-04-25T13:47:16.106Z</time></trkpt><trkpt lat="43.083959" lon="11.6494045"><ele>364.3333333333333</ele><time>2026-04-25T13:47:17.106Z</time></trkpt><trkpt lat="43.0838372" lon="11.6491886"><ele>364.0</ele><time>2026-04-25T13:47:18.106Z</time></trkpt><trkpt lat="43.083711" lon="11.6489733"><ele>364.0</ele><time>2026-04-25T13:47:19.106Z</time></trkpt><trkpt lat="43.0835815" lon="11.6487512"><ele>364.0</ele><time>2026-04-25T13:47:20.105Z</time></trkpt><trkpt lat="43.0834521" lon="11.6485266"><ele>364.0</ele><time>2026-04-25T13:47:21.106Z</time></trkpt><trkpt lat="43.0833228" lon="11.6482976"><ele>363.66666666666663</ele><time>2026-04-25T13:47:22.105Z</time></trkpt><trkpt lat="43.0831895" lon="11.6480704"><ele>363.3333333333333</ele><time>2026-04-25T13:47:23.106Z</time></trkpt><trkpt lat="43.0830539" lon="11.6478416"><ele>363.0</ele><time>2026-04-25T13:47:24.106Z</time></trkpt><trkpt lat="43.0829179" lon="11.6476107"><ele>365.6666666666667</ele><time>2026-04-25T13:47:25.106Z</time></trkpt><trkpt lat="43.0827811" lon="11.6473789"><ele>368.33333333333337</ele><time>2026-04-25T13:47:26.106Z</time></trkpt><trkpt lat="43.082649" lon="11.6471502"><ele>371.0</ele><time>2026-04-25T13:47:27.106Z</time></trkpt><trkpt lat="43.0825171" lon="11.6469304"><ele>370.0</ele><time>2026-04-25T13:47:28.106Z</time></trkpt><trkpt lat="43.0823927" lon="11.6467207"><ele>369.0</ele><time>2026-04-25T13:47:29.106Z</time></trkpt><trkpt lat="43.082277" lon="11.6465261"><ele>368.0</ele><time>2026-04-25T13:47:30.106Z</time></trkpt><trkpt lat="43.0821673" lon="11.6463405"><ele>368.0</ele><time>2026-04-25T13:47:31.106Z</time></trkpt><trkpt lat="43.0820622" lon="11.6461588"><ele>368.0</ele><time>2026-04-25T13:47:32.106Z</time></trkpt><trkpt lat="43.0819613" lon="11.6459723"><ele>368.0</ele><time>2026-04-25T13:47:33.105Z</time></trkpt><trkpt lat="43.081873" lon="11.6457793"><ele>368.6666666666667</ele><time>2026-04-25T13:47:34.105Z</time></trkpt><trkpt lat="43.0817968" lon="11.6455796"><ele>369.3333333333333</ele><time>2026-04-25T13:47:35.106Z</time></trkpt><trkpt lat="43.0817421" lon="11.6453774"><ele>370.0</ele><time>2026-04-25T13:47:36.106Z</time></trkpt><trkpt lat="43.0816925" lon="11.6451678"><ele>370.66666666666663</ele><time>2026-04-25T13:47:37.105Z</time></trkpt><trkpt lat="43.0816559" lon="11.644947"><ele>371.3333333333333</ele><time>2026-04-25T13:47:38.106Z</time></trkpt><trkpt lat="43.0816275" lon="11.6447182"><ele>372.0</ele><time>2026-04-25T13:47:39.106Z</time></trkpt><trkpt lat="43.0816181" lon="11.644489"><ele>372.3333333333333</ele><time>2026-04-25T13:47:40.105Z</time></trkpt><trkpt lat="43.0816219" lon="11.6442501"><ele>372.66666666666663</ele><time>2026-04-25T13:47:41.106Z</time></trkpt><trkpt lat="43.081631" lon="11.6440078"><ele>373.0</ele><time>2026-04-25T13:47:42.106Z</time></trkpt><trkpt lat="43.0816358" lon="11.6437626"><ele>372.66666666666663</ele><time>2026-04-25T13:47:43.106Z</time></trkpt><trkpt lat="43.0816441" lon="11.6435272"><ele>372.3333333333333</ele><time>2026-04-25T13:47:44.106Z</time></trkpt><trkpt lat="43.0816579" lon="11.6433085"><ele>372.0</ele><time>2026-04-25T13:47:45.105Z</time></trkpt><trkpt lat="43.0816703" lon="11.6431001"><ele>372.0</ele><time>2026-04-25T13:47:46.105Z</time></trkpt><trkpt lat="43.08168" lon="11.6428992"><ele>372.0</ele><time>2026-04-25T13:47:47.106Z</time></trkpt><trkpt lat="43.0816872" lon="11.6427053"><ele>372.0</ele><time>2026-04-25T13:47:48.105Z</time></trkpt><trkpt lat="43.081694" lon="11.6425151"><ele>372.0</ele><time>2026-04-25T13:47:49.106Z</time></trkpt><trkpt lat="43.0816979" lon="11.6423234"><ele>371.75</ele><time>2026-04-25T13:47:50.106Z</time></trkpt><trkpt lat="43.0817075" lon="11.6421332"><ele>371.5</ele><time>2026-04-25T13:47:51.106Z</time></trkpt><trkpt lat="43.0817193" lon="11.6419481"><ele>371.25</ele><time>2026-04-25T13:47:52.106Z</time></trkpt><trkpt lat="43.0817405" lon="11.6417595"><ele>371.0</ele><time>2026-04-25T13:47:53.106Z</time></trkpt><trkpt lat="43.0817808" lon="11.6415715"><ele>370.75</ele><time>2026-04-25T13:47:54.106Z</time></trkpt><trkpt lat="43.0818304" lon="11.6413966"><ele>370.5</ele><time>2026-04-25T13:47:55.105Z</time></trkpt><trkpt lat="43.0819064" lon="11.6412312"><ele>370.25</ele><time>2026-04-25T13:47:56.105Z</time></trkpt><trkpt lat="43.0819952" lon="11.641069"><ele>370.0</ele><time>2026-04-25T13:47:57.106Z</time></trkpt><trkpt lat="43.0820937" lon="11.6409242"><ele>370.0</ele><time>2026-04-25T13:47:58.106Z</time></trkpt><trkpt lat="43.0822008" lon="11.6407803"><ele>370.0</ele><time>2026-04-25T13:47:59.106Z</time></trkpt><trkpt lat="43.0823018" lon="11.6406423"><ele>370.0</ele><time>2026-04-25T13:48:00.106Z</time></trkpt><trkpt lat="43.0824091" lon="11.6404866"><ele>370.0</ele><time>2026-04-25T13:48:01.105Z</time></trkpt><trkpt lat="43.0825192" lon="11.6403109"><ele>367.66666666666663</ele><time>2026-04-25T13:48:02.106Z</time></trkpt><trkpt lat="43.0826209" lon="11.6401009"><ele>365.3333333333333</ele><time>2026-04-25T13:48:03.106Z</time></trkpt><trkpt lat="43.0827129" lon="11.6398626"><ele>363.0</ele><time>2026-04-25T13:48:04.106Z</time></trkpt><trkpt lat="43.0828015" lon="11.6395957"><ele>362.3333333333333</ele><time>2026-04-25T13:48:05.106Z</time></trkpt><trkpt lat="43.0828969" lon="11.6393208"><ele>361.66666666666663</ele><time>2026-04-25T13:48:06.106Z</time></trkpt><trkpt lat="43.0829993" lon="11.6390471"><ele>361.0</ele><time>2026-04-25T13:48:07.106Z</time></trkpt><trkpt lat="43.0830989" lon="11.6387722"><ele>359.66666666666663</ele><time>2026-04-25T13:48:08.105Z</time></trkpt><trkpt lat="43.0831939" lon="11.6384945"><ele>358.3333333333333</ele><time>2026-04-25T13:48:09.106Z</time></trkpt><trkpt lat="43.0832779" lon="11.6382146"><ele>357.0</ele><time>2026-04-25T13:48:10.106Z</time></trkpt><trkpt lat="43.0833473" lon="11.6379286"><ele>355.3333333333333</ele><time>2026-04-25T13:48:11.105Z</time></trkpt><trkpt lat="43.0833978" lon="11.6376313"><ele>353.66666666666663</ele><time>2026-04-25T13:48:12.106Z</time></trkpt><trkpt lat="43.0834225" lon="11.6373284"><ele>352.0</ele><time>2026-04-25T13:48:13.106Z</time></trkpt><trkpt lat="43.0834334" lon="11.6370217"><ele>351.0</ele><time>2026-04-25T13:48:14.106Z</time></trkpt><trkpt lat="43.0834412" lon="11.6367155"><ele>350.0</ele><time>2026-04-25T13:48:15.105Z</time></trkpt><trkpt lat="43.0834398" lon="11.6364093"><ele>349.0</ele><time>2026-04-25T13:48:16.106Z</time></trkpt><trkpt lat="43.0834459" lon="11.6361077"><ele>349.0</ele><time>2026-04-25T13:48:17.106Z</time></trkpt><trkpt lat="43.0834547" lon="11.6358208"><ele>349.0</ele><time>2026-04-25T13:48:18.106Z</time></trkpt><trkpt lat="43.0834625" lon="11.6355515"><ele>349.0</ele><time>2026-04-25T13:48:19.106Z</time></trkpt><trkpt lat="43.0834704" lon="11.6352995"><ele>349.0</ele><time>2026-04-25T13:48:20.105Z</time></trkpt><trkpt lat="43.0834778" lon="11.6350533"><ele>349.0</ele><time>2026-04-25T13:48:21.106Z</time></trkpt><trkpt lat="43.0834889" lon="11.6348127"><ele>349.0</ele><time>2026-04-25T13:48:22.105Z</time></trkpt><trkpt lat="43.0835076" lon="11.6345911"><ele>350.3333333333333</ele><time>2026-04-25T13:48:23.106Z</time></trkpt><trkpt lat="43.083535" lon="11.6343728"><ele>351.6666666666667</ele><time>2026-04-25T13:48:24.106Z</time></trkpt><trkpt lat="43.0835638" lon="11.6341587"><ele>353.0</ele><time>2026-04-25T13:48:25.106Z</time></trkpt><trkpt lat="43.0835894" lon="11.6339524"><ele>353.0</ele><time>2026-04-25T13:48:26.105Z</time></trkpt><trkpt lat="43.083617" lon="11.6337494"><ele>353.0</ele><time>2026-04-25T13:48:27.105Z</time></trkpt><trkpt lat="43.0836456" lon="11.6335469"><ele>353.0</ele><time>2026-04-25T13:48:28.105Z</time></trkpt><trkpt lat="43.0836744" lon="11.6333403"><ele>354.0</ele><time>2026-04-25T13:48:29.106Z</time></trkpt><trkpt lat="43.0836974" lon="11.6331299"><ele>355.0</ele><time>2026-04-25T13:48:30.105Z</time></trkpt><trkpt lat="43.0837143" lon="11.6328971"><ele>356.0</ele><time>2026-04-25T13:48:31.106Z</time></trkpt><trkpt lat="43.083723" lon="11.6326397"><ele>356.0</ele><time>2026-04-25T13:48:32.106Z</time></trkpt><trkpt lat="43.0837291" lon="11.6323765"><ele>356.0</ele><time>2026-04-25T13:48:33.106Z</time></trkpt><trkpt lat="43.0837374" lon="11.6321108"><ele>356.0</ele><time>2026-04-25T13:48:34.106Z</time></trkpt><trkpt lat="43.0837526" lon="11.631855"><ele>352.33333333333337</ele><time>2026-04-25T13:48:35.105Z</time></trkpt><trkpt lat="43.0837715" lon="11.6316182"><ele>348.6666666666667</ele><time>2026-04-25T13:48:36.106Z</time></trkpt><trkpt lat="43.0837895" lon="11.6313882"><ele>345.0</ele><time>2026-04-25T13:48:37.106Z</time></trkpt><trkpt lat="43.0838002" lon="11.631187"><ele>343.5</ele><time>2026-04-25T13:48:38.105Z</time></trkpt><trkpt lat="43.0838086" lon="11.6309913"><ele>342.0</ele><time>2026-04-25T13:48:39.106Z</time></trkpt><trkpt lat="43.0838164" lon="11.6307993"><ele>340.5</ele><time>2026-04-25T13:48:40.106Z</time></trkpt><trkpt lat="43.0838194" lon="11.630623"><ele>339.0</ele><time>2026-04-25T13:48:41.106Z</time></trkpt><trkpt lat="43.0838155" lon="11.6304559"><ele>339.0</ele><time>2026-04-25T13:48:42.106Z</time></trkpt><trkpt lat="43.083804" lon="11.6302986"><ele>339.0</ele><time>2026-04-25T13:48:43.105Z</time></trkpt><trkpt lat="43.0837782" lon="11.6301527"><ele>339.0</ele><time>2026-04-25T13:48:44.106Z</time></trkpt><trkpt lat="43.0837394" lon="11.6300186"><ele>339.0</ele><time>2026-04-25T13:48:45.106Z</time></trkpt><trkpt lat="43.0836928" lon="11.6298849"><ele>339.0</ele><time>2026-04-25T13:48:46.106Z</time></trkpt><trkpt lat="43.0836293" lon="11.6297555"><ele>339.0</ele><time>2026-04-25T13:48:47.106Z</time></trkpt><trkpt lat="43.08355" lon="11.6296196"><ele>339.0</ele><time>2026-04-25T13:48:48.105Z</time></trkpt><trkpt lat="43.0834617" lon="11.6295045"><ele>339.0</ele><time>2026-04-25T13:48:49.106Z</time></trkpt><trkpt lat="43.0833642" lon="11.6294166"><ele>339.0</ele><time>2026-04-25T13:48:50.106Z</time></trkpt><trkpt lat="43.0832598" lon="11.6293587"><ele>337.6666666666667</ele><time>2026-04-25T13:48:51.106Z</time></trkpt><trkpt lat="43.0831367" lon="11.6293128"><ele>336.33333333333337</ele><time>2026-04-25T13:48:52.106Z</time></trkpt><trkpt lat="43.0829848" lon="11.6292921"><ele>335.0</ele><time>2026-04-25T13:48:53.105Z</time></trkpt><trkpt lat="43.0828049" lon="11.6292745"><ele>335.0</ele><time>2026-04-25T13:48:54.106Z</time></trkpt><trkpt lat="43.0826064" lon="11.6292487"><ele>335.0</ele><time>2026-04-25T13:48:55.105Z</time></trkpt><trkpt lat="43.0824065" lon="11.6292182"><ele>335.0</ele><time>2026-04-25T13:48:56.106Z</time></trkpt><trkpt lat="43.0822097" lon="11.6291929"><ele>335.6666666666667</ele><time>2026-04-25T13:48:57.105Z</time></trkpt><trkpt lat="43.0820072" lon="11.6291665"><ele>336.3333333333333</ele><time>2026-04-25T13:48:58.105Z</time></trkpt><trkpt lat="43.0817906" lon="11.6291498"><ele>337.0</ele><time>2026-04-25T13:48:59.106Z</time></trkpt><trkpt lat="43.0815736" lon="11.6291287"><ele>339.0</ele><time>2026-04-25T13:49:00.105Z</time></trkpt><trkpt lat="43.0813585" lon="11.6290971"><ele>341.0</ele><time>2026-04-25T13:49:01.106Z</time></trkpt><trkpt lat="43.081153" lon="11.6290265"><ele>343.0</ele><time>2026-04-25T13:49:02.105Z</time></trkpt><trkpt lat="43.0809535" lon="11.6289214"><ele>343.0</ele><time>2026-04-25T13:49:03.106Z</time></trkpt><trkpt lat="43.0807723" lon="11.628794"><ele>343.0</ele><time>2026-04-25T13:49:04.106Z</time></trkpt><trkpt lat="43.0805927" lon="11.6286736"><ele>343.0</ele><time>2026-04-25T13:49:05.106Z</time></trkpt><trkpt lat="43.0804068" lon="11.6285899"><ele>343.0</ele><time>2026-04-25T13:49:06.106Z</time></trkpt><trkpt lat="43.0802099" lon="11.628568"><ele>343.0</ele><time>2026-04-25T13:49:07.106Z</time></trkpt><trkpt lat="43.0800087" lon="11.6285773"><ele>343.0</ele><time>2026-04-25T13:49:08.106Z</time></trkpt><trkpt lat="43.0798033" lon="11.6286182"><ele>342.0</ele><time>2026-04-25T13:49:09.106Z</time></trkpt><trkpt lat="43.0795922" lon="11.6286646"><ele>341.0</ele><time>2026-04-25T13:49:10.106Z</time></trkpt><trkpt lat="43.0793823" lon="11.628712"><ele>340.0</ele><time>2026-04-25T13:49:11.106Z</time></trkpt><trkpt lat="43.0791661" lon="11.6287507"><ele>340.66666666666663</ele><time>2026-04-25T13:49:12.105Z</time></trkpt><trkpt lat="43.078948" lon="11.6287773"><ele>341.3333333333333</ele><time>2026-04-25T13:49:13.106Z</time></trkpt><trkpt lat="43.0787248" lon="11.628773"><ele>342.0</ele><time>2026-04-25T13:49:14.106Z</time></trkpt><trkpt lat="43.0785026" lon="11.6287481"><ele>342.0</ele><time>2026-04-25T13:49:15.105Z</time></trkpt><trkpt lat="43.0782831" lon="11.6286793"><ele>342.0</ele><time>2026-04-25T13:49:16.106Z</time></trkpt><trkpt lat="43.0780721" lon="11.6285863"><ele>342.0</ele><time>2026-04-25T13:49:17.106Z</time></trkpt><trkpt lat="43.0778597" lon="11.62849"><ele>343.0</ele><time>2026-04-25T13:49:18.106Z</time></trkpt><trkpt lat="43.0776456" lon="11.6283934"><ele>344.0</ele><time>2026-04-25T13:49:19.105Z</time></trkpt><trkpt lat="43.0774251" lon="11.6282979"><ele>344.0</ele><time>2026-04-25T13:49:20.106Z</time></trkpt><trkpt lat="43.077207" lon="11.6281989"><ele>344.0</ele><time>2026-04-25T13:49:21.106Z</time></trkpt><trkpt lat="43.0769843" lon="11.6281074"><ele>344.0</ele><time>2026-04-25T13:49:22.106Z</time></trkpt><trkpt lat="43.0767659" lon="11.6280084"><ele>344.0</ele><time>2026-04-25T13:49:23.105Z</time></trkpt><trkpt lat="43.0765478" lon="11.6279121"><ele>346.5</ele><time>2026-04-25T13:49:24.105Z</time></trkpt><trkpt lat="43.0763298" lon="11.6278134"><ele>349.0</ele><time>2026-04-25T13:49:25.106Z</time></trkpt><trkpt lat="43.076112" lon="11.6277172"><ele>349.0</ele><time>2026-04-25T13:49:26.106Z</time></trkpt><trkpt lat="43.0758923" lon="11.6276198"><ele>349.0</ele><time>2026-04-25T13:49:27.106Z</time></trkpt><trkpt lat="43.0756699" lon="11.6275253"><ele>352.0</ele><time>2026-04-25T13:49:28.106Z</time></trkpt><trkpt lat="43.07545" lon="11.62743"><ele>355.0</ele><time>2026-04-25T13:49:29.106Z</time></trkpt><trkpt lat="43.075235" lon="11.6273395"><ele>355.0</ele><time>2026-04-25T13:49:30.106Z</time></trkpt><trkpt lat="43.0750297" lon="11.6272493"><ele>355.0</ele><time>2026-04-25T13:49:31.106Z</time></trkpt><trkpt lat="43.0748343" lon="11.6271514"><ele>355.0</ele><time>2026-04-25T13:49:32.106Z</time></trkpt><trkpt lat="43.0746501" lon="11.6270049"><ele>354.66666666666663</ele><time>2026-04-25T13:49:33.106Z</time></trkpt><trkpt lat="43.0744898" lon="11.6268214"><ele>354.3333333333333</ele><time>2026-04-25T13:49:34.105Z</time></trkpt><trkpt lat="43.074359" lon="11.626607"><ele>354.0</ele><time>2026-04-25T13:49:35.106Z</time></trkpt><trkpt lat="43.0742382" lon="11.6263886"><ele>354.0</ele><time>2026-04-25T13:49:36.106Z</time></trkpt><trkpt lat="43.074116" lon="11.6261659"><ele>354.0</ele><time>2026-04-25T13:49:37.106Z</time></trkpt><trkpt lat="43.0739874" lon="11.6259482"><ele>354.0</ele><time>2026-04-25T13:49:38.105Z</time></trkpt><trkpt lat="43.0738549" lon="11.6257279"><ele>353.6666666666667</ele><time>2026-04-25T13:49:39.106Z</time></trkpt><trkpt lat="43.0737244" lon="11.6255028"><ele>353.33333333333337</ele><time>2026-04-25T13:49:40.106Z</time></trkpt><trkpt lat="43.0735903" lon="11.6252814"><ele>353.0</ele><time>2026-04-25T13:49:41.106Z</time></trkpt><trkpt lat="43.0734622" lon="11.6250583"><ele>353.6666666666667</ele><time>2026-04-25T13:49:42.105Z</time></trkpt><trkpt lat="43.0733456" lon="11.624822"><ele>354.3333333333333</ele><time>2026-04-25T13:49:43.106Z</time></trkpt><trkpt lat="43.073253" lon="11.624566"><ele>355.0</ele><time>2026-04-25T13:49:44.105Z</time></trkpt><trkpt lat="43.073188" lon="11.6243097"><ele>356.66666666666663</ele><time>2026-04-25T13:49:45.106Z</time></trkpt><trkpt lat="43.073143" lon="11.6240584"><ele>358.3333333333333</ele><time>2026-04-25T13:49:46.106Z</time></trkpt><trkpt lat="43.0731231" lon="11.6238146"><ele>360.0</ele><time>2026-04-25T13:49:47.106Z</time></trkpt><trkpt lat="43.0731166" lon="11.623581"><ele>360.0</ele><time>2026-04-25T13:49:48.106Z</time></trkpt><trkpt lat="43.0731238" lon="11.6233704"><ele>360.0</ele><time>2026-04-25T13:49:49.106Z</time></trkpt><trkpt lat="43.0731434" lon="11.6231752"><ele>360.0</ele><time>2026-04-25T13:49:50.106Z</time></trkpt><trkpt lat="43.073175" lon="11.6229807"><ele>360.0</ele><time>2026-04-25T13:49:51.106Z</time></trkpt><trkpt lat="43.0732116" lon="11.6227704"><ele>360.6666666666667</ele><time>2026-04-25T13:49:52.106Z</time></trkpt><trkpt lat="43.0732593" lon="11.6225478"><ele>361.33333333333337</ele><time>2026-04-25T13:49:53.106Z</time></trkpt><trkpt lat="43.0733173" lon="11.6223268"><ele>362.0</ele><time>2026-04-25T13:49:54.106Z</time></trkpt><trkpt lat="43.0733754" lon="11.6220987"><ele>362.6666666666667</ele><time>2026-04-25T13:49:55.105Z</time></trkpt><trkpt lat="43.0734289" lon="11.6218729"><ele>363.3333333333333</ele><time>2026-04-25T13:49:56.105Z</time></trkpt><trkpt lat="43.073466" lon="11.6216508"><ele>364.0</ele><time>2026-04-25T13:49:57.106Z</time></trkpt><trkpt lat="43.073475" lon="11.621442"><ele>364.0</ele><time>2026-04-25T13:49:58.106Z</time></trkpt><trkpt lat="43.0734647" lon="11.6212577"><ele>364.0</ele><time>2026-04-25T13:49:59.105Z</time></trkpt><trkpt lat="43.0734434" lon="11.6210858"><ele>364.0</ele><time>2026-04-25T13:50:00.105Z</time></trkpt><trkpt lat="43.0734151" lon="11.6209155"><ele>364.0</ele><time>2026-04-25T13:50:01.106Z</time></trkpt><trkpt lat="43.0733867" lon="11.6207523"><ele>364.75</ele><time>2026-04-25T13:50:02.106Z</time></trkpt><trkpt lat="43.0733502" lon="11.6205945"><ele>365.5</ele><time>2026-04-25T13:50:03.106Z</time></trkpt><trkpt lat="43.0732995" lon="11.6204355"><ele>366.25</ele><time>2026-04-25T13:50:04.106Z</time></trkpt><trkpt lat="43.0732386" lon="11.6202942"><ele>367.0</ele><time>2026-04-25T13:50:05.105Z</time></trkpt><trkpt lat="43.0731751" lon="11.6201567"><ele>367.5</ele><time>2026-04-25T13:50:06.106Z</time></trkpt><trkpt lat="43.0730992" lon="11.6200236"><ele>368.0</ele><time>2026-04-25T13:50:07.106Z</time></trkpt><trkpt lat="43.0730097" lon="11.6198946"><ele>368.5</ele><time>2026-04-25T13:50:08.106Z</time></trkpt><trkpt lat="43.0728985" lon="11.6197744"><ele>369.0</ele><time>2026-04-25T13:50:09.106Z</time></trkpt><trkpt lat="43.0727704" lon="11.6196662"><ele>369.0</ele><time>2026-04-25T13:50:10.106Z</time></trkpt><trkpt lat="43.0726227" lon="11.6195605"><ele>369.0</ele><time>2026-04-25T13:50:11.106Z</time></trkpt><trkpt lat="43.0724684" lon="11.6194551"><ele>369.0</ele><time>2026-04-25T13:50:12.106Z</time></trkpt><trkpt lat="43.0723056" lon="11.6193438"><ele>368.0</ele><time>2026-04-25T13:50:13.106Z</time></trkpt><trkpt lat="43.0721329" lon="11.6192329"><ele>367.0</ele><time>2026-04-25T13:50:14.106Z</time></trkpt><trkpt lat="43.0719533" lon="11.6191101"><ele>366.0</ele><time>2026-04-25T13:50:15.106Z</time></trkpt><trkpt lat="43.0717695" lon="11.6189902"><ele>367.6666666666667</ele><time>2026-04-25T13:50:16.105Z</time></trkpt><trkpt lat="43.0715824" lon="11.6188691"><ele>369.33333333333337</ele><time>2026-04-25T13:50:17.106Z</time></trkpt><trkpt lat="43.0713977" lon="11.6187495"><ele>371.0</ele><time>2026-04-25T13:50:18.105Z</time></trkpt><trkpt lat="43.0712116" lon="11.6186256"><ele>371.0</ele><time>2026-04-25T13:50:19.106Z</time></trkpt><trkpt lat="43.0710197" lon="11.6185007"><ele>371.0</ele><time>2026-04-25T13:50:20.106Z</time></trkpt><trkpt lat="43.0708289" lon="11.6183702"><ele>371.0</ele><time>2026-04-25T13:50:21.106Z</time></trkpt><trkpt lat="43.0706407" lon="11.6182278"><ele>373.33333333333337</ele><time>2026-04-25T13:50:22.106Z</time></trkpt><trkpt lat="43.070468" lon="11.6180555"><ele>375.6666666666667</ele><time>2026-04-25T13:50:23.106Z</time></trkpt><trkpt lat="43.0703258" lon="11.6178409"><ele>378.0</ele><time>2026-04-25T13:50:24.106Z</time></trkpt><trkpt lat="43.0702035" lon="11.6175979"><ele>378.3333333333333</ele><time>2026-04-25T13:50:25.106Z</time></trkpt><trkpt lat="43.0701002" lon="11.6173413"><ele>378.66666666666663</ele><time>2026-04-25T13:50:26.106Z</time></trkpt><trkpt lat="43.0700104" lon="11.6170657"><ele>379.0</ele><time>2026-04-25T13:50:27.106Z</time></trkpt><trkpt lat="43.0699289" lon="11.6167898"><ele>379.3333333333333</ele><time>2026-04-25T13:50:28.106Z</time></trkpt><trkpt lat="43.069845" lon="11.6165105"><ele>379.6666666666667</ele><time>2026-04-25T13:50:29.106Z</time></trkpt><trkpt lat="43.0697514" lon="11.6162426"><ele>380.0</ele><time>2026-04-25T13:50:30.106Z</time></trkpt><trkpt lat="43.0696372" lon="11.6160021"><ele>381.33333333333337</ele><time>2026-04-25T13:50:31.106Z</time></trkpt><trkpt lat="43.0694934" lon="11.615778"><ele>382.6666666666667</ele><time>2026-04-25T13:50:32.105Z</time></trkpt><trkpt lat="43.0693276" lon="11.6155913"><ele>384.0</ele><time>2026-04-25T13:50:33.105Z</time></trkpt><trkpt lat="43.0691488" lon="11.615433"><ele>387.0</ele><time>2026-04-25T13:50:34.106Z</time></trkpt><trkpt lat="43.0689561" lon="11.6153144"><ele>390.0</ele><time>2026-04-25T13:50:35.106Z</time></trkpt><trkpt lat="43.0687562" lon="11.6152385"><ele>393.0</ele><time>2026-04-25T13:50:36.106Z</time></trkpt><trkpt lat="43.0685508" lon="11.6151688"><ele>393.0</ele><time>2026-04-25T13:50:37.106Z</time></trkpt><trkpt lat="43.0683439" lon="11.6150861"><ele>393.0</ele><time>2026-04-25T13:50:38.105Z</time></trkpt><trkpt lat="43.0681425" lon="11.6150067"><ele>393.0</ele><time>2026-04-25T13:50:39.105Z</time></trkpt><trkpt lat="43.0679451" lon="11.6149309"><ele>394.0</ele><time>2026-04-25T13:50:40.106Z</time></trkpt><trkpt lat="43.0677515" lon="11.6148586"><ele>395.0</ele><time>2026-04-25T13:50:41.106Z</time></trkpt><trkpt lat="43.0675699" lon="11.6147861"><ele>396.0</ele><time>2026-04-25T13:50:42.105Z</time></trkpt><trkpt lat="43.0674022" lon="11.6147244"><ele>396.33333333333337</ele><time>2026-04-25T13:50:43.106Z</time></trkpt><trkpt lat="43.0672433" lon="11.6146669"><ele>396.6666666666667</ele><time>2026-04-25T13:50:44.106Z</time></trkpt><trkpt lat="43.0670919" lon="11.6146141"><ele>397.0</ele><time>2026-04-25T13:50:45.106Z</time></trkpt><trkpt lat="43.0669446" lon="11.614556"><ele>397.0</ele><time>2026-04-25T13:50:46.106Z</time></trkpt><trkpt lat="43.0668055" lon="11.6144973"><ele>397.0</ele><time>2026-04-25T13:50:47.106Z</time></trkpt><trkpt lat="43.066668" lon="11.6144323"><ele>397.0</ele><time>2026-04-25T13:50:48.106Z</time></trkpt><trkpt lat="43.066535" lon="11.614357"><ele>397.0</ele><time>2026-04-25T13:50:49.106Z</time></trkpt><trkpt lat="43.0664113" lon="11.6142595"><ele>398.0</ele><time>2026-04-25T13:50:50.106Z</time></trkpt><trkpt lat="43.0662931" lon="11.6141355"><ele>399.0</ele><time>2026-04-25T13:50:51.106Z</time></trkpt><trkpt lat="43.0661843" lon="11.6139924"><ele>400.0</ele><time>2026-04-25T13:50:52.106Z</time></trkpt><trkpt lat="43.0660885" lon="11.6138319"><ele>400.0</ele><time>2026-04-25T13:50:53.106Z</time></trkpt><trkpt lat="43.0660081" lon="11.6136659"><ele>400.0</ele><time>2026-04-25T13:50:54.106Z</time></trkpt><trkpt lat="43.0659322" lon="11.6134801"><ele>400.0</ele><time>2026-04-25T13:50:55.105Z</time></trkpt><trkpt lat="43.065861" lon="11.613291"><ele>400.0</ele><time>2026-04-25T13:50:56.106Z</time></trkpt><trkpt lat="43.0657974" lon="11.6131122"><ele>400.0</ele><time>2026-04-25T13:50:57.106Z</time></trkpt><trkpt lat="43.0657344" lon="11.6129459"><ele>400.0</ele><time>2026-04-25T13:50:58.106Z</time></trkpt><trkpt lat="43.0656779" lon="11.6127911"><ele>400.0</ele><time>2026-04-25T13:50:59.106Z</time></trkpt><trkpt lat="43.0656264" lon="11.6126565"><ele>399.83333333333337</ele><time>2026-04-25T13:51:00.105Z</time></trkpt><trkpt lat="43.0655848" lon="11.6125446"><ele>399.6666666666667</ele><time>2026-04-25T13:51:01.106Z</time></trkpt><trkpt lat="43.0655536" lon="11.6124581"><ele>399.5</ele><time>2026-04-25T13:51:02.106Z</time></trkpt><trkpt lat="43.0655212" lon="11.6123051"><ele>399.33333333333337</ele><time>2026-04-25T13:51:04.106Z</time></trkpt><trkpt lat="43.065503" lon="11.6122027"><ele>399.1666666666667</ele><time>2026-04-25T13:51:06.106Z</time></trkpt><trkpt lat="43.0655003" lon="11.6121108"><ele>399.0</ele><time>2026-04-25T13:51:09.106Z</time></trkpt><trkpt lat="43.0654921" lon="11.6120203"><ele>399.0</ele><time>2026-04-25T13:54:45.105Z</time></trkpt><trkpt lat="43.0654478" lon="11.612089"><ele>399.0</ele><time>2026-04-25T13:55:48.106Z</time></trkpt><trkpt lat="43.0654319" lon="11.6122024"><ele>399.0</ele><time>2026-04-25T13:56:19.106Z</time></trkpt><trkpt lat="43.0654554" lon="11.612283"><ele>399.0</ele><time>2026-04-25T13:56:20.106Z</time></trkpt><trkpt lat="43.0654851" lon="11.6123791"><ele>399.0</ele><time>2026-04-25T13:56:21.106Z</time></trkpt><trkpt lat="43.0655287" lon="11.6124871"><ele>399.0</ele><time>2026-04-25T13:56:22.106Z</time></trkpt><trkpt lat="43.0655713" lon="11.6126074"><ele>399.0</ele><time>2026-04-25T13:56:23.106Z</time></trkpt><trkpt lat="43.0656221" lon="11.6127465"><ele>399.0</ele><time>2026-04-25T13:56:24.106Z</time></trkpt><trkpt lat="43.0656805" lon="11.6128944"><ele>399.0</ele><time>2026-04-25T13:56:25.106Z</time></trkpt><trkpt lat="43.0657397" lon="11.613049"><ele>399.0</ele><time>2026-04-25T13:56:26.105Z</time></trkpt><trkpt lat="43.0658002" lon="11.6132082"><ele>399.25</ele><time>2026-04-25T13:56:27.106Z</time></trkpt><trkpt lat="43.0658605" lon="11.6133739"><ele>399.5</ele><time>2026-04-25T13:56:28.106Z</time></trkpt><trkpt lat="43.0659228" lon="11.6135484"><ele>399.75</ele><time>2026-04-25T13:56:29.105Z</time></trkpt><trkpt lat="43.0659918" lon="11.6137208"><ele>400.0</ele><time>2026-04-25T13:56:30.106Z</time></trkpt><trkpt lat="43.0660776" lon="11.6138901"><ele>400.0</ele><time>2026-04-25T13:56:31.106Z</time></trkpt><trkpt lat="43.0661815" lon="11.6140436"><ele>400.0</ele><time>2026-04-25T13:56:32.105Z</time></trkpt><trkpt lat="43.0662997" lon="11.6141846"><ele>400.0</ele><time>2026-04-25T13:56:33.105Z</time></trkpt><trkpt lat="43.0664333" lon="11.6143131"><ele>400.0</ele><time>2026-04-25T13:56:34.106Z</time></trkpt><trkpt lat="43.0665796" lon="11.6144243"><ele>400.0</ele><time>2026-04-25T13:56:35.106Z</time></trkpt><trkpt lat="43.0667336" lon="11.6145148"><ele>400.0</ele><time>2026-04-25T13:56:36.106Z</time></trkpt><trkpt lat="43.0668976" lon="11.6145841"><ele>399.0</ele><time>2026-04-25T13:56:37.106Z</time></trkpt><trkpt lat="43.0670608" lon="11.6146415"><ele>398.0</ele><time>2026-04-25T13:56:38.106Z</time></trkpt><trkpt lat="43.0672223" lon="11.6147005"><ele>397.0</ele><time>2026-04-25T13:56:39.106Z</time></trkpt><trkpt lat="43.0673866" lon="11.6147624"><ele>396.6666666666667</ele><time>2026-04-25T13:56:40.106Z</time></trkpt><trkpt lat="43.0675478" lon="11.6148207"><ele>396.33333333333337</ele><time>2026-04-25T13:56:41.106Z</time></trkpt><trkpt lat="43.0677076" lon="11.6148787"><ele>396.0</ele><time>2026-04-25T13:56:42.106Z</time></trkpt><trkpt lat="43.0678668" lon="11.614941"><ele>396.0</ele><time>2026-04-25T13:56:43.106Z</time></trkpt><trkpt lat="43.0680249" lon="11.6149977"><ele>396.0</ele><time>2026-04-25T13:56:44.105Z</time></trkpt><trkpt lat="43.0681806" lon="11.6150546"><ele>396.0</ele><time>2026-04-25T13:56:45.105Z</time></trkpt><trkpt lat="43.0683338" lon="11.6151154"><ele>395.0</ele><time>2026-04-25T13:56:46.106Z</time></trkpt><trkpt lat="43.0684851" lon="11.6151749"><ele>394.0</ele><time>2026-04-25T13:56:47.105Z</time></trkpt><trkpt lat="43.0686345" lon="11.6152326"><ele>393.0</ele><time>2026-04-25T13:56:48.106Z</time></trkpt><trkpt lat="43.0687764" lon="11.6152887"><ele>391.75</ele><time>2026-04-25T13:56:49.105Z</time></trkpt><trkpt lat="43.0689184" lon="11.6153455"><ele>390.5</ele><time>2026-04-25T13:56:50.106Z</time></trkpt><trkpt lat="43.0690504" lon="11.6154132"><ele>389.25</ele><time>2026-04-25T13:56:51.106Z</time></trkpt><trkpt lat="43.0691772" lon="11.6154968"><ele>388.0</ele><time>2026-04-25T13:56:52.105Z</time></trkpt><trkpt lat="43.0692938" lon="11.6155936"><ele>387.0</ele><time>2026-04-25T13:56:53.106Z</time></trkpt><trkpt lat="43.0694088" lon="11.6157023"><ele>386.0</ele><time>2026-04-25T13:56:54.106Z</time></trkpt><trkpt lat="43.0695206" lon="11.6158211"><ele>385.0</ele><time>2026-04-25T13:56:55.105Z</time></trkpt><trkpt lat="43.0696069" lon="11.6159663"><ele>384.0</ele><time>2026-04-25T13:56:56.105Z</time></trkpt><trkpt lat="43.0696826" lon="11.6161158"><ele>383.0</ele><time>2026-04-25T13:56:57.106Z</time></trkpt><trkpt lat="43.0697527" lon="11.6162679"><ele>382.0</ele><time>2026-04-25T13:56:58.106Z</time></trkpt><trkpt lat="43.0698125" lon="11.6164244"><ele>381.0</ele><time>2026-04-25T13:56:59.106Z</time></trkpt><trkpt lat="43.0698631" lon="11.616581"><ele>380.0</ele><time>2026-04-25T13:57:00.106Z</time></trkpt><trkpt lat="43.0699083" lon="11.6167398"><ele>379.75</ele><time>2026-04-25T13:57:01.106Z</time></trkpt><trkpt lat="43.0699474" lon="11.6168992"><ele>379.5</ele><time>2026-04-25T13:57:02.106Z</time></trkpt><trkpt lat="43.0699952" lon="11.617057"><ele>379.25</ele><time>2026-04-25T13:57:03.106Z</time></trkpt><trkpt lat="43.0700417" lon="11.6172129"><ele>379.0</ele><time>2026-04-25T13:57:04.106Z</time></trkpt><trkpt lat="43.0700877" lon="11.6173626"><ele>379.0</ele><time>2026-04-25T13:57:05.105Z</time></trkpt><trkpt lat="43.0701408" lon="11.6175056"><ele>379.0</ele><time>2026-04-25T13:57:06.105Z</time></trkpt><trkpt lat="43.0702042" lon="11.6176561"><ele>379.0</ele><time>2026-04-25T13:57:07.106Z</time></trkpt><trkpt lat="43.0702777" lon="11.6178044"><ele>379.0</ele><time>2026-04-25T13:57:08.106Z</time></trkpt><trkpt lat="43.0703641" lon="11.6179474"><ele>378.75</ele><time>2026-04-25T13:57:09.106Z</time></trkpt><trkpt lat="43.0704663" lon="11.6180788"><ele>378.5</ele><time>2026-04-25T13:57:10.106Z</time></trkpt><trkpt lat="43.0705857" lon="11.6181996"><ele>378.25</ele><time>2026-04-25T13:57:11.106Z</time></trkpt><trkpt lat="43.0707136" lon="11.6183131"><ele>378.0</ele><time>2026-04-25T13:57:12.106Z</time></trkpt><trkpt lat="43.070848" lon="11.6184161"><ele>376.0</ele><time>2026-04-25T13:57:13.106Z</time></trkpt><trkpt lat="43.0709934" lon="11.6185247"><ele>374.0</ele><time>2026-04-25T13:57:14.106Z</time></trkpt><trkpt lat="43.0711462" lon="11.6186294"><ele>372.0</ele><time>2026-04-25T13:57:15.106Z</time></trkpt><trkpt lat="43.0713007" lon="11.6187248"><ele>372.0</ele><time>2026-04-25T13:57:16.106Z</time></trkpt><trkpt lat="43.0714609" lon="11.6188197"><ele>372.0</ele><time>2026-04-25T13:57:17.106Z</time></trkpt><trkpt lat="43.0716243" lon="11.6189251"><ele>372.0</ele><time>2026-04-25T13:57:18.106Z</time></trkpt><trkpt lat="43.0717933" lon="11.6190334"><ele>370.0</ele><time>2026-04-25T13:57:19.106Z</time></trkpt><trkpt lat="43.0719628" lon="11.619149"><ele>368.0</ele><time>2026-04-25T13:57:20.106Z</time></trkpt><trkpt lat="43.072134" lon="11.6192582"><ele>366.0</ele><time>2026-04-25T13:57:21.105Z</time></trkpt><trkpt lat="43.0723079" lon="11.6193735"><ele>367.0</ele><time>2026-04-25T13:57:22.106Z</time></trkpt><trkpt lat="43.0724848" lon="11.6194858"><ele>368.0</ele><time>2026-04-25T13:57:23.106Z</time></trkpt><trkpt lat="43.0726587" lon="11.6196041"><ele>369.0</ele><time>2026-04-25T13:57:24.105Z</time></trkpt><trkpt lat="43.0728276" lon="11.6197435"><ele>369.0</ele><time>2026-04-25T13:57:25.105Z</time></trkpt><trkpt lat="43.0729864" lon="11.6199195"><ele>369.0</ele><time>2026-04-25T13:57:26.106Z</time></trkpt><trkpt lat="43.0731243" lon="11.6201304"><ele>369.0</ele><time>2026-04-25T13:57:27.106Z</time></trkpt><trkpt lat="43.0732349" lon="11.6203797"><ele>368.3333333333333</ele><time>2026-04-25T13:57:28.106Z</time></trkpt><trkpt lat="43.0733255" lon="11.6206478"><ele>367.66666666666663</ele><time>2026-04-25T13:57:29.106Z</time></trkpt><trkpt lat="43.0733955" lon="11.6209258"><ele>367.0</ele><time>2026-04-25T13:57:30.105Z</time></trkpt><trkpt lat="43.0734364" lon="11.6212018"><ele>366.0</ele><time>2026-04-25T13:57:31.106Z</time></trkpt><trkpt lat="43.073438" lon="11.6214881"><ele>365.0</ele><time>2026-04-25T13:57:32.106Z</time></trkpt><trkpt lat="43.0734115" lon="11.6217729"><ele>364.0</ele><time>2026-04-25T13:57:33.106Z</time></trkpt><trkpt lat="43.0733695" lon="11.6220556"><ele>363.3333333333333</ele><time>2026-04-25T13:57:34.106Z</time></trkpt><trkpt lat="43.0733102" lon="11.6223304"><ele>362.6666666666667</ele><time>2026-04-25T13:57:35.105Z</time></trkpt><trkpt lat="43.0732454" lon="11.6225994"><ele>362.0</ele><time>2026-04-25T13:57:36.106Z</time></trkpt><trkpt lat="43.0731849" lon="11.6228729"><ele>361.33333333333337</ele><time>2026-04-25T13:57:37.106Z</time></trkpt><trkpt lat="43.0731387" lon="11.6231489"><ele>360.6666666666667</ele><time>2026-04-25T13:57:38.105Z</time></trkpt><trkpt lat="43.0731114" lon="11.6234314"><ele>360.0</ele><time>2026-04-25T13:57:39.105Z</time></trkpt><trkpt lat="43.0731075" lon="11.6237076"><ele>360.0</ele><time>2026-04-25T13:57:40.106Z</time></trkpt><trkpt lat="43.073121" lon="11.6239774"><ele>360.0</ele><time>2026-04-25T13:57:41.106Z</time></trkpt><trkpt lat="43.0731629" lon="11.6242412"><ele>360.0</ele><time>2026-04-25T13:57:42.106Z</time></trkpt><trkpt lat="43.073225" lon="11.6244976"><ele>360.3333333333333</ele><time>2026-04-25T13:57:43.106Z</time></trkpt><trkpt lat="43.073307" lon="11.6247424"><ele>360.66666666666663</ele><time>2026-04-25T13:57:44.106Z</time></trkpt><trkpt lat="43.0734038" lon="11.6249729"><ele>361.0</ele><time>2026-04-25T13:57:45.106Z</time></trkpt><trkpt lat="43.0735182" lon="11.6251946"><ele>358.3333333333333</ele><time>2026-04-25T13:57:46.105Z</time></trkpt><trkpt lat="43.0736494" lon="11.6254095"><ele>355.6666666666667</ele><time>2026-04-25T13:57:47.106Z</time></trkpt><trkpt lat="43.0737809" lon="11.6256337"><ele>353.0</ele><time>2026-04-25T13:57:48.106Z</time></trkpt><trkpt lat="43.0739091" lon="11.6258543"><ele>353.0</ele><time>2026-04-25T13:57:49.106Z</time></trkpt><trkpt lat="43.0740432" lon="11.6260763"><ele>353.0</ele><time>2026-04-25T13:57:50.105Z</time></trkpt><trkpt lat="43.0741725" lon="11.6262907"><ele>353.0</ele><time>2026-04-25T13:57:51.105Z</time></trkpt><trkpt lat="43.0742916" lon="11.6265013"><ele>353.33333333333337</ele><time>2026-04-25T13:57:52.106Z</time></trkpt><trkpt lat="43.0744087" lon="11.6267073"><ele>353.6666666666667</ele><time>2026-04-25T13:57:53.105Z</time></trkpt><trkpt lat="43.0745384" lon="11.6268991"><ele>354.0</ele><time>2026-04-25T13:57:54.106Z</time></trkpt><trkpt lat="43.0746771" lon="11.627055"><ele>354.3333333333333</ele><time>2026-04-25T13:57:55.106Z</time></trkpt><trkpt lat="43.0748446" lon="11.6271817"><ele>354.66666666666663</ele><time>2026-04-25T13:57:56.106Z</time></trkpt><trkpt lat="43.0750355" lon="11.6272813"><ele>355.0</ele><time>2026-04-25T13:57:57.106Z</time></trkpt><trkpt lat="43.0752323" lon="11.6273719"><ele>355.0</ele><time>2026-04-25T13:57:58.106Z</time></trkpt><trkpt lat="43.0754352" lon="11.6274592"><ele>355.0</ele><time>2026-04-25T13:57:59.106Z</time></trkpt><trkpt lat="43.0756426" lon="11.6275486"><ele>355.0</ele><time>2026-04-25T13:58:00.106Z</time></trkpt><trkpt lat="43.0758507" lon="11.6276382"><ele>353.3333333333333</ele><time>2026-04-25T13:58:01.106Z</time></trkpt><trkpt lat="43.0760568" lon="11.6277329"><ele>351.6666666666667</ele><time>2026-04-25T13:58:02.106Z</time></trkpt><trkpt lat="43.0762584" lon="11.6278241"><ele>350.0</ele><time>2026-04-25T13:58:03.106Z</time></trkpt><trkpt lat="43.0764609" lon="11.6279107"><ele>348.0</ele><time>2026-04-25T13:58:04.106Z</time></trkpt><trkpt lat="43.0766623" lon="11.6279948"><ele>346.0</ele><time>2026-04-25T13:58:05.105Z</time></trkpt><trkpt lat="43.076863" lon="11.6280869"><ele>344.0</ele><time>2026-04-25T13:58:06.106Z</time></trkpt><trkpt lat="43.0770617" lon="11.6281734"><ele>344.0</ele><time>2026-04-25T13:58:07.106Z</time></trkpt><trkpt lat="43.0772596" lon="11.6282578"><ele>344.0</ele><time>2026-04-25T13:58:08.106Z</time></trkpt><trkpt lat="43.0774554" lon="11.6283439"><ele>344.0</ele><time>2026-04-25T13:58:09.106Z</time></trkpt><trkpt lat="43.0776482" lon="11.6284271"><ele>344.6666666666667</ele><time>2026-04-25T13:58:10.106Z</time></trkpt><trkpt lat="43.0778374" lon="11.6285091"><ele>345.3333333333333</ele><time>2026-04-25T13:58:11.106Z</time></trkpt><trkpt lat="43.0780273" lon="11.6285947"><ele>346.0</ele><time>2026-04-25T13:58:12.106Z</time></trkpt><trkpt lat="43.0782164" lon="11.6286811"><ele>344.66666666666663</ele><time>2026-04-25T13:58:13.106Z</time></trkpt><trkpt lat="43.0784039" lon="11.6287537"><ele>343.3333333333333</ele><time>2026-04-25T13:58:14.106Z</time></trkpt><trkpt lat="43.0785849" lon="11.6287992"><ele>342.0</ele><time>2026-04-25T13:58:15.106Z</time></trkpt><trkpt lat="43.078758" lon="11.6288021"><ele>342.0</ele><time>2026-04-25T13:58:16.106Z</time></trkpt><trkpt lat="43.0789267" lon="11.6287915"><ele>342.0</ele><time>2026-04-25T13:58:17.106Z</time></trkpt><trkpt lat="43.0790842" lon="11.6287732"><ele>342.0</ele><time>2026-04-25T13:58:18.105Z</time></trkpt><trkpt lat="43.0792365" lon="11.6287505"><ele>341.3333333333333</ele><time>2026-04-25T13:58:19.106Z</time></trkpt><trkpt lat="43.0793874" lon="11.6287221"><ele>340.66666666666663</ele><time>2026-04-25T13:58:20.106Z</time></trkpt><trkpt lat="43.0795356" lon="11.6286942"><ele>340.0</ele><time>2026-04-25T13:58:21.106Z</time></trkpt><trkpt lat="43.0796861" lon="11.6286619"><ele>341.0</ele><time>2026-04-25T13:58:22.105Z</time></trkpt><trkpt lat="43.07984" lon="11.6286265"><ele>342.0</ele><time>2026-04-25T13:58:23.106Z</time></trkpt><trkpt lat="43.0799945" lon="11.628592"><ele>343.0</ele><time>2026-04-25T13:58:24.106Z</time></trkpt><trkpt lat="43.0801504" lon="11.6285764"><ele>343.3333333333333</ele><time>2026-04-25T13:58:25.106Z</time></trkpt><trkpt lat="43.0803059" lon="11.6285976"><ele>343.6666666666667</ele><time>2026-04-25T13:58:26.106Z</time></trkpt><trkpt lat="43.0804518" lon="11.6286441"><ele>344.0</ele><time>2026-04-25T13:58:27.106Z</time></trkpt><trkpt lat="43.0805943" lon="11.6287119"><ele>344.0</ele><time>2026-04-25T13:58:28.106Z</time></trkpt><trkpt lat="43.0807323" lon="11.6287966"><ele>344.0</ele><time>2026-04-25T13:58:29.105Z</time></trkpt><trkpt lat="43.0808677" lon="11.6288899"><ele>344.0</ele><time>2026-04-25T13:58:30.105Z</time></trkpt><trkpt lat="43.0810045" lon="11.6289832"><ele>343.6666666666667</ele><time>2026-04-25T13:58:31.106Z</time></trkpt><trkpt lat="43.0811501" lon="11.6290583"><ele>343.3333333333333</ele><time>2026-04-25T13:58:32.106Z</time></trkpt><trkpt lat="43.0812991" lon="11.6291111"><ele>343.0</ele><time>2026-04-25T13:58:33.106Z</time></trkpt><trkpt lat="43.0814498" lon="11.6291425"><ele>341.5</ele><time>2026-04-25T13:58:34.105Z</time></trkpt><trkpt lat="43.0815989" lon="11.629153"><ele>340.0</ele><time>2026-04-25T13:58:35.106Z</time></trkpt><trkpt lat="43.0817486" lon="11.6291613"><ele>338.5</ele><time>2026-04-25T13:58:36.105Z</time></trkpt><trkpt lat="43.0818942" lon="11.6291771"><ele>337.0</ele><time>2026-04-25T13:58:37.106Z</time></trkpt><trkpt lat="43.0820346" lon="11.6291912"><ele>337.0</ele><time>2026-04-25T13:58:38.106Z</time></trkpt><trkpt lat="43.0821717" lon="11.6292028"><ele>337.0</ele><time>2026-04-25T13:58:39.105Z</time></trkpt><trkpt lat="43.0823024" lon="11.6292158"><ele>337.0</ele><time>2026-04-25T13:58:40.106Z</time></trkpt><trkpt lat="43.0824314" lon="11.6292307"><ele>337.0</ele><time>2026-04-25T13:58:41.106Z</time></trkpt><trkpt lat="43.082557" lon="11.6292476"><ele>336.5</ele><time>2026-04-25T13:58:42.105Z</time></trkpt><trkpt lat="43.0826806" lon="11.6292634"><ele>336.0</ele><time>2026-04-25T13:58:43.106Z</time></trkpt><trkpt lat="43.0827999" lon="11.6292811"><ele>335.5</ele><time>2026-04-25T13:58:44.105Z</time></trkpt><trkpt lat="43.0829198" lon="11.6292924"><ele>335.0</ele><time>2026-04-25T13:58:45.106Z</time></trkpt><trkpt lat="43.0830395" lon="11.6293102"><ele>335.0</ele><time>2026-04-25T13:58:46.106Z</time></trkpt><trkpt lat="43.0831543" lon="11.6293442"><ele>335.0</ele><time>2026-04-25T13:58:47.106Z</time></trkpt><trkpt lat="43.0832716" lon="11.6294042"><ele>335.0</ele><time>2026-04-25T13:58:48.106Z</time></trkpt><trkpt lat="43.083384" lon="11.6294867"><ele>335.0</ele><time>2026-04-25T13:58:49.106Z</time></trkpt><trkpt lat="43.0834918" lon="11.6295866"><ele>336.0</ele><time>2026-04-25T13:58:50.105Z</time></trkpt><trkpt lat="43.0835888" lon="11.6297128"><ele>337.0</ele><time>2026-04-25T13:58:51.106Z</time></trkpt><trkpt lat="43.0836744" lon="11.6298697"><ele>338.0</ele><time>2026-04-25T13:58:52.106Z</time></trkpt><trkpt lat="43.0837318" lon="11.6300406"><ele>339.0</ele><time>2026-04-25T13:58:53.106Z</time></trkpt><trkpt lat="43.0837773" lon="11.6302239"><ele>339.0</ele><time>2026-04-25T13:58:54.106Z</time></trkpt><trkpt lat="43.0838001" lon="11.6304182"><ele>339.0</ele><time>2026-04-25T13:58:55.105Z</time></trkpt><trkpt lat="43.0837978" lon="11.6306188"><ele>339.0</ele><time>2026-04-25T13:58:56.105Z</time></trkpt><trkpt lat="43.0837913" lon="11.6308148"><ele>339.0</ele><time>2026-04-25T13:58:57.106Z</time></trkpt><trkpt lat="43.083786" lon="11.6310179"><ele>340.5</ele><time>2026-04-25T13:58:58.105Z</time></trkpt><trkpt lat="43.0837781" lon="11.6312158"><ele>342.0</ele><time>2026-04-25T13:58:59.105Z</time></trkpt><trkpt lat="43.0837704" lon="11.6314115"><ele>343.5</ele><time>2026-04-25T13:59:00.106Z</time></trkpt><trkpt lat="43.0837607" lon="11.6316098"><ele>345.0</ele><time>2026-04-25T13:59:01.105Z</time></trkpt><trkpt lat="43.0837489" lon="11.6318066"><ele>347.75</ele><time>2026-04-25T13:59:02.106Z</time></trkpt><trkpt lat="43.0837414" lon="11.6319941"><ele>350.5</ele><time>2026-04-25T13:59:03.106Z</time></trkpt><trkpt lat="43.0837349" lon="11.6321751"><ele>353.25</ele><time>2026-04-25T13:59:04.106Z</time></trkpt><trkpt lat="43.0837298" lon="11.6323615"><ele>356.0</ele><time>2026-04-25T13:59:05.106Z</time></trkpt><trkpt lat="43.0837212" lon="11.6325543"><ele>356.0</ele><time>2026-04-25T13:59:06.106Z</time></trkpt><trkpt lat="43.0837083" lon="11.6327518"><ele>356.0</ele><time>2026-04-25T13:59:07.106Z</time></trkpt><trkpt lat="43.0836987" lon="11.6329543"><ele>356.0</ele><time>2026-04-25T13:59:08.106Z</time></trkpt><trkpt lat="43.0836848" lon="11.6331623"><ele>356.0</ele><time>2026-04-25T13:59:09.106Z</time></trkpt><trkpt lat="43.0836572" lon="11.6333884"><ele>355.0</ele><time>2026-04-25T13:59:10.106Z</time></trkpt><trkpt lat="43.0836261" lon="11.6336423"><ele>354.0</ele><time>2026-04-25T13:59:11.106Z</time></trkpt><trkpt lat="43.0835918" lon="11.6339038"><ele>353.0</ele><time>2026-04-25T13:59:12.105Z</time></trkpt><trkpt lat="43.0835485" lon="11.6341879"><ele>351.6666666666667</ele><time>2026-04-25T13:59:13.106Z</time></trkpt><trkpt lat="43.083508" lon="11.6344738"><ele>350.3333333333333</ele><time>2026-04-25T13:59:14.106Z</time></trkpt><trkpt lat="43.0834687" lon="11.6347497"><ele>349.0</ele><time>2026-04-25T13:59:15.106Z</time></trkpt><trkpt lat="43.0834449" lon="11.6350278"><ele>348.3333333333333</ele><time>2026-04-25T13:59:16.106Z</time></trkpt><trkpt lat="43.0834373" lon="11.6353184"><ele>347.6666666666667</ele><time>2026-04-25T13:59:17.106Z</time></trkpt><trkpt lat="43.0834341" lon="11.6356117"><ele>347.0</ele><time>2026-04-25T13:59:18.105Z</time></trkpt><trkpt lat="43.0834259" lon="11.6359069"><ele>347.6666666666667</ele><time>2026-04-25T13:59:19.106Z</time></trkpt><trkpt lat="43.0834159" lon="11.6362044"><ele>348.3333333333333</ele><time>2026-04-25T13:59:20.105Z</time></trkpt><trkpt lat="43.0834089" lon="11.6365033"><ele>349.0</ele><time>2026-04-25T13:59:21.106Z</time></trkpt><trkpt lat="43.0834076" lon="11.6367915"><ele>350.0</ele><time>2026-04-25T13:59:22.106Z</time></trkpt><trkpt lat="43.0834029" lon="11.6370717"><ele>351.0</ele><time>2026-04-25T13:59:23.106Z</time></trkpt><trkpt lat="43.0833972" lon="11.6373466"><ele>352.0</ele><time>2026-04-25T13:59:24.106Z</time></trkpt><trkpt lat="43.0833762" lon="11.6376267"><ele>352.0</ele><time>2026-04-25T13:59:25.106Z</time></trkpt><trkpt lat="43.0833312" lon="11.6379044"><ele>352.0</ele><time>2026-04-25T13:59:26.106Z</time></trkpt><trkpt lat="43.0832586" lon="11.6381842"><ele>352.0</ele><time>2026-04-25T13:59:27.105Z</time></trkpt><trkpt lat="43.0831742" lon="11.6384584"><ele>355.0</ele><time>2026-04-25T13:59:28.106Z</time></trkpt><trkpt lat="43.0830787" lon="11.6387329"><ele>358.0</ele><time>2026-04-25T13:59:29.106Z</time></trkpt><trkpt lat="43.0829846" lon="11.6390109"><ele>361.0</ele><time>2026-04-25T13:59:30.106Z</time></trkpt><trkpt lat="43.0828984" lon="11.6392939"><ele>361.66666666666663</ele><time>2026-04-25T13:59:31.106Z</time></trkpt><trkpt lat="43.0828099" lon="11.6395717"><ele>362.3333333333333</ele><time>2026-04-25T13:59:32.106Z</time></trkpt><trkpt lat="43.0827183" lon="11.6398488"><ele>363.0</ele><time>2026-04-25T13:59:33.106Z</time></trkpt><trkpt lat="43.0826111" lon="11.6401056"><ele>363.3333333333333</ele><time>2026-04-25T13:59:34.106Z</time></trkpt><trkpt lat="43.0824799" lon="11.6403367"><ele>363.66666666666663</ele><time>2026-04-25T13:59:35.106Z</time></trkpt><trkpt lat="43.0823348" lon="11.6405405"><ele>364.0</ele><time>2026-04-25T13:59:36.105Z</time></trkpt><trkpt lat="43.0821875" lon="11.6407399"><ele>365.66666666666663</ele><time>2026-04-25T13:59:37.106Z</time></trkpt><trkpt lat="43.0820473" lon="11.6409423"><ele>367.3333333333333</ele><time>2026-04-25T13:59:38.105Z</time></trkpt><trkpt lat="43.0819203" lon="11.6411586"><ele>369.0</ele><time>2026-04-25T13:59:39.106Z</time></trkpt><trkpt lat="43.0818193" lon="11.6414104"><ele>369.0</ele><time>2026-04-25T13:59:40.105Z</time></trkpt><trkpt lat="43.0817461" lon="11.6416662"><ele>369.0</ele><time>2026-04-25T13:59:41.105Z</time></trkpt><trkpt lat="43.0817011" lon="11.6419359"><ele>369.0</ele><time>2026-04-25T13:59:42.106Z</time></trkpt><trkpt lat="43.08168" lon="11.6421901"><ele>369.6666666666667</ele><time>2026-04-25T13:59:43.106Z</time></trkpt><trkpt lat="43.0816767" lon="11.6424289"><ele>370.33333333333337</ele><time>2026-04-25T13:59:44.106Z</time></trkpt><trkpt lat="43.0816757" lon="11.6426254"><ele>371.0</ele><time>2026-04-25T13:59:45.106Z</time></trkpt><trkpt lat="43.0816621" lon="11.6428103"><ele>371.25</ele><time>2026-04-25T13:59:46.106Z</time></trkpt><trkpt lat="43.0816587" lon="11.6429867"><ele>371.5</ele><time>2026-04-25T13:59:47.105Z</time></trkpt><trkpt lat="43.081659" lon="11.6431676"><ele>371.75</ele><time>2026-04-25T13:59:48.106Z</time></trkpt><trkpt lat="43.08166" lon="11.6433603"><ele>372.0</ele><time>2026-04-25T13:59:49.106Z</time></trkpt><trkpt lat="43.0816541" lon="11.6435583"><ele>372.25</ele><time>2026-04-25T13:59:50.106Z</time></trkpt><trkpt lat="43.081647" lon="11.6437332"><ele>372.5</ele><time>2026-04-25T13:59:51.106Z</time></trkpt><trkpt lat="43.0816357" lon="11.6439038"><ele>372.75</ele><time>2026-04-25T13:59:52.105Z</time></trkpt><trkpt lat="43.0816261" lon="11.6440689"><ele>373.0</ele><time>2026-04-25T13:59:53.105Z</time></trkpt><trkpt lat="43.0816219" lon="11.6442439"><ele>373.0</ele><time>2026-04-25T13:59:54.106Z</time></trkpt><trkpt lat="43.0816162" lon="11.6444149"><ele>373.0</ele><time>2026-04-25T13:59:55.106Z</time></trkpt><trkpt lat="43.0816123" lon="11.6445895"><ele>373.0</ele><time>2026-04-25T13:59:56.106Z</time></trkpt><trkpt lat="43.0816158" lon="11.6447612"><ele>373.0</ele><time>2026-04-25T13:59:57.106Z</time></trkpt><trkpt lat="43.0816274" lon="11.6449346"><ele>372.75</ele><time>2026-04-25T13:59:58.106Z</time></trkpt><trkpt lat="43.0816541" lon="11.6451134"><ele>372.5</ele><time>2026-04-25T13:59:59.106Z</time></trkpt><trkpt lat="43.0816902" lon="11.6452797"><ele>372.25</ele><time>2026-04-25T14:00:00.106Z</time></trkpt><trkpt lat="43.0817303" lon="11.6454442"><ele>372.0</ele><time>2026-04-25T14:00:01.106Z</time></trkpt><trkpt lat="43.0817798" lon="11.645601"><ele>371.5</ele><time>2026-04-25T14:00:02.105Z</time></trkpt><trkpt lat="43.0818379" lon="11.6457601"><ele>371.0</ele><time>2026-04-25T14:00:03.106Z</time></trkpt><trkpt lat="43.0819125" lon="11.6459172"><ele>370.5</ele><time>2026-04-25T14:00:04.106Z</time></trkpt><trkpt lat="43.0819891" lon="11.6460684"><ele>370.0</ele><time>2026-04-25T14:00:05.106Z</time></trkpt><trkpt lat="43.0820718" lon="11.6462206"><ele>369.6</ele><time>2026-04-25T14:00:06.105Z</time></trkpt><trkpt lat="43.0821557" lon="11.6463708"><ele>369.2</ele><time>2026-04-25T14:00:07.106Z</time></trkpt><trkpt lat="43.0822232" lon="11.646483"><ele>368.79999999999995</ele><time>2026-04-25T14:00:08.106Z</time></trkpt><trkpt lat="43.0822756" lon="11.6465854"><ele>368.4</ele><time>2026-04-25T14:00:09.106Z</time></trkpt><trkpt lat="43.08234" lon="11.646698"><ele>368.0</ele><time>2026-04-25T14:00:10.106Z</time></trkpt><trkpt lat="43.082423" lon="11.6468183"><ele>368.75</ele><time>2026-04-25T14:00:11.106Z</time></trkpt><trkpt lat="43.0825125" lon="11.6469552"><ele>369.5</ele><time>2026-04-25T14:00:12.106Z</time></trkpt><trkpt lat="43.0826091" lon="11.6471099"><ele>370.25</ele><time>2026-04-25T14:00:13.106Z</time></trkpt><trkpt lat="43.0827091" lon="11.6472779"><ele>371.0</ele><time>2026-04-25T14:00:14.106Z</time></trkpt><trkpt lat="43.0828194" lon="11.6474659"><ele>371.0</ele><time>2026-04-25T14:00:15.106Z</time></trkpt><trkpt lat="43.0829365" lon="11.6476685"><ele>371.0</ele><time>2026-04-25T14:00:16.105Z</time></trkpt><trkpt lat="43.0830626" lon="11.6478805"><ele>371.0</ele><time>2026-04-25T14:00:17.105Z</time></trkpt><trkpt lat="43.0831925" lon="11.6480906"><ele>370.0</ele><time>2026-04-25T14:00:18.105Z</time></trkpt><trkpt lat="43.0833172" lon="11.6483021"><ele>369.0</ele><time>2026-04-25T14:00:19.106Z</time></trkpt><trkpt lat="43.0834389" lon="11.6485136"><ele>368.0</ele><time>2026-04-25T14:00:20.106Z</time></trkpt><trkpt lat="43.083549" lon="11.6487177"><ele>366.6666666666667</ele><time>2026-04-25T14:00:21.105Z</time></trkpt><trkpt lat="43.0836584" lon="11.6489143"><ele>365.3333333333333</ele><time>2026-04-25T14:00:22.106Z</time></trkpt><trkpt lat="43.0837596" lon="11.649099"><ele>364.0</ele><time>2026-04-25T14:00:23.106Z</time></trkpt><trkpt lat="43.0838597" lon="11.6492703"><ele>364.0</ele><time>2026-04-25T14:00:24.106Z</time></trkpt><trkpt lat="43.0839486" lon="11.6494278"><ele>364.0</ele><time>2026-04-25T14:00:25.106Z</time></trkpt><trkpt lat="43.084035" lon="11.6495787"><ele>364.0</ele><time>2026-04-25T14:00:26.106Z</time></trkpt><trkpt lat="43.0841192" lon="11.649726"><ele>364.0</ele><time>2026-04-25T14:00:27.106Z</time></trkpt><trkpt lat="43.084207" lon="11.649877"><ele>364.25</ele><time>2026-04-25T14:00:28.106Z</time></trkpt><trkpt lat="43.0843019" lon="11.6500205"><ele>364.5</ele><time>2026-04-25T14:00:29.106Z</time></trkpt><trkpt lat="43.0844055" lon="11.6501557"><ele>364.75</ele><time>2026-04-25T14:00:30.105Z</time></trkpt><trkpt lat="43.0845159" lon="11.6502747"><ele>365.0</ele><time>2026-04-25T14:00:31.106Z</time></trkpt><trkpt lat="43.0846298" lon="11.6503945"><ele>366.0</ele><time>2026-04-25T14:00:32.106Z</time></trkpt><trkpt lat="43.0847454" lon="11.6505109"><ele>367.0</ele><time>2026-04-25T14:00:33.106Z</time></trkpt><trkpt lat="43.0848663" lon="11.6506223"><ele>368.0</ele><time>2026-04-25T14:00:34.106Z</time></trkpt><trkpt lat="43.0849879" lon="11.6507336"><ele>369.0</ele><time>2026-04-25T14:00:35.106Z</time></trkpt><trkpt lat="43.0851134" lon="11.6508502"><ele>369.0</ele><time>2026-04-25T14:00:36.106Z</time></trkpt><trkpt lat="43.0852481" lon="11.6509732"><ele>369.0</ele><time>2026-04-25T14:00:37.106Z</time></trkpt><trkpt lat="43.0853994" lon="11.651099"><ele>369.0</ele><time>2026-04-25T14:00:38.106Z</time></trkpt><trkpt lat="43.0855577" lon="11.651234"><ele>369.0</ele><time>2026-04-25T14:00:39.106Z</time></trkpt><trkpt lat="43.0857124" lon="11.6513921"><ele>369.0</ele><time>2026-04-25T14:00:40.106Z</time></trkpt><trkpt lat="43.0858617" lon="11.6515386"><ele>369.0</ele><time>2026-04-25T14:00:41.106Z</time></trkpt><trkpt lat="43.0860292" lon="11.6516699"><ele>369.0</ele><time>2026-04-25T14:00:42.105Z</time></trkpt><trkpt lat="43.0862151" lon="11.6517944"><ele>369.0</ele><time>2026-04-25T14:00:43.106Z</time></trkpt><trkpt lat="43.0863947" lon="11.6519406"><ele>369.0</ele><time>2026-04-25T14:00:44.106Z</time></trkpt><trkpt lat="43.0865681" lon="11.6520887"><ele>368.3333333333333</ele><time>2026-04-25T14:00:45.106Z</time></trkpt><trkpt lat="43.0867295" lon="11.6522079"><ele>367.66666666666663</ele><time>2026-04-25T14:00:46.106Z</time></trkpt><trkpt lat="43.0868913" lon="11.6523174"><ele>367.0</ele><time>2026-04-25T14:00:47.106Z</time></trkpt><trkpt lat="43.0870557" lon="11.6523905"><ele>367.0</ele><time>2026-04-25T14:00:48.106Z</time></trkpt><trkpt lat="43.0872329" lon="11.6524298"><ele>367.0</ele><time>2026-04-25T14:00:49.105Z</time></trkpt><trkpt lat="43.0874128" lon="11.6523904"><ele>367.0</ele><time>2026-04-25T14:00:50.106Z</time></trkpt><trkpt lat="43.0875838" lon="11.6523021"><ele>369.3333333333333</ele><time>2026-04-25T14:00:51.106Z</time></trkpt><trkpt lat="43.0877536" lon="11.6521933"><ele>371.6666666666667</ele><time>2026-04-25T14:00:52.106Z</time></trkpt><trkpt lat="43.0879327" lon="11.6521119"><ele>374.0</ele><time>2026-04-25T14:00:53.105Z</time></trkpt><trkpt lat="43.0881272" lon="11.6520875"><ele>375.33333333333337</ele><time>2026-04-25T14:00:54.105Z</time></trkpt><trkpt lat="43.0883106" lon="11.6520916"><ele>376.6666666666667</ele><time>2026-04-25T14:00:55.106Z</time></trkpt><trkpt lat="43.0884712" lon="11.6521411"><ele>378.0</ele><time>2026-04-25T14:00:56.106Z</time></trkpt><trkpt lat="43.088603" lon="11.6522368"><ele>378.0</ele><time>2026-04-25T14:00:57.105Z</time></trkpt><trkpt lat="43.0886911" lon="11.6523966"><ele>378.0</ele><time>2026-04-25T14:00:58.105Z</time></trkpt><trkpt lat="43.0887346" lon="11.6525754"><ele>378.0</ele><time>2026-04-25T14:00:59.106Z</time></trkpt><trkpt lat="43.0887477" lon="11.6527755"><ele>378.0</ele><time>2026-04-25T14:01:00.106Z</time></trkpt><trkpt lat="43.0887553" lon="11.6529872"><ele>379.3333333333333</ele><time>2026-04-25T14:01:01.106Z</time></trkpt><trkpt lat="43.0887722" lon="11.6531948"><ele>380.66666666666663</ele><time>2026-04-25T14:01:02.106Z</time></trkpt><trkpt lat="43.0888019" lon="11.6534027"><ele>382.0</ele><time>2026-04-25T14:01:03.106Z</time></trkpt><trkpt lat="43.0888527" lon="11.653602"><ele>383.0</ele><time>2026-04-25T14:01:04.106Z</time></trkpt><trkpt lat="43.0889335" lon="11.6537785"><ele>384.0</ele><time>2026-04-25T14:01:05.105Z</time></trkpt><trkpt lat="43.0890554" lon="11.6539044"><ele>385.0</ele><time>2026-04-25T14:01:06.106Z</time></trkpt><trkpt lat="43.089203" lon="11.653959"><ele>387.0</ele><time>2026-04-25T14:01:07.106Z</time></trkpt><trkpt lat="43.0893801" lon="11.6539575"><ele>389.0</ele><time>2026-04-25T14:01:08.106Z</time></trkpt><trkpt lat="43.0895551" lon="11.6539522"><ele>391.0</ele><time>2026-04-25T14:01:09.106Z</time></trkpt><trkpt lat="43.0897259" lon="11.6539412"><ele>391.0</ele><time>2026-04-25T14:01:10.106Z</time></trkpt><trkpt lat="43.0898963" lon="11.6538943"><ele>391.0</ele><time>2026-04-25T14:01:11.106Z</time></trkpt><trkpt lat="43.090048" lon="11.6537749"><ele>391.0</ele><time>2026-04-25T14:01:12.106Z</time></trkpt><trkpt lat="43.0901933" lon="11.6536429"><ele>389.0</ele><time>2026-04-25T14:01:13.106Z</time></trkpt><trkpt lat="43.0903665" lon="11.653552"><ele>387.0</ele><time>2026-04-25T14:01:14.106Z</time></trkpt><trkpt lat="43.0905364" lon="11.6535189"><ele>385.0</ele><time>2026-04-25T14:01:15.106Z</time></trkpt><trkpt lat="43.0907289" lon="11.6534989"><ele>387.33333333333337</ele><time>2026-04-25T14:01:16.105Z</time></trkpt><trkpt lat="43.0909207" lon="11.6534762"><ele>389.66666666666663</ele><time>2026-04-25T14:01:17.106Z</time></trkpt><trkpt lat="43.0911171" lon="11.6534491"><ele>392.0</ele><time>2026-04-25T14:01:18.106Z</time></trkpt><trkpt lat="43.0913049" lon="11.6534186"><ele>392.0</ele><time>2026-04-25T14:01:19.106Z</time></trkpt><trkpt lat="43.0914893" lon="11.6534002"><ele>392.0</ele><time>2026-04-25T14:01:20.106Z</time></trkpt><trkpt lat="43.0916761" lon="11.6534327"><ele>392.0</ele><time>2026-04-25T14:01:21.106Z</time></trkpt><trkpt lat="43.0918634" lon="11.6535"><ele>394.0</ele><time>2026-04-25T14:01:22.105Z</time></trkpt><trkpt lat="43.0920447" lon="11.6535906"><ele>396.0</ele><time>2026-04-25T14:01:23.106Z</time></trkpt><trkpt lat="43.0922243" lon="11.6536652"><ele>398.0</ele><time>2026-04-25T14:01:24.106Z</time></trkpt><trkpt lat="43.0923899" lon="11.6537064"><ele>399.5</ele><time>2026-04-25T14:01:25.106Z</time></trkpt><trkpt lat="43.0925511" lon="11.6537149"><ele>401.0</ele><time>2026-04-25T14:01:26.106Z</time></trkpt><trkpt lat="43.0926853" lon="11.6537413"><ele>402.5</ele><time>2026-04-25T14:01:27.106Z</time></trkpt><trkpt lat="43.092795" lon="11.6538052"><ele>404.0</ele><time>2026-04-25T14:01:28.106Z</time></trkpt><trkpt lat="43.0928627" lon="11.6539392"><ele>404.0</ele><time>2026-04-25T14:01:29.106Z</time></trkpt><trkpt lat="43.0928638" lon="11.6541103"><ele>404.0</ele><time>2026-04-25T14:01:30.106Z</time></trkpt><trkpt lat="43.0928143" lon="11.6542555"><ele>404.0</ele><time>2026-04-25T14:01:31.106Z</time></trkpt><trkpt lat="43.0927092" lon="11.6543605"><ele>404.0</ele><time>2026-04-25T14:01:32.105Z</time></trkpt><trkpt lat="43.092586" lon="11.6543506"><ele>404.0</ele><time>2026-04-25T14:01:33.106Z</time></trkpt><trkpt lat="43.0924616" lon="11.6542881"><ele>404.0</ele><time>2026-04-25T14:01:34.106Z</time></trkpt><trkpt lat="43.092328" lon="11.65421"><ele>404.0</ele><time>2026-04-25T14:01:35.106Z</time></trkpt><trkpt lat="43.0921958" lon="11.6541288"><ele>404.0</ele><time>2026-04-25T14:01:36.106Z</time></trkpt><trkpt lat="43.0920483" lon="11.654061"><ele>404.0</ele><time>2026-04-25T14:01:37.105Z</time></trkpt><trkpt lat="43.0918972" lon="11.6540221"><ele>404.0</ele><time>2026-04-25T14:01:38.106Z</time></trkpt><trkpt lat="43.0917463" lon="11.6540189"><ele>404.0</ele><time>2026-04-25T14:01:39.105Z</time></trkpt><trkpt lat="43.0915837" lon="11.6540787"><ele>404.0</ele><time>2026-04-25T14:01:40.106Z</time></trkpt><trkpt lat="43.0914225" lon="11.6541603"><ele>404.0</ele><time>2026-04-25T14:01:41.106Z</time></trkpt><trkpt lat="43.0912697" lon="11.6542698"><ele>404.0</ele><time>2026-04-25T14:01:42.105Z</time></trkpt><trkpt lat="43.0911186" lon="11.6543879"><ele>404.66666666666663</ele><time>2026-04-25T14:01:43.106Z</time></trkpt><trkpt lat="43.0909651" lon="11.654522"><ele>405.33333333333337</ele><time>2026-04-25T14:01:44.106Z</time></trkpt><trkpt lat="43.0908091" lon="11.6546373"><ele>406.0</ele><time>2026-04-25T14:01:45.106Z</time></trkpt><trkpt lat="43.0906549" lon="11.6547564"><ele>406.0</ele><time>2026-04-25T14:01:46.106Z</time></trkpt><trkpt lat="43.0905133" lon="11.6548895"><ele>406.0</ele><time>2026-04-25T14:01:47.106Z</time></trkpt><trkpt lat="43.090395" lon="11.6550554"><ele>406.0</ele><time>2026-04-25T14:01:48.105Z</time></trkpt><trkpt lat="43.0903156" lon="11.6552696"><ele>408.33333333333337</ele><time>2026-04-25T14:01:49.106Z</time></trkpt><trkpt lat="43.0902778" lon="11.6555184"><ele>410.66666666666663</ele><time>2026-04-25T14:01:50.106Z</time></trkpt><trkpt lat="43.0902654" lon="11.6557766"><ele>413.0</ele><time>2026-04-25T14:01:51.105Z</time></trkpt><trkpt lat="43.090285" lon="11.6560179"><ele>414.3333333333333</ele><time>2026-04-25T14:01:52.106Z</time></trkpt><trkpt lat="43.0903063" lon="11.6562506"><ele>415.66666666666663</ele><time>2026-04-25T14:01:53.106Z</time></trkpt><trkpt lat="43.0903058" lon="11.6564751"><ele>417.0</ele><time>2026-04-25T14:01:54.105Z</time></trkpt><trkpt lat="43.0902492" lon="11.6566921"><ele>417.0</ele><time>2026-04-25T14:01:55.106Z</time></trkpt><trkpt lat="43.0901344" lon="11.6568991"><ele>417.0</ele><time>2026-04-25T14:01:56.106Z</time></trkpt><trkpt lat="43.0899939" lon="11.6570404"><ele>417.0</ele><time>2026-04-25T14:01:57.106Z</time></trkpt><trkpt lat="43.0898127" lon="11.6571022"><ele>417.66666666666663</ele><time>2026-04-25T14:01:58.106Z</time></trkpt><trkpt lat="43.0896344" lon="11.6571403"><ele>418.3333333333333</ele><time>2026-04-25T14:01:59.105Z</time></trkpt><trkpt lat="43.0894702" lon="11.6572491"><ele>419.0</ele><time>2026-04-25T14:02:00.106Z</time></trkpt><trkpt lat="43.0893264" lon="11.6573941"><ele>419.0</ele><time>2026-04-25T14:02:01.106Z</time></trkpt><trkpt lat="43.0891787" lon="11.6575558"><ele>419.0</ele><time>2026-04-25T14:02:02.106Z</time></trkpt><trkpt lat="43.0890478" lon="11.6577397"><ele>419.0</ele><time>2026-04-25T14:02:03.105Z</time></trkpt><trkpt lat="43.088916" lon="11.6579187"><ele>420.66666666666663</ele><time>2026-04-25T14:02:04.105Z</time></trkpt><trkpt lat="43.0887789" lon="11.6580833"><ele>422.33333333333337</ele><time>2026-04-25T14:02:05.106Z</time></trkpt><trkpt lat="43.0886523" lon="11.6582356"><ele>424.0</ele><time>2026-04-25T14:02:06.106Z</time></trkpt><trkpt lat="43.0885365" lon="11.6583874"><ele>424.0</ele><time>2026-04-25T14:02:07.106Z</time></trkpt><trkpt lat="43.0884566" lon="11.6585262"><ele>424.0</ele><time>2026-04-25T14:02:08.106Z</time></trkpt><trkpt lat="43.0884077" lon="11.6586886"><ele>424.0</ele><time>2026-04-25T14:02:09.106Z</time></trkpt><trkpt lat="43.088412" lon="11.6588828"><ele>424.0</ele><time>2026-04-25T14:02:10.105Z</time></trkpt><trkpt lat="43.0884449" lon="11.659066"><ele>425.0</ele><time>2026-04-25T14:02:11.106Z</time></trkpt><trkpt lat="43.088508" lon="11.6592366"><ele>426.0</ele><time>2026-04-25T14:02:12.106Z</time></trkpt><trkpt lat="43.0885518" lon="11.6594191"><ele>427.0</ele><time>2026-04-25T14:02:13.106Z</time></trkpt><trkpt lat="43.088524" lon="11.6596177"><ele>428.0</ele><time>2026-04-25T14:02:14.106Z</time></trkpt><trkpt lat="43.0884595" lon="11.659796"><ele>429.66666666666663</ele><time>2026-04-25T14:02:15.106Z</time></trkpt><trkpt lat="43.0883519" lon="11.6599408"><ele>431.33333333333337</ele><time>2026-04-25T14:02:16.106Z</time></trkpt><trkpt lat="43.0882074" lon="11.6599821"><ele>433.0</ele><time>2026-04-25T14:02:17.106Z</time></trkpt><trkpt lat="43.088049" lon="11.6599805"><ele>434.33333333333337</ele><time>2026-04-25T14:02:18.106Z</time></trkpt><trkpt lat="43.0878875" lon="11.6599673"><ele>435.66666666666663</ele><time>2026-04-25T14:02:19.106Z</time></trkpt><trkpt lat="43.0877247" lon="11.659947"><ele>437.0</ele><time>2026-04-25T14:02:20.106Z</time></trkpt><trkpt lat="43.0875629" lon="11.6599236"><ele>437.66666666666663</ele><time>2026-04-25T14:02:21.106Z</time></trkpt><trkpt lat="43.0873947" lon="11.6598962"><ele>438.33333333333337</ele><time>2026-04-25T14:02:22.105Z</time></trkpt><trkpt lat="43.0872235" lon="11.6598604"><ele>439.0</ele><time>2026-04-25T14:02:23.105Z</time></trkpt><trkpt lat="43.08706" lon="11.6598355"><ele>439.0</ele><time>2026-04-25T14:02:24.106Z</time></trkpt><trkpt lat="43.0868963" lon="11.6598432"><ele>439.0</ele><time>2026-04-25T14:02:25.106Z</time></trkpt><trkpt lat="43.0867418" lon="11.6599084"><ele>439.0</ele><time>2026-04-25T14:02:26.106Z</time></trkpt><trkpt lat="43.0866078" lon="11.6600433"><ele>440.0</ele><time>2026-04-25T14:02:27.106Z</time></trkpt><trkpt lat="43.0864902" lon="11.660227"><ele>441.0</ele><time>2026-04-25T14:02:28.106Z</time></trkpt><trkpt lat="43.086393" lon="11.6604443"><ele>442.0</ele><time>2026-04-25T14:02:29.106Z</time></trkpt><trkpt lat="43.0862946" lon="11.6606744"><ele>442.0</ele><time>2026-04-25T14:02:30.105Z</time></trkpt><trkpt lat="43.0861974" lon="11.6609127"><ele>442.0</ele><time>2026-04-25T14:02:31.106Z</time></trkpt><trkpt lat="43.0861036" lon="11.6611675"><ele>442.0</ele><time>2026-04-25T14:02:32.106Z</time></trkpt><trkpt lat="43.0860122" lon="11.6614236"><ele>444.0</ele><time>2026-04-25T14:02:33.106Z</time></trkpt><trkpt lat="43.0859187" lon="11.6616777"><ele>446.0</ele><time>2026-04-25T14:02:34.106Z</time></trkpt><trkpt lat="43.0858257" lon="11.6619311"><ele>448.0</ele><time>2026-04-25T14:02:35.105Z</time></trkpt><trkpt lat="43.0857325" lon="11.6621767"><ele>449.33333333333337</ele><time>2026-04-25T14:02:36.106Z</time></trkpt><trkpt lat="43.085642" lon="11.6624206"><ele>450.66666666666663</ele><time>2026-04-25T14:02:37.106Z</time></trkpt><trkpt lat="43.0855608" lon="11.6626624"><ele>452.0</ele><time>2026-04-25T14:02:38.106Z</time></trkpt><trkpt lat="43.0854868" lon="11.6629053"><ele>453.3333333333333</ele><time>2026-04-25T14:02:39.106Z</time></trkpt><trkpt lat="43.0854265" lon="11.6631536"><ele>454.66666666666663</ele><time>2026-04-25T14:02:40.106Z</time></trkpt><trkpt lat="43.0853707" lon="11.6634062"><ele>456.0</ele><time>2026-04-25T14:02:41.105Z</time></trkpt><trkpt lat="43.0853136" lon="11.6636588"><ele>456.66666666666663</ele><time>2026-04-25T14:02:42.106Z</time></trkpt><trkpt lat="43.0852524" lon="11.663908"><ele>457.3333333333333</ele><time>2026-04-25T14:02:43.105Z</time></trkpt><trkpt lat="43.0851949" lon="11.6641576"><ele>458.0</ele><time>2026-04-25T14:02:44.106Z</time></trkpt><trkpt lat="43.0851339" lon="11.6644039"><ele>457.66666666666663</ele><time>2026-04-25T14:02:45.106Z</time></trkpt><trkpt lat="43.0850572" lon="11.6646507"><ele>457.33333333333337</ele><time>2026-04-25T14:02:46.106Z</time></trkpt><trkpt lat="43.0849611" lon="11.6648801"><ele>457.0</ele><time>2026-04-25T14:02:47.106Z</time></trkpt><trkpt lat="43.0848508" lon="11.6650923"><ele>458.6666666666667</ele><time>2026-04-25T14:02:48.106Z</time></trkpt><trkpt lat="43.0847439" lon="11.6653051"><ele>460.33333333333337</ele><time>2026-04-25T14:02:49.106Z</time></trkpt><trkpt lat="43.0846421" lon="11.6655142"><ele>462.0</ele><time>2026-04-25T14:02:50.105Z</time></trkpt><trkpt lat="43.084547" lon="11.6657169"><ele>462.0</ele><time>2026-04-25T14:02:51.106Z</time></trkpt><trkpt lat="43.0844513" lon="11.665902"><ele>462.0</ele><time>2026-04-25T14:02:52.106Z</time></trkpt><trkpt lat="43.0843589" lon="11.6660838"><ele>462.0</ele><time>2026-04-25T14:02:53.106Z</time></trkpt><trkpt lat="43.0842694" lon="11.6662687"><ele>462.33333333333337</ele><time>2026-04-25T14:02:54.106Z</time></trkpt><trkpt lat="43.0841797" lon="11.6664546"><ele>462.6666666666667</ele><time>2026-04-25T14:02:55.106Z</time></trkpt><trkpt lat="43.0840945" lon="11.6666331"><ele>463.0</ele><time>2026-04-25T14:02:56.106Z</time></trkpt><trkpt lat="43.0840131" lon="11.6668173"><ele>464.6666666666667</ele><time>2026-04-25T14:02:57.105Z</time></trkpt><trkpt lat="43.0839396" lon="11.6670091"><ele>466.33333333333337</ele><time>2026-04-25T14:02:58.105Z</time></trkpt><trkpt lat="43.0838804" lon="11.667198"><ele>468.0</ele><time>2026-04-25T14:02:59.106Z</time></trkpt><trkpt lat="43.0838226" lon="11.6673925"><ele>468.0</ele><time>2026-04-25T14:03:00.106Z</time></trkpt><trkpt lat="43.0837725" lon="11.6675904"><ele>468.0</ele><time>2026-04-25T14:03:01.106Z</time></trkpt><trkpt lat="43.0837236" lon="11.6677829"><ele>468.0</ele><time>2026-04-25T14:03:02.106Z</time></trkpt><trkpt lat="43.0836642" lon="11.6679696"><ele>468.0</ele><time>2026-04-25T14:03:03.106Z</time></trkpt><trkpt lat="43.0836007" lon="11.6681496"><ele>468.0</ele><time>2026-04-25T14:03:04.106Z</time></trkpt><trkpt lat="43.0835439" lon="11.6683291"><ele>468.0</ele><time>2026-04-25T14:03:05.106Z</time></trkpt><trkpt lat="43.083487" lon="11.6685111"><ele>468.0</ele><time>2026-04-25T14:03:06.106Z</time></trkpt><trkpt lat="43.0834255" lon="11.668697"><ele>468.33333333333337</ele><time>2026-04-25T14:03:07.105Z</time></trkpt><trkpt lat="43.0833561" lon="11.6688834"><ele>468.6666666666667</ele><time>2026-04-25T14:03:08.106Z</time></trkpt><trkpt lat="43.083286" lon="11.6690667"><ele>469.0</ele><time>2026-04-25T14:03:09.105Z</time></trkpt><trkpt lat="43.0832198" lon="11.6692458"><ele>470.0</ele><time>2026-04-25T14:03:10.106Z</time></trkpt><trkpt lat="43.0831587" lon="11.6694195"><ele>471.0</ele><time>2026-04-25T14:03:11.106Z</time></trkpt><trkpt lat="43.0830996" lon="11.6695824"><ele>472.0</ele><time>2026-04-25T14:03:12.106Z</time></trkpt><trkpt lat="43.083041" lon="11.6697384"><ele>473.0</ele><time>2026-04-25T14:03:13.106Z</time></trkpt><trkpt lat="43.0829831" lon="11.6698907"><ele>473.4</ele><time>2026-04-25T14:03:14.106Z</time></trkpt><trkpt lat="43.0829288" lon="11.6700369"><ele>473.79999999999995</ele><time>2026-04-25T14:03:15.106Z</time></trkpt><trkpt lat="43.0828787" lon="11.6701799"><ele>474.2</ele><time>2026-04-25T14:03:16.106Z</time></trkpt><trkpt lat="43.0828328" lon="11.6703036"><ele>474.6</ele><time>2026-04-25T14:03:17.106Z</time></trkpt><trkpt lat="43.0827814" lon="11.6704194"><ele>475.0</ele><time>2026-04-25T14:03:18.105Z</time></trkpt><trkpt lat="43.0827327" lon="11.6705279"><ele>475.1666666666667</ele><time>2026-04-25T14:03:19.106Z</time></trkpt><trkpt lat="43.0826789" lon="11.6706278"><ele>475.33333333333337</ele><time>2026-04-25T14:03:20.106Z</time></trkpt><trkpt lat="43.0826296" lon="11.6707159"><ele>475.5</ele><time>2026-04-25T14:03:21.105Z</time></trkpt><trkpt lat="43.0825787" lon="11.6708013"><ele>475.66666666666663</ele><time>2026-04-25T14:03:22.106Z</time></trkpt><trkpt lat="43.0825286" lon="11.670883"><ele>475.8333333333333</ele><time>2026-04-25T14:03:23.105Z</time></trkpt><trkpt lat="43.0824775" lon="11.6709547"><ele>476.0</ele><time>2026-04-25T14:03:24.106Z</time></trkpt><trkpt lat="43.0824231" lon="11.6710165"><ele>475.99999999999994</ele><time>2026-04-25T14:03:25.105Z</time></trkpt><trkpt lat="43.0823648" lon="11.6710797"><ele>476.0</ele><time>2026-04-25T14:03:26.105Z</time></trkpt><trkpt lat="43.0823067" lon="11.6711612"><ele>476.0</ele><time>2026-04-25T14:03:27.106Z</time></trkpt><trkpt lat="43.0822514" lon="11.6712468"><ele>476.0</ele><time>2026-04-25T14:03:28.106Z</time></trkpt><trkpt lat="43.0821759" lon="11.6713102"><ele>475.99999999999994</ele><time>2026-04-25T14:03:29.106Z</time></trkpt><trkpt lat="43.0820628" lon="11.6713595"><ele>476.0</ele><time>2026-04-25T14:03:30.105Z</time></trkpt><trkpt lat="43.0819509" lon="11.6714017"><ele>476.25</ele><time>2026-04-25T14:03:31.105Z</time></trkpt><trkpt lat="43.0818291" lon="11.6714357"><ele>476.5</ele><time>2026-04-25T14:03:32.106Z</time></trkpt><trkpt lat="43.0817049" lon="11.6714677"><ele>476.75</ele><time>2026-04-25T14:03:33.106Z</time></trkpt><trkpt lat="43.0815838" lon="11.6714988"><ele>477.0</ele><time>2026-04-25T14:03:34.106Z</time></trkpt><trkpt lat="43.0814615" lon="11.6715307"><ele>478.0</ele><time>2026-04-25T14:03:35.106Z</time></trkpt><trkpt lat="43.0813314" lon="11.6715665"><ele>479.0</ele><time>2026-04-25T14:03:36.105Z</time></trkpt><trkpt lat="43.0812057" lon="11.6716049"><ele>480.0</ele><time>2026-04-25T14:03:37.106Z</time></trkpt><trkpt lat="43.0810872" lon="11.6716656"><ele>481.0</ele><time>2026-04-25T14:03:38.105Z</time></trkpt><trkpt lat="43.0809739" lon="11.6717536"><ele>481.0</ele><time>2026-04-25T14:03:39.106Z</time></trkpt><trkpt lat="43.0808753" lon="11.6718546"><ele>481.0</ele><time>2026-04-25T14:03:40.106Z</time></trkpt><trkpt lat="43.0807798" lon="11.6719616"><ele>481.0</ele><time>2026-04-25T14:03:41.106Z</time></trkpt><trkpt lat="43.0806874" lon="11.6720688"><ele>481.0</ele><time>2026-04-25T14:03:42.106Z</time></trkpt><trkpt lat="43.0806028" lon="11.6721757"><ele>481.5</ele><time>2026-04-25T14:03:43.106Z</time></trkpt><trkpt lat="43.0805184" lon="11.6722956"><ele>482.0</ele><time>2026-04-25T14:03:44.105Z</time></trkpt><trkpt lat="43.0804321" lon="11.6724238"><ele>482.5</ele><time>2026-04-25T14:03:45.106Z</time></trkpt><trkpt lat="43.0803469" lon="11.6725513"><ele>483.0</ele><time>2026-04-25T14:03:46.105Z</time></trkpt><trkpt lat="43.0802579" lon="11.6726757"><ele>482.75</ele><time>2026-04-25T14:03:47.106Z</time></trkpt><trkpt lat="43.080162" lon="11.6727867"><ele>482.5</ele><time>2026-04-25T14:03:48.106Z</time></trkpt><trkpt lat="43.0800722" lon="11.6728953"><ele>482.25</ele><time>2026-04-25T14:03:49.106Z</time></trkpt><trkpt lat="43.0799907" lon="11.6730035"><ele>482.0</ele><time>2026-04-25T14:03:50.105Z</time></trkpt><trkpt lat="43.0799083" lon="11.6731079"><ele>482.8</ele><time>2026-04-25T14:03:51.106Z</time></trkpt><trkpt lat="43.0798283" lon="11.6732098"><ele>483.6</ele><time>2026-04-25T14:03:52.106Z</time></trkpt><trkpt lat="43.0797505" lon="11.6733024"><ele>484.40000000000003</ele><time>2026-04-25T14:03:53.106Z</time></trkpt><trkpt lat="43.0796716" lon="11.6734048"><ele>485.20000000000005</ele><time>2026-04-25T14:03:54.105Z</time></trkpt><trkpt lat="43.0796241" lon="11.6735054"><ele>486.0</ele><time>2026-04-25T14:03:55.106Z</time></trkpt><trkpt lat="43.0795976" lon="11.6735851"><ele>486.0</ele><time>2026-04-25T14:03:56.105Z</time></trkpt><trkpt lat="43.0795673" lon="11.6736846"><ele>486.0</ele><time>2026-04-25T14:03:58.106Z</time></trkpt><trkpt lat="43.079539" lon="11.6737634"><ele>486.0</ele><time>2026-04-25T14:04:00.106Z</time></trkpt><trkpt lat="43.0794917" lon="11.6738862"><ele>486.0</ele><time>2026-04-25T14:04:03.105Z</time></trkpt><trkpt lat="43.0794273" lon="11.6740349"><ele>486.0</ele><time>2026-04-25T14:04:05.105Z</time></trkpt><trkpt lat="43.0793784" lon="11.6741168"><ele>486.0</ele><time>2026-04-25T14:04:06.105Z</time></trkpt><trkpt lat="43.0793314" lon="11.674216"><ele>486.0</ele><time>2026-04-25T14:04:07.106Z</time></trkpt><trkpt lat="43.0792656" lon="11.6743208"><ele>486.0</ele><time>2026-04-25T14:04:08.106Z</time></trkpt><trkpt lat="43.079207" lon="11.6744395"><ele>486.0</ele><time>2026-04-25T14:04:09.105Z</time></trkpt><trkpt lat="43.0791392" lon="11.674562"><ele>486.0</ele><time>2026-04-25T14:04:10.106Z</time></trkpt><trkpt lat="43.0790657" lon="11.674673"><ele>486.0</ele><time>2026-04-25T14:04:11.106Z</time></trkpt><trkpt lat="43.0789957" lon="11.6747825"><ele>486.4</ele><time>2026-04-25T14:04:12.106Z</time></trkpt><trkpt lat="43.0789253" lon="11.6748971"><ele>486.8</ele><time>2026-04-25T14:04:13.105Z</time></trkpt><trkpt lat="43.0788534" lon="11.6750116"><ele>487.19999999999993</ele><time>2026-04-25T14:04:14.106Z</time></trkpt><trkpt lat="43.0787801" lon="11.6751277"><ele>487.59999999999997</ele><time>2026-04-25T14:04:15.106Z</time></trkpt><trkpt lat="43.0787048" lon="11.6752364"><ele>488.0</ele><time>2026-04-25T14:04:16.106Z</time></trkpt><trkpt lat="43.0786382" lon="11.6753413"><ele>488.2</ele><time>2026-04-25T14:04:17.106Z</time></trkpt><trkpt lat="43.0785717" lon="11.6754449"><ele>488.4</ele><time>2026-04-25T14:04:18.106Z</time></trkpt><trkpt lat="43.0785105" lon="11.6755414"><ele>488.59999999999997</ele><time>2026-04-25T14:04:19.106Z</time></trkpt><trkpt lat="43.0784536" lon="11.6756361"><ele>488.79999999999995</ele><time>2026-04-25T14:04:20.105Z</time></trkpt><trkpt lat="43.0783988" lon="11.6757236"><ele>489.0</ele><time>2026-04-25T14:04:21.106Z</time></trkpt><trkpt lat="43.0783453" lon="11.6758115"><ele>489.0</ele><time>2026-04-25T14:04:22.106Z</time></trkpt><trkpt lat="43.0782956" lon="11.6758973"><ele>489.00000000000006</ele><time>2026-04-25T14:04:23.105Z</time></trkpt><trkpt lat="43.0782474" lon="11.6759777"><ele>489.0</ele><time>2026-04-25T14:04:24.106Z</time></trkpt><trkpt lat="43.0782025" lon="11.6760436"><ele>489.0</ele><time>2026-04-25T14:04:25.105Z</time></trkpt><trkpt lat="43.0781622" lon="11.6761187"><ele>489.00000000000006</ele><time>2026-04-25T14:04:26.106Z</time></trkpt><trkpt lat="43.0781205" lon="11.6761935"><ele>489.0</ele><time>2026-04-25T14:04:27.106Z</time></trkpt><trkpt lat="43.0780792" lon="11.6762676"><ele>489.0</ele><time>2026-04-25T14:04:28.106Z</time></trkpt><trkpt lat="43.0780332" lon="11.6763326"><ele>489.0</ele><time>2026-04-25T14:04:29.106Z</time></trkpt><trkpt lat="43.0779893" lon="11.6763997"><ele>489.0</ele><time>2026-04-25T14:04:30.106Z</time></trkpt><trkpt lat="43.0779079" lon="11.6765319"><ele>489.0</ele><time>2026-04-25T14:04:32.105Z</time></trkpt><trkpt lat="43.0778238" lon="11.6766579"><ele>489.0</ele><time>2026-04-25T14:04:34.106Z</time></trkpt><trkpt lat="43.077744" lon="11.6767917"><ele>489.0</ele><time>2026-04-25T14:04:36.106Z</time></trkpt><trkpt lat="43.0776941" lon="11.6769078"><ele>489.1666666666667</ele><time>2026-04-25T14:04:38.106Z</time></trkpt><trkpt lat="43.0776649" lon="11.6770217"><ele>489.33333333333337</ele><time>2026-04-25T14:04:40.106Z</time></trkpt><trkpt lat="43.0776416" lon="11.6771238"><ele>489.5</ele><time>2026-04-25T14:04:43.106Z</time></trkpt><trkpt lat="43.0776122" lon="11.6772135"><ele>489.6666666666667</ele><time>2026-04-25T14:04:47.106Z</time></trkpt><trkpt lat="43.0775835" lon="11.6773302"><ele>489.83333333333337</ele><time>2026-04-25T14:04:50.106Z</time></trkpt><trkpt lat="43.0775768" lon="11.677416"><ele>490.0</ele><time>2026-04-25T14:04:52.105Z</time></trkpt><trkpt lat="43.0775793" lon="11.67753"><ele>490.00000000000006</ele><time>2026-04-25T14:04:54.106Z</time></trkpt><trkpt lat="43.0775879" lon="11.6776714"><ele>490.0</ele><time>2026-04-25T14:04:56.106Z</time></trkpt><trkpt lat="43.0775777" lon="11.6777634"><ele>490.0</ele><time>2026-04-25T14:04:57.106Z</time></trkpt><trkpt lat="43.0775716" lon="11.6778593"><ele>490.0</ele><time>2026-04-25T14:04:58.106Z</time></trkpt><trkpt lat="43.077575" lon="11.6779726"><ele>490.00000000000006</ele><time>2026-04-25T14:04:59.106Z</time></trkpt><trkpt lat="43.077574" lon="11.6780775"><ele>490.0</ele><time>2026-04-25T14:05:00.106Z</time></trkpt><trkpt lat="43.0775672" lon="11.6781877"><ele>490.1666666666667</ele><time>2026-04-25T14:05:01.105Z</time></trkpt><trkpt lat="43.0775533" lon="11.6783038"><ele>490.33333333333337</ele><time>2026-04-25T14:05:02.106Z</time></trkpt><trkpt lat="43.0775407" lon="11.6784187"><ele>490.5</ele><time>2026-04-25T14:05:03.106Z</time></trkpt><trkpt lat="43.077534" lon="11.6785234"><ele>490.66666666666663</ele><time>2026-04-25T14:05:04.106Z</time></trkpt><trkpt lat="43.0775259" lon="11.6786184"><ele>490.8333333333333</ele><time>2026-04-25T14:05:05.106Z</time></trkpt><trkpt lat="43.0775189" lon="11.6787079"><ele>491.0</ele><time>2026-04-25T14:05:06.106Z</time></trkpt><trkpt lat="43.0775119" lon="11.6788021"><ele>491.0</ele><time>2026-04-25T14:05:07.106Z</time></trkpt><trkpt lat="43.0775043" lon="11.6788901"><ele>490.99999999999994</ele><time>2026-04-25T14:05:08.106Z</time></trkpt><trkpt lat="43.0775024" lon="11.6789862"><ele>491.0</ele><time>2026-04-25T14:05:09.106Z</time></trkpt><trkpt lat="43.0775049" lon="11.6790809"><ele>491.0</ele><time>2026-04-25T14:05:10.105Z</time></trkpt><trkpt lat="43.0775008" lon="11.6791838"><ele>490.99999999999994</ele><time>2026-04-25T14:05:11.106Z</time></trkpt><trkpt lat="43.0774968" lon="11.6792891"><ele>491.0</ele><time>2026-04-25T14:05:12.106Z</time></trkpt><trkpt lat="43.0774844" lon="11.6793975"><ele>491.0</ele><time>2026-04-25T14:05:13.106Z</time></trkpt><trkpt lat="43.0774704" lon="11.6795093"><ele>490.6</ele><time>2026-04-25T14:05:14.106Z</time></trkpt><trkpt lat="43.0774466" lon="11.6796247"><ele>490.20000000000005</ele><time>2026-04-25T14:05:15.106Z</time></trkpt><trkpt lat="43.0774175" lon="11.6797423"><ele>489.79999999999995</ele><time>2026-04-25T14:05:16.106Z</time></trkpt><trkpt lat="43.0773835" lon="11.67987"><ele>489.4</ele><time>2026-04-25T14:05:17.106Z</time></trkpt><trkpt lat="43.077353" lon="11.6799946"><ele>489.0</ele><time>2026-04-25T14:05:18.105Z</time></trkpt><trkpt lat="43.077321" lon="11.6801148"><ele>489.6666666666667</ele><time>2026-04-25T14:05:19.105Z</time></trkpt><trkpt lat="43.077293" lon="11.6802158"><ele>490.33333333333337</ele><time>2026-04-25T14:05:20.105Z</time></trkpt><trkpt lat="43.0772625" lon="11.6803157"><ele>491.0</ele><time>2026-04-25T14:05:21.106Z</time></trkpt><trkpt lat="43.0772401" lon="11.680423"><ele>491.6666666666667</ele><time>2026-04-25T14:05:22.106Z</time></trkpt><trkpt lat="43.0772164" lon="11.6805305"><ele>492.33333333333337</ele><time>2026-04-25T14:05:23.105Z</time></trkpt><trkpt lat="43.0771978" lon="11.6806469"><ele>493.0</ele><time>2026-04-25T14:05:24.106Z</time></trkpt><trkpt lat="43.0771671" lon="11.6807755"><ele>493.0</ele><time>2026-04-25T14:05:25.106Z</time></trkpt><trkpt lat="43.0771354" lon="11.6809057"><ele>492.99999999999994</ele><time>2026-04-25T14:05:26.105Z</time></trkpt><trkpt lat="43.0771021" lon="11.6810406"><ele>492.99999999999994</ele><time>2026-04-25T14:05:27.106Z</time></trkpt><trkpt lat="43.0770765" lon="11.6811762"><ele>493.0</ele><time>2026-04-25T14:05:28.106Z</time></trkpt><trkpt lat="43.0770578" lon="11.6813049"><ele>493.0</ele><time>2026-04-25T14:05:29.106Z</time></trkpt><trkpt lat="43.0770387" lon="11.6814316"><ele>491.33333333333337</ele><time>2026-04-25T14:05:30.106Z</time></trkpt><trkpt lat="43.0770192" lon="11.6815506"><ele>489.6666666666667</ele><time>2026-04-25T14:05:31.106Z</time></trkpt><trkpt lat="43.0769939" lon="11.6816404"><ele>488.0</ele><time>2026-04-25T14:05:32.105Z</time></trkpt><trkpt lat="43.0769554" lon="11.6817246"><ele>486.33333333333337</ele><time>2026-04-25T14:05:33.105Z</time></trkpt><trkpt lat="43.0768875" lon="11.6817704"><ele>484.6666666666667</ele><time>2026-04-25T14:05:34.106Z</time></trkpt><trkpt lat="43.0767939" lon="11.6817873"><ele>483.0</ele><time>2026-04-25T14:05:35.106Z</time></trkpt><trkpt lat="43.0767014" lon="11.681796"><ele>483.0</ele><time>2026-04-25T14:05:36.106Z</time></trkpt><trkpt lat="43.0766069" lon="11.681809"><ele>482.99999999999994</ele><time>2026-04-25T14:05:37.106Z</time></trkpt><trkpt lat="43.076496" lon="11.6818294"><ele>482.99999999999994</ele><time>2026-04-25T14:05:38.106Z</time></trkpt><trkpt lat="43.0763896" lon="11.6818388"><ele>483.0</ele><time>2026-04-25T14:05:39.106Z</time></trkpt><trkpt lat="43.0762895" lon="11.6818197"><ele>483.0</ele><time>2026-04-25T14:05:40.106Z</time></trkpt><trkpt lat="43.0762079" lon="11.6817329"><ele>480.5</ele><time>2026-04-25T14:05:41.106Z</time></trkpt><trkpt lat="43.0761466" lon="11.6816186"><ele>478.0</ele><time>2026-04-25T14:05:42.106Z</time></trkpt><trkpt lat="43.0761097" lon="11.6814681"><ele>475.5</ele><time>2026-04-25T14:05:43.106Z</time></trkpt><trkpt lat="43.076075" lon="11.6813158"><ele>473.0</ele><time>2026-04-25T14:05:44.106Z</time></trkpt><trkpt lat="43.0760453" lon="11.6811548"><ele>474.25</ele><time>2026-04-25T14:05:45.106Z</time></trkpt><trkpt lat="43.0760101" lon="11.6810013"><ele>475.5</ele><time>2026-04-25T14:05:46.105Z</time></trkpt><trkpt lat="43.0759785" lon="11.6808375"><ele>476.75</ele><time>2026-04-25T14:05:47.106Z</time></trkpt><trkpt lat="43.0759634" lon="11.680674"><ele>478.0</ele><time>2026-04-25T14:05:48.106Z</time></trkpt><trkpt lat="43.0759742" lon="11.680507"><ele>478.0</ele><time>2026-04-25T14:05:49.106Z</time></trkpt><trkpt lat="43.0760013" lon="11.6803337"><ele>478.0</ele><time>2026-04-25T14:05:50.106Z</time></trkpt><trkpt lat="43.0760255" lon="11.6801829"><ele>478.0</ele><time>2026-04-25T14:05:51.106Z</time></trkpt><trkpt lat="43.0760508" lon="11.6800361"><ele>478.0</ele><time>2026-04-25T14:05:52.105Z</time></trkpt><trkpt lat="43.0760657" lon="11.6799023"><ele>478.0</ele><time>2026-04-25T14:05:53.106Z</time></trkpt><trkpt lat="43.076077" lon="11.6797763"><ele>477.99999999999994</ele><time>2026-04-25T14:05:54.106Z</time></trkpt><trkpt lat="43.0760775" lon="11.679648"><ele>477.99999999999994</ele><time>2026-04-25T14:05:55.105Z</time></trkpt><trkpt lat="43.076069" lon="11.6795215"><ele>478.0</ele><time>2026-04-25T14:05:56.105Z</time></trkpt><trkpt lat="43.0760497" lon="11.6793916"><ele>478.0</ele><time>2026-04-25T14:05:57.106Z</time></trkpt><trkpt lat="43.076022" lon="11.6792665"><ele>478.2</ele><time>2026-04-25T14:05:58.106Z</time></trkpt><trkpt lat="43.0759953" lon="11.679138"><ele>478.4</ele><time>2026-04-25T14:05:59.106Z</time></trkpt><trkpt lat="43.0759748" lon="11.6789972"><ele>478.59999999999997</ele><time>2026-04-25T14:06:00.106Z</time></trkpt><trkpt lat="43.0759665" lon="11.6788446"><ele>478.79999999999995</ele><time>2026-04-25T14:06:01.105Z</time></trkpt><trkpt lat="43.0759578" lon="11.6786946"><ele>479.0</ele><time>2026-04-25T14:06:02.106Z</time></trkpt><trkpt lat="43.0759508" lon="11.6785368"><ele>478.5</ele><time>2026-04-25T14:06:03.106Z</time></trkpt><trkpt lat="43.0759462" lon="11.6783699"><ele>478.0</ele><time>2026-04-25T14:06:04.105Z</time></trkpt><trkpt lat="43.0759565" lon="11.6782117"><ele>477.5</ele><time>2026-04-25T14:06:05.106Z</time></trkpt><trkpt lat="43.0759794" lon="11.6780535"><ele>477.0</ele><time>2026-04-25T14:06:06.105Z</time></trkpt><trkpt lat="43.0760018" lon="11.6778909"><ele>475.25</ele><time>2026-04-25T14:06:07.106Z</time></trkpt><trkpt lat="43.0760306" lon="11.677733"><ele>473.5</ele><time>2026-04-25T14:06:08.106Z</time></trkpt><trkpt lat="43.0760596" lon="11.6775804"><ele>471.75</ele><time>2026-04-25T14:06:09.106Z</time></trkpt><trkpt lat="43.0760886" lon="11.6774287"><ele>470.0</ele><time>2026-04-25T14:06:10.105Z</time></trkpt><trkpt lat="43.0761177" lon="11.6772812"><ele>470.0</ele><time>2026-04-25T14:06:11.106Z</time></trkpt><trkpt lat="43.0761451" lon="11.6771355"><ele>470.0</ele><time>2026-04-25T14:06:12.106Z</time></trkpt><trkpt lat="43.0761771" lon="11.6769914"><ele>470.0</ele><time>2026-04-25T14:06:13.106Z</time></trkpt><trkpt lat="43.0762207" lon="11.6768488"><ele>470.0</ele><time>2026-04-25T14:06:14.105Z</time></trkpt><trkpt lat="43.0762715" lon="11.6767145"><ele>470.0</ele><time>2026-04-25T14:06:15.105Z</time></trkpt><trkpt lat="43.0763239" lon="11.6765778"><ele>468.0</ele><time>2026-04-25T14:06:16.106Z</time></trkpt><trkpt lat="43.0763756" lon="11.6764218"><ele>466.0</ele><time>2026-04-25T14:06:17.105Z</time></trkpt><trkpt lat="43.076422" lon="11.6762637"><ele>464.0</ele><time>2026-04-25T14:06:18.106Z</time></trkpt><trkpt lat="43.0764688" lon="11.67611"><ele>462.0</ele><time>2026-04-25T14:06:19.106Z</time></trkpt><trkpt lat="43.0765119" lon="11.6759609"><ele>460.20000000000005</ele><time>2026-04-25T14:06:20.105Z</time></trkpt><trkpt lat="43.0765512" lon="11.6758244"><ele>458.40000000000003</ele><time>2026-04-25T14:06:21.105Z</time></trkpt><trkpt lat="43.0765867" lon="11.6757089"><ele>456.59999999999997</ele><time>2026-04-25T14:06:22.106Z</time></trkpt><trkpt lat="43.0766105" lon="11.6755803"><ele>454.79999999999995</ele><time>2026-04-25T14:06:23.106Z</time></trkpt><trkpt lat="43.0766399" lon="11.6754603"><ele>453.0</ele><time>2026-04-25T14:06:24.106Z</time></trkpt><trkpt lat="43.0766744" lon="11.6753414"><ele>454.59999999999997</ele><time>2026-04-25T14:06:25.105Z</time></trkpt><trkpt lat="43.0767077" lon="11.6752167"><ele>456.19999999999993</ele><time>2026-04-25T14:06:26.106Z</time></trkpt><trkpt lat="43.0767424" lon="11.6750967"><ele>457.8</ele><time>2026-04-25T14:06:27.106Z</time></trkpt><trkpt lat="43.0767736" lon="11.6749739"><ele>459.4</ele><time>2026-04-25T14:06:28.106Z</time></trkpt><trkpt lat="43.0768058" lon="11.6748591"><ele>461.0</ele><time>2026-04-25T14:06:29.106Z</time></trkpt><trkpt lat="43.0768414" lon="11.6747429"><ele>461.0</ele><time>2026-04-25T14:06:30.106Z</time></trkpt><trkpt lat="43.0768816" lon="11.6746322"><ele>461.0</ele><time>2026-04-25T14:06:31.106Z</time></trkpt><trkpt lat="43.0769286" lon="11.6745215"><ele>461.0</ele><time>2026-04-25T14:06:32.106Z</time></trkpt><trkpt lat="43.0769734" lon="11.6744154"><ele>461.0</ele><time>2026-04-25T14:06:33.106Z</time></trkpt><trkpt lat="43.0770038" lon="11.6742976"><ele>461.0</ele><time>2026-04-25T14:06:34.106Z</time></trkpt><trkpt lat="43.0770124" lon="11.6741738"><ele>459.20000000000005</ele><time>2026-04-25T14:06:35.105Z</time></trkpt><trkpt lat="43.0770031" lon="11.6740422"><ele>457.40000000000003</ele><time>2026-04-25T14:06:36.106Z</time></trkpt><trkpt lat="43.0769843" lon="11.6739096"><ele>455.6</ele><time>2026-04-25T14:06:37.105Z</time></trkpt><trkpt lat="43.0769768" lon="11.6737825"><ele>453.8</ele><time>2026-04-25T14:06:38.105Z</time></trkpt><trkpt lat="43.0769746" lon="11.6736586"><ele>452.0</ele><time>2026-04-25T14:06:39.106Z</time></trkpt><trkpt lat="43.0769796" lon="11.6735603"><ele>450.99999999999994</ele><time>2026-04-25T14:06:40.105Z</time></trkpt><trkpt lat="43.0769747" lon="11.6734109"><ele>450.0</ele><time>2026-04-25T14:06:42.106Z</time></trkpt><trkpt lat="43.0769737" lon="11.6733051"><ele>449.0</ele><time>2026-04-25T14:06:44.105Z</time></trkpt><trkpt lat="43.0769281" lon="11.6732041"><ele>448.0</ele><time>2026-04-25T14:06:47.106Z</time></trkpt><trkpt lat="43.0768675" lon="11.6731649"><ele>446.99999999999994</ele><time>2026-04-25T14:06:56.106Z</time></trkpt><trkpt lat="43.0767916" lon="11.673224"><ele>446.0</ele><time>2026-04-25T14:19:27.105Z</time></trkpt><trkpt lat="43.0767067" lon="11.6733156"><ele>445.99999999999994</ele><time>2026-04-25T14:19:29.105Z</time></trkpt><trkpt lat="43.0766312" lon="11.6734542"><ele>446.0</ele><time>2026-04-25T14:19:31.105Z</time></trkpt><trkpt lat="43.0765965" lon="11.6735355"><ele>446.0</ele><time>2026-04-25T14:19:32.105Z</time></trkpt><trkpt lat="43.0765626" lon="11.6736139"><ele>446.0</ele><time>2026-04-25T14:19:33.104Z</time></trkpt><trkpt lat="43.0765266" lon="11.6736871"><ele>445.99999999999994</ele><time>2026-04-25T14:19:34.105Z</time></trkpt><trkpt lat="43.0764571" lon="11.6738192"><ele>446.0</ele><time>2026-04-25T14:19:36.105Z</time></trkpt><trkpt lat="43.0763724" lon="11.6739552"><ele>444.7142857142857</ele><time>2026-04-25T14:19:38.105Z</time></trkpt><trkpt lat="43.0763303" lon="11.6740268"><ele>443.42857142857144</ele><time>2026-04-25T14:19:39.105Z</time></trkpt><trkpt lat="43.0762871" lon="11.674091"><ele>442.1428571428571</ele><time>2026-04-25T14:19:40.105Z</time></trkpt><trkpt lat="43.076236" lon="11.6741547"><ele>440.8571428571429</ele><time>2026-04-25T14:19:41.105Z</time></trkpt><trkpt lat="43.0761817" lon="11.6742087"><ele>439.5714285714286</ele><time>2026-04-25T14:19:42.104Z</time></trkpt><trkpt lat="43.0761221" lon="11.6742538"><ele>438.2857142857143</ele><time>2026-04-25T14:19:43.105Z</time></trkpt><trkpt lat="43.0760656" lon="11.6743059"><ele>437.0</ele><time>2026-04-25T14:19:44.105Z</time></trkpt><trkpt lat="43.0760045" lon="11.6743538"><ele>437.0</ele><time>2026-04-25T14:19:45.105Z</time></trkpt><trkpt lat="43.075944" lon="11.6744012"><ele>437.0</ele><time>2026-04-25T14:19:46.105Z</time></trkpt><trkpt lat="43.0758848" lon="11.6744518"><ele>437.0</ele><time>2026-04-25T14:19:47.104Z</time></trkpt><trkpt lat="43.0758241" lon="11.6745076"><ele>437.0</ele><time>2026-04-25T14:19:48.105Z</time></trkpt><trkpt lat="43.0757636" lon="11.6745648"><ele>437.0</ele><time>2026-04-25T14:19:49.105Z</time></trkpt><trkpt lat="43.0756974" lon="11.6746238"><ele>437.0</ele><time>2026-04-25T14:19:50.104Z</time></trkpt><trkpt lat="43.0756284" lon="11.6746797"><ele>437.0</ele><time>2026-04-25T14:19:51.105Z</time></trkpt><trkpt lat="43.0755504" lon="11.6747301"><ele>436.20000000000005</ele><time>2026-04-25T14:19:52.105Z</time></trkpt><trkpt lat="43.0754676" lon="11.6747922"><ele>435.40000000000003</ele><time>2026-04-25T14:19:53.104Z</time></trkpt><trkpt lat="43.0753835" lon="11.6748588"><ele>434.59999999999997</ele><time>2026-04-25T14:19:54.104Z</time></trkpt><trkpt lat="43.0752979" lon="11.6749242"><ele>433.79999999999995</ele><time>2026-04-25T14:19:55.105Z</time></trkpt><trkpt lat="43.0752078" lon="11.6749824"><ele>433.0</ele><time>2026-04-25T14:19:56.105Z</time></trkpt><trkpt lat="43.0751137" lon="11.6750437"><ele>433.0</ele><time>2026-04-25T14:19:57.104Z</time></trkpt><trkpt lat="43.0750111" lon="11.6750965"><ele>432.99999999999994</ele><time>2026-04-25T14:19:58.105Z</time></trkpt><trkpt lat="43.0749126" lon="11.6751492"><ele>432.99999999999994</ele><time>2026-04-25T14:19:59.105Z</time></trkpt><trkpt lat="43.074817" lon="11.6752097"><ele>433.0</ele><time>2026-04-25T14:20:00.105Z</time></trkpt><trkpt lat="43.0747305" lon="11.6752826"><ele>433.0</ele><time>2026-04-25T14:20:01.105Z</time></trkpt><trkpt lat="43.0746516" lon="11.6753741"><ele>431.75</ele><time>2026-04-25T14:20:02.105Z</time></trkpt><trkpt lat="43.0745714" lon="11.6754835"><ele>430.5</ele><time>2026-04-25T14:20:03.104Z</time></trkpt><trkpt lat="43.0744987" lon="11.6756"><ele>429.25</ele><time>2026-04-25T14:20:04.105Z</time></trkpt><trkpt lat="43.074423" lon="11.6757424"><ele>428.0</ele><time>2026-04-25T14:20:05.105Z</time></trkpt><trkpt lat="43.0743513" lon="11.6758809"><ele>428.0</ele><time>2026-04-25T14:20:06.104Z</time></trkpt><trkpt lat="43.0742743" lon="11.6760307"><ele>428.0</ele><time>2026-04-25T14:20:07.105Z</time></trkpt><trkpt lat="43.0742049" lon="11.6761908"><ele>428.0</ele><time>2026-04-25T14:20:08.104Z</time></trkpt><trkpt lat="43.0741464" lon="11.6763523"><ele>428.0</ele><time>2026-04-25T14:20:09.105Z</time></trkpt><trkpt lat="43.0740928" lon="11.676516"><ele>423.0</ele><time>2026-04-25T14:20:10.105Z</time></trkpt><trkpt lat="43.0740543" lon="11.6766861"><ele>418.0</ele><time>2026-04-25T14:20:11.104Z</time></trkpt><trkpt lat="43.074015" lon="11.6768543"><ele>413.0</ele><time>2026-04-25T14:20:12.105Z</time></trkpt><trkpt lat="43.0739696" lon="11.6770182"><ele>408.0</ele><time>2026-04-25T14:20:13.105Z</time></trkpt><trkpt lat="43.0739273" lon="11.6771787"><ele>408.0</ele><time>2026-04-25T14:20:14.105Z</time></trkpt><trkpt lat="43.0738693" lon="11.677335"><ele>408.0</ele><time>2026-04-25T14:20:15.104Z</time></trkpt><trkpt lat="43.0738126" lon="11.6774906"><ele>408.0</ele><time>2026-04-25T14:20:16.104Z</time></trkpt><trkpt lat="43.0737488" lon="11.677645"><ele>408.0</ele><time>2026-04-25T14:20:17.105Z</time></trkpt><trkpt lat="43.0736869" lon="11.6777967"><ele>409.25</ele><time>2026-04-25T14:20:18.105Z</time></trkpt><trkpt lat="43.0736203" lon="11.6779398"><ele>410.5</ele><time>2026-04-25T14:20:19.105Z</time></trkpt><trkpt lat="43.0735543" lon="11.6780834"><ele>411.75</ele><time>2026-04-25T14:20:20.104Z</time></trkpt><trkpt lat="43.073479" lon="11.6782225"><ele>413.0</ele><time>2026-04-25T14:20:21.105Z</time></trkpt><trkpt lat="43.0734006" lon="11.6783573"><ele>413.0</ele><time>2026-04-25T14:20:22.104Z</time></trkpt><trkpt lat="43.0733107" lon="11.6784849"><ele>413.0</ele><time>2026-04-25T14:20:23.105Z</time></trkpt><trkpt lat="43.073213" lon="11.6786094"><ele>413.0</ele><time>2026-04-25T14:20:24.105Z</time></trkpt><trkpt lat="43.0731202" lon="11.678714"><ele>413.0</ele><time>2026-04-25T14:20:25.104Z</time></trkpt><trkpt lat="43.073033" lon="11.6788237"><ele>411.4</ele><time>2026-04-25T14:20:26.105Z</time></trkpt><trkpt lat="43.0729516" lon="11.6789232"><ele>409.79999999999995</ele><time>2026-04-25T14:20:27.104Z</time></trkpt><trkpt lat="43.0728764" lon="11.679034"><ele>408.2</ele><time>2026-04-25T14:20:28.105Z</time></trkpt><trkpt lat="43.072814" lon="11.6791436"><ele>406.6</ele><time>2026-04-25T14:20:29.105Z</time></trkpt><trkpt lat="43.0727539" lon="11.6792503"><ele>405.0</ele><time>2026-04-25T14:20:30.104Z</time></trkpt><trkpt lat="43.0726995" lon="11.6793596"><ele>405.6</ele><time>2026-04-25T14:20:31.104Z</time></trkpt><trkpt lat="43.0726448" lon="11.6794753"><ele>406.2</ele><time>2026-04-25T14:20:32.105Z</time></trkpt><trkpt lat="43.0725914" lon="11.6795983"><ele>406.79999999999995</ele><time>2026-04-25T14:20:33.105Z</time></trkpt><trkpt lat="43.0725348" lon="11.6797214"><ele>407.4</ele><time>2026-04-25T14:20:34.105Z</time></trkpt><trkpt lat="43.0724786" lon="11.6798443"><ele>408.0</ele><time>2026-04-25T14:20:35.104Z</time></trkpt><trkpt lat="43.0724297" lon="11.6799566"><ele>406.5</ele><time>2026-04-25T14:20:36.105Z</time></trkpt><trkpt lat="43.0723768" lon="11.6800624"><ele>405.0</ele><time>2026-04-25T14:20:37.105Z</time></trkpt><trkpt lat="43.0723199" lon="11.6801521"><ele>403.5</ele><time>2026-04-25T14:20:38.105Z</time></trkpt><trkpt lat="43.0722427" lon="11.6802044"><ele>402.0</ele><time>2026-04-25T14:20:39.104Z</time></trkpt><trkpt lat="43.0721578" lon="11.6802118"><ele>400.5</ele><time>2026-04-25T14:20:40.105Z</time></trkpt><trkpt lat="43.0720737" lon="11.6801851"><ele>399.0</ele><time>2026-04-25T14:20:41.105Z</time></trkpt><trkpt lat="43.0720033" lon="11.6801099"><ele>399.0</ele><time>2026-04-25T14:20:42.105Z</time></trkpt><trkpt lat="43.0719709" lon="11.6800041"><ele>399.0</ele><time>2026-04-25T14:20:43.105Z</time></trkpt><trkpt lat="43.0719841" lon="11.6798776"><ele>399.0</ele><time>2026-04-25T14:20:44.105Z</time></trkpt><trkpt lat="43.0720106" lon="11.6797564"><ele>399.0</ele><time>2026-04-25T14:20:45.105Z</time></trkpt><trkpt lat="43.0720462" lon="11.6796359"><ele>399.0</ele><time>2026-04-25T14:20:46.105Z</time></trkpt><trkpt lat="43.0720825" lon="11.6795113"><ele>398.2</ele><time>2026-04-25T14:20:47.105Z</time></trkpt><trkpt lat="43.0721176" lon="11.6793881"><ele>397.4</ele><time>2026-04-25T14:20:48.105Z</time></trkpt><trkpt lat="43.0721503" lon="11.6792648"><ele>396.6</ele><time>2026-04-25T14:20:49.105Z</time></trkpt><trkpt lat="43.0721845" lon="11.6791384"><ele>395.8</ele><time>2026-04-25T14:20:50.104Z</time></trkpt><trkpt lat="43.0722153" lon="11.6790094"><ele>395.0</ele><time>2026-04-25T14:20:51.105Z</time></trkpt><trkpt lat="43.0722348" lon="11.6788802"><ele>395.0</ele><time>2026-04-25T14:20:52.105Z</time></trkpt><trkpt lat="43.0722287" lon="11.6787565"><ele>395.0</ele><time>2026-04-25T14:20:53.105Z</time></trkpt><trkpt lat="43.0721914" lon="11.6786505"><ele>395.0</ele><time>2026-04-25T14:20:54.104Z</time></trkpt><trkpt lat="43.0721085" lon="11.6785843"><ele>395.0</ele><time>2026-04-25T14:20:55.105Z</time></trkpt><trkpt lat="43.0720168" lon="11.678552"><ele>395.0</ele><time>2026-04-25T14:20:56.105Z</time></trkpt><trkpt lat="43.0719054" lon="11.6785596"><ele>395.0</ele><time>2026-04-25T14:20:57.104Z</time></trkpt><trkpt lat="43.0717721" lon="11.6786028"><ele>395.0</ele><time>2026-04-25T14:20:58.105Z</time></trkpt><trkpt lat="43.0716303" lon="11.6786292"><ele>395.0</ele><time>2026-04-25T14:20:59.105Z</time></trkpt><trkpt lat="43.0714723" lon="11.6786473"><ele>395.0</ele><time>2026-04-25T14:21:00.104Z</time></trkpt><trkpt lat="43.0713046" lon="11.6786469"><ele>392.3333333333333</ele><time>2026-04-25T14:21:01.105Z</time></trkpt><trkpt lat="43.0711278" lon="11.678657"><ele>389.66666666666663</ele><time>2026-04-25T14:21:02.104Z</time></trkpt><trkpt lat="43.0709425" lon="11.6786766"><ele>387.0</ele><time>2026-04-25T14:21:03.105Z</time></trkpt><trkpt lat="43.0707541" lon="11.6786965"><ele>384.6666666666667</ele><time>2026-04-25T14:21:04.105Z</time></trkpt><trkpt lat="43.0705757" lon="11.6787161"><ele>382.33333333333337</ele><time>2026-04-25T14:21:05.105Z</time></trkpt><trkpt lat="43.0703988" lon="11.6787371"><ele>380.0</ele><time>2026-04-25T14:21:06.105Z</time></trkpt><trkpt lat="43.0702271" lon="11.6787642"><ele>380.0</ele><time>2026-04-25T14:21:07.105Z</time></trkpt><trkpt lat="43.0700572" lon="11.678779"><ele>380.0</ele><time>2026-04-25T14:21:08.105Z</time></trkpt><trkpt lat="43.0698894" lon="11.6787856"><ele>380.0</ele><time>2026-04-25T14:21:09.105Z</time></trkpt><trkpt lat="43.0697217" lon="11.6787999"><ele>377.0</ele><time>2026-04-25T14:21:10.105Z</time></trkpt><trkpt lat="43.0695588" lon="11.6788264"><ele>374.0</ele><time>2026-04-25T14:21:11.105Z</time></trkpt><trkpt lat="43.069414" lon="11.6788665"><ele>371.0</ele><time>2026-04-25T14:21:12.104Z</time></trkpt><trkpt lat="43.0692846" lon="11.6789581"><ele>371.0</ele><time>2026-04-25T14:21:13.105Z</time></trkpt><trkpt lat="43.0691773" lon="11.6790662"><ele>371.0</ele><time>2026-04-25T14:21:14.105Z</time></trkpt><trkpt lat="43.0690939" lon="11.6792158"><ele>371.0</ele><time>2026-04-25T14:21:15.105Z</time></trkpt><trkpt lat="43.0690505" lon="11.6793761"><ele>371.0</ele><time>2026-04-25T14:21:16.104Z</time></trkpt><trkpt lat="43.0690223" lon="11.6795008"><ele>369.5</ele><time>2026-04-25T14:21:17.104Z</time></trkpt><trkpt lat="43.0689906" lon="11.6796088"><ele>368.0</ele><time>2026-04-25T14:21:18.105Z</time></trkpt><trkpt lat="43.0689627" lon="11.6797124"><ele>366.5</ele><time>2026-04-25T14:21:19.105Z</time></trkpt><trkpt lat="43.0689192" lon="11.6798094"><ele>365.0</ele><time>2026-04-25T14:21:20.105Z</time></trkpt><trkpt lat="43.0688554" lon="11.6798867"><ele>363.5</ele><time>2026-04-25T14:21:21.105Z</time></trkpt><trkpt lat="43.0687759" lon="11.6799356"><ele>362.0</ele><time>2026-04-25T14:21:22.105Z</time></trkpt><trkpt lat="43.0686915" lon="11.6799336"><ele>362.0</ele><time>2026-04-25T14:21:23.104Z</time></trkpt><trkpt lat="43.0685997" lon="11.6798866"><ele>362.0</ele><time>2026-04-25T14:21:24.105Z</time></trkpt><trkpt lat="43.0685324" lon="11.6798157"><ele>362.0</ele><time>2026-04-25T14:21:25.104Z</time></trkpt><trkpt lat="43.068485" lon="11.6797188"><ele>362.0</ele><time>2026-04-25T14:21:26.105Z</time></trkpt><trkpt lat="43.0684593" lon="11.6796051"><ele>362.0</ele><time>2026-04-25T14:21:27.105Z</time></trkpt><trkpt lat="43.0684586" lon="11.6794922"><ele>362.0</ele><time>2026-04-25T14:21:28.105Z</time></trkpt><trkpt lat="43.0684708" lon="11.6793684"><ele>361.83333333333337</ele><time>2026-04-25T14:21:29.105Z</time></trkpt><trkpt lat="43.068488" lon="11.6792456"><ele>361.6666666666667</ele><time>2026-04-25T14:21:30.105Z</time></trkpt><trkpt lat="43.0685021" lon="11.6791254"><ele>361.5</ele><time>2026-04-25T14:21:31.105Z</time></trkpt><trkpt lat="43.0685121" lon="11.6790091"><ele>361.3333333333333</ele><time>2026-04-25T14:21:32.105Z</time></trkpt><trkpt lat="43.0685264" lon="11.6789004"><ele>361.16666666666663</ele><time>2026-04-25T14:21:33.105Z</time></trkpt><trkpt lat="43.068541" lon="11.6787988"><ele>361.0</ele><time>2026-04-25T14:21:34.105Z</time></trkpt><trkpt lat="43.0685526" lon="11.6787038"><ele>361.0</ele><time>2026-04-25T14:21:35.105Z</time></trkpt><trkpt lat="43.0685458" lon="11.6786179"><ele>361.0</ele><time>2026-04-25T14:21:36.105Z</time></trkpt><trkpt lat="43.0685146" lon="11.6785367"><ele>361.0</ele><time>2026-04-25T14:21:37.105Z</time></trkpt><trkpt lat="43.0684593" lon="11.6784917"><ele>361.0</ele><time>2026-04-25T14:21:38.105Z</time></trkpt><trkpt lat="43.0683773" lon="11.6784577"><ele>361.0</ele><time>2026-04-25T14:21:39.104Z</time></trkpt><trkpt lat="43.0682627" lon="11.6784854"><ele>361.0</ele><time>2026-04-25T14:21:40.105Z</time></trkpt><trkpt lat="43.0681465" lon="11.6785347"><ele>359.5</ele><time>2026-04-25T14:21:41.105Z</time></trkpt><trkpt lat="43.0680171" lon="11.6785748"><ele>358.0</ele><time>2026-04-25T14:21:42.104Z</time></trkpt><trkpt lat="43.0678833" lon="11.6786028"><ele>356.5</ele><time>2026-04-25T14:21:43.104Z</time></trkpt><trkpt lat="43.067752" lon="11.6786167"><ele>355.0</ele><time>2026-04-25T14:21:44.105Z</time></trkpt><trkpt lat="43.0676236" lon="11.6786165"><ele>352.75</ele><time>2026-04-25T14:21:45.104Z</time></trkpt><trkpt lat="43.0674883" lon="11.6785847"><ele>350.5</ele><time>2026-04-25T14:21:46.104Z</time></trkpt><trkpt lat="43.0673485" lon="11.6785377"><ele>348.25</ele><time>2026-04-25T14:21:47.104Z</time></trkpt><trkpt lat="43.0671978" lon="11.678481"><ele>346.0</ele><time>2026-04-25T14:21:48.104Z</time></trkpt><trkpt lat="43.0670547" lon="11.6784026"><ele>345.25</ele><time>2026-04-25T14:21:49.105Z</time></trkpt><trkpt lat="43.0669369" lon="11.6783085"><ele>344.5</ele><time>2026-04-25T14:21:50.105Z</time></trkpt><trkpt lat="43.0668235" lon="11.6782173"><ele>343.75</ele><time>2026-04-25T14:21:51.105Z</time></trkpt><trkpt lat="43.0667232" lon="11.6781283"><ele>343.0</ele><time>2026-04-25T14:21:52.105Z</time></trkpt><trkpt lat="43.066628" lon="11.6780457"><ele>341.2</ele><time>2026-04-25T14:21:53.105Z</time></trkpt><trkpt lat="43.0665286" lon="11.6779816"><ele>339.4</ele><time>2026-04-25T14:21:54.105Z</time></trkpt><trkpt lat="43.0664256" lon="11.6779372"><ele>337.59999999999997</ele><time>2026-04-25T14:21:55.105Z</time></trkpt><trkpt lat="43.0663192" lon="11.677915"><ele>335.79999999999995</ele><time>2026-04-25T14:21:56.105Z</time></trkpt><trkpt lat="43.0662124" lon="11.6779297"><ele>334.0</ele><time>2026-04-25T14:21:57.105Z</time></trkpt><trkpt lat="43.0661006" lon="11.6779848"><ele>334.0</ele><time>2026-04-25T14:21:58.105Z</time></trkpt><trkpt lat="43.0659982" lon="11.6780805"><ele>334.0</ele><time>2026-04-25T14:21:59.104Z</time></trkpt><trkpt lat="43.0659146" lon="11.6781986"><ele>334.0</ele><time>2026-04-25T14:22:00.104Z</time></trkpt><trkpt lat="43.0658551" lon="11.6783227"><ele>334.0</ele><time>2026-04-25T14:22:01.105Z</time></trkpt><trkpt lat="43.0658002" lon="11.6784698"><ele>330.0</ele><time>2026-04-25T14:22:02.105Z</time></trkpt><trkpt lat="43.0657561" lon="11.6786164"><ele>326.0</ele><time>2026-04-25T14:22:03.105Z</time></trkpt><trkpt lat="43.0657228" lon="11.6787634"><ele>322.0</ele><time>2026-04-25T14:22:04.105Z</time></trkpt><trkpt lat="43.0657093" lon="11.6789211"><ele>318.0</ele><time>2026-04-25T14:22:05.104Z</time></trkpt><trkpt lat="43.0657352" lon="11.6790701"><ele>320.6666666666667</ele><time>2026-04-25T14:22:06.104Z</time></trkpt><trkpt lat="43.0657958" lon="11.6792391"><ele>323.33333333333337</ele><time>2026-04-25T14:22:07.104Z</time></trkpt><trkpt lat="43.0658722" lon="11.6794305"><ele>326.0</ele><time>2026-04-25T14:22:08.104Z</time></trkpt><trkpt lat="43.0659412" lon="11.6796315"><ele>326.0</ele><time>2026-04-25T14:22:09.104Z</time></trkpt><trkpt lat="43.0659955" lon="11.6798429"><ele>326.0</ele><time>2026-04-25T14:22:10.104Z</time></trkpt><trkpt lat="43.0660437" lon="11.6800511"><ele>326.0</ele><time>2026-04-25T14:22:11.105Z</time></trkpt><trkpt lat="43.0660897" lon="11.6802559"><ele>325.25</ele><time>2026-04-25T14:22:12.105Z</time></trkpt><trkpt lat="43.0661242" lon="11.6804544"><ele>324.5</ele><time>2026-04-25T14:22:13.105Z</time></trkpt><trkpt lat="43.0661491" lon="11.6806369"><ele>323.75</ele><time>2026-04-25T14:22:14.105Z</time></trkpt><trkpt lat="43.066127" lon="11.6808147"><ele>323.0</ele><time>2026-04-25T14:22:15.104Z</time></trkpt><trkpt lat="43.0660603" lon="11.6809475"><ele>323.0</ele><time>2026-04-25T14:22:16.105Z</time></trkpt><trkpt lat="43.0659601" lon="11.6810348"><ele>323.0</ele><time>2026-04-25T14:22:17.105Z</time></trkpt><trkpt lat="43.0658209" lon="11.6810916"><ele>323.0</ele><time>2026-04-25T14:22:18.105Z</time></trkpt><trkpt lat="43.0656663" lon="11.6811054"><ele>323.0</ele><time>2026-04-25T14:22:19.105Z</time></trkpt><trkpt lat="43.0655025" lon="11.6811291"><ele>322.0</ele><time>2026-04-25T14:22:20.105Z</time></trkpt><trkpt lat="43.0653235" lon="11.6811547"><ele>321.0</ele><time>2026-04-25T14:22:21.104Z</time></trkpt><trkpt lat="43.0651388" lon="11.6811851"><ele>320.0</ele><time>2026-04-25T14:22:22.104Z</time></trkpt><trkpt lat="43.064949" lon="11.6812114"><ele>319.0</ele><time>2026-04-25T14:22:23.104Z</time></trkpt><trkpt lat="43.0647515" lon="11.6812474"><ele>318.0</ele><time>2026-04-25T14:22:24.105Z</time></trkpt><trkpt lat="43.0645505" lon="11.6812782"><ele>317.0</ele><time>2026-04-25T14:22:25.105Z</time></trkpt><trkpt lat="43.0643412" lon="11.6813006"><ele>317.0</ele><time>2026-04-25T14:22:26.105Z</time></trkpt><trkpt lat="43.0641234" lon="11.6813104"><ele>317.0</ele><time>2026-04-25T14:22:27.105Z</time></trkpt><trkpt lat="43.0638957" lon="11.6813052"><ele>317.0</ele><time>2026-04-25T14:22:28.105Z</time></trkpt><trkpt lat="43.063674" lon="11.6812597"><ele>317.0</ele><time>2026-04-25T14:22:29.105Z</time></trkpt><trkpt lat="43.0634549" lon="11.6812063"><ele>317.0</ele><time>2026-04-25T14:22:30.105Z</time></trkpt><trkpt lat="43.0632374" lon="11.6811466"><ele>317.0</ele><time>2026-04-25T14:22:31.105Z</time></trkpt><trkpt lat="43.0630256" lon="11.6810996"><ele>316.33333333333337</ele><time>2026-04-25T14:22:32.105Z</time></trkpt><trkpt lat="43.062813" lon="11.6810824"><ele>315.6666666666667</ele><time>2026-04-25T14:22:33.105Z</time></trkpt><trkpt lat="43.0625934" lon="11.6811047"><ele>315.0</ele><time>2026-04-25T14:22:34.105Z</time></trkpt><trkpt lat="43.0623825" lon="11.6811896"><ele>314.5</ele><time>2026-04-25T14:22:35.105Z</time></trkpt><trkpt lat="43.0621828" lon="11.68133"><ele>314.0</ele><time>2026-04-25T14:22:36.104Z</time></trkpt><trkpt lat="43.0619894" lon="11.6814882"><ele>314.0</ele><time>2026-04-25T14:22:37.105Z</time></trkpt><trkpt lat="43.0617943" lon="11.6816487"><ele>314.0</ele><time>2026-04-25T14:22:38.105Z</time></trkpt><trkpt lat="43.0615989" lon="11.6818084"><ele>313.5</ele><time>2026-04-25T14:22:39.105Z</time></trkpt><trkpt lat="43.0614002" lon="11.6819654"><ele>313.0</ele><time>2026-04-25T14:22:40.104Z</time></trkpt><trkpt lat="43.0612021" lon="11.6821275"><ele>313.0</ele><time>2026-04-25T14:22:41.105Z</time></trkpt><trkpt lat="43.0609949" lon="11.6822773"><ele>313.0</ele><time>2026-04-25T14:22:42.104Z</time></trkpt><trkpt lat="43.0607761" lon="11.6824029"><ele>315.5</ele><time>2026-04-25T14:22:43.105Z</time></trkpt><trkpt lat="43.0605549" lon="11.6825037"><ele>318.0</ele><time>2026-04-25T14:22:44.105Z</time></trkpt><trkpt lat="43.0603274" lon="11.682567"><ele>318.0</ele><time>2026-04-25T14:22:45.105Z</time></trkpt><trkpt lat="43.060096" lon="11.6825881"><ele>318.0</ele><time>2026-04-25T14:22:46.105Z</time></trkpt><trkpt lat="43.0598609" lon="11.6826139"><ele>323.0</ele><time>2026-04-25T14:22:47.104Z</time></trkpt><trkpt lat="43.059624" lon="11.6826469"><ele>328.0</ele><time>2026-04-25T14:22:48.104Z</time></trkpt><trkpt lat="43.0593937" lon="11.682681"><ele>328.0</ele><time>2026-04-25T14:22:49.105Z</time></trkpt><trkpt lat="43.059164" lon="11.6827138"><ele>328.0</ele><time>2026-04-25T14:22:50.105Z</time></trkpt><trkpt lat="43.0589397" lon="11.6827477"><ele>332.0</ele><time>2026-04-25T14:22:51.105Z</time></trkpt><trkpt lat="43.0587184" lon="11.6827738"><ele>336.0</ele><time>2026-04-25T14:22:52.104Z</time></trkpt><trkpt lat="43.0585046" lon="11.6828015"><ele>340.0</ele><time>2026-04-25T14:22:53.105Z</time></trkpt><trkpt lat="43.0583004" lon="11.6828365"><ele>338.66666666666663</ele><time>2026-04-25T14:22:54.105Z</time></trkpt><trkpt lat="43.0581137" lon="11.6828836"><ele>337.3333333333333</ele><time>2026-04-25T14:22:55.105Z</time></trkpt><trkpt lat="43.0579373" lon="11.6829583"><ele>336.0</ele><time>2026-04-25T14:22:56.104Z</time></trkpt><trkpt lat="43.0577759" lon="11.6830672"><ele>336.0</ele><time>2026-04-25T14:22:57.105Z</time></trkpt><trkpt lat="43.0576278" lon="11.6832279"><ele>336.0</ele><time>2026-04-25T14:22:58.105Z</time></trkpt><trkpt lat="43.0574948" lon="11.6834181"><ele>336.0</ele><time>2026-04-25T14:22:59.104Z</time></trkpt><trkpt lat="43.0573752" lon="11.6836406"><ele>335.0</ele><time>2026-04-25T14:23:00.105Z</time></trkpt><trkpt lat="43.0572592" lon="11.68387"><ele>334.0</ele><time>2026-04-25T14:23:01.105Z</time></trkpt><trkpt lat="43.0571549" lon="11.6841128"><ele>333.0</ele><time>2026-04-25T14:23:02.105Z</time></trkpt><trkpt lat="43.0570688" lon="11.6843679"><ele>333.3333333333333</ele><time>2026-04-25T14:23:03.105Z</time></trkpt><trkpt lat="43.0570014" lon="11.6846262"><ele>333.66666666666663</ele><time>2026-04-25T14:23:04.105Z</time></trkpt><trkpt lat="43.056947" lon="11.6848711"><ele>334.0</ele><time>2026-04-25T14:23:05.104Z</time></trkpt><trkpt lat="43.0568813" lon="11.6850993"><ele>333.66666666666663</ele><time>2026-04-25T14:23:06.105Z</time></trkpt><trkpt lat="43.0568004" lon="11.6853144"><ele>333.3333333333333</ele><time>2026-04-25T14:23:07.104Z</time></trkpt><trkpt lat="43.0567075" lon="11.6855232"><ele>333.0</ele><time>2026-04-25T14:23:08.104Z</time></trkpt><trkpt lat="43.0566007" lon="11.6857141"><ele>330.6666666666667</ele><time>2026-04-25T14:23:09.105Z</time></trkpt><trkpt lat="43.0564848" lon="11.6858969"><ele>328.33333333333337</ele><time>2026-04-25T14:23:10.105Z</time></trkpt><trkpt lat="43.0563634" lon="11.6860692"><ele>326.0</ele><time>2026-04-25T14:23:11.105Z</time></trkpt><trkpt lat="43.0562501" lon="11.6862288"><ele>325.6666666666667</ele><time>2026-04-25T14:23:12.105Z</time></trkpt><trkpt lat="43.0561449" lon="11.6863822"><ele>325.3333333333333</ele><time>2026-04-25T14:23:13.105Z</time></trkpt><trkpt lat="43.0560318" lon="11.6865335"><ele>325.0</ele><time>2026-04-25T14:23:14.104Z</time></trkpt><trkpt lat="43.0559051" lon="11.6866587"><ele>322.66666666666663</ele><time>2026-04-25T14:23:15.105Z</time></trkpt><trkpt lat="43.0557672" lon="11.6867778"><ele>320.3333333333333</ele><time>2026-04-25T14:23:16.105Z</time></trkpt><trkpt lat="43.0556145" lon="11.6868875"><ele>318.0</ele><time>2026-04-25T14:23:17.105Z</time></trkpt><trkpt lat="43.0554485" lon="11.6870018"><ele>317.6666666666667</ele><time>2026-04-25T14:23:18.105Z</time></trkpt><trkpt lat="43.0552585" lon="11.6871168"><ele>317.33333333333337</ele><time>2026-04-25T14:23:19.105Z</time></trkpt><trkpt lat="43.0550678" lon="11.687239"><ele>317.0</ele><time>2026-04-25T14:23:20.105Z</time></trkpt><trkpt lat="43.0548651" lon="11.6873646"><ele>315.6666666666667</ele><time>2026-04-25T14:23:21.104Z</time></trkpt><trkpt lat="43.0546585" lon="11.6874871"><ele>314.3333333333333</ele><time>2026-04-25T14:23:22.105Z</time></trkpt><trkpt lat="43.0544518" lon="11.6876059"><ele>313.0</ele><time>2026-04-25T14:23:23.105Z</time></trkpt><trkpt lat="43.0542496" lon="11.6877313"><ele>311.66666666666663</ele><time>2026-04-25T14:23:24.105Z</time></trkpt><trkpt lat="43.0540538" lon="11.6878491"><ele>310.3333333333333</ele><time>2026-04-25T14:23:25.105Z</time></trkpt><trkpt lat="43.0538647" lon="11.6879622"><ele>309.0</ele><time>2026-04-25T14:23:26.105Z</time></trkpt><trkpt lat="43.0536658" lon="11.6880529"><ele>309.0</ele><time>2026-04-25T14:23:27.105Z</time></trkpt><trkpt lat="43.0534536" lon="11.6880872"><ele>309.0</ele><time>2026-04-25T14:23:28.105Z</time></trkpt><trkpt lat="43.0532391" lon="11.6880674"><ele>309.0</ele><time>2026-04-25T14:23:29.105Z</time></trkpt><trkpt lat="43.0530083" lon="11.6880052"><ele>307.0</ele><time>2026-04-25T14:23:30.105Z</time></trkpt><trkpt lat="43.0527747" lon="11.6879352"><ele>305.0</ele><time>2026-04-25T14:23:31.105Z</time></trkpt><trkpt lat="43.0525402" lon="11.6878694"><ele>305.5</ele><time>2026-04-25T14:23:32.105Z</time></trkpt><trkpt lat="43.0523039" lon="11.6878034"><ele>306.0</ele><time>2026-04-25T14:23:33.105Z</time></trkpt><trkpt lat="43.0520667" lon="11.6877427"><ele>306.0</ele><time>2026-04-25T14:23:34.105Z</time></trkpt><trkpt lat="43.0518297" lon="11.6876796"><ele>306.0</ele><time>2026-04-25T14:23:35.105Z</time></trkpt><trkpt lat="43.0515875" lon="11.6876094"><ele>304.5</ele><time>2026-04-25T14:23:36.105Z</time></trkpt><trkpt lat="43.0513478" lon="11.6875452"><ele>303.0</ele><time>2026-04-25T14:23:37.105Z</time></trkpt><trkpt lat="43.0511035" lon="11.6874803"><ele>303.0</ele><time>2026-04-25T14:23:38.105Z</time></trkpt><trkpt lat="43.0508606" lon="11.6874115"><ele>303.0</ele><time>2026-04-25T14:23:39.105Z</time></trkpt><trkpt lat="43.0506177" lon="11.687339"><ele>302.0</ele><time>2026-04-25T14:23:40.105Z</time></trkpt><trkpt lat="43.0503751" lon="11.68727"><ele>301.0</ele><time>2026-04-25T14:23:41.105Z</time></trkpt><trkpt lat="43.0501315" lon="11.687203"><ele>299.5</ele><time>2026-04-25T14:23:42.105Z</time></trkpt><trkpt lat="43.0498896" lon="11.6871378"><ele>298.0</ele><time>2026-04-25T14:23:43.105Z</time></trkpt><trkpt lat="43.0496492" lon="11.6870722"><ele>298.0</ele><time>2026-04-25T14:23:44.105Z</time></trkpt><trkpt lat="43.0494152" lon="11.6870101"><ele>298.0</ele><time>2026-04-25T14:23:45.105Z</time></trkpt><trkpt lat="43.0491828" lon="11.6869435"><ele>297.0</ele><time>2026-04-25T14:23:46.105Z</time></trkpt><trkpt lat="43.0489511" lon="11.6868801"><ele>296.0</ele><time>2026-04-25T14:23:47.105Z</time></trkpt><trkpt lat="43.0487218" lon="11.6868182"><ele>296.0</ele><time>2026-04-25T14:23:48.105Z</time></trkpt><trkpt lat="43.0484899" lon="11.6867541"><ele>296.0</ele><time>2026-04-25T14:23:49.105Z</time></trkpt><trkpt lat="43.0482614" lon="11.6866776"><ele>295.0</ele><time>2026-04-25T14:23:50.105Z</time></trkpt><trkpt lat="43.0480402" lon="11.6865827"><ele>294.0</ele><time>2026-04-25T14:23:51.105Z</time></trkpt><trkpt lat="43.0478268" lon="11.6864625"><ele>294.0</ele><time>2026-04-25T14:23:52.105Z</time></trkpt><trkpt lat="43.0476278" lon="11.6863182"><ele>294.0</ele><time>2026-04-25T14:23:53.105Z</time></trkpt><trkpt lat="43.0474378" lon="11.6861672"><ele>294.0</ele><time>2026-04-25T14:23:54.105Z</time></trkpt><trkpt lat="43.0472681" lon="11.6860129"><ele>293.6666666666667</ele><time>2026-04-25T14:23:55.104Z</time></trkpt><trkpt lat="43.0471169" lon="11.6858676"><ele>293.33333333333337</ele><time>2026-04-25T14:23:56.104Z</time></trkpt><trkpt lat="43.04697" lon="11.6857396"><ele>293.0</ele><time>2026-04-25T14:23:57.105Z</time></trkpt><trkpt lat="43.0468335" lon="11.6856163"><ele>293.0</ele><time>2026-04-25T14:23:58.105Z</time></trkpt><trkpt lat="43.0467153" lon="11.6855035"><ele>293.0</ele><time>2026-04-25T14:23:59.105Z</time></trkpt><trkpt lat="43.0465923" lon="11.6853946"><ele>293.0</ele><time>2026-04-25T14:24:00.104Z</time></trkpt><trkpt lat="43.0464792" lon="11.6852908"><ele>293.0</ele><time>2026-04-25T14:24:01.105Z</time></trkpt><trkpt lat="43.0463663" lon="11.6851866"><ele>293.25</ele><time>2026-04-25T14:24:02.105Z</time></trkpt><trkpt lat="43.0462561" lon="11.6850842"><ele>293.5</ele><time>2026-04-25T14:24:03.105Z</time></trkpt><trkpt lat="43.0461486" lon="11.6849868"><ele>293.75</ele><time>2026-04-25T14:24:04.105Z</time></trkpt><trkpt lat="43.0460453" lon="11.6848982"><ele>294.0</ele><time>2026-04-25T14:24:05.104Z</time></trkpt><trkpt lat="43.0459527" lon="11.684823"><ele>294.0</ele><time>2026-04-25T14:24:06.104Z</time></trkpt><trkpt lat="43.0458636" lon="11.6847716"><ele>294.0</ele><time>2026-04-25T14:24:07.104Z</time></trkpt><trkpt lat="43.0457765" lon="11.6847314"><ele>294.0</ele><time>2026-04-25T14:24:08.105Z</time></trkpt><trkpt lat="43.0456896" lon="11.6847058"><ele>294.0</ele><time>2026-04-25T14:24:09.104Z</time></trkpt><trkpt lat="43.0456002" lon="11.6847004"><ele>294.0</ele><time>2026-04-25T14:24:10.104Z</time></trkpt><trkpt lat="43.0455069" lon="11.6847111"><ele>293.8</ele><time>2026-04-25T14:24:11.105Z</time></trkpt><trkpt lat="43.0454059" lon="11.6847422"><ele>293.59999999999997</ele><time>2026-04-25T14:24:12.104Z</time></trkpt><trkpt lat="43.0453104" lon="11.6847917"><ele>293.4</ele><time>2026-04-25T14:24:13.105Z</time></trkpt><trkpt lat="43.0452213" lon="11.684864"><ele>293.2</ele><time>2026-04-25T14:24:14.105Z</time></trkpt><trkpt lat="43.0451372" lon="11.6849483"><ele>293.0</ele><time>2026-04-25T14:24:15.105Z</time></trkpt><trkpt lat="43.045053" lon="11.6850456"><ele>293.0</ele><time>2026-04-25T14:24:16.105Z</time></trkpt><trkpt lat="43.0449686" lon="11.6851494"><ele>293.0</ele><time>2026-04-25T14:24:17.104Z</time></trkpt><trkpt lat="43.0448797" lon="11.685252"><ele>293.0</ele><time>2026-04-25T14:24:18.104Z</time></trkpt><trkpt lat="43.0447973" lon="11.6853509"><ele>293.0</ele><time>2026-04-25T14:24:19.105Z</time></trkpt><trkpt lat="43.04471" lon="11.6854529"><ele>293.0</ele><time>2026-04-25T14:24:20.105Z</time></trkpt><trkpt lat="43.0446249" lon="11.6855531"><ele>293.0</ele><time>2026-04-25T14:24:21.105Z</time></trkpt><trkpt lat="43.0445421" lon="11.6856525"><ele>293.0</ele><time>2026-04-25T14:24:22.104Z</time></trkpt><trkpt lat="43.044461" lon="11.6857516"><ele>293.0</ele><time>2026-04-25T14:24:23.105Z</time></trkpt><trkpt lat="43.0443781" lon="11.6858456"><ele>293.0</ele><time>2026-04-25T14:24:24.105Z</time></trkpt><trkpt lat="43.0442977" lon="11.6859356"><ele>293.0</ele><time>2026-04-25T14:24:25.105Z</time></trkpt><trkpt lat="43.0442132" lon="11.686014"><ele>293.0</ele><time>2026-04-25T14:24:26.105Z</time></trkpt><trkpt lat="43.044121" lon="11.6860719"><ele>293.0</ele><time>2026-04-25T14:24:27.105Z</time></trkpt><trkpt lat="43.0440222" lon="11.6861168"><ele>293.0</ele><time>2026-04-25T14:24:28.105Z</time></trkpt><trkpt lat="43.0439179" lon="11.6861306"><ele>293.0</ele><time>2026-04-25T14:24:29.105Z</time></trkpt><trkpt lat="43.0438169" lon="11.6861205"><ele>292.75</ele><time>2026-04-25T14:24:30.104Z</time></trkpt><trkpt lat="43.0437147" lon="11.6860959"><ele>292.5</ele><time>2026-04-25T14:24:31.104Z</time></trkpt><trkpt lat="43.0436074" lon="11.6860535"><ele>292.25</ele><time>2026-04-25T14:24:32.104Z</time></trkpt><trkpt lat="43.0434858" lon="11.6860071"><ele>292.0</ele><time>2026-04-25T14:24:33.104Z</time></trkpt><trkpt lat="43.0433579" lon="11.6859523"><ele>291.66666666666663</ele><time>2026-04-25T14:24:34.105Z</time></trkpt><trkpt lat="43.0432147" lon="11.6859048"><ele>291.3333333333333</ele><time>2026-04-25T14:24:35.105Z</time></trkpt><trkpt lat="43.0430634" lon="11.6858575"><ele>291.0</ele><time>2026-04-25T14:24:36.104Z</time></trkpt><trkpt lat="43.0429034" lon="11.6857797"><ele>291.0</ele><time>2026-04-25T14:24:37.105Z</time></trkpt><trkpt lat="43.0427394" lon="11.6857001"><ele>291.0</ele><time>2026-04-25T14:24:38.104Z</time></trkpt><trkpt lat="43.0425678" lon="11.6856134"><ele>291.0</ele><time>2026-04-25T14:24:39.104Z</time></trkpt><trkpt lat="43.0423907" lon="11.6855287"><ele>291.0</ele><time>2026-04-25T14:24:40.105Z</time></trkpt><trkpt lat="43.042207" lon="11.6854432"><ele>291.0</ele><time>2026-04-25T14:24:41.105Z</time></trkpt><trkpt lat="43.0420135" lon="11.6853576"><ele>291.0</ele><time>2026-04-25T14:24:42.105Z</time></trkpt><trkpt lat="43.0418184" lon="11.6852659"><ele>291.3333333333333</ele><time>2026-04-25T14:24:43.105Z</time></trkpt><trkpt lat="43.0416155" lon="11.6851718"><ele>291.66666666666663</ele><time>2026-04-25T14:24:44.105Z</time></trkpt><trkpt lat="43.0414122" lon="11.6850783"><ele>292.0</ele><time>2026-04-25T14:24:45.104Z</time></trkpt><trkpt lat="43.041204" lon="11.6849883"><ele>292.0</ele><time>2026-04-25T14:24:46.105Z</time></trkpt><trkpt lat="43.0409895" lon="11.6849187"><ele>292.0</ele><time>2026-04-25T14:24:47.105Z</time></trkpt><trkpt lat="43.0407705" lon="11.6848716"><ele>292.0</ele><time>2026-04-25T14:24:48.105Z</time></trkpt><trkpt lat="43.0405453" lon="11.6848423"><ele>294.0</ele><time>2026-04-25T14:24:49.105Z</time></trkpt><trkpt lat="43.0403207" lon="11.6848159"><ele>296.0</ele><time>2026-04-25T14:24:50.105Z</time></trkpt><trkpt lat="43.0400961" lon="11.6847918"><ele>296.0</ele><time>2026-04-25T14:24:51.104Z</time></trkpt><trkpt lat="43.0398681" lon="11.6847746"><ele>296.0</ele><time>2026-04-25T14:24:52.104Z</time></trkpt><trkpt lat="43.0396376" lon="11.6847783"><ele>296.0</ele><time>2026-04-25T14:24:53.105Z</time></trkpt><trkpt lat="43.0394135" lon="11.6848156"><ele>296.0</ele><time>2026-04-25T14:24:54.105Z</time></trkpt><trkpt lat="43.0391919" lon="11.6848844"><ele>296.0</ele><time>2026-04-25T14:24:55.104Z</time></trkpt><trkpt lat="43.0389782" lon="11.6849854"><ele>296.0</ele><time>2026-04-25T14:24:56.105Z</time></trkpt><trkpt lat="43.0387688" lon="11.6851074"><ele>296.0</ele><time>2026-04-25T14:24:57.105Z</time></trkpt><trkpt lat="43.0385572" lon="11.6852501"><ele>296.0</ele><time>2026-04-25T14:24:58.105Z</time></trkpt><trkpt lat="43.0383351" lon="11.6853951"><ele>293.5</ele><time>2026-04-25T14:24:59.105Z</time></trkpt><trkpt lat="43.0381025" lon="11.6855383"><ele>291.0</ele><time>2026-04-25T14:25:00.104Z</time></trkpt><trkpt lat="43.0378683" lon="11.6856831"><ele>291.0</ele><time>2026-04-25T14:25:01.104Z</time></trkpt><trkpt lat="43.0376254" lon="11.68583"><ele>291.0</ele><time>2026-04-25T14:25:02.105Z</time></trkpt><trkpt lat="43.0373786" lon="11.6859893"><ele>291.0</ele><time>2026-04-25T14:25:03.105Z</time></trkpt><trkpt lat="43.0371347" lon="11.6861469"><ele>291.0</ele><time>2026-04-25T14:25:04.105Z</time></trkpt><trkpt lat="43.0368926" lon="11.6863018"><ele>291.0</ele><time>2026-04-25T14:25:05.104Z</time></trkpt><trkpt lat="43.0366477" lon="11.6864501"><ele>291.0</ele><time>2026-04-25T14:25:06.104Z</time></trkpt><trkpt lat="43.036405" lon="11.6866009"><ele>292.0</ele><time>2026-04-25T14:25:07.105Z</time></trkpt><trkpt lat="43.0361642" lon="11.6867485"><ele>293.0</ele><time>2026-04-25T14:25:08.105Z</time></trkpt><trkpt lat="43.0359242" lon="11.6869019"><ele>294.5</ele><time>2026-04-25T14:25:09.105Z</time></trkpt><trkpt lat="43.0356862" lon="11.687051"><ele>296.0</ele><time>2026-04-25T14:25:10.105Z</time></trkpt><trkpt lat="43.0354594" lon="11.6871934"><ele>296.0</ele><time>2026-04-25T14:25:11.105Z</time></trkpt><trkpt lat="43.0352496" lon="11.6873183"><ele>296.0</ele><time>2026-04-25T14:25:12.105Z</time></trkpt><trkpt lat="43.0350503" lon="11.6874395"><ele>296.0</ele><time>2026-04-25T14:25:13.104Z</time></trkpt><trkpt lat="43.0348743" lon="11.6875464"><ele>296.6666666666667</ele><time>2026-04-25T14:25:14.105Z</time></trkpt><trkpt lat="43.0347077" lon="11.6876505"><ele>297.3333333333333</ele><time>2026-04-25T14:25:15.104Z</time></trkpt><trkpt lat="43.0345507" lon="11.6877508"><ele>298.0</ele><time>2026-04-25T14:25:16.105Z</time></trkpt><trkpt lat="43.034403" lon="11.687844"><ele>298.0</ele><time>2026-04-25T14:25:17.105Z</time></trkpt><trkpt lat="43.0342595" lon="11.6879353"><ele>298.0</ele><time>2026-04-25T14:25:18.105Z</time></trkpt><trkpt lat="43.0341198" lon="11.6880119"><ele>298.0</ele><time>2026-04-25T14:25:19.105Z</time></trkpt><trkpt lat="43.0339762" lon="11.6880766"><ele>297.5</ele><time>2026-04-25T14:25:20.105Z</time></trkpt><trkpt lat="43.033839" lon="11.6881274"><ele>297.0</ele><time>2026-04-25T14:25:21.105Z</time></trkpt><trkpt lat="43.0337061" lon="11.6881603"><ele>296.5</ele><time>2026-04-25T14:25:22.105Z</time></trkpt><trkpt lat="43.0335907" lon="11.6881809"><ele>296.0</ele><time>2026-04-25T14:25:23.105Z</time></trkpt><trkpt lat="43.0334834" lon="11.6882008"><ele>296.0</ele><time>2026-04-25T14:25:24.105Z</time></trkpt><trkpt lat="43.0333816" lon="11.6882128"><ele>296.0</ele><time>2026-04-25T14:25:25.105Z</time></trkpt><trkpt lat="43.0332774" lon="11.6882254"><ele>296.0</ele><time>2026-04-25T14:25:26.104Z</time></trkpt><trkpt lat="43.033169" lon="11.6882388"><ele>296.0</ele><time>2026-04-25T14:25:27.104Z</time></trkpt><trkpt lat="43.0330493" lon="11.6882539"><ele>296.0</ele><time>2026-04-25T14:25:28.105Z</time></trkpt><trkpt lat="43.0329096" lon="11.6882614"><ele>295.0</ele><time>2026-04-25T14:25:29.104Z</time></trkpt><trkpt lat="43.0327565" lon="11.6882361"><ele>294.0</ele><time>2026-04-25T14:25:30.105Z</time></trkpt><trkpt lat="43.0325867" lon="11.6881828"><ele>293.0</ele><time>2026-04-25T14:25:31.105Z</time></trkpt><trkpt lat="43.0323994" lon="11.6881003"><ele>292.6666666666667</ele><time>2026-04-25T14:25:32.105Z</time></trkpt><trkpt lat="43.032206" lon="11.6880293"><ele>292.3333333333333</ele><time>2026-04-25T14:25:33.104Z</time></trkpt><trkpt lat="43.0320045" lon="11.6879487"><ele>292.0</ele><time>2026-04-25T14:25:34.105Z</time></trkpt><trkpt lat="43.031813" lon="11.6878586"><ele>291.3333333333333</ele><time>2026-04-25T14:25:35.105Z</time></trkpt><trkpt lat="43.0316307" lon="11.6877795"><ele>290.6666666666667</ele><time>2026-04-25T14:25:36.105Z</time></trkpt><trkpt lat="43.0314537" lon="11.6877099"><ele>290.0</ele><time>2026-04-25T14:25:37.104Z</time></trkpt><trkpt lat="43.0312771" lon="11.6876678"><ele>289.33333333333337</ele><time>2026-04-25T14:25:38.104Z</time></trkpt><trkpt lat="43.031094" lon="11.6876622"><ele>288.6666666666667</ele><time>2026-04-25T14:25:39.105Z</time></trkpt><trkpt lat="43.0309155" lon="11.6877052"><ele>288.0</ele><time>2026-04-25T14:25:40.104Z</time></trkpt><trkpt lat="43.0307384" lon="11.6877957"><ele>288.0</ele><time>2026-04-25T14:25:41.105Z</time></trkpt><trkpt lat="43.0305636" lon="11.6879555"><ele>288.0</ele><time>2026-04-25T14:25:42.104Z</time></trkpt><trkpt lat="43.0303946" lon="11.6881129"><ele>288.0</ele><time>2026-04-25T14:25:43.105Z</time></trkpt><trkpt lat="43.0302229" lon="11.688288"><ele>288.0</ele><time>2026-04-25T14:25:44.105Z</time></trkpt><trkpt lat="43.0300477" lon="11.6884687"><ele>288.0</ele><time>2026-04-25T14:25:45.105Z</time></trkpt><trkpt lat="43.0298706" lon="11.6886524"><ele>288.0</ele><time>2026-04-25T14:25:46.104Z</time></trkpt><trkpt lat="43.0296895" lon="11.6888391"><ele>286.5</ele><time>2026-04-25T14:25:47.105Z</time></trkpt><trkpt lat="43.0295063" lon="11.6890252"><ele>285.0</ele><time>2026-04-25T14:25:48.105Z</time></trkpt><trkpt lat="43.0293244" lon="11.6892085"><ele>285.0</ele><time>2026-04-25T14:25:49.105Z</time></trkpt><trkpt lat="43.0291425" lon="11.6893916"><ele>285.0</ele><time>2026-04-25T14:25:50.104Z</time></trkpt><trkpt lat="43.0289631" lon="11.6895671"><ele>285.0</ele><time>2026-04-25T14:25:51.104Z</time></trkpt><trkpt lat="43.0287821" lon="11.6897445"><ele>284.6666666666667</ele><time>2026-04-25T14:25:52.105Z</time></trkpt><trkpt lat="43.0286088" lon="11.6899192"><ele>284.33333333333337</ele><time>2026-04-25T14:25:53.105Z</time></trkpt><trkpt lat="43.0284339" lon="11.6900917"><ele>284.0</ele><time>2026-04-25T14:25:54.104Z</time></trkpt><trkpt lat="43.0282678" lon="11.6902647"><ele>284.0</ele><time>2026-04-25T14:25:55.104Z</time></trkpt><trkpt lat="43.0281262" lon="11.6904501"><ele>284.0</ele><time>2026-04-25T14:25:56.105Z</time></trkpt><trkpt lat="43.0280088" lon="11.6906384"><ele>284.0</ele><time>2026-04-25T14:25:57.105Z</time></trkpt><trkpt lat="43.0279057" lon="11.6908134"><ele>284.0</ele><time>2026-04-25T14:25:58.105Z</time></trkpt><trkpt lat="43.0278179" lon="11.6909744"><ele>284.0</ele><time>2026-04-25T14:25:59.105Z</time></trkpt><trkpt lat="43.0277383" lon="11.6911142"><ele>284.0</ele><time>2026-04-25T14:26:00.105Z</time></trkpt><trkpt lat="43.0276538" lon="11.6912346"><ele>284.0</ele><time>2026-04-25T14:26:01.104Z</time></trkpt><trkpt lat="43.0275651" lon="11.6913257"><ele>283.8</ele><time>2026-04-25T14:26:02.105Z</time></trkpt><trkpt lat="43.027463" lon="11.6913999"><ele>283.59999999999997</ele><time>2026-04-25T14:26:03.105Z</time></trkpt><trkpt lat="43.0273609" lon="11.6914435"><ele>283.4</ele><time>2026-04-25T14:26:04.105Z</time></trkpt><trkpt lat="43.027261" lon="11.6914772"><ele>283.2</ele><time>2026-04-25T14:26:05.105Z</time></trkpt><trkpt lat="43.0271654" lon="11.6914961"><ele>283.0</ele><time>2026-04-25T14:26:06.105Z</time></trkpt><trkpt lat="43.0270792" lon="11.6915136"><ele>283.0</ele><time>2026-04-25T14:26:07.105Z</time></trkpt><trkpt lat="43.0269956" lon="11.6915273"><ele>283.0</ele><time>2026-04-25T14:26:08.105Z</time></trkpt><trkpt lat="43.0269097" lon="11.6915477"><ele>283.0</ele><time>2026-04-25T14:26:09.105Z</time></trkpt><trkpt lat="43.026823" lon="11.6915694"><ele>283.0</ele><time>2026-04-25T14:26:10.105Z</time></trkpt><trkpt lat="43.026738" lon="11.6915871"><ele>283.0</ele><time>2026-04-25T14:26:11.105Z</time></trkpt><trkpt lat="43.0266561" lon="11.6916102"><ele>283.0</ele><time>2026-04-25T14:26:12.104Z</time></trkpt><trkpt lat="43.0265792" lon="11.6916639"><ele>282.5</ele><time>2026-04-25T14:26:13.105Z</time></trkpt><trkpt lat="43.0265207" lon="11.6917573"><ele>282.0</ele><time>2026-04-25T14:26:14.105Z</time></trkpt><trkpt lat="43.026466" lon="11.6918912"><ele>281.5</ele><time>2026-04-25T14:26:15.104Z</time></trkpt><trkpt lat="43.0264221" lon="11.6920526"><ele>281.0</ele><time>2026-04-25T14:26:16.105Z</time></trkpt><trkpt lat="43.0263563" lon="11.6922381"><ele>281.0</ele><time>2026-04-25T14:26:17.104Z</time></trkpt><trkpt lat="43.026289" lon="11.6924311"><ele>281.0</ele><time>2026-04-25T14:26:18.104Z</time></trkpt><trkpt lat="43.0262154" lon="11.6926343"><ele>281.0</ele><time>2026-04-25T14:26:19.105Z</time></trkpt><trkpt lat="43.026139" lon="11.6928337"><ele>282.0</ele><time>2026-04-25T14:26:20.105Z</time></trkpt><trkpt lat="43.0260632" lon="11.6930455"><ele>283.0</ele><time>2026-04-25T14:26:21.105Z</time></trkpt><trkpt lat="43.0259819" lon="11.6932693"><ele>284.0</ele><time>2026-04-25T14:26:22.105Z</time></trkpt><trkpt lat="43.0258986" lon="11.693499"><ele>284.0</ele><time>2026-04-25T14:26:23.105Z</time></trkpt><trkpt lat="43.0258103" lon="11.6937393"><ele>284.0</ele><time>2026-04-25T14:26:24.105Z</time></trkpt><trkpt lat="43.0257195" lon="11.693985"><ele>284.0</ele><time>2026-04-25T14:26:25.104Z</time></trkpt><trkpt lat="43.0256244" lon="11.6942358"><ele>285.33333333333337</ele><time>2026-04-25T14:26:26.105Z</time></trkpt><trkpt lat="43.0255264" lon="11.694496"><ele>286.6666666666667</ele><time>2026-04-25T14:26:27.105Z</time></trkpt><trkpt lat="43.0254309" lon="11.6947707"><ele>288.0</ele><time>2026-04-25T14:26:28.105Z</time></trkpt><trkpt lat="43.0253292" lon="11.6950592"><ele>287.5</ele><time>2026-04-25T14:26:29.105Z</time></trkpt><trkpt lat="43.0252285" lon="11.6953458"><ele>287.0</ele><time>2026-04-25T14:26:30.105Z</time></trkpt><trkpt lat="43.0251195" lon="11.6956332"><ele>287.0</ele><time>2026-04-25T14:26:31.105Z</time></trkpt><trkpt lat="43.0249999" lon="11.6959224"><ele>287.0</ele><time>2026-04-25T14:26:32.105Z</time></trkpt><trkpt lat="43.0248824" lon="11.6962051"><ele>287.0</ele><time>2026-04-25T14:26:33.105Z</time></trkpt><trkpt lat="43.0247742" lon="11.6964922"><ele>287.0</ele><time>2026-04-25T14:26:34.105Z</time></trkpt><trkpt lat="43.0246688" lon="11.696788"><ele>286.5</ele><time>2026-04-25T14:26:35.105Z</time></trkpt><trkpt lat="43.0245737" lon="11.6970868"><ele>286.0</ele><time>2026-04-25T14:26:36.105Z</time></trkpt><trkpt lat="43.024488" lon="11.697392"><ele>286.0</ele><time>2026-04-25T14:26:37.104Z</time></trkpt><trkpt lat="43.0244157" lon="11.6977047"><ele>286.0</ele><time>2026-04-25T14:26:38.105Z</time></trkpt><trkpt lat="43.0243551" lon="11.6980233"><ele>286.0</ele><time>2026-04-25T14:26:39.105Z</time></trkpt><trkpt lat="43.0242981" lon="11.6983457"><ele>286.0</ele><time>2026-04-25T14:26:40.105Z</time></trkpt><trkpt lat="43.0242547" lon="11.6986702"><ele>287.0</ele><time>2026-04-25T14:26:41.105Z</time></trkpt><trkpt lat="43.0242255" lon="11.6989978"><ele>288.0</ele><time>2026-04-25T14:26:42.105Z</time></trkpt><trkpt lat="43.0242026" lon="11.6993341"><ele>287.5</ele><time>2026-04-25T14:26:43.105Z</time></trkpt><trkpt lat="43.0241905" lon="11.6996723"><ele>287.0</ele><time>2026-04-25T14:26:44.104Z</time></trkpt><trkpt lat="43.0241862" lon="11.7000129"><ele>287.0</ele><time>2026-04-25T14:26:45.104Z</time></trkpt><trkpt lat="43.024181" lon="11.7003596"><ele>287.0</ele><time>2026-04-25T14:26:46.104Z</time></trkpt><trkpt lat="43.0241769" lon="11.7007027"><ele>287.0</ele><time>2026-04-25T14:26:47.104Z</time></trkpt><trkpt lat="43.0241715" lon="11.7010468"><ele>287.0</ele><time>2026-04-25T14:26:48.105Z</time></trkpt><trkpt lat="43.0241671" lon="11.7013942"><ele>287.5</ele><time>2026-04-25T14:26:49.105Z</time></trkpt><trkpt lat="43.0241594" lon="11.7017386"><ele>288.0</ele><time>2026-04-25T14:26:50.105Z</time></trkpt><trkpt lat="43.0241508" lon="11.7020831"><ele>285.5</ele><time>2026-04-25T14:26:51.105Z</time></trkpt><trkpt lat="43.0241326" lon="11.702426"><ele>283.0</ele><time>2026-04-25T14:26:52.105Z</time></trkpt><trkpt lat="43.0241014" lon="11.7027628"><ele>283.0</ele><time>2026-04-25T14:26:53.104Z</time></trkpt><trkpt lat="43.0240606" lon="11.703102"><ele>283.0</ele><time>2026-04-25T14:26:54.105Z</time></trkpt><trkpt lat="43.0240202" lon="11.7034382"><ele>282.5</ele><time>2026-04-25T14:26:55.105Z</time></trkpt><trkpt lat="43.0239771" lon="11.703777"><ele>282.0</ele><time>2026-04-25T14:26:56.105Z</time></trkpt><trkpt lat="43.0239337" lon="11.7041131"><ele>283.0</ele><time>2026-04-25T14:26:57.105Z</time></trkpt><trkpt lat="43.0238935" lon="11.70445"><ele>284.0</ele><time>2026-04-25T14:26:58.105Z</time></trkpt><trkpt lat="43.0238541" lon="11.7047862"><ele>284.0</ele><time>2026-04-25T14:26:59.105Z</time></trkpt><trkpt lat="43.0238163" lon="11.7051153"><ele>284.0</ele><time>2026-04-25T14:27:00.105Z</time></trkpt><trkpt lat="43.0237736" lon="11.7054477"><ele>285.5</ele><time>2026-04-25T14:27:01.105Z</time></trkpt><trkpt lat="43.0237303" lon="11.7057804"><ele>287.0</ele><time>2026-04-25T14:27:02.105Z</time></trkpt><trkpt lat="43.0236878" lon="11.7061098"><ele>287.5</ele><time>2026-04-25T14:27:03.105Z</time></trkpt><trkpt lat="43.0236475" lon="11.7064382"><ele>288.0</ele><time>2026-04-25T14:27:04.105Z</time></trkpt><trkpt lat="43.0236105" lon="11.7067661"><ele>288.5</ele><time>2026-04-25T14:27:05.105Z</time></trkpt><trkpt lat="43.0235864" lon="11.7070986"><ele>289.0</ele><time>2026-04-25T14:27:06.104Z</time></trkpt><trkpt lat="43.0235767" lon="11.7074293"><ele>288.5</ele><time>2026-04-25T14:27:07.105Z</time></trkpt><trkpt lat="43.0235756" lon="11.7077553"><ele>288.0</ele><time>2026-04-25T14:27:08.104Z</time></trkpt><trkpt lat="43.0235855" lon="11.7080677"><ele>288.0</ele><time>2026-04-25T14:27:09.105Z</time></trkpt><trkpt lat="43.0236201" lon="11.7083772"><ele>288.0</ele><time>2026-04-25T14:27:10.105Z</time></trkpt><trkpt lat="43.0236707" lon="11.7086824"><ele>288.0</ele><time>2026-04-25T14:27:11.105Z</time></trkpt><trkpt lat="43.0237336" lon="11.7089855"><ele>288.0</ele><time>2026-04-25T14:27:12.105Z</time></trkpt><trkpt lat="43.023795" lon="11.7092705"><ele>288.0</ele><time>2026-04-25T14:27:13.105Z</time></trkpt><trkpt lat="43.0238463" lon="11.7095481"><ele>288.0</ele><time>2026-04-25T14:27:14.105Z</time></trkpt><trkpt lat="43.0238851" lon="11.7098012"><ele>288.0</ele><time>2026-04-25T14:27:15.105Z</time></trkpt><trkpt lat="43.0239047" lon="11.7100382"><ele>288.0</ele><time>2026-04-25T14:27:16.104Z</time></trkpt><trkpt lat="43.0239218" lon="11.7102721"><ele>288.3333333333333</ele><time>2026-04-25T14:27:17.105Z</time></trkpt><trkpt lat="43.0239367" lon="11.7104868"><ele>288.66666666666663</ele><time>2026-04-25T14:27:18.105Z</time></trkpt><trkpt lat="43.0239524" lon="11.7107009"><ele>289.0</ele><time>2026-04-25T14:27:19.104Z</time></trkpt><trkpt lat="43.0239663" lon="11.7109162"><ele>288.66666666666663</ele><time>2026-04-25T14:27:20.105Z</time></trkpt><trkpt lat="43.0239793" lon="11.7111478"><ele>288.3333333333333</ele><time>2026-04-25T14:27:21.105Z</time></trkpt><trkpt lat="43.0239945" lon="11.7113814"><ele>288.0</ele><time>2026-04-25T14:27:22.105Z</time></trkpt><trkpt lat="43.0240045" lon="11.7116126"><ele>288.0</ele><time>2026-04-25T14:27:23.105Z</time></trkpt><trkpt lat="43.0240201" lon="11.7118433"><ele>288.0</ele><time>2026-04-25T14:27:24.104Z</time></trkpt><trkpt lat="43.0240347" lon="11.7120821"><ele>288.0</ele><time>2026-04-25T14:27:25.105Z</time></trkpt><trkpt lat="43.0240477" lon="11.7123322"><ele>288.6666666666667</ele><time>2026-04-25T14:27:26.105Z</time></trkpt><trkpt lat="43.0240511" lon="11.7125842"><ele>289.33333333333337</ele><time>2026-04-25T14:27:27.105Z</time></trkpt><trkpt lat="43.02404" lon="11.7128256"><ele>290.0</ele><time>2026-04-25T14:27:28.104Z</time></trkpt><trkpt lat="43.024028" lon="11.7130629"><ele>290.33333333333337</ele><time>2026-04-25T14:27:29.105Z</time></trkpt><trkpt lat="43.0240179" lon="11.7133048"><ele>290.6666666666667</ele><time>2026-04-25T14:27:30.105Z</time></trkpt><trkpt lat="43.024011" lon="11.7135633"><ele>291.0</ele><time>2026-04-25T14:27:31.105Z</time></trkpt><trkpt lat="43.0240014" lon="11.713839"><ele>291.3333333333333</ele><time>2026-04-25T14:27:32.105Z</time></trkpt><trkpt lat="43.023985" lon="11.7141389"><ele>291.66666666666663</ele><time>2026-04-25T14:27:33.105Z</time></trkpt><trkpt lat="43.0239654" lon="11.7144433"><ele>292.0</ele><time>2026-04-25T14:27:34.105Z</time></trkpt><trkpt lat="43.0239476" lon="11.7147656"><ele>292.0</ele><time>2026-04-25T14:27:35.105Z</time></trkpt><trkpt lat="43.0239258" lon="11.7151005"><ele>292.0</ele><time>2026-04-25T14:27:36.105Z</time></trkpt><trkpt lat="43.0239018" lon="11.71544"><ele>292.5</ele><time>2026-04-25T14:27:37.105Z</time></trkpt><trkpt lat="43.0238751" lon="11.7157915"><ele>293.0</ele><time>2026-04-25T14:27:38.105Z</time></trkpt><trkpt lat="43.0238526" lon="11.7161488"><ele>293.0</ele><time>2026-04-25T14:27:39.104Z</time></trkpt><trkpt lat="43.0238363" lon="11.7165112"><ele>293.0</ele><time>2026-04-25T14:27:40.104Z</time></trkpt><trkpt lat="43.0238194" lon="11.7168733"><ele>293.5</ele><time>2026-04-25T14:27:41.105Z</time></trkpt><trkpt lat="43.0237988" lon="11.7172376"><ele>294.0</ele><time>2026-04-25T14:27:42.105Z</time></trkpt><trkpt lat="43.0237802" lon="11.7176044"><ele>293.5</ele><time>2026-04-25T14:27:43.105Z</time></trkpt><trkpt lat="43.0237673" lon="11.7179742"><ele>293.0</ele><time>2026-04-25T14:27:44.104Z</time></trkpt><trkpt lat="43.0237546" lon="11.7183466"><ele>293.5</ele><time>2026-04-25T14:27:45.105Z</time></trkpt><trkpt lat="43.0237466" lon="11.7187209"><ele>294.0</ele><time>2026-04-25T14:27:46.104Z</time></trkpt><trkpt lat="43.0237391" lon="11.7190912"><ele>294.5</ele><time>2026-04-25T14:27:47.105Z</time></trkpt><trkpt lat="43.0237299" lon="11.7194608"><ele>295.0</ele><time>2026-04-25T14:27:48.104Z</time></trkpt><trkpt lat="43.0237238" lon="11.7198305"><ele>295.0</ele><time>2026-04-25T14:27:49.105Z</time></trkpt><trkpt lat="43.0237168" lon="11.7201997"><ele>295.0</ele><time>2026-04-25T14:27:50.105Z</time></trkpt><trkpt lat="43.0237111" lon="11.7205655"><ele>295.0</ele><time>2026-04-25T14:27:51.105Z</time></trkpt><trkpt lat="43.023706" lon="11.7209295"><ele>295.0</ele><time>2026-04-25T14:27:52.105Z</time></trkpt><trkpt lat="43.0236961" lon="11.7212932"><ele>295.5</ele><time>2026-04-25T14:27:53.105Z</time></trkpt><trkpt lat="43.0236868" lon="11.721651"><ele>296.0</ele><time>2026-04-25T14:27:54.105Z</time></trkpt><trkpt lat="43.0236798" lon="11.7220059"><ele>296.0</ele><time>2026-04-25T14:27:55.105Z</time></trkpt><trkpt lat="43.0236778" lon="11.7223685"><ele>296.0</ele><time>2026-04-25T14:27:56.105Z</time></trkpt><trkpt lat="43.0236709" lon="11.7227254"><ele>296.5</ele><time>2026-04-25T14:27:57.105Z</time></trkpt><trkpt lat="43.0236668" lon="11.7230802"><ele>297.0</ele><time>2026-04-25T14:27:58.105Z</time></trkpt><trkpt lat="43.0236602" lon="11.7234232"><ele>296.5</ele><time>2026-04-25T14:27:59.105Z</time></trkpt><trkpt lat="43.0236537" lon="11.7237502"><ele>296.0</ele><time>2026-04-25T14:28:00.104Z</time></trkpt><trkpt lat="43.0236422" lon="11.7240561"><ele>296.0</ele><time>2026-04-25T14:28:01.105Z</time></trkpt><trkpt lat="43.0236303" lon="11.7243575"><ele>296.0</ele><time>2026-04-25T14:28:02.105Z</time></trkpt><trkpt lat="43.0235965" lon="11.724666"><ele>296.0</ele><time>2026-04-25T14:28:03.105Z</time></trkpt><trkpt lat="43.0235357" lon="11.7249711"><ele>297.0</ele><time>2026-04-25T14:28:04.105Z</time></trkpt><trkpt lat="43.0234504" lon="11.7252759"><ele>298.0</ele><time>2026-04-25T14:28:05.105Z</time></trkpt><trkpt lat="43.0233648" lon="11.7255883"><ele>294.5</ele><time>2026-04-25T14:28:06.105Z</time></trkpt><trkpt lat="43.0232813" lon="11.7259094"><ele>291.0</ele><time>2026-04-25T14:28:07.105Z</time></trkpt><trkpt lat="43.0231964" lon="11.7262352"><ele>291.0</ele><time>2026-04-25T14:28:08.105Z</time></trkpt><trkpt lat="43.0231105" lon="11.7265637"><ele>291.0</ele><time>2026-04-25T14:28:09.105Z</time></trkpt><trkpt lat="43.0230287" lon="11.7268879"><ele>292.0</ele><time>2026-04-25T14:28:10.104Z</time></trkpt><trkpt lat="43.0229457" lon="11.7272109"><ele>293.0</ele><time>2026-04-25T14:28:11.105Z</time></trkpt><trkpt lat="43.0228595" lon="11.7275335"><ele>294.5</ele><time>2026-04-25T14:28:12.104Z</time></trkpt><trkpt lat="43.0227754" lon="11.7278629"><ele>296.0</ele><time>2026-04-25T14:28:13.105Z</time></trkpt><trkpt lat="43.0226944" lon="11.7281824"><ele>296.0</ele><time>2026-04-25T14:28:14.105Z</time></trkpt><trkpt lat="43.0226123" lon="11.7285084"><ele>296.0</ele><time>2026-04-25T14:28:15.105Z</time></trkpt><trkpt lat="43.0225249" lon="11.72883"><ele>296.0</ele><time>2026-04-25T14:28:16.105Z</time></trkpt><trkpt lat="43.0224395" lon="11.7291424"><ele>296.0</ele><time>2026-04-25T14:28:17.105Z</time></trkpt><trkpt lat="43.0223547" lon="11.7294497"><ele>296.0</ele><time>2026-04-25T14:28:18.105Z</time></trkpt><trkpt lat="43.0222718" lon="11.7297557"><ele>296.0</ele><time>2026-04-25T14:28:19.104Z</time></trkpt><trkpt lat="43.0221866" lon="11.7300477"><ele>297.5</ele><time>2026-04-25T14:28:20.105Z</time></trkpt><trkpt lat="43.0221027" lon="11.7303371"><ele>299.0</ele><time>2026-04-25T14:28:21.105Z</time></trkpt><trkpt lat="43.0220274" lon="11.7306274"><ele>299.0</ele><time>2026-04-25T14:28:22.105Z</time></trkpt><trkpt lat="43.0219663" lon="11.730916"><ele>299.0</ele><time>2026-04-25T14:28:23.105Z</time></trkpt><trkpt lat="43.0219167" lon="11.7311919"><ele>299.0</ele><time>2026-04-25T14:28:24.105Z</time></trkpt><trkpt lat="43.0218704" lon="11.7314543"><ele>300.0</ele><time>2026-04-25T14:28:25.104Z</time></trkpt><trkpt lat="43.0218175" lon="11.7317008"><ele>301.0</ele><time>2026-04-25T14:28:26.104Z</time></trkpt><trkpt lat="43.0217664" lon="11.7319158"><ele>302.0</ele><time>2026-04-25T14:28:27.105Z</time></trkpt><trkpt lat="43.0216871" lon="11.7320878"><ele>303.6666666666667</ele><time>2026-04-25T14:28:28.105Z</time></trkpt><trkpt lat="43.0215642" lon="11.7322162"><ele>305.3333333333333</ele><time>2026-04-25T14:28:29.105Z</time></trkpt><trkpt lat="43.0214155" lon="11.7322989"><ele>307.0</ele><time>2026-04-25T14:28:30.105Z</time></trkpt><trkpt lat="43.0212676" lon="11.7322968"><ele>307.0</ele><time>2026-04-25T14:28:31.104Z</time></trkpt><trkpt lat="43.0211195" lon="11.7322765"><ele>307.0</ele><time>2026-04-25T14:28:32.105Z</time></trkpt><trkpt lat="43.0209754" lon="11.7323207"><ele>307.0</ele><time>2026-04-25T14:28:33.105Z</time></trkpt><trkpt lat="43.0208161" lon="11.7323928"><ele>305.66666666666663</ele><time>2026-04-25T14:28:34.105Z</time></trkpt><trkpt lat="43.0206608" lon="11.7325127"><ele>304.3333333333333</ele><time>2026-04-25T14:28:35.105Z</time></trkpt><trkpt lat="43.0205062" lon="11.7326659"><ele>303.0</ele><time>2026-04-25T14:28:36.104Z</time></trkpt><trkpt lat="43.0203676" lon="11.7328259"><ele>301.3333333333333</ele><time>2026-04-25T14:28:37.105Z</time></trkpt><trkpt lat="43.0202215" lon="11.7329786"><ele>299.66666666666663</ele><time>2026-04-25T14:28:38.105Z</time></trkpt><trkpt lat="43.020075" lon="11.7331427"><ele>298.0</ele><time>2026-04-25T14:28:39.105Z</time></trkpt><trkpt lat="43.0199317" lon="11.7333248"><ele>298.0</ele><time>2026-04-25T14:28:40.105Z</time></trkpt><trkpt lat="43.0198178" lon="11.7335353"><ele>298.0</ele><time>2026-04-25T14:28:41.105Z</time></trkpt><trkpt lat="43.0197142" lon="11.7337843"><ele>298.0</ele><time>2026-04-25T14:28:42.105Z</time></trkpt><trkpt lat="43.0196256" lon="11.7340443"><ele>300.3333333333333</ele><time>2026-04-25T14:28:43.105Z</time></trkpt><trkpt lat="43.0195424" lon="11.734309"><ele>302.6666666666667</ele><time>2026-04-25T14:28:44.105Z</time></trkpt><trkpt lat="43.019467" lon="11.7345652"><ele>305.0</ele><time>2026-04-25T14:28:45.105Z</time></trkpt><trkpt lat="43.0193933" lon="11.7348148"><ele>305.33333333333337</ele><time>2026-04-25T14:28:46.105Z</time></trkpt><trkpt lat="43.0193196" lon="11.7350446"><ele>305.6666666666667</ele><time>2026-04-25T14:28:47.105Z</time></trkpt><trkpt lat="43.019235" lon="11.7352314"><ele>306.0</ele><time>2026-04-25T14:28:48.105Z</time></trkpt><trkpt lat="43.0191267" lon="11.7353786"><ele>306.0</ele><time>2026-04-25T14:28:49.105Z</time></trkpt><trkpt lat="43.0189684" lon="11.7354839"><ele>306.0</ele><time>2026-04-25T14:28:50.105Z</time></trkpt><trkpt lat="43.0187965" lon="11.7355683"><ele>306.0</ele><time>2026-04-25T14:28:51.105Z</time></trkpt><trkpt lat="43.018633" lon="11.7356555"><ele>306.0</ele><time>2026-04-25T14:28:52.105Z</time></trkpt><trkpt lat="43.0184769" lon="11.7357751"><ele>306.0</ele><time>2026-04-25T14:28:53.105Z</time></trkpt><trkpt lat="43.0183248" lon="11.7359189"><ele>306.0</ele><time>2026-04-25T14:28:54.105Z</time></trkpt><trkpt lat="43.0181795" lon="11.7360873"><ele>304.6666666666667</ele><time>2026-04-25T14:28:55.104Z</time></trkpt><trkpt lat="43.0180441" lon="11.73628"><ele>303.33333333333337</ele><time>2026-04-25T14:28:56.105Z</time></trkpt><trkpt lat="43.0179223" lon="11.7364709"><ele>302.0</ele><time>2026-04-25T14:28:57.105Z</time></trkpt><trkpt lat="43.0178064" lon="11.7366813"><ele>302.33333333333337</ele><time>2026-04-25T14:28:58.105Z</time></trkpt><trkpt lat="43.0177087" lon="11.7369084"><ele>302.6666666666667</ele><time>2026-04-25T14:28:59.105Z</time></trkpt><trkpt lat="43.0176257" lon="11.7371523"><ele>303.0</ele><time>2026-04-25T14:29:00.105Z</time></trkpt><trkpt lat="43.0175485" lon="11.7374"><ele>302.0</ele><time>2026-04-25T14:29:01.105Z</time></trkpt><trkpt lat="43.017469" lon="11.7376391"><ele>301.0</ele><time>2026-04-25T14:29:02.104Z</time></trkpt><trkpt lat="43.0173861" lon="11.7378745"><ele>300.0</ele><time>2026-04-25T14:29:03.105Z</time></trkpt><trkpt lat="43.0173013" lon="11.738106"><ele>300.0</ele><time>2026-04-25T14:29:04.105Z</time></trkpt><trkpt lat="43.017222" lon="11.7383409"><ele>300.0</ele><time>2026-04-25T14:29:05.105Z</time></trkpt><trkpt lat="43.0171432" lon="11.7385715"><ele>300.0</ele><time>2026-04-25T14:29:06.105Z</time></trkpt><trkpt lat="43.0170684" lon="11.7387966"><ele>300.3333333333333</ele><time>2026-04-25T14:29:07.105Z</time></trkpt><trkpt lat="43.0169847" lon="11.7390073"><ele>300.66666666666663</ele><time>2026-04-25T14:29:08.104Z</time></trkpt><trkpt lat="43.0168981" lon="11.7392061"><ele>301.0</ele><time>2026-04-25T14:29:09.105Z</time></trkpt><trkpt lat="43.0167999" lon="11.7394004"><ele>300.66666666666663</ele><time>2026-04-25T14:29:10.104Z</time></trkpt><trkpt lat="43.016692" lon="11.7395843"><ele>300.3333333333333</ele><time>2026-04-25T14:29:11.105Z</time></trkpt><trkpt lat="43.0165615" lon="11.7397585"><ele>300.0</ele><time>2026-04-25T14:29:12.105Z</time></trkpt><trkpt lat="43.016414" lon="11.7399207"><ele>300.0</ele><time>2026-04-25T14:29:13.105Z</time></trkpt><trkpt lat="43.0162476" lon="11.7400763"><ele>300.0</ele><time>2026-04-25T14:29:14.104Z</time></trkpt><trkpt lat="43.0160724" lon="11.7402208"><ele>300.0</ele><time>2026-04-25T14:29:15.105Z</time></trkpt><trkpt lat="43.0158786" lon="11.7403622"><ele>299.5</ele><time>2026-04-25T14:29:16.105Z</time></trkpt><trkpt lat="43.01568" lon="11.7405101"><ele>299.0</ele><time>2026-04-25T14:29:17.104Z</time></trkpt><trkpt lat="43.0154753" lon="11.7406614"><ele>299.0</ele><time>2026-04-25T14:29:18.105Z</time></trkpt><trkpt lat="43.0152628" lon="11.7408206"><ele>299.0</ele><time>2026-04-25T14:29:19.104Z</time></trkpt><trkpt lat="43.0150463" lon="11.740988"><ele>299.5</ele><time>2026-04-25T14:29:20.104Z</time></trkpt><trkpt lat="43.0148277" lon="11.741152"><ele>300.0</ele><time>2026-04-25T14:29:21.105Z</time></trkpt><trkpt lat="43.0145917" lon="11.7413181"><ele>300.0</ele><time>2026-04-25T14:29:22.105Z</time></trkpt><trkpt lat="43.0143447" lon="11.7414922"><ele>300.0</ele><time>2026-04-25T14:29:23.105Z</time></trkpt><trkpt lat="43.0140936" lon="11.7416593"><ele>300.0</ele><time>2026-04-25T14:29:24.105Z</time></trkpt><trkpt lat="43.0138363" lon="11.7418349"><ele>300.0</ele><time>2026-04-25T14:29:25.105Z</time></trkpt><trkpt lat="43.0135787" lon="11.7420134"><ele>300.5</ele><time>2026-04-25T14:29:26.105Z</time></trkpt><trkpt lat="43.0133213" lon="11.7421929"><ele>301.0</ele><time>2026-04-25T14:29:27.105Z</time></trkpt><trkpt lat="43.0130698" lon="11.7423765"><ele>301.0</ele><time>2026-04-25T14:29:28.105Z</time></trkpt><trkpt lat="43.0128202" lon="11.7425601"><ele>301.0</ele><time>2026-04-25T14:29:29.105Z</time></trkpt><trkpt lat="43.0125752" lon="11.7427417"><ele>301.0</ele><time>2026-04-25T14:29:30.105Z</time></trkpt><trkpt lat="43.0123253" lon="11.7429252"><ele>301.0</ele><time>2026-04-25T14:29:31.105Z</time></trkpt><trkpt lat="43.0120834" lon="11.7431033"><ele>301.0</ele><time>2026-04-25T14:29:32.104Z</time></trkpt><trkpt lat="43.0118369" lon="11.7432713"><ele>301.0</ele><time>2026-04-25T14:29:33.104Z</time></trkpt><trkpt lat="43.0115913" lon="11.743424"><ele>301.5</ele><time>2026-04-25T14:29:34.105Z</time></trkpt><trkpt lat="43.0113339" lon="11.743555"><ele>302.0</ele><time>2026-04-25T14:29:35.105Z</time></trkpt><trkpt lat="43.0110692" lon="11.7436499"><ele>304.5</ele><time>2026-04-25T14:29:36.104Z</time></trkpt><trkpt lat="43.0107963" lon="11.7437097"><ele>307.0</ele><time>2026-04-25T14:29:37.104Z</time></trkpt><trkpt lat="43.0105289" lon="11.7437242"><ele>307.0</ele><time>2026-04-25T14:29:38.105Z</time></trkpt><trkpt lat="43.010252" lon="11.7437196"><ele>307.0</ele><time>2026-04-25T14:29:39.105Z</time></trkpt><trkpt lat="43.0099819" lon="11.7437131"><ele>307.5</ele><time>2026-04-25T14:29:40.105Z</time></trkpt><trkpt lat="43.0097163" lon="11.7437141"><ele>308.0</ele><time>2026-04-25T14:29:41.105Z</time></trkpt><trkpt lat="43.0094557" lon="11.7437095"><ele>308.0</ele><time>2026-04-25T14:29:42.104Z</time></trkpt><trkpt lat="43.0091984" lon="11.7437056"><ele>308.0</ele><time>2026-04-25T14:29:43.105Z</time></trkpt><trkpt lat="43.0089458" lon="11.7437023"><ele>307.0</ele><time>2026-04-25T14:29:44.105Z</time></trkpt><trkpt lat="43.0086983" lon="11.7436966"><ele>306.0</ele><time>2026-04-25T14:29:45.104Z</time></trkpt><trkpt lat="43.0084596" lon="11.7436961"><ele>306.5</ele><time>2026-04-25T14:29:46.105Z</time></trkpt><trkpt lat="43.0082241" lon="11.7436937"><ele>307.0</ele><time>2026-04-25T14:29:47.105Z</time></trkpt><trkpt lat="43.0079955" lon="11.7436906"><ele>307.0</ele><time>2026-04-25T14:29:48.105Z</time></trkpt><trkpt lat="43.0077781" lon="11.743684"><ele>307.0</ele><time>2026-04-25T14:29:49.105Z</time></trkpt><trkpt lat="43.0075689" lon="11.7436824"><ele>307.0</ele><time>2026-04-25T14:29:50.105Z</time></trkpt><trkpt lat="43.0073679" lon="11.7436999"><ele>306.66666666666663</ele><time>2026-04-25T14:29:51.105Z</time></trkpt><trkpt lat="43.0071717" lon="11.743732"><ele>306.3333333333333</ele><time>2026-04-25T14:29:52.105Z</time></trkpt><trkpt lat="43.0069785" lon="11.7438039"><ele>306.0</ele><time>2026-04-25T14:29:53.105Z</time></trkpt><trkpt lat="43.0067824" lon="11.7439164"><ele>305.0</ele><time>2026-04-25T14:29:54.104Z</time></trkpt><trkpt lat="43.00658" lon="11.7440527"><ele>304.0</ele><time>2026-04-25T14:29:55.105Z</time></trkpt><trkpt lat="43.0063767" lon="11.7441922"><ele>304.0</ele><time>2026-04-25T14:29:56.105Z</time></trkpt><trkpt lat="43.0061684" lon="11.7443242"><ele>304.0</ele><time>2026-04-25T14:29:57.105Z</time></trkpt><trkpt lat="43.0059542" lon="11.744455"><ele>304.0</ele><time>2026-04-25T14:29:58.105Z</time></trkpt><trkpt lat="43.0057386" lon="11.7445895"><ele>304.0</ele><time>2026-04-25T14:29:59.105Z</time></trkpt><trkpt lat="43.0055236" lon="11.7447325"><ele>304.0</ele><time>2026-04-25T14:30:00.105Z</time></trkpt><trkpt lat="43.0053018" lon="11.7448708"><ele>304.0</ele><time>2026-04-25T14:30:01.105Z</time></trkpt><trkpt lat="43.0050789" lon="11.7450132"><ele>304.0</ele><time>2026-04-25T14:30:02.105Z</time></trkpt><trkpt lat="43.0048548" lon="11.7451608"><ele>304.0</ele><time>2026-04-25T14:30:03.105Z</time></trkpt><trkpt lat="43.004631" lon="11.7453094"><ele>306.0</ele><time>2026-04-25T14:30:04.105Z</time></trkpt><trkpt lat="43.0044021" lon="11.745455"><ele>308.0</ele><time>2026-04-25T14:30:05.105Z</time></trkpt><trkpt lat="43.0041733" lon="11.7456011"><ele>309.0</ele><time>2026-04-25T14:30:06.105Z</time></trkpt><trkpt lat="43.0039411" lon="11.7457488"><ele>310.0</ele><time>2026-04-25T14:30:07.105Z</time></trkpt><trkpt lat="43.0037079" lon="11.7458948"><ele>310.0</ele><time>2026-04-25T14:30:08.104Z</time></trkpt><trkpt lat="43.003478" lon="11.7460424"><ele>310.0</ele><time>2026-04-25T14:30:09.104Z</time></trkpt><trkpt lat="43.0032428" lon="11.7461905"><ele>309.5</ele><time>2026-04-25T14:30:10.105Z</time></trkpt><trkpt lat="43.0030125" lon="11.7463279"><ele>309.0</ele><time>2026-04-25T14:30:11.105Z</time></trkpt><trkpt lat="43.0027801" lon="11.7464738"><ele>309.0</ele><time>2026-04-25T14:30:12.105Z</time></trkpt><trkpt lat="43.0025493" lon="11.7466193"><ele>309.0</ele><time>2026-04-25T14:30:13.104Z</time></trkpt><trkpt lat="43.0023155" lon="11.7467706"><ele>312.5</ele><time>2026-04-25T14:30:14.105Z</time></trkpt><trkpt lat="43.0020802" lon="11.7469207"><ele>316.0</ele><time>2026-04-25T14:30:15.105Z</time></trkpt><trkpt lat="43.0018432" lon="11.7470666"><ele>314.5</ele><time>2026-04-25T14:30:16.105Z</time></trkpt><trkpt lat="43.0016074" lon="11.747219"><ele>313.0</ele><time>2026-04-25T14:30:17.105Z</time></trkpt><trkpt lat="43.0013741" lon="11.7473694"><ele>313.0</ele><time>2026-04-25T14:30:18.105Z</time></trkpt><trkpt lat="43.0011442" lon="11.7475268"><ele>313.0</ele><time>2026-04-25T14:30:19.105Z</time></trkpt><trkpt lat="43.0009141" lon="11.7476893"><ele>314.0</ele><time>2026-04-25T14:30:20.105Z</time></trkpt><trkpt lat="43.0006875" lon="11.7478477"><ele>315.0</ele><time>2026-04-25T14:30:21.105Z</time></trkpt><trkpt lat="43.0004612" lon="11.7480245"><ele>315.0</ele><time>2026-04-25T14:30:22.105Z</time></trkpt><trkpt lat="43.0002322" lon="11.7482022"><ele>315.0</ele><time>2026-04-25T14:30:23.104Z</time></trkpt><trkpt lat="43.0000079" lon="11.7483774"><ele>315.0</ele><time>2026-04-25T14:30:24.105Z</time></trkpt><trkpt lat="42.9997832" lon="11.7485538"><ele>315.0</ele><time>2026-04-25T14:30:25.105Z</time></trkpt><trkpt lat="42.9995574" lon="11.7487284"><ele>315.0</ele><time>2026-04-25T14:30:26.104Z</time></trkpt><trkpt lat="42.9993317" lon="11.7489012"><ele>315.0</ele><time>2026-04-25T14:30:27.105Z</time></trkpt><trkpt lat="42.9991069" lon="11.7490735"><ele>315.0</ele><time>2026-04-25T14:30:28.105Z</time></trkpt><trkpt lat="42.9988825" lon="11.7492505"><ele>315.0</ele><time>2026-04-25T14:30:29.105Z</time></trkpt><trkpt lat="42.9986561" lon="11.749427"><ele>315.0</ele><time>2026-04-25T14:30:30.105Z</time></trkpt><trkpt lat="42.9984356" lon="11.7496042"><ele>315.0</ele><time>2026-04-25T14:30:31.105Z</time></trkpt><trkpt lat="42.9982172" lon="11.7497861"><ele>316.0</ele><time>2026-04-25T14:30:32.104Z</time></trkpt><trkpt lat="42.9980095" lon="11.7499643"><ele>317.0</ele><time>2026-04-25T14:30:33.105Z</time></trkpt><trkpt lat="42.9978018" lon="11.7501542"><ele>316.5</ele><time>2026-04-25T14:30:34.105Z</time></trkpt><trkpt lat="42.997594" lon="11.7503462"><ele>316.0</ele><time>2026-04-25T14:30:35.104Z</time></trkpt><trkpt lat="42.9973905" lon="11.7505426"><ele>317.5</ele><time>2026-04-25T14:30:36.105Z</time></trkpt><trkpt lat="42.9971826" lon="11.7507356"><ele>319.0</ele><time>2026-04-25T14:30:37.104Z</time></trkpt><trkpt lat="42.9969732" lon="11.7509224"><ele>320.0</ele><time>2026-04-25T14:30:38.105Z</time></trkpt><trkpt lat="42.9967678" lon="11.7511146"><ele>321.0</ele><time>2026-04-25T14:30:39.105Z</time></trkpt><trkpt lat="42.9965578" lon="11.7513026"><ele>321.0</ele><time>2026-04-25T14:30:40.105Z</time></trkpt><trkpt lat="42.9963494" lon="11.751493"><ele>321.0</ele><time>2026-04-25T14:30:41.105Z</time></trkpt><trkpt lat="42.9961397" lon="11.7516846"><ele>321.0</ele><time>2026-04-25T14:30:42.105Z</time></trkpt><trkpt lat="42.9959362" lon="11.7518784"><ele>321.0</ele><time>2026-04-25T14:30:43.105Z</time></trkpt><trkpt lat="42.995738" lon="11.7520654"><ele>321.0</ele><time>2026-04-25T14:30:44.105Z</time></trkpt><trkpt lat="42.9955414" lon="11.7522513"><ele>321.0</ele><time>2026-04-25T14:30:45.105Z</time></trkpt><trkpt lat="42.9953432" lon="11.7524367"><ele>321.0</ele><time>2026-04-25T14:30:46.105Z</time></trkpt><trkpt lat="42.9951386" lon="11.7526067"><ele>321.0</ele><time>2026-04-25T14:30:47.104Z</time></trkpt><trkpt lat="42.9949285" lon="11.7527562"><ele>319.6666666666667</ele><time>2026-04-25T14:30:48.105Z</time></trkpt><trkpt lat="42.994727" lon="11.7528845"><ele>318.33333333333337</ele><time>2026-04-25T14:30:49.105Z</time></trkpt><trkpt lat="42.9945402" lon="11.7530125"><ele>317.0</ele><time>2026-04-25T14:30:50.105Z</time></trkpt><trkpt lat="42.9943588" lon="11.7531396"><ele>317.0</ele><time>2026-04-25T14:30:51.105Z</time></trkpt><trkpt lat="42.9941853" lon="11.7532583"><ele>317.0</ele><time>2026-04-25T14:30:52.105Z</time></trkpt><trkpt lat="42.9940214" lon="11.753378"><ele>317.0</ele><time>2026-04-25T14:30:53.105Z</time></trkpt><trkpt lat="42.9938582" lon="11.7534943"><ele>318.33333333333337</ele><time>2026-04-25T14:30:54.105Z</time></trkpt><trkpt lat="42.9937018" lon="11.7536318"><ele>319.6666666666667</ele><time>2026-04-25T14:30:55.104Z</time></trkpt><trkpt lat="42.9935471" lon="11.7537917"><ele>321.0</ele><time>2026-04-25T14:30:56.105Z</time></trkpt><trkpt lat="42.9934038" lon="11.7539849"><ele>321.0</ele><time>2026-04-25T14:30:57.104Z</time></trkpt><trkpt lat="42.9932556" lon="11.7541842"><ele>321.0</ele><time>2026-04-25T14:30:58.105Z</time></trkpt><trkpt lat="42.9931111" lon="11.7543884"><ele>321.0</ele><time>2026-04-25T14:30:59.105Z</time></trkpt><trkpt lat="42.9929679" lon="11.7545912"><ele>323.0</ele><time>2026-04-25T14:31:00.104Z</time></trkpt><trkpt lat="42.992833" lon="11.7547889"><ele>325.0</ele><time>2026-04-25T14:31:01.105Z</time></trkpt><trkpt lat="42.99271" lon="11.7549758"><ele>327.0</ele><time>2026-04-25T14:31:02.105Z</time></trkpt><trkpt lat="42.9926041" lon="11.7551675"><ele>325.6666666666667</ele><time>2026-04-25T14:31:03.105Z</time></trkpt><trkpt lat="42.9925274" lon="11.7553633"><ele>324.33333333333337</ele><time>2026-04-25T14:31:04.105Z</time></trkpt><trkpt lat="42.9924719" lon="11.7555677"><ele>323.0</ele><time>2026-04-25T14:31:05.104Z</time></trkpt><trkpt lat="42.9924304" lon="11.7557724"><ele>323.0</ele><time>2026-04-25T14:31:06.105Z</time></trkpt><trkpt lat="42.9924067" lon="11.7559722"><ele>323.0</ele><time>2026-04-25T14:31:07.104Z</time></trkpt><trkpt lat="42.9924015" lon="11.7561815"><ele>323.0</ele><time>2026-04-25T14:31:08.105Z</time></trkpt><trkpt lat="42.9924096" lon="11.7563968"><ele>324.33333333333337</ele><time>2026-04-25T14:31:09.105Z</time></trkpt><trkpt lat="42.9924298" lon="11.7566149"><ele>325.6666666666667</ele><time>2026-04-25T14:31:10.105Z</time></trkpt><trkpt lat="42.9924547" lon="11.7568356"><ele>327.0</ele><time>2026-04-25T14:31:11.105Z</time></trkpt><trkpt lat="42.9924736" lon="11.7570596"><ele>328.6666666666667</ele><time>2026-04-25T14:31:12.105Z</time></trkpt><trkpt lat="42.992506" lon="11.7572885"><ele>330.33333333333337</ele><time>2026-04-25T14:31:13.105Z</time></trkpt><trkpt lat="42.9925614" lon="11.7575112"><ele>332.0</ele><time>2026-04-25T14:31:14.105Z</time></trkpt><trkpt lat="42.9926555" lon="11.7577126"><ele>332.6666666666667</ele><time>2026-04-25T14:31:15.105Z</time></trkpt><trkpt lat="42.992761" lon="11.7578929"><ele>333.3333333333333</ele><time>2026-04-25T14:31:16.104Z</time></trkpt><trkpt lat="42.9928552" lon="11.7580893"><ele>334.0</ele><time>2026-04-25T14:31:17.105Z</time></trkpt><trkpt lat="42.9929042" lon="11.7583112"><ele>334.66666666666663</ele><time>2026-04-25T14:31:18.105Z</time></trkpt><trkpt lat="42.9929302" lon="11.7585487"><ele>335.3333333333333</ele><time>2026-04-25T14:31:19.105Z</time></trkpt><trkpt lat="42.9929312" lon="11.7587882"><ele>336.0</ele><time>2026-04-25T14:31:20.105Z</time></trkpt><trkpt lat="42.9929196" lon="11.7590305"><ele>336.0</ele><time>2026-04-25T14:31:21.105Z</time></trkpt><trkpt lat="42.9928991" lon="11.7592735"><ele>336.0</ele><time>2026-04-25T14:31:22.105Z</time></trkpt><trkpt lat="42.9928706" lon="11.7595142"><ele>336.0</ele><time>2026-04-25T14:31:23.105Z</time></trkpt><trkpt lat="42.9928343" lon="11.7597493"><ele>338.0</ele><time>2026-04-25T14:31:24.105Z</time></trkpt><trkpt lat="42.9927918" lon="11.7599826"><ele>340.0</ele><time>2026-04-25T14:31:25.104Z</time></trkpt><trkpt lat="42.9927466" lon="11.760217"><ele>342.0</ele><time>2026-04-25T14:31:26.105Z</time></trkpt><trkpt lat="42.9926978" lon="11.7604533"><ele>344.3333333333333</ele><time>2026-04-25T14:31:27.105Z</time></trkpt><trkpt lat="42.9926354" lon="11.7606913"><ele>346.66666666666663</ele><time>2026-04-25T14:31:28.105Z</time></trkpt><trkpt lat="42.9925735" lon="11.7609218"><ele>349.0</ele><time>2026-04-25T14:31:29.105Z</time></trkpt><trkpt lat="42.9925053" lon="11.7611521"><ele>349.0</ele><time>2026-04-25T14:31:30.105Z</time></trkpt><trkpt lat="42.9924314" lon="11.7613856"><ele>349.0</ele><time>2026-04-25T14:31:31.105Z</time></trkpt><trkpt lat="42.9923467" lon="11.7616136"><ele>349.0</ele><time>2026-04-25T14:31:32.105Z</time></trkpt><trkpt lat="42.9922422" lon="11.7618302"><ele>349.0</ele><time>2026-04-25T14:31:33.104Z</time></trkpt><trkpt lat="42.992137" lon="11.7620259"><ele>349.0</ele><time>2026-04-25T14:31:34.105Z</time></trkpt><trkpt lat="42.9920025" lon="11.7621894"><ele>349.0</ele><time>2026-04-25T14:31:35.105Z</time></trkpt><trkpt lat="42.9918497" lon="11.7623172"><ele>347.66666666666663</ele><time>2026-04-25T14:31:36.104Z</time></trkpt><trkpt lat="42.9916667" lon="11.7623895"><ele>346.3333333333333</ele><time>2026-04-25T14:31:37.105Z</time></trkpt><trkpt lat="42.9914766" lon="11.7624275"><ele>345.0</ele><time>2026-04-25T14:31:38.105Z</time></trkpt><trkpt lat="42.9912812" lon="11.7624298"><ele>345.0</ele><time>2026-04-25T14:31:39.105Z</time></trkpt><trkpt lat="42.9910771" lon="11.7624276"><ele>345.0</ele><time>2026-04-25T14:31:40.104Z</time></trkpt><trkpt lat="42.990862" lon="11.7624317"><ele>345.0</ele><time>2026-04-25T14:31:41.104Z</time></trkpt><trkpt lat="42.9906505" lon="11.7624309"><ele>344.3333333333333</ele><time>2026-04-25T14:31:42.105Z</time></trkpt><trkpt lat="42.990439" lon="11.7624369"><ele>343.66666666666663</ele><time>2026-04-25T14:31:43.105Z</time></trkpt><trkpt lat="42.9902207" lon="11.7624409"><ele>343.0</ele><time>2026-04-25T14:31:44.105Z</time></trkpt><trkpt lat="42.989995" lon="11.762435"><ele>342.5</ele><time>2026-04-25T14:31:45.105Z</time></trkpt><trkpt lat="42.9897705" lon="11.7624371"><ele>342.0</ele><time>2026-04-25T14:31:46.105Z</time></trkpt><trkpt lat="42.9895445" lon="11.7624381"><ele>342.0</ele><time>2026-04-25T14:31:47.105Z</time></trkpt><trkpt lat="42.9893155" lon="11.7624414"><ele>342.0</ele><time>2026-04-25T14:31:48.105Z</time></trkpt><trkpt lat="42.9890968" lon="11.7624409"><ele>342.0</ele><time>2026-04-25T14:31:49.105Z</time></trkpt><trkpt lat="42.988887" lon="11.7624441"><ele>341.0</ele><time>2026-04-25T14:31:50.105Z</time></trkpt><trkpt lat="42.9886861" lon="11.7624456"><ele>340.0</ele><time>2026-04-25T14:31:51.105Z</time></trkpt><trkpt lat="42.9884965" lon="11.7624437"><ele>339.0</ele><time>2026-04-25T14:31:52.105Z</time></trkpt><trkpt lat="42.9883194" lon="11.7624187"><ele>338.0</ele><time>2026-04-25T14:31:53.105Z</time></trkpt><trkpt lat="42.9881502" lon="11.7623723"><ele>337.0</ele><time>2026-04-25T14:31:54.105Z</time></trkpt><trkpt lat="42.9879733" lon="11.7622792"><ele>336.0</ele><time>2026-04-25T14:31:55.105Z</time></trkpt><trkpt lat="42.9878032" lon="11.7621635"><ele>336.0</ele><time>2026-04-25T14:31:56.105Z</time></trkpt><trkpt lat="42.987625" lon="11.7620434"><ele>336.0</ele><time>2026-04-25T14:31:57.105Z</time></trkpt><trkpt lat="42.9874458" lon="11.7619453"><ele>336.0</ele><time>2026-04-25T14:31:58.105Z</time></trkpt><trkpt lat="42.9872511" lon="11.7618689"><ele>336.3333333333333</ele><time>2026-04-25T14:31:59.105Z</time></trkpt><trkpt lat="42.9870523" lon="11.7618323"><ele>336.66666666666663</ele><time>2026-04-25T14:32:00.105Z</time></trkpt><trkpt lat="42.9868608" lon="11.7618539"><ele>337.0</ele><time>2026-04-25T14:32:01.105Z</time></trkpt><trkpt lat="42.9866605" lon="11.7619107"><ele>335.0</ele><time>2026-04-25T14:32:02.105Z</time></trkpt><trkpt lat="42.9864655" lon="11.7619915"><ele>333.0</ele><time>2026-04-25T14:32:03.105Z</time></trkpt><trkpt lat="42.9862723" lon="11.762079"><ele>331.0</ele><time>2026-04-25T14:32:04.105Z</time></trkpt><trkpt lat="42.9860858" lon="11.7621696"><ele>331.0</ele><time>2026-04-25T14:32:05.104Z</time></trkpt><trkpt lat="42.9859064" lon="11.7622505"><ele>331.0</ele><time>2026-04-25T14:32:06.104Z</time></trkpt><trkpt lat="42.9857376" lon="11.762314"><ele>331.0</ele><time>2026-04-25T14:32:07.104Z</time></trkpt><trkpt lat="42.9855721" lon="11.762346"><ele>331.66666666666663</ele><time>2026-04-25T14:32:08.104Z</time></trkpt><trkpt lat="42.9854103" lon="11.7622835"><ele>332.3333333333333</ele><time>2026-04-25T14:32:09.105Z</time></trkpt><trkpt lat="42.9852503" lon="11.7621899"><ele>333.0</ele><time>2026-04-25T14:32:10.104Z</time></trkpt><trkpt lat="42.9850989" lon="11.762058"><ele>333.3333333333333</ele><time>2026-04-25T14:32:11.105Z</time></trkpt><trkpt lat="42.9849486" lon="11.761922"><ele>333.66666666666663</ele><time>2026-04-25T14:32:12.105Z</time></trkpt><trkpt lat="42.9847842" lon="11.7617885"><ele>334.0</ele><time>2026-04-25T14:32:13.104Z</time></trkpt><trkpt lat="42.9846179" lon="11.7616579"><ele>333.66666666666663</ele><time>2026-04-25T14:32:14.105Z</time></trkpt><trkpt lat="42.9844577" lon="11.7615293"><ele>333.3333333333333</ele><time>2026-04-25T14:32:15.105Z</time></trkpt><trkpt lat="42.9842934" lon="11.7614023"><ele>333.0</ele><time>2026-04-25T14:32:16.104Z</time></trkpt><trkpt lat="42.9841336" lon="11.7612798"><ele>333.0</ele><time>2026-04-25T14:32:17.105Z</time></trkpt><trkpt lat="42.9839705" lon="11.7611922"><ele>333.0</ele><time>2026-04-25T14:32:18.104Z</time></trkpt><trkpt lat="42.9837948" lon="11.7611505"><ele>333.0</ele><time>2026-04-25T14:32:19.105Z</time></trkpt><trkpt lat="42.9836052" lon="11.7611565"><ele>333.0</ele><time>2026-04-25T14:32:20.105Z</time></trkpt><trkpt lat="42.983419" lon="11.7611924"><ele>333.0</ele><time>2026-04-25T14:32:21.105Z</time></trkpt><trkpt lat="42.9832372" lon="11.7612758"><ele>333.0</ele><time>2026-04-25T14:32:22.105Z</time></trkpt><trkpt lat="42.9830545" lon="11.7614013"><ele>332.0</ele><time>2026-04-25T14:32:23.105Z</time></trkpt><trkpt lat="42.9828709" lon="11.7615397"><ele>331.0</ele><time>2026-04-25T14:32:24.105Z</time></trkpt><trkpt lat="42.9826878" lon="11.7616785"><ele>330.0</ele><time>2026-04-25T14:32:25.105Z</time></trkpt><trkpt lat="42.9824938" lon="11.7618211"><ele>329.3333333333333</ele><time>2026-04-25T14:32:26.105Z</time></trkpt><trkpt lat="42.9823041" lon="11.7619609"><ele>328.66666666666663</ele><time>2026-04-25T14:32:27.105Z</time></trkpt><trkpt lat="42.9821046" lon="11.7621066"><ele>328.0</ele><time>2026-04-25T14:32:28.104Z</time></trkpt><trkpt lat="42.9819049" lon="11.7622565"><ele>328.0</ele><time>2026-04-25T14:32:29.105Z</time></trkpt><trkpt lat="42.981703" lon="11.7624015"><ele>328.0</ele><time>2026-04-25T14:32:30.104Z</time></trkpt><trkpt lat="42.9814957" lon="11.7625455"><ele>327.0</ele><time>2026-04-25T14:32:31.104Z</time></trkpt><trkpt lat="42.9812882" lon="11.7626932"><ele>326.0</ele><time>2026-04-25T14:32:32.104Z</time></trkpt><trkpt lat="42.981082" lon="11.762845"><ele>326.5</ele><time>2026-04-25T14:32:33.104Z</time></trkpt><trkpt lat="42.9808759" lon="11.7629923"><ele>327.0</ele><time>2026-04-25T14:32:34.105Z</time></trkpt><trkpt lat="42.980667" lon="11.7631354"><ele>327.0</ele><time>2026-04-25T14:32:35.104Z</time></trkpt><trkpt lat="42.9804617" lon="11.7632798"><ele>327.0</ele><time>2026-04-25T14:32:36.104Z</time></trkpt><trkpt lat="42.9802575" lon="11.7634265"><ele>330.0</ele><time>2026-04-25T14:32:37.105Z</time></trkpt><trkpt lat="42.9800514" lon="11.7635793"><ele>333.0</ele><time>2026-04-25T14:32:38.105Z</time></trkpt><trkpt lat="42.9798487" lon="11.7637218"><ele>333.0</ele><time>2026-04-25T14:32:39.105Z</time></trkpt><trkpt lat="42.9796483" lon="11.7638624"><ele>333.0</ele><time>2026-04-25T14:32:40.105Z</time></trkpt><trkpt lat="42.9794597" lon="11.7639956"><ele>333.0</ele><time>2026-04-25T14:32:41.105Z</time></trkpt><trkpt lat="42.9792832" lon="11.7641204"><ele>332.3333333333333</ele><time>2026-04-25T14:32:42.104Z</time></trkpt><trkpt lat="42.9791179" lon="11.7642428"><ele>331.66666666666663</ele><time>2026-04-25T14:32:43.105Z</time></trkpt><trkpt lat="42.9789548" lon="11.764357"><ele>331.0</ele><time>2026-04-25T14:32:44.105Z</time></trkpt><trkpt lat="42.9788027" lon="11.7644992"><ele>332.3333333333333</ele><time>2026-04-25T14:32:45.105Z</time></trkpt><trkpt lat="42.9786744" lon="11.7646727"><ele>333.6666666666667</ele><time>2026-04-25T14:32:46.105Z</time></trkpt><trkpt lat="42.978579" lon="11.7648953"><ele>335.0</ele><time>2026-04-25T14:32:47.105Z</time></trkpt><trkpt lat="42.9785354" lon="11.7651587"><ele>335.33333333333337</ele><time>2026-04-25T14:32:48.105Z</time></trkpt><trkpt lat="42.9785263" lon="11.7654214"><ele>335.6666666666667</ele><time>2026-04-25T14:32:49.105Z</time></trkpt><trkpt lat="42.978529" lon="11.7656958"><ele>336.0</ele><time>2026-04-25T14:32:50.104Z</time></trkpt><trkpt lat="42.9785263" lon="11.7659754"><ele>335.6666666666667</ele><time>2026-04-25T14:32:51.105Z</time></trkpt><trkpt lat="42.9785144" lon="11.7662631"><ele>335.33333333333337</ele><time>2026-04-25T14:32:52.105Z</time></trkpt><trkpt lat="42.9785044" lon="11.7665562"><ele>335.0</ele><time>2026-04-25T14:32:53.105Z</time></trkpt><trkpt lat="42.9785007" lon="11.7668589"><ele>334.6666666666667</ele><time>2026-04-25T14:32:54.105Z</time></trkpt><trkpt lat="42.9784979" lon="11.7671668"><ele>334.3333333333333</ele><time>2026-04-25T14:32:55.105Z</time></trkpt><trkpt lat="42.9784914" lon="11.76747"><ele>334.0</ele><time>2026-04-25T14:32:56.105Z</time></trkpt><trkpt lat="42.9784846" lon="11.7677749"><ele>334.3333333333333</ele><time>2026-04-25T14:32:57.105Z</time></trkpt><trkpt lat="42.9784781" lon="11.7680802"><ele>334.6666666666667</ele><time>2026-04-25T14:32:58.105Z</time></trkpt><trkpt lat="42.9784711" lon="11.7683872"><ele>335.0</ele><time>2026-04-25T14:32:59.105Z</time></trkpt><trkpt lat="42.9784636" lon="11.7686935"><ele>335.0</ele><time>2026-04-25T14:33:00.105Z</time></trkpt><trkpt lat="42.9784566" lon="11.7689942"><ele>335.0</ele><time>2026-04-25T14:33:01.104Z</time></trkpt><trkpt lat="42.9784369" lon="11.7692796"><ele>335.0</ele><time>2026-04-25T14:33:02.103Z</time></trkpt><trkpt lat="42.9783898" lon="11.7695673"><ele>335.6666666666667</ele><time>2026-04-25T14:33:03.104Z</time></trkpt><trkpt lat="42.9783194" lon="11.7698449"><ele>336.3333333333333</ele><time>2026-04-25T14:33:04.104Z</time></trkpt><trkpt lat="42.978222" lon="11.7701061"><ele>337.0</ele><time>2026-04-25T14:33:05.104Z</time></trkpt><trkpt lat="42.9781051" lon="11.7703591"><ele>337.0</ele><time>2026-04-25T14:33:06.104Z</time></trkpt><trkpt lat="42.977964" lon="11.770585"><ele>337.0</ele><time>2026-04-25T14:33:07.104Z</time></trkpt><trkpt lat="42.9777964" lon="11.7707892"><ele>337.0</ele><time>2026-04-25T14:33:08.103Z</time></trkpt><trkpt lat="42.9776166" lon="11.7709835"><ele>338.0</ele><time>2026-04-25T14:33:09.104Z</time></trkpt><trkpt lat="42.9774365" lon="11.7711759"><ele>339.0</ele><time>2026-04-25T14:33:10.104Z</time></trkpt><trkpt lat="42.9772501" lon="11.7713711"><ele>339.0</ele><time>2026-04-25T14:33:11.104Z</time></trkpt><trkpt lat="42.9770566" lon="11.7715684"><ele>339.0</ele><time>2026-04-25T14:33:12.104Z</time></trkpt><trkpt lat="42.9768644" lon="11.7717703"><ele>342.5</ele><time>2026-04-25T14:33:13.104Z</time></trkpt><trkpt lat="42.9766765" lon="11.7719741"><ele>346.0</ele><time>2026-04-25T14:33:14.104Z</time></trkpt><trkpt lat="42.9764893" lon="11.7721726"><ele>346.0</ele><time>2026-04-25T14:33:15.104Z</time></trkpt><trkpt lat="42.9763018" lon="11.7723773"><ele>346.0</ele><time>2026-04-25T14:33:16.104Z</time></trkpt><trkpt lat="42.9761155" lon="11.772576"><ele>349.0</ele><time>2026-04-25T14:33:17.103Z</time></trkpt><trkpt lat="42.9759283" lon="11.7727768"><ele>352.0</ele><time>2026-04-25T14:33:18.104Z</time></trkpt><trkpt lat="42.9757457" lon="11.7729756"><ele>352.0</ele><time>2026-04-25T14:33:19.104Z</time></trkpt><trkpt lat="42.9755659" lon="11.7731736"><ele>352.0</ele><time>2026-04-25T14:33:20.104Z</time></trkpt><trkpt lat="42.975388" lon="11.7733691"><ele>354.0</ele><time>2026-04-25T14:33:21.104Z</time></trkpt><trkpt lat="42.975218" lon="11.7735717"><ele>356.0</ele><time>2026-04-25T14:33:22.104Z</time></trkpt><trkpt lat="42.9750533" lon="11.7737866"><ele>356.0</ele><time>2026-04-25T14:33:23.104Z</time></trkpt><trkpt lat="42.9748909" lon="11.7740077"><ele>356.0</ele><time>2026-04-25T14:33:24.104Z</time></trkpt><trkpt lat="42.9747261" lon="11.7742308"><ele>356.5</ele><time>2026-04-25T14:33:25.104Z</time></trkpt><trkpt lat="42.9745587" lon="11.7744548"><ele>357.0</ele><time>2026-04-25T14:33:26.104Z</time></trkpt><trkpt lat="42.9743901" lon="11.7746765"><ele>357.0</ele><time>2026-04-25T14:33:27.104Z</time></trkpt><trkpt lat="42.9742236" lon="11.774905"><ele>357.0</ele><time>2026-04-25T14:33:28.104Z</time></trkpt><trkpt lat="42.9740586" lon="11.7751282"><ele>358.0</ele><time>2026-04-25T14:33:29.104Z</time></trkpt><trkpt lat="42.9738918" lon="11.7753518"><ele>359.0</ele><time>2026-04-25T14:33:30.104Z</time></trkpt><trkpt lat="42.9737203" lon="11.7755784"><ele>359.0</ele><time>2026-04-25T14:33:31.104Z</time></trkpt><trkpt lat="42.9735543" lon="11.7758041"><ele>359.0</ele><time>2026-04-25T14:33:32.103Z</time></trkpt><trkpt lat="42.9733856" lon="11.7760331"><ele>360.0</ele><time>2026-04-25T14:33:33.104Z</time></trkpt><trkpt lat="42.9732123" lon="11.776258"><ele>361.0</ele><time>2026-04-25T14:33:34.104Z</time></trkpt><trkpt lat="42.973051" lon="11.7764851"><ele>361.0</ele><time>2026-04-25T14:33:35.104Z</time></trkpt><trkpt lat="42.972904" lon="11.7767231"><ele>361.0</ele><time>2026-04-25T14:33:36.103Z</time></trkpt><trkpt lat="42.9727703" lon="11.7769637"><ele>361.0</ele><time>2026-04-25T14:33:37.104Z</time></trkpt><trkpt lat="42.9726392" lon="11.7772143"><ele>360.5</ele><time>2026-04-25T14:33:38.104Z</time></trkpt><trkpt lat="42.972516" lon="11.7774779"><ele>360.0</ele><time>2026-04-25T14:33:39.104Z</time></trkpt><trkpt lat="42.9723925" lon="11.7777511"><ele>360.0</ele><time>2026-04-25T14:33:40.104Z</time></trkpt><trkpt lat="42.9722666" lon="11.7780263"><ele>360.0</ele><time>2026-04-25T14:33:41.104Z</time></trkpt><trkpt lat="42.9721395" lon="11.778302"><ele>359.0</ele><time>2026-04-25T14:33:42.104Z</time></trkpt><trkpt lat="42.9720165" lon="11.7785819"><ele>358.0</ele><time>2026-04-25T14:33:43.104Z</time></trkpt><trkpt lat="42.9718976" lon="11.7788586"><ele>358.0</ele><time>2026-04-25T14:33:44.104Z</time></trkpt><trkpt lat="42.971772" lon="11.7791411"><ele>358.0</ele><time>2026-04-25T14:33:45.104Z</time></trkpt><trkpt lat="42.9716482" lon="11.7794216"><ele>356.0</ele><time>2026-04-25T14:33:46.104Z</time></trkpt><trkpt lat="42.9715207" lon="11.7796985"><ele>354.0</ele><time>2026-04-25T14:33:47.104Z</time></trkpt><trkpt lat="42.9713861" lon="11.7799599"><ele>355.5</ele><time>2026-04-25T14:33:48.104Z</time></trkpt><trkpt lat="42.9712335" lon="11.7802106"><ele>357.0</ele><time>2026-04-25T14:33:49.104Z</time></trkpt><trkpt lat="42.9710605" lon="11.7804286"><ele>357.0</ele><time>2026-04-25T14:33:50.104Z</time></trkpt><trkpt lat="42.9708769" lon="11.7806237"><ele>357.0</ele><time>2026-04-25T14:33:51.104Z</time></trkpt><trkpt lat="42.9706915" lon="11.7808176"><ele>356.0</ele><time>2026-04-25T14:33:52.104Z</time></trkpt><trkpt lat="42.970509" lon="11.7810043"><ele>355.0</ele><time>2026-04-25T14:33:53.104Z</time></trkpt><trkpt lat="42.9703259" lon="11.7811888"><ele>356.3333333333333</ele><time>2026-04-25T14:33:54.103Z</time></trkpt><trkpt lat="42.9701478" lon="11.7813703"><ele>357.6666666666667</ele><time>2026-04-25T14:33:55.104Z</time></trkpt><trkpt lat="42.9699831" lon="11.7815464"><ele>359.0</ele><time>2026-04-25T14:33:56.104Z</time></trkpt><trkpt lat="42.9698302" lon="11.7817296"><ele>359.6666666666667</ele><time>2026-04-25T14:33:57.104Z</time></trkpt><trkpt lat="42.9696875" lon="11.7819053"><ele>360.3333333333333</ele><time>2026-04-25T14:33:58.103Z</time></trkpt><trkpt lat="42.969556" lon="11.7820531"><ele>361.0</ele><time>2026-04-25T14:33:59.104Z</time></trkpt><trkpt lat="42.9694065" lon="11.7821638"><ele>361.0</ele><time>2026-04-25T14:34:00.104Z</time></trkpt><trkpt lat="42.9692448" lon="11.7822451"><ele>361.0</ele><time>2026-04-25T14:34:01.104Z</time></trkpt><trkpt lat="42.9690667" lon="11.7822866"><ele>361.0</ele><time>2026-04-25T14:34:02.104Z</time></trkpt><trkpt lat="42.9688909" lon="11.782316"><ele>363.0</ele><time>2026-04-25T14:34:03.103Z</time></trkpt><trkpt lat="42.9687096" lon="11.7823597"><ele>365.0</ele><time>2026-04-25T14:34:04.104Z</time></trkpt><trkpt lat="42.968536" lon="11.7824258"><ele>367.0</ele><time>2026-04-25T14:34:05.104Z</time></trkpt><trkpt lat="42.9683487" lon="11.7825207"><ele>367.0</ele><time>2026-04-25T14:34:06.104Z</time></trkpt><trkpt lat="42.9681577" lon="11.782632"><ele>367.0</ele><time>2026-04-25T14:34:07.104Z</time></trkpt><trkpt lat="42.9679585" lon="11.7827438"><ele>367.0</ele><time>2026-04-25T14:34:08.104Z</time></trkpt><trkpt lat="42.96776" lon="11.7828599"><ele>367.0</ele><time>2026-04-25T14:34:09.103Z</time></trkpt><trkpt lat="42.9675609" lon="11.7829771"><ele>367.0</ele><time>2026-04-25T14:34:10.104Z</time></trkpt><trkpt lat="42.9673577" lon="11.7830982"><ele>367.0</ele><time>2026-04-25T14:34:11.104Z</time></trkpt><trkpt lat="42.9671531" lon="11.7832187"><ele>367.0</ele><time>2026-04-25T14:34:12.104Z</time></trkpt><trkpt lat="42.9669491" lon="11.7833397"><ele>367.0</ele><time>2026-04-25T14:34:13.104Z</time></trkpt><trkpt lat="42.9667347" lon="11.7834594"><ele>369.5</ele><time>2026-04-25T14:34:14.104Z</time></trkpt><trkpt lat="42.9665247" lon="11.7835827"><ele>372.0</ele><time>2026-04-25T14:34:15.104Z</time></trkpt><trkpt lat="42.9663121" lon="11.7837037"><ele>372.0</ele><time>2026-04-25T14:34:16.104Z</time></trkpt><trkpt lat="42.966095" lon="11.7838291"><ele>372.0</ele><time>2026-04-25T14:34:17.103Z</time></trkpt><trkpt lat="42.9658784" lon="11.7839551"><ele>370.5</ele><time>2026-04-25T14:34:18.103Z</time></trkpt><trkpt lat="42.9656595" lon="11.7840796"><ele>369.0</ele><time>2026-04-25T14:34:19.104Z</time></trkpt><trkpt lat="42.9654415" lon="11.7842009"><ele>369.0</ele><time>2026-04-25T14:34:20.104Z</time></trkpt><trkpt lat="42.9652265" lon="11.78433"><ele>369.0</ele><time>2026-04-25T14:34:21.103Z</time></trkpt><trkpt lat="42.965013" lon="11.7844564"><ele>372.5</ele><time>2026-04-25T14:34:22.103Z</time></trkpt><trkpt lat="42.9648003" lon="11.7845793"><ele>376.0</ele><time>2026-04-25T14:34:23.104Z</time></trkpt><trkpt lat="42.9645899" lon="11.7846978"><ele>376.0</ele><time>2026-04-25T14:34:24.104Z</time></trkpt><trkpt lat="42.9643827" lon="11.7848157"><ele>376.0</ele><time>2026-04-25T14:34:25.104Z</time></trkpt><trkpt lat="42.9641728" lon="11.7849292"><ele>376.5</ele><time>2026-04-25T14:34:26.103Z</time></trkpt><trkpt lat="42.9639617" lon="11.7850504"><ele>377.0</ele><time>2026-04-25T14:34:27.104Z</time></trkpt><trkpt lat="42.9637514" lon="11.7851771"><ele>379.5</ele><time>2026-04-25T14:34:28.104Z</time></trkpt><trkpt lat="42.9635418" lon="11.7852957"><ele>382.0</ele><time>2026-04-25T14:34:29.104Z</time></trkpt><trkpt lat="42.9633372" lon="11.7854194"><ele>382.0</ele><time>2026-04-25T14:34:30.103Z</time></trkpt><trkpt lat="42.9631327" lon="11.7855486"><ele>382.0</ele><time>2026-04-25T14:34:31.104Z</time></trkpt><trkpt lat="42.9629323" lon="11.7856848"><ele>382.0</ele><time>2026-04-25T14:34:32.104Z</time></trkpt><trkpt lat="42.962745" lon="11.7858402"><ele>382.0</ele><time>2026-04-25T14:34:33.104Z</time></trkpt><trkpt lat="42.9625586" lon="11.7859967"><ele>382.0</ele><time>2026-04-25T14:34:34.104Z</time></trkpt><trkpt lat="42.9623766" lon="11.7861494"><ele>382.0</ele><time>2026-04-25T14:34:35.104Z</time></trkpt><trkpt lat="42.9621912" lon="11.7862938"><ele>382.3333333333333</ele><time>2026-04-25T14:34:36.104Z</time></trkpt><trkpt lat="42.9619987" lon="11.7864052"><ele>382.6666666666667</ele><time>2026-04-25T14:34:37.104Z</time></trkpt><trkpt lat="42.9617962" lon="11.7864937"><ele>383.0</ele><time>2026-04-25T14:34:38.104Z</time></trkpt><trkpt lat="42.9615905" lon="11.7865671"><ele>381.33333333333337</ele><time>2026-04-25T14:34:39.104Z</time></trkpt><trkpt lat="42.9613752" lon="11.7866229"><ele>379.6666666666667</ele><time>2026-04-25T14:34:40.103Z</time></trkpt><trkpt lat="42.9611543" lon="11.7866552"><ele>378.0</ele><time>2026-04-25T14:34:41.104Z</time></trkpt><trkpt lat="42.9609358" lon="11.7866625"><ele>377.0</ele><time>2026-04-25T14:34:42.103Z</time></trkpt><trkpt lat="42.9607203" lon="11.7866586"><ele>376.0</ele><time>2026-04-25T14:34:43.104Z</time></trkpt><trkpt lat="42.9605069" lon="11.7866244"><ele>375.0</ele><time>2026-04-25T14:34:44.104Z</time></trkpt><trkpt lat="42.9602907" lon="11.7865685"><ele>375.0</ele><time>2026-04-25T14:34:45.104Z</time></trkpt><trkpt lat="42.960079" lon="11.7864861"><ele>375.0</ele><time>2026-04-25T14:34:46.103Z</time></trkpt><trkpt lat="42.9598744" lon="11.7863825"><ele>375.0</ele><time>2026-04-25T14:34:47.104Z</time></trkpt><trkpt lat="42.9596785" lon="11.7862545"><ele>374.3333333333333</ele><time>2026-04-25T14:34:48.104Z</time></trkpt><trkpt lat="42.9594796" lon="11.786127"><ele>373.66666666666663</ele><time>2026-04-25T14:34:49.104Z</time></trkpt><trkpt lat="42.9592842" lon="11.7860003"><ele>373.0</ele><time>2026-04-25T14:34:50.103Z</time></trkpt><trkpt lat="42.9590877" lon="11.7858805"><ele>373.0</ele><time>2026-04-25T14:34:51.104Z</time></trkpt><trkpt lat="42.9588893" lon="11.7857675"><ele>373.0</ele><time>2026-04-25T14:34:52.104Z</time></trkpt><trkpt lat="42.9586943" lon="11.7856604"><ele>373.0</ele><time>2026-04-25T14:34:53.104Z</time></trkpt><trkpt lat="42.9584928" lon="11.7855659"><ele>372.3333333333333</ele><time>2026-04-25T14:34:54.104Z</time></trkpt><trkpt lat="42.9582861" lon="11.7854964"><ele>371.6666666666667</ele><time>2026-04-25T14:34:55.103Z</time></trkpt><trkpt lat="42.9580763" lon="11.7854492"><ele>371.0</ele><time>2026-04-25T14:34:56.104Z</time></trkpt><trkpt lat="42.9578612" lon="11.785433"><ele>371.0</ele><time>2026-04-25T14:34:57.104Z</time></trkpt><trkpt lat="42.9576433" lon="11.7854299"><ele>371.0</ele><time>2026-04-25T14:34:58.104Z</time></trkpt><trkpt lat="42.9574279" lon="11.7854448"><ele>371.0</ele><time>2026-04-25T14:34:59.104Z</time></trkpt><trkpt lat="42.9572049" lon="11.785457"><ele>371.0</ele><time>2026-04-25T14:35:00.103Z</time></trkpt><trkpt lat="42.9569852" lon="11.785475"><ele>371.0</ele><time>2026-04-25T14:35:01.103Z</time></trkpt><trkpt lat="42.9567674" lon="11.7854936"><ele>371.0</ele><time>2026-04-25T14:35:02.104Z</time></trkpt><trkpt lat="42.9565494" lon="11.7855049"><ele>370.33333333333337</ele><time>2026-04-25T14:35:03.104Z</time></trkpt><trkpt lat="42.9563294" lon="11.7855159"><ele>369.6666666666667</ele><time>2026-04-25T14:35:04.104Z</time></trkpt><trkpt lat="42.9561076" lon="11.7855164"><ele>369.0</ele><time>2026-04-25T14:35:05.104Z</time></trkpt><trkpt lat="42.9558856" lon="11.7855081"><ele>366.5</ele><time>2026-04-25T14:35:06.104Z</time></trkpt><trkpt lat="42.9556637" lon="11.7854781"><ele>364.0</ele><time>2026-04-25T14:35:07.103Z</time></trkpt><trkpt lat="42.955437" lon="11.7854321"><ele>364.0</ele><time>2026-04-25T14:35:08.103Z</time></trkpt><trkpt lat="42.9552131" lon="11.7853698"><ele>364.0</ele><time>2026-04-25T14:35:09.104Z</time></trkpt><trkpt lat="42.9549896" lon="11.7852926"><ele>363.5</ele><time>2026-04-25T14:35:10.104Z</time></trkpt><trkpt lat="42.9547694" lon="11.7852056"><ele>363.0</ele><time>2026-04-25T14:35:11.104Z</time></trkpt><trkpt lat="42.9545517" lon="11.7851217"><ele>363.0</ele><time>2026-04-25T14:35:12.103Z</time></trkpt><trkpt lat="42.9543321" lon="11.7850331"><ele>363.0</ele><time>2026-04-25T14:35:13.104Z</time></trkpt><trkpt lat="42.9541114" lon="11.7849462"><ele>361.5</ele><time>2026-04-25T14:35:14.104Z</time></trkpt><trkpt lat="42.9538914" lon="11.78486"><ele>360.0</ele><time>2026-04-25T14:35:15.104Z</time></trkpt><trkpt lat="42.9536723" lon="11.7847722"><ele>360.0</ele><time>2026-04-25T14:35:16.104Z</time></trkpt><trkpt lat="42.9534536" lon="11.7846831"><ele>360.0</ele><time>2026-04-25T14:35:17.104Z</time></trkpt><trkpt lat="42.9532353" lon="11.784599"><ele>360.5</ele><time>2026-04-25T14:35:18.103Z</time></trkpt><trkpt lat="42.9530112" lon="11.7845131"><ele>361.0</ele><time>2026-04-25T14:35:19.104Z</time></trkpt><trkpt lat="42.9527932" lon="11.7844198"><ele>360.0</ele><time>2026-04-25T14:35:20.104Z</time></trkpt><trkpt lat="42.9525817" lon="11.7843362"><ele>359.0</ele><time>2026-04-25T14:35:21.104Z</time></trkpt><trkpt lat="42.9523742" lon="11.7842557"><ele>358.0</ele><time>2026-04-25T14:35:22.104Z</time></trkpt><trkpt lat="42.9521774" lon="11.7841753"><ele>357.66666666666663</ele><time>2026-04-25T14:35:23.104Z</time></trkpt><trkpt lat="42.9519893" lon="11.7841073"><ele>357.3333333333333</ele><time>2026-04-25T14:35:24.104Z</time></trkpt><trkpt lat="42.9518105" lon="11.7840298"><ele>357.0</ele><time>2026-04-25T14:35:25.104Z</time></trkpt><trkpt lat="42.9516401" lon="11.7839623"><ele>356.6666666666667</ele><time>2026-04-25T14:35:26.103Z</time></trkpt><trkpt lat="42.9514726" lon="11.7839097"><ele>356.33333333333337</ele><time>2026-04-25T14:35:27.104Z</time></trkpt><trkpt lat="42.9513018" lon="11.7838882"><ele>356.0</ele><time>2026-04-25T14:35:28.104Z</time></trkpt><trkpt lat="42.9511398" lon="11.7839168"><ele>356.0</ele><time>2026-04-25T14:35:29.104Z</time></trkpt><trkpt lat="42.9509772" lon="11.7840105"><ele>356.0</ele><time>2026-04-25T14:35:30.104Z</time></trkpt><trkpt lat="42.9508308" lon="11.7841277"><ele>356.0</ele><time>2026-04-25T14:35:31.104Z</time></trkpt><trkpt lat="42.9506969" lon="11.7842578"><ele>356.0</ele><time>2026-04-25T14:35:32.103Z</time></trkpt><trkpt lat="42.9505675" lon="11.7843726"><ele>356.0</ele><time>2026-04-25T14:35:33.104Z</time></trkpt><trkpt lat="42.9504423" lon="11.7844849"><ele>356.0</ele><time>2026-04-25T14:35:34.103Z</time></trkpt><trkpt lat="42.9502922" lon="11.7845291"><ele>356.0</ele><time>2026-04-25T14:35:35.104Z</time></trkpt><trkpt lat="42.9501294" lon="11.7845055"><ele>356.0</ele><time>2026-04-25T14:35:36.104Z</time></trkpt><trkpt lat="42.9499698" lon="11.7844295"><ele>356.0</ele><time>2026-04-25T14:35:37.104Z</time></trkpt><trkpt lat="42.9498027" lon="11.7843671"><ele>355.33333333333337</ele><time>2026-04-25T14:35:38.104Z</time></trkpt><trkpt lat="42.9496267" lon="11.7842962"><ele>354.6666666666667</ele><time>2026-04-25T14:35:39.104Z</time></trkpt><trkpt lat="42.949458" lon="11.7842258"><ele>354.0</ele><time>2026-04-25T14:35:40.104Z</time></trkpt><trkpt lat="42.9492982" lon="11.7841563"><ele>354.6666666666667</ele><time>2026-04-25T14:35:41.103Z</time></trkpt><trkpt lat="42.9491405" lon="11.7841273"><ele>355.33333333333337</ele><time>2026-04-25T14:35:42.104Z</time></trkpt><trkpt lat="42.948957" lon="11.7841692"><ele>356.0</ele><time>2026-04-25T14:35:43.104Z</time></trkpt><trkpt lat="42.9487767" lon="11.7842477"><ele>356.0</ele><time>2026-04-25T14:35:44.103Z</time></trkpt><trkpt lat="42.9485931" lon="11.7843437"><ele>356.0</ele><time>2026-04-25T14:35:45.104Z</time></trkpt><trkpt lat="42.9484121" lon="11.7844486"><ele>356.0</ele><time>2026-04-25T14:35:46.104Z</time></trkpt><trkpt lat="42.9482349" lon="11.7845649"><ele>357.33333333333337</ele><time>2026-04-25T14:35:47.104Z</time></trkpt><trkpt lat="42.948058" lon="11.7847086"><ele>358.6666666666667</ele><time>2026-04-25T14:35:48.104Z</time></trkpt><trkpt lat="42.9478767" lon="11.7848518"><ele>360.0</ele><time>2026-04-25T14:35:49.104Z</time></trkpt><trkpt lat="42.9476946" lon="11.7849965"><ele>359.0</ele><time>2026-04-25T14:35:50.103Z</time></trkpt><trkpt lat="42.9475102" lon="11.7851377"><ele>358.0</ele><time>2026-04-25T14:35:51.104Z</time></trkpt><trkpt lat="42.9473265" lon="11.7852833"><ele>357.0</ele><time>2026-04-25T14:35:52.104Z</time></trkpt><trkpt lat="42.9471433" lon="11.7854307"><ele>359.0</ele><time>2026-04-25T14:35:53.103Z</time></trkpt><trkpt lat="42.9469609" lon="11.7855784"><ele>361.0</ele><time>2026-04-25T14:35:54.103Z</time></trkpt><trkpt lat="42.9467701" lon="11.7857271"><ele>363.0</ele><time>2026-04-25T14:35:55.104Z</time></trkpt><trkpt lat="42.9465706" lon="11.7858453"><ele>363.0</ele><time>2026-04-25T14:35:56.104Z</time></trkpt><trkpt lat="42.9463618" lon="11.7859063"><ele>363.0</ele><time>2026-04-25T14:35:57.104Z</time></trkpt><trkpt lat="42.9461473" lon="11.7858982"><ele>363.0</ele><time>2026-04-25T14:35:58.104Z</time></trkpt><trkpt lat="42.9459279" lon="11.7858753"><ele>364.0</ele><time>2026-04-25T14:35:59.104Z</time></trkpt><trkpt lat="42.9457074" lon="11.7858469"><ele>365.0</ele><time>2026-04-25T14:36:00.104Z</time></trkpt><trkpt lat="42.9454872" lon="11.7858257"><ele>366.0</ele><time>2026-04-25T14:36:01.104Z</time></trkpt><trkpt lat="42.9452712" lon="11.7857794"><ele>366.0</ele><time>2026-04-25T14:36:02.104Z</time></trkpt><trkpt lat="42.9450749" lon="11.7856769"><ele>366.0</ele><time>2026-04-25T14:36:03.104Z</time></trkpt><trkpt lat="42.9449005" lon="11.7855524"><ele>366.0</ele><time>2026-04-25T14:36:04.104Z</time></trkpt><trkpt lat="42.9447171" lon="11.7854527"><ele>366.6666666666667</ele><time>2026-04-25T14:36:05.104Z</time></trkpt><trkpt lat="42.9445215" lon="11.7854133"><ele>367.33333333333337</ele><time>2026-04-25T14:36:06.104Z</time></trkpt><trkpt lat="42.944317" lon="11.7853968"><ele>368.0</ele><time>2026-04-25T14:36:07.104Z</time></trkpt><trkpt lat="42.944112" lon="11.7854081"><ele>368.0</ele><time>2026-04-25T14:36:08.104Z</time></trkpt><trkpt lat="42.9438977" lon="11.7854314"><ele>368.0</ele><time>2026-04-25T14:36:09.104Z</time></trkpt><trkpt lat="42.9436781" lon="11.7854504"><ele>368.0</ele><time>2026-04-25T14:36:10.103Z</time></trkpt><trkpt lat="42.9434535" lon="11.7854649"><ele>369.0</ele><time>2026-04-25T14:36:11.104Z</time></trkpt><trkpt lat="42.9432256" lon="11.7854802"><ele>370.0</ele><time>2026-04-25T14:36:12.104Z</time></trkpt><trkpt lat="42.942992" lon="11.7855026"><ele>370.0</ele><time>2026-04-25T14:36:13.104Z</time></trkpt><trkpt lat="42.9427605" lon="11.7855262"><ele>370.0</ele><time>2026-04-25T14:36:14.104Z</time></trkpt><trkpt lat="42.9425319" lon="11.7855536"><ele>370.0</ele><time>2026-04-25T14:36:15.104Z</time></trkpt><trkpt lat="42.9423201" lon="11.785577"><ele>370.0</ele><time>2026-04-25T14:36:16.104Z</time></trkpt><trkpt lat="42.9421239" lon="11.7855982"><ele>370.0</ele><time>2026-04-25T14:36:17.104Z</time></trkpt><trkpt lat="42.9419341" lon="11.7856016"><ele>370.0</ele><time>2026-04-25T14:36:18.103Z</time></trkpt><trkpt lat="42.9417594" lon="11.7855972"><ele>370.0</ele><time>2026-04-25T14:36:19.104Z</time></trkpt><trkpt lat="42.9415708" lon="11.7855414"><ele>370.0</ele><time>2026-04-25T14:36:20.104Z</time></trkpt><trkpt lat="42.9413859" lon="11.7854309"><ele>371.0</ele><time>2026-04-25T14:36:21.104Z</time></trkpt><trkpt lat="42.9412317" lon="11.7852813"><ele>372.0</ele><time>2026-04-25T14:36:22.104Z</time></trkpt><trkpt lat="42.9410936" lon="11.7851144"><ele>373.0</ele><time>2026-04-25T14:36:23.104Z</time></trkpt><trkpt lat="42.940954" lon="11.7849588"><ele>375.3333333333333</ele><time>2026-04-25T14:36:24.104Z</time></trkpt><trkpt lat="42.9408232" lon="11.7848203"><ele>377.6666666666667</ele><time>2026-04-25T14:36:25.104Z</time></trkpt><trkpt lat="42.9406838" lon="11.7846975"><ele>380.0</ele><time>2026-04-25T14:36:26.103Z</time></trkpt><trkpt lat="42.9405425" lon="11.7846049"><ele>380.0</ele><time>2026-04-25T14:36:27.104Z</time></trkpt><trkpt lat="42.9403793" lon="11.7845502"><ele>380.0</ele><time>2026-04-25T14:36:28.104Z</time></trkpt><trkpt lat="42.9402053" lon="11.7845079"><ele>380.0</ele><time>2026-04-25T14:36:29.104Z</time></trkpt><trkpt lat="42.9400337" lon="11.7845033"><ele>382.6666666666667</ele><time>2026-04-25T14:36:30.104Z</time></trkpt><trkpt lat="42.9398545" lon="11.7845154"><ele>385.33333333333337</ele><time>2026-04-25T14:36:31.104Z</time></trkpt><trkpt lat="42.9396773" lon="11.7845587"><ele>388.0</ele><time>2026-04-25T14:36:32.103Z</time></trkpt><trkpt lat="42.9394907" lon="11.7846306"><ele>388.0</ele><time>2026-04-25T14:36:33.104Z</time></trkpt><trkpt lat="42.9393001" lon="11.784693"><ele>388.0</ele><time>2026-04-25T14:36:34.104Z</time></trkpt><trkpt lat="42.9391029" lon="11.7847583"><ele>388.0</ele><time>2026-04-25T14:36:35.103Z</time></trkpt><trkpt lat="42.9389027" lon="11.7848186"><ele>385.33333333333337</ele><time>2026-04-25T14:36:36.104Z</time></trkpt><trkpt lat="42.9387018" lon="11.7848792"><ele>382.6666666666667</ele><time>2026-04-25T14:36:37.103Z</time></trkpt><trkpt lat="42.9385052" lon="11.7849426"><ele>380.0</ele><time>2026-04-25T14:36:38.103Z</time></trkpt><trkpt lat="42.9383108" lon="11.7850013"><ele>379.6666666666667</ele><time>2026-04-25T14:36:39.104Z</time></trkpt><trkpt lat="42.9381208" lon="11.7850588"><ele>379.3333333333333</ele><time>2026-04-25T14:36:40.104Z</time></trkpt><trkpt lat="42.9379379" lon="11.7851153"><ele>379.0</ele><time>2026-04-25T14:36:41.104Z</time></trkpt><trkpt lat="42.9377661" lon="11.7851834"><ele>381.66666666666663</ele><time>2026-04-25T14:36:42.104Z</time></trkpt><trkpt lat="42.9376065" lon="11.7852926"><ele>384.3333333333333</ele><time>2026-04-25T14:36:43.103Z</time></trkpt><trkpt lat="42.9374697" lon="11.7854424"><ele>387.0</ele><time>2026-04-25T14:36:44.104Z</time></trkpt><trkpt lat="42.9373302" lon="11.7855874"><ele>387.0</ele><time>2026-04-25T14:36:45.104Z</time></trkpt><trkpt lat="42.9371945" lon="11.7857203"><ele>387.0</ele><time>2026-04-25T14:36:46.104Z</time></trkpt><trkpt lat="42.9370471" lon="11.7858099"><ele>387.0</ele><time>2026-04-25T14:36:47.104Z</time></trkpt><trkpt lat="42.936887" lon="11.7858643"><ele>385.3333333333333</ele><time>2026-04-25T14:36:48.104Z</time></trkpt><trkpt lat="42.9367188" lon="11.7858777"><ele>383.66666666666663</ele><time>2026-04-25T14:36:49.104Z</time></trkpt><trkpt lat="42.9365559" lon="11.7858593"><ele>382.0</ele><time>2026-04-25T14:36:50.104Z</time></trkpt><trkpt lat="42.9363828" lon="11.7858328"><ele>382.0</ele><time>2026-04-25T14:36:51.103Z</time></trkpt><trkpt lat="42.9362056" lon="11.7858081"><ele>382.0</ele><time>2026-04-25T14:36:52.104Z</time></trkpt><trkpt lat="42.936027" lon="11.7857867"><ele>382.0</ele><time>2026-04-25T14:36:53.104Z</time></trkpt><trkpt lat="42.935859" lon="11.7857669"><ele>383.0</ele><time>2026-04-25T14:36:54.104Z</time></trkpt><trkpt lat="42.9356999" lon="11.7857575"><ele>384.0</ele><time>2026-04-25T14:36:55.103Z</time></trkpt><trkpt lat="42.9355454" lon="11.7857584"><ele>385.0</ele><time>2026-04-25T14:36:56.104Z</time></trkpt><trkpt lat="42.9354056" lon="11.7858126"><ele>385.0</ele><time>2026-04-25T14:36:57.104Z</time></trkpt><trkpt lat="42.9352853" lon="11.7859116"><ele>385.0</ele><time>2026-04-25T14:36:58.104Z</time></trkpt><trkpt lat="42.935187" lon="11.7860686"><ele>385.0</ele><time>2026-04-25T14:36:59.104Z</time></trkpt><trkpt lat="42.9351172" lon="11.7862946"><ele>385.33333333333337</ele><time>2026-04-25T14:37:00.104Z</time></trkpt><trkpt lat="42.9350655" lon="11.786528"><ele>385.66666666666663</ele><time>2026-04-25T14:37:01.103Z</time></trkpt><trkpt lat="42.9350265" lon="11.7867712"><ele>386.0</ele><time>2026-04-25T14:37:02.103Z</time></trkpt><trkpt lat="42.9349891" lon="11.7870128"><ele>386.0</ele><time>2026-04-25T14:37:03.104Z</time></trkpt><trkpt lat="42.9349638" lon="11.7872652"><ele>386.0</ele><time>2026-04-25T14:37:04.104Z</time></trkpt><trkpt lat="42.9349512" lon="11.7875191"><ele>386.0</ele><time>2026-04-25T14:37:05.103Z</time></trkpt><trkpt lat="42.9349491" lon="11.787784"><ele>386.66666666666663</ele><time>2026-04-25T14:37:06.104Z</time></trkpt><trkpt lat="42.9349542" lon="11.7880466"><ele>387.33333333333337</ele><time>2026-04-25T14:37:07.103Z</time></trkpt><trkpt lat="42.9349646" lon="11.7883115"><ele>388.0</ele><time>2026-04-25T14:37:08.104Z</time></trkpt><trkpt lat="42.9349757" lon="11.7885835"><ele>388.0</ele><time>2026-04-25T14:37:09.104Z</time></trkpt><trkpt lat="42.9349779" lon="11.7888533"><ele>388.0</ele><time>2026-04-25T14:37:10.104Z</time></trkpt><trkpt lat="42.9349863" lon="11.7891235"><ele>388.0</ele><time>2026-04-25T14:37:11.104Z</time></trkpt><trkpt lat="42.934995" lon="11.7894038"><ele>388.0</ele><time>2026-04-25T14:37:12.104Z</time></trkpt><trkpt lat="42.9350071" lon="11.7896855"><ele>388.0</ele><time>2026-04-25T14:37:13.104Z</time></trkpt><trkpt lat="42.9350207" lon="11.7899584"><ele>388.0</ele><time>2026-04-25T14:37:14.104Z</time></trkpt><trkpt lat="42.9350276" lon="11.7902272"><ele>389.33333333333337</ele><time>2026-04-25T14:37:15.104Z</time></trkpt><trkpt lat="42.9350356" lon="11.7904949"><ele>390.66666666666663</ele><time>2026-04-25T14:37:16.103Z</time></trkpt><trkpt lat="42.9350417" lon="11.7907397"><ele>392.0</ele><time>2026-04-25T14:37:17.104Z</time></trkpt><trkpt lat="42.9350234" lon="11.7909643"><ele>395.0</ele><time>2026-04-25T14:37:18.104Z</time></trkpt><trkpt lat="42.9349592" lon="11.7911679"><ele>398.0</ele><time>2026-04-25T14:37:19.103Z</time></trkpt><trkpt lat="42.9348541" lon="11.7913474"><ele>401.0</ele><time>2026-04-25T14:37:20.104Z</time></trkpt><trkpt lat="42.9347271" lon="11.7915125"><ele>401.0</ele><time>2026-04-25T14:37:21.104Z</time></trkpt><trkpt lat="42.934581" lon="11.7916671"><ele>401.0</ele><time>2026-04-25T14:37:22.104Z</time></trkpt><trkpt lat="42.9344459" lon="11.7918506"><ele>401.0</ele><time>2026-04-25T14:37:23.103Z</time></trkpt><trkpt lat="42.9342998" lon="11.7920373"><ele>400.0</ele><time>2026-04-25T14:37:24.104Z</time></trkpt><trkpt lat="42.9341551" lon="11.792229"><ele>399.0</ele><time>2026-04-25T14:37:25.104Z</time></trkpt><trkpt lat="42.9340024" lon="11.7924298"><ele>398.0</ele><time>2026-04-25T14:37:26.103Z</time></trkpt><trkpt lat="42.9338491" lon="11.7926251"><ele>397.0</ele><time>2026-04-25T14:37:27.104Z</time></trkpt><trkpt lat="42.9336962" lon="11.7928246"><ele>396.0</ele><time>2026-04-25T14:37:28.104Z</time></trkpt><trkpt lat="42.9335406" lon="11.7930343"><ele>395.0</ele><time>2026-04-25T14:37:29.104Z</time></trkpt><trkpt lat="42.933381" lon="11.7932358"><ele>395.0</ele><time>2026-04-25T14:37:30.103Z</time></trkpt><trkpt lat="42.9332222" lon="11.7934476"><ele>395.0</ele><time>2026-04-25T14:37:31.104Z</time></trkpt><trkpt lat="42.933058" lon="11.79366"><ele>395.0</ele><time>2026-04-25T14:37:32.103Z</time></trkpt><trkpt lat="42.9328936" lon="11.7938698"><ele>397.0</ele><time>2026-04-25T14:37:33.104Z</time></trkpt><trkpt lat="42.9327214" lon="11.7940852"><ele>399.0</ele><time>2026-04-25T14:37:34.104Z</time></trkpt><trkpt lat="42.9325514" lon="11.7942995"><ele>398.0</ele><time>2026-04-25T14:37:35.104Z</time></trkpt><trkpt lat="42.9323925" lon="11.7945059"><ele>397.0</ele><time>2026-04-25T14:37:36.104Z</time></trkpt><trkpt lat="42.9322377" lon="11.7947104"><ele>396.0</ele><time>2026-04-25T14:37:37.103Z</time></trkpt><trkpt lat="42.932084" lon="11.7949085"><ele>396.0</ele><time>2026-04-25T14:37:38.104Z</time></trkpt><trkpt lat="42.9319241" lon="11.7950897"><ele>396.0</ele><time>2026-04-25T14:37:39.104Z</time></trkpt><trkpt lat="42.9317424" lon="11.7952303"><ele>396.0</ele><time>2026-04-25T14:37:40.104Z</time></trkpt><trkpt lat="42.9315563" lon="11.7953341"><ele>396.0</ele><time>2026-04-25T14:37:41.103Z</time></trkpt><trkpt lat="42.9313557" lon="11.7954132"><ele>396.0</ele><time>2026-04-25T14:37:42.103Z</time></trkpt><trkpt lat="42.9311508" lon="11.795469"><ele>396.0</ele><time>2026-04-25T14:37:43.104Z</time></trkpt><trkpt lat="42.9309421" lon="11.7954959"><ele>395.66666666666663</ele><time>2026-04-25T14:37:44.104Z</time></trkpt><trkpt lat="42.9307274" lon="11.7954725"><ele>395.3333333333333</ele><time>2026-04-25T14:37:45.104Z</time></trkpt><trkpt lat="42.9305195" lon="11.7954153"><ele>395.0</ele><time>2026-04-25T14:37:46.104Z</time></trkpt><trkpt lat="42.9303079" lon="11.7953324"><ele>395.0</ele><time>2026-04-25T14:37:47.104Z</time></trkpt><trkpt lat="42.93011" lon="11.7952407"><ele>395.0</ele><time>2026-04-25T14:37:48.103Z</time></trkpt><trkpt lat="42.929914" lon="11.7951413"><ele>395.0</ele><time>2026-04-25T14:37:49.103Z</time></trkpt><trkpt lat="42.9297208" lon="11.7950479"><ele>395.66666666666663</ele><time>2026-04-25T14:37:50.104Z</time></trkpt><trkpt lat="42.9295345" lon="11.7949673"><ele>396.33333333333337</ele><time>2026-04-25T14:37:51.103Z</time></trkpt><trkpt lat="42.9293596" lon="11.7948881"><ele>397.0</ele><time>2026-04-25T14:37:52.104Z</time></trkpt><trkpt lat="42.9292019" lon="11.7947993"><ele>397.0</ele><time>2026-04-25T14:37:53.104Z</time></trkpt><trkpt lat="42.9290371" lon="11.794751"><ele>397.0</ele><time>2026-04-25T14:37:54.104Z</time></trkpt><trkpt lat="42.9288732" lon="11.7947561"><ele>397.0</ele><time>2026-04-25T14:37:55.103Z</time></trkpt><trkpt lat="42.9287205" lon="11.7948368"><ele>397.0</ele><time>2026-04-25T14:37:56.104Z</time></trkpt><trkpt lat="42.9285703" lon="11.7949521"><ele>397.0</ele><time>2026-04-25T14:37:57.104Z</time></trkpt><trkpt lat="42.9284338" lon="11.7950904"><ele>397.0</ele><time>2026-04-25T14:37:58.104Z</time></trkpt><trkpt lat="42.9283043" lon="11.7952717"><ele>398.0</ele><time>2026-04-25T14:37:59.104Z</time></trkpt><trkpt lat="42.9281942" lon="11.795477"><ele>399.0</ele><time>2026-04-25T14:38:00.104Z</time></trkpt><trkpt lat="42.9280846" lon="11.795675"><ele>400.0</ele><time>2026-04-25T14:38:01.104Z</time></trkpt><trkpt lat="42.9279647" lon="11.7958506"><ele>400.0</ele><time>2026-04-25T14:38:02.104Z</time></trkpt><trkpt lat="42.9278179" lon="11.7960033"><ele>400.0</ele><time>2026-04-25T14:38:03.104Z</time></trkpt><trkpt lat="42.9276473" lon="11.7961201"><ele>400.0</ele><time>2026-04-25T14:38:04.103Z</time></trkpt><trkpt lat="42.9274701" lon="11.7962059"><ele>402.0</ele><time>2026-04-25T14:38:05.104Z</time></trkpt><trkpt lat="42.9272912" lon="11.7962815"><ele>404.0</ele><time>2026-04-25T14:38:06.103Z</time></trkpt><trkpt lat="42.9271093" lon="11.7963649"><ele>406.0</ele><time>2026-04-25T14:38:07.104Z</time></trkpt><trkpt lat="42.9269347" lon="11.7964755"><ele>406.0</ele><time>2026-04-25T14:38:08.104Z</time></trkpt><trkpt lat="42.9267832" lon="11.7966168"><ele>406.0</ele><time>2026-04-25T14:38:09.104Z</time></trkpt><trkpt lat="42.9266379" lon="11.7967704"><ele>406.0</ele><time>2026-04-25T14:38:10.103Z</time></trkpt><trkpt lat="42.9264856" lon="11.7968923"><ele>405.33333333333337</ele><time>2026-04-25T14:38:11.104Z</time></trkpt><trkpt lat="42.9263357" lon="11.7969481"><ele>404.66666666666663</ele><time>2026-04-25T14:38:12.104Z</time></trkpt><trkpt lat="42.9261581" lon="11.7969095"><ele>404.0</ele><time>2026-04-25T14:38:13.104Z</time></trkpt><trkpt lat="42.9259842" lon="11.796837"><ele>407.3333333333333</ele><time>2026-04-25T14:38:14.104Z</time></trkpt><trkpt lat="42.9258003" lon="11.7967762"><ele>410.66666666666663</ele><time>2026-04-25T14:38:15.104Z</time></trkpt><trkpt lat="42.9256082" lon="11.796706"><ele>414.0</ele><time>2026-04-25T14:38:16.104Z</time></trkpt><trkpt lat="42.9254057" lon="11.7966492"><ele>414.0</ele><time>2026-04-25T14:38:17.103Z</time></trkpt><trkpt lat="42.9252001" lon="11.7965894"><ele>414.0</ele><time>2026-04-25T14:38:18.104Z</time></trkpt><trkpt lat="42.9249855" lon="11.7965263"><ele>414.0</ele><time>2026-04-25T14:38:19.104Z</time></trkpt><trkpt lat="42.92477" lon="11.7964548"><ele>413.66666666666663</ele><time>2026-04-25T14:38:20.104Z</time></trkpt><trkpt lat="42.9245513" lon="11.7963879"><ele>413.3333333333333</ele><time>2026-04-25T14:38:21.104Z</time></trkpt><trkpt lat="42.9243315" lon="11.7963199"><ele>413.0</ele><time>2026-04-25T14:38:22.104Z</time></trkpt><trkpt lat="42.9241048" lon="11.7962532"><ele>413.0</ele><time>2026-04-25T14:38:23.103Z</time></trkpt><trkpt lat="42.9238814" lon="11.7961833"><ele>413.0</ele><time>2026-04-25T14:38:24.104Z</time></trkpt><trkpt lat="42.9236599" lon="11.7961151"><ele>413.0</ele><time>2026-04-25T14:38:25.104Z</time></trkpt><trkpt lat="42.92344" lon="11.7960562"><ele>413.0</ele><time>2026-04-25T14:38:26.104Z</time></trkpt><trkpt lat="42.9232162" lon="11.7960263"><ele>413.0</ele><time>2026-04-25T14:38:27.103Z</time></trkpt><trkpt lat="42.9229997" lon="11.7960274"><ele>413.3333333333333</ele><time>2026-04-25T14:38:28.103Z</time></trkpt><trkpt lat="42.922789" lon="11.7960936"><ele>413.66666666666663</ele><time>2026-04-25T14:38:29.104Z</time></trkpt><trkpt lat="42.9225826" lon="11.7961814"><ele>414.0</ele><time>2026-04-25T14:38:30.104Z</time></trkpt><trkpt lat="42.9223747" lon="11.7962857"><ele>417.0</ele><time>2026-04-25T14:38:31.104Z</time></trkpt><trkpt lat="42.9221699" lon="11.7963915"><ele>420.0</ele><time>2026-04-25T14:38:32.104Z</time></trkpt><trkpt lat="42.921961" lon="11.7964931"><ele>423.0</ele><time>2026-04-25T14:38:33.104Z</time></trkpt><trkpt lat="42.9217579" lon="11.7966099"><ele>424.33333333333337</ele><time>2026-04-25T14:38:34.104Z</time></trkpt><trkpt lat="42.9215557" lon="11.7967272"><ele>425.6666666666667</ele><time>2026-04-25T14:38:35.104Z</time></trkpt><trkpt lat="42.921361" lon="11.7968523"><ele>427.0</ele><time>2026-04-25T14:38:36.103Z</time></trkpt><trkpt lat="42.9211847" lon="11.7969958"><ele>427.0</ele><time>2026-04-25T14:38:37.104Z</time></trkpt><trkpt lat="42.9210104" lon="11.7971415"><ele>427.0</ele><time>2026-04-25T14:38:38.103Z</time></trkpt><trkpt lat="42.9208292" lon="11.7972623"><ele>427.0</ele><time>2026-04-25T14:38:39.104Z</time></trkpt><trkpt lat="42.9206299" lon="11.797354"><ele>429.6666666666667</ele><time>2026-04-25T14:38:40.104Z</time></trkpt><trkpt lat="42.9204176" lon="11.7974249"><ele>432.33333333333337</ele><time>2026-04-25T14:38:41.104Z</time></trkpt><trkpt lat="42.9202073" lon="11.7974967"><ele>435.0</ele><time>2026-04-25T14:38:42.103Z</time></trkpt><trkpt lat="42.9199988" lon="11.7975714"><ele>434.66666666666663</ele><time>2026-04-25T14:38:43.104Z</time></trkpt><trkpt lat="42.9197853" lon="11.7976303"><ele>434.3333333333333</ele><time>2026-04-25T14:38:44.104Z</time></trkpt><trkpt lat="42.9195651" lon="11.7976701"><ele>434.0</ele><time>2026-04-25T14:38:45.104Z</time></trkpt><trkpt lat="42.9193447" lon="11.7976824"><ele>437.66666666666663</ele><time>2026-04-25T14:38:46.104Z</time></trkpt><trkpt lat="42.9191238" lon="11.7976641"><ele>441.33333333333337</ele><time>2026-04-25T14:38:47.104Z</time></trkpt><trkpt lat="42.9189064" lon="11.7976231"><ele>445.0</ele><time>2026-04-25T14:38:48.104Z</time></trkpt><trkpt lat="42.918687" lon="11.797556"><ele>445.0</ele><time>2026-04-25T14:38:49.103Z</time></trkpt><trkpt lat="42.9184738" lon="11.7974813"><ele>445.0</ele><time>2026-04-25T14:38:50.104Z</time></trkpt><trkpt lat="42.9182621" lon="11.797425"><ele>445.0</ele><time>2026-04-25T14:38:51.104Z</time></trkpt><trkpt lat="42.9180407" lon="11.7973875"><ele>445.0</ele><time>2026-04-25T14:38:52.103Z</time></trkpt><trkpt lat="42.9178174" lon="11.79738"><ele>445.0</ele><time>2026-04-25T14:38:53.103Z</time></trkpt><trkpt lat="42.9175898" lon="11.7973923"><ele>444.5</ele><time>2026-04-25T14:38:54.104Z</time></trkpt><trkpt lat="42.9173597" lon="11.7974138"><ele>444.0</ele><time>2026-04-25T14:38:55.104Z</time></trkpt><trkpt lat="42.9171297" lon="11.7974347"><ele>444.0</ele><time>2026-04-25T14:38:56.103Z</time></trkpt><trkpt lat="42.9168963" lon="11.7974615"><ele>444.0</ele><time>2026-04-25T14:38:57.104Z</time></trkpt><trkpt lat="42.9166713" lon="11.7974888"><ele>447.0</ele><time>2026-04-25T14:38:58.104Z</time></trkpt><trkpt lat="42.9164576" lon="11.7975094"><ele>450.0</ele><time>2026-04-25T14:38:59.104Z</time></trkpt><trkpt lat="42.9162574" lon="11.7975275"><ele>453.0</ele><time>2026-04-25T14:39:00.103Z</time></trkpt><trkpt lat="42.9160686" lon="11.79758"><ele>453.66666666666663</ele><time>2026-04-25T14:39:01.104Z</time></trkpt><trkpt lat="42.9158744" lon="11.7976693"><ele>454.3333333333333</ele><time>2026-04-25T14:39:02.103Z</time></trkpt><trkpt lat="42.915684" lon="11.7977592"><ele>455.0</ele><time>2026-04-25T14:39:03.104Z</time></trkpt><trkpt lat="42.915503" lon="11.7978395"><ele>455.0</ele><time>2026-04-25T14:39:04.104Z</time></trkpt><trkpt lat="42.9153229" lon="11.7979321"><ele>455.0</ele><time>2026-04-25T14:39:05.104Z</time></trkpt><trkpt lat="42.9151612" lon="11.7979912"><ele>455.0</ele><time>2026-04-25T14:39:06.104Z</time></trkpt><trkpt lat="42.9149992" lon="11.798"><ele>457.66666666666663</ele><time>2026-04-25T14:39:07.104Z</time></trkpt><trkpt lat="42.914835" lon="11.7979536"><ele>460.33333333333337</ele><time>2026-04-25T14:39:08.103Z</time></trkpt><trkpt lat="42.9146612" lon="11.7978759"><ele>463.0</ele><time>2026-04-25T14:39:09.103Z</time></trkpt><trkpt lat="42.9145004" lon="11.7977824"><ele>467.33333333333337</ele><time>2026-04-25T14:39:10.104Z</time></trkpt><trkpt lat="42.9143372" lon="11.7976627"><ele>471.66666666666663</ele><time>2026-04-25T14:39:11.103Z</time></trkpt><trkpt lat="42.9141825" lon="11.7975433"><ele>476.0</ele><time>2026-04-25T14:39:12.104Z</time></trkpt><trkpt lat="42.9140296" lon="11.7974297"><ele>476.0</ele><time>2026-04-25T14:39:13.103Z</time></trkpt><trkpt lat="42.9138687" lon="11.7973333"><ele>476.0</ele><time>2026-04-25T14:39:14.104Z</time></trkpt><trkpt lat="42.9137071" lon="11.7972623"><ele>476.0</ele><time>2026-04-25T14:39:15.103Z</time></trkpt><trkpt lat="42.9135339" lon="11.7972297"><ele>476.0</ele><time>2026-04-25T14:39:16.104Z</time></trkpt><trkpt lat="42.9133636" lon="11.7972539"><ele>476.0</ele><time>2026-04-25T14:39:17.103Z</time></trkpt><trkpt lat="42.9131942" lon="11.7973201"><ele>476.0</ele><time>2026-04-25T14:39:18.103Z</time></trkpt><trkpt lat="42.9130328" lon="11.7973965"><ele>476.0</ele><time>2026-04-25T14:39:19.104Z</time></trkpt><trkpt lat="42.9128701" lon="11.7974506"><ele>476.0</ele><time>2026-04-25T14:39:20.104Z</time></trkpt><trkpt lat="42.9127188" lon="11.7974465"><ele>476.0</ele><time>2026-04-25T14:39:21.103Z</time></trkpt><trkpt lat="42.9125617" lon="11.7973847"><ele>476.0</ele><time>2026-04-25T14:39:22.104Z</time></trkpt><trkpt lat="42.9124161" lon="11.7972728"><ele>476.0</ele><time>2026-04-25T14:39:23.104Z</time></trkpt><trkpt lat="42.9122884" lon="11.7971455"><ele>476.0</ele><time>2026-04-25T14:39:24.104Z</time></trkpt><trkpt lat="42.9121591" lon="11.7970255"><ele>476.0</ele><time>2026-04-25T14:39:25.104Z</time></trkpt><trkpt lat="42.912037" lon="11.7969246"><ele>476.0</ele><time>2026-04-25T14:39:26.104Z</time></trkpt><trkpt lat="42.9119095" lon="11.796878"><ele>476.0</ele><time>2026-04-25T14:39:27.103Z</time></trkpt><trkpt lat="42.9117837" lon="11.7968946"><ele>476.0</ele><time>2026-04-25T14:39:28.104Z</time></trkpt><trkpt lat="42.9116877" lon="11.7969442"><ele>477.16666666666663</ele><time>2026-04-25T14:39:29.104Z</time></trkpt><trkpt lat="42.9116329" lon="11.7970141"><ele>478.3333333333333</ele><time>2026-04-25T14:39:30.104Z</time></trkpt><trkpt lat="42.9115849" lon="11.7970832"><ele>479.5</ele><time>2026-04-25T14:39:31.103Z</time></trkpt><trkpt lat="42.9115355" lon="11.7971696"><ele>480.66666666666663</ele><time>2026-04-25T14:39:32.103Z</time></trkpt><trkpt lat="42.9114838" lon="11.7972647"><ele>481.8333333333333</ele><time>2026-04-25T14:39:33.104Z</time></trkpt><trkpt lat="42.9114203" lon="11.7973515"><ele>483.0</ele><time>2026-04-25T14:39:34.103Z</time></trkpt><trkpt lat="42.9113418" lon="11.7974229"><ele>483.0</ele><time>2026-04-25T14:39:35.104Z</time></trkpt><trkpt lat="42.9112617" lon="11.7974528"><ele>482.99999999999994</ele><time>2026-04-25T14:39:36.104Z</time></trkpt><trkpt lat="42.9111711" lon="11.7974549"><ele>482.99999999999994</ele><time>2026-04-25T14:39:37.104Z</time></trkpt><trkpt lat="42.9110824" lon="11.7974208"><ele>483.0</ele><time>2026-04-25T14:39:38.104Z</time></trkpt><trkpt lat="42.9110005" lon="11.7973312"><ele>483.0</ele><time>2026-04-25T14:39:39.104Z</time></trkpt><trkpt lat="42.9109332" lon="11.7972157"><ele>484.5</ele><time>2026-04-25T14:39:40.104Z</time></trkpt><trkpt lat="42.9108709" lon="11.7970951"><ele>486.0</ele><time>2026-04-25T14:39:41.104Z</time></trkpt><trkpt lat="42.9108057" lon="11.7969699"><ele>487.5</ele><time>2026-04-25T14:39:42.104Z</time></trkpt><trkpt lat="42.9107236" lon="11.7968385"><ele>489.0</ele><time>2026-04-25T14:39:43.104Z</time></trkpt><trkpt lat="42.910644" lon="11.7967205"><ele>489.0</ele><time>2026-04-25T14:39:44.104Z</time></trkpt><trkpt lat="42.9105515" lon="11.7966081"><ele>489.0</ele><time>2026-04-25T14:39:45.104Z</time></trkpt><trkpt lat="42.9104508" lon="11.7965017"><ele>489.0</ele><time>2026-04-25T14:39:46.104Z</time></trkpt><trkpt lat="42.9103431" lon="11.796397"><ele>489.0</ele><time>2026-04-25T14:39:47.104Z</time></trkpt><trkpt lat="42.9102336" lon="11.7962975"><ele>489.0</ele><time>2026-04-25T14:39:48.104Z</time></trkpt><trkpt lat="42.9101274" lon="11.7961923"><ele>489.0</ele><time>2026-04-25T14:39:49.104Z</time></trkpt><trkpt lat="42.9100234" lon="11.7960819"><ele>489.0</ele><time>2026-04-25T14:39:50.104Z</time></trkpt><trkpt lat="42.9099234" lon="11.7959548"><ele>489.0</ele><time>2026-04-25T14:39:51.103Z</time></trkpt><trkpt lat="42.9098309" lon="11.795814"><ele>490.5</ele><time>2026-04-25T14:39:52.104Z</time></trkpt><trkpt lat="42.9097396" lon="11.7956601"><ele>492.0</ele><time>2026-04-25T14:39:53.104Z</time></trkpt><trkpt lat="42.9096567" lon="11.7954981"><ele>493.5</ele><time>2026-04-25T14:39:54.104Z</time></trkpt><trkpt lat="42.9095742" lon="11.7953435"><ele>495.0</ele><time>2026-04-25T14:39:55.104Z</time></trkpt><trkpt lat="42.909493" lon="11.7951838"><ele>493.75</ele><time>2026-04-25T14:39:56.104Z</time></trkpt><trkpt lat="42.9094048" lon="11.7950491"><ele>492.5</ele><time>2026-04-25T14:39:57.104Z</time></trkpt><trkpt lat="42.9093058" lon="11.7949765"><ele>491.25</ele><time>2026-04-25T14:39:58.104Z</time></trkpt><trkpt lat="42.9092085" lon="11.794985"><ele>490.0</ele><time>2026-04-25T14:39:59.104Z</time></trkpt><trkpt lat="42.9091093" lon="11.7950445"><ele>493.75</ele><time>2026-04-25T14:40:00.104Z</time></trkpt><trkpt lat="42.9090299" lon="11.795149"><ele>497.5</ele><time>2026-04-25T14:40:01.104Z</time></trkpt><trkpt lat="42.9089836" lon="11.7952965"><ele>501.25</ele><time>2026-04-25T14:40:02.104Z</time></trkpt><trkpt lat="42.9089772" lon="11.7954593"><ele>505.0</ele><time>2026-04-25T14:40:03.104Z</time></trkpt><trkpt lat="42.9090219" lon="11.7956013"><ele>506.5</ele><time>2026-04-25T14:40:04.104Z</time></trkpt><trkpt lat="42.9090778" lon="11.7957414"><ele>508.0</ele><time>2026-04-25T14:40:05.104Z</time></trkpt><trkpt lat="42.9091537" lon="11.7958774"><ele>509.5</ele><time>2026-04-25T14:40:06.103Z</time></trkpt><trkpt lat="42.9092319" lon="11.7960185"><ele>511.0</ele><time>2026-04-25T14:40:07.103Z</time></trkpt><trkpt lat="42.909312" lon="11.7961775"><ele>511.0</ele><time>2026-04-25T14:40:08.104Z</time></trkpt><trkpt lat="42.9093806" lon="11.7963423"><ele>511.0</ele><time>2026-04-25T14:40:09.103Z</time></trkpt><trkpt lat="42.9094415" lon="11.7965179"><ele>511.0</ele><time>2026-04-25T14:40:10.104Z</time></trkpt><trkpt lat="42.9094855" lon="11.7967064"><ele>511.0</ele><time>2026-04-25T14:40:11.104Z</time></trkpt><trkpt lat="42.9095209" lon="11.7968921"><ele>514.0</ele><time>2026-04-25T14:40:12.104Z</time></trkpt><trkpt lat="42.909569" lon="11.7970707"><ele>517.0</ele><time>2026-04-25T14:40:13.104Z</time></trkpt><trkpt lat="42.9096191" lon="11.7972454"><ele>520.0</ele><time>2026-04-25T14:40:14.104Z</time></trkpt><trkpt lat="42.9096886" lon="11.7974"><ele>523.0</ele><time>2026-04-25T14:40:15.104Z</time></trkpt><trkpt lat="42.9097864" lon="11.7975363"><ele>523.0</ele><time>2026-04-25T14:40:16.104Z</time></trkpt><trkpt lat="42.9098793" lon="11.7976602"><ele>523.0</ele><time>2026-04-25T14:40:17.103Z</time></trkpt><trkpt lat="42.9099612" lon="11.7977919"><ele>523.0</ele><time>2026-04-25T14:40:18.104Z</time></trkpt><trkpt lat="42.9100151" lon="11.7979708"><ele>523.0</ele><time>2026-04-25T14:40:19.103Z</time></trkpt><trkpt lat="42.9100328" lon="11.7981486"><ele>524.0</ele><time>2026-04-25T14:40:20.104Z</time></trkpt><trkpt lat="42.9100379" lon="11.7983363"><ele>525.0</ele><time>2026-04-25T14:40:21.104Z</time></trkpt><trkpt lat="42.9100732" lon="11.7985162"><ele>526.0</ele><time>2026-04-25T14:40:22.104Z</time></trkpt><trkpt lat="42.9101395" lon="11.7986878"><ele>527.0</ele><time>2026-04-25T14:40:23.104Z</time></trkpt><trkpt lat="42.9102246" lon="11.7988365"><ele>527.0</ele><time>2026-04-25T14:40:24.104Z</time></trkpt><trkpt lat="42.9103311" lon="11.7989667"><ele>527.0</ele><time>2026-04-25T14:40:25.104Z</time></trkpt><trkpt lat="42.9104285" lon="11.799116"><ele>527.0</ele><time>2026-04-25T14:40:26.104Z</time></trkpt><trkpt lat="42.9104985" lon="11.7992932"><ele>527.0</ele><time>2026-04-25T14:40:27.103Z</time></trkpt><trkpt lat="42.9105518" lon="11.7994524"><ele>524.25</ele><time>2026-04-25T14:40:28.104Z</time></trkpt><trkpt lat="42.9106352" lon="11.7995772"><ele>521.5</ele><time>2026-04-25T14:40:29.104Z</time></trkpt><trkpt lat="42.9107282" lon="11.799679"><ele>518.75</ele><time>2026-04-25T14:40:30.104Z</time></trkpt><trkpt lat="42.9108242" lon="11.7997761"><ele>516.0</ele><time>2026-04-25T14:40:31.104Z</time></trkpt><trkpt lat="42.9109088" lon="11.7998858"><ele>516.0</ele><time>2026-04-25T14:40:32.104Z</time></trkpt><trkpt lat="42.9109751" lon="11.8000324"><ele>516.0</ele><time>2026-04-25T14:40:33.104Z</time></trkpt><trkpt lat="42.9110179" lon="11.8002186"><ele>516.0</ele><time>2026-04-25T14:40:34.104Z</time></trkpt><trkpt lat="42.911052" lon="11.8003905"><ele>516.0</ele><time>2026-04-25T14:40:35.104Z</time></trkpt><trkpt lat="42.9110802" lon="11.8005714"><ele>518.75</ele><time>2026-04-25T14:40:36.104Z</time></trkpt><trkpt lat="42.911126" lon="11.8007497"><ele>521.5</ele><time>2026-04-25T14:40:37.104Z</time></trkpt><trkpt lat="42.9112005" lon="11.8009033"><ele>524.25</ele><time>2026-04-25T14:40:38.104Z</time></trkpt><trkpt lat="42.9112898" lon="11.8010355"><ele>527.0</ele><time>2026-04-25T14:40:39.103Z</time></trkpt><trkpt lat="42.9113644" lon="11.8011724"><ele>529.5</ele><time>2026-04-25T14:40:40.104Z</time></trkpt><trkpt lat="42.9114106" lon="11.801324"><ele>532.0</ele><time>2026-04-25T14:40:41.103Z</time></trkpt><trkpt lat="42.9114135" lon="11.801487"><ele>534.5</ele><time>2026-04-25T14:40:42.104Z</time></trkpt><trkpt lat="42.9113959" lon="11.801659"><ele>537.0</ele><time>2026-04-25T14:40:43.104Z</time></trkpt><trkpt lat="42.9113472" lon="11.8018333"><ele>537.0</ele><time>2026-04-25T14:40:44.104Z</time></trkpt><trkpt lat="42.9112968" lon="11.8020124"><ele>537.0</ele><time>2026-04-25T14:40:45.104Z</time></trkpt><trkpt lat="42.9112402" lon="11.8021911"><ele>537.0</ele><time>2026-04-25T14:40:46.104Z</time></trkpt><trkpt lat="42.9111882" lon="11.8023664"><ele>537.0</ele><time>2026-04-25T14:40:47.104Z</time></trkpt><trkpt lat="42.9111256" lon="11.8025327"><ele>534.75</ele><time>2026-04-25T14:40:48.103Z</time></trkpt><trkpt lat="42.9110418" lon="11.8026856"><ele>532.5</ele><time>2026-04-25T14:40:49.104Z</time></trkpt><trkpt lat="42.9109398" lon="11.8028197"><ele>530.25</ele><time>2026-04-25T14:40:50.103Z</time></trkpt><trkpt lat="42.9108063" lon="11.8029062"><ele>528.0</ele><time>2026-04-25T14:40:51.104Z</time></trkpt><trkpt lat="42.9106814" lon="11.8029804"><ele>533.0</ele><time>2026-04-25T14:40:52.103Z</time></trkpt><trkpt lat="42.9105466" lon="11.8030393"><ele>538.0</ele><time>2026-04-25T14:40:53.104Z</time></trkpt><trkpt lat="42.9104071" lon="11.8030773"><ele>543.0</ele><time>2026-04-25T14:40:54.104Z</time></trkpt><trkpt lat="42.9102585" lon="11.8030943"><ele>548.0</ele><time>2026-04-25T14:40:55.104Z</time></trkpt><trkpt lat="42.9101117" lon="11.8030996"><ele>550.5</ele><time>2026-04-25T14:40:56.103Z</time></trkpt><trkpt lat="42.9099628" lon="11.8031059"><ele>553.0</ele><time>2026-04-25T14:40:57.104Z</time></trkpt><trkpt lat="42.9098121" lon="11.8031246"><ele>555.5</ele><time>2026-04-25T14:40:58.104Z</time></trkpt><trkpt lat="42.909671" lon="11.8031819"><ele>558.0</ele><time>2026-04-25T14:40:59.104Z</time></trkpt><trkpt lat="42.9095384" lon="11.8032601"><ele>558.0</ele><time>2026-04-25T14:41:00.104Z</time></trkpt><trkpt lat="42.9094079" lon="11.8033408"><ele>558.0</ele><time>2026-04-25T14:41:01.104Z</time></trkpt><trkpt lat="42.9092685" lon="11.8034043"><ele>558.0</ele><time>2026-04-25T14:41:02.103Z</time></trkpt><trkpt lat="42.9091163" lon="11.8034411"><ele>558.0</ele><time>2026-04-25T14:41:03.104Z</time></trkpt><trkpt lat="42.9089695" lon="11.8034389"><ele>561.0</ele><time>2026-04-25T14:41:04.103Z</time></trkpt><trkpt lat="42.9088288" lon="11.8034111"><ele>564.0</ele><time>2026-04-25T14:41:05.103Z</time></trkpt><trkpt lat="42.9086842" lon="11.8033473"><ele>567.0</ele><time>2026-04-25T14:41:06.104Z</time></trkpt><trkpt lat="42.9085409" lon="11.8032706"><ele>570.0</ele><time>2026-04-25T14:41:07.104Z</time></trkpt><trkpt lat="42.9083935" lon="11.8032033"><ele>570.6666666666666</ele><time>2026-04-25T14:41:08.103Z</time></trkpt><trkpt lat="42.9082384" lon="11.8031453"><ele>571.3333333333333</ele><time>2026-04-25T14:41:09.104Z</time></trkpt><trkpt lat="42.9080889" lon="11.8030719"><ele>572.0</ele><time>2026-04-25T14:41:10.104Z</time></trkpt><trkpt lat="42.9079314" lon="11.8030021"><ele>572.0</ele><time>2026-04-25T14:41:11.104Z</time></trkpt><trkpt lat="42.90777" lon="11.8029155"><ele>572.0</ele><time>2026-04-25T14:41:12.104Z</time></trkpt><trkpt lat="42.9076052" lon="11.8028392"><ele>572.0</ele><time>2026-04-25T14:41:13.104Z</time></trkpt><trkpt lat="42.9074427" lon="11.8027677"><ele>570.3333333333333</ele><time>2026-04-25T14:41:14.104Z</time></trkpt><trkpt lat="42.9072779" lon="11.8026911"><ele>568.6666666666666</ele><time>2026-04-25T14:41:15.104Z</time></trkpt><trkpt lat="42.9071158" lon="11.8026043"><ele>567.0</ele><time>2026-04-25T14:41:16.104Z</time></trkpt><trkpt lat="42.9069586" lon="11.8025198"><ele>569.6666666666666</ele><time>2026-04-25T14:41:17.103Z</time></trkpt><trkpt lat="42.9067988" lon="11.8024432"><ele>572.3333333333333</ele><time>2026-04-25T14:41:18.104Z</time></trkpt><trkpt lat="42.9066388" lon="11.8023683"><ele>575.0</ele><time>2026-04-25T14:41:19.104Z</time></trkpt><trkpt lat="42.9064802" lon="11.8022969"><ele>575.0</ele><time>2026-04-25T14:41:20.104Z</time></trkpt><trkpt lat="42.9063154" lon="11.8022237"><ele>575.0</ele><time>2026-04-25T14:41:21.104Z</time></trkpt><trkpt lat="42.9061575" lon="11.8021468"><ele>575.0</ele><time>2026-04-25T14:41:22.104Z</time></trkpt><trkpt lat="42.9059987" lon="11.8020644"><ele>576.0</ele><time>2026-04-25T14:41:23.104Z</time></trkpt><trkpt lat="42.9058417" lon="11.8019868"><ele>577.0</ele><time>2026-04-25T14:41:24.104Z</time></trkpt><trkpt lat="42.9056825" lon="11.8019101"><ele>578.0</ele><time>2026-04-25T14:41:25.104Z</time></trkpt><trkpt lat="42.9055152" lon="11.8018478"><ele>578.0</ele><time>2026-04-25T14:41:26.104Z</time></trkpt><trkpt lat="42.905345" lon="11.8018091"><ele>578.0</ele><time>2026-04-25T14:41:27.104Z</time></trkpt><trkpt lat="42.9051717" lon="11.8018322"><ele>578.0</ele><time>2026-04-25T14:41:28.104Z</time></trkpt><trkpt lat="42.904997" lon="11.8018844"><ele>578.6666666666666</ele><time>2026-04-25T14:41:29.103Z</time></trkpt><trkpt lat="42.9048304" lon="11.8019493"><ele>579.3333333333334</ele><time>2026-04-25T14:41:30.103Z</time></trkpt><trkpt lat="42.9046684" lon="11.8020127"><ele>580.0</ele><time>2026-04-25T14:41:31.104Z</time></trkpt><trkpt lat="42.9044991" lon="11.8020683"><ele>580.0</ele><time>2026-04-25T14:41:32.104Z</time></trkpt><trkpt lat="42.9043166" lon="11.802098"><ele>580.0</ele><time>2026-04-25T14:41:33.104Z</time></trkpt><trkpt lat="42.9041396" lon="11.8020834"><ele>580.0</ele><time>2026-04-25T14:41:34.103Z</time></trkpt><trkpt lat="42.9039647" lon="11.8020461"><ele>581.0</ele><time>2026-04-25T14:41:35.104Z</time></trkpt><trkpt lat="42.903788" lon="11.8019853"><ele>582.0</ele><time>2026-04-25T14:41:36.104Z</time></trkpt><trkpt lat="42.9036105" lon="11.8019259"><ele>583.0</ele><time>2026-04-25T14:41:37.104Z</time></trkpt><trkpt lat="42.9034338" lon="11.8018646"><ele>585.6666666666667</ele><time>2026-04-25T14:41:38.104Z</time></trkpt><trkpt lat="42.9032595" lon="11.8018064"><ele>588.3333333333334</ele><time>2026-04-25T14:41:39.104Z</time></trkpt><trkpt lat="42.9030889" lon="11.8017514"><ele>591.0</ele><time>2026-04-25T14:41:40.104Z</time></trkpt><trkpt lat="42.9029236" lon="11.801691"><ele>591.0</ele><time>2026-04-25T14:41:41.104Z</time></trkpt><trkpt lat="42.9027653" lon="11.8015981"><ele>591.0</ele><time>2026-04-25T14:41:42.104Z</time></trkpt><trkpt lat="42.9026205" lon="11.8014848"><ele>591.0</ele><time>2026-04-25T14:41:43.104Z</time></trkpt><trkpt lat="42.9024924" lon="11.8013362"><ele>591.0</ele><time>2026-04-25T14:41:44.103Z</time></trkpt><trkpt lat="42.9023751" lon="11.8011625"><ele>591.0</ele><time>2026-04-25T14:41:45.104Z</time></trkpt><trkpt lat="42.902262" lon="11.8009816"><ele>591.0</ele><time>2026-04-25T14:41:46.104Z</time></trkpt><trkpt lat="42.9021457" lon="11.8008001"><ele>592.6666666666666</ele><time>2026-04-25T14:41:47.104Z</time></trkpt><trkpt lat="42.9020255" lon="11.8006232"><ele>594.3333333333333</ele><time>2026-04-25T14:41:48.104Z</time></trkpt><trkpt lat="42.9019049" lon="11.8004513"><ele>596.0</ele><time>2026-04-25T14:41:49.104Z</time></trkpt><trkpt lat="42.9017726" lon="11.8002931"><ele>597.6666666666666</ele><time>2026-04-25T14:41:50.104Z</time></trkpt><trkpt lat="42.9016288" lon="11.8001629"><ele>599.3333333333334</ele><time>2026-04-25T14:41:51.104Z</time></trkpt><trkpt lat="42.9014776" lon="11.8000608"><ele>601.0</ele><time>2026-04-25T14:41:52.104Z</time></trkpt><trkpt lat="42.9013134" lon="11.7999907"><ele>601.0</ele><time>2026-04-25T14:41:53.103Z</time></trkpt><trkpt lat="42.9011419" lon="11.7999478"><ele>601.0</ele><time>2026-04-25T14:41:54.104Z</time></trkpt><trkpt lat="42.9009709" lon="11.7999306"><ele>601.0</ele><time>2026-04-25T14:41:55.104Z</time></trkpt><trkpt lat="42.9008047" lon="11.7999231"><ele>600.75</ele><time>2026-04-25T14:41:56.103Z</time></trkpt><trkpt lat="42.9006513" lon="11.7999112"><ele>600.5</ele><time>2026-04-25T14:41:57.103Z</time></trkpt><trkpt lat="42.9005171" lon="11.7998879"><ele>600.25</ele><time>2026-04-25T14:41:58.104Z</time></trkpt><trkpt lat="42.9004043" lon="11.7998598"><ele>600.0</ele><time>2026-04-25T14:41:59.104Z</time></trkpt><trkpt lat="42.9003082" lon="11.7998357"><ele>600.0</ele><time>2026-04-25T14:42:00.104Z</time></trkpt><trkpt lat="42.9002314" lon="11.799817"><ele>600.0</ele><time>2026-04-25T14:42:01.103Z</time></trkpt><trkpt lat="42.9001694" lon="11.7998519"><ele>600.0</ele><time>2026-04-25T14:42:02.104Z</time></trkpt><trkpt lat="42.9001237" lon="11.7999165"><ele>600.0</ele><time>2026-04-25T14:42:03.103Z</time></trkpt><trkpt lat="42.9000974" lon="11.8000552"><ele>600.0</ele><time>2026-04-25T14:42:05.104Z</time></trkpt><trkpt lat="42.9001034" lon="11.8001635"><ele>600.0</ele><time>2026-04-25T14:42:06.104Z</time></trkpt><trkpt lat="42.9001355" lon="11.8002831"><ele>599.8</ele><time>2026-04-25T14:42:07.104Z</time></trkpt><trkpt lat="42.900185" lon="11.8004071"><ele>599.6</ele><time>2026-04-25T14:42:08.104Z</time></trkpt><trkpt lat="42.9002378" lon="11.800519"><ele>599.4</ele><time>2026-04-25T14:42:09.104Z</time></trkpt><trkpt lat="42.9002992" lon="11.8006102"><ele>599.2</ele><time>2026-04-25T14:42:10.104Z</time></trkpt><trkpt lat="42.90036" lon="11.8006775"><ele>599.0</ele><time>2026-04-25T14:42:11.104Z</time></trkpt><trkpt lat="42.9004233" lon="11.8007457"><ele>599.0</ele><time>2026-04-25T14:42:13.103Z</time></trkpt><trkpt lat="42.9004838" lon="11.8007854"><ele>599.0</ele><time>2026-04-25T14:42:17.103Z</time></trkpt><trkpt lat="42.9004641" lon="11.8006929"><ele>599.0</ele><time>2026-04-25T14:42:21.104Z</time></trkpt><trkpt lat="42.9003551" lon="11.8006169"><ele>599.0</ele><time>2026-04-25T14:42:23.104Z</time></trkpt><trkpt lat="42.9002926" lon="11.8005414"><ele>599.0</ele><time>2026-04-25T14:42:24.103Z</time></trkpt><trkpt lat="42.9002317" lon="11.8004513"><ele>599.0</ele><time>2026-04-25T14:42:25.103Z</time></trkpt><trkpt lat="42.9001755" lon="11.8003273"><ele>599.0</ele><time>2026-04-25T14:42:26.104Z</time></trkpt><trkpt lat="42.9001269" lon="11.8001813"><ele>599.0</ele><time>2026-04-25T14:42:27.103Z</time></trkpt><trkpt lat="42.9000871" lon="11.8000222"><ele>599.0</ele><time>2026-04-25T14:42:28.103Z</time></trkpt><trkpt lat="42.9000439" lon="11.7998584"><ele>599.0</ele><time>2026-04-25T14:42:29.104Z</time></trkpt><trkpt lat="42.8999939" lon="11.7996969"><ele>600.0</ele><time>2026-04-25T14:42:30.103Z</time></trkpt><trkpt lat="42.8999334" lon="11.7995231"><ele>601.0</ele><time>2026-04-25T14:42:31.104Z</time></trkpt><trkpt lat="42.899867" lon="11.7993659"><ele>602.0</ele><time>2026-04-25T14:42:32.104Z</time></trkpt><trkpt lat="42.899799" lon="11.7992311"><ele>603.0</ele><time>2026-04-25T14:42:33.103Z</time></trkpt><trkpt lat="42.8997381" lon="11.7991329"><ele>603.0</ele><time>2026-04-25T14:42:34.104Z</time></trkpt><trkpt lat="42.8996562" lon="11.7990418"><ele>603.0</ele><time>2026-04-25T14:42:36.104Z</time></trkpt><trkpt lat="42.8996416" lon="11.7991356"><ele>603.0</ele><time>2026-04-25T14:42:40.103Z</time></trkpt><trkpt lat="42.8997022" lon="11.7992146"><ele>603.0</ele><time>2026-04-25T14:42:43.103Z</time></trkpt><trkpt lat="42.8997391" lon="11.7992888"><ele>603.0</ele><time>2026-04-25T14:42:45.104Z</time></trkpt><trkpt lat="42.8996666" lon="11.7993481"><ele>603.0</ele><time>2026-04-25T14:42:47.104Z</time></trkpt><trkpt lat="42.8995995" lon="11.7993383"><ele>603.6</ele><time>2026-04-25T14:42:48.104Z</time></trkpt><trkpt lat="42.8995226" lon="11.7993208"><ele>604.1999999999999</ele><time>2026-04-25T14:42:49.104Z</time></trkpt><trkpt lat="42.8994345" lon="11.7993041"><ele>604.8</ele><time>2026-04-25T14:42:50.104Z</time></trkpt><trkpt lat="42.8993353" lon="11.7993069"><ele>605.4</ele><time>2026-04-25T14:42:51.104Z</time></trkpt><trkpt lat="42.8992228" lon="11.7993198"><ele>606.0</ele><time>2026-04-25T14:42:52.104Z</time></trkpt><trkpt lat="42.899116" lon="11.7993495"><ele>603.75</ele><time>2026-04-25T14:42:53.104Z</time></trkpt><trkpt lat="42.8990025" lon="11.7993897"><ele>601.5</ele><time>2026-04-25T14:42:54.104Z</time></trkpt><trkpt lat="42.8988912" lon="11.7994296"><ele>599.25</ele><time>2026-04-25T14:42:55.103Z</time></trkpt><trkpt lat="42.8987798" lon="11.7994792"><ele>597.0</ele><time>2026-04-25T14:42:56.103Z</time></trkpt><trkpt lat="42.8986653" lon="11.7995261"><ele>597.0</ele><time>2026-04-25T14:42:57.104Z</time></trkpt><trkpt lat="42.8985489" lon="11.7995752"><ele>597.0</ele><time>2026-04-25T14:42:58.104Z</time></trkpt><trkpt lat="42.8984357" lon="11.7996238"><ele>597.0</ele><time>2026-04-25T14:42:59.104Z</time></trkpt><trkpt lat="42.8983211" lon="11.7996722"><ele>597.0</ele><time>2026-04-25T14:43:00.104Z</time></trkpt><trkpt lat="42.8982055" lon="11.7997205"><ele>596.75</ele><time>2026-04-25T14:43:01.104Z</time></trkpt><trkpt lat="42.8980858" lon="11.7997616"><ele>596.5</ele><time>2026-04-25T14:43:02.104Z</time></trkpt><trkpt lat="42.8979609" lon="11.799787"><ele>596.25</ele><time>2026-04-25T14:43:03.104Z</time></trkpt><trkpt lat="42.8978351" lon="11.7997872"><ele>596.0</ele><time>2026-04-25T14:43:04.104Z</time></trkpt><trkpt lat="42.8977082" lon="11.7997726"><ele>595.0</ele><time>2026-04-25T14:43:05.104Z</time></trkpt><trkpt lat="42.8975819" lon="11.7997456"><ele>594.0</ele><time>2026-04-25T14:43:06.104Z</time></trkpt><trkpt lat="42.8974576" lon="11.7997195"><ele>593.0</ele><time>2026-04-25T14:43:07.104Z</time></trkpt><trkpt lat="42.8973283" lon="11.7996854"><ele>592.0</ele><time>2026-04-25T14:43:08.103Z</time></trkpt><trkpt lat="42.8972" lon="11.7996402"><ele>592.0</ele><time>2026-04-25T14:43:09.103Z</time></trkpt><trkpt lat="42.8970773" lon="11.7995993"><ele>592.0</ele><time>2026-04-25T14:43:10.104Z</time></trkpt><trkpt lat="42.8969525" lon="11.7995517"><ele>592.0</ele><time>2026-04-25T14:43:11.104Z</time></trkpt><trkpt lat="42.8968241" lon="11.7994995"><ele>592.0</ele><time>2026-04-25T14:43:12.104Z</time></trkpt><trkpt lat="42.8966945" lon="11.7994538"><ele>592.5</ele><time>2026-04-25T14:43:13.104Z</time></trkpt><trkpt lat="42.8965612" lon="11.7994049"><ele>593.0</ele><time>2026-04-25T14:43:14.104Z</time></trkpt><trkpt lat="42.8964342" lon="11.7993556"><ele>593.5</ele><time>2026-04-25T14:43:15.104Z</time></trkpt><trkpt lat="42.8963076" lon="11.7993089"><ele>594.0</ele><time>2026-04-25T14:43:16.104Z</time></trkpt><trkpt lat="42.8961874" lon="11.7992679"><ele>594.0</ele><time>2026-04-25T14:43:17.103Z</time></trkpt><trkpt lat="42.8960678" lon="11.7992602"><ele>594.0</ele><time>2026-04-25T14:43:18.104Z</time></trkpt><trkpt lat="42.8959535" lon="11.7992935"><ele>594.0</ele><time>2026-04-25T14:43:19.104Z</time></trkpt><trkpt lat="42.8958587" lon="11.7993938"><ele>594.0</ele><time>2026-04-25T14:43:20.104Z</time></trkpt><trkpt lat="42.8957999" lon="11.7995285"><ele>591.5</ele><time>2026-04-25T14:43:21.104Z</time></trkpt><trkpt lat="42.8957732" lon="11.7996814"><ele>589.0</ele><time>2026-04-25T14:43:22.104Z</time></trkpt><trkpt lat="42.8957928" lon="11.7998362"><ele>586.5</ele><time>2026-04-25T14:43:23.104Z</time></trkpt><trkpt lat="42.8958489" lon="11.7999739"><ele>584.0</ele><time>2026-04-25T14:43:24.104Z</time></trkpt><trkpt lat="42.8959428" lon="11.800071"><ele>584.0</ele><time>2026-04-25T14:43:25.103Z</time></trkpt><trkpt lat="42.8960602" lon="11.8001322"><ele>584.0</ele><time>2026-04-25T14:43:26.104Z</time></trkpt><trkpt lat="42.8961912" lon="11.8001739"><ele>584.0</ele><time>2026-04-25T14:43:27.103Z</time></trkpt><trkpt lat="42.8963273" lon="11.800215"><ele>584.0</ele><time>2026-04-25T14:43:28.103Z</time></trkpt><trkpt lat="42.8964644" lon="11.8002637"><ele>583.75</ele><time>2026-04-25T14:43:29.104Z</time></trkpt><trkpt lat="42.8965961" lon="11.8003346"><ele>583.5</ele><time>2026-04-25T14:43:30.104Z</time></trkpt><trkpt lat="42.8967213" lon="11.8004342"><ele>583.25</ele><time>2026-04-25T14:43:31.104Z</time></trkpt><trkpt lat="42.8968359" lon="11.8005617"><ele>583.0</ele><time>2026-04-25T14:43:32.104Z</time></trkpt><trkpt lat="42.8969204" lon="11.8007474"><ele>583.0</ele><time>2026-04-25T14:43:33.104Z</time></trkpt><trkpt lat="42.8969864" lon="11.8009229"><ele>583.0</ele><time>2026-04-25T14:43:34.104Z</time></trkpt><trkpt lat="42.8970507" lon="11.8011066"><ele>583.0</ele><time>2026-04-25T14:43:35.104Z</time></trkpt><trkpt lat="42.8971277" lon="11.8012785"><ele>583.0</ele><time>2026-04-25T14:43:36.104Z</time></trkpt><trkpt lat="42.8972119" lon="11.8014295"><ele>579.25</ele><time>2026-04-25T14:43:37.104Z</time></trkpt><trkpt lat="42.8973136" lon="11.8015661"><ele>575.5</ele><time>2026-04-25T14:43:38.104Z</time></trkpt><trkpt lat="42.8974352" lon="11.8016794"><ele>571.75</ele><time>2026-04-25T14:43:39.104Z</time></trkpt><trkpt lat="42.8975663" lon="11.8017651"><ele>568.0</ele><time>2026-04-25T14:43:40.104Z</time></trkpt><trkpt lat="42.8977041" lon="11.8018426"><ele>565.6666666666667</ele><time>2026-04-25T14:43:41.103Z</time></trkpt><trkpt lat="42.8978565" lon="11.8019295"><ele>563.3333333333334</ele><time>2026-04-25T14:43:42.104Z</time></trkpt><trkpt lat="42.8979979" lon="11.8020114"><ele>561.0</ele><time>2026-04-25T14:43:43.104Z</time></trkpt><trkpt lat="42.8981298" lon="11.8020886"><ele>561.0</ele><time>2026-04-25T14:43:44.104Z</time></trkpt><trkpt lat="42.8982509" lon="11.8021653"><ele>561.0</ele><time>2026-04-25T14:43:45.103Z</time></trkpt><trkpt lat="42.8983542" lon="11.8022487"><ele>561.0</ele><time>2026-04-25T14:43:46.104Z</time></trkpt><trkpt lat="42.8984343" lon="11.8023748"><ele>561.0</ele><time>2026-04-25T14:43:47.104Z</time></trkpt><trkpt lat="42.8984766" lon="11.8025155"><ele>562.25</ele><time>2026-04-25T14:43:48.103Z</time></trkpt><trkpt lat="42.8984615" lon="11.8026921"><ele>563.5</ele><time>2026-04-25T14:43:49.104Z</time></trkpt><trkpt lat="42.898404" lon="11.802814"><ele>564.75</ele><time>2026-04-25T14:43:50.103Z</time></trkpt><trkpt lat="42.8983125" lon="11.8029187"><ele>566.0</ele><time>2026-04-25T14:43:51.103Z</time></trkpt><trkpt lat="42.8982039" lon="11.8030377"><ele>566.0</ele><time>2026-04-25T14:43:52.103Z</time></trkpt><trkpt lat="42.8980887" lon="11.8031701"><ele>566.0</ele><time>2026-04-25T14:43:53.103Z</time></trkpt><trkpt lat="42.897982" lon="11.8033201"><ele>566.0</ele><time>2026-04-25T14:43:54.104Z</time></trkpt><trkpt lat="42.8978872" lon="11.8035027"><ele>569.6666666666666</ele><time>2026-04-25T14:43:55.104Z</time></trkpt><trkpt lat="42.8978071" lon="11.8037014"><ele>573.3333333333334</ele><time>2026-04-25T14:43:56.104Z</time></trkpt><trkpt lat="42.897736" lon="11.8039158"><ele>577.0</ele><time>2026-04-25T14:43:57.104Z</time></trkpt><trkpt lat="42.8976692" lon="11.804136"><ele>579.3333333333334</ele><time>2026-04-25T14:43:58.104Z</time></trkpt><trkpt lat="42.8975929" lon="11.8043663"><ele>581.6666666666666</ele><time>2026-04-25T14:43:59.103Z</time></trkpt><trkpt lat="42.8975185" lon="11.8045915"><ele>584.0</ele><time>2026-04-25T14:44:00.104Z</time></trkpt><trkpt lat="42.8974409" lon="11.8048127"><ele>581.3333333333333</ele><time>2026-04-25T14:44:01.104Z</time></trkpt><trkpt lat="42.8973567" lon="11.8050194"><ele>578.6666666666666</ele><time>2026-04-25T14:44:02.104Z</time></trkpt><trkpt lat="42.8972497" lon="11.80518"><ele>576.0</ele><time>2026-04-25T14:44:03.104Z</time></trkpt><trkpt lat="42.8971205" lon="11.8052956"><ele>576.0</ele><time>2026-04-25T14:44:04.103Z</time></trkpt><trkpt lat="42.8969834" lon="11.8053734"><ele>576.0</ele><time>2026-04-25T14:44:05.104Z</time></trkpt><trkpt lat="42.8968466" lon="11.8054584"><ele>576.0</ele><time>2026-04-25T14:44:06.104Z</time></trkpt><trkpt lat="42.8967202" lon="11.8055742"><ele>575.3333333333334</ele><time>2026-04-25T14:44:07.104Z</time></trkpt><trkpt lat="42.8966109" lon="11.8057111"><ele>574.6666666666667</ele><time>2026-04-25T14:44:08.104Z</time></trkpt><trkpt lat="42.8965035" lon="11.8058587"><ele>574.0</ele><time>2026-04-25T14:44:09.104Z</time></trkpt><trkpt lat="42.8963884" lon="11.8060063"><ele>574.0</ele><time>2026-04-25T14:44:10.104Z</time></trkpt><trkpt lat="42.8962789" lon="11.8061448"><ele>574.0</ele><time>2026-04-25T14:44:11.103Z</time></trkpt><trkpt lat="42.8961695" lon="11.8062591"><ele>574.0</ele><time>2026-04-25T14:44:12.103Z</time></trkpt><trkpt lat="42.8960505" lon="11.8063623"><ele>574.0</ele><time>2026-04-25T14:44:13.104Z</time></trkpt><trkpt lat="42.8959135" lon="11.8064541"><ele>569.6666666666667</ele><time>2026-04-25T14:44:14.104Z</time></trkpt><trkpt lat="42.8957659" lon="11.8065271"><ele>565.3333333333334</ele><time>2026-04-25T14:44:15.103Z</time></trkpt><trkpt lat="42.8956028" lon="11.806589"><ele>561.0</ele><time>2026-04-25T14:44:16.104Z</time></trkpt><trkpt lat="42.8954365" lon="11.8066336"><ele>561.0</ele><time>2026-04-25T14:44:17.104Z</time></trkpt><trkpt lat="42.8952733" lon="11.8066842"><ele>561.0</ele><time>2026-04-25T14:44:18.104Z</time></trkpt><trkpt lat="42.895124" lon="11.8067357"><ele>561.0</ele><time>2026-04-25T14:44:19.104Z</time></trkpt><trkpt lat="42.8949867" lon="11.8067833"><ele>561.25</ele><time>2026-04-25T14:44:20.104Z</time></trkpt><trkpt lat="42.8948549" lon="11.8068284"><ele>561.5</ele><time>2026-04-25T14:44:21.103Z</time></trkpt><trkpt lat="42.8947303" lon="11.8068723"><ele>561.75</ele><time>2026-04-25T14:44:22.104Z</time></trkpt><trkpt lat="42.8946157" lon="11.8069077"><ele>562.0</ele><time>2026-04-25T14:44:23.104Z</time></trkpt><trkpt lat="42.8945014" lon="11.8069532"><ele>562.0</ele><time>2026-04-25T14:44:24.104Z</time></trkpt><trkpt lat="42.8943873" lon="11.8070022"><ele>562.0</ele><time>2026-04-25T14:44:25.104Z</time></trkpt><trkpt lat="42.8942747" lon="11.8070524"><ele>562.0</ele><time>2026-04-25T14:44:26.103Z</time></trkpt><trkpt lat="42.8941669" lon="11.8071161"><ele>562.0</ele><time>2026-04-25T14:44:27.104Z</time></trkpt><trkpt lat="42.8940643" lon="11.807191"><ele>559.25</ele><time>2026-04-25T14:44:28.104Z</time></trkpt><trkpt lat="42.8939575" lon="11.8072869"><ele>556.5</ele><time>2026-04-25T14:44:29.103Z</time></trkpt><trkpt lat="42.8938502" lon="11.8074091"><ele>553.75</ele><time>2026-04-25T14:44:30.103Z</time></trkpt><trkpt lat="42.8937423" lon="11.8075606"><ele>551.0</ele><time>2026-04-25T14:44:31.104Z</time></trkpt><trkpt lat="42.8936131" lon="11.8077172"><ele>549.6666666666666</ele><time>2026-04-25T14:44:32.103Z</time></trkpt><trkpt lat="42.8934817" lon="11.8078832"><ele>548.3333333333334</ele><time>2026-04-25T14:44:33.104Z</time></trkpt><trkpt lat="42.8933425" lon="11.8080602"><ele>547.0</ele><time>2026-04-25T14:44:34.104Z</time></trkpt><trkpt lat="42.8932003" lon="11.8082391"><ele>546.0</ele><time>2026-04-25T14:44:35.104Z</time></trkpt><trkpt lat="42.8930541" lon="11.8084235"><ele>545.0</ele><time>2026-04-25T14:44:36.104Z</time></trkpt><trkpt lat="42.8929055" lon="11.8086219"><ele>544.0</ele><time>2026-04-25T14:44:37.104Z</time></trkpt><trkpt lat="42.8927561" lon="11.8088306"><ele>541.3333333333334</ele><time>2026-04-25T14:44:38.103Z</time></trkpt><trkpt lat="42.8926041" lon="11.8090385"><ele>538.6666666666666</ele><time>2026-04-25T14:44:39.104Z</time></trkpt><trkpt lat="42.892457" lon="11.8092423"><ele>536.0</ele><time>2026-04-25T14:44:40.103Z</time></trkpt><trkpt lat="42.8923129" lon="11.8094388"><ele>533.0</ele><time>2026-04-25T14:44:41.103Z</time></trkpt><trkpt lat="42.8921708" lon="11.8096315"><ele>530.0</ele><time>2026-04-25T14:44:42.104Z</time></trkpt><trkpt lat="42.892031" lon="11.8098183"><ele>527.0</ele><time>2026-04-25T14:44:43.104Z</time></trkpt><trkpt lat="42.8918949" lon="11.810006"><ele>525.0</ele><time>2026-04-25T14:44:44.104Z</time></trkpt><trkpt lat="42.8917609" lon="11.8101872"><ele>523.0</ele><time>2026-04-25T14:44:45.103Z</time></trkpt><trkpt lat="42.8916322" lon="11.81036"><ele>521.0</ele><time>2026-04-25T14:44:46.104Z</time></trkpt><trkpt lat="42.8915072" lon="11.8105212"><ele>521.0</ele><time>2026-04-25T14:44:47.104Z</time></trkpt><trkpt lat="42.8913792" lon="11.8106729"><ele>521.0</ele><time>2026-04-25T14:44:48.104Z</time></trkpt><trkpt lat="42.8912423" lon="11.8107984"><ele>521.0</ele><time>2026-04-25T14:44:49.103Z</time></trkpt><trkpt lat="42.8910863" lon="11.8108848"><ele>521.0</ele><time>2026-04-25T14:44:50.104Z</time></trkpt><trkpt lat="42.8909169" lon="11.8109253"><ele>521.0</ele><time>2026-04-25T14:44:51.104Z</time></trkpt><trkpt lat="42.8907539" lon="11.8109281"><ele>521.0</ele><time>2026-04-25T14:44:52.104Z</time></trkpt><trkpt lat="42.8906138" lon="11.8108427"><ele>521.0</ele><time>2026-04-25T14:44:53.103Z</time></trkpt><trkpt lat="42.8904784" lon="11.8107285"><ele>521.0</ele><time>2026-04-25T14:44:54.104Z</time></trkpt><trkpt lat="42.8903483" lon="11.8106217"><ele>521.0</ele><time>2026-04-25T14:44:55.104Z</time></trkpt><trkpt lat="42.8902156" lon="11.8105397"><ele>518.75</ele><time>2026-04-25T14:44:56.104Z</time></trkpt><trkpt lat="42.8900743" lon="11.8105073"><ele>516.5</ele><time>2026-04-25T14:44:57.104Z</time></trkpt><trkpt lat="42.8899301" lon="11.8105238"><ele>514.25</ele><time>2026-04-25T14:44:58.104Z</time></trkpt><trkpt lat="42.8897967" lon="11.8106119"><ele>512.0</ele><time>2026-04-25T14:44:59.104Z</time></trkpt><trkpt lat="42.8896553" lon="11.8107398"><ele>512.0</ele><time>2026-04-25T14:45:00.104Z</time></trkpt><trkpt lat="42.8895367" lon="11.8108709"><ele>512.0</ele><time>2026-04-25T14:45:01.104Z</time></trkpt><trkpt lat="42.8894214" lon="11.8110404"><ele>512.0</ele><time>2026-04-25T14:45:02.104Z</time></trkpt><trkpt lat="42.889301" lon="11.8112203"><ele>509.0</ele><time>2026-04-25T14:45:03.103Z</time></trkpt><trkpt lat="42.8891783" lon="11.811385"><ele>506.0</ele><time>2026-04-25T14:45:04.104Z</time></trkpt><trkpt lat="42.8890615" lon="11.8115615"><ele>503.0</ele><time>2026-04-25T14:45:05.104Z</time></trkpt><trkpt lat="42.8889457" lon="11.8117344"><ele>499.66666666666663</ele><time>2026-04-25T14:45:06.104Z</time></trkpt><trkpt lat="42.8888272" lon="11.8119108"><ele>496.33333333333337</ele><time>2026-04-25T14:45:07.103Z</time></trkpt><trkpt lat="42.8887071" lon="11.812091"><ele>493.0</ele><time>2026-04-25T14:45:08.103Z</time></trkpt><trkpt lat="42.8885874" lon="11.8122686"><ele>493.0</ele><time>2026-04-25T14:45:09.104Z</time></trkpt><trkpt lat="42.8884652" lon="11.8124485"><ele>493.0</ele><time>2026-04-25T14:45:10.104Z</time></trkpt><trkpt lat="42.8883364" lon="11.8126228"><ele>493.0</ele><time>2026-04-25T14:45:11.103Z</time></trkpt><trkpt lat="42.8881971" lon="11.8127856"><ele>492.33333333333337</ele><time>2026-04-25T14:45:12.104Z</time></trkpt><trkpt lat="42.8880577" lon="11.8129468"><ele>491.66666666666663</ele><time>2026-04-25T14:45:13.104Z</time></trkpt><trkpt lat="42.8879218" lon="11.8130928"><ele>491.0</ele><time>2026-04-25T14:45:14.104Z</time></trkpt><trkpt lat="42.8877897" lon="11.8132405"><ele>491.0</ele><time>2026-04-25T14:45:15.104Z</time></trkpt><trkpt lat="42.8876578" lon="11.8133814"><ele>491.0</ele><time>2026-04-25T14:45:16.104Z</time></trkpt><trkpt lat="42.8875131" lon="11.8134805"><ele>491.0</ele><time>2026-04-25T14:45:17.103Z</time></trkpt><trkpt lat="42.8873495" lon="11.8135054"><ele>492.0</ele><time>2026-04-25T14:45:18.104Z</time></trkpt><trkpt lat="42.8871929" lon="11.8134814"><ele>493.0</ele><time>2026-04-25T14:45:19.104Z</time></trkpt><trkpt lat="42.8870297" lon="11.8134206"><ele>494.0</ele><time>2026-04-25T14:45:20.104Z</time></trkpt><trkpt lat="42.8868681" lon="11.813357"><ele>493.0</ele><time>2026-04-25T14:45:21.104Z</time></trkpt><trkpt lat="42.8867263" lon="11.8132989"><ele>492.0</ele><time>2026-04-25T14:45:22.104Z</time></trkpt><trkpt lat="42.886574" lon="11.8132461"><ele>491.0</ele><time>2026-04-25T14:45:23.103Z</time></trkpt><trkpt lat="42.8864226" lon="11.8132249"><ele>491.0</ele><time>2026-04-25T14:45:24.103Z</time></trkpt><trkpt lat="42.8862553" lon="11.8132424"><ele>491.0</ele><time>2026-04-25T14:45:25.104Z</time></trkpt><trkpt lat="42.8860792" lon="11.8133021"><ele>491.0</ele><time>2026-04-25T14:45:26.104Z</time></trkpt><trkpt lat="42.885917" lon="11.813353"><ele>491.66666666666663</ele><time>2026-04-25T14:45:27.104Z</time></trkpt><trkpt lat="42.8857649" lon="11.8134066"><ele>492.33333333333337</ele><time>2026-04-25T14:45:28.104Z</time></trkpt><trkpt lat="42.8856141" lon="11.8134707"><ele>493.0</ele><time>2026-04-25T14:45:29.104Z</time></trkpt><trkpt lat="42.885482" lon="11.8135473"><ele>493.0</ele><time>2026-04-25T14:45:30.104Z</time></trkpt><trkpt lat="42.8853802" lon="11.8136749"><ele>493.0</ele><time>2026-04-25T14:45:31.104Z</time></trkpt><trkpt lat="42.885296" lon="11.8138548"><ele>493.0</ele><time>2026-04-25T14:45:32.103Z</time></trkpt><trkpt lat="42.8852359" lon="11.8140603"><ele>493.0</ele><time>2026-04-25T14:45:33.103Z</time></trkpt><trkpt lat="42.8851784" lon="11.8142763"><ele>493.0</ele><time>2026-04-25T14:45:34.104Z</time></trkpt><trkpt lat="42.8851227" lon="11.8145167"><ele>493.0</ele><time>2026-04-25T14:45:35.104Z</time></trkpt><trkpt lat="42.8850618" lon="11.8147503"><ele>486.33333333333337</ele><time>2026-04-25T14:45:36.104Z</time></trkpt><trkpt lat="42.8850016" lon="11.8149813"><ele>479.66666666666663</ele><time>2026-04-25T14:45:37.104Z</time></trkpt><trkpt lat="42.8849556" lon="11.8152218"><ele>473.0</ele><time>2026-04-25T14:45:38.104Z</time></trkpt><trkpt lat="42.8849191" lon="11.8154682"><ele>472.0</ele><time>2026-04-25T14:45:39.103Z</time></trkpt><trkpt lat="42.8848899" lon="11.8157235"><ele>471.0</ele><time>2026-04-25T14:45:40.104Z</time></trkpt><trkpt lat="42.8848641" lon="11.8159873"><ele>470.0</ele><time>2026-04-25T14:45:41.104Z</time></trkpt><trkpt lat="42.8848429" lon="11.8162467"><ele>468.66666666666663</ele><time>2026-04-25T14:45:42.104Z</time></trkpt><trkpt lat="42.8848235" lon="11.8164929"><ele>467.33333333333337</ele><time>2026-04-25T14:45:43.104Z</time></trkpt><trkpt lat="42.8848039" lon="11.8167263"><ele>466.0</ele><time>2026-04-25T14:45:44.104Z</time></trkpt><trkpt lat="42.8847917" lon="11.8169379"><ele>464.25</ele><time>2026-04-25T14:45:45.103Z</time></trkpt><trkpt lat="42.8847773" lon="11.8171223"><ele>462.5</ele><time>2026-04-25T14:45:46.104Z</time></trkpt><trkpt lat="42.8847743" lon="11.8172939"><ele>460.75</ele><time>2026-04-25T14:45:47.104Z</time></trkpt><trkpt lat="42.8847982" lon="11.8174478"><ele>459.0</ele><time>2026-04-25T14:45:48.104Z</time></trkpt><trkpt lat="42.8848593" lon="11.8175761"><ele>457.25</ele><time>2026-04-25T14:45:49.104Z</time></trkpt><trkpt lat="42.8849602" lon="11.8176841"><ele>455.5</ele><time>2026-04-25T14:45:50.104Z</time></trkpt><trkpt lat="42.8850694" lon="11.8177412"><ele>453.75</ele><time>2026-04-25T14:45:51.104Z</time></trkpt><trkpt lat="42.8851989" lon="11.8177367"><ele>452.0</ele><time>2026-04-25T14:45:52.104Z</time></trkpt><trkpt lat="42.8853212" lon="11.8176463"><ele>451.3333333333333</ele><time>2026-04-25T14:45:53.104Z</time></trkpt><trkpt lat="42.8854337" lon="11.8175135"><ele>450.66666666666663</ele><time>2026-04-25T14:45:54.104Z</time></trkpt><trkpt lat="42.8855435" lon="11.817373"><ele>450.0</ele><time>2026-04-25T14:45:55.104Z</time></trkpt><trkpt lat="42.8856531" lon="11.8172322"><ele>450.0</ele><time>2026-04-25T14:45:56.104Z</time></trkpt><trkpt lat="42.8857611" lon="11.8170938"><ele>450.0</ele><time>2026-04-25T14:45:57.104Z</time></trkpt><trkpt lat="42.8858621" lon="11.8169611"><ele>450.0</ele><time>2026-04-25T14:45:58.104Z</time></trkpt><trkpt lat="42.885964" lon="11.8168385"><ele>450.0</ele><time>2026-04-25T14:45:59.104Z</time></trkpt><trkpt lat="42.8860811" lon="11.8167492"><ele>449.75</ele><time>2026-04-25T14:46:00.104Z</time></trkpt><trkpt lat="42.8862061" lon="11.8166949"><ele>449.5</ele><time>2026-04-25T14:46:01.104Z</time></trkpt><trkpt lat="42.8863493" lon="11.8166941"><ele>449.25</ele><time>2026-04-25T14:46:02.104Z</time></trkpt><trkpt lat="42.8864702" lon="11.8167882"><ele>449.0</ele><time>2026-04-25T14:46:03.104Z</time></trkpt><trkpt lat="42.886602" lon="11.8168936"><ele>445.66666666666663</ele><time>2026-04-25T14:46:04.104Z</time></trkpt><trkpt lat="42.8867454" lon="11.8169952"><ele>442.33333333333337</ele><time>2026-04-25T14:46:05.104Z</time></trkpt><trkpt lat="42.8868948" lon="11.8171059"><ele>439.0</ele><time>2026-04-25T14:46:06.104Z</time></trkpt><trkpt lat="42.8870392" lon="11.8172119"><ele>438.5</ele><time>2026-04-25T14:46:07.104Z</time></trkpt><trkpt lat="42.8871782" lon="11.8173148"><ele>438.0</ele><time>2026-04-25T14:46:08.103Z</time></trkpt><trkpt lat="42.8873043" lon="11.8174098"><ele>437.5</ele><time>2026-04-25T14:46:09.104Z</time></trkpt><trkpt lat="42.8874281" lon="11.8175092"><ele>437.0</ele><time>2026-04-25T14:46:10.103Z</time></trkpt><trkpt lat="42.8875316" lon="11.8176429"><ele>435.0</ele><time>2026-04-25T14:46:11.104Z</time></trkpt><trkpt lat="42.8876068" lon="11.8178061"><ele>433.0</ele><time>2026-04-25T14:46:12.104Z</time></trkpt><trkpt lat="42.887661" lon="11.8179952"><ele>431.0</ele><time>2026-04-25T14:46:13.103Z</time></trkpt><trkpt lat="42.887666" lon="11.8181871"><ele>429.0</ele><time>2026-04-25T14:46:14.104Z</time></trkpt><trkpt lat="42.887644" lon="11.8183911"><ele>427.66666666666663</ele><time>2026-04-25T14:46:15.104Z</time></trkpt><trkpt lat="42.8875711" lon="11.8185761"><ele>426.3333333333333</ele><time>2026-04-25T14:46:16.103Z</time></trkpt><trkpt lat="42.8874577" lon="11.8187404"><ele>425.0</ele><time>2026-04-25T14:46:17.103Z</time></trkpt><trkpt lat="42.8873389" lon="11.8189034"><ele>425.0</ele><time>2026-04-25T14:46:18.103Z</time></trkpt><trkpt lat="42.8872122" lon="11.8190712"><ele>425.0</ele><time>2026-04-25T14:46:19.104Z</time></trkpt><trkpt lat="42.8870913" lon="11.8192559"><ele>425.0</ele><time>2026-04-25T14:46:20.104Z</time></trkpt><trkpt lat="42.8869675" lon="11.8194324"><ele>422.3333333333333</ele><time>2026-04-25T14:46:21.104Z</time></trkpt><trkpt lat="42.88685" lon="11.8195997"><ele>419.66666666666663</ele><time>2026-04-25T14:46:22.104Z</time></trkpt><trkpt lat="42.8867303" lon="11.8197617"><ele>417.0</ele><time>2026-04-25T14:46:23.104Z</time></trkpt><trkpt lat="42.8866148" lon="11.8199294"><ele>416.33333333333337</ele><time>2026-04-25T14:46:24.104Z</time></trkpt><trkpt lat="42.886504" lon="11.8200977"><ele>415.6666666666667</ele><time>2026-04-25T14:46:25.103Z</time></trkpt><trkpt lat="42.8864118" lon="11.8202723"><ele>415.0</ele><time>2026-04-25T14:46:26.103Z</time></trkpt><trkpt lat="42.8863512" lon="11.8204777"><ele>414.0</ele><time>2026-04-25T14:46:27.104Z</time></trkpt><trkpt lat="42.8863186" lon="11.8207054"><ele>413.0</ele><time>2026-04-25T14:46:28.104Z</time></trkpt><trkpt lat="42.8863051" lon="11.8209533"><ele>412.0</ele><time>2026-04-25T14:46:29.104Z</time></trkpt><trkpt lat="42.8862868" lon="11.821203"><ele>409.6666666666667</ele><time>2026-04-25T14:46:30.103Z</time></trkpt><trkpt lat="42.8862614" lon="11.8214717"><ele>407.33333333333337</ele><time>2026-04-25T14:46:31.104Z</time></trkpt><trkpt lat="42.8862379" lon="11.8217326"><ele>405.0</ele><time>2026-04-25T14:46:32.104Z</time></trkpt><trkpt lat="42.8862225" lon="11.8219981"><ele>403.33333333333337</ele><time>2026-04-25T14:46:33.104Z</time></trkpt><trkpt lat="42.8862081" lon="11.8222491"><ele>401.6666666666667</ele><time>2026-04-25T14:46:34.103Z</time></trkpt><trkpt lat="42.8861925" lon="11.8224861"><ele>400.0</ele><time>2026-04-25T14:46:35.104Z</time></trkpt><trkpt lat="42.8861596" lon="11.8226992"><ele>399.33333333333337</ele><time>2026-04-25T14:46:36.104Z</time></trkpt><trkpt lat="42.8861054" lon="11.8228872"><ele>398.66666666666663</ele><time>2026-04-25T14:46:37.104Z</time></trkpt><trkpt lat="42.8860083" lon="11.8230544"><ele>398.0</ele><time>2026-04-25T14:46:38.104Z</time></trkpt><trkpt lat="42.8858751" lon="11.8231863"><ele>398.0</ele><time>2026-04-25T14:46:39.104Z</time></trkpt><trkpt lat="42.885715" lon="11.8233028"><ele>398.0</ele><time>2026-04-25T14:46:40.104Z</time></trkpt><trkpt lat="42.8855389" lon="11.8234213"><ele>398.0</ele><time>2026-04-25T14:46:41.104Z</time></trkpt><trkpt lat="42.88537" lon="11.8235517"><ele>395.66666666666663</ele><time>2026-04-25T14:46:42.104Z</time></trkpt><trkpt lat="42.8852035" lon="11.8236942"><ele>393.33333333333337</ele><time>2026-04-25T14:46:43.104Z</time></trkpt><trkpt lat="42.8850311" lon="11.8238434"><ele>391.0</ele><time>2026-04-25T14:46:44.104Z</time></trkpt><trkpt lat="42.8848562" lon="11.8239928"><ele>391.0</ele><time>2026-04-25T14:46:45.103Z</time></trkpt><trkpt lat="42.8846788" lon="11.8241464"><ele>391.0</ele><time>2026-04-25T14:46:46.103Z</time></trkpt><trkpt lat="42.8845057" lon="11.8242704"><ele>391.0</ele><time>2026-04-25T14:46:47.104Z</time></trkpt><trkpt lat="42.8843281" lon="11.8243492"><ele>386.6666666666667</ele><time>2026-04-25T14:46:48.103Z</time></trkpt><trkpt lat="42.8841301" lon="11.8243656"><ele>382.33333333333337</ele><time>2026-04-25T14:46:49.103Z</time></trkpt><trkpt lat="42.8839378" lon="11.8243643"><ele>378.0</ele><time>2026-04-25T14:46:50.103Z</time></trkpt><trkpt lat="42.8837417" lon="11.8243531"><ele>378.0</ele><time>2026-04-25T14:46:51.103Z</time></trkpt><trkpt lat="42.8835609" lon="11.8243425"><ele>378.0</ele><time>2026-04-25T14:46:52.104Z</time></trkpt><trkpt lat="42.8833809" lon="11.8243527"><ele>378.0</ele><time>2026-04-25T14:46:53.104Z</time></trkpt><trkpt lat="42.8831835" lon="11.8244091"><ele>377.3333333333333</ele><time>2026-04-25T14:46:54.104Z</time></trkpt><trkpt lat="42.8829893" lon="11.8244736"><ele>376.66666666666663</ele><time>2026-04-25T14:46:55.103Z</time></trkpt><trkpt lat="42.8827929" lon="11.8245405"><ele>376.0</ele><time>2026-04-25T14:46:56.103Z</time></trkpt><trkpt lat="42.8825971" lon="11.8246076"><ele>376.0</ele><time>2026-04-25T14:46:57.104Z</time></trkpt><trkpt lat="42.8824102" lon="11.8246625"><ele>376.0</ele><time>2026-04-25T14:46:58.104Z</time></trkpt><trkpt lat="42.8822294" lon="11.8247224"><ele>376.0</ele><time>2026-04-25T14:46:59.104Z</time></trkpt><trkpt lat="42.8820573" lon="11.8247828"><ele>376.0</ele><time>2026-04-25T14:47:00.104Z</time></trkpt><trkpt lat="42.881905" lon="11.8248363"><ele>376.0</ele><time>2026-04-25T14:47:01.104Z</time></trkpt><trkpt lat="42.8817819" lon="11.8249189"><ele>376.0</ele><time>2026-04-25T14:47:02.104Z</time></trkpt><trkpt lat="42.8816849" lon="11.8250466"><ele>376.0</ele><time>2026-04-25T14:47:03.104Z</time></trkpt><trkpt lat="42.8816325" lon="11.8252178"><ele>377.75</ele><time>2026-04-25T14:47:04.104Z</time></trkpt><trkpt lat="42.8815896" lon="11.8254069"><ele>379.5</ele><time>2026-04-25T14:47:05.103Z</time></trkpt><trkpt lat="42.8815422" lon="11.8255689"><ele>381.25</ele><time>2026-04-25T14:47:06.104Z</time></trkpt><trkpt lat="42.8814767" lon="11.8257089"><ele>383.0</ele><time>2026-04-25T14:47:07.104Z</time></trkpt><trkpt lat="42.8813811" lon="11.8258255"><ele>383.0</ele><time>2026-04-25T14:47:08.104Z</time></trkpt><trkpt lat="42.8812592" lon="11.8258963"><ele>383.0</ele><time>2026-04-25T14:47:09.104Z</time></trkpt><trkpt lat="42.8811176" lon="11.8259342"><ele>383.0</ele><time>2026-04-25T14:47:10.103Z</time></trkpt><trkpt lat="42.8809528" lon="11.8259183"><ele>383.0</ele><time>2026-04-25T14:47:11.104Z</time></trkpt><trkpt lat="42.8807848" lon="11.8258833"><ele>379.6666666666667</ele><time>2026-04-25T14:47:12.104Z</time></trkpt><trkpt lat="42.8806124" lon="11.8258469"><ele>376.3333333333333</ele><time>2026-04-25T14:47:13.104Z</time></trkpt><trkpt lat="42.880426" lon="11.825824"><ele>373.0</ele><time>2026-04-25T14:47:14.104Z</time></trkpt><trkpt lat="42.8802358" lon="11.8257938"><ele>372.66666666666663</ele><time>2026-04-25T14:47:15.104Z</time></trkpt><trkpt lat="42.8800417" lon="11.8257689"><ele>372.3333333333333</ele><time>2026-04-25T14:47:16.104Z</time></trkpt><trkpt lat="42.8798452" lon="11.8257626"><ele>372.0</ele><time>2026-04-25T14:47:17.104Z</time></trkpt><trkpt lat="42.8796419" lon="11.8257734"><ele>372.0</ele><time>2026-04-25T14:47:18.103Z</time></trkpt><trkpt lat="42.8794333" lon="11.8257849"><ele>372.0</ele><time>2026-04-25T14:47:19.103Z</time></trkpt><trkpt lat="42.8792192" lon="11.8257957"><ele>372.0</ele><time>2026-04-25T14:47:20.104Z</time></trkpt><trkpt lat="42.8790051" lon="11.825802"><ele>372.0</ele><time>2026-04-25T14:47:21.104Z</time></trkpt><trkpt lat="42.8787923" lon="11.825807"><ele>372.0</ele><time>2026-04-25T14:47:22.104Z</time></trkpt><trkpt lat="42.8785806" lon="11.8258166"><ele>372.0</ele><time>2026-04-25T14:47:23.104Z</time></trkpt><trkpt lat="42.8783738" lon="11.8258213"><ele>372.0</ele><time>2026-04-25T14:47:24.104Z</time></trkpt><trkpt lat="42.8781734" lon="11.8258406"><ele>372.0</ele><time>2026-04-25T14:47:25.104Z</time></trkpt><trkpt lat="42.8779853" lon="11.8259126"><ele>372.0</ele><time>2026-04-25T14:47:26.103Z</time></trkpt><trkpt lat="42.8778237" lon="11.8260375"><ele>373.0</ele><time>2026-04-25T14:47:27.104Z</time></trkpt><trkpt lat="42.8776828" lon="11.8261859"><ele>374.0</ele><time>2026-04-25T14:47:28.103Z</time></trkpt><trkpt lat="42.877566" lon="11.8263791"><ele>375.0</ele><time>2026-04-25T14:47:29.103Z</time></trkpt><trkpt lat="42.8774708" lon="11.8266007"><ele>378.33333333333337</ele><time>2026-04-25T14:47:30.104Z</time></trkpt><trkpt lat="42.8773839" lon="11.826832"><ele>381.6666666666667</ele><time>2026-04-25T14:47:31.104Z</time></trkpt><trkpt lat="42.8772875" lon="11.8270615"><ele>385.0</ele><time>2026-04-25T14:47:32.104Z</time></trkpt><trkpt lat="42.8771805" lon="11.8272758"><ele>385.0</ele><time>2026-04-25T14:47:33.104Z</time></trkpt><trkpt lat="42.8770586" lon="11.827481"><ele>385.0</ele><time>2026-04-25T14:47:34.103Z</time></trkpt><trkpt lat="42.8769334" lon="11.8276693"><ele>385.0</ele><time>2026-04-25T14:47:35.103Z</time></trkpt><trkpt lat="42.8768151" lon="11.8278815"><ele>384.6666666666667</ele><time>2026-04-25T14:47:36.104Z</time></trkpt><trkpt lat="42.876718" lon="11.8281175"><ele>384.33333333333337</ele><time>2026-04-25T14:47:37.104Z</time></trkpt><trkpt lat="42.8766338" lon="11.8283791"><ele>384.0</ele><time>2026-04-25T14:47:38.104Z</time></trkpt><trkpt lat="42.8765548" lon="11.8286477"><ele>384.0</ele><time>2026-04-25T14:47:39.104Z</time></trkpt><trkpt lat="42.8764698" lon="11.8289246"><ele>384.0</ele><time>2026-04-25T14:47:40.104Z</time></trkpt><trkpt lat="42.8763825" lon="11.8291995"><ele>384.0</ele><time>2026-04-25T14:47:41.104Z</time></trkpt><trkpt lat="42.8762896" lon="11.829476"><ele>386.33333333333337</ele><time>2026-04-25T14:47:42.104Z</time></trkpt><trkpt lat="42.8762041" lon="11.8297489"><ele>388.6666666666667</ele><time>2026-04-25T14:47:43.104Z</time></trkpt><trkpt lat="42.8761165" lon="11.8300266"><ele>391.0</ele><time>2026-04-25T14:47:44.104Z</time></trkpt><trkpt lat="42.8760332" lon="11.8302817"><ele>393.33333333333337</ele><time>2026-04-25T14:47:45.104Z</time></trkpt><trkpt lat="42.8759588" lon="11.8305241"><ele>395.66666666666663</ele><time>2026-04-25T14:47:46.104Z</time></trkpt><trkpt lat="42.8759076" lon="11.8307635"><ele>398.0</ele><time>2026-04-25T14:47:47.104Z</time></trkpt><trkpt lat="42.87589" lon="11.8310127"><ele>393.3333333333333</ele><time>2026-04-25T14:47:48.104Z</time></trkpt><trkpt lat="42.8758969" lon="11.8312571"><ele>388.66666666666663</ele><time>2026-04-25T14:47:49.104Z</time></trkpt><trkpt lat="42.8759179" lon="11.8314828"><ele>384.0</ele><time>2026-04-25T14:47:50.103Z</time></trkpt><trkpt lat="42.8759286" lon="11.8316831"><ele>383.75</ele><time>2026-04-25T14:47:51.104Z</time></trkpt><trkpt lat="42.8758913" lon="11.8318559"><ele>383.5</ele><time>2026-04-25T14:47:52.104Z</time></trkpt><trkpt lat="42.8758112" lon="11.8319781"><ele>383.25</ele><time>2026-04-25T14:47:53.104Z</time></trkpt><trkpt lat="42.8756923" lon="11.8320739"><ele>383.0</ele><time>2026-04-25T14:47:54.104Z</time></trkpt><trkpt lat="42.875587" lon="11.8321401"><ele>383.0</ele><time>2026-04-25T14:47:55.104Z</time></trkpt><trkpt lat="42.8754812" lon="11.83218"><ele>383.0</ele><time>2026-04-25T14:47:56.104Z</time></trkpt><trkpt lat="42.8753932" lon="11.8321944"><ele>383.0</ele><time>2026-04-25T14:47:57.103Z</time></trkpt><trkpt lat="42.8753077" lon="11.8321511"><ele>383.0</ele><time>2026-04-25T14:47:58.103Z</time></trkpt><trkpt lat="42.8752224" lon="11.832056"><ele>383.0</ele><time>2026-04-25T14:47:59.104Z</time></trkpt><trkpt lat="42.875145" lon="11.8319108"><ele>385.33333333333337</ele><time>2026-04-25T14:48:00.104Z</time></trkpt><trkpt lat="42.8750661" lon="11.8317516"><ele>387.6666666666667</ele><time>2026-04-25T14:48:01.104Z</time></trkpt><trkpt lat="42.8749858" lon="11.8315808"><ele>390.0</ele><time>2026-04-25T14:48:02.103Z</time></trkpt><trkpt lat="42.8748951" lon="11.831397"><ele>390.0</ele><time>2026-04-25T14:48:03.103Z</time></trkpt><trkpt lat="42.874806" lon="11.8312103"><ele>390.0</ele><time>2026-04-25T14:48:04.103Z</time></trkpt><trkpt lat="42.8747083" lon="11.8310231"><ele>390.0</ele><time>2026-04-25T14:48:05.103Z</time></trkpt><trkpt lat="42.8746127" lon="11.8308305"><ele>387.0</ele><time>2026-04-25T14:48:06.104Z</time></trkpt><trkpt lat="42.874517" lon="11.8306455"><ele>384.0</ele><time>2026-04-25T14:48:07.104Z</time></trkpt><trkpt lat="42.8744153" lon="11.8304802"><ele>381.0</ele><time>2026-04-25T14:48:08.104Z</time></trkpt><trkpt lat="42.8742904" lon="11.8303375"><ele>384.66666666666663</ele><time>2026-04-25T14:48:09.104Z</time></trkpt><trkpt lat="42.8741462" lon="11.8302212"><ele>388.3333333333333</ele><time>2026-04-25T14:48:10.104Z</time></trkpt><trkpt lat="42.8739917" lon="11.830125"><ele>392.0</ele><time>2026-04-25T14:48:11.104Z</time></trkpt><trkpt lat="42.8738224" lon="11.8300698"><ele>392.0</ele><time>2026-04-25T14:48:12.104Z</time></trkpt><trkpt lat="42.8736529" lon="11.8300469"><ele>392.0</ele><time>2026-04-25T14:48:13.104Z</time></trkpt><trkpt lat="42.873496" lon="11.8300259"><ele>392.0</ele><time>2026-04-25T14:48:14.104Z</time></trkpt><trkpt lat="42.8733535" lon="11.8300053"><ele>395.0</ele><time>2026-04-25T14:48:15.104Z</time></trkpt><trkpt lat="42.873229" lon="11.8299808"><ele>398.0</ele><time>2026-04-25T14:48:16.104Z</time></trkpt><trkpt lat="42.8731268" lon="11.8299336"><ele>401.0</ele><time>2026-04-25T14:48:17.104Z</time></trkpt><trkpt lat="42.873045" lon="11.8298189"><ele>404.0</ele><time>2026-04-25T14:48:18.104Z</time></trkpt><trkpt lat="42.8729906" lon="11.8296713"><ele>404.0</ele><time>2026-04-25T14:48:19.104Z</time></trkpt><trkpt lat="42.8729537" lon="11.8294906"><ele>404.0</ele><time>2026-04-25T14:48:20.104Z</time></trkpt><trkpt lat="42.8729349" lon="11.8293066"><ele>404.0</ele><time>2026-04-25T14:48:21.104Z</time></trkpt><trkpt lat="42.8729326" lon="11.8291145"><ele>404.0</ele><time>2026-04-25T14:48:22.104Z</time></trkpt><trkpt lat="42.8729626" lon="11.8289154"><ele>403.66666666666663</ele><time>2026-04-25T14:48:23.104Z</time></trkpt><trkpt lat="42.8730279" lon="11.8287002"><ele>403.33333333333337</ele><time>2026-04-25T14:48:24.104Z</time></trkpt><trkpt lat="42.8731005" lon="11.8284866"><ele>403.0</ele><time>2026-04-25T14:48:25.104Z</time></trkpt><trkpt lat="42.8731605" lon="11.8282689"><ele>405.33333333333337</ele><time>2026-04-25T14:48:26.104Z</time></trkpt><trkpt lat="42.8732079" lon="11.8280399"><ele>407.66666666666663</ele><time>2026-04-25T14:48:27.104Z</time></trkpt><trkpt lat="42.8732478" lon="11.8278081"><ele>410.0</ele><time>2026-04-25T14:48:28.104Z</time></trkpt><trkpt lat="42.8732705" lon="11.827567"><ele>412.3333333333333</ele><time>2026-04-25T14:48:29.103Z</time></trkpt><trkpt lat="42.8732904" lon="11.8273109"><ele>414.66666666666663</ele><time>2026-04-25T14:48:30.104Z</time></trkpt><trkpt lat="42.873309" lon="11.8270511"><ele>417.0</ele><time>2026-04-25T14:48:31.103Z</time></trkpt><trkpt lat="42.8733272" lon="11.8267991"><ele>418.66666666666663</ele><time>2026-04-25T14:48:32.104Z</time></trkpt><trkpt lat="42.8733451" lon="11.8265424"><ele>420.3333333333333</ele><time>2026-04-25T14:48:33.104Z</time></trkpt><trkpt lat="42.873366" lon="11.8262862"><ele>422.0</ele><time>2026-04-25T14:48:34.104Z</time></trkpt><trkpt lat="42.8733784" lon="11.8260274"><ele>423.0</ele><time>2026-04-25T14:48:35.104Z</time></trkpt><trkpt lat="42.8733942" lon="11.8257959"><ele>424.0</ele><time>2026-04-25T14:48:36.104Z</time></trkpt><trkpt lat="42.8734069" lon="11.8255873"><ele>425.0</ele><time>2026-04-25T14:48:37.104Z</time></trkpt><trkpt lat="42.8734144" lon="11.825398"><ele>425.0</ele><time>2026-04-25T14:48:38.103Z</time></trkpt><trkpt lat="42.8733853" lon="11.8252245"><ele>425.0</ele><time>2026-04-25T14:48:39.104Z</time></trkpt><trkpt lat="42.8733018" lon="11.8250597"><ele>425.0</ele><time>2026-04-25T14:48:40.104Z</time></trkpt><trkpt lat="42.8731869" lon="11.824928"><ele>425.0</ele><time>2026-04-25T14:48:41.104Z</time></trkpt><trkpt lat="42.8730455" lon="11.8248512"><ele>427.0</ele><time>2026-04-25T14:48:42.104Z</time></trkpt><trkpt lat="42.8729001" lon="11.8247898"><ele>429.0</ele><time>2026-04-25T14:48:43.104Z</time></trkpt><trkpt lat="42.8727467" lon="11.8247374"><ele>431.0</ele><time>2026-04-25T14:48:44.104Z</time></trkpt><trkpt lat="42.8725898" lon="11.8246728"><ele>434.3333333333333</ele><time>2026-04-25T14:48:45.103Z</time></trkpt><trkpt lat="42.8724377" lon="11.8246058"><ele>437.66666666666663</ele><time>2026-04-25T14:48:46.104Z</time></trkpt><trkpt lat="42.8722862" lon="11.8245552"><ele>441.0</ele><time>2026-04-25T14:48:47.104Z</time></trkpt><trkpt lat="42.8721455" lon="11.8245464"><ele>441.0</ele><time>2026-04-25T14:48:48.104Z</time></trkpt><trkpt lat="42.8720344" lon="11.8246116"><ele>441.0</ele><time>2026-04-25T14:48:49.104Z</time></trkpt><trkpt lat="42.8719481" lon="11.8247215"><ele>441.0</ele><time>2026-04-25T14:48:50.104Z</time></trkpt><trkpt lat="42.8718825" lon="11.8248737"><ele>441.0</ele><time>2026-04-25T14:48:51.104Z</time></trkpt><trkpt lat="42.8718703" lon="11.8250535"><ele>440.33333333333337</ele><time>2026-04-25T14:48:52.104Z</time></trkpt><trkpt lat="42.8718789" lon="11.8252571"><ele>439.6666666666667</ele><time>2026-04-25T14:48:53.103Z</time></trkpt><trkpt lat="42.8718903" lon="11.8254726"><ele>439.0</ele><time>2026-04-25T14:48:54.104Z</time></trkpt><trkpt lat="42.8718876" lon="11.8257028"><ele>439.0</ele><time>2026-04-25T14:48:55.104Z</time></trkpt><trkpt lat="42.8718685" lon="11.8259372"><ele>439.0</ele><time>2026-04-25T14:48:56.104Z</time></trkpt><trkpt lat="42.8718422" lon="11.8261714"><ele>439.0</ele><time>2026-04-25T14:48:57.104Z</time></trkpt><trkpt lat="42.8717964" lon="11.8264026"><ele>445.6666666666667</ele><time>2026-04-25T14:48:58.104Z</time></trkpt><trkpt lat="42.8717333" lon="11.826639"><ele>452.33333333333337</ele><time>2026-04-25T14:48:59.104Z</time></trkpt><trkpt lat="42.8716662" lon="11.826874"><ele>459.0</ele><time>2026-04-25T14:49:00.104Z</time></trkpt><trkpt lat="42.8715988" lon="11.8271053"><ele>459.0</ele><time>2026-04-25T14:49:01.103Z</time></trkpt><trkpt lat="42.8715257" lon="11.8273195"><ele>459.0</ele><time>2026-04-25T14:49:02.104Z</time></trkpt><trkpt lat="42.8714442" lon="11.8274925"><ele>459.0</ele><time>2026-04-25T14:49:03.104Z</time></trkpt><trkpt lat="42.8713331" lon="11.8276125"><ele>458.0</ele><time>2026-04-25T14:49:04.104Z</time></trkpt><trkpt lat="42.8712255" lon="11.8276964"><ele>457.0</ele><time>2026-04-25T14:49:05.104Z</time></trkpt><trkpt lat="42.8711253" lon="11.8278046"><ele>456.0</ele><time>2026-04-25T14:49:06.103Z</time></trkpt><trkpt lat="42.8710616" lon="11.8279493"><ele>455.0</ele><time>2026-04-25T14:49:07.104Z</time></trkpt><trkpt lat="42.8710139" lon="11.8281364"><ele>455.0</ele><time>2026-04-25T14:49:08.104Z</time></trkpt><trkpt lat="42.8709924" lon="11.8283321"><ele>455.0</ele><time>2026-04-25T14:49:09.104Z</time></trkpt><trkpt lat="42.8709657" lon="11.8285362"><ele>455.0</ele><time>2026-04-25T14:49:10.104Z</time></trkpt><trkpt lat="42.8709506" lon="11.828743"><ele>455.0</ele><time>2026-04-25T14:49:11.104Z</time></trkpt><trkpt lat="42.8709234" lon="11.8289444"><ele>459.3333333333333</ele><time>2026-04-25T14:49:12.104Z</time></trkpt><trkpt lat="42.8708692" lon="11.8291292"><ele>463.66666666666663</ele><time>2026-04-25T14:49:13.104Z</time></trkpt><trkpt lat="42.870752" lon="11.829275"><ele>468.0</ele><time>2026-04-25T14:49:14.104Z</time></trkpt><trkpt lat="42.8706031" lon="11.829397"><ele>468.0</ele><time>2026-04-25T14:49:15.104Z</time></trkpt><trkpt lat="42.8704508" lon="11.8294762"><ele>468.0</ele><time>2026-04-25T14:49:16.104Z</time></trkpt><trkpt lat="42.8703014" lon="11.8295367"><ele>468.0</ele><time>2026-04-25T14:49:17.104Z</time></trkpt><trkpt lat="42.8701709" lon="11.8295989"><ele>470.25</ele><time>2026-04-25T14:49:18.103Z</time></trkpt><trkpt lat="42.870052" lon="11.8296384"><ele>472.5</ele><time>2026-04-25T14:49:19.104Z</time></trkpt><trkpt lat="42.8699427" lon="11.8296166"><ele>474.75</ele><time>2026-04-25T14:49:20.103Z</time></trkpt><trkpt lat="42.8698511" lon="11.8295381"><ele>477.0</ele><time>2026-04-25T14:49:21.104Z</time></trkpt><trkpt lat="42.869781" lon="11.8294213"><ele>477.8</ele><time>2026-04-25T14:49:22.103Z</time></trkpt><trkpt lat="42.8697388" lon="11.8292795"><ele>478.6</ele><time>2026-04-25T14:49:23.104Z</time></trkpt><trkpt lat="42.8697415" lon="11.8291375"><ele>479.40000000000003</ele><time>2026-04-25T14:49:24.104Z</time></trkpt><trkpt lat="42.8698097" lon="11.8290107"><ele>480.20000000000005</ele><time>2026-04-25T14:49:25.104Z</time></trkpt><trkpt lat="42.8699042" lon="11.8289407"><ele>481.0</ele><time>2026-04-25T14:49:26.104Z</time></trkpt><trkpt lat="42.8700175" lon="11.8288842"><ele>478.5</ele><time>2026-04-25T14:49:27.104Z</time></trkpt><trkpt lat="42.870133" lon="11.8288236"><ele>476.0</ele><time>2026-04-25T14:49:28.104Z</time></trkpt><trkpt lat="42.8702568" lon="11.8287344"><ele>473.5</ele><time>2026-04-25T14:49:29.104Z</time></trkpt><trkpt lat="42.87037" lon="11.8286287"><ele>471.0</ele><time>2026-04-25T14:49:30.104Z</time></trkpt><trkpt lat="42.8704555" lon="11.828492"><ele>472.25</ele><time>2026-04-25T14:49:31.104Z</time></trkpt><trkpt lat="42.8705198" lon="11.8283232"><ele>473.5</ele><time>2026-04-25T14:49:32.104Z</time></trkpt><trkpt lat="42.8705538" lon="11.828142"><ele>474.75</ele><time>2026-04-25T14:49:33.104Z</time></trkpt><trkpt lat="42.87055" lon="11.8279508"><ele>476.0</ele><time>2026-04-25T14:49:34.104Z</time></trkpt><trkpt lat="42.8705159" lon="11.82773"><ele>477.0</ele><time>2026-04-25T14:49:35.104Z</time></trkpt><trkpt lat="42.8704822" lon="11.8275097"><ele>478.0</ele><time>2026-04-25T14:49:36.103Z</time></trkpt><trkpt lat="42.870473" lon="11.8272841"><ele>479.0</ele><time>2026-04-25T14:49:37.104Z</time></trkpt><trkpt lat="42.870503" lon="11.8270718"><ele>479.0</ele><time>2026-04-25T14:49:38.104Z</time></trkpt><trkpt lat="42.8705621" lon="11.8268682"><ele>479.0</ele><time>2026-04-25T14:49:39.104Z</time></trkpt><trkpt lat="42.8706386" lon="11.8266723"><ele>479.0</ele><time>2026-04-25T14:49:40.104Z</time></trkpt><trkpt lat="42.870713" lon="11.826484"><ele>479.66666666666663</ele><time>2026-04-25T14:49:41.104Z</time></trkpt><trkpt lat="42.8707473" lon="11.8262855"><ele>480.33333333333337</ele><time>2026-04-25T14:49:42.104Z</time></trkpt><trkpt lat="42.8707453" lon="11.8260749"><ele>481.0</ele><time>2026-04-25T14:49:43.104Z</time></trkpt><trkpt lat="42.8706967" lon="11.8258829"><ele>481.6666666666667</ele><time>2026-04-25T14:49:44.104Z</time></trkpt><trkpt lat="42.8706092" lon="11.8257073"><ele>482.33333333333337</ele><time>2026-04-25T14:49:45.104Z</time></trkpt><trkpt lat="42.8704941" lon="11.8255586"><ele>483.0</ele><time>2026-04-25T14:49:46.104Z</time></trkpt><trkpt lat="42.8703742" lon="11.8254112"><ele>483.0</ele><time>2026-04-25T14:49:47.104Z</time></trkpt><trkpt lat="42.870246" lon="11.8252802"><ele>483.0</ele><time>2026-04-25T14:49:48.104Z</time></trkpt><trkpt lat="42.8701056" lon="11.8251711"><ele>483.0</ele><time>2026-04-25T14:49:49.104Z</time></trkpt><trkpt lat="42.8699417" lon="11.8251086"><ele>484.66666666666663</ele><time>2026-04-25T14:49:50.103Z</time></trkpt><trkpt lat="42.8697598" lon="11.8251088"><ele>486.3333333333333</ele><time>2026-04-25T14:49:51.104Z</time></trkpt><trkpt lat="42.869581" lon="11.8251361"><ele>488.0</ele><time>2026-04-25T14:49:52.104Z</time></trkpt><trkpt lat="42.8694015" lon="11.8251606"><ele>490.0</ele><time>2026-04-25T14:49:53.104Z</time></trkpt><trkpt lat="42.8692187" lon="11.8251726"><ele>492.0</ele><time>2026-04-25T14:49:54.103Z</time></trkpt><trkpt lat="42.8690296" lon="11.8251524"><ele>494.0</ele><time>2026-04-25T14:49:55.104Z</time></trkpt><trkpt lat="42.8688499" lon="11.8251059"><ele>494.0</ele><time>2026-04-25T14:49:56.103Z</time></trkpt><trkpt lat="42.8686708" lon="11.825054"><ele>494.0</ele><time>2026-04-25T14:49:57.104Z</time></trkpt><trkpt lat="42.868501" lon="11.824996"><ele>494.0</ele><time>2026-04-25T14:49:58.104Z</time></trkpt><trkpt lat="42.868335" lon="11.8249064"><ele>497.66666666666663</ele><time>2026-04-25T14:49:59.104Z</time></trkpt><trkpt lat="42.8681796" lon="11.8247978"><ele>501.33333333333337</ele><time>2026-04-25T14:50:00.103Z</time></trkpt><trkpt lat="42.8680321" lon="11.8246609"><ele>505.0</ele><time>2026-04-25T14:50:01.104Z</time></trkpt><trkpt lat="42.8678996" lon="11.8244917"><ele>508.6666666666667</ele><time>2026-04-25T14:50:02.104Z</time></trkpt><trkpt lat="42.8677769" lon="11.8242934"><ele>512.3333333333334</ele><time>2026-04-25T14:50:03.104Z</time></trkpt><trkpt lat="42.8676651" lon="11.8240772"><ele>516.0</ele><time>2026-04-25T14:50:04.104Z</time></trkpt><trkpt lat="42.8675549" lon="11.8238457"><ele>516.0</ele><time>2026-04-25T14:50:05.104Z</time></trkpt><trkpt lat="42.8674412" lon="11.8236201"><ele>516.0</ele><time>2026-04-25T14:50:06.104Z</time></trkpt><trkpt lat="42.8673318" lon="11.8233922"><ele>516.0</ele><time>2026-04-25T14:50:07.104Z</time></trkpt><trkpt lat="42.8672317" lon="11.8231709"><ele>513.0</ele><time>2026-04-25T14:50:08.104Z</time></trkpt><trkpt lat="42.8671519" lon="11.8229291"><ele>510.0</ele><time>2026-04-25T14:50:09.103Z</time></trkpt><trkpt lat="42.8671086" lon="11.8226743"><ele>507.0</ele><time>2026-04-25T14:50:10.104Z</time></trkpt><trkpt lat="42.867078" lon="11.8224184"><ele>506.0</ele><time>2026-04-25T14:50:11.103Z</time></trkpt><trkpt lat="42.8670535" lon="11.8221778"><ele>505.0</ele><time>2026-04-25T14:50:12.104Z</time></trkpt><trkpt lat="42.8670228" lon="11.8219702"><ele>504.0</ele><time>2026-04-25T14:50:13.104Z</time></trkpt><trkpt lat="42.8670035" lon="11.8217752"><ele>504.0</ele><time>2026-04-25T14:50:14.104Z</time></trkpt><trkpt lat="42.8669659" lon="11.8216035"><ele>504.0</ele><time>2026-04-25T14:50:15.104Z</time></trkpt><trkpt lat="42.8668936" lon="11.821465"><ele>504.0</ele><time>2026-04-25T14:50:16.104Z</time></trkpt><trkpt lat="42.8667934" lon="11.821351"><ele>504.0</ele><time>2026-04-25T14:50:17.104Z</time></trkpt><trkpt lat="42.866683" lon="11.8212372"><ele>506.75</ele><time>2026-04-25T14:50:18.104Z</time></trkpt><trkpt lat="42.8665693" lon="11.8211211"><ele>509.5</ele><time>2026-04-25T14:50:19.103Z</time></trkpt><trkpt lat="42.8664619" lon="11.8210032"><ele>512.25</ele><time>2026-04-25T14:50:20.104Z</time></trkpt><trkpt lat="42.8663419" lon="11.8208839"><ele>515.0</ele><time>2026-04-25T14:50:21.104Z</time></trkpt><trkpt lat="42.8662249" lon="11.8207585"><ele>515.0</ele><time>2026-04-25T14:50:22.104Z</time></trkpt><trkpt lat="42.8661038" lon="11.8206355"><ele>515.0</ele><time>2026-04-25T14:50:23.104Z</time></trkpt><trkpt lat="42.8659869" lon="11.8205213"><ele>515.0</ele><time>2026-04-25T14:50:24.103Z</time></trkpt><trkpt lat="42.8658661" lon="11.8204128"><ele>515.0</ele><time>2026-04-25T14:50:25.104Z</time></trkpt><trkpt lat="42.8657422" lon="11.8203039"><ele>516.6666666666666</ele><time>2026-04-25T14:50:26.104Z</time></trkpt><trkpt lat="42.8656057" lon="11.8202194"><ele>518.3333333333334</ele><time>2026-04-25T14:50:27.104Z</time></trkpt><trkpt lat="42.8654612" lon="11.8201652"><ele>520.0</ele><time>2026-04-25T14:50:28.104Z</time></trkpt><trkpt lat="42.865305" lon="11.820148"><ele>526.0</ele><time>2026-04-25T14:50:29.103Z</time></trkpt><trkpt lat="42.8651452" lon="11.8201573"><ele>532.0</ele><time>2026-04-25T14:50:30.104Z</time></trkpt><trkpt lat="42.8649788" lon="11.8201906"><ele>538.0</ele><time>2026-04-25T14:50:31.103Z</time></trkpt><trkpt lat="42.8648138" lon="11.8202167"><ele>542.6666666666667</ele><time>2026-04-25T14:50:32.103Z</time></trkpt><trkpt lat="42.8646494" lon="11.8202386"><ele>547.3333333333334</ele><time>2026-04-25T14:50:33.104Z</time></trkpt><trkpt lat="42.8644801" lon="11.820275"><ele>552.0</ele><time>2026-04-25T14:50:34.104Z</time></trkpt><trkpt lat="42.8643195" lon="11.8203013"><ele>552.0</ele><time>2026-04-25T14:50:35.104Z</time></trkpt><trkpt lat="42.8641702" lon="11.8203272"><ele>552.0</ele><time>2026-04-25T14:50:36.103Z</time></trkpt><trkpt lat="42.8640333" lon="11.8203541"><ele>552.0</ele><time>2026-04-25T14:50:37.104Z</time></trkpt><trkpt lat="42.8639161" lon="11.8204033"><ele>552.0</ele><time>2026-04-25T14:50:38.103Z</time></trkpt><trkpt lat="42.8638068" lon="11.8204552"><ele>552.0</ele><time>2026-04-25T14:50:39.104Z</time></trkpt><trkpt lat="42.8637048" lon="11.8205292"><ele>552.0</ele><time>2026-04-25T14:50:40.104Z</time></trkpt><trkpt lat="42.8636044" lon="11.820602"><ele>552.0</ele><time>2026-04-25T14:50:41.104Z</time></trkpt><trkpt lat="42.863501" lon="11.8206752"><ele>552.0</ele><time>2026-04-25T14:50:42.103Z</time></trkpt><trkpt lat="42.8633917" lon="11.8207476"><ele>550.25</ele><time>2026-04-25T14:50:43.103Z</time></trkpt><trkpt lat="42.8632806" lon="11.8208248"><ele>548.5</ele><time>2026-04-25T14:50:44.103Z</time></trkpt><trkpt lat="42.8631706" lon="11.8208996"><ele>546.75</ele><time>2026-04-25T14:50:45.104Z</time></trkpt><trkpt lat="42.863062" lon="11.8209762"><ele>545.0</ele><time>2026-04-25T14:50:46.104Z</time></trkpt><trkpt lat="42.8629475" lon="11.8210519"><ele>546.6</ele><time>2026-04-25T14:50:47.104Z</time></trkpt><trkpt lat="42.8628397" lon="11.8211276"><ele>548.2</ele><time>2026-04-25T14:50:48.104Z</time></trkpt><trkpt lat="42.8627371" lon="11.8212"><ele>549.8</ele><time>2026-04-25T14:50:49.104Z</time></trkpt><trkpt lat="42.8626477" lon="11.8212581"><ele>551.4</ele><time>2026-04-25T14:50:50.104Z</time></trkpt><trkpt lat="42.8625689" lon="11.821313"><ele>553.0</ele><time>2026-04-25T14:50:51.104Z</time></trkpt><trkpt lat="42.8624982" lon="11.8213631"><ele>553.0</ele><time>2026-04-25T14:50:52.104Z</time></trkpt><trkpt lat="42.8624274" lon="11.8214152"><ele>553.0</ele><time>2026-04-25T14:50:53.104Z</time></trkpt><trkpt lat="42.8623674" lon="11.8214644"><ele>553.0</ele><time>2026-04-25T14:50:54.104Z</time></trkpt><trkpt lat="42.862287" lon="11.82155"><ele>553.0</ele><time>2026-04-25T14:50:56.103Z</time></trkpt><trkpt lat="42.8622013" lon="11.8215877"><ele>553.0</ele><time>2026-04-25T14:50:58.104Z</time></trkpt><trkpt lat="42.8621144" lon="11.8215227"><ele>553.0</ele><time>2026-04-25T14:51:00.104Z</time></trkpt><trkpt lat="42.8620064" lon="11.8214535"><ele>553.0</ele><time>2026-04-25T14:51:02.104Z</time></trkpt><trkpt lat="42.8619407" lon="11.8214257"><ele>553.0</ele><time>2026-04-25T14:51:03.104Z</time></trkpt><trkpt lat="42.8618473" lon="11.8213694"><ele>553.0</ele><time>2026-04-25T14:51:05.104Z</time></trkpt><trkpt lat="42.8617483" lon="11.8212852"><ele>553.0</ele><time>2026-04-25T14:51:07.104Z</time></trkpt><trkpt lat="42.8616934" lon="11.8212357"><ele>553.0</ele><time>2026-04-25T14:51:08.104Z</time></trkpt><trkpt lat="42.8616409" lon="11.8211762"><ele>553.0</ele><time>2026-04-25T14:51:09.104Z</time></trkpt><trkpt lat="42.861588" lon="11.8211192"><ele>552.8333333333334</ele><time>2026-04-25T14:51:10.104Z</time></trkpt><trkpt lat="42.8615365" lon="11.821056"><ele>552.6666666666667</ele><time>2026-04-25T14:51:11.104Z</time></trkpt><trkpt lat="42.8614855" lon="11.8209803"><ele>552.5</ele><time>2026-04-25T14:51:12.104Z</time></trkpt><trkpt lat="42.8614321" lon="11.8208962"><ele>552.3333333333334</ele><time>2026-04-25T14:51:13.103Z</time></trkpt><trkpt lat="42.8613797" lon="11.8207963"><ele>552.1666666666666</ele><time>2026-04-25T14:51:14.103Z</time></trkpt><trkpt lat="42.8613329" lon="11.8207068"><ele>552.0</ele><time>2026-04-25T14:51:15.104Z</time></trkpt><trkpt lat="42.8612848" lon="11.8206189"><ele>552.8333333333334</ele><time>2026-04-25T14:51:16.104Z</time></trkpt><trkpt lat="42.861243" lon="11.8205296"><ele>553.6666666666666</ele><time>2026-04-25T14:51:17.104Z</time></trkpt><trkpt lat="42.8612124" lon="11.8204376"><ele>554.5</ele><time>2026-04-25T14:51:18.104Z</time></trkpt><trkpt lat="42.8611912" lon="11.8203418"><ele>555.3333333333333</ele><time>2026-04-25T14:51:19.104Z</time></trkpt><trkpt lat="42.8611787" lon="11.8202535"><ele>556.1666666666666</ele><time>2026-04-25T14:51:20.104Z</time></trkpt><trkpt lat="42.8611633" lon="11.820117"><ele>557.0</ele><time>2026-04-25T14:51:22.104Z</time></trkpt><trkpt lat="42.8611321" lon="11.8199723"><ele>559.0</ele><time>2026-04-25T14:51:24.104Z</time></trkpt><trkpt lat="42.8610745" lon="11.8198429"><ele>561.0</ele><time>2026-04-25T14:51:26.104Z</time></trkpt><trkpt lat="42.8610181" lon="11.8197758"><ele>563.0</ele><time>2026-04-25T14:51:29.103Z</time></trkpt><trkpt lat="42.8609536" lon="11.8198199"><ele>565.0</ele><time>2026-04-25T14:51:50.104Z</time></trkpt><trkpt lat="42.8609961" lon="11.819891"><ele>567.0</ele><time>2026-04-25T14:51:55.104Z</time></trkpt><trkpt lat="42.8610544" lon="11.8199263"><ele>569.0</ele><time>2026-04-25T14:52:12.104Z</time></trkpt><trkpt lat="42.8609974" lon="11.8198898"><ele>569.0</ele><time>2026-04-25T14:52:19.104Z</time></trkpt><trkpt lat="42.8609477" lon="11.8198272"><ele>567.0</ele><time>2026-04-25T14:52:21.104Z</time></trkpt></trkseg></trk></gpx>